<?xml version="1.0" encoding="UTF-8" standalone="yes"?>
<gpx
 xmlns="http://www.topografix.com/GPX/1/1"
 creator="OziExplorer Version 3956f - http://www.oziexplorer.com"
 version="1.1"
 xmlns:xsi="http://www.w3.org/2001/XMLSchema-instance"
 xsi:schemaLocation="http://www.topografix.com/GPX/1/1 http://www.topografix.com/GPX/1/1/gpx.xsd">
<metadata>
 <time>2022-09-02T08:46:46Z</time>
 <bounds minlat="31.766890" minlon="34.955220" maxlat="31.813060" maxlon="35.012540"/>
</metadata>
<trk>
 <name>Burma-Psalim_36km</name>
 <desc>Burma-Psalim_36km</desc>
<trkseg>
<trkpt lat="31.8114700" lon="35.0125400">
<ele>276.799988</ele>
<time>2022-09-02T11:46:46.094Z</time>
</trkpt>
<trkpt lat="31.8115000" lon="35.0125400">
<ele>276.830017</ele>
<time>2022-09-02T11:46:46.094Z</time>
</trkpt>
<trkpt lat="31.8115400" lon="35.0125200">
<ele>276.929993</ele>
<time>2022-09-02T11:46:46.094Z</time>
</trkpt>
<trkpt lat="31.8115600" lon="35.0125100">
<ele>276.970001</ele>
<time>2022-09-02T11:46:46.094Z</time>
</trkpt>
<trkpt lat="31.8115900" lon="35.0124800">
<ele>277.110016</ele>
<time>2022-09-02T11:46:46.094Z</time>
</trkpt>
<trkpt lat="31.8116200" lon="35.0124200">
<ele>277.380005</ele>
<time>2022-09-02T11:46:46.094Z</time>
</trkpt>
<trkpt lat="31.8116300" lon="35.0123800">
<ele>277.549988</ele>
<time>2022-09-02T11:46:46.094Z</time>
</trkpt>
<trkpt lat="31.8116500" lon="35.0123300">
<ele>277.690002</ele>
<time>2022-09-02T11:46:46.094Z</time>
</trkpt>
<trkpt lat="31.8116600" lon="35.0122900">
<ele>277.790009</ele>
<time>2022-09-02T11:46:46.094Z</time>
</trkpt>
<trkpt lat="31.8116800" lon="35.0122500">
<ele>278.050018</ele>
<time>2022-09-02T11:46:46.094Z</time>
</trkpt>
<trkpt lat="31.8117000" lon="35.0121900">
<ele>278.359985</ele>
<time>2022-09-02T11:46:46.094Z</time>
</trkpt>
<trkpt lat="31.8117100" lon="35.0121000">
<ele>278.470001</ele>
<time>2022-09-02T11:46:46.094Z</time>
</trkpt>
<trkpt lat="31.8117300" lon="35.0120300">
<ele>278.679993</ele>
<time>2022-09-02T11:46:46.094Z</time>
</trkpt>
<trkpt lat="31.8117500" lon="35.0119400">
<ele>278.889984</ele>
<time>2022-09-02T11:46:46.094Z</time>
</trkpt>
<trkpt lat="31.8117800" lon="35.0118500">
<ele>278.809998</ele>
<time>2022-09-02T11:46:46.094Z</time>
</trkpt>
<trkpt lat="31.8118000" lon="35.0117800">
<ele>278.589996</ele>
<time>2022-09-02T11:46:46.094Z</time>
</trkpt>
<trkpt lat="31.8118200" lon="35.0116400">
<ele>278.000000</ele>
<time>2022-09-02T11:46:46.094Z</time>
</trkpt>
<trkpt lat="31.8118600" lon="35.0115200">
<ele>278.000000</ele>
<time>2022-09-02T11:46:46.094Z</time>
</trkpt>
<trkpt lat="31.8118800" lon="35.0114200">
<ele>278.000000</ele>
<time>2022-09-02T11:46:46.094Z</time>
</trkpt>
<trkpt lat="31.8119000" lon="35.0113500">
<ele>277.600006</ele>
<time>2022-09-02T11:46:46.094Z</time>
</trkpt>
<trkpt lat="31.8119200" lon="35.0112900">
<ele>276.959991</ele>
<time>2022-09-02T11:46:46.094Z</time>
</trkpt>
<trkpt lat="31.8119300" lon="35.0112200">
<ele>276.209991</ele>
<time>2022-09-02T11:46:46.094Z</time>
</trkpt>
<trkpt lat="31.8119600" lon="35.0111400">
<ele>275.480011</ele>
<time>2022-09-02T11:46:46.094Z</time>
</trkpt>
<trkpt lat="31.8119800" lon="35.0109900">
<ele>273.199982</ele>
<time>2022-09-02T11:46:46.094Z</time>
</trkpt>
<trkpt lat="31.8120100" lon="35.0108400">
<ele>270.829987</ele>
<time>2022-09-02T11:46:46.094Z</time>
</trkpt>
<trkpt lat="31.8120300" lon="35.0107800">
<ele>270.269989</ele>
<time>2022-09-02T11:46:46.094Z</time>
</trkpt>
<trkpt lat="31.8120400" lon="35.0107200">
<ele>269.679993</ele>
<time>2022-09-02T11:46:46.095Z</time>
</trkpt>
<trkpt lat="31.8120500" lon="35.0106500">
<ele>269.000000</ele>
<time>2022-09-02T11:46:46.095Z</time>
</trkpt>
<trkpt lat="31.8120800" lon="35.0105100">
<ele>268.109985</ele>
<time>2022-09-02T11:46:46.095Z</time>
</trkpt>
<trkpt lat="31.8120900" lon="35.0104500">
<ele>267.860016</ele>
<time>2022-09-02T11:46:46.095Z</time>
</trkpt>
<trkpt lat="31.8121000" lon="35.0103900">
<ele>267.609985</ele>
<time>2022-09-02T11:46:46.095Z</time>
</trkpt>
<trkpt lat="31.8121300" lon="35.0102900">
<ele>267.429993</ele>
<time>2022-09-02T11:46:46.095Z</time>
</trkpt>
<trkpt lat="31.8121400" lon="35.0102300">
<ele>267.279999</ele>
<time>2022-09-02T11:46:46.095Z</time>
</trkpt>
<trkpt lat="31.8121600" lon="35.0101100">
<ele>266.940002</ele>
<time>2022-09-02T11:46:46.095Z</time>
</trkpt>
<trkpt lat="31.8121800" lon="35.0099800">
<ele>266.489990</ele>
<time>2022-09-02T11:46:46.095Z</time>
</trkpt>
<trkpt lat="31.8121900" lon="35.0099200">
<ele>266.429993</ele>
<time>2022-09-02T11:46:46.095Z</time>
</trkpt>
<trkpt lat="31.8122000" lon="35.0097900">
<ele>266.119995</ele>
<time>2022-09-02T11:46:46.095Z</time>
</trkpt>
<trkpt lat="31.8122000" lon="35.0097200">
<ele>265.899994</ele>
<time>2022-09-02T11:46:46.095Z</time>
</trkpt>
<trkpt lat="31.8122100" lon="35.0096400">
<ele>265.360016</ele>
<time>2022-09-02T11:46:46.095Z</time>
</trkpt>
<trkpt lat="31.8122100" lon="35.0095700">
<ele>264.860016</ele>
<time>2022-09-02T11:46:46.095Z</time>
</trkpt>
<trkpt lat="31.8122200" lon="35.0094200">
<ele>263.820007</ele>
<time>2022-09-02T11:46:46.095Z</time>
</trkpt>
<trkpt lat="31.8122300" lon="35.0093400">
<ele>263.380005</ele>
<time>2022-09-02T11:46:46.095Z</time>
</trkpt>
<trkpt lat="31.8122300" lon="35.0091900">
<ele>262.279999</ele>
<time>2022-09-02T11:46:46.095Z</time>
</trkpt>
<trkpt lat="31.8122400" lon="35.0091100">
<ele>262.070007</ele>
<time>2022-09-02T11:46:46.095Z</time>
</trkpt>
<trkpt lat="31.8122500" lon="35.0090400">
<ele>261.989990</ele>
<time>2022-09-02T11:46:46.095Z</time>
</trkpt>
<trkpt lat="31.8122600" lon="35.0088700">
<ele>261.559998</ele>
<time>2022-09-02T11:46:46.095Z</time>
</trkpt>
<trkpt lat="31.8122700" lon="35.0087100">
<ele>260.790009</ele>
<time>2022-09-02T11:46:46.095Z</time>
</trkpt>
<trkpt lat="31.8122800" lon="35.0086300">
<ele>260.559998</ele>
<time>2022-09-02T11:46:46.095Z</time>
</trkpt>
<trkpt lat="31.8122900" lon="35.0085500">
<ele>260.489990</ele>
<time>2022-09-02T11:46:46.095Z</time>
</trkpt>
<trkpt lat="31.8122900" lon="35.0083900">
<ele>259.910004</ele>
<time>2022-09-02T11:46:46.095Z</time>
</trkpt>
<trkpt lat="31.8122900" lon="35.0082400">
<ele>259.790009</ele>
<time>2022-09-02T11:46:46.095Z</time>
</trkpt>
<trkpt lat="31.8122900" lon="35.0081600">
<ele>259.860016</ele>
<time>2022-09-02T11:46:46.095Z</time>
</trkpt>
<trkpt lat="31.8123000" lon="35.0080100">
<ele>260.289978</ele>
<time>2022-09-02T11:46:46.096Z</time>
</trkpt>
<trkpt lat="31.8123000" lon="35.0078700">
<ele>260.429993</ele>
<time>2022-09-02T11:46:46.096Z</time>
</trkpt>
<trkpt lat="31.8123000" lon="35.0077300">
<ele>260.470001</ele>
<time>2022-09-02T11:46:46.096Z</time>
</trkpt>
<trkpt lat="31.8123000" lon="35.0076500">
<ele>260.390015</ele>
<time>2022-09-02T11:46:46.096Z</time>
</trkpt>
<trkpt lat="31.8123100" lon="35.0075000">
<ele>260.529999</ele>
<time>2022-09-02T11:46:46.096Z</time>
</trkpt>
<trkpt lat="31.8123100" lon="35.0073500">
<ele>260.359985</ele>
<time>2022-09-02T11:46:46.096Z</time>
</trkpt>
<trkpt lat="31.8123200" lon="35.0071900">
<ele>260.460022</ele>
<time>2022-09-02T11:46:46.096Z</time>
</trkpt>
<trkpt lat="31.8123200" lon="35.0071400">
<ele>260.450012</ele>
<time>2022-09-02T11:46:46.096Z</time>
</trkpt>
<trkpt lat="31.8123200" lon="35.0070700">
<ele>260.429993</ele>
<time>2022-09-02T11:46:46.096Z</time>
</trkpt>
<trkpt lat="31.8123300" lon="35.0069400">
<ele>260.570007</ele>
<time>2022-09-02T11:46:46.096Z</time>
</trkpt>
<trkpt lat="31.8123400" lon="35.0068800">
<ele>260.959991</ele>
<time>2022-09-02T11:46:46.096Z</time>
</trkpt>
<trkpt lat="31.8123500" lon="35.0067700">
<ele>261.519989</ele>
<time>2022-09-02T11:46:46.096Z</time>
</trkpt>
<trkpt lat="31.8123600" lon="35.0066600">
<ele>262.000000</ele>
<time>2022-09-02T11:46:46.096Z</time>
</trkpt>
<trkpt lat="31.8123700" lon="35.0065600">
<ele>262.269989</ele>
<time>2022-09-02T11:46:46.096Z</time>
</trkpt>
<trkpt lat="31.8123700" lon="35.0065200">
<ele>262.339996</ele>
<time>2022-09-02T11:46:46.096Z</time>
</trkpt>
<trkpt lat="31.8123800" lon="35.0064700">
<ele>262.540009</ele>
<time>2022-09-02T11:46:46.096Z</time>
</trkpt>
<trkpt lat="31.8123900" lon="35.0063900">
<ele>262.809998</ele>
<time>2022-09-02T11:46:46.096Z</time>
</trkpt>
<trkpt lat="31.8123900" lon="35.0063600">
<ele>262.709991</ele>
<time>2022-09-02T11:46:46.096Z</time>
</trkpt>
<trkpt lat="31.8124000" lon="35.0062900">
<ele>262.559998</ele>
<time>2022-09-02T11:46:46.096Z</time>
</trkpt>
<trkpt lat="31.8124000" lon="35.0062400">
<ele>262.380005</ele>
<time>2022-09-02T11:46:46.096Z</time>
</trkpt>
<trkpt lat="31.8124100" lon="35.0062100">
<ele>262.380005</ele>
<time>2022-09-02T11:46:46.096Z</time>
</trkpt>
<trkpt lat="31.8124100" lon="35.0061700">
<ele>262.239990</ele>
<time>2022-09-02T11:46:46.096Z</time>
</trkpt>
<trkpt lat="31.8124100" lon="35.0061300">
<ele>262.100006</ele>
<time>2022-09-02T11:46:46.096Z</time>
</trkpt>
<trkpt lat="31.8124200" lon="35.0060900">
<ele>261.850006</ele>
<time>2022-09-02T11:46:46.096Z</time>
</trkpt>
<trkpt lat="31.8124200" lon="35.0060500">
<ele>261.320007</ele>
<time>2022-09-02T11:46:46.096Z</time>
</trkpt>
<trkpt lat="31.8124300" lon="35.0059900">
<ele>260.610016</ele>
<time>2022-09-02T11:46:46.097Z</time>
</trkpt>
<trkpt lat="31.8124300" lon="35.0059300">
<ele>259.799988</ele>
<time>2022-09-02T11:46:46.097Z</time>
</trkpt>
<trkpt lat="31.8124300" lon="35.0059000">
<ele>259.399994</ele>
<time>2022-09-02T11:46:46.097Z</time>
</trkpt>
<trkpt lat="31.8124300" lon="35.0058400">
<ele>258.589996</ele>
<time>2022-09-02T11:46:46.097Z</time>
</trkpt>
<trkpt lat="31.8124200" lon="35.0057600">
<ele>258.010010</ele>
<time>2022-09-02T11:46:46.097Z</time>
</trkpt>
<trkpt lat="31.8124200" lon="35.0056900">
<ele>257.610016</ele>
<time>2022-09-02T11:46:46.097Z</time>
</trkpt>
<trkpt lat="31.8124100" lon="35.0056500">
<ele>257.260010</ele>
<time>2022-09-02T11:46:46.097Z</time>
</trkpt>
<trkpt lat="31.8123900" lon="35.0055900">
<ele>256.640015</ele>
<time>2022-09-02T11:46:46.097Z</time>
</trkpt>
<trkpt lat="31.8123700" lon="35.0055200">
<ele>256.320007</ele>
<time>2022-09-02T11:46:46.097Z</time>
</trkpt>
<trkpt lat="31.8123500" lon="35.0054700">
<ele>256.309998</ele>
<time>2022-09-02T11:46:46.097Z</time>
</trkpt>
<trkpt lat="31.8123200" lon="35.0054000">
<ele>256.329987</ele>
<time>2022-09-02T11:46:46.097Z</time>
</trkpt>
<trkpt lat="31.8122800" lon="35.0053700">
<ele>256.029999</ele>
<time>2022-09-02T11:46:46.097Z</time>
</trkpt>
<trkpt lat="31.8122400" lon="35.0053700">
<ele>255.550003</ele>
<time>2022-09-02T11:46:46.097Z</time>
</trkpt>
<trkpt lat="31.8122000" lon="35.0053700">
<ele>255.340012</ele>
<time>2022-09-02T11:46:46.097Z</time>
</trkpt>
<trkpt lat="31.8121600" lon="35.0053700">
<ele>255.340012</ele>
<time>2022-09-02T11:46:46.097Z</time>
</trkpt>
<trkpt lat="31.8121200" lon="35.0053900">
<ele>255.190002</ele>
<time>2022-09-02T11:46:46.097Z</time>
</trkpt>
<trkpt lat="31.8120600" lon="35.0054100">
<ele>255.049988</ele>
<time>2022-09-02T11:46:46.097Z</time>
</trkpt>
<trkpt lat="31.8120000" lon="35.0054200">
<ele>254.980011</ele>
<time>2022-09-02T11:46:46.097Z</time>
</trkpt>
<trkpt lat="31.8119300" lon="35.0054200">
<ele>255.210007</ele>
<time>2022-09-02T11:46:46.097Z</time>
</trkpt>
<trkpt lat="31.8118600" lon="35.0054200">
<ele>256.350006</ele>
<time>2022-09-02T11:46:46.097Z</time>
</trkpt>
<trkpt lat="31.8118100" lon="35.0054000">
<ele>257.270020</ele>
<time>2022-09-02T11:46:46.097Z</time>
</trkpt>
<trkpt lat="31.8117700" lon="35.0053500">
<ele>258.160004</ele>
<time>2022-09-02T11:46:46.097Z</time>
</trkpt>
<trkpt lat="31.8117300" lon="35.0053000">
<ele>258.989990</ele>
<time>2022-09-02T11:46:46.097Z</time>
</trkpt>
<trkpt lat="31.8117100" lon="35.0052500">
<ele>259.309998</ele>
<time>2022-09-02T11:46:46.097Z</time>
</trkpt>
<trkpt lat="31.8116900" lon="35.0051900">
<ele>259.399994</ele>
<time>2022-09-02T11:46:46.097Z</time>
</trkpt>
<trkpt lat="31.8116700" lon="35.0051500">
<ele>259.500000</ele>
<time>2022-09-02T11:46:46.097Z</time>
</trkpt>
<trkpt lat="31.8116600" lon="35.0051000">
<ele>259.459991</ele>
<time>2022-09-02T11:46:46.097Z</time>
</trkpt>
<trkpt lat="31.8116400" lon="35.0050500">
<ele>259.580017</ele>
<time>2022-09-02T11:46:46.097Z</time>
</trkpt>
<trkpt lat="31.8116300" lon="35.0050000">
<ele>259.529999</ele>
<time>2022-09-02T11:46:46.097Z</time>
</trkpt>
<trkpt lat="31.8116200" lon="35.0049500">
<ele>259.339996</ele>
<time>2022-09-02T11:46:46.097Z</time>
</trkpt>
<trkpt lat="31.8116200" lon="35.0048900">
<ele>258.950012</ele>
<time>2022-09-02T11:46:46.097Z</time>
</trkpt>
<trkpt lat="31.8116100" lon="35.0048500">
<ele>258.850006</ele>
<time>2022-09-02T11:46:46.098Z</time>
</trkpt>
<trkpt lat="31.8116000" lon="35.0047700">
<ele>258.500000</ele>
<time>2022-09-02T11:46:46.098Z</time>
</trkpt>
<trkpt lat="31.8115900" lon="35.0047000">
<ele>258.200012</ele>
<time>2022-09-02T11:46:46.098Z</time>
</trkpt>
<trkpt lat="31.8115700" lon="35.0046300">
<ele>257.959991</ele>
<time>2022-09-02T11:46:46.098Z</time>
</trkpt>
<trkpt lat="31.8115500" lon="35.0045400">
<ele>257.509979</ele>
<time>2022-09-02T11:46:46.098Z</time>
</trkpt>
<trkpt lat="31.8115400" lon="35.0044800">
<ele>257.140015</ele>
<time>2022-09-02T11:46:46.098Z</time>
</trkpt>
<trkpt lat="31.8115200" lon="35.0044100">
<ele>256.679993</ele>
<time>2022-09-02T11:46:46.098Z</time>
</trkpt>
<trkpt lat="31.8114900" lon="35.0043400">
<ele>256.279999</ele>
<time>2022-09-02T11:46:46.098Z</time>
</trkpt>
<trkpt lat="31.8114600" lon="35.0042800">
<ele>256.050018</ele>
<time>2022-09-02T11:46:46.098Z</time>
</trkpt>
<trkpt lat="31.8114200" lon="35.0041900">
<ele>255.699997</ele>
<time>2022-09-02T11:46:46.098Z</time>
</trkpt>
<trkpt lat="31.8113700" lon="35.0041300">
<ele>255.669998</ele>
<time>2022-09-02T11:46:46.098Z</time>
</trkpt>
<trkpt lat="31.8113300" lon="35.0040900">
<ele>255.620010</ele>
<time>2022-09-02T11:46:46.098Z</time>
</trkpt>
<trkpt lat="31.8112900" lon="35.0040600">
<ele>255.720001</ele>
<time>2022-09-02T11:46:46.098Z</time>
</trkpt>
<trkpt lat="31.8112500" lon="35.0040400">
<ele>255.989990</ele>
<time>2022-09-02T11:46:46.098Z</time>
</trkpt>
<trkpt lat="31.8112200" lon="35.0040200">
<ele>256.079987</ele>
<time>2022-09-02T11:46:46.098Z</time>
</trkpt>
<trkpt lat="31.8111800" lon="35.0039900">
<ele>256.100006</ele>
<time>2022-09-02T11:46:46.098Z</time>
</trkpt>
<trkpt lat="31.8111300" lon="35.0039600">
<ele>256.250000</ele>
<time>2022-09-02T11:46:46.098Z</time>
</trkpt>
<trkpt lat="31.8110900" lon="35.0039200">
<ele>255.550003</ele>
<time>2022-09-02T11:46:46.098Z</time>
</trkpt>
<trkpt lat="31.8110600" lon="35.0038900">
<ele>254.659988</ele>
<time>2022-09-02T11:46:46.098Z</time>
</trkpt>
<trkpt lat="31.8110300" lon="35.0038700">
<ele>253.869995</ele>
<time>2022-09-02T11:46:46.098Z</time>
</trkpt>
<trkpt lat="31.8109900" lon="35.0038500">
<ele>253.010010</ele>
<time>2022-09-02T11:46:46.098Z</time>
</trkpt>
<trkpt lat="31.8109600" lon="35.0038400">
<ele>252.499985</ele>
<time>2022-09-02T11:46:46.098Z</time>
</trkpt>
<trkpt lat="31.8109200" lon="35.0038300">
<ele>251.929993</ele>
<time>2022-09-02T11:46:46.098Z</time>
</trkpt>
<trkpt lat="31.8108700" lon="35.0038300">
<ele>251.570007</ele>
<time>2022-09-02T11:46:46.098Z</time>
</trkpt>
<trkpt lat="31.8107900" lon="35.0038300">
<ele>250.970001</ele>
<time>2022-09-02T11:46:46.098Z</time>
</trkpt>
<trkpt lat="31.8107200" lon="35.0038300">
<ele>250.429993</ele>
<time>2022-09-02T11:46:46.098Z</time>
</trkpt>
<trkpt lat="31.8106700" lon="35.0038400">
<ele>250.240005</ele>
<time>2022-09-02T11:46:46.098Z</time>
</trkpt>
<trkpt lat="31.8106000" lon="35.0038500">
<ele>249.830002</ele>
<time>2022-09-02T11:46:46.099Z</time>
</trkpt>
<trkpt lat="31.8105400" lon="35.0038700">
<ele>249.190002</ele>
<time>2022-09-02T11:46:46.099Z</time>
</trkpt>
<trkpt lat="31.8104900" lon="35.0038900">
<ele>247.660004</ele>
<time>2022-09-02T11:46:46.099Z</time>
</trkpt>
<trkpt lat="31.8104400" lon="35.0039100">
<ele>246.300003</ele>
<time>2022-09-02T11:46:46.099Z</time>
</trkpt>
<trkpt lat="31.8103900" lon="35.0039300">
<ele>245.070007</ele>
<time>2022-09-02T11:46:46.099Z</time>
</trkpt>
<trkpt lat="31.8103400" lon="35.0039400">
<ele>243.690002</ele>
<time>2022-09-02T11:46:46.099Z</time>
</trkpt>
<trkpt lat="31.8102900" lon="35.0039600">
<ele>242.690002</ele>
<time>2022-09-02T11:46:46.099Z</time>
</trkpt>
<trkpt lat="31.8102500" lon="35.0039800">
<ele>243.220001</ele>
<time>2022-09-02T11:46:46.099Z</time>
</trkpt>
<trkpt lat="31.8102100" lon="35.0039900">
<ele>243.870010</ele>
<time>2022-09-02T11:46:46.099Z</time>
</trkpt>
<trkpt lat="31.8101800" lon="35.0040100">
<ele>244.610001</ele>
<time>2022-09-02T11:46:46.099Z</time>
</trkpt>
<trkpt lat="31.8101500" lon="35.0040300">
<ele>245.240005</ele>
<time>2022-09-02T11:46:46.099Z</time>
</trkpt>
<trkpt lat="31.8101200" lon="35.0040500">
<ele>245.750000</ele>
<time>2022-09-02T11:46:46.099Z</time>
</trkpt>
<trkpt lat="31.8100900" lon="35.0040800">
<ele>246.319992</ele>
<time>2022-09-02T11:46:46.099Z</time>
</trkpt>
<trkpt lat="31.8100600" lon="35.0041100">
<ele>246.719986</ele>
<time>2022-09-02T11:46:46.099Z</time>
</trkpt>
<trkpt lat="31.8100300" lon="35.0041400">
<ele>246.950012</ele>
<time>2022-09-02T11:46:46.099Z</time>
</trkpt>
<trkpt lat="31.8100200" lon="35.0041700">
<ele>247.220001</ele>
<time>2022-09-02T11:46:46.099Z</time>
</trkpt>
<trkpt lat="31.8099700" lon="35.0042200">
<ele>248.330002</ele>
<time>2022-09-02T11:46:46.099Z</time>
</trkpt>
<trkpt lat="31.8099500" lon="35.0042500">
<ele>249.050003</ele>
<time>2022-09-02T11:46:46.099Z</time>
</trkpt>
<trkpt lat="31.8099300" lon="35.0042700">
<ele>249.550003</ele>
<time>2022-09-02T11:46:46.099Z</time>
</trkpt>
<trkpt lat="31.8099100" lon="35.0042900">
<ele>250.019989</ele>
<time>2022-09-02T11:46:46.099Z</time>
</trkpt>
<trkpt lat="31.8098800" lon="35.0043200">
<ele>250.700012</ele>
<time>2022-09-02T11:46:46.099Z</time>
</trkpt>
<trkpt lat="31.8098600" lon="35.0043500">
<ele>251.299988</ele>
<time>2022-09-02T11:46:46.099Z</time>
</trkpt>
<trkpt lat="31.8098300" lon="35.0043900">
<ele>252.059998</ele>
<time>2022-09-02T11:46:46.099Z</time>
</trkpt>
<trkpt lat="31.8098000" lon="35.0044200">
<ele>252.600006</ele>
<time>2022-09-02T11:46:46.099Z</time>
</trkpt>
<trkpt lat="31.8097700" lon="35.0044500">
<ele>253.030014</ele>
<time>2022-09-02T11:46:46.099Z</time>
</trkpt>
<trkpt lat="31.8097300" lon="35.0044900">
<ele>253.180008</ele>
<time>2022-09-02T11:46:46.099Z</time>
</trkpt>
<trkpt lat="31.8097000" lon="35.0045200">
<ele>253.050003</ele>
<time>2022-09-02T11:46:46.099Z</time>
</trkpt>
<trkpt lat="31.8096800" lon="35.0045500">
<ele>252.979996</ele>
<time>2022-09-02T11:46:46.099Z</time>
</trkpt>
<trkpt lat="31.8096500" lon="35.0045900">
<ele>252.880005</ele>
<time>2022-09-02T11:46:46.099Z</time>
</trkpt>
<trkpt lat="31.8096300" lon="35.0046200">
<ele>252.850006</ele>
<time>2022-09-02T11:46:46.099Z</time>
</trkpt>
<trkpt lat="31.8096100" lon="35.0046500">
<ele>252.830002</ele>
<time>2022-09-02T11:46:46.099Z</time>
</trkpt>
<trkpt lat="31.8095700" lon="35.0047000">
<ele>252.779999</ele>
<time>2022-09-02T11:46:46.099Z</time>
</trkpt>
<trkpt lat="31.8095300" lon="35.0047400">
<ele>252.809998</ele>
<time>2022-09-02T11:46:46.099Z</time>
</trkpt>
<trkpt lat="31.8095200" lon="35.0047800">
<ele>253.209991</ele>
<time>2022-09-02T11:46:46.099Z</time>
</trkpt>
<trkpt lat="31.8094900" lon="35.0048300">
<ele>253.690002</ele>
<time>2022-09-02T11:46:46.099Z</time>
</trkpt>
<trkpt lat="31.8094700" lon="35.0048900">
<ele>254.429993</ele>
<time>2022-09-02T11:46:46.099Z</time>
</trkpt>
<trkpt lat="31.8094500" lon="35.0049200">
<ele>254.850006</ele>
<time>2022-09-02T11:46:46.099Z</time>
</trkpt>
<trkpt lat="31.8094400" lon="35.0049700">
<ele>255.600006</ele>
<time>2022-09-02T11:46:46.099Z</time>
</trkpt>
<trkpt lat="31.8094200" lon="35.0050100">
<ele>256.290009</ele>
<time>2022-09-02T11:46:46.099Z</time>
</trkpt>
<trkpt lat="31.8094000" lon="35.0050500">
<ele>256.889984</ele>
<time>2022-09-02T11:46:46.099Z</time>
</trkpt>
<trkpt lat="31.8093700" lon="35.0050800">
<ele>257.480011</ele>
<time>2022-09-02T11:46:46.099Z</time>
</trkpt>
<trkpt lat="31.8093300" lon="35.0051000">
<ele>258.049988</ele>
<time>2022-09-02T11:46:46.100Z</time>
</trkpt>
<trkpt lat="31.8093000" lon="35.0051300">
<ele>258.690002</ele>
<time>2022-09-02T11:46:46.100Z</time>
</trkpt>
<trkpt lat="31.8092400" lon="35.0051600">
<ele>259.619995</ele>
<time>2022-09-02T11:46:46.100Z</time>
</trkpt>
<trkpt lat="31.8092100" lon="35.0051700">
<ele>260.040009</ele>
<time>2022-09-02T11:46:46.100Z</time>
</trkpt>
<trkpt lat="31.8091700" lon="35.0051700">
<ele>260.419983</ele>
<time>2022-09-02T11:46:46.100Z</time>
</trkpt>
<trkpt lat="31.8091100" lon="35.0051700">
<ele>260.480011</ele>
<time>2022-09-02T11:46:46.100Z</time>
</trkpt>
<trkpt lat="31.8090600" lon="35.0051700">
<ele>260.510010</ele>
<time>2022-09-02T11:46:46.100Z</time>
</trkpt>
<trkpt lat="31.8090200" lon="35.0051600">
<ele>260.450012</ele>
<time>2022-09-02T11:46:46.100Z</time>
</trkpt>
<trkpt lat="31.8089700" lon="35.0051500">
<ele>260.429993</ele>
<time>2022-09-02T11:46:46.100Z</time>
</trkpt>
<trkpt lat="31.8089100" lon="35.0051200">
<ele>260.380005</ele>
<time>2022-09-02T11:46:46.100Z</time>
</trkpt>
<trkpt lat="31.8088400" lon="35.0051000">
<ele>260.130005</ele>
<time>2022-09-02T11:46:46.100Z</time>
</trkpt>
<trkpt lat="31.8088000" lon="35.0050800">
<ele>259.829987</ele>
<time>2022-09-02T11:46:46.100Z</time>
</trkpt>
<trkpt lat="31.8087400" lon="35.0050600">
<ele>259.380005</ele>
<time>2022-09-02T11:46:46.100Z</time>
</trkpt>
<trkpt lat="31.8086800" lon="35.0050500">
<ele>258.950012</ele>
<time>2022-09-02T11:46:46.100Z</time>
</trkpt>
<trkpt lat="31.8086300" lon="35.0050500">
<ele>258.649994</ele>
<time>2022-09-02T11:46:46.100Z</time>
</trkpt>
<trkpt lat="31.8085800" lon="35.0050400">
<ele>258.209991</ele>
<time>2022-09-02T11:46:46.100Z</time>
</trkpt>
<trkpt lat="31.8085200" lon="35.0050400">
<ele>257.779999</ele>
<time>2022-09-02T11:46:46.100Z</time>
</trkpt>
<trkpt lat="31.8084700" lon="35.0050400">
<ele>257.420013</ele>
<time>2022-09-02T11:46:46.100Z</time>
</trkpt>
<trkpt lat="31.8084200" lon="35.0050400">
<ele>257.059998</ele>
<time>2022-09-02T11:46:46.100Z</time>
</trkpt>
<trkpt lat="31.8083700" lon="35.0050400">
<ele>256.699982</ele>
<time>2022-09-02T11:46:46.100Z</time>
</trkpt>
<trkpt lat="31.8083300" lon="35.0050400">
<ele>256.470001</ele>
<time>2022-09-02T11:46:46.100Z</time>
</trkpt>
<trkpt lat="31.8082700" lon="35.0050300">
<ele>257.010010</ele>
<time>2022-09-02T11:46:46.100Z</time>
</trkpt>
<trkpt lat="31.8082300" lon="35.0050300">
<ele>257.440002</ele>
<time>2022-09-02T11:46:46.100Z</time>
</trkpt>
<trkpt lat="31.8081800" lon="35.0050200">
<ele>257.869995</ele>
<time>2022-09-02T11:46:46.100Z</time>
</trkpt>
<trkpt lat="31.8081400" lon="35.0050000">
<ele>258.089996</ele>
<time>2022-09-02T11:46:46.100Z</time>
</trkpt>
<trkpt lat="31.8081000" lon="35.0049800">
<ele>258.320007</ele>
<time>2022-09-02T11:46:46.100Z</time>
</trkpt>
<trkpt lat="31.8080600" lon="35.0049500">
<ele>258.410004</ele>
<time>2022-09-02T11:46:46.101Z</time>
</trkpt>
<trkpt lat="31.8080200" lon="35.0049300">
<ele>258.690002</ele>
<time>2022-09-02T11:46:46.101Z</time>
</trkpt>
<trkpt lat="31.8079800" lon="35.0049100">
<ele>258.940002</ele>
<time>2022-09-02T11:46:46.101Z</time>
</trkpt>
<trkpt lat="31.8079200" lon="35.0048800">
<ele>259.230011</ele>
<time>2022-09-02T11:46:46.101Z</time>
</trkpt>
<trkpt lat="31.8078700" lon="35.0048600">
<ele>259.489990</ele>
<time>2022-09-02T11:46:46.101Z</time>
</trkpt>
<trkpt lat="31.8078000" lon="35.0048200">
<ele>259.540009</ele>
<time>2022-09-02T11:46:46.101Z</time>
</trkpt>
<trkpt lat="31.8077400" lon="35.0047900">
<ele>258.230011</ele>
<time>2022-09-02T11:46:46.101Z</time>
</trkpt>
<trkpt lat="31.8076800" lon="35.0047600">
<ele>256.170013</ele>
<time>2022-09-02T11:46:46.101Z</time>
</trkpt>
<trkpt lat="31.8076200" lon="35.0047400">
<ele>254.309998</ele>
<time>2022-09-02T11:46:46.101Z</time>
</trkpt>
<trkpt lat="31.8075300" lon="35.0047300">
<ele>251.870010</ele>
<time>2022-09-02T11:46:46.101Z</time>
</trkpt>
<trkpt lat="31.8074800" lon="35.0047300">
<ele>250.959991</ele>
<time>2022-09-02T11:46:46.101Z</time>
</trkpt>
<trkpt lat="31.8074300" lon="35.0047300">
<ele>250.590012</ele>
<time>2022-09-02T11:46:46.101Z</time>
</trkpt>
<trkpt lat="31.8073700" lon="35.0047500">
<ele>250.369995</ele>
<time>2022-09-02T11:46:46.101Z</time>
</trkpt>
<trkpt lat="31.8073200" lon="35.0047700">
<ele>250.169998</ele>
<time>2022-09-02T11:46:46.101Z</time>
</trkpt>
<trkpt lat="31.8072900" lon="35.0047900">
<ele>250.100006</ele>
<time>2022-09-02T11:46:46.101Z</time>
</trkpt>
<trkpt lat="31.8072500" lon="35.0048100">
<ele>249.900009</ele>
<time>2022-09-02T11:46:46.101Z</time>
</trkpt>
<trkpt lat="31.8072200" lon="35.0048300">
<ele>249.770004</ele>
<time>2022-09-02T11:46:46.101Z</time>
</trkpt>
<trkpt lat="31.8071900" lon="35.0048400">
<ele>249.759995</ele>
<time>2022-09-02T11:46:46.101Z</time>
</trkpt>
<trkpt lat="31.8071500" lon="35.0048700">
<ele>249.959991</ele>
<time>2022-09-02T11:46:46.101Z</time>
</trkpt>
<trkpt lat="31.8071100" lon="35.0048800">
<ele>250.019989</ele>
<time>2022-09-02T11:46:46.101Z</time>
</trkpt>
<trkpt lat="31.8070800" lon="35.0049000">
<ele>250.240005</ele>
<time>2022-09-02T11:46:46.101Z</time>
</trkpt>
<trkpt lat="31.8070500" lon="35.0049100">
<ele>250.369995</ele>
<time>2022-09-02T11:46:46.101Z</time>
</trkpt>
<trkpt lat="31.8070100" lon="35.0049400">
<ele>250.839996</ele>
<time>2022-09-02T11:46:46.101Z</time>
</trkpt>
<trkpt lat="31.8069900" lon="35.0049600">
<ele>251.190002</ele>
<time>2022-09-02T11:46:46.101Z</time>
</trkpt>
<trkpt lat="31.8069500" lon="35.0049700">
<ele>251.449997</ele>
<time>2022-09-02T11:46:46.101Z</time>
</trkpt>
<trkpt lat="31.8069200" lon="35.0049800">
<ele>251.749985</ele>
<time>2022-09-02T11:46:46.101Z</time>
</trkpt>
<trkpt lat="31.8068800" lon="35.0049800">
<ele>251.940002</ele>
<time>2022-09-02T11:46:46.102Z</time>
</trkpt>
<trkpt lat="31.8068400" lon="35.0049600">
<ele>251.870010</ele>
<time>2022-09-02T11:46:46.102Z</time>
</trkpt>
<trkpt lat="31.8068100" lon="35.0049400">
<ele>251.819992</ele>
<time>2022-09-02T11:46:46.102Z</time>
</trkpt>
<trkpt lat="31.8067900" lon="35.0049100">
<ele>251.660004</ele>
<time>2022-09-02T11:46:46.102Z</time>
</trkpt>
<trkpt lat="31.8067700" lon="35.0048600">
<ele>251.369995</ele>
<time>2022-09-02T11:46:46.102Z</time>
</trkpt>
<trkpt lat="31.8067500" lon="35.0048200">
<ele>251.270004</ele>
<time>2022-09-02T11:46:46.102Z</time>
</trkpt>
<trkpt lat="31.8067200" lon="35.0047300">
<ele>251.089996</ele>
<time>2022-09-02T11:46:46.102Z</time>
</trkpt>
<trkpt lat="31.8067000" lon="35.0046400">
<ele>252.840012</ele>
<time>2022-09-02T11:46:46.102Z</time>
</trkpt>
<trkpt lat="31.8066900" lon="35.0045700">
<ele>254.270004</ele>
<time>2022-09-02T11:46:46.102Z</time>
</trkpt>
<trkpt lat="31.8067000" lon="35.0045000">
<ele>255.300003</ele>
<time>2022-09-02T11:46:46.102Z</time>
</trkpt>
<trkpt lat="31.8067000" lon="35.0044400">
<ele>256.350006</ele>
<time>2022-09-02T11:46:46.102Z</time>
</trkpt>
<trkpt lat="31.8067200" lon="35.0044100">
<ele>256.440002</ele>
<time>2022-09-02T11:46:46.102Z</time>
</trkpt>
<trkpt lat="31.8067500" lon="35.0043900">
<ele>256.220001</ele>
<time>2022-09-02T11:46:46.102Z</time>
</trkpt>
<trkpt lat="31.8068000" lon="35.0043600">
<ele>255.920013</ele>
<time>2022-09-02T11:46:46.102Z</time>
</trkpt>
<trkpt lat="31.8068300" lon="35.0043400">
<ele>255.859985</ele>
<time>2022-09-02T11:46:46.102Z</time>
</trkpt>
<trkpt lat="31.8068500" lon="35.0043000">
<ele>256.489990</ele>
<time>2022-09-02T11:46:46.103Z</time>
</trkpt>
<trkpt lat="31.8068700" lon="35.0042600">
<ele>257.209991</ele>
<time>2022-09-02T11:46:46.103Z</time>
</trkpt>
<trkpt lat="31.8068800" lon="35.0042000">
<ele>258.619995</ele>
<time>2022-09-02T11:46:46.103Z</time>
</trkpt>
<trkpt lat="31.8069100" lon="35.0041700">
<ele>259.160004</ele>
<time>2022-09-02T11:46:46.103Z</time>
</trkpt>
<trkpt lat="31.8069300" lon="35.0041400">
<ele>259.869995</ele>
<time>2022-09-02T11:46:46.103Z</time>
</trkpt>
<trkpt lat="31.8069800" lon="35.0041000">
<ele>260.119995</ele>
<time>2022-09-02T11:46:46.103Z</time>
</trkpt>
<trkpt lat="31.8070000" lon="35.0040700">
<ele>260.510010</ele>
<time>2022-09-02T11:46:46.103Z</time>
</trkpt>
<trkpt lat="31.8070400" lon="35.0040400">
<ele>260.429993</ele>
<time>2022-09-02T11:46:46.103Z</time>
</trkpt>
<trkpt lat="31.8070700" lon="35.0040000">
<ele>260.820007</ele>
<time>2022-09-02T11:46:46.103Z</time>
</trkpt>
<trkpt lat="31.8071000" lon="35.0039800">
<ele>260.639984</ele>
<time>2022-09-02T11:46:46.103Z</time>
</trkpt>
<trkpt lat="31.8071300" lon="35.0039600">
<ele>260.450012</ele>
<time>2022-09-02T11:46:46.103Z</time>
</trkpt>
<trkpt lat="31.8071700" lon="35.0039400">
<ele>259.989990</ele>
<time>2022-09-02T11:46:46.103Z</time>
</trkpt>
<trkpt lat="31.8071900" lon="35.0039200">
<ele>260.019989</ele>
<time>2022-09-02T11:46:46.103Z</time>
</trkpt>
<trkpt lat="31.8072100" lon="35.0038900">
<ele>260.279999</ele>
<time>2022-09-02T11:46:46.103Z</time>
</trkpt>
<trkpt lat="31.8072500" lon="35.0038500">
<ele>260.160004</ele>
<time>2022-09-02T11:46:46.103Z</time>
</trkpt>
<trkpt lat="31.8072700" lon="35.0038300">
<ele>260.160004</ele>
<time>2022-09-02T11:46:46.103Z</time>
</trkpt>
<trkpt lat="31.8073000" lon="35.0038100">
<ele>260.019989</ele>
<time>2022-09-02T11:46:46.103Z</time>
</trkpt>
<trkpt lat="31.8073200" lon="35.0037800">
<ele>260.160004</ele>
<time>2022-09-02T11:46:46.103Z</time>
</trkpt>
<trkpt lat="31.8073400" lon="35.0037400">
<ele>260.450012</ele>
<time>2022-09-02T11:46:46.103Z</time>
</trkpt>
<trkpt lat="31.8073600" lon="35.0037000">
<ele>260.739990</ele>
<time>2022-09-02T11:46:46.103Z</time>
</trkpt>
<trkpt lat="31.8073900" lon="35.0036600">
<ele>260.880005</ele>
<time>2022-09-02T11:46:46.103Z</time>
</trkpt>
<trkpt lat="31.8074100" lon="35.0036100">
<ele>261.309998</ele>
<time>2022-09-02T11:46:46.103Z</time>
</trkpt>
<trkpt lat="31.8074300" lon="35.0035800">
<ele>261.260010</ele>
<time>2022-09-02T11:46:46.103Z</time>
</trkpt>
<trkpt lat="31.8074400" lon="35.0035500">
<ele>261.320007</ele>
<time>2022-09-02T11:46:46.103Z</time>
</trkpt>
<trkpt lat="31.8074600" lon="35.0035100">
<ele>261.200012</ele>
<time>2022-09-02T11:46:46.103Z</time>
</trkpt>
<trkpt lat="31.8074700" lon="35.0034500">
<ele>261.330017</ele>
<time>2022-09-02T11:46:46.103Z</time>
</trkpt>
<trkpt lat="31.8074800" lon="35.0034000">
<ele>261.320007</ele>
<time>2022-09-02T11:46:46.103Z</time>
</trkpt>
<trkpt lat="31.8074900" lon="35.0033400">
<ele>261.299988</ele>
<time>2022-09-02T11:46:46.103Z</time>
</trkpt>
<trkpt lat="31.8074900" lon="35.0032900">
<ele>261.660004</ele>
<time>2022-09-02T11:46:46.103Z</time>
</trkpt>
<trkpt lat="31.8074900" lon="35.0032300">
<ele>262.119995</ele>
<time>2022-09-02T11:46:46.103Z</time>
</trkpt>
<trkpt lat="31.8075000" lon="35.0031600">
<ele>262.250000</ele>
<time>2022-09-02T11:46:46.103Z</time>
</trkpt>
<trkpt lat="31.8075000" lon="35.0031200">
<ele>262.540009</ele>
<time>2022-09-02T11:46:46.103Z</time>
</trkpt>
<trkpt lat="31.8075100" lon="35.0030900">
<ele>262.820007</ele>
<time>2022-09-02T11:46:46.103Z</time>
</trkpt>
<trkpt lat="31.8075200" lon="35.0030400">
<ele>263.580017</ele>
<time>2022-09-02T11:46:46.103Z</time>
</trkpt>
<trkpt lat="31.8075300" lon="35.0030200">
<ele>264.200012</ele>
<time>2022-09-02T11:46:46.103Z</time>
</trkpt>
<trkpt lat="31.8075600" lon="35.0029900">
<ele>265.169983</ele>
<time>2022-09-02T11:46:46.103Z</time>
</trkpt>
<trkpt lat="31.8075800" lon="35.0029600">
<ele>266.029999</ele>
<time>2022-09-02T11:46:46.103Z</time>
</trkpt>
<trkpt lat="31.8076000" lon="35.0029300">
<ele>266.850006</ele>
<time>2022-09-02T11:46:46.103Z</time>
</trkpt>
<trkpt lat="31.8076300" lon="35.0029100">
<ele>267.390015</ele>
<time>2022-09-02T11:46:46.103Z</time>
</trkpt>
<trkpt lat="31.8076600" lon="35.0029000">
<ele>267.660004</ele>
<time>2022-09-02T11:46:46.103Z</time>
</trkpt>
<trkpt lat="31.8076900" lon="35.0028800">
<ele>268.130005</ele>
<time>2022-09-02T11:46:46.103Z</time>
</trkpt>
<trkpt lat="31.8077200" lon="35.0028700">
<ele>268.339996</ele>
<time>2022-09-02T11:46:46.105Z</time>
</trkpt>
<trkpt lat="31.8077700" lon="35.0028600">
<ele>268.519989</ele>
<time>2022-09-02T11:46:46.105Z</time>
</trkpt>
<trkpt lat="31.8078000" lon="35.0028500">
<ele>268.519989</ele>
<time>2022-09-02T11:46:46.105Z</time>
</trkpt>
<trkpt lat="31.8078300" lon="35.0028300">
<ele>268.600006</ele>
<time>2022-09-02T11:46:46.105Z</time>
</trkpt>
<trkpt lat="31.8078700" lon="35.0028200">
<ele>268.399994</ele>
<time>2022-09-02T11:46:46.105Z</time>
</trkpt>
<trkpt lat="31.8079200" lon="35.0028200">
<ele>267.940002</ele>
<time>2022-09-02T11:46:46.105Z</time>
</trkpt>
<trkpt lat="31.8079400" lon="35.0028400">
<ele>267.520020</ele>
<time>2022-09-02T11:46:46.105Z</time>
</trkpt>
<trkpt lat="31.8079700" lon="35.0028600">
<ele>267.059998</ele>
<time>2022-09-02T11:46:46.105Z</time>
</trkpt>
<trkpt lat="31.8080000" lon="35.0028600">
<ele>266.829987</ele>
<time>2022-09-02T11:46:46.105Z</time>
</trkpt>
<trkpt lat="31.8080300" lon="35.0028600">
<ele>266.600006</ele>
<time>2022-09-02T11:46:46.105Z</time>
</trkpt>
<trkpt lat="31.8080800" lon="35.0028400">
<ele>265.850006</ele>
<time>2022-09-02T11:46:46.105Z</time>
</trkpt>
<trkpt lat="31.8081200" lon="35.0028300">
<ele>264.769989</ele>
<time>2022-09-02T11:46:46.105Z</time>
</trkpt>
<trkpt lat="31.8081700" lon="35.0028000">
<ele>263.540009</ele>
<time>2022-09-02T11:46:46.105Z</time>
</trkpt>
<trkpt lat="31.8082000" lon="35.0027800">
<ele>262.820007</ele>
<time>2022-09-02T11:46:46.105Z</time>
</trkpt>
<trkpt lat="31.8082300" lon="35.0027600">
<ele>262.369995</ele>
<time>2022-09-02T11:46:46.105Z</time>
</trkpt>
<trkpt lat="31.8082500" lon="35.0027400">
<ele>262.279999</ele>
<time>2022-09-02T11:46:46.105Z</time>
</trkpt>
<trkpt lat="31.8082800" lon="35.0026900">
<ele>262.760010</ele>
<time>2022-09-02T11:46:46.105Z</time>
</trkpt>
<trkpt lat="31.8083000" lon="35.0026600">
<ele>263.100006</ele>
<time>2022-09-02T11:46:46.105Z</time>
</trkpt>
<trkpt lat="31.8083200" lon="35.0026300">
<ele>263.510010</ele>
<time>2022-09-02T11:46:46.105Z</time>
</trkpt>
<trkpt lat="31.8083300" lon="35.0025800">
<ele>264.750000</ele>
<time>2022-09-02T11:46:46.105Z</time>
</trkpt>
<trkpt lat="31.8083400" lon="35.0025400">
<ele>265.739990</ele>
<time>2022-09-02T11:46:46.105Z</time>
</trkpt>
<trkpt lat="31.8083500" lon="35.0024900">
<ele>266.920013</ele>
<time>2022-09-02T11:46:46.105Z</time>
</trkpt>
<trkpt lat="31.8083600" lon="35.0024600">
<ele>267.380005</ele>
<time>2022-09-02T11:46:46.105Z</time>
</trkpt>
<trkpt lat="31.8083800" lon="35.0024300">
<ele>267.670013</ele>
<time>2022-09-02T11:46:46.105Z</time>
</trkpt>
<trkpt lat="31.8084100" lon="35.0023800">
<ele>268.209991</ele>
<time>2022-09-02T11:46:46.105Z</time>
</trkpt>
<trkpt lat="31.8084300" lon="35.0023500">
<ele>268.500000</ele>
<time>2022-09-02T11:46:46.105Z</time>
</trkpt>
<trkpt lat="31.8084500" lon="35.0023100">
<ele>269.000000</ele>
<time>2022-09-02T11:46:46.106Z</time>
</trkpt>
<trkpt lat="31.8084700" lon="35.0022600">
<ele>269.720001</ele>
<time>2022-09-02T11:46:46.106Z</time>
</trkpt>
<trkpt lat="31.8084900" lon="35.0022100">
<ele>270.500000</ele>
<time>2022-09-02T11:46:46.106Z</time>
</trkpt>
<trkpt lat="31.8085100" lon="35.0021600">
<ele>271.410004</ele>
<time>2022-09-02T11:46:46.106Z</time>
</trkpt>
<trkpt lat="31.8085300" lon="35.0021200">
<ele>271.989990</ele>
<time>2022-09-02T11:46:46.106Z</time>
</trkpt>
<trkpt lat="31.8085500" lon="35.0020700">
<ele>272.750000</ele>
<time>2022-09-02T11:46:46.106Z</time>
</trkpt>
<trkpt lat="31.8085600" lon="35.0020400">
<ele>273.220001</ele>
<time>2022-09-02T11:46:46.106Z</time>
</trkpt>
<trkpt lat="31.8085800" lon="35.0020100">
<ele>273.399994</ele>
<time>2022-09-02T11:46:46.106Z</time>
</trkpt>
<trkpt lat="31.8086100" lon="35.0019800">
<ele>273.260010</ele>
<time>2022-09-02T11:46:46.106Z</time>
</trkpt>
<trkpt lat="31.8086200" lon="35.0019500">
<ele>273.850006</ele>
<time>2022-09-02T11:46:46.106Z</time>
</trkpt>
<trkpt lat="31.8086400" lon="35.0019100">
<ele>274.990021</ele>
<time>2022-09-02T11:46:46.106Z</time>
</trkpt>
<trkpt lat="31.8086600" lon="35.0018800">
<ele>275.829987</ele>
<time>2022-09-02T11:46:46.106Z</time>
</trkpt>
<trkpt lat="31.8087000" lon="35.0018600">
<ele>276.220001</ele>
<time>2022-09-02T11:46:46.106Z</time>
</trkpt>
<trkpt lat="31.8087300" lon="35.0018400">
<ele>276.630005</ele>
<time>2022-09-02T11:46:46.106Z</time>
</trkpt>
<trkpt lat="31.8087700" lon="35.0018300">
<ele>276.660004</ele>
<time>2022-09-02T11:46:46.106Z</time>
</trkpt>
<trkpt lat="31.8088100" lon="35.0018200">
<ele>276.669983</ele>
<time>2022-09-02T11:46:46.106Z</time>
</trkpt>
<trkpt lat="31.8088800" lon="35.0018100">
<ele>276.449982</ele>
<time>2022-09-02T11:46:46.106Z</time>
</trkpt>
<trkpt lat="31.8089200" lon="35.0018000">
<ele>276.470001</ele>
<time>2022-09-02T11:46:46.106Z</time>
</trkpt>
<trkpt lat="31.8090000" lon="35.0017900">
<ele>276.269989</ele>
<time>2022-09-02T11:46:46.106Z</time>
</trkpt>
<trkpt lat="31.8090700" lon="35.0017800">
<ele>276.109985</ele>
<time>2022-09-02T11:46:46.106Z</time>
</trkpt>
<trkpt lat="31.8091000" lon="35.0017700">
<ele>276.160004</ele>
<time>2022-09-02T11:46:46.106Z</time>
</trkpt>
<trkpt lat="31.8091300" lon="35.0017700">
<ele>275.979980</ele>
<time>2022-09-02T11:46:46.106Z</time>
</trkpt>
<trkpt lat="31.8091600" lon="35.0017500">
<ele>276.239990</ele>
<time>2022-09-02T11:46:46.107Z</time>
</trkpt>
<trkpt lat="31.8092100" lon="35.0017400">
<ele>275.829987</ele>
<time>2022-09-02T11:46:46.107Z</time>
</trkpt>
<trkpt lat="31.8092500" lon="35.0017200">
<ele>275.709991</ele>
<time>2022-09-02T11:46:46.107Z</time>
</trkpt>
<trkpt lat="31.8093100" lon="35.0017000">
<ele>275.279999</ele>
<time>2022-09-02T11:46:46.107Z</time>
</trkpt>
<trkpt lat="31.8093600" lon="35.0016800">
<ele>274.959991</ele>
<time>2022-09-02T11:46:46.107Z</time>
</trkpt>
<trkpt lat="31.8093900" lon="35.0016500">
<ele>275.049988</ele>
<time>2022-09-02T11:46:46.107Z</time>
</trkpt>
<trkpt lat="31.8094600" lon="35.0016100">
<ele>274.540009</ele>
<time>2022-09-02T11:46:46.107Z</time>
</trkpt>
<trkpt lat="31.8095200" lon="35.0015600">
<ele>274.180023</ele>
<time>2022-09-02T11:46:46.107Z</time>
</trkpt>
<trkpt lat="31.8095500" lon="35.0015200">
<ele>274.209991</ele>
<time>2022-09-02T11:46:46.107Z</time>
</trkpt>
<trkpt lat="31.8095900" lon="35.0014900">
<ele>273.920013</ele>
<time>2022-09-02T11:46:46.107Z</time>
</trkpt>
<trkpt lat="31.8096300" lon="35.0014400">
<ele>273.920013</ele>
<time>2022-09-02T11:46:46.107Z</time>
</trkpt>
<trkpt lat="31.8096600" lon="35.0014100">
<ele>273.820007</ele>
<time>2022-09-02T11:46:46.107Z</time>
</trkpt>
<trkpt lat="31.8096800" lon="35.0013800">
<ele>273.889984</ele>
<time>2022-09-02T11:46:46.107Z</time>
</trkpt>
<trkpt lat="31.8097100" lon="35.0013500">
<ele>273.790009</ele>
<time>2022-09-02T11:46:46.107Z</time>
</trkpt>
<trkpt lat="31.8097400" lon="35.0013100">
<ele>273.859985</ele>
<time>2022-09-02T11:46:46.107Z</time>
</trkpt>
<trkpt lat="31.8097700" lon="35.0012600">
<ele>274.089996</ele>
<time>2022-09-02T11:46:46.107Z</time>
</trkpt>
<trkpt lat="31.8097800" lon="35.0012300">
<ele>274.339996</ele>
<time>2022-09-02T11:46:46.107Z</time>
</trkpt>
<trkpt lat="31.8098000" lon="35.0011800">
<ele>274.679993</ele>
<time>2022-09-02T11:46:46.107Z</time>
</trkpt>
<trkpt lat="31.8098100" lon="35.0011400">
<ele>275.039978</ele>
<time>2022-09-02T11:46:46.107Z</time>
</trkpt>
<trkpt lat="31.8098300" lon="35.0011100">
<ele>275.070007</ele>
<time>2022-09-02T11:46:46.107Z</time>
</trkpt>
<trkpt lat="31.8098400" lon="35.0010800">
<ele>275.190002</ele>
<time>2022-09-02T11:46:46.107Z</time>
</trkpt>
<trkpt lat="31.8098600" lon="35.0010500">
<ele>275.070007</ele>
<time>2022-09-02T11:46:46.107Z</time>
</trkpt>
<trkpt lat="31.8098700" lon="35.0010200">
<ele>275.130005</ele>
<time>2022-09-02T11:46:46.107Z</time>
</trkpt>
<trkpt lat="31.8098800" lon="35.0009900">
<ele>275.160004</ele>
<time>2022-09-02T11:46:46.107Z</time>
</trkpt>
<trkpt lat="31.8098900" lon="35.0009300">
<ele>275.410004</ele>
<time>2022-09-02T11:46:46.108Z</time>
</trkpt>
<trkpt lat="31.8099100" lon="35.0008900">
<ele>275.190002</ele>
<time>2022-09-02T11:46:46.108Z</time>
</trkpt>
<trkpt lat="31.8099200" lon="35.0008500">
<ele>275.190002</ele>
<time>2022-09-02T11:46:46.108Z</time>
</trkpt>
<trkpt lat="31.8099300" lon="35.0008100">
<ele>275.250000</ele>
<time>2022-09-02T11:46:46.108Z</time>
</trkpt>
<trkpt lat="31.8099400" lon="35.0007700">
<ele>275.359985</ele>
<time>2022-09-02T11:46:46.108Z</time>
</trkpt>
<trkpt lat="31.8099600" lon="35.0007100">
<ele>275.420013</ele>
<time>2022-09-02T11:46:46.108Z</time>
</trkpt>
<trkpt lat="31.8099800" lon="35.0006500">
<ele>275.509979</ele>
<time>2022-09-02T11:46:46.108Z</time>
</trkpt>
<trkpt lat="31.8099900" lon="35.0005900">
<ele>275.880005</ele>
<time>2022-09-02T11:46:46.108Z</time>
</trkpt>
<trkpt lat="31.8100100" lon="35.0005400">
<ele>275.880005</ele>
<time>2022-09-02T11:46:46.108Z</time>
</trkpt>
<trkpt lat="31.8100400" lon="35.0004500">
<ele>275.709991</ele>
<time>2022-09-02T11:46:46.108Z</time>
</trkpt>
<trkpt lat="31.8100800" lon="35.0003700">
<ele>275.420013</ele>
<time>2022-09-02T11:46:46.108Z</time>
</trkpt>
<trkpt lat="31.8101100" lon="35.0003000">
<ele>275.299988</ele>
<time>2022-09-02T11:46:46.108Z</time>
</trkpt>
<trkpt lat="31.8101500" lon="35.0002400">
<ele>274.970001</ele>
<time>2022-09-02T11:46:46.108Z</time>
</trkpt>
<trkpt lat="31.8101800" lon="35.0001800">
<ele>274.660004</ele>
<time>2022-09-02T11:46:46.108Z</time>
</trkpt>
<trkpt lat="31.8102100" lon="35.0001200">
<ele>274.250000</ele>
<time>2022-09-02T11:46:46.108Z</time>
</trkpt>
<trkpt lat="31.8102500" lon="35.0000500">
<ele>273.559998</ele>
<time>2022-09-02T11:46:46.108Z</time>
</trkpt>
<trkpt lat="31.8102800" lon="35.0000100">
<ele>273.000000</ele>
<time>2022-09-02T11:46:46.108Z</time>
</trkpt>
<trkpt lat="31.8103000" lon="34.9999700">
<ele>273.410004</ele>
<time>2022-09-02T11:46:46.108Z</time>
</trkpt>
<trkpt lat="31.8103400" lon="34.9999100">
<ele>274.079987</ele>
<time>2022-09-02T11:46:46.108Z</time>
</trkpt>
<trkpt lat="31.8103600" lon="34.9998600">
<ele>274.570007</ele>
<time>2022-09-02T11:46:46.108Z</time>
</trkpt>
<trkpt lat="31.8103700" lon="34.9998300">
<ele>274.839996</ele>
<time>2022-09-02T11:46:46.108Z</time>
</trkpt>
<trkpt lat="31.8103800" lon="34.9997900">
<ele>275.190002</ele>
<time>2022-09-02T11:46:46.108Z</time>
</trkpt>
<trkpt lat="31.8104000" lon="34.9997400">
<ele>275.509979</ele>
<time>2022-09-02T11:46:46.108Z</time>
</trkpt>
<trkpt lat="31.8104100" lon="34.9997100">
<ele>275.709991</ele>
<time>2022-09-02T11:46:46.108Z</time>
</trkpt>
<trkpt lat="31.8104300" lon="34.9996500">
<ele>276.059998</ele>
<time>2022-09-02T11:46:46.108Z</time>
</trkpt>
<trkpt lat="31.8104400" lon="34.9996000">
<ele>276.350006</ele>
<time>2022-09-02T11:46:46.108Z</time>
</trkpt>
<trkpt lat="31.8104600" lon="34.9995400">
<ele>276.389984</ele>
<time>2022-09-02T11:46:46.108Z</time>
</trkpt>
<trkpt lat="31.8104800" lon="34.9995000">
<ele>276.119995</ele>
<time>2022-09-02T11:46:46.109Z</time>
</trkpt>
<trkpt lat="31.8105000" lon="34.9994600">
<ele>275.730011</ele>
<time>2022-09-02T11:46:46.109Z</time>
</trkpt>
<trkpt lat="31.8105300" lon="34.9994200">
<ele>275.279999</ele>
<time>2022-09-02T11:46:46.109Z</time>
</trkpt>
<trkpt lat="31.8105500" lon="34.9994000">
<ele>274.990021</ele>
<time>2022-09-02T11:46:46.109Z</time>
</trkpt>
<trkpt lat="31.8105700" lon="34.9993700">
<ele>275.079987</ele>
<time>2022-09-02T11:46:46.109Z</time>
</trkpt>
<trkpt lat="31.8106000" lon="34.9993500">
<ele>274.839996</ele>
<time>2022-09-02T11:46:46.109Z</time>
</trkpt>
<trkpt lat="31.8106200" lon="34.9993200">
<ele>274.899994</ele>
<time>2022-09-02T11:46:46.109Z</time>
</trkpt>
<trkpt lat="31.8106600" lon="34.9992900">
<ele>274.440002</ele>
<time>2022-09-02T11:46:46.109Z</time>
</trkpt>
<trkpt lat="31.8106900" lon="34.9992700">
<ele>273.989990</ele>
<time>2022-09-02T11:46:46.109Z</time>
</trkpt>
<trkpt lat="31.8107400" lon="34.9992500">
<ele>272.980011</ele>
<time>2022-09-02T11:46:46.109Z</time>
</trkpt>
<trkpt lat="31.8107800" lon="34.9992100">
<ele>272.260010</ele>
<time>2022-09-02T11:46:46.109Z</time>
</trkpt>
<trkpt lat="31.8108300" lon="34.9991800">
<ele>271.050018</ele>
<time>2022-09-02T11:46:46.109Z</time>
</trkpt>
<trkpt lat="31.8108600" lon="34.9991500">
<ele>271.639984</ele>
<time>2022-09-02T11:46:46.109Z</time>
</trkpt>
<trkpt lat="31.8109000" lon="34.9991400">
<ele>271.989990</ele>
<time>2022-09-02T11:46:46.109Z</time>
</trkpt>
<trkpt lat="31.8109400" lon="34.9991300">
<ele>272.299988</ele>
<time>2022-09-02T11:46:46.109Z</time>
</trkpt>
<trkpt lat="31.8109700" lon="34.9991100">
<ele>272.940002</ele>
<time>2022-09-02T11:46:46.109Z</time>
</trkpt>
<trkpt lat="31.8110100" lon="34.9991000">
<ele>273.179993</ele>
<time>2022-09-02T11:46:46.109Z</time>
</trkpt>
<trkpt lat="31.8110500" lon="34.9990900">
<ele>273.389984</ele>
<time>2022-09-02T11:46:46.109Z</time>
</trkpt>
<trkpt lat="31.8110800" lon="34.9990800">
<ele>273.600006</ele>
<time>2022-09-02T11:46:46.109Z</time>
</trkpt>
<trkpt lat="31.8111100" lon="34.9990600">
<ele>274.079987</ele>
<time>2022-09-02T11:46:46.109Z</time>
</trkpt>
<trkpt lat="31.8111400" lon="34.9990500">
<ele>274.330017</ele>
<time>2022-09-02T11:46:46.109Z</time>
</trkpt>
<trkpt lat="31.8111800" lon="34.9990300">
<ele>274.820007</ele>
<time>2022-09-02T11:46:46.109Z</time>
</trkpt>
<trkpt lat="31.8112200" lon="34.9990200">
<ele>275.000000</ele>
<time>2022-09-02T11:46:46.109Z</time>
</trkpt>
<trkpt lat="31.8112500" lon="34.9990100">
<ele>275.169983</ele>
<time>2022-09-02T11:46:46.109Z</time>
</trkpt>
<trkpt lat="31.8112800" lon="34.9989900">
<ele>275.540009</ele>
<time>2022-09-02T11:46:46.109Z</time>
</trkpt>
<trkpt lat="31.8113300" lon="34.9989600">
<ele>275.979980</ele>
<time>2022-09-02T11:46:46.109Z</time>
</trkpt>
<trkpt lat="31.8113800" lon="34.9989400">
<ele>276.130005</ele>
<time>2022-09-02T11:46:46.110Z</time>
</trkpt>
<trkpt lat="31.8114100" lon="34.9989100">
<ele>276.630005</ele>
<time>2022-09-02T11:46:46.110Z</time>
</trkpt>
<trkpt lat="31.8114600" lon="34.9988600">
<ele>277.750000</ele>
<time>2022-09-02T11:46:46.110Z</time>
</trkpt>
<trkpt lat="31.8114900" lon="34.9988200">
<ele>278.709991</ele>
<time>2022-09-02T11:46:46.110Z</time>
</trkpt>
<trkpt lat="31.8115200" lon="34.9988000">
<ele>279.109985</ele>
<time>2022-09-02T11:46:46.110Z</time>
</trkpt>
<trkpt lat="31.8115400" lon="34.9987600">
<ele>279.950012</ele>
<time>2022-09-02T11:46:46.110Z</time>
</trkpt>
<trkpt lat="31.8115700" lon="34.9987200">
<ele>280.669983</ele>
<time>2022-09-02T11:46:46.110Z</time>
</trkpt>
<trkpt lat="31.8115900" lon="34.9986900">
<ele>281.170013</ele>
<time>2022-09-02T11:46:46.110Z</time>
</trkpt>
<trkpt lat="31.8116200" lon="34.9986500">
<ele>281.730011</ele>
<time>2022-09-02T11:46:46.110Z</time>
</trkpt>
<trkpt lat="31.8116500" lon="34.9986200">
<ele>282.010010</ele>
<time>2022-09-02T11:46:46.110Z</time>
</trkpt>
<trkpt lat="31.8117000" lon="34.9985700">
<ele>282.509979</ele>
<time>2022-09-02T11:46:46.110Z</time>
</trkpt>
<trkpt lat="31.8117200" lon="34.9985500">
<ele>282.699982</ele>
<time>2022-09-02T11:46:46.110Z</time>
</trkpt>
<trkpt lat="31.8117500" lon="34.9985200">
<ele>282.970001</ele>
<time>2022-09-02T11:46:46.110Z</time>
</trkpt>
<trkpt lat="31.8117800" lon="34.9984900">
<ele>283.209991</ele>
<time>2022-09-02T11:46:46.110Z</time>
</trkpt>
<trkpt lat="31.8118000" lon="34.9984600">
<ele>283.559998</ele>
<time>2022-09-02T11:46:46.110Z</time>
</trkpt>
<trkpt lat="31.8118300" lon="34.9984200">
<ele>283.960022</ele>
<time>2022-09-02T11:46:46.110Z</time>
</trkpt>
<trkpt lat="31.8118500" lon="34.9983900">
<ele>284.269989</ele>
<time>2022-09-02T11:46:46.110Z</time>
</trkpt>
<trkpt lat="31.8118800" lon="34.9983600">
<ele>284.429993</ele>
<time>2022-09-02T11:46:46.110Z</time>
</trkpt>
<trkpt lat="31.8119000" lon="34.9983400">
<ele>284.519989</ele>
<time>2022-09-02T11:46:46.110Z</time>
</trkpt>
<trkpt lat="31.8119300" lon="34.9983100">
<ele>284.540009</ele>
<time>2022-09-02T11:46:46.110Z</time>
</trkpt>
<trkpt lat="31.8119600" lon="34.9982700">
<ele>284.829987</ele>
<time>2022-09-02T11:46:46.110Z</time>
</trkpt>
<trkpt lat="31.8119800" lon="34.9982400">
<ele>285.130005</ele>
<time>2022-09-02T11:46:46.110Z</time>
</trkpt>
<trkpt lat="31.8120100" lon="34.9982100">
<ele>285.330017</ele>
<time>2022-09-02T11:46:46.110Z</time>
</trkpt>
<trkpt lat="31.8120500" lon="34.9981600">
<ele>285.639984</ele>
<time>2022-09-02T11:46:46.110Z</time>
</trkpt>
<trkpt lat="31.8120700" lon="34.9981300">
<ele>285.809998</ele>
<time>2022-09-02T11:46:46.111Z</time>
</trkpt>
<trkpt lat="31.8121000" lon="34.9981000">
<ele>285.860016</ele>
<time>2022-09-02T11:46:46.111Z</time>
</trkpt>
<trkpt lat="31.8121200" lon="34.9980800">
<ele>285.860016</ele>
<time>2022-09-02T11:46:46.111Z</time>
</trkpt>
<trkpt lat="31.8121400" lon="34.9980600">
<ele>285.850006</ele>
<time>2022-09-02T11:46:46.111Z</time>
</trkpt>
<trkpt lat="31.8121600" lon="34.9980400">
<ele>285.670013</ele>
<time>2022-09-02T11:46:46.111Z</time>
</trkpt>
<trkpt lat="31.8121900" lon="34.9980100">
<ele>285.260010</ele>
<time>2022-09-02T11:46:46.111Z</time>
</trkpt>
<trkpt lat="31.8122000" lon="34.9979700">
<ele>285.029999</ele>
<time>2022-09-02T11:46:46.111Z</time>
</trkpt>
<trkpt lat="31.8122200" lon="34.9979400">
<ele>284.619995</ele>
<time>2022-09-02T11:46:46.111Z</time>
</trkpt>
<trkpt lat="31.8122400" lon="34.9979100">
<ele>284.279999</ele>
<time>2022-09-02T11:46:46.111Z</time>
</trkpt>
<trkpt lat="31.8122700" lon="34.9978800">
<ele>283.850006</ele>
<time>2022-09-02T11:46:46.111Z</time>
</trkpt>
<trkpt lat="31.8123000" lon="34.9978600">
<ele>283.459991</ele>
<time>2022-09-02T11:46:46.111Z</time>
</trkpt>
<trkpt lat="31.8123200" lon="34.9978300">
<ele>283.130005</ele>
<time>2022-09-02T11:46:46.111Z</time>
</trkpt>
<trkpt lat="31.8123500" lon="34.9978100">
<ele>282.740021</ele>
<time>2022-09-02T11:46:46.111Z</time>
</trkpt>
<trkpt lat="31.8123800" lon="34.9978000">
<ele>282.380005</ele>
<time>2022-09-02T11:46:46.111Z</time>
</trkpt>
<trkpt lat="31.8124100" lon="34.9977800">
<ele>281.980011</ele>
<time>2022-09-02T11:46:46.111Z</time>
</trkpt>
<trkpt lat="31.8124500" lon="34.9977500">
<ele>281.679993</ele>
<time>2022-09-02T11:46:46.111Z</time>
</trkpt>
<trkpt lat="31.8124900" lon="34.9977200">
<ele>281.329987</ele>
<time>2022-09-02T11:46:46.111Z</time>
</trkpt>
<trkpt lat="31.8125400" lon="34.9976900">
<ele>281.220001</ele>
<time>2022-09-02T11:46:46.111Z</time>
</trkpt>
<trkpt lat="31.8125800" lon="34.9976600">
<ele>281.260010</ele>
<time>2022-09-02T11:46:46.111Z</time>
</trkpt>
<trkpt lat="31.8126400" lon="34.9976200">
<ele>281.350006</ele>
<time>2022-09-02T11:46:46.111Z</time>
</trkpt>
<trkpt lat="31.8127000" lon="34.9975600">
<ele>281.630005</ele>
<time>2022-09-02T11:46:46.111Z</time>
</trkpt>
<trkpt lat="31.8127500" lon="34.9975000">
<ele>282.000000</ele>
<time>2022-09-02T11:46:46.111Z</time>
</trkpt>
<trkpt lat="31.8128500" lon="34.9974000">
<ele>283.399994</ele>
<time>2022-09-02T11:46:46.111Z</time>
</trkpt>
<trkpt lat="31.8129200" lon="34.9973000">
<ele>284.769989</ele>
<time>2022-09-02T11:46:46.111Z</time>
</trkpt>
<trkpt lat="31.8130200" lon="34.9971700">
<ele>286.160004</ele>
<time>2022-09-02T11:46:46.111Z</time>
</trkpt>
<trkpt lat="31.8130500" lon="34.9970400">
<ele>285.630005</ele>
<time>2022-09-02T11:46:46.111Z</time>
</trkpt>
<trkpt lat="31.8130600" lon="34.9969700">
<ele>285.149994</ele>
<time>2022-09-02T11:46:46.111Z</time>
</trkpt>
<trkpt lat="31.8130600" lon="34.9968200">
<ele>284.980011</ele>
<time>2022-09-02T11:46:46.111Z</time>
</trkpt>
<trkpt lat="31.8130500" lon="34.9966800">
<ele>285.000000</ele>
<time>2022-09-02T11:46:46.111Z</time>
</trkpt>
<trkpt lat="31.8130300" lon="34.9966200">
<ele>284.660004</ele>
<time>2022-09-02T11:46:46.111Z</time>
</trkpt>
<trkpt lat="31.8129900" lon="34.9965200">
<ele>283.940002</ele>
<time>2022-09-02T11:46:46.111Z</time>
</trkpt>
<trkpt lat="31.8129200" lon="34.9964400">
<ele>283.369995</ele>
<time>2022-09-02T11:46:46.111Z</time>
</trkpt>
<trkpt lat="31.8128800" lon="34.9964000">
<ele>283.080017</ele>
<time>2022-09-02T11:46:46.111Z</time>
</trkpt>
<trkpt lat="31.8127900" lon="34.9963200">
<ele>281.750000</ele>
<time>2022-09-02T11:46:46.111Z</time>
</trkpt>
<trkpt lat="31.8127000" lon="34.9962200">
<ele>281.299988</ele>
<time>2022-09-02T11:46:46.111Z</time>
</trkpt>
<trkpt lat="31.8126500" lon="34.9961700">
<ele>281.100006</ele>
<time>2022-09-02T11:46:46.112Z</time>
</trkpt>
<trkpt lat="31.8125500" lon="34.9960700">
<ele>280.420013</ele>
<time>2022-09-02T11:46:46.112Z</time>
</trkpt>
<trkpt lat="31.8124500" lon="34.9959700">
<ele>279.670013</ele>
<time>2022-09-02T11:46:46.112Z</time>
</trkpt>
<trkpt lat="31.8123500" lon="34.9958600">
<ele>278.299988</ele>
<time>2022-09-02T11:46:46.112Z</time>
</trkpt>
<trkpt lat="31.8123100" lon="34.9958100">
<ele>277.179993</ele>
<time>2022-09-02T11:46:46.112Z</time>
</trkpt>
<trkpt lat="31.8122300" lon="34.9957000">
<ele>273.220001</ele>
<time>2022-09-02T11:46:46.112Z</time>
</trkpt>
<trkpt lat="31.8121100" lon="34.9956000">
<ele>270.260010</ele>
<time>2022-09-02T11:46:46.112Z</time>
</trkpt>
<trkpt lat="31.8119900" lon="34.9955200">
<ele>267.630005</ele>
<time>2022-09-02T11:46:46.112Z</time>
</trkpt>
<trkpt lat="31.8118700" lon="34.9954500">
<ele>265.169983</ele>
<time>2022-09-02T11:46:46.112Z</time>
</trkpt>
<trkpt lat="31.8118200" lon="34.9954200">
<ele>264.029999</ele>
<time>2022-09-02T11:46:46.112Z</time>
</trkpt>
<trkpt lat="31.8117000" lon="34.9953600">
<ele>261.720001</ele>
<time>2022-09-02T11:46:46.112Z</time>
</trkpt>
<trkpt lat="31.8116400" lon="34.9953400">
<ele>261.380005</ele>
<time>2022-09-02T11:46:46.112Z</time>
</trkpt>
<trkpt lat="31.8115000" lon="34.9953300">
<ele>263.799988</ele>
<time>2022-09-02T11:46:46.112Z</time>
</trkpt>
<trkpt lat="31.8114200" lon="34.9953200">
<ele>264.910004</ele>
<time>2022-09-02T11:46:46.112Z</time>
</trkpt>
<trkpt lat="31.8112500" lon="34.9953000">
<ele>265.239990</ele>
<time>2022-09-02T11:46:46.112Z</time>
</trkpt>
<trkpt lat="31.8110800" lon="34.9952700">
<ele>264.369995</ele>
<time>2022-09-02T11:46:46.112Z</time>
</trkpt>
<trkpt lat="31.8109100" lon="34.9952400">
<ele>261.550018</ele>
<time>2022-09-02T11:46:46.112Z</time>
</trkpt>
<trkpt lat="31.8108400" lon="34.9952200">
<ele>260.450012</ele>
<time>2022-09-02T11:46:46.112Z</time>
</trkpt>
<trkpt lat="31.8107700" lon="34.9951900">
<ele>260.440002</ele>
<time>2022-09-02T11:46:46.112Z</time>
</trkpt>
<trkpt lat="31.8106400" lon="34.9951200">
<ele>260.289978</ele>
<time>2022-09-02T11:46:46.112Z</time>
</trkpt>
<trkpt lat="31.8105300" lon="34.9950900">
<ele>260.019989</ele>
<time>2022-09-02T11:46:46.112Z</time>
</trkpt>
<trkpt lat="31.8104800" lon="34.9950800">
<ele>259.339996</ele>
<time>2022-09-02T11:46:46.112Z</time>
</trkpt>
<trkpt lat="31.8103700" lon="34.9950700">
<ele>258.000000</ele>
<time>2022-09-02T11:46:46.113Z</time>
</trkpt>
<trkpt lat="31.8103200" lon="34.9950600">
<ele>257.320007</ele>
<time>2022-09-02T11:46:46.113Z</time>
</trkpt>
<trkpt lat="31.8102100" lon="34.9950600">
<ele>256.500000</ele>
<time>2022-09-02T11:46:46.113Z</time>
</trkpt>
<trkpt lat="31.8101600" lon="34.9950600">
<ele>256.220001</ele>
<time>2022-09-02T11:46:46.113Z</time>
</trkpt>
<trkpt lat="31.8101100" lon="34.9950600">
<ele>255.949997</ele>
<time>2022-09-02T11:46:46.113Z</time>
</trkpt>
<trkpt lat="31.8100300" lon="34.9950600">
<ele>255.519989</ele>
<time>2022-09-02T11:46:46.113Z</time>
</trkpt>
<trkpt lat="31.8099500" lon="34.9950600">
<ele>256.309998</ele>
<time>2022-09-02T11:46:46.113Z</time>
</trkpt>
<trkpt lat="31.8099100" lon="34.9950500">
<ele>257.109985</ele>
<time>2022-09-02T11:46:46.113Z</time>
</trkpt>
<trkpt lat="31.8098700" lon="34.9950500">
<ele>257.839996</ele>
<time>2022-09-02T11:46:46.113Z</time>
</trkpt>
<trkpt lat="31.8098400" lon="34.9950400">
<ele>258.369995</ele>
<time>2022-09-02T11:46:46.113Z</time>
</trkpt>
<trkpt lat="31.8097800" lon="34.9950300">
<ele>259.360016</ele>
<time>2022-09-02T11:46:46.113Z</time>
</trkpt>
<trkpt lat="31.8097400" lon="34.9950300">
<ele>260.029999</ele>
<time>2022-09-02T11:46:46.113Z</time>
</trkpt>
<trkpt lat="31.8097000" lon="34.9950400">
<ele>261.509979</ele>
<time>2022-09-02T11:46:46.113Z</time>
</trkpt>
<trkpt lat="31.8096600" lon="34.9950500">
<ele>263.510010</ele>
<time>2022-09-02T11:46:46.113Z</time>
</trkpt>
<trkpt lat="31.8096200" lon="34.9950500">
<ele>265.429993</ele>
<time>2022-09-02T11:46:46.113Z</time>
</trkpt>
<trkpt lat="31.8095800" lon="34.9950600">
<ele>267.369995</ele>
<time>2022-09-02T11:46:46.113Z</time>
</trkpt>
<trkpt lat="31.8095500" lon="34.9950600">
<ele>268.790009</ele>
<time>2022-09-02T11:46:46.113Z</time>
</trkpt>
<trkpt lat="31.8095200" lon="34.9950600">
<ele>270.209991</ele>
<time>2022-09-02T11:46:46.113Z</time>
</trkpt>
<trkpt lat="31.8094600" lon="34.9950700">
<ele>273.020020</ele>
<time>2022-09-02T11:46:46.113Z</time>
</trkpt>
<trkpt lat="31.8094300" lon="34.9950700">
<ele>274.019989</ele>
<time>2022-09-02T11:46:46.113Z</time>
</trkpt>
<trkpt lat="31.8093900" lon="34.9950700">
<ele>274.779999</ele>
<time>2022-09-02T11:46:46.113Z</time>
</trkpt>
<trkpt lat="31.8093400" lon="34.9950700">
<ele>275.730011</ele>
<time>2022-09-02T11:46:46.113Z</time>
</trkpt>
<trkpt lat="31.8092900" lon="34.9950700">
<ele>276.669983</ele>
<time>2022-09-02T11:46:46.113Z</time>
</trkpt>
<trkpt lat="31.8092500" lon="34.9950800">
<ele>277.519989</ele>
<time>2022-09-02T11:46:46.113Z</time>
</trkpt>
<trkpt lat="31.8092100" lon="34.9950800">
<ele>278.299988</ele>
<time>2022-09-02T11:46:46.113Z</time>
</trkpt>
<trkpt lat="31.8091800" lon="34.9950800">
<ele>278.889984</ele>
<time>2022-09-02T11:46:46.113Z</time>
</trkpt>
<trkpt lat="31.8091500" lon="34.9950800">
<ele>279.309998</ele>
<time>2022-09-02T11:46:46.114Z</time>
</trkpt>
<trkpt lat="31.8091200" lon="34.9950800">
<ele>279.610016</ele>
<time>2022-09-02T11:46:46.114Z</time>
</trkpt>
<trkpt lat="31.8090700" lon="34.9950800">
<ele>280.100006</ele>
<time>2022-09-02T11:46:46.114Z</time>
</trkpt>
<trkpt lat="31.8090400" lon="34.9950800">
<ele>280.389984</ele>
<time>2022-09-02T11:46:46.114Z</time>
</trkpt>
<trkpt lat="31.8090100" lon="34.9950700">
<ele>280.559998</ele>
<time>2022-09-02T11:46:46.114Z</time>
</trkpt>
<trkpt lat="31.8089800" lon="34.9950700">
<ele>280.850006</ele>
<time>2022-09-02T11:46:46.114Z</time>
</trkpt>
<trkpt lat="31.8089500" lon="34.9950700">
<ele>281.149994</ele>
<time>2022-09-02T11:46:46.114Z</time>
</trkpt>
<trkpt lat="31.8089200" lon="34.9950600">
<ele>281.339996</ele>
<time>2022-09-02T11:46:46.114Z</time>
</trkpt>
<trkpt lat="31.8088800" lon="34.9950500">
<ele>281.660004</ele>
<time>2022-09-02T11:46:46.114Z</time>
</trkpt>
<trkpt lat="31.8088400" lon="34.9950400">
<ele>282.089996</ele>
<time>2022-09-02T11:46:46.114Z</time>
</trkpt>
<trkpt lat="31.8088000" lon="34.9950300">
<ele>282.529999</ele>
<time>2022-09-02T11:46:46.114Z</time>
</trkpt>
<trkpt lat="31.8087600" lon="34.9950100">
<ele>282.929993</ele>
<time>2022-09-02T11:46:46.114Z</time>
</trkpt>
<trkpt lat="31.8087300" lon="34.9949900">
<ele>283.279999</ele>
<time>2022-09-02T11:46:46.114Z</time>
</trkpt>
<trkpt lat="31.8087000" lon="34.9949700">
<ele>283.679993</ele>
<time>2022-09-02T11:46:46.114Z</time>
</trkpt>
<trkpt lat="31.8086700" lon="34.9949400">
<ele>284.029999</ele>
<time>2022-09-02T11:46:46.114Z</time>
</trkpt>
<trkpt lat="31.8086300" lon="34.9949000">
<ele>284.419983</ele>
<time>2022-09-02T11:46:46.114Z</time>
</trkpt>
<trkpt lat="31.8086100" lon="34.9948800">
<ele>284.549988</ele>
<time>2022-09-02T11:46:46.114Z</time>
</trkpt>
<trkpt lat="31.8085800" lon="34.9948500">
<ele>284.010010</ele>
<time>2022-09-02T11:46:46.114Z</time>
</trkpt>
<trkpt lat="31.8085500" lon="34.9948000">
<ele>283.399994</ele>
<time>2022-09-02T11:46:46.114Z</time>
</trkpt>
<trkpt lat="31.8085100" lon="34.9947600">
<ele>282.679993</ele>
<time>2022-09-02T11:46:46.114Z</time>
</trkpt>
<trkpt lat="31.8084800" lon="34.9947400">
<ele>282.179993</ele>
<time>2022-09-02T11:46:46.114Z</time>
</trkpt>
<trkpt lat="31.8084300" lon="34.9947000">
<ele>281.309998</ele>
<time>2022-09-02T11:46:46.114Z</time>
</trkpt>
<trkpt lat="31.8084000" lon="34.9946800">
<ele>280.809998</ele>
<time>2022-09-02T11:46:46.114Z</time>
</trkpt>
<trkpt lat="31.8083600" lon="34.9946600">
<ele>280.160004</ele>
<time>2022-09-02T11:46:46.114Z</time>
</trkpt>
<trkpt lat="31.8083300" lon="34.9946400">
<ele>279.660004</ele>
<time>2022-09-02T11:46:46.114Z</time>
</trkpt>
<trkpt lat="31.8082900" lon="34.9946200">
<ele>279.119995</ele>
<time>2022-09-02T11:46:46.114Z</time>
</trkpt>
<trkpt lat="31.8082500" lon="34.9945900">
<ele>278.610016</ele>
<time>2022-09-02T11:46:46.114Z</time>
</trkpt>
<trkpt lat="31.8082300" lon="34.9945700">
<ele>278.369995</ele>
<time>2022-09-02T11:46:46.115Z</time>
</trkpt>
<trkpt lat="31.8082000" lon="34.9945500">
<ele>278.059998</ele>
<time>2022-09-02T11:46:46.115Z</time>
</trkpt>
<trkpt lat="31.8081500" lon="34.9945400">
<ele>277.570007</ele>
<time>2022-09-02T11:46:46.115Z</time>
</trkpt>
<trkpt lat="31.8081200" lon="34.9945200">
<ele>277.320007</ele>
<time>2022-09-02T11:46:46.115Z</time>
</trkpt>
<trkpt lat="31.8080700" lon="34.9945000">
<ele>276.920013</ele>
<time>2022-09-02T11:46:46.115Z</time>
</trkpt>
<trkpt lat="31.8080300" lon="34.9944900">
<ele>276.130005</ele>
<time>2022-09-02T11:46:46.115Z</time>
</trkpt>
<trkpt lat="31.8080000" lon="34.9944900">
<ele>275.299988</ele>
<time>2022-09-02T11:46:46.115Z</time>
</trkpt>
<trkpt lat="31.8079600" lon="34.9944800">
<ele>274.209991</ele>
<time>2022-09-02T11:46:46.115Z</time>
</trkpt>
<trkpt lat="31.8079100" lon="34.9944800">
<ele>272.809998</ele>
<time>2022-09-02T11:46:46.115Z</time>
</trkpt>
<trkpt lat="31.8078400" lon="34.9944800">
<ele>270.860016</ele>
<time>2022-09-02T11:46:46.115Z</time>
</trkpt>
<trkpt lat="31.8078000" lon="34.9945000">
<ele>269.809998</ele>
<time>2022-09-02T11:46:46.115Z</time>
</trkpt>
<trkpt lat="31.8077700" lon="34.9945100">
<ele>269.209991</ele>
<time>2022-09-02T11:46:46.115Z</time>
</trkpt>
<trkpt lat="31.8077300" lon="34.9945400">
<ele>269.170013</ele>
<time>2022-09-02T11:46:46.115Z</time>
</trkpt>
<trkpt lat="31.8077100" lon="34.9945700">
<ele>269.209991</ele>
<time>2022-09-02T11:46:46.115Z</time>
</trkpt>
<trkpt lat="31.8076800" lon="34.9945900">
<ele>269.170013</ele>
<time>2022-09-02T11:46:46.115Z</time>
</trkpt>
<trkpt lat="31.8076600" lon="34.9946100">
<ele>269.170013</ele>
<time>2022-09-02T11:46:46.115Z</time>
</trkpt>
<trkpt lat="31.8076300" lon="34.9946400">
<ele>269.170013</ele>
<time>2022-09-02T11:46:46.115Z</time>
</trkpt>
<trkpt lat="31.8076100" lon="34.9946700">
<ele>269.209991</ele>
<time>2022-09-02T11:46:46.115Z</time>
</trkpt>
<trkpt lat="31.8075800" lon="34.9947100">
<ele>269.239990</ele>
<time>2022-09-02T11:46:46.115Z</time>
</trkpt>
<trkpt lat="31.8075500" lon="34.9947600">
<ele>269.339996</ele>
<time>2022-09-02T11:46:46.115Z</time>
</trkpt>
<trkpt lat="31.8075300" lon="34.9947900">
<ele>269.380005</ele>
<time>2022-09-02T11:46:46.115Z</time>
</trkpt>
<trkpt lat="31.8075100" lon="34.9948300">
<ele>269.440002</ele>
<time>2022-09-02T11:46:46.115Z</time>
</trkpt>
<trkpt lat="31.8074800" lon="34.9948900">
<ele>269.630005</ele>
<time>2022-09-02T11:46:46.115Z</time>
</trkpt>
<trkpt lat="31.8074600" lon="34.9949200">
<ele>269.750000</ele>
<time>2022-09-02T11:46:46.115Z</time>
</trkpt>
<trkpt lat="31.8074200" lon="34.9949800">
<ele>269.950012</ele>
<time>2022-09-02T11:46:46.115Z</time>
</trkpt>
<trkpt lat="31.8073900" lon="34.9950300">
<ele>270.479980</ele>
<time>2022-09-02T11:46:46.116Z</time>
</trkpt>
<trkpt lat="31.8073700" lon="34.9950700">
<ele>271.040009</ele>
<time>2022-09-02T11:46:46.116Z</time>
</trkpt>
<trkpt lat="31.8073300" lon="34.9951300">
<ele>271.660004</ele>
<time>2022-09-02T11:46:46.116Z</time>
</trkpt>
<trkpt lat="31.8073100" lon="34.9951600">
<ele>271.880005</ele>
<time>2022-09-02T11:46:46.116Z</time>
</trkpt>
<trkpt lat="31.8072900" lon="34.9951900">
<ele>272.040009</ele>
<time>2022-09-02T11:46:46.116Z</time>
</trkpt>
<trkpt lat="31.8072500" lon="34.9952300">
<ele>271.989990</ele>
<time>2022-09-02T11:46:46.116Z</time>
</trkpt>
<trkpt lat="31.8072300" lon="34.9952600">
<ele>271.979980</ele>
<time>2022-09-02T11:46:46.116Z</time>
</trkpt>
<trkpt lat="31.8072000" lon="34.9953100">
<ele>272.290009</ele>
<time>2022-09-02T11:46:46.116Z</time>
</trkpt>
<trkpt lat="31.8071700" lon="34.9953400">
<ele>272.480011</ele>
<time>2022-09-02T11:46:46.116Z</time>
</trkpt>
<trkpt lat="31.8071500" lon="34.9953600">
<ele>272.589996</ele>
<time>2022-09-02T11:46:46.116Z</time>
</trkpt>
<trkpt lat="31.8071300" lon="34.9953800">
<ele>272.690002</ele>
<time>2022-09-02T11:46:46.116Z</time>
</trkpt>
<trkpt lat="31.8070900" lon="34.9954100">
<ele>272.729980</ele>
<time>2022-09-02T11:46:46.116Z</time>
</trkpt>
<trkpt lat="31.8070600" lon="34.9954300">
<ele>272.700012</ele>
<time>2022-09-02T11:46:46.116Z</time>
</trkpt>
<trkpt lat="31.8070100" lon="34.9954700">
<ele>272.709991</ele>
<time>2022-09-02T11:46:46.116Z</time>
</trkpt>
<trkpt lat="31.8069900" lon="34.9954900">
<ele>272.750000</ele>
<time>2022-09-02T11:46:46.116Z</time>
</trkpt>
<trkpt lat="31.8069600" lon="34.9955200">
<ele>272.779999</ele>
<time>2022-09-02T11:46:46.116Z</time>
</trkpt>
<trkpt lat="31.8069100" lon="34.9955500">
<ele>273.070007</ele>
<time>2022-09-02T11:46:46.116Z</time>
</trkpt>
<trkpt lat="31.8068600" lon="34.9955800">
<ele>273.660004</ele>
<time>2022-09-02T11:46:46.116Z</time>
</trkpt>
<trkpt lat="31.8068300" lon="34.9956000">
<ele>274.009979</ele>
<time>2022-09-02T11:46:46.116Z</time>
</trkpt>
<trkpt lat="31.8068100" lon="34.9956200">
<ele>274.309998</ele>
<time>2022-09-02T11:46:46.116Z</time>
</trkpt>
<trkpt lat="31.8067700" lon="34.9956600">
<ele>274.800018</ele>
<time>2022-09-02T11:46:46.116Z</time>
</trkpt>
<trkpt lat="31.8067300" lon="34.9957000">
<ele>275.169983</ele>
<time>2022-09-02T11:46:46.116Z</time>
</trkpt>
<trkpt lat="31.8067000" lon="34.9957100">
<ele>275.190002</ele>
<time>2022-09-02T11:46:46.116Z</time>
</trkpt>
<trkpt lat="31.8066600" lon="34.9957400">
<ele>275.369995</ele>
<time>2022-09-02T11:46:46.116Z</time>
</trkpt>
<trkpt lat="31.8066200" lon="34.9957600">
<ele>275.730011</ele>
<time>2022-09-02T11:46:46.116Z</time>
</trkpt>
<trkpt lat="31.8065800" lon="34.9957800">
<ele>276.049988</ele>
<time>2022-09-02T11:46:46.116Z</time>
</trkpt>
<trkpt lat="31.8065500" lon="34.9958100">
<ele>276.320007</ele>
<time>2022-09-02T11:46:46.117Z</time>
</trkpt>
<trkpt lat="31.8065100" lon="34.9958400">
<ele>276.720001</ele>
<time>2022-09-02T11:46:46.117Z</time>
</trkpt>
<trkpt lat="31.8064700" lon="34.9958600">
<ele>277.309998</ele>
<time>2022-09-02T11:46:46.117Z</time>
</trkpt>
<trkpt lat="31.8064300" lon="34.9958900">
<ele>278.110016</ele>
<time>2022-09-02T11:46:46.117Z</time>
</trkpt>
<trkpt lat="31.8063800" lon="34.9959100">
<ele>278.699982</ele>
<time>2022-09-02T11:46:46.117Z</time>
</trkpt>
<trkpt lat="31.8063400" lon="34.9959300">
<ele>279.320007</ele>
<time>2022-09-02T11:46:46.117Z</time>
</trkpt>
<trkpt lat="31.8062900" lon="34.9959600">
<ele>280.119995</ele>
<time>2022-09-02T11:46:46.117Z</time>
</trkpt>
<trkpt lat="31.8062600" lon="34.9959800">
<ele>280.609985</ele>
<time>2022-09-02T11:46:46.117Z</time>
</trkpt>
<trkpt lat="31.8062300" lon="34.9960000">
<ele>281.059998</ele>
<time>2022-09-02T11:46:46.117Z</time>
</trkpt>
<trkpt lat="31.8062000" lon="34.9960200">
<ele>281.479980</ele>
<time>2022-09-02T11:46:46.117Z</time>
</trkpt>
<trkpt lat="31.8061700" lon="34.9960400">
<ele>281.869995</ele>
<time>2022-09-02T11:46:46.117Z</time>
</trkpt>
<trkpt lat="31.8061400" lon="34.9960500">
<ele>282.070007</ele>
<time>2022-09-02T11:46:46.117Z</time>
</trkpt>
<trkpt lat="31.8061100" lon="34.9960700">
<ele>282.410004</ele>
<time>2022-09-02T11:46:46.117Z</time>
</trkpt>
<trkpt lat="31.8060800" lon="34.9960800">
<ele>282.610016</ele>
<time>2022-09-02T11:46:46.117Z</time>
</trkpt>
<trkpt lat="31.8060400" lon="34.9960900">
<ele>282.790009</ele>
<time>2022-09-02T11:46:46.117Z</time>
</trkpt>
<trkpt lat="31.8060100" lon="34.9961200">
<ele>283.179993</ele>
<time>2022-09-02T11:46:46.117Z</time>
</trkpt>
<trkpt lat="31.8059800" lon="34.9961400">
<ele>283.529999</ele>
<time>2022-09-02T11:46:46.117Z</time>
</trkpt>
<trkpt lat="31.8059400" lon="34.9961600">
<ele>283.799988</ele>
<time>2022-09-02T11:46:46.117Z</time>
</trkpt>
<trkpt lat="31.8059000" lon="34.9961800">
<ele>283.980011</ele>
<time>2022-09-02T11:46:46.117Z</time>
</trkpt>
<trkpt lat="31.8058700" lon="34.9961900">
<ele>284.000000</ele>
<time>2022-09-02T11:46:46.117Z</time>
</trkpt>
<trkpt lat="31.8058100" lon="34.9962000">
<ele>284.079987</ele>
<time>2022-09-02T11:46:46.117Z</time>
</trkpt>
<trkpt lat="31.8057800" lon="34.9962100">
<ele>284.300018</ele>
<time>2022-09-02T11:46:46.117Z</time>
</trkpt>
<trkpt lat="31.8057500" lon="34.9962100">
<ele>284.429993</ele>
<time>2022-09-02T11:46:46.117Z</time>
</trkpt>
<trkpt lat="31.8056900" lon="34.9962200">
<ele>284.710022</ele>
<time>2022-09-02T11:46:46.117Z</time>
</trkpt>
<trkpt lat="31.8056500" lon="34.9962200">
<ele>284.860016</ele>
<time>2022-09-02T11:46:46.117Z</time>
</trkpt>
<trkpt lat="31.8056000" lon="34.9962100">
<ele>285.089996</ele>
<time>2022-09-02T11:46:46.117Z</time>
</trkpt>
<trkpt lat="31.8055600" lon="34.9962000">
<ele>285.339996</ele>
<time>2022-09-02T11:46:46.118Z</time>
</trkpt>
<trkpt lat="31.8055200" lon="34.9961900">
<ele>285.779999</ele>
<time>2022-09-02T11:46:46.118Z</time>
</trkpt>
<trkpt lat="31.8054800" lon="34.9961900">
<ele>286.169983</ele>
<time>2022-09-02T11:46:46.118Z</time>
</trkpt>
<trkpt lat="31.8054400" lon="34.9961800">
<ele>286.649994</ele>
<time>2022-09-02T11:46:46.118Z</time>
</trkpt>
<trkpt lat="31.8054000" lon="34.9961800">
<ele>287.049988</ele>
<time>2022-09-02T11:46:46.118Z</time>
</trkpt>
<trkpt lat="31.8053600" lon="34.9961700">
<ele>287.539978</ele>
<time>2022-09-02T11:46:46.118Z</time>
</trkpt>
<trkpt lat="31.8053100" lon="34.9961700">
<ele>288.040009</ele>
<time>2022-09-02T11:46:46.118Z</time>
</trkpt>
<trkpt lat="31.8052700" lon="34.9961700">
<ele>288.470001</ele>
<time>2022-09-02T11:46:46.118Z</time>
</trkpt>
<trkpt lat="31.8052300" lon="34.9961700">
<ele>289.019989</ele>
<time>2022-09-02T11:46:46.118Z</time>
</trkpt>
<trkpt lat="31.8052000" lon="34.9961700">
<ele>289.420013</ele>
<time>2022-09-02T11:46:46.118Z</time>
</trkpt>
<trkpt lat="31.8051700" lon="34.9961800">
<ele>289.709991</ele>
<time>2022-09-02T11:46:46.118Z</time>
</trkpt>
<trkpt lat="31.8051300" lon="34.9961800">
<ele>290.250000</ele>
<time>2022-09-02T11:46:46.118Z</time>
</trkpt>
<trkpt lat="31.8050800" lon="34.9961900">
<ele>290.790009</ele>
<time>2022-09-02T11:46:46.118Z</time>
</trkpt>
<trkpt lat="31.8050300" lon="34.9962100">
<ele>291.179993</ele>
<time>2022-09-02T11:46:46.118Z</time>
</trkpt>
<trkpt lat="31.8050000" lon="34.9962300">
<ele>291.290009</ele>
<time>2022-09-02T11:46:46.118Z</time>
</trkpt>
<trkpt lat="31.8049600" lon="34.9962500">
<ele>291.360016</ele>
<time>2022-09-02T11:46:46.118Z</time>
</trkpt>
<trkpt lat="31.8049200" lon="34.9962700">
<ele>291.410004</ele>
<time>2022-09-02T11:46:46.118Z</time>
</trkpt>
<trkpt lat="31.8048800" lon="34.9963000">
<ele>291.279999</ele>
<time>2022-09-02T11:46:46.118Z</time>
</trkpt>
<trkpt lat="31.8048500" lon="34.9963100">
<ele>291.369995</ele>
<time>2022-09-02T11:46:46.118Z</time>
</trkpt>
<trkpt lat="31.8048000" lon="34.9963300">
<ele>291.440002</ele>
<time>2022-09-02T11:46:46.118Z</time>
</trkpt>
<trkpt lat="31.8047500" lon="34.9963500">
<ele>291.489990</ele>
<time>2022-09-02T11:46:46.118Z</time>
</trkpt>
<trkpt lat="31.8047100" lon="34.9963700">
<ele>291.559998</ele>
<time>2022-09-02T11:46:46.118Z</time>
</trkpt>
<trkpt lat="31.8046700" lon="34.9963900">
<ele>291.949982</ele>
<time>2022-09-02T11:46:46.118Z</time>
</trkpt>
<trkpt lat="31.8046300" lon="34.9964100">
<ele>292.910004</ele>
<time>2022-09-02T11:46:46.118Z</time>
</trkpt>
<trkpt lat="31.8046000" lon="34.9964200">
<ele>293.550018</ele>
<time>2022-09-02T11:46:46.118Z</time>
</trkpt>
<trkpt lat="31.8045700" lon="34.9964400">
<ele>294.269989</ele>
<time>2022-09-02T11:46:46.118Z</time>
</trkpt>
<trkpt lat="31.8045200" lon="34.9964500">
<ele>295.200012</ele>
<time>2022-09-02T11:46:46.119Z</time>
</trkpt>
<trkpt lat="31.8045000" lon="34.9964500">
<ele>295.529999</ele>
<time>2022-09-02T11:46:46.119Z</time>
</trkpt>
<trkpt lat="31.8044600" lon="34.9964500">
<ele>296.179993</ele>
<time>2022-09-02T11:46:46.119Z</time>
</trkpt>
<trkpt lat="31.8044100" lon="34.9964500">
<ele>295.820007</ele>
<time>2022-09-02T11:46:46.119Z</time>
</trkpt>
<trkpt lat="31.8043800" lon="34.9964500">
<ele>295.279999</ele>
<time>2022-09-02T11:46:46.119Z</time>
</trkpt>
<trkpt lat="31.8043300" lon="34.9964400">
<ele>294.309998</ele>
<time>2022-09-02T11:46:46.119Z</time>
</trkpt>
<trkpt lat="31.8042900" lon="34.9964300">
<ele>293.519989</ele>
<time>2022-09-02T11:46:46.119Z</time>
</trkpt>
<trkpt lat="31.8042600" lon="34.9964200">
<ele>292.899994</ele>
<time>2022-09-02T11:46:46.119Z</time>
</trkpt>
<trkpt lat="31.8042100" lon="34.9964200">
<ele>292.000000</ele>
<time>2022-09-02T11:46:46.119Z</time>
</trkpt>
<trkpt lat="31.8041700" lon="34.9964200">
<ele>291.279999</ele>
<time>2022-09-02T11:46:46.119Z</time>
</trkpt>
<trkpt lat="31.8041400" lon="34.9964200">
<ele>290.550018</ele>
<time>2022-09-02T11:46:46.119Z</time>
</trkpt>
<trkpt lat="31.8040800" lon="34.9964200">
<ele>289.040009</ele>
<time>2022-09-02T11:46:46.119Z</time>
</trkpt>
<trkpt lat="31.8040400" lon="34.9964200">
<ele>288.029999</ele>
<time>2022-09-02T11:46:46.119Z</time>
</trkpt>
<trkpt lat="31.8040100" lon="34.9964200">
<ele>287.279999</ele>
<time>2022-09-02T11:46:46.119Z</time>
</trkpt>
<trkpt lat="31.8039800" lon="34.9964300">
<ele>286.589996</ele>
<time>2022-09-02T11:46:46.119Z</time>
</trkpt>
<trkpt lat="31.8039500" lon="34.9964300">
<ele>285.839996</ele>
<time>2022-09-02T11:46:46.119Z</time>
</trkpt>
<trkpt lat="31.8039200" lon="34.9964400">
<ele>285.149994</ele>
<time>2022-09-02T11:46:46.119Z</time>
</trkpt>
<trkpt lat="31.8038900" lon="34.9964500">
<ele>284.470001</ele>
<time>2022-09-02T11:46:46.119Z</time>
</trkpt>
<trkpt lat="31.8038400" lon="34.9964800">
<ele>284.649994</ele>
<time>2022-09-02T11:46:46.119Z</time>
</trkpt>
<trkpt lat="31.8038000" lon="34.9964900">
<ele>284.760010</ele>
<time>2022-09-02T11:46:46.119Z</time>
</trkpt>
<trkpt lat="31.8037400" lon="34.9965200">
<ele>285.170013</ele>
<time>2022-09-02T11:46:46.119Z</time>
</trkpt>
<trkpt lat="31.8037000" lon="34.9965300">
<ele>285.369995</ele>
<time>2022-09-02T11:46:46.119Z</time>
</trkpt>
<trkpt lat="31.8036600" lon="34.9965400">
<ele>285.610016</ele>
<time>2022-09-02T11:46:46.119Z</time>
</trkpt>
<trkpt lat="31.8036300" lon="34.9965500">
<ele>285.850006</ele>
<time>2022-09-02T11:46:46.119Z</time>
</trkpt>
<trkpt lat="31.8035800" lon="34.9965600">
<ele>286.169983</ele>
<time>2022-09-02T11:46:46.119Z</time>
</trkpt>
<trkpt lat="31.8035500" lon="34.9965700">
<ele>286.410004</ele>
<time>2022-09-02T11:46:46.119Z</time>
</trkpt>
<trkpt lat="31.8035200" lon="34.9965800">
<ele>286.639984</ele>
<time>2022-09-02T11:46:46.120Z</time>
</trkpt>
<trkpt lat="31.8034700" lon="34.9965900">
<ele>286.899994</ele>
<time>2022-09-02T11:46:46.120Z</time>
</trkpt>
<trkpt lat="31.8034200" lon="34.9966000">
<ele>287.130005</ele>
<time>2022-09-02T11:46:46.120Z</time>
</trkpt>
<trkpt lat="31.8033900" lon="34.9966000">
<ele>287.179993</ele>
<time>2022-09-02T11:46:46.120Z</time>
</trkpt>
<trkpt lat="31.8033400" lon="34.9966100">
<ele>287.380005</ele>
<time>2022-09-02T11:46:46.120Z</time>
</trkpt>
<trkpt lat="31.8033000" lon="34.9966200">
<ele>288.019989</ele>
<time>2022-09-02T11:46:46.120Z</time>
</trkpt>
<trkpt lat="31.8032600" lon="34.9966200">
<ele>288.640015</ele>
<time>2022-09-02T11:46:46.120Z</time>
</trkpt>
<trkpt lat="31.8032300" lon="34.9966200">
<ele>289.109985</ele>
<time>2022-09-02T11:46:46.120Z</time>
</trkpt>
<trkpt lat="31.8032000" lon="34.9966200">
<ele>289.579987</ele>
<time>2022-09-02T11:46:46.120Z</time>
</trkpt>
<trkpt lat="31.8031600" lon="34.9966200">
<ele>290.200012</ele>
<time>2022-09-02T11:46:46.120Z</time>
</trkpt>
<trkpt lat="31.8031200" lon="34.9966200">
<ele>290.830017</ele>
<time>2022-09-02T11:46:46.120Z</time>
</trkpt>
<trkpt lat="31.8030600" lon="34.9966200">
<ele>291.760010</ele>
<time>2022-09-02T11:46:46.120Z</time>
</trkpt>
<trkpt lat="31.8030200" lon="34.9966100">
<ele>292.079987</ele>
<time>2022-09-02T11:46:46.120Z</time>
</trkpt>
<trkpt lat="31.8029800" lon="34.9966000">
<ele>292.419983</ele>
<time>2022-09-02T11:46:46.120Z</time>
</trkpt>
<trkpt lat="31.8029500" lon="34.9965900">
<ele>292.730011</ele>
<time>2022-09-02T11:46:46.120Z</time>
</trkpt>
<trkpt lat="31.8029000" lon="34.9965800">
<ele>293.299988</ele>
<time>2022-09-02T11:46:46.120Z</time>
</trkpt>
<trkpt lat="31.8028600" lon="34.9965700">
<ele>293.830017</ele>
<time>2022-09-02T11:46:46.120Z</time>
</trkpt>
<trkpt lat="31.8028200" lon="34.9965700">
<ele>294.269989</ele>
<time>2022-09-02T11:46:46.120Z</time>
</trkpt>
<trkpt lat="31.8027900" lon="34.9965700">
<ele>294.600006</ele>
<time>2022-09-02T11:46:46.120Z</time>
</trkpt>
<trkpt lat="31.8027500" lon="34.9965700">
<ele>295.269989</ele>
<time>2022-09-02T11:46:46.120Z</time>
</trkpt>
<trkpt lat="31.8027100" lon="34.9965700">
<ele>296.040009</ele>
<time>2022-09-02T11:46:46.120Z</time>
</trkpt>
<trkpt lat="31.8026800" lon="34.9965700">
<ele>296.619995</ele>
<time>2022-09-02T11:46:46.120Z</time>
</trkpt>
<trkpt lat="31.8026500" lon="34.9965700">
<ele>297.200012</ele>
<time>2022-09-02T11:46:46.120Z</time>
</trkpt>
<trkpt lat="31.8026200" lon="34.9965800">
<ele>297.579987</ele>
<time>2022-09-02T11:46:46.120Z</time>
</trkpt>
<trkpt lat="31.8025800" lon="34.9965900">
<ele>298.139984</ele>
<time>2022-09-02T11:46:46.120Z</time>
</trkpt>
<trkpt lat="31.8025300" lon="34.9966100">
<ele>298.660004</ele>
<time>2022-09-02T11:46:46.120Z</time>
</trkpt>
<trkpt lat="31.8025000" lon="34.9966200">
<ele>299.010010</ele>
<time>2022-09-02T11:46:46.120Z</time>
</trkpt>
<trkpt lat="31.8024500" lon="34.9966400">
<ele>299.079987</ele>
<time>2022-09-02T11:46:46.121Z</time>
</trkpt>
<trkpt lat="31.8024100" lon="34.9966500">
<ele>299.289978</ele>
<time>2022-09-02T11:46:46.121Z</time>
</trkpt>
<trkpt lat="31.8023700" lon="34.9966700">
<ele>299.390015</ele>
<time>2022-09-02T11:46:46.121Z</time>
</trkpt>
<trkpt lat="31.8023400" lon="34.9966800">
<ele>299.670013</ele>
<time>2022-09-02T11:46:46.121Z</time>
</trkpt>
<trkpt lat="31.8023000" lon="34.9967000">
<ele>299.989990</ele>
<time>2022-09-02T11:46:46.121Z</time>
</trkpt>
<trkpt lat="31.8022600" lon="34.9967100">
<ele>300.320007</ele>
<time>2022-09-02T11:46:46.121Z</time>
</trkpt>
<trkpt lat="31.8022300" lon="34.9967200">
<ele>300.540009</ele>
<time>2022-09-02T11:46:46.121Z</time>
</trkpt>
<trkpt lat="31.8021900" lon="34.9967400">
<ele>300.359985</ele>
<time>2022-09-02T11:46:46.121Z</time>
</trkpt>
<trkpt lat="31.8021500" lon="34.9967600">
<ele>300.070007</ele>
<time>2022-09-02T11:46:46.121Z</time>
</trkpt>
<trkpt lat="31.8021100" lon="34.9967800">
<ele>299.779999</ele>
<time>2022-09-02T11:46:46.121Z</time>
</trkpt>
<trkpt lat="31.8020800" lon="34.9967900">
<ele>299.600006</ele>
<time>2022-09-02T11:46:46.121Z</time>
</trkpt>
<trkpt lat="31.8020500" lon="34.9968000">
<ele>299.419983</ele>
<time>2022-09-02T11:46:46.121Z</time>
</trkpt>
<trkpt lat="31.8020200" lon="34.9968200">
<ele>299.170013</ele>
<time>2022-09-02T11:46:46.121Z</time>
</trkpt>
<trkpt lat="31.8019800" lon="34.9968400">
<ele>298.880005</ele>
<time>2022-09-02T11:46:46.121Z</time>
</trkpt>
<trkpt lat="31.8019500" lon="34.9968600">
<ele>298.630005</ele>
<time>2022-09-02T11:46:46.121Z</time>
</trkpt>
<trkpt lat="31.8019200" lon="34.9968800">
<ele>298.989990</ele>
<time>2022-09-02T11:46:46.121Z</time>
</trkpt>
<trkpt lat="31.8018900" lon="34.9969100">
<ele>299.330017</ele>
<time>2022-09-02T11:46:46.121Z</time>
</trkpt>
<trkpt lat="31.8018600" lon="34.9969300">
<ele>299.690002</ele>
<time>2022-09-02T11:46:46.121Z</time>
</trkpt>
<trkpt lat="31.8018300" lon="34.9969500">
<ele>300.169983</ele>
<time>2022-09-02T11:46:46.121Z</time>
</trkpt>
<trkpt lat="31.8018000" lon="34.9969700">
<ele>301.049988</ele>
<time>2022-09-02T11:46:46.121Z</time>
</trkpt>
<trkpt lat="31.8017700" lon="34.9970000">
<ele>301.989990</ele>
<time>2022-09-02T11:46:46.121Z</time>
</trkpt>
<trkpt lat="31.8017300" lon="34.9970300">
<ele>302.899994</ele>
<time>2022-09-02T11:46:46.121Z</time>
</trkpt>
<trkpt lat="31.8017000" lon="34.9970600">
<ele>303.529999</ele>
<time>2022-09-02T11:46:46.121Z</time>
</trkpt>
<trkpt lat="31.8016600" lon="34.9970900">
<ele>304.130005</ele>
<time>2022-09-02T11:46:46.121Z</time>
</trkpt>
<trkpt lat="31.8016400" lon="34.9971200">
<ele>304.559998</ele>
<time>2022-09-02T11:46:46.121Z</time>
</trkpt>
<trkpt lat="31.8016100" lon="34.9971400">
<ele>305.000000</ele>
<time>2022-09-02T11:46:46.121Z</time>
</trkpt>
<trkpt lat="31.8015600" lon="34.9971700">
<ele>305.609985</ele>
<time>2022-09-02T11:46:46.122Z</time>
</trkpt>
<trkpt lat="31.8015400" lon="34.9972000">
<ele>305.859985</ele>
<time>2022-09-02T11:46:46.122Z</time>
</trkpt>
<trkpt lat="31.8015100" lon="34.9972100">
<ele>306.110016</ele>
<time>2022-09-02T11:46:46.122Z</time>
</trkpt>
<trkpt lat="31.8014700" lon="34.9972500">
<ele>307.239990</ele>
<time>2022-09-02T11:46:46.122Z</time>
</trkpt>
<trkpt lat="31.8014400" lon="34.9972700">
<ele>308.160004</ele>
<time>2022-09-02T11:46:46.122Z</time>
</trkpt>
<trkpt lat="31.8014100" lon="34.9973000">
<ele>309.519989</ele>
<time>2022-09-02T11:46:46.122Z</time>
</trkpt>
<trkpt lat="31.8013800" lon="34.9973300">
<ele>310.869995</ele>
<time>2022-09-02T11:46:46.122Z</time>
</trkpt>
<trkpt lat="31.8013500" lon="34.9973500">
<ele>311.399994</ele>
<time>2022-09-02T11:46:46.122Z</time>
</trkpt>
<trkpt lat="31.8013200" lon="34.9973700">
<ele>311.709991</ele>
<time>2022-09-02T11:46:46.122Z</time>
</trkpt>
<trkpt lat="31.8012700" lon="34.9973900">
<ele>311.559998</ele>
<time>2022-09-02T11:46:46.122Z</time>
</trkpt>
<trkpt lat="31.8012400" lon="34.9974100">
<ele>311.369995</ele>
<time>2022-09-02T11:46:46.122Z</time>
</trkpt>
<trkpt lat="31.8012100" lon="34.9974200">
<ele>310.920013</ele>
<time>2022-09-02T11:46:46.122Z</time>
</trkpt>
<trkpt lat="31.8011600" lon="34.9974500">
<ele>309.860016</ele>
<time>2022-09-02T11:46:46.122Z</time>
</trkpt>
<trkpt lat="31.8011300" lon="34.9974700">
<ele>308.940002</ele>
<time>2022-09-02T11:46:46.122Z</time>
</trkpt>
<trkpt lat="31.8010900" lon="34.9974900">
<ele>308.389984</ele>
<time>2022-09-02T11:46:46.122Z</time>
</trkpt>
<trkpt lat="31.8010600" lon="34.9975200">
<ele>308.869995</ele>
<time>2022-09-02T11:46:46.122Z</time>
</trkpt>
<trkpt lat="31.8010200" lon="34.9975300">
<ele>309.419983</ele>
<time>2022-09-02T11:46:46.122Z</time>
</trkpt>
<trkpt lat="31.8009800" lon="34.9975400">
<ele>309.929993</ele>
<time>2022-09-02T11:46:46.122Z</time>
</trkpt>
<trkpt lat="31.8009500" lon="34.9975600">
<ele>310.440002</ele>
<time>2022-09-02T11:46:46.122Z</time>
</trkpt>
<trkpt lat="31.8009200" lon="34.9975800">
<ele>310.910004</ele>
<time>2022-09-02T11:46:46.122Z</time>
</trkpt>
<trkpt lat="31.8008900" lon="34.9976000">
<ele>311.329987</ele>
<time>2022-09-02T11:46:46.122Z</time>
</trkpt>
<trkpt lat="31.8008500" lon="34.9976300">
<ele>311.839996</ele>
<time>2022-09-02T11:46:46.122Z</time>
</trkpt>
<trkpt lat="31.8008200" lon="34.9976500">
<ele>312.619995</ele>
<time>2022-09-02T11:46:46.122Z</time>
</trkpt>
<trkpt lat="31.8007700" lon="34.9976800">
<ele>314.679993</ele>
<time>2022-09-02T11:46:46.122Z</time>
</trkpt>
<trkpt lat="31.8007000" lon="34.9977200">
<ele>317.119995</ele>
<time>2022-09-02T11:46:46.122Z</time>
</trkpt>
<trkpt lat="31.8006800" lon="34.9977400">
<ele>317.669983</ele>
<time>2022-09-02T11:46:46.122Z</time>
</trkpt>
<trkpt lat="31.8006400" lon="34.9977600">
<ele>318.750000</ele>
<time>2022-09-02T11:46:46.122Z</time>
</trkpt>
<trkpt lat="31.8006000" lon="34.9977700">
<ele>319.830017</ele>
<time>2022-09-02T11:46:46.123Z</time>
</trkpt>
<trkpt lat="31.8005600" lon="34.9977900">
<ele>320.740021</ele>
<time>2022-09-02T11:46:46.123Z</time>
</trkpt>
<trkpt lat="31.8005300" lon="34.9978000">
<ele>321.029999</ele>
<time>2022-09-02T11:46:46.123Z</time>
</trkpt>
<trkpt lat="31.8004900" lon="34.9978300">
<ele>321.100006</ele>
<time>2022-09-02T11:46:46.123Z</time>
</trkpt>
<trkpt lat="31.8004600" lon="34.9978400">
<ele>321.279999</ele>
<time>2022-09-02T11:46:46.123Z</time>
</trkpt>
<trkpt lat="31.8004200" lon="34.9978700">
<ele>321.309998</ele>
<time>2022-09-02T11:46:46.123Z</time>
</trkpt>
<trkpt lat="31.8003900" lon="34.9978900">
<ele>321.340027</ele>
<time>2022-09-02T11:46:46.123Z</time>
</trkpt>
<trkpt lat="31.8003400" lon="34.9979100">
<ele>321.529999</ele>
<time>2022-09-02T11:46:46.123Z</time>
</trkpt>
<trkpt lat="31.8003100" lon="34.9979300">
<ele>321.519989</ele>
<time>2022-09-02T11:46:46.123Z</time>
</trkpt>
<trkpt lat="31.8002600" lon="34.9979500">
<ele>321.640015</ele>
<time>2022-09-02T11:46:46.123Z</time>
</trkpt>
<trkpt lat="31.8002200" lon="34.9979600">
<ele>321.790009</ele>
<time>2022-09-02T11:46:46.123Z</time>
</trkpt>
<trkpt lat="31.8001800" lon="34.9979700">
<ele>321.959991</ele>
<time>2022-09-02T11:46:46.123Z</time>
</trkpt>
<trkpt lat="31.8001400" lon="34.9979800">
<ele>322.169983</ele>
<time>2022-09-02T11:46:46.123Z</time>
</trkpt>
<trkpt lat="31.8001000" lon="34.9979900">
<ele>322.410004</ele>
<time>2022-09-02T11:46:46.123Z</time>
</trkpt>
<trkpt lat="31.8000600" lon="34.9980000">
<ele>322.679993</ele>
<time>2022-09-02T11:46:46.123Z</time>
</trkpt>
<trkpt lat="31.8000200" lon="34.9980100">
<ele>322.979980</ele>
<time>2022-09-02T11:46:46.123Z</time>
</trkpt>
<trkpt lat="31.7999700" lon="34.9980100">
<ele>323.050018</ele>
<time>2022-09-02T11:46:46.123Z</time>
</trkpt>
<trkpt lat="31.7999300" lon="34.9980200">
<ele>322.820007</ele>
<time>2022-09-02T11:46:46.123Z</time>
</trkpt>
<trkpt lat="31.7998900" lon="34.9980300">
<ele>322.519989</ele>
<time>2022-09-02T11:46:46.123Z</time>
</trkpt>
<trkpt lat="31.7998600" lon="34.9980400">
<ele>322.220001</ele>
<time>2022-09-02T11:46:46.123Z</time>
</trkpt>
<trkpt lat="31.7998100" lon="34.9980500">
<ele>321.730011</ele>
<time>2022-09-02T11:46:46.123Z</time>
</trkpt>
<trkpt lat="31.7997600" lon="34.9980600">
<ele>321.300018</ele>
<time>2022-09-02T11:46:46.123Z</time>
</trkpt>
<trkpt lat="31.7997300" lon="34.9980700">
<ele>321.160004</ele>
<time>2022-09-02T11:46:46.123Z</time>
</trkpt>
<trkpt lat="31.7996900" lon="34.9980800">
<ele>320.940002</ele>
<time>2022-09-02T11:46:46.123Z</time>
</trkpt>
<trkpt lat="31.7996500" lon="34.9980800">
<ele>320.660004</ele>
<time>2022-09-02T11:46:46.123Z</time>
</trkpt>
<trkpt lat="31.7996200" lon="34.9981000">
<ele>320.579987</ele>
<time>2022-09-02T11:46:46.123Z</time>
</trkpt>
<trkpt lat="31.7995700" lon="34.9981100">
<ele>320.299988</ele>
<time>2022-09-02T11:46:46.123Z</time>
</trkpt>
<trkpt lat="31.7995400" lon="34.9981200">
<ele>320.149994</ele>
<time>2022-09-02T11:46:46.123Z</time>
</trkpt>
<trkpt lat="31.7995000" lon="34.9981300">
<ele>319.940002</ele>
<time>2022-09-02T11:46:46.123Z</time>
</trkpt>
<trkpt lat="31.7994700" lon="34.9981300">
<ele>319.719971</ele>
<time>2022-09-02T11:46:46.123Z</time>
</trkpt>
<trkpt lat="31.7994400" lon="34.9981400">
<ele>319.549988</ele>
<time>2022-09-02T11:46:46.123Z</time>
</trkpt>
<trkpt lat="31.7993800" lon="34.9981500">
<ele>318.819977</ele>
<time>2022-09-02T11:46:46.124Z</time>
</trkpt>
<trkpt lat="31.7993400" lon="34.9981600">
<ele>318.290009</ele>
<time>2022-09-02T11:46:46.124Z</time>
</trkpt>
<trkpt lat="31.7992900" lon="34.9981700">
<ele>317.570007</ele>
<time>2022-09-02T11:46:46.124Z</time>
</trkpt>
<trkpt lat="31.7992500" lon="34.9981800">
<ele>316.930023</ele>
<time>2022-09-02T11:46:46.124Z</time>
</trkpt>
<trkpt lat="31.7992000" lon="34.9981900">
<ele>316.080017</ele>
<time>2022-09-02T11:46:46.124Z</time>
</trkpt>
<trkpt lat="31.7991600" lon="34.9981900">
<ele>315.480011</ele>
<time>2022-09-02T11:46:46.124Z</time>
</trkpt>
<trkpt lat="31.7991100" lon="34.9982000">
<ele>314.809998</ele>
<time>2022-09-02T11:46:46.124Z</time>
</trkpt>
<trkpt lat="31.7990800" lon="34.9982100">
<ele>314.329987</ele>
<time>2022-09-02T11:46:46.124Z</time>
</trkpt>
<trkpt lat="31.7990500" lon="34.9982200">
<ele>313.810028</ele>
<time>2022-09-02T11:46:46.124Z</time>
</trkpt>
<trkpt lat="31.7990200" lon="34.9982200">
<ele>313.450012</ele>
<time>2022-09-02T11:46:46.124Z</time>
</trkpt>
<trkpt lat="31.7989800" lon="34.9982300">
<ele>312.760010</ele>
<time>2022-09-02T11:46:46.124Z</time>
</trkpt>
<trkpt lat="31.7989400" lon="34.9982400">
<ele>312.020020</ele>
<time>2022-09-02T11:46:46.124Z</time>
</trkpt>
<trkpt lat="31.7989000" lon="34.9982500">
<ele>311.250000</ele>
<time>2022-09-02T11:46:46.124Z</time>
</trkpt>
<trkpt lat="31.7988500" lon="34.9982600">
<ele>311.149994</ele>
<time>2022-09-02T11:46:46.124Z</time>
</trkpt>
<trkpt lat="31.7988200" lon="34.9982800">
<ele>311.000000</ele>
<time>2022-09-02T11:46:46.124Z</time>
</trkpt>
<trkpt lat="31.7987800" lon="34.9983000">
<ele>311.080017</ele>
<time>2022-09-02T11:46:46.124Z</time>
</trkpt>
<trkpt lat="31.7987400" lon="34.9983100">
<ele>311.420013</ele>
<time>2022-09-02T11:46:46.124Z</time>
</trkpt>
<trkpt lat="31.7987100" lon="34.9983200">
<ele>311.700012</ele>
<time>2022-09-02T11:46:46.124Z</time>
</trkpt>
<trkpt lat="31.7986600" lon="34.9983400">
<ele>312.310028</ele>
<time>2022-09-02T11:46:46.124Z</time>
</trkpt>
<trkpt lat="31.7986100" lon="34.9983500">
<ele>312.940002</ele>
<time>2022-09-02T11:46:46.124Z</time>
</trkpt>
<trkpt lat="31.7985800" lon="34.9983500">
<ele>313.080017</ele>
<time>2022-09-02T11:46:46.124Z</time>
</trkpt>
<trkpt lat="31.7985400" lon="34.9983700">
<ele>313.259979</ele>
<time>2022-09-02T11:46:46.124Z</time>
</trkpt>
<trkpt lat="31.7985100" lon="34.9983800">
<ele>313.440002</ele>
<time>2022-09-02T11:46:46.124Z</time>
</trkpt>
<trkpt lat="31.7984600" lon="34.9984000">
<ele>313.829987</ele>
<time>2022-09-02T11:46:46.124Z</time>
</trkpt>
<trkpt lat="31.7984100" lon="34.9984300">
<ele>314.380005</ele>
<time>2022-09-02T11:46:46.124Z</time>
</trkpt>
<trkpt lat="31.7983500" lon="34.9984500">
<ele>315.099976</ele>
<time>2022-09-02T11:46:46.124Z</time>
</trkpt>
<trkpt lat="31.7983100" lon="34.9984700">
<ele>315.730011</ele>
<time>2022-09-02T11:46:46.124Z</time>
</trkpt>
<trkpt lat="31.7982800" lon="34.9984900">
<ele>316.190002</ele>
<time>2022-09-02T11:46:46.124Z</time>
</trkpt>
<trkpt lat="31.7982400" lon="34.9985100">
<ele>316.639984</ele>
<time>2022-09-02T11:46:46.124Z</time>
</trkpt>
<trkpt lat="31.7981900" lon="34.9985400">
<ele>317.020020</ele>
<time>2022-09-02T11:46:46.124Z</time>
</trkpt>
<trkpt lat="31.7981600" lon="34.9985500">
<ele>317.160004</ele>
<time>2022-09-02T11:46:46.125Z</time>
</trkpt>
<trkpt lat="31.7981300" lon="34.9985800">
<ele>317.160004</ele>
<time>2022-09-02T11:46:46.125Z</time>
</trkpt>
<trkpt lat="31.7981000" lon="34.9986000">
<ele>317.079987</ele>
<time>2022-09-02T11:46:46.125Z</time>
</trkpt>
<trkpt lat="31.7980700" lon="34.9986300">
<ele>317.400024</ele>
<time>2022-09-02T11:46:46.125Z</time>
</trkpt>
<trkpt lat="31.7980400" lon="34.9986500">
<ele>318.470001</ele>
<time>2022-09-02T11:46:46.125Z</time>
</trkpt>
<trkpt lat="31.7980000" lon="34.9986700">
<ele>320.459991</ele>
<time>2022-09-02T11:46:46.125Z</time>
</trkpt>
<trkpt lat="31.7979500" lon="34.9986800">
<ele>322.580017</ele>
<time>2022-09-02T11:46:46.125Z</time>
</trkpt>
<trkpt lat="31.7979200" lon="34.9986900">
<ele>323.870026</ele>
<time>2022-09-02T11:46:46.125Z</time>
</trkpt>
<trkpt lat="31.7978800" lon="34.9987000">
<ele>325.490021</ele>
<time>2022-09-02T11:46:46.125Z</time>
</trkpt>
<trkpt lat="31.7978300" lon="34.9987100">
<ele>327.429993</ele>
<time>2022-09-02T11:46:46.125Z</time>
</trkpt>
<trkpt lat="31.7977900" lon="34.9987100">
<ele>328.910004</ele>
<time>2022-09-02T11:46:46.125Z</time>
</trkpt>
<trkpt lat="31.7977500" lon="34.9987100">
<ele>330.190002</ele>
<time>2022-09-02T11:46:46.125Z</time>
</trkpt>
<trkpt lat="31.7977100" lon="34.9987100">
<ele>331.390015</ele>
<time>2022-09-02T11:46:46.125Z</time>
</trkpt>
<trkpt lat="31.7976800" lon="34.9987200">
<ele>332.349976</ele>
<time>2022-09-02T11:46:46.125Z</time>
</trkpt>
<trkpt lat="31.7976500" lon="34.9987300">
<ele>333.299988</ele>
<time>2022-09-02T11:46:46.125Z</time>
</trkpt>
<trkpt lat="31.7976000" lon="34.9987600">
<ele>335.000031</ele>
<time>2022-09-02T11:46:46.125Z</time>
</trkpt>
<trkpt lat="31.7975700" lon="34.9987800">
<ele>336.049988</ele>
<time>2022-09-02T11:46:46.125Z</time>
</trkpt>
<trkpt lat="31.7975300" lon="34.9987900">
<ele>337.350006</ele>
<time>2022-09-02T11:46:46.125Z</time>
</trkpt>
<trkpt lat="31.7975000" lon="34.9988000">
<ele>338.359985</ele>
<time>2022-09-02T11:46:46.125Z</time>
</trkpt>
<trkpt lat="31.7974500" lon="34.9988200">
<ele>339.759979</ele>
<time>2022-09-02T11:46:46.125Z</time>
</trkpt>
<trkpt lat="31.7974100" lon="34.9988400">
<ele>340.820007</ele>
<time>2022-09-02T11:46:46.125Z</time>
</trkpt>
<trkpt lat="31.7973800" lon="34.9988600">
<ele>341.559998</ele>
<time>2022-09-02T11:46:46.125Z</time>
</trkpt>
<trkpt lat="31.7973400" lon="34.9988800">
<ele>342.470001</ele>
<time>2022-09-02T11:46:46.125Z</time>
</trkpt>
<trkpt lat="31.7973000" lon="34.9988900">
<ele>343.320007</ele>
<time>2022-09-02T11:46:46.125Z</time>
</trkpt>
<trkpt lat="31.7972500" lon="34.9989100">
<ele>344.370026</ele>
<time>2022-09-02T11:46:46.125Z</time>
</trkpt>
<trkpt lat="31.7972100" lon="34.9989200">
<ele>344.800018</ele>
<time>2022-09-02T11:46:46.125Z</time>
</trkpt>
<trkpt lat="31.7971800" lon="34.9989300">
<ele>344.529999</ele>
<time>2022-09-02T11:46:46.125Z</time>
</trkpt>
<trkpt lat="31.7971400" lon="34.9989400">
<ele>344.169983</ele>
<time>2022-09-02T11:46:46.125Z</time>
</trkpt>
<trkpt lat="31.7970900" lon="34.9989600">
<ele>343.670013</ele>
<time>2022-09-02T11:46:46.125Z</time>
</trkpt>
<trkpt lat="31.7970600" lon="34.9989700">
<ele>343.369995</ele>
<time>2022-09-02T11:46:46.125Z</time>
</trkpt>
<trkpt lat="31.7970100" lon="34.9989900">
<ele>342.830017</ele>
<time>2022-09-02T11:46:46.126Z</time>
</trkpt>
<trkpt lat="31.7969800" lon="34.9990000">
<ele>342.510010</ele>
<time>2022-09-02T11:46:46.126Z</time>
</trkpt>
<trkpt lat="31.7969300" lon="34.9990200">
<ele>342.260010</ele>
<time>2022-09-02T11:46:46.126Z</time>
</trkpt>
<trkpt lat="31.7968700" lon="34.9990500">
<ele>342.950012</ele>
<time>2022-09-02T11:46:46.126Z</time>
</trkpt>
<trkpt lat="31.7968400" lon="34.9990500">
<ele>343.399994</ele>
<time>2022-09-02T11:46:46.126Z</time>
</trkpt>
<trkpt lat="31.7967800" lon="34.9990600">
<ele>344.269989</ele>
<time>2022-09-02T11:46:46.126Z</time>
</trkpt>
<trkpt lat="31.7967500" lon="34.9990600">
<ele>344.729980</ele>
<time>2022-09-02T11:46:46.126Z</time>
</trkpt>
<trkpt lat="31.7967100" lon="34.9990500">
<ele>345.350006</ele>
<time>2022-09-02T11:46:46.126Z</time>
</trkpt>
<trkpt lat="31.7966400" lon="34.9990300">
<ele>346.430023</ele>
<time>2022-09-02T11:46:46.126Z</time>
</trkpt>
<trkpt lat="31.7966100" lon="34.9990300">
<ele>346.919983</ele>
<time>2022-09-02T11:46:46.126Z</time>
</trkpt>
<trkpt lat="31.7965600" lon="34.9990200">
<ele>347.739990</ele>
<time>2022-09-02T11:46:46.126Z</time>
</trkpt>
<trkpt lat="31.7965200" lon="34.9990300">
<ele>348.369995</ele>
<time>2022-09-02T11:46:46.126Z</time>
</trkpt>
<trkpt lat="31.7964900" lon="34.9990400">
<ele>348.829987</ele>
<time>2022-09-02T11:46:46.126Z</time>
</trkpt>
<trkpt lat="31.7964600" lon="34.9990500">
<ele>349.290009</ele>
<time>2022-09-02T11:46:46.126Z</time>
</trkpt>
<trkpt lat="31.7964100" lon="34.9990700">
<ele>350.020020</ele>
<time>2022-09-02T11:46:46.126Z</time>
</trkpt>
<trkpt lat="31.7963600" lon="34.9991100">
<ele>349.680023</ele>
<time>2022-09-02T11:46:46.126Z</time>
</trkpt>
<trkpt lat="31.7963300" lon="34.9991400">
<ele>349.040009</ele>
<time>2022-09-02T11:46:46.126Z</time>
</trkpt>
<trkpt lat="31.7962800" lon="34.9991800">
<ele>347.800018</ele>
<time>2022-09-02T11:46:46.126Z</time>
</trkpt>
<trkpt lat="31.7962400" lon="34.9992100">
<ele>346.649994</ele>
<time>2022-09-02T11:46:46.126Z</time>
</trkpt>
<trkpt lat="31.7962000" lon="34.9992200">
<ele>345.910004</ele>
<time>2022-09-02T11:46:46.126Z</time>
</trkpt>
<trkpt lat="31.7961700" lon="34.9992300">
<ele>345.360016</ele>
<time>2022-09-02T11:46:46.126Z</time>
</trkpt>
<trkpt lat="31.7961300" lon="34.9992400">
<ele>344.719971</ele>
<time>2022-09-02T11:46:46.126Z</time>
</trkpt>
<trkpt lat="31.7961000" lon="34.9992500">
<ele>344.130005</ele>
<time>2022-09-02T11:46:46.126Z</time>
</trkpt>
<trkpt lat="31.7960700" lon="34.9992600">
<ele>343.339996</ele>
<time>2022-09-02T11:46:46.126Z</time>
</trkpt>
<trkpt lat="31.7960300" lon="34.9992600">
<ele>342.380005</ele>
<time>2022-09-02T11:46:46.126Z</time>
</trkpt>
<trkpt lat="31.7960000" lon="34.9992700">
<ele>341.649994</ele>
<time>2022-09-02T11:46:46.126Z</time>
</trkpt>
<trkpt lat="31.7959600" lon="34.9992700">
<ele>340.709991</ele>
<time>2022-09-02T11:46:46.126Z</time>
</trkpt>
<trkpt lat="31.7959100" lon="34.9992800">
<ele>339.570007</ele>
<time>2022-09-02T11:46:46.126Z</time>
</trkpt>
<trkpt lat="31.7958800" lon="34.9992800">
<ele>338.890015</ele>
<time>2022-09-02T11:46:46.126Z</time>
</trkpt>
<trkpt lat="31.7958300" lon="34.9992900">
<ele>337.929993</ele>
<time>2022-09-02T11:46:46.126Z</time>
</trkpt>
<trkpt lat="31.7958000" lon="34.9993000">
<ele>338.330017</ele>
<time>2022-09-02T11:46:46.127Z</time>
</trkpt>
<trkpt lat="31.7957700" lon="34.9993100">
<ele>338.690002</ele>
<time>2022-09-02T11:46:46.127Z</time>
</trkpt>
<trkpt lat="31.7957300" lon="34.9993200">
<ele>339.100006</ele>
<time>2022-09-02T11:46:46.127Z</time>
</trkpt>
<trkpt lat="31.7956900" lon="34.9993300">
<ele>339.450012</ele>
<time>2022-09-02T11:46:46.127Z</time>
</trkpt>
<trkpt lat="31.7956500" lon="34.9993500">
<ele>339.669983</ele>
<time>2022-09-02T11:46:46.127Z</time>
</trkpt>
<trkpt lat="31.7956100" lon="34.9993600">
<ele>339.859985</ele>
<time>2022-09-02T11:46:46.127Z</time>
</trkpt>
<trkpt lat="31.7955700" lon="34.9993900">
<ele>339.720001</ele>
<time>2022-09-02T11:46:46.127Z</time>
</trkpt>
<trkpt lat="31.7955400" lon="34.9994100">
<ele>339.690002</ele>
<time>2022-09-02T11:46:46.127Z</time>
</trkpt>
<trkpt lat="31.7955100" lon="34.9994300">
<ele>339.830017</ele>
<time>2022-09-02T11:46:46.127Z</time>
</trkpt>
<trkpt lat="31.7954700" lon="34.9994600">
<ele>340.390015</ele>
<time>2022-09-02T11:46:46.127Z</time>
</trkpt>
<trkpt lat="31.7954300" lon="34.9995000">
<ele>341.250031</ele>
<time>2022-09-02T11:46:46.127Z</time>
</trkpt>
<trkpt lat="31.7954000" lon="34.9995200">
<ele>341.720001</ele>
<time>2022-09-02T11:46:46.127Z</time>
</trkpt>
<trkpt lat="31.7953700" lon="34.9995400">
<ele>342.130005</ele>
<time>2022-09-02T11:46:46.127Z</time>
</trkpt>
<trkpt lat="31.7953400" lon="34.9995600">
<ele>342.480011</ele>
<time>2022-09-02T11:46:46.127Z</time>
</trkpt>
<trkpt lat="31.7953100" lon="34.9995800">
<ele>342.759979</ele>
<time>2022-09-02T11:46:46.127Z</time>
</trkpt>
<trkpt lat="31.7952900" lon="34.9996000">
<ele>342.920013</ele>
<time>2022-09-02T11:46:46.127Z</time>
</trkpt>
<trkpt lat="31.7952600" lon="34.9996100">
<ele>343.099976</ele>
<time>2022-09-02T11:46:46.127Z</time>
</trkpt>
<trkpt lat="31.7952300" lon="34.9996300">
<ele>343.229980</ele>
<time>2022-09-02T11:46:46.127Z</time>
</trkpt>
<trkpt lat="31.7952000" lon="34.9996500">
<ele>343.290009</ele>
<time>2022-09-02T11:46:46.127Z</time>
</trkpt>
<trkpt lat="31.7951700" lon="34.9996800">
<ele>343.239990</ele>
<time>2022-09-02T11:46:46.127Z</time>
</trkpt>
<trkpt lat="31.7951300" lon="34.9996900">
<ele>343.250000</ele>
<time>2022-09-02T11:46:46.127Z</time>
</trkpt>
<trkpt lat="31.7951000" lon="34.9997100">
<ele>343.109985</ele>
<time>2022-09-02T11:46:46.127Z</time>
</trkpt>
<trkpt lat="31.7950700" lon="34.9997200">
<ele>343.019989</ele>
<time>2022-09-02T11:46:46.127Z</time>
</trkpt>
<trkpt lat="31.7950300" lon="34.9997500">
<ele>343.320007</ele>
<time>2022-09-02T11:46:46.127Z</time>
</trkpt>
<trkpt lat="31.7949900" lon="34.9997700">
<ele>343.520020</ele>
<time>2022-09-02T11:46:46.127Z</time>
</trkpt>
<trkpt lat="31.7949500" lon="34.9998000">
<ele>343.770020</ele>
<time>2022-09-02T11:46:46.127Z</time>
</trkpt>
<trkpt lat="31.7949200" lon="34.9998200">
<ele>343.839996</ele>
<time>2022-09-02T11:46:46.127Z</time>
</trkpt>
<trkpt lat="31.7948800" lon="34.9998500">
<ele>343.820007</ele>
<time>2022-09-02T11:46:46.127Z</time>
</trkpt>
<trkpt lat="31.7948500" lon="34.9998800">
<ele>343.709991</ele>
<time>2022-09-02T11:46:46.127Z</time>
</trkpt>
<trkpt lat="31.7948000" lon="34.9999200">
<ele>343.290009</ele>
<time>2022-09-02T11:46:46.127Z</time>
</trkpt>
<trkpt lat="31.7947700" lon="34.9999500">
<ele>342.889984</ele>
<time>2022-09-02T11:46:46.128Z</time>
</trkpt>
<trkpt lat="31.7947500" lon="34.9999700">
<ele>342.559998</ele>
<time>2022-09-02T11:46:46.128Z</time>
</trkpt>
<trkpt lat="31.7947100" lon="34.9999900">
<ele>342.119995</ele>
<time>2022-09-02T11:46:46.128Z</time>
</trkpt>
<trkpt lat="31.7946800" lon="35.0000200">
<ele>342.320007</ele>
<time>2022-09-02T11:46:46.128Z</time>
</trkpt>
<trkpt lat="31.7946500" lon="35.0000400">
<ele>342.620026</ele>
<time>2022-09-02T11:46:46.128Z</time>
</trkpt>
<trkpt lat="31.7946000" lon="35.0000700">
<ele>343.170013</ele>
<time>2022-09-02T11:46:46.128Z</time>
</trkpt>
<trkpt lat="31.7945700" lon="35.0000900">
<ele>343.550018</ele>
<time>2022-09-02T11:46:46.128Z</time>
</trkpt>
<trkpt lat="31.7945300" lon="35.0001200">
<ele>344.149994</ele>
<time>2022-09-02T11:46:46.128Z</time>
</trkpt>
<trkpt lat="31.7945000" lon="35.0001500">
<ele>344.739990</ele>
<time>2022-09-02T11:46:46.128Z</time>
</trkpt>
<trkpt lat="31.7944600" lon="35.0001700">
<ele>345.319977</ele>
<time>2022-09-02T11:46:46.128Z</time>
</trkpt>
<trkpt lat="31.7944300" lon="35.0001900">
<ele>345.940002</ele>
<time>2022-09-02T11:46:46.128Z</time>
</trkpt>
<trkpt lat="31.7944000" lon="35.0002000">
<ele>346.489990</ele>
<time>2022-09-02T11:46:46.128Z</time>
</trkpt>
<trkpt lat="31.7943600" lon="35.0002200">
<ele>347.269989</ele>
<time>2022-09-02T11:46:46.128Z</time>
</trkpt>
<trkpt lat="31.7943300" lon="35.0002300">
<ele>347.759979</ele>
<time>2022-09-02T11:46:46.128Z</time>
</trkpt>
<trkpt lat="31.7942900" lon="35.0002400">
<ele>348.350006</ele>
<time>2022-09-02T11:46:46.128Z</time>
</trkpt>
<trkpt lat="31.7942400" lon="35.0002500">
<ele>349.029999</ele>
<time>2022-09-02T11:46:46.128Z</time>
</trkpt>
<trkpt lat="31.7942100" lon="35.0002500">
<ele>349.389984</ele>
<time>2022-09-02T11:46:46.128Z</time>
</trkpt>
<trkpt lat="31.7941700" lon="35.0002500">
<ele>349.859985</ele>
<time>2022-09-02T11:46:46.128Z</time>
</trkpt>
<trkpt lat="31.7941200" lon="35.0002500">
<ele>350.470001</ele>
<time>2022-09-02T11:46:46.128Z</time>
</trkpt>
<trkpt lat="31.7940900" lon="35.0002600">
<ele>350.830017</ele>
<time>2022-09-02T11:46:46.128Z</time>
</trkpt>
<trkpt lat="31.7940400" lon="35.0002600">
<ele>351.420013</ele>
<time>2022-09-02T11:46:46.128Z</time>
</trkpt>
<trkpt lat="31.7939900" lon="35.0002500">
<ele>352.059998</ele>
<time>2022-09-02T11:46:46.128Z</time>
</trkpt>
<trkpt lat="31.7939600" lon="35.0002300">
<ele>352.570007</ele>
<time>2022-09-02T11:46:46.128Z</time>
</trkpt>
<trkpt lat="31.7939300" lon="35.0002200">
<ele>353.059998</ele>
<time>2022-09-02T11:46:46.128Z</time>
</trkpt>
<trkpt lat="31.7938900" lon="35.0002000">
<ele>353.820007</ele>
<time>2022-09-02T11:46:46.128Z</time>
</trkpt>
<trkpt lat="31.7938400" lon="35.0001800">
<ele>354.880005</ele>
<time>2022-09-02T11:46:46.128Z</time>
</trkpt>
<trkpt lat="31.7938100" lon="35.0001500">
<ele>355.779999</ele>
<time>2022-09-02T11:46:46.128Z</time>
</trkpt>
<trkpt lat="31.7937700" lon="35.0001400">
<ele>356.620026</ele>
<time>2022-09-02T11:46:46.128Z</time>
</trkpt>
<trkpt lat="31.7937300" lon="35.0001400">
<ele>357.340027</ele>
<time>2022-09-02T11:46:46.128Z</time>
</trkpt>
<trkpt lat="31.7937000" lon="35.0001500">
<ele>357.730011</ele>
<time>2022-09-02T11:46:46.128Z</time>
</trkpt>
<trkpt lat="31.7936700" lon="35.0001500">
<ele>358.259979</ele>
<time>2022-09-02T11:46:46.128Z</time>
</trkpt>
<trkpt lat="31.7936300" lon="35.0001500">
<ele>358.970001</ele>
<time>2022-09-02T11:46:46.129Z</time>
</trkpt>
<trkpt lat="31.7936100" lon="35.0001500">
<ele>359.309998</ele>
<time>2022-09-02T11:46:46.129Z</time>
</trkpt>
<trkpt lat="31.7935600" lon="35.0001600">
<ele>359.520020</ele>
<time>2022-09-02T11:46:46.129Z</time>
</trkpt>
<trkpt lat="31.7935300" lon="35.0001600">
<ele>359.750000</ele>
<time>2022-09-02T11:46:46.129Z</time>
</trkpt>
<trkpt lat="31.7934800" lon="35.0001600">
<ele>360.139984</ele>
<time>2022-09-02T11:46:46.129Z</time>
</trkpt>
<trkpt lat="31.7934200" lon="35.0001600">
<ele>360.600006</ele>
<time>2022-09-02T11:46:46.129Z</time>
</trkpt>
<trkpt lat="31.7933800" lon="35.0001600">
<ele>360.910004</ele>
<time>2022-09-02T11:46:46.129Z</time>
</trkpt>
<trkpt lat="31.7933500" lon="35.0001600">
<ele>361.140015</ele>
<time>2022-09-02T11:46:46.129Z</time>
</trkpt>
<trkpt lat="31.7933200" lon="35.0001600">
<ele>361.379974</ele>
<time>2022-09-02T11:46:46.129Z</time>
</trkpt>
<trkpt lat="31.7932700" lon="35.0001600">
<ele>361.790009</ele>
<time>2022-09-02T11:46:46.129Z</time>
</trkpt>
<trkpt lat="31.7932400" lon="35.0001600">
<ele>362.040009</ele>
<time>2022-09-02T11:46:46.129Z</time>
</trkpt>
<trkpt lat="31.7932000" lon="35.0001500">
<ele>362.520020</ele>
<time>2022-09-02T11:46:46.129Z</time>
</trkpt>
<trkpt lat="31.7931600" lon="35.0001400">
<ele>363.040009</ele>
<time>2022-09-02T11:46:46.129Z</time>
</trkpt>
<trkpt lat="31.7931100" lon="35.0001400">
<ele>363.489990</ele>
<time>2022-09-02T11:46:46.129Z</time>
</trkpt>
<trkpt lat="31.7930800" lon="35.0001400">
<ele>363.760010</ele>
<time>2022-09-02T11:46:46.129Z</time>
</trkpt>
<trkpt lat="31.7930500" lon="35.0001400">
<ele>364.079987</ele>
<time>2022-09-02T11:46:46.129Z</time>
</trkpt>
<trkpt lat="31.7930000" lon="35.0001400">
<ele>364.979980</ele>
<time>2022-09-02T11:46:46.129Z</time>
</trkpt>
<trkpt lat="31.7929600" lon="35.0001400">
<ele>365.699982</ele>
<time>2022-09-02T11:46:46.129Z</time>
</trkpt>
<trkpt lat="31.7929300" lon="35.0001400">
<ele>366.240021</ele>
<time>2022-09-02T11:46:46.129Z</time>
</trkpt>
<trkpt lat="31.7928900" lon="35.0001500">
<ele>366.739990</ele>
<time>2022-09-02T11:46:46.129Z</time>
</trkpt>
<trkpt lat="31.7928500" lon="35.0001600">
<ele>367.239990</ele>
<time>2022-09-02T11:46:46.129Z</time>
</trkpt>
<trkpt lat="31.7928100" lon="35.0001800">
<ele>367.529999</ele>
<time>2022-09-02T11:46:46.129Z</time>
</trkpt>
<trkpt lat="31.7927800" lon="35.0001900">
<ele>367.860016</ele>
<time>2022-09-02T11:46:46.129Z</time>
</trkpt>
<trkpt lat="31.7927200" lon="35.0002200">
<ele>367.910004</ele>
<time>2022-09-02T11:46:46.129Z</time>
</trkpt>
<trkpt lat="31.7926900" lon="35.0002300">
<ele>368.080017</ele>
<time>2022-09-02T11:46:46.129Z</time>
</trkpt>
<trkpt lat="31.7926500" lon="35.0002400">
<ele>368.410004</ele>
<time>2022-09-02T11:46:46.129Z</time>
</trkpt>
<trkpt lat="31.7926200" lon="35.0002400">
<ele>368.779968</ele>
<time>2022-09-02T11:46:46.129Z</time>
</trkpt>
<trkpt lat="31.7925800" lon="35.0002400">
<ele>369.279999</ele>
<time>2022-09-02T11:46:46.129Z</time>
</trkpt>
<trkpt lat="31.7925500" lon="35.0002300">
<ele>369.750000</ele>
<time>2022-09-02T11:46:46.129Z</time>
</trkpt>
<trkpt lat="31.7925200" lon="35.0001900">
<ele>370.440002</ele>
<time>2022-09-02T11:46:46.130Z</time>
</trkpt>
<trkpt lat="31.7925000" lon="35.0001600">
<ele>370.850006</ele>
<time>2022-09-02T11:46:46.130Z</time>
</trkpt>
<trkpt lat="31.7924800" lon="35.0001200">
<ele>371.260010</ele>
<time>2022-09-02T11:46:46.130Z</time>
</trkpt>
<trkpt lat="31.7924700" lon="35.0000900">
<ele>371.569977</ele>
<time>2022-09-02T11:46:46.130Z</time>
</trkpt>
<trkpt lat="31.7924600" lon="35.0000500">
<ele>371.989990</ele>
<time>2022-09-02T11:46:46.130Z</time>
</trkpt>
<trkpt lat="31.7924400" lon="35.0000200">
<ele>372.459991</ele>
<time>2022-09-02T11:46:46.130Z</time>
</trkpt>
<trkpt lat="31.7924300" lon="34.9999900">
<ele>372.779999</ele>
<time>2022-09-02T11:46:46.130Z</time>
</trkpt>
<trkpt lat="31.7924200" lon="34.9999600">
<ele>372.970001</ele>
<time>2022-09-02T11:46:46.130Z</time>
</trkpt>
<trkpt lat="31.7924100" lon="34.9999300">
<ele>373.140015</ele>
<time>2022-09-02T11:46:46.130Z</time>
</trkpt>
<trkpt lat="31.7924000" lon="34.9998900">
<ele>373.329987</ele>
<time>2022-09-02T11:46:46.130Z</time>
</trkpt>
<trkpt lat="31.7923900" lon="34.9998400">
<ele>373.539978</ele>
<time>2022-09-02T11:46:46.130Z</time>
</trkpt>
<trkpt lat="31.7923800" lon="34.9998000">
<ele>373.700012</ele>
<time>2022-09-02T11:46:46.130Z</time>
</trkpt>
<trkpt lat="31.7923700" lon="34.9997700">
<ele>373.839996</ele>
<time>2022-09-02T11:46:46.130Z</time>
</trkpt>
<trkpt lat="31.7923500" lon="34.9997300">
<ele>374.070007</ele>
<time>2022-09-02T11:46:46.130Z</time>
</trkpt>
<trkpt lat="31.7923200" lon="34.9997000">
<ele>374.250000</ele>
<time>2022-09-02T11:46:46.130Z</time>
</trkpt>
<trkpt lat="31.7922900" lon="34.9996800">
<ele>374.359985</ele>
<time>2022-09-02T11:46:46.130Z</time>
</trkpt>
<trkpt lat="31.7922500" lon="34.9996700">
<ele>374.500000</ele>
<time>2022-09-02T11:46:46.130Z</time>
</trkpt>
<trkpt lat="31.7922200" lon="34.9996600">
<ele>374.550018</ele>
<time>2022-09-02T11:46:46.130Z</time>
</trkpt>
<trkpt lat="31.7921800" lon="34.9996400">
<ele>374.450012</ele>
<time>2022-09-02T11:46:46.130Z</time>
</trkpt>
<trkpt lat="31.7921600" lon="34.9996200">
<ele>374.349976</ele>
<time>2022-09-02T11:46:46.130Z</time>
</trkpt>
<trkpt lat="31.7921300" lon="34.9996000">
<ele>374.269989</ele>
<time>2022-09-02T11:46:46.130Z</time>
</trkpt>
<trkpt lat="31.7921000" lon="34.9995600">
<ele>374.089996</ele>
<time>2022-09-02T11:46:46.130Z</time>
</trkpt>
<trkpt lat="31.7920700" lon="34.9995300">
<ele>374.000031</ele>
<time>2022-09-02T11:46:46.130Z</time>
</trkpt>
<trkpt lat="31.7920400" lon="34.9995100">
<ele>373.970001</ele>
<time>2022-09-02T11:46:46.130Z</time>
</trkpt>
<trkpt lat="31.7920300" lon="34.9994700">
<ele>373.809998</ele>
<time>2022-09-02T11:46:46.130Z</time>
</trkpt>
<trkpt lat="31.7920100" lon="34.9994400">
<ele>373.769989</ele>
<time>2022-09-02T11:46:46.130Z</time>
</trkpt>
<trkpt lat="31.7919700" lon="34.9994100">
<ele>373.919983</ele>
<time>2022-09-02T11:46:46.130Z</time>
</trkpt>
<trkpt lat="31.7919400" lon="34.9993900">
<ele>374.059998</ele>
<time>2022-09-02T11:46:46.131Z</time>
</trkpt>
<trkpt lat="31.7918900" lon="34.9993700">
<ele>374.750000</ele>
<time>2022-09-02T11:46:46.131Z</time>
</trkpt>
<trkpt lat="31.7918500" lon="34.9993500">
<ele>375.370026</ele>
<time>2022-09-02T11:46:46.131Z</time>
</trkpt>
<trkpt lat="31.7918300" lon="34.9993300">
<ele>375.750000</ele>
<time>2022-09-02T11:46:46.131Z</time>
</trkpt>
<trkpt lat="31.7917900" lon="34.9993000">
<ele>376.539978</ele>
<time>2022-09-02T11:46:46.131Z</time>
</trkpt>
<trkpt lat="31.7917500" lon="34.9992700">
<ele>377.420013</ele>
<time>2022-09-02T11:46:46.131Z</time>
</trkpt>
<trkpt lat="31.7917200" lon="34.9992400">
<ele>378.209991</ele>
<time>2022-09-02T11:46:46.131Z</time>
</trkpt>
<trkpt lat="31.7916800" lon="34.9992100">
<ele>379.269989</ele>
<time>2022-09-02T11:46:46.131Z</time>
</trkpt>
<trkpt lat="31.7916100" lon="34.9991600">
<ele>381.459991</ele>
<time>2022-09-02T11:46:46.131Z</time>
</trkpt>
<trkpt lat="31.7915700" lon="34.9991200">
<ele>382.660004</ele>
<time>2022-09-02T11:46:46.131Z</time>
</trkpt>
<trkpt lat="31.7915200" lon="34.9990600">
<ele>384.279999</ele>
<time>2022-09-02T11:46:46.131Z</time>
</trkpt>
<trkpt lat="31.7914600" lon="34.9990000">
<ele>386.250000</ele>
<time>2022-09-02T11:46:46.131Z</time>
</trkpt>
<trkpt lat="31.7914300" lon="34.9989700">
<ele>387.279999</ele>
<time>2022-09-02T11:46:46.131Z</time>
</trkpt>
<trkpt lat="31.7914100" lon="34.9989400">
<ele>388.040009</ele>
<time>2022-09-02T11:46:46.131Z</time>
</trkpt>
<trkpt lat="31.7913600" lon="34.9988900">
<ele>388.989990</ele>
<time>2022-09-02T11:46:46.131Z</time>
</trkpt>
<trkpt lat="31.7913300" lon="34.9988700">
<ele>388.779999</ele>
<time>2022-09-02T11:46:46.131Z</time>
</trkpt>
<trkpt lat="31.7912900" lon="34.9988400">
<ele>388.410004</ele>
<time>2022-09-02T11:46:46.131Z</time>
</trkpt>
<trkpt lat="31.7912600" lon="34.9988100">
<ele>388.019989</ele>
<time>2022-09-02T11:46:46.131Z</time>
</trkpt>
<trkpt lat="31.7912200" lon="34.9987800">
<ele>387.589996</ele>
<time>2022-09-02T11:46:46.131Z</time>
</trkpt>
<trkpt lat="31.7911800" lon="34.9987400">
<ele>386.989990</ele>
<time>2022-09-02T11:46:46.131Z</time>
</trkpt>
<trkpt lat="31.7911200" lon="34.9986800">
<ele>386.020020</ele>
<time>2022-09-02T11:46:46.131Z</time>
</trkpt>
<trkpt lat="31.7910800" lon="34.9986300">
<ele>385.109985</ele>
<time>2022-09-02T11:46:46.131Z</time>
</trkpt>
<trkpt lat="31.7910500" lon="34.9985700">
<ele>384.040009</ele>
<time>2022-09-02T11:46:46.131Z</time>
</trkpt>
<trkpt lat="31.7910200" lon="34.9984600">
<ele>381.950012</ele>
<time>2022-09-02T11:46:46.131Z</time>
</trkpt>
<trkpt lat="31.7910100" lon="34.9983800">
<ele>380.479980</ele>
<time>2022-09-02T11:46:46.131Z</time>
</trkpt>
<trkpt lat="31.7910100" lon="34.9982800">
<ele>378.679993</ele>
<time>2022-09-02T11:46:46.131Z</time>
</trkpt>
<trkpt lat="31.7910100" lon="34.9982100">
<ele>377.420013</ele>
<time>2022-09-02T11:46:46.131Z</time>
</trkpt>
<trkpt lat="31.7910200" lon="34.9981500">
<ele>376.369995</ele>
<time>2022-09-02T11:46:46.131Z</time>
</trkpt>
<trkpt lat="31.7910500" lon="34.9981100">
<ele>375.759979</ele>
<time>2022-09-02T11:46:46.131Z</time>
</trkpt>
<trkpt lat="31.7910900" lon="34.9980800">
<ele>375.360016</ele>
<time>2022-09-02T11:46:46.132Z</time>
</trkpt>
<trkpt lat="31.7911200" lon="34.9980800">
<ele>375.509979</ele>
<time>2022-09-02T11:46:46.132Z</time>
</trkpt>
<trkpt lat="31.7911500" lon="34.9980800">
<ele>375.730011</ele>
<time>2022-09-02T11:46:46.132Z</time>
</trkpt>
<trkpt lat="31.7911800" lon="34.9980900">
<ele>376.149994</ele>
<time>2022-09-02T11:46:46.132Z</time>
</trkpt>
<trkpt lat="31.7912100" lon="34.9980900">
<ele>376.380005</ele>
<time>2022-09-02T11:46:46.132Z</time>
</trkpt>
<trkpt lat="31.7912400" lon="34.9981100">
<ele>376.999969</ele>
<time>2022-09-02T11:46:46.132Z</time>
</trkpt>
<trkpt lat="31.7912800" lon="34.9981000">
<ele>377.110016</ele>
<time>2022-09-02T11:46:46.132Z</time>
</trkpt>
<trkpt lat="31.7913200" lon="34.9980800">
<ele>377.009979</ele>
<time>2022-09-02T11:46:46.132Z</time>
</trkpt>
<trkpt lat="31.7913500" lon="34.9980600">
<ele>376.809998</ele>
<time>2022-09-02T11:46:46.132Z</time>
</trkpt>
<trkpt lat="31.7914000" lon="34.9980400">
<ele>376.529999</ele>
<time>2022-09-02T11:46:46.132Z</time>
</trkpt>
<trkpt lat="31.7914300" lon="34.9980300">
<ele>376.059998</ele>
<time>2022-09-02T11:46:46.132Z</time>
</trkpt>
<trkpt lat="31.7915000" lon="34.9979900">
<ele>374.550018</ele>
<time>2022-09-02T11:46:46.132Z</time>
</trkpt>
<trkpt lat="31.7915300" lon="34.9979700">
<ele>373.829987</ele>
<time>2022-09-02T11:46:46.132Z</time>
</trkpt>
<trkpt lat="31.7915600" lon="34.9979500">
<ele>373.109985</ele>
<time>2022-09-02T11:46:46.132Z</time>
</trkpt>
<trkpt lat="31.7915900" lon="34.9979300">
<ele>372.389984</ele>
<time>2022-09-02T11:46:46.132Z</time>
</trkpt>
<trkpt lat="31.7916400" lon="34.9978900">
<ele>371.019989</ele>
<time>2022-09-02T11:46:46.132Z</time>
</trkpt>
<trkpt lat="31.7917000" lon="34.9978500">
<ele>369.790009</ele>
<time>2022-09-02T11:46:46.132Z</time>
</trkpt>
<trkpt lat="31.7917400" lon="34.9978200">
<ele>369.020020</ele>
<time>2022-09-02T11:46:46.132Z</time>
</trkpt>
<trkpt lat="31.7917900" lon="34.9977800">
<ele>368.050018</ele>
<time>2022-09-02T11:46:46.132Z</time>
</trkpt>
<trkpt lat="31.7918400" lon="34.9977600">
<ele>367.779999</ele>
<time>2022-09-02T11:46:46.132Z</time>
</trkpt>
<trkpt lat="31.7918800" lon="34.9977500">
<ele>367.679993</ele>
<time>2022-09-02T11:46:46.132Z</time>
</trkpt>
<trkpt lat="31.7919300" lon="34.9977500">
<ele>367.690002</ele>
<time>2022-09-02T11:46:46.132Z</time>
</trkpt>
<trkpt lat="31.7920000" lon="34.9977500">
<ele>367.879974</ele>
<time>2022-09-02T11:46:46.132Z</time>
</trkpt>
<trkpt lat="31.7920500" lon="34.9977500">
<ele>368.040009</ele>
<time>2022-09-02T11:46:46.133Z</time>
</trkpt>
<trkpt lat="31.7921200" lon="34.9977600">
<ele>368.399994</ele>
<time>2022-09-02T11:46:46.133Z</time>
</trkpt>
<trkpt lat="31.7921900" lon="34.9977700">
<ele>368.779968</ele>
<time>2022-09-02T11:46:46.133Z</time>
</trkpt>
<trkpt lat="31.7922400" lon="34.9977700">
<ele>368.760010</ele>
<time>2022-09-02T11:46:46.133Z</time>
</trkpt>
<trkpt lat="31.7922900" lon="34.9977800">
<ele>368.529999</ele>
<time>2022-09-02T11:46:46.133Z</time>
</trkpt>
<trkpt lat="31.7923400" lon="34.9977800">
<ele>368.170013</ele>
<time>2022-09-02T11:46:46.133Z</time>
</trkpt>
<trkpt lat="31.7923700" lon="34.9977800">
<ele>367.950012</ele>
<time>2022-09-02T11:46:46.133Z</time>
</trkpt>
<trkpt lat="31.7924100" lon="34.9977700">
<ele>367.570007</ele>
<time>2022-09-02T11:46:46.133Z</time>
</trkpt>
<trkpt lat="31.7924500" lon="34.9977700">
<ele>367.289978</ele>
<time>2022-09-02T11:46:46.133Z</time>
</trkpt>
<trkpt lat="31.7924800" lon="34.9977600">
<ele>367.010010</ele>
<time>2022-09-02T11:46:46.133Z</time>
</trkpt>
<trkpt lat="31.7925200" lon="34.9977500">
<ele>366.989990</ele>
<time>2022-09-02T11:46:46.133Z</time>
</trkpt>
<trkpt lat="31.7925500" lon="34.9977400">
<ele>367.169983</ele>
<time>2022-09-02T11:46:46.133Z</time>
</trkpt>
<trkpt lat="31.7925800" lon="34.9977300">
<ele>367.320007</ele>
<time>2022-09-02T11:46:46.133Z</time>
</trkpt>
<trkpt lat="31.7926200" lon="34.9977100">
<ele>367.390015</ele>
<time>2022-09-02T11:46:46.133Z</time>
</trkpt>
<trkpt lat="31.7926500" lon="34.9976900">
<ele>367.309998</ele>
<time>2022-09-02T11:46:46.133Z</time>
</trkpt>
<trkpt lat="31.7926800" lon="34.9976700">
<ele>367.160004</ele>
<time>2022-09-02T11:46:46.133Z</time>
</trkpt>
<trkpt lat="31.7927100" lon="34.9976500">
<ele>366.959991</ele>
<time>2022-09-02T11:46:46.133Z</time>
</trkpt>
<trkpt lat="31.7927400" lon="34.9976300">
<ele>366.690002</ele>
<time>2022-09-02T11:46:46.133Z</time>
</trkpt>
<trkpt lat="31.7927900" lon="34.9976100">
<ele>366.680023</ele>
<time>2022-09-02T11:46:46.133Z</time>
</trkpt>
<trkpt lat="31.7928500" lon="34.9975700">
<ele>367.400024</ele>
<time>2022-09-02T11:46:46.133Z</time>
</trkpt>
<trkpt lat="31.7928800" lon="34.9975600">
<ele>368.000000</ele>
<time>2022-09-02T11:46:46.133Z</time>
</trkpt>
<trkpt lat="31.7929400" lon="34.9975200">
<ele>368.980011</ele>
<time>2022-09-02T11:46:46.133Z</time>
</trkpt>
<trkpt lat="31.7929800" lon="34.9975100">
<ele>369.959991</ele>
<time>2022-09-02T11:46:46.133Z</time>
</trkpt>
<trkpt lat="31.7930100" lon="34.9974900">
<ele>370.589996</ele>
<time>2022-09-02T11:46:46.133Z</time>
</trkpt>
<trkpt lat="31.7930500" lon="34.9974700">
<ele>371.519989</ele>
<time>2022-09-02T11:46:46.133Z</time>
</trkpt>
<trkpt lat="31.7930800" lon="34.9974500">
<ele>371.800018</ele>
<time>2022-09-02T11:46:46.133Z</time>
</trkpt>
<trkpt lat="31.7931200" lon="34.9974300">
<ele>372.110016</ele>
<time>2022-09-02T11:46:46.134Z</time>
</trkpt>
<trkpt lat="31.7931700" lon="34.9974100">
<ele>372.540009</ele>
<time>2022-09-02T11:46:46.134Z</time>
</trkpt>
<trkpt lat="31.7932100" lon="34.9974000">
<ele>372.940002</ele>
<time>2022-09-02T11:46:46.134Z</time>
</trkpt>
<trkpt lat="31.7932500" lon="34.9973900">
<ele>373.329987</ele>
<time>2022-09-02T11:46:46.134Z</time>
</trkpt>
<trkpt lat="31.7932900" lon="34.9973800">
<ele>373.720001</ele>
<time>2022-09-02T11:46:46.134Z</time>
</trkpt>
<trkpt lat="31.7933300" lon="34.9973700">
<ele>374.089996</ele>
<time>2022-09-02T11:46:46.134Z</time>
</trkpt>
<trkpt lat="31.7933600" lon="34.9973600">
<ele>374.179993</ele>
<time>2022-09-02T11:46:46.134Z</time>
</trkpt>
<trkpt lat="31.7934100" lon="34.9973400">
<ele>374.250000</ele>
<time>2022-09-02T11:46:46.134Z</time>
</trkpt>
<trkpt lat="31.7934400" lon="34.9973300">
<ele>374.320007</ele>
<time>2022-09-02T11:46:46.134Z</time>
</trkpt>
<trkpt lat="31.7934600" lon="34.9973100">
<ele>374.179993</ele>
<time>2022-09-02T11:46:46.134Z</time>
</trkpt>
<trkpt lat="31.7935000" lon="34.9972900">
<ele>374.179993</ele>
<time>2022-09-02T11:46:46.134Z</time>
</trkpt>
<trkpt lat="31.7935200" lon="34.9972800">
<ele>374.179993</ele>
<time>2022-09-02T11:46:46.134Z</time>
</trkpt>
<trkpt lat="31.7935700" lon="34.9972500">
<ele>374.100006</ele>
<time>2022-09-02T11:46:46.134Z</time>
</trkpt>
<trkpt lat="31.7936000" lon="34.9972400">
<ele>374.179993</ele>
<time>2022-09-02T11:46:46.134Z</time>
</trkpt>
<trkpt lat="31.7936400" lon="34.9972300">
<ele>374.519989</ele>
<time>2022-09-02T11:46:46.134Z</time>
</trkpt>
<trkpt lat="31.7936700" lon="34.9972200">
<ele>374.819977</ele>
<time>2022-09-02T11:46:46.134Z</time>
</trkpt>
<trkpt lat="31.7937100" lon="34.9972100">
<ele>375.280029</ele>
<time>2022-09-02T11:46:46.134Z</time>
</trkpt>
<trkpt lat="31.7937300" lon="34.9972000">
<ele>375.459991</ele>
<time>2022-09-02T11:46:46.134Z</time>
</trkpt>
<trkpt lat="31.7937800" lon="34.9971800">
<ele>376.010010</ele>
<time>2022-09-02T11:46:46.134Z</time>
</trkpt>
<trkpt lat="31.7938200" lon="34.9971500">
<ele>376.359985</ele>
<time>2022-09-02T11:46:46.134Z</time>
</trkpt>
<trkpt lat="31.7938400" lon="34.9971400">
<ele>376.600006</ele>
<time>2022-09-02T11:46:46.134Z</time>
</trkpt>
<trkpt lat="31.7938900" lon="34.9971200">
<ele>377.259979</ele>
<time>2022-09-02T11:46:46.134Z</time>
</trkpt>
<trkpt lat="31.7939300" lon="34.9970800">
<ele>376.899994</ele>
<time>2022-09-02T11:46:46.134Z</time>
</trkpt>
<trkpt lat="31.7939600" lon="34.9970600">
<ele>376.730011</ele>
<time>2022-09-02T11:46:46.134Z</time>
</trkpt>
<trkpt lat="31.7939900" lon="34.9970400">
<ele>376.559998</ele>
<time>2022-09-02T11:46:46.134Z</time>
</trkpt>
<trkpt lat="31.7940200" lon="34.9970200">
<ele>376.420013</ele>
<time>2022-09-02T11:46:46.134Z</time>
</trkpt>
<trkpt lat="31.7940600" lon="34.9970000">
<ele>376.279999</ele>
<time>2022-09-02T11:46:46.134Z</time>
</trkpt>
<trkpt lat="31.7940900" lon="34.9969700">
<ele>376.119995</ele>
<time>2022-09-02T11:46:46.134Z</time>
</trkpt>
<trkpt lat="31.7941200" lon="34.9969600">
<ele>376.070007</ele>
<time>2022-09-02T11:46:46.134Z</time>
</trkpt>
<trkpt lat="31.7941700" lon="34.9969200">
<ele>375.559998</ele>
<time>2022-09-02T11:46:46.134Z</time>
</trkpt>
<trkpt lat="31.7942200" lon="34.9969000">
<ele>375.260010</ele>
<time>2022-09-02T11:46:46.134Z</time>
</trkpt>
<trkpt lat="31.7942500" lon="34.9968800">
<ele>374.980011</ele>
<time>2022-09-02T11:46:46.134Z</time>
</trkpt>
<trkpt lat="31.7942900" lon="34.9968600">
<ele>374.750000</ele>
<time>2022-09-02T11:46:46.135Z</time>
</trkpt>
<trkpt lat="31.7943200" lon="34.9968400">
<ele>374.540009</ele>
<time>2022-09-02T11:46:46.135Z</time>
</trkpt>
<trkpt lat="31.7943500" lon="34.9968100">
<ele>374.219971</ele>
<time>2022-09-02T11:46:46.135Z</time>
</trkpt>
<trkpt lat="31.7943900" lon="34.9967900">
<ele>374.110016</ele>
<time>2022-09-02T11:46:46.135Z</time>
</trkpt>
<trkpt lat="31.7944100" lon="34.9967800">
<ele>374.080017</ele>
<time>2022-09-02T11:46:46.135Z</time>
</trkpt>
<trkpt lat="31.7944500" lon="34.9967500">
<ele>373.950012</ele>
<time>2022-09-02T11:46:46.135Z</time>
</trkpt>
<trkpt lat="31.7944900" lon="34.9967300">
<ele>374.139984</ele>
<time>2022-09-02T11:46:46.135Z</time>
</trkpt>
<trkpt lat="31.7945300" lon="34.9967100">
<ele>374.340027</ele>
<time>2022-09-02T11:46:46.135Z</time>
</trkpt>
<trkpt lat="31.7945600" lon="34.9966900">
<ele>374.470032</ele>
<time>2022-09-02T11:46:46.135Z</time>
</trkpt>
<trkpt lat="31.7946000" lon="34.9966800">
<ele>374.800018</ele>
<time>2022-09-02T11:46:46.135Z</time>
</trkpt>
<trkpt lat="31.7946400" lon="34.9966500">
<ele>375.179993</ele>
<time>2022-09-02T11:46:46.135Z</time>
</trkpt>
<trkpt lat="31.7946600" lon="34.9966400">
<ele>375.459991</ele>
<time>2022-09-02T11:46:46.135Z</time>
</trkpt>
<trkpt lat="31.7947100" lon="34.9966300">
<ele>376.109985</ele>
<time>2022-09-02T11:46:46.135Z</time>
</trkpt>
<trkpt lat="31.7947600" lon="34.9966100">
<ele>376.650024</ele>
<time>2022-09-02T11:46:46.135Z</time>
</trkpt>
<trkpt lat="31.7948100" lon="34.9966100">
<ele>376.980011</ele>
<time>2022-09-02T11:46:46.135Z</time>
</trkpt>
<trkpt lat="31.7948500" lon="34.9966100">
<ele>377.230011</ele>
<time>2022-09-02T11:46:46.135Z</time>
</trkpt>
<trkpt lat="31.7948900" lon="34.9966100">
<ele>377.489990</ele>
<time>2022-09-02T11:46:46.135Z</time>
</trkpt>
<trkpt lat="31.7949400" lon="34.9966200">
<ele>377.769989</ele>
<time>2022-09-02T11:46:46.135Z</time>
</trkpt>
<trkpt lat="31.7949900" lon="34.9966300">
<ele>378.059998</ele>
<time>2022-09-02T11:46:46.135Z</time>
</trkpt>
<trkpt lat="31.7950400" lon="34.9966500">
<ele>378.750031</ele>
<time>2022-09-02T11:46:46.135Z</time>
</trkpt>
<trkpt lat="31.7951000" lon="34.9967000">
<ele>379.439972</ele>
<time>2022-09-02T11:46:46.135Z</time>
</trkpt>
<trkpt lat="31.7951600" lon="34.9967300">
<ele>380.200012</ele>
<time>2022-09-02T11:46:46.135Z</time>
</trkpt>
<trkpt lat="31.7952100" lon="34.9967700">
<ele>380.660004</ele>
<time>2022-09-02T11:46:46.135Z</time>
</trkpt>
<trkpt lat="31.7953600" lon="34.9968600">
<ele>381.320007</ele>
<time>2022-09-02T11:46:46.135Z</time>
</trkpt>
<trkpt lat="31.7954400" lon="34.9969000">
<ele>381.459991</ele>
<time>2022-09-02T11:46:46.135Z</time>
</trkpt>
<trkpt lat="31.7955000" lon="34.9969500">
<ele>381.579987</ele>
<time>2022-09-02T11:46:46.135Z</time>
</trkpt>
<trkpt lat="31.7956400" lon="34.9970500">
<ele>380.779999</ele>
<time>2022-09-02T11:46:46.135Z</time>
</trkpt>
<trkpt lat="31.7957200" lon="34.9971000">
<ele>379.589996</ele>
<time>2022-09-02T11:46:46.135Z</time>
</trkpt>
<trkpt lat="31.7958000" lon="34.9971400">
<ele>378.299988</ele>
<time>2022-09-02T11:46:46.135Z</time>
</trkpt>
<trkpt lat="31.7959300" lon="34.9972100">
<ele>376.089996</ele>
<time>2022-09-02T11:46:46.135Z</time>
</trkpt>
<trkpt lat="31.7960700" lon="34.9972700">
<ele>374.269989</ele>
<time>2022-09-02T11:46:46.135Z</time>
</trkpt>
<trkpt lat="31.7962100" lon="34.9973400">
<ele>371.800018</ele>
<time>2022-09-02T11:46:46.136Z</time>
</trkpt>
<trkpt lat="31.7962800" lon="34.9973700">
<ele>370.429993</ele>
<time>2022-09-02T11:46:46.136Z</time>
</trkpt>
<trkpt lat="31.7964200" lon="34.9974300">
<ele>367.549988</ele>
<time>2022-09-02T11:46:46.136Z</time>
</trkpt>
<trkpt lat="31.7965600" lon="34.9974800">
<ele>364.329987</ele>
<time>2022-09-02T11:46:46.136Z</time>
</trkpt>
<trkpt lat="31.7967100" lon="34.9974800">
<ele>361.220001</ele>
<time>2022-09-02T11:46:46.136Z</time>
</trkpt>
<trkpt lat="31.7967900" lon="34.9974800">
<ele>359.779999</ele>
<time>2022-09-02T11:46:46.136Z</time>
</trkpt>
<trkpt lat="31.7969400" lon="34.9974700">
<ele>357.080017</ele>
<time>2022-09-02T11:46:46.136Z</time>
</trkpt>
<trkpt lat="31.7971000" lon="34.9974500">
<ele>354.099976</ele>
<time>2022-09-02T11:46:46.136Z</time>
</trkpt>
<trkpt lat="31.7972700" lon="34.9974200">
<ele>351.589996</ele>
<time>2022-09-02T11:46:46.136Z</time>
</trkpt>
<trkpt lat="31.7974500" lon="34.9973900">
<ele>351.109985</ele>
<time>2022-09-02T11:46:46.136Z</time>
</trkpt>
<trkpt lat="31.7975900" lon="34.9973000">
<ele>352.440002</ele>
<time>2022-09-02T11:46:46.136Z</time>
</trkpt>
<trkpt lat="31.7976600" lon="34.9972400">
<ele>353.809998</ele>
<time>2022-09-02T11:46:46.136Z</time>
</trkpt>
<trkpt lat="31.7977900" lon="34.9971400">
<ele>354.329987</ele>
<time>2022-09-02T11:46:46.136Z</time>
</trkpt>
<trkpt lat="31.7979100" lon="34.9970300">
<ele>351.659973</ele>
<time>2022-09-02T11:46:46.136Z</time>
</trkpt>
<trkpt lat="31.7980200" lon="34.9969200">
<ele>350.880005</ele>
<time>2022-09-02T11:46:46.136Z</time>
</trkpt>
<trkpt lat="31.7981000" lon="34.9968100">
<ele>350.750000</ele>
<time>2022-09-02T11:46:46.136Z</time>
</trkpt>
<trkpt lat="31.7981500" lon="34.9967500">
<ele>350.880005</ele>
<time>2022-09-02T11:46:46.136Z</time>
</trkpt>
<trkpt lat="31.7982200" lon="34.9966500">
<ele>350.979980</ele>
<time>2022-09-02T11:46:46.136Z</time>
</trkpt>
<trkpt lat="31.7983100" lon="34.9965500">
<ele>350.540009</ele>
<time>2022-09-02T11:46:46.136Z</time>
</trkpt>
<trkpt lat="31.7983500" lon="34.9965000">
<ele>350.179993</ele>
<time>2022-09-02T11:46:46.136Z</time>
</trkpt>
<trkpt lat="31.7984400" lon="34.9964000">
<ele>349.100006</ele>
<time>2022-09-02T11:46:46.136Z</time>
</trkpt>
<trkpt lat="31.7984900" lon="34.9963600">
<ele>348.709991</ele>
<time>2022-09-02T11:46:46.136Z</time>
</trkpt>
<trkpt lat="31.7985900" lon="34.9962700">
<ele>348.440002</ele>
<time>2022-09-02T11:46:46.136Z</time>
</trkpt>
<trkpt lat="31.7986800" lon="34.9961600">
<ele>348.180023</ele>
<time>2022-09-02T11:46:46.136Z</time>
</trkpt>
<trkpt lat="31.7987300" lon="34.9960900">
<ele>347.790009</ele>
<time>2022-09-02T11:46:46.136Z</time>
</trkpt>
<trkpt lat="31.7987800" lon="34.9960300">
<ele>347.360016</ele>
<time>2022-09-02T11:46:46.136Z</time>
</trkpt>
<trkpt lat="31.7988400" lon="34.9959700">
<ele>347.220001</ele>
<time>2022-09-02T11:46:46.136Z</time>
</trkpt>
<trkpt lat="31.7989600" lon="34.9958400">
<ele>347.010010</ele>
<time>2022-09-02T11:46:46.136Z</time>
</trkpt>
<trkpt lat="31.7990700" lon="34.9957100">
<ele>347.150024</ele>
<time>2022-09-02T11:46:46.136Z</time>
</trkpt>
<trkpt lat="31.7991300" lon="34.9956500">
<ele>347.089996</ele>
<time>2022-09-02T11:46:46.137Z</time>
</trkpt>
<trkpt lat="31.7991800" lon="34.9955800">
<ele>346.859985</ele>
<time>2022-09-02T11:46:46.137Z</time>
</trkpt>
<trkpt lat="31.7992700" lon="34.9954400">
<ele>345.929993</ele>
<time>2022-09-02T11:46:46.137Z</time>
</trkpt>
<trkpt lat="31.7993100" lon="34.9953800">
<ele>345.799988</ele>
<time>2022-09-02T11:46:46.137Z</time>
</trkpt>
<trkpt lat="31.7994000" lon="34.9952600">
<ele>345.910004</ele>
<time>2022-09-02T11:46:46.137Z</time>
</trkpt>
<trkpt lat="31.7994800" lon="34.9951300">
<ele>345.019989</ele>
<time>2022-09-02T11:46:46.137Z</time>
</trkpt>
<trkpt lat="31.7995200" lon="34.9950600">
<ele>344.339996</ele>
<time>2022-09-02T11:46:46.137Z</time>
</trkpt>
<trkpt lat="31.7996000" lon="34.9949500">
<ele>342.459991</ele>
<time>2022-09-02T11:46:46.137Z</time>
</trkpt>
<trkpt lat="31.7996400" lon="34.9949000">
<ele>341.380005</ele>
<time>2022-09-02T11:46:46.137Z</time>
</trkpt>
<trkpt lat="31.7997300" lon="34.9948000">
<ele>339.880005</ele>
<time>2022-09-02T11:46:46.137Z</time>
</trkpt>
<trkpt lat="31.7997700" lon="34.9947600">
<ele>339.600006</ele>
<time>2022-09-02T11:46:46.137Z</time>
</trkpt>
<trkpt lat="31.7998700" lon="34.9946800">
<ele>338.699982</ele>
<time>2022-09-02T11:46:46.137Z</time>
</trkpt>
<trkpt lat="31.7999800" lon="34.9946600">
<ele>338.790009</ele>
<time>2022-09-02T11:46:46.137Z</time>
</trkpt>
<trkpt lat="31.8000400" lon="34.9946400">
<ele>338.550018</ele>
<time>2022-09-02T11:46:46.137Z</time>
</trkpt>
<trkpt lat="31.8001500" lon="34.9946300">
<ele>338.519989</ele>
<time>2022-09-02T11:46:46.137Z</time>
</trkpt>
<trkpt lat="31.8002700" lon="34.9946300">
<ele>338.660004</ele>
<time>2022-09-02T11:46:46.137Z</time>
</trkpt>
<trkpt lat="31.8003300" lon="34.9946300">
<ele>338.169983</ele>
<time>2022-09-02T11:46:46.137Z</time>
</trkpt>
<trkpt lat="31.8003900" lon="34.9946400">
<ele>337.659973</ele>
<time>2022-09-02T11:46:46.137Z</time>
</trkpt>
<trkpt lat="31.8005000" lon="34.9946600">
<ele>336.820007</ele>
<time>2022-09-02T11:46:46.137Z</time>
</trkpt>
<trkpt lat="31.8005500" lon="34.9946700">
<ele>336.480011</ele>
<time>2022-09-02T11:46:46.137Z</time>
</trkpt>
<trkpt lat="31.8006100" lon="34.9946800">
<ele>336.940002</ele>
<time>2022-09-02T11:46:46.137Z</time>
</trkpt>
<trkpt lat="31.8007200" lon="34.9946800">
<ele>337.730011</ele>
<time>2022-09-02T11:46:46.137Z</time>
</trkpt>
<trkpt lat="31.8007700" lon="34.9946700">
<ele>337.980011</ele>
<time>2022-09-02T11:46:46.137Z</time>
</trkpt>
<trkpt lat="31.8008800" lon="34.9946300">
<ele>338.729980</ele>
<time>2022-09-02T11:46:46.137Z</time>
</trkpt>
<trkpt lat="31.8010000" lon="34.9945500">
<ele>339.910004</ele>
<time>2022-09-02T11:46:46.137Z</time>
</trkpt>
<trkpt lat="31.8011100" lon="34.9944600">
<ele>341.089996</ele>
<time>2022-09-02T11:46:46.137Z</time>
</trkpt>
<trkpt lat="31.8011500" lon="34.9944000">
<ele>341.299988</ele>
<time>2022-09-02T11:46:46.137Z</time>
</trkpt>
<trkpt lat="31.8011900" lon="34.9943500">
<ele>341.710022</ele>
<time>2022-09-02T11:46:46.137Z</time>
</trkpt>
<trkpt lat="31.8012500" lon="34.9942300">
<ele>342.500000</ele>
<time>2022-09-02T11:46:46.137Z</time>
</trkpt>
<trkpt lat="31.8013000" lon="34.9941100">
<ele>343.200012</ele>
<time>2022-09-02T11:46:46.137Z</time>
</trkpt>
<trkpt lat="31.8013300" lon="34.9940500">
<ele>343.520020</ele>
<time>2022-09-02T11:46:46.138Z</time>
</trkpt>
<trkpt lat="31.8013900" lon="34.9939400">
<ele>344.190002</ele>
<time>2022-09-02T11:46:46.138Z</time>
</trkpt>
<trkpt lat="31.8014100" lon="34.9939000">
<ele>344.110016</ele>
<time>2022-09-02T11:46:46.138Z</time>
</trkpt>
<trkpt lat="31.8014400" lon="34.9938500">
<ele>343.880005</ele>
<time>2022-09-02T11:46:46.138Z</time>
</trkpt>
<trkpt lat="31.8015000" lon="34.9937700">
<ele>343.369995</ele>
<time>2022-09-02T11:46:46.138Z</time>
</trkpt>
<trkpt lat="31.8015500" lon="34.9937000">
<ele>342.830017</ele>
<time>2022-09-02T11:46:46.138Z</time>
</trkpt>
<trkpt lat="31.8015700" lon="34.9936600">
<ele>342.470001</ele>
<time>2022-09-02T11:46:46.138Z</time>
</trkpt>
<trkpt lat="31.8015900" lon="34.9936200">
<ele>342.089996</ele>
<time>2022-09-02T11:46:46.138Z</time>
</trkpt>
<trkpt lat="31.8016600" lon="34.9935700">
<ele>341.829987</ele>
<time>2022-09-02T11:46:46.138Z</time>
</trkpt>
<trkpt lat="31.8017000" lon="34.9935500">
<ele>341.890015</ele>
<time>2022-09-02T11:46:46.138Z</time>
</trkpt>
<trkpt lat="31.8017500" lon="34.9935300">
<ele>341.869995</ele>
<time>2022-09-02T11:46:46.138Z</time>
</trkpt>
<trkpt lat="31.8017900" lon="34.9935300">
<ele>341.949982</ele>
<time>2022-09-02T11:46:46.138Z</time>
</trkpt>
<trkpt lat="31.8018500" lon="34.9935000">
<ele>341.599976</ele>
<time>2022-09-02T11:46:46.138Z</time>
</trkpt>
<trkpt lat="31.8019600" lon="34.9934100">
<ele>339.459991</ele>
<time>2022-09-02T11:46:46.138Z</time>
</trkpt>
<trkpt lat="31.8020600" lon="34.9933500">
<ele>337.059998</ele>
<time>2022-09-02T11:46:46.138Z</time>
</trkpt>
<trkpt lat="31.8021600" lon="34.9932900">
<ele>335.170013</ele>
<time>2022-09-02T11:46:46.138Z</time>
</trkpt>
<trkpt lat="31.8022600" lon="34.9932500">
<ele>333.869995</ele>
<time>2022-09-02T11:46:46.138Z</time>
</trkpt>
<trkpt lat="31.8023100" lon="34.9932200">
<ele>333.269989</ele>
<time>2022-09-02T11:46:46.138Z</time>
</trkpt>
<trkpt lat="31.8023600" lon="34.9932000">
<ele>332.809998</ele>
<time>2022-09-02T11:46:46.138Z</time>
</trkpt>
<trkpt lat="31.8024100" lon="34.9931800">
<ele>332.369995</ele>
<time>2022-09-02T11:46:46.138Z</time>
</trkpt>
<trkpt lat="31.8025100" lon="34.9931400">
<ele>331.660004</ele>
<time>2022-09-02T11:46:46.138Z</time>
</trkpt>
<trkpt lat="31.8025700" lon="34.9931100">
<ele>331.799988</ele>
<time>2022-09-02T11:46:46.138Z</time>
</trkpt>
<trkpt lat="31.8026200" lon="34.9930900">
<ele>332.000000</ele>
<time>2022-09-02T11:46:46.138Z</time>
</trkpt>
<trkpt lat="31.8027200" lon="34.9930300">
<ele>332.640015</ele>
<time>2022-09-02T11:46:46.138Z</time>
</trkpt>
<trkpt lat="31.8028200" lon="34.9929700">
<ele>334.010010</ele>
<time>2022-09-02T11:46:46.138Z</time>
</trkpt>
<trkpt lat="31.8028700" lon="34.9929400">
<ele>335.019989</ele>
<time>2022-09-02T11:46:46.138Z</time>
</trkpt>
<trkpt lat="31.8029600" lon="34.9928600">
<ele>337.250000</ele>
<time>2022-09-02T11:46:46.138Z</time>
</trkpt>
<trkpt lat="31.8030000" lon="34.9928200">
<ele>338.399994</ele>
<time>2022-09-02T11:46:46.138Z</time>
</trkpt>
<trkpt lat="31.8030800" lon="34.9927300">
<ele>341.169983</ele>
<time>2022-09-02T11:46:46.138Z</time>
</trkpt>
<trkpt lat="31.8031200" lon="34.9926800">
<ele>342.440002</ele>
<time>2022-09-02T11:46:46.138Z</time>
</trkpt>
<trkpt lat="31.8031800" lon="34.9925900">
<ele>344.259979</ele>
<time>2022-09-02T11:46:46.139Z</time>
</trkpt>
<trkpt lat="31.8032100" lon="34.9925300">
<ele>345.199982</ele>
<time>2022-09-02T11:46:46.139Z</time>
</trkpt>
<trkpt lat="31.8032700" lon="34.9924300">
<ele>344.649994</ele>
<time>2022-09-02T11:46:46.139Z</time>
</trkpt>
<trkpt lat="31.8033200" lon="34.9923300">
<ele>343.449982</ele>
<time>2022-09-02T11:46:46.139Z</time>
</trkpt>
<trkpt lat="31.8033500" lon="34.9922700">
<ele>342.970001</ele>
<time>2022-09-02T11:46:46.139Z</time>
</trkpt>
<trkpt lat="31.8033800" lon="34.9922100">
<ele>342.690002</ele>
<time>2022-09-02T11:46:46.139Z</time>
</trkpt>
<trkpt lat="31.8034100" lon="34.9921600">
<ele>342.579987</ele>
<time>2022-09-02T11:46:46.139Z</time>
</trkpt>
<trkpt lat="31.8034700" lon="34.9920500">
<ele>341.989990</ele>
<time>2022-09-02T11:46:46.139Z</time>
</trkpt>
<trkpt lat="31.8035300" lon="34.9919500">
<ele>341.209991</ele>
<time>2022-09-02T11:46:46.139Z</time>
</trkpt>
<trkpt lat="31.8035600" lon="34.9918900">
<ele>340.699982</ele>
<time>2022-09-02T11:46:46.139Z</time>
</trkpt>
<trkpt lat="31.8036200" lon="34.9917700">
<ele>339.480011</ele>
<time>2022-09-02T11:46:46.139Z</time>
</trkpt>
<trkpt lat="31.8036500" lon="34.9917100">
<ele>338.529999</ele>
<time>2022-09-02T11:46:46.139Z</time>
</trkpt>
<trkpt lat="31.8037300" lon="34.9916100">
<ele>336.960022</ele>
<time>2022-09-02T11:46:46.139Z</time>
</trkpt>
<trkpt lat="31.8037700" lon="34.9915800">
<ele>336.490021</ele>
<time>2022-09-02T11:46:46.139Z</time>
</trkpt>
<trkpt lat="31.8037700" lon="34.9915800">
<ele>336.490021</ele>
<time>2022-09-02T11:46:46.139Z</time>
</trkpt>
<trkpt lat="31.8037600" lon="34.9915700">
<ele>336.419983</ele>
<time>2022-09-02T11:46:46.139Z</time>
</trkpt>
<trkpt lat="31.8037700" lon="34.9915600">
<ele>336.279999</ele>
<time>2022-09-02T11:46:46.139Z</time>
</trkpt>
<trkpt lat="31.8039100" lon="34.9915300">
<ele>335.070007</ele>
<time>2022-09-02T11:46:46.139Z</time>
</trkpt>
<trkpt lat="31.8037800" lon="34.9914700">
<ele>335.269989</ele>
<time>2022-09-02T11:46:46.139Z</time>
</trkpt>
<trkpt lat="31.8036600" lon="34.9913400">
<ele>334.820007</ele>
<time>2022-09-02T11:46:46.139Z</time>
</trkpt>
<trkpt lat="31.8036400" lon="34.9912900">
<ele>334.899994</ele>
<time>2022-09-02T11:46:46.139Z</time>
</trkpt>
<trkpt lat="31.8036400" lon="34.9912900">
<ele>334.899994</ele>
<time>2022-09-02T11:46:46.139Z</time>
</trkpt>
<trkpt lat="31.8036000" lon="34.9911900">
<ele>334.919983</ele>
<time>2022-09-02T11:46:46.139Z</time>
</trkpt>
<trkpt lat="31.8035900" lon="34.9910700">
<ele>334.850006</ele>
<time>2022-09-02T11:46:46.139Z</time>
</trkpt>
<trkpt lat="31.8035900" lon="34.9909400">
<ele>334.850006</ele>
<time>2022-09-02T11:46:46.139Z</time>
</trkpt>
<trkpt lat="31.8036500" lon="34.9905600">
<ele>333.739990</ele>
<time>2022-09-02T11:46:46.139Z</time>
</trkpt>
<trkpt lat="31.8037900" lon="34.9900800">
<ele>329.679993</ele>
<time>2022-09-02T11:46:46.139Z</time>
</trkpt>
<trkpt lat="31.8040300" lon="34.9894600">
<ele>331.899994</ele>
<time>2022-09-02T11:46:46.140Z</time>
</trkpt>
<trkpt lat="31.8043500" lon="34.9888000">
<ele>331.910004</ele>
<time>2022-09-02T11:46:46.140Z</time>
</trkpt>
<trkpt lat="31.8045800" lon="34.9884200">
<ele>331.769989</ele>
<time>2022-09-02T11:46:46.140Z</time>
</trkpt>
<trkpt lat="31.8046300" lon="34.9882600">
<ele>331.660004</ele>
<time>2022-09-02T11:46:46.140Z</time>
</trkpt>
<trkpt lat="31.8046600" lon="34.9880900">
<ele>331.409973</ele>
<time>2022-09-02T11:46:46.140Z</time>
</trkpt>
<trkpt lat="31.8046500" lon="34.9879200">
<ele>330.910004</ele>
<time>2022-09-02T11:46:46.140Z</time>
</trkpt>
<trkpt lat="31.8045800" lon="34.9870800">
<ele>327.250031</ele>
<time>2022-09-02T11:46:46.140Z</time>
</trkpt>
<trkpt lat="31.8045700" lon="34.9868400">
<ele>325.849976</ele>
<time>2022-09-02T11:46:46.140Z</time>
</trkpt>
<trkpt lat="31.8045700" lon="34.9866100">
<ele>325.540009</ele>
<time>2022-09-02T11:46:46.140Z</time>
</trkpt>
<trkpt lat="31.8045600" lon="34.9865000">
<ele>325.669983</ele>
<time>2022-09-02T11:46:46.140Z</time>
</trkpt>
<trkpt lat="31.8045700" lon="34.9865000">
<ele>325.720001</ele>
<time>2022-09-02T11:46:46.140Z</time>
</trkpt>
<trkpt lat="31.8045700" lon="34.9865000">
<ele>325.720001</ele>
<time>2022-09-02T11:46:46.140Z</time>
</trkpt>
<trkpt lat="31.8045500" lon="34.9864400">
<ele>325.690002</ele>
<time>2022-09-02T11:46:46.140Z</time>
</trkpt>
<trkpt lat="31.8045200" lon="34.9863800">
<ele>325.519989</ele>
<time>2022-09-02T11:46:46.140Z</time>
</trkpt>
<trkpt lat="31.8044800" lon="34.9863300">
<ele>325.070007</ele>
<time>2022-09-02T11:46:46.140Z</time>
</trkpt>
<trkpt lat="31.8044300" lon="34.9863000">
<ele>324.519989</ele>
<time>2022-09-02T11:46:46.140Z</time>
</trkpt>
<trkpt lat="31.8043400" lon="34.9862800">
<ele>323.480011</ele>
<time>2022-09-02T11:46:46.140Z</time>
</trkpt>
<trkpt lat="31.8042900" lon="34.9862800">
<ele>322.940002</ele>
<time>2022-09-02T11:46:46.140Z</time>
</trkpt>
<trkpt lat="31.8041900" lon="34.9862900">
<ele>321.900024</ele>
<time>2022-09-02T11:46:46.140Z</time>
</trkpt>
<trkpt lat="31.8041500" lon="34.9863100">
<ele>321.519989</ele>
<time>2022-09-02T11:46:46.140Z</time>
</trkpt>
<trkpt lat="31.8040800" lon="34.9864100">
<ele>321.190002</ele>
<time>2022-09-02T11:46:46.140Z</time>
</trkpt>
<trkpt lat="31.8040400" lon="34.9865300">
<ele>321.420013</ele>
<time>2022-09-02T11:46:46.140Z</time>
</trkpt>
<trkpt lat="31.8040100" lon="34.9866100">
<ele>321.450012</ele>
<time>2022-09-02T11:46:46.140Z</time>
</trkpt>
<trkpt lat="31.8039900" lon="34.9866700">
<ele>321.459991</ele>
<time>2022-09-02T11:46:46.140Z</time>
</trkpt>
<trkpt lat="31.8039300" lon="34.9868400">
<ele>320.779999</ele>
<time>2022-09-02T11:46:46.140Z</time>
</trkpt>
<trkpt lat="31.8038500" lon="34.9869700">
<ele>319.470001</ele>
<time>2022-09-02T11:46:46.140Z</time>
</trkpt>
<trkpt lat="31.8037300" lon="34.9870800">
<ele>318.269989</ele>
<time>2022-09-02T11:46:46.140Z</time>
</trkpt>
<trkpt lat="31.8036800" lon="34.9871400">
<ele>318.049988</ele>
<time>2022-09-02T11:46:46.140Z</time>
</trkpt>
<trkpt lat="31.8035800" lon="34.9872600">
<ele>317.620026</ele>
<time>2022-09-02T11:46:46.140Z</time>
</trkpt>
<trkpt lat="31.8034900" lon="34.9873800">
<ele>316.769989</ele>
<time>2022-09-02T11:46:46.140Z</time>
</trkpt>
<trkpt lat="31.8034500" lon="34.9874400">
<ele>316.540009</ele>
<time>2022-09-02T11:46:46.140Z</time>
</trkpt>
<trkpt lat="31.8034000" lon="34.9875000">
<ele>316.200012</ele>
<time>2022-09-02T11:46:46.140Z</time>
</trkpt>
<trkpt lat="31.8033000" lon="34.9875900">
<ele>315.410004</ele>
<time>2022-09-02T11:46:46.141Z</time>
</trkpt>
<trkpt lat="31.8032500" lon="34.9876300">
<ele>314.750031</ele>
<time>2022-09-02T11:46:46.141Z</time>
</trkpt>
<trkpt lat="31.8031300" lon="34.9877000">
<ele>313.080017</ele>
<time>2022-09-02T11:46:46.141Z</time>
</trkpt>
<trkpt lat="31.8030100" lon="34.9877200">
<ele>310.350006</ele>
<time>2022-09-02T11:46:46.141Z</time>
</trkpt>
<trkpt lat="31.8029400" lon="34.9877300">
<ele>308.309998</ele>
<time>2022-09-02T11:46:46.141Z</time>
</trkpt>
<trkpt lat="31.8028700" lon="34.9877400">
<ele>306.139984</ele>
<time>2022-09-02T11:46:46.141Z</time>
</trkpt>
<trkpt lat="31.8027400" lon="34.9877400">
<ele>302.829987</ele>
<time>2022-09-02T11:46:46.141Z</time>
</trkpt>
<trkpt lat="31.8026100" lon="34.9877500">
<ele>301.770020</ele>
<time>2022-09-02T11:46:46.141Z</time>
</trkpt>
<trkpt lat="31.8025100" lon="34.9877600">
<ele>301.010010</ele>
<time>2022-09-02T11:46:46.141Z</time>
</trkpt>
<trkpt lat="31.8024600" lon="34.9877600">
<ele>300.760010</ele>
<time>2022-09-02T11:46:46.141Z</time>
</trkpt>
<trkpt lat="31.8023900" lon="34.9877800">
<ele>300.679993</ele>
<time>2022-09-02T11:46:46.141Z</time>
</trkpt>
<trkpt lat="31.8023600" lon="34.9877900">
<ele>300.869995</ele>
<time>2022-09-02T11:46:46.141Z</time>
</trkpt>
<trkpt lat="31.8023300" lon="34.9878100">
<ele>301.309998</ele>
<time>2022-09-02T11:46:46.141Z</time>
</trkpt>
<trkpt lat="31.8022700" lon="34.9878700">
<ele>302.450012</ele>
<time>2022-09-02T11:46:46.141Z</time>
</trkpt>
<trkpt lat="31.8022000" lon="34.9879700">
<ele>303.750000</ele>
<time>2022-09-02T11:46:46.141Z</time>
</trkpt>
<trkpt lat="31.8021400" lon="34.9880900">
<ele>305.020020</ele>
<time>2022-09-02T11:46:46.141Z</time>
</trkpt>
<trkpt lat="31.8021100" lon="34.9881600">
<ele>305.899994</ele>
<time>2022-09-02T11:46:46.141Z</time>
</trkpt>
<trkpt lat="31.8020800" lon="34.9882300">
<ele>306.679993</ele>
<time>2022-09-02T11:46:46.141Z</time>
</trkpt>
<trkpt lat="31.8020200" lon="34.9883400">
<ele>307.359985</ele>
<time>2022-09-02T11:46:46.141Z</time>
</trkpt>
<trkpt lat="31.8019800" lon="34.9883900">
<ele>307.500000</ele>
<time>2022-09-02T11:46:46.141Z</time>
</trkpt>
<trkpt lat="31.8019300" lon="34.9884000">
<ele>306.649994</ele>
<time>2022-09-02T11:46:46.141Z</time>
</trkpt>
<trkpt lat="31.8018400" lon="34.9884100">
<ele>306.759979</ele>
<time>2022-09-02T11:46:46.141Z</time>
</trkpt>
<trkpt lat="31.8017900" lon="34.9884100">
<ele>306.679993</ele>
<time>2022-09-02T11:46:46.141Z</time>
</trkpt>
<trkpt lat="31.8016800" lon="34.9883500">
<ele>304.579987</ele>
<time>2022-09-02T11:46:46.141Z</time>
</trkpt>
<trkpt lat="31.8015700" lon="34.9882400">
<ele>303.339996</ele>
<time>2022-09-02T11:46:46.141Z</time>
</trkpt>
<trkpt lat="31.8015100" lon="34.9881900">
<ele>303.019989</ele>
<time>2022-09-02T11:46:46.141Z</time>
</trkpt>
<trkpt lat="31.8014500" lon="34.9881300">
<ele>302.580017</ele>
<time>2022-09-02T11:46:46.141Z</time>
</trkpt>
<trkpt lat="31.8013300" lon="34.9880200">
<ele>301.309998</ele>
<time>2022-09-02T11:46:46.141Z</time>
</trkpt>
<trkpt lat="31.8012100" lon="34.9879100">
<ele>299.390015</ele>
<time>2022-09-02T11:46:46.141Z</time>
</trkpt>
<trkpt lat="31.8011400" lon="34.9878600">
<ele>298.049988</ele>
<time>2022-09-02T11:46:46.141Z</time>
</trkpt>
<trkpt lat="31.8010300" lon="34.9877800">
<ele>295.269989</ele>
<time>2022-09-02T11:46:46.142Z</time>
</trkpt>
<trkpt lat="31.8009700" lon="34.9877500">
<ele>293.449982</ele>
<time>2022-09-02T11:46:46.142Z</time>
</trkpt>
<trkpt lat="31.8009200" lon="34.9877300">
<ele>292.010010</ele>
<time>2022-09-02T11:46:46.142Z</time>
</trkpt>
<trkpt lat="31.8008100" lon="34.9877000">
<ele>289.880005</ele>
<time>2022-09-02T11:46:46.142Z</time>
</trkpt>
<trkpt lat="31.8006900" lon="34.9876900">
<ele>291.130005</ele>
<time>2022-09-02T11:46:46.142Z</time>
</trkpt>
<trkpt lat="31.8006300" lon="34.9876900">
<ele>291.850006</ele>
<time>2022-09-02T11:46:46.142Z</time>
</trkpt>
<trkpt lat="31.8005000" lon="34.9877000">
<ele>290.790009</ele>
<time>2022-09-02T11:46:46.142Z</time>
</trkpt>
<trkpt lat="31.8003800" lon="34.9877300">
<ele>286.579987</ele>
<time>2022-09-02T11:46:46.142Z</time>
</trkpt>
<trkpt lat="31.8002600" lon="34.9878000">
<ele>283.179993</ele>
<time>2022-09-02T11:46:46.142Z</time>
</trkpt>
<trkpt lat="31.8002000" lon="34.9878500">
<ele>283.329987</ele>
<time>2022-09-02T11:46:46.142Z</time>
</trkpt>
<trkpt lat="31.8001400" lon="34.9879100">
<ele>283.440002</ele>
<time>2022-09-02T11:46:46.142Z</time>
</trkpt>
<trkpt lat="31.8000700" lon="34.9879500">
<ele>283.059998</ele>
<time>2022-09-02T11:46:46.142Z</time>
</trkpt>
<trkpt lat="31.7999400" lon="34.9880300">
<ele>281.950012</ele>
<time>2022-09-02T11:46:46.142Z</time>
</trkpt>
<trkpt lat="31.7998700" lon="34.9880800">
<ele>281.359985</ele>
<time>2022-09-02T11:46:46.142Z</time>
</trkpt>
<trkpt lat="31.7997300" lon="34.9881600">
<ele>279.160004</ele>
<time>2022-09-02T11:46:46.142Z</time>
</trkpt>
<trkpt lat="31.7996700" lon="34.9882000">
<ele>278.529999</ele>
<time>2022-09-02T11:46:46.142Z</time>
</trkpt>
<trkpt lat="31.7995500" lon="34.9883000">
<ele>277.690002</ele>
<time>2022-09-02T11:46:46.142Z</time>
</trkpt>
<trkpt lat="31.7994900" lon="34.9883600">
<ele>277.760010</ele>
<time>2022-09-02T11:46:46.142Z</time>
</trkpt>
<trkpt lat="31.7994000" lon="34.9884800">
<ele>278.209991</ele>
<time>2022-09-02T11:46:46.142Z</time>
</trkpt>
<trkpt lat="31.7993500" lon="34.9885500">
<ele>277.769989</ele>
<time>2022-09-02T11:46:46.142Z</time>
</trkpt>
<trkpt lat="31.7992800" lon="34.9886800">
<ele>277.359985</ele>
<time>2022-09-02T11:46:46.142Z</time>
</trkpt>
<trkpt lat="31.7992500" lon="34.9887400">
<ele>277.399994</ele>
<time>2022-09-02T11:46:46.142Z</time>
</trkpt>
<trkpt lat="31.7992000" lon="34.9888700">
<ele>277.799988</ele>
<time>2022-09-02T11:46:46.142Z</time>
</trkpt>
<trkpt lat="31.7991700" lon="34.9889300">
<ele>277.700012</ele>
<time>2022-09-02T11:46:46.142Z</time>
</trkpt>
<trkpt lat="31.7991400" lon="34.9889900">
<ele>278.040009</ele>
<time>2022-09-02T11:46:46.142Z</time>
</trkpt>
<trkpt lat="31.7991100" lon="34.9890500">
<ele>278.390015</ele>
<time>2022-09-02T11:46:46.142Z</time>
</trkpt>
<trkpt lat="31.7990800" lon="34.9891000">
<ele>278.549988</ele>
<time>2022-09-02T11:46:46.142Z</time>
</trkpt>
<trkpt lat="31.7990000" lon="34.9891500">
<ele>277.799988</ele>
<time>2022-09-02T11:46:46.142Z</time>
</trkpt>
<trkpt lat="31.7989100" lon="34.9891500">
<ele>276.199982</ele>
<time>2022-09-02T11:46:46.142Z</time>
</trkpt>
<trkpt lat="31.7988600" lon="34.9891500">
<ele>275.709991</ele>
<time>2022-09-02T11:46:46.142Z</time>
</trkpt>
<trkpt lat="31.7987500" lon="34.9891400">
<ele>275.160004</ele>
<time>2022-09-02T11:46:46.143Z</time>
</trkpt>
<trkpt lat="31.7986700" lon="34.9890600">
<ele>273.760010</ele>
<time>2022-09-02T11:46:46.143Z</time>
</trkpt>
<trkpt lat="31.7986100" lon="34.9889400">
<ele>271.750000</ele>
<time>2022-09-02T11:46:46.143Z</time>
</trkpt>
<trkpt lat="31.7985800" lon="34.9888700">
<ele>271.359985</ele>
<time>2022-09-02T11:46:46.143Z</time>
</trkpt>
<trkpt lat="31.7985600" lon="34.9887300">
<ele>270.949982</ele>
<time>2022-09-02T11:46:46.143Z</time>
</trkpt>
<trkpt lat="31.7985500" lon="34.9886500">
<ele>270.640015</ele>
<time>2022-09-02T11:46:46.143Z</time>
</trkpt>
<trkpt lat="31.7985500" lon="34.9885000">
<ele>270.660004</ele>
<time>2022-09-02T11:46:46.143Z</time>
</trkpt>
<trkpt lat="31.7985700" lon="34.9883400">
<ele>270.980011</ele>
<time>2022-09-02T11:46:46.143Z</time>
</trkpt>
<trkpt lat="31.7986300" lon="34.9882400">
<ele>270.240021</ele>
<time>2022-09-02T11:46:46.143Z</time>
</trkpt>
<trkpt lat="31.7987000" lon="34.9881800">
<ele>269.399994</ele>
<time>2022-09-02T11:46:46.143Z</time>
</trkpt>
<trkpt lat="31.7987500" lon="34.9881200">
<ele>268.579987</ele>
<time>2022-09-02T11:46:46.143Z</time>
</trkpt>
<trkpt lat="31.7987700" lon="34.9880800">
<ele>268.080017</ele>
<time>2022-09-02T11:46:46.143Z</time>
</trkpt>
<trkpt lat="31.7988200" lon="34.9879800">
<ele>267.160004</ele>
<time>2022-09-02T11:46:46.143Z</time>
</trkpt>
<trkpt lat="31.7988600" lon="34.9878600">
<ele>266.429993</ele>
<time>2022-09-02T11:46:46.143Z</time>
</trkpt>
<trkpt lat="31.7988900" lon="34.9878000">
<ele>266.089996</ele>
<time>2022-09-02T11:46:46.143Z</time>
</trkpt>
<trkpt lat="31.7989300" lon="34.9876700">
<ele>264.740021</ele>
<time>2022-09-02T11:46:46.143Z</time>
</trkpt>
<trkpt lat="31.7989800" lon="34.9875400">
<ele>263.230011</ele>
<time>2022-09-02T11:46:46.143Z</time>
</trkpt>
<trkpt lat="31.7990300" lon="34.9874200">
<ele>262.279999</ele>
<time>2022-09-02T11:46:46.143Z</time>
</trkpt>
<trkpt lat="31.7990700" lon="34.9873000">
<ele>260.959991</ele>
<time>2022-09-02T11:46:46.143Z</time>
</trkpt>
<trkpt lat="31.7991200" lon="34.9872000">
<ele>259.479980</ele>
<time>2022-09-02T11:46:46.143Z</time>
</trkpt>
<trkpt lat="31.7991400" lon="34.9871500">
<ele>259.130005</ele>
<time>2022-09-02T11:46:46.143Z</time>
</trkpt>
<trkpt lat="31.7991900" lon="34.9870300">
<ele>258.279999</ele>
<time>2022-09-02T11:46:46.143Z</time>
</trkpt>
<trkpt lat="31.7992500" lon="34.9869200">
<ele>257.639984</ele>
<time>2022-09-02T11:46:46.143Z</time>
</trkpt>
<trkpt lat="31.7993000" lon="34.9868000">
<ele>257.250000</ele>
<time>2022-09-02T11:46:46.143Z</time>
</trkpt>
<trkpt lat="31.7993300" lon="34.9867400">
<ele>257.109985</ele>
<time>2022-09-02T11:46:46.143Z</time>
</trkpt>
<trkpt lat="31.7993600" lon="34.9866900">
<ele>257.029999</ele>
<time>2022-09-02T11:46:46.143Z</time>
</trkpt>
<trkpt lat="31.7994000" lon="34.9866200">
<ele>257.169983</ele>
<time>2022-09-02T11:46:46.143Z</time>
</trkpt>
<trkpt lat="31.7994300" lon="34.9865700">
<ele>257.350006</ele>
<time>2022-09-02T11:46:46.143Z</time>
</trkpt>
<trkpt lat="31.7995100" lon="34.9864600">
<ele>256.390015</ele>
<time>2022-09-02T11:46:46.143Z</time>
</trkpt>
<trkpt lat="31.7995500" lon="34.9864000">
<ele>255.380005</ele>
<time>2022-09-02T11:46:46.143Z</time>
</trkpt>
<trkpt lat="31.7996400" lon="34.9862900">
<ele>252.320007</ele>
<time>2022-09-02T11:46:46.143Z</time>
</trkpt>
<trkpt lat="31.7997400" lon="34.9861700">
<ele>248.649994</ele>
<time>2022-09-02T11:46:46.144Z</time>
</trkpt>
<trkpt lat="31.7998400" lon="34.9860400">
<ele>247.740005</ele>
<time>2022-09-02T11:46:46.144Z</time>
</trkpt>
<trkpt lat="31.7998900" lon="34.9859600">
<ele>247.460007</ele>
<time>2022-09-02T11:46:46.144Z</time>
</trkpt>
<trkpt lat="31.7999400" lon="34.9858800">
<ele>247.169998</ele>
<time>2022-09-02T11:46:46.144Z</time>
</trkpt>
<trkpt lat="31.8000300" lon="34.9857000">
<ele>248.179993</ele>
<time>2022-09-02T11:46:46.144Z</time>
</trkpt>
<trkpt lat="31.8001200" lon="34.9855000">
<ele>249.050003</ele>
<time>2022-09-02T11:46:46.144Z</time>
</trkpt>
<trkpt lat="31.8001700" lon="34.9854200">
<ele>248.779999</ele>
<time>2022-09-02T11:46:46.144Z</time>
</trkpt>
<trkpt lat="31.8002200" lon="34.9853200">
<ele>248.009995</ele>
<time>2022-09-02T11:46:46.144Z</time>
</trkpt>
<trkpt lat="31.8002500" lon="34.9852300">
<ele>247.160004</ele>
<time>2022-09-02T11:46:46.144Z</time>
</trkpt>
<trkpt lat="31.8003100" lon="34.9850200">
<ele>246.880005</ele>
<time>2022-09-02T11:46:46.144Z</time>
</trkpt>
<trkpt lat="31.8003400" lon="34.9849200">
<ele>246.800003</ele>
<time>2022-09-02T11:46:46.144Z</time>
</trkpt>
<trkpt lat="31.8004000" lon="34.9847400">
<ele>245.969986</ele>
<time>2022-09-02T11:46:46.144Z</time>
</trkpt>
<trkpt lat="31.8004300" lon="34.9846500">
<ele>245.909988</ele>
<time>2022-09-02T11:46:46.144Z</time>
</trkpt>
<trkpt lat="31.8004800" lon="34.9844700">
<ele>245.589996</ele>
<time>2022-09-02T11:46:46.144Z</time>
</trkpt>
<trkpt lat="31.8005300" lon="34.9842700">
<ele>246.099991</ele>
<time>2022-09-02T11:46:46.144Z</time>
</trkpt>
<trkpt lat="31.8005500" lon="34.9841900">
<ele>246.050003</ele>
<time>2022-09-02T11:46:46.144Z</time>
</trkpt>
<trkpt lat="31.8005700" lon="34.9841000">
<ele>246.240005</ele>
<time>2022-09-02T11:46:46.144Z</time>
</trkpt>
<trkpt lat="31.8006000" lon="34.9838900">
<ele>246.130005</ele>
<time>2022-09-02T11:46:46.144Z</time>
</trkpt>
<trkpt lat="31.8006200" lon="34.9836800">
<ele>248.009995</ele>
<time>2022-09-02T11:46:46.144Z</time>
</trkpt>
<trkpt lat="31.8006400" lon="34.9836000">
<ele>248.600006</ele>
<time>2022-09-02T11:46:46.144Z</time>
</trkpt>
<trkpt lat="31.8006500" lon="34.9833900">
<ele>248.389999</ele>
<time>2022-09-02T11:46:46.144Z</time>
</trkpt>
<trkpt lat="31.8006500" lon="34.9833000">
<ele>248.119995</ele>
<time>2022-09-02T11:46:46.144Z</time>
</trkpt>
<trkpt lat="31.8006500" lon="34.9832000">
<ele>247.510010</ele>
<time>2022-09-02T11:46:46.144Z</time>
</trkpt>
<trkpt lat="31.8006600" lon="34.9831100">
<ele>246.839996</ele>
<time>2022-09-02T11:46:46.144Z</time>
</trkpt>
<trkpt lat="31.8006600" lon="34.9829200">
<ele>244.910004</ele>
<time>2022-09-02T11:46:46.144Z</time>
</trkpt>
<trkpt lat="31.8006600" lon="34.9828300">
<ele>243.860001</ele>
<time>2022-09-02T11:46:46.144Z</time>
</trkpt>
<trkpt lat="31.8006600" lon="34.9826500">
<ele>241.929993</ele>
<time>2022-09-02T11:46:46.144Z</time>
</trkpt>
<trkpt lat="31.8006700" lon="34.9825700">
<ele>241.110016</ele>
<time>2022-09-02T11:46:46.144Z</time>
</trkpt>
<trkpt lat="31.8006700" lon="34.9824800">
<ele>240.440002</ele>
<time>2022-09-02T11:46:46.144Z</time>
</trkpt>
<trkpt lat="31.8006700" lon="34.9823200">
<ele>240.680008</ele>
<time>2022-09-02T11:46:46.144Z</time>
</trkpt>
<trkpt lat="31.8006800" lon="34.9822300">
<ele>240.879990</ele>
<time>2022-09-02T11:46:46.145Z</time>
</trkpt>
<trkpt lat="31.8006800" lon="34.9821500">
<ele>240.550003</ele>
<time>2022-09-02T11:46:46.145Z</time>
</trkpt>
<trkpt lat="31.8006900" lon="34.9819900">
<ele>239.750000</ele>
<time>2022-09-02T11:46:46.145Z</time>
</trkpt>
<trkpt lat="31.8006900" lon="34.9819100">
<ele>239.580002</ele>
<time>2022-09-02T11:46:46.145Z</time>
</trkpt>
<trkpt lat="31.8006800" lon="34.9818400">
<ele>239.760010</ele>
<time>2022-09-02T11:46:46.145Z</time>
</trkpt>
<trkpt lat="31.8006700" lon="34.9816600">
<ele>240.120010</ele>
<time>2022-09-02T11:46:46.145Z</time>
</trkpt>
<trkpt lat="31.8006000" lon="34.9814800">
<ele>239.229996</ele>
<time>2022-09-02T11:46:46.145Z</time>
</trkpt>
<trkpt lat="31.8005500" lon="34.9814000">
<ele>239.099991</ele>
<time>2022-09-02T11:46:46.145Z</time>
</trkpt>
<trkpt lat="31.8004600" lon="34.9812400">
<ele>238.809998</ele>
<time>2022-09-02T11:46:46.145Z</time>
</trkpt>
<trkpt lat="31.8004100" lon="34.9811600">
<ele>238.699997</ele>
<time>2022-09-02T11:46:46.145Z</time>
</trkpt>
<trkpt lat="31.8003700" lon="34.9810800">
<ele>238.779999</ele>
<time>2022-09-02T11:46:46.145Z</time>
</trkpt>
<trkpt lat="31.8003100" lon="34.9809300">
<ele>239.110001</ele>
<time>2022-09-02T11:46:46.145Z</time>
</trkpt>
<trkpt lat="31.8002600" lon="34.9807700">
<ele>239.229996</ele>
<time>2022-09-02T11:46:46.145Z</time>
</trkpt>
<trkpt lat="31.8002400" lon="34.9807000">
<ele>239.410004</ele>
<time>2022-09-02T11:46:46.145Z</time>
</trkpt>
<trkpt lat="31.8002100" lon="34.9806300">
<ele>239.619995</ele>
<time>2022-09-02T11:46:46.145Z</time>
</trkpt>
<trkpt lat="31.8001800" lon="34.9805600">
<ele>239.719986</ele>
<time>2022-09-02T11:46:46.145Z</time>
</trkpt>
<trkpt lat="31.8001200" lon="34.9804400">
<ele>239.839996</ele>
<time>2022-09-02T11:46:46.145Z</time>
</trkpt>
<trkpt lat="31.8000900" lon="34.9803800">
<ele>239.699997</ele>
<time>2022-09-02T11:46:46.145Z</time>
</trkpt>
<trkpt lat="31.8000300" lon="34.9802600">
<ele>239.259995</ele>
<time>2022-09-02T11:46:46.145Z</time>
</trkpt>
<trkpt lat="31.7999800" lon="34.9801400">
<ele>240.520004</ele>
<time>2022-09-02T11:46:46.145Z</time>
</trkpt>
<trkpt lat="31.7999600" lon="34.9800800">
<ele>241.119995</ele>
<time>2022-09-02T11:46:46.145Z</time>
</trkpt>
<trkpt lat="31.7999400" lon="34.9800200">
<ele>241.610001</ele>
<time>2022-09-02T11:46:46.145Z</time>
</trkpt>
<trkpt lat="31.7999200" lon="34.9799100">
<ele>240.599991</ele>
<time>2022-09-02T11:46:46.145Z</time>
</trkpt>
<trkpt lat="31.7999000" lon="34.9798100">
<ele>239.399994</ele>
<time>2022-09-02T11:46:46.145Z</time>
</trkpt>
<trkpt lat="31.7998900" lon="34.9797400">
<ele>238.600006</ele>
<time>2022-09-02T11:46:46.145Z</time>
</trkpt>
<trkpt lat="31.7998900" lon="34.9797000">
<ele>238.220001</ele>
<time>2022-09-02T11:46:46.145Z</time>
</trkpt>
<trkpt lat="31.7998700" lon="34.9796700">
<ele>238.080002</ele>
<time>2022-09-02T11:46:46.145Z</time>
</trkpt>
<trkpt lat="31.7998500" lon="34.9796400">
<ele>237.970001</ele>
<time>2022-09-02T11:46:46.145Z</time>
</trkpt>
<trkpt lat="31.7998300" lon="34.9795800">
<ele>237.699997</ele>
<time>2022-09-02T11:46:46.145Z</time>
</trkpt>
<trkpt lat="31.7998300" lon="34.9795400">
<ele>237.450012</ele>
<time>2022-09-02T11:46:46.145Z</time>
</trkpt>
<trkpt lat="31.7998300" lon="34.9794900">
<ele>237.129990</ele>
<time>2022-09-02T11:46:46.146Z</time>
</trkpt>
<trkpt lat="31.7998300" lon="34.9794500">
<ele>236.870010</ele>
<time>2022-09-02T11:46:46.146Z</time>
</trkpt>
<trkpt lat="31.7998300" lon="34.9794100">
<ele>236.220001</ele>
<time>2022-09-02T11:46:46.146Z</time>
</trkpt>
<trkpt lat="31.7998200" lon="34.9793500">
<ele>235.240005</ele>
<time>2022-09-02T11:46:46.146Z</time>
</trkpt>
<trkpt lat="31.7998200" lon="34.9793100">
<ele>234.519989</ele>
<time>2022-09-02T11:46:46.146Z</time>
</trkpt>
<trkpt lat="31.7998100" lon="34.9792700">
<ele>233.910004</ele>
<time>2022-09-02T11:46:46.146Z</time>
</trkpt>
<trkpt lat="31.7998000" lon="34.9792300">
<ele>233.299988</ele>
<time>2022-09-02T11:46:46.146Z</time>
</trkpt>
<trkpt lat="31.7997900" lon="34.9792000">
<ele>232.870010</ele>
<time>2022-09-02T11:46:46.146Z</time>
</trkpt>
<trkpt lat="31.7997700" lon="34.9791700">
<ele>232.540009</ele>
<time>2022-09-02T11:46:46.146Z</time>
</trkpt>
<trkpt lat="31.7997400" lon="34.9791300">
<ele>232.420013</ele>
<time>2022-09-02T11:46:46.146Z</time>
</trkpt>
<trkpt lat="31.7997200" lon="34.9791000">
<ele>232.330002</ele>
<time>2022-09-02T11:46:46.146Z</time>
</trkpt>
<trkpt lat="31.7997000" lon="34.9790800">
<ele>232.570007</ele>
<time>2022-09-02T11:46:46.146Z</time>
</trkpt>
<trkpt lat="31.7996700" lon="34.9790600">
<ele>233.020004</ele>
<time>2022-09-02T11:46:46.146Z</time>
</trkpt>
<trkpt lat="31.7996400" lon="34.9790400">
<ele>233.429993</ele>
<time>2022-09-02T11:46:46.146Z</time>
</trkpt>
<trkpt lat="31.7996100" lon="34.9790300">
<ele>233.949997</ele>
<time>2022-09-02T11:46:46.146Z</time>
</trkpt>
<trkpt lat="31.7995800" lon="34.9790200">
<ele>234.459991</ele>
<time>2022-09-02T11:46:46.146Z</time>
</trkpt>
<trkpt lat="31.7995400" lon="34.9790100">
<ele>235.160004</ele>
<time>2022-09-02T11:46:46.146Z</time>
</trkpt>
<trkpt lat="31.7995000" lon="34.9789900">
<ele>235.669998</ele>
<time>2022-09-02T11:46:46.146Z</time>
</trkpt>
<trkpt lat="31.7994600" lon="34.9789800">
<ele>236.319992</ele>
<time>2022-09-02T11:46:46.146Z</time>
</trkpt>
<trkpt lat="31.7994300" lon="34.9789600">
<ele>236.309998</ele>
<time>2022-09-02T11:46:46.146Z</time>
</trkpt>
<trkpt lat="31.7993800" lon="34.9789600">
<ele>236.389999</ele>
<time>2022-09-02T11:46:46.146Z</time>
</trkpt>
<trkpt lat="31.7993300" lon="34.9789500">
<ele>236.330002</ele>
<time>2022-09-02T11:46:46.146Z</time>
</trkpt>
<trkpt lat="31.7992900" lon="34.9789400">
<ele>236.270004</ele>
<time>2022-09-02T11:46:46.146Z</time>
</trkpt>
<trkpt lat="31.7992500" lon="34.9789300">
<ele>236.230011</ele>
<time>2022-09-02T11:46:46.146Z</time>
</trkpt>
<trkpt lat="31.7992100" lon="34.9789200">
<ele>236.209991</ele>
<time>2022-09-02T11:46:46.146Z</time>
</trkpt>
<trkpt lat="31.7991800" lon="34.9789100">
<ele>236.189987</ele>
<time>2022-09-02T11:46:46.146Z</time>
</trkpt>
<trkpt lat="31.7991500" lon="34.9788900">
<ele>236.189987</ele>
<time>2022-09-02T11:46:46.146Z</time>
</trkpt>
<trkpt lat="31.7991200" lon="34.9788800">
<ele>236.479996</ele>
<time>2022-09-02T11:46:46.146Z</time>
</trkpt>
<trkpt lat="31.7990800" lon="34.9788700">
<ele>236.889999</ele>
<time>2022-09-02T11:46:46.146Z</time>
</trkpt>
<trkpt lat="31.7990400" lon="34.9788600">
<ele>237.309998</ele>
<time>2022-09-02T11:46:46.146Z</time>
</trkpt>
<trkpt lat="31.7990000" lon="34.9788500">
<ele>237.740005</ele>
<time>2022-09-02T11:46:46.146Z</time>
</trkpt>
<trkpt lat="31.7989500" lon="34.9788400">
<ele>238.300003</ele>
<time>2022-09-02T11:46:46.147Z</time>
</trkpt>
<trkpt lat="31.7989200" lon="34.9788300">
<ele>238.639999</ele>
<time>2022-09-02T11:46:46.147Z</time>
</trkpt>
<trkpt lat="31.7988800" lon="34.9788100">
<ele>239.000000</ele>
<time>2022-09-02T11:46:46.147Z</time>
</trkpt>
<trkpt lat="31.7988500" lon="34.9787800">
<ele>239.000000</ele>
<time>2022-09-02T11:46:46.147Z</time>
</trkpt>
<trkpt lat="31.7988300" lon="34.9787500">
<ele>239.000000</ele>
<time>2022-09-02T11:46:46.147Z</time>
</trkpt>
<trkpt lat="31.7988000" lon="34.9786800">
<ele>239.000000</ele>
<time>2022-09-02T11:46:46.147Z</time>
</trkpt>
<trkpt lat="31.7987700" lon="34.9786100">
<ele>238.990005</ele>
<time>2022-09-02T11:46:46.147Z</time>
</trkpt>
<trkpt lat="31.7987500" lon="34.9785600">
<ele>238.449997</ele>
<time>2022-09-02T11:46:46.147Z</time>
</trkpt>
<trkpt lat="31.7987300" lon="34.9785100">
<ele>237.960007</ele>
<time>2022-09-02T11:46:46.147Z</time>
</trkpt>
<trkpt lat="31.7987200" lon="34.9784600">
<ele>237.490005</ele>
<time>2022-09-02T11:46:46.147Z</time>
</trkpt>
<trkpt lat="31.7987200" lon="34.9783900">
<ele>236.779999</ele>
<time>2022-09-02T11:46:46.147Z</time>
</trkpt>
<trkpt lat="31.7987100" lon="34.9783300">
<ele>236.230011</ele>
<time>2022-09-02T11:46:46.147Z</time>
</trkpt>
<trkpt lat="31.7987100" lon="34.9782500">
<ele>234.720001</ele>
<time>2022-09-02T11:46:46.147Z</time>
</trkpt>
<trkpt lat="31.7987000" lon="34.9782000">
<ele>233.769989</ele>
<time>2022-09-02T11:46:46.147Z</time>
</trkpt>
<trkpt lat="31.7987000" lon="34.9781600">
<ele>232.990005</ele>
<time>2022-09-02T11:46:46.147Z</time>
</trkpt>
<trkpt lat="31.7986800" lon="34.9781300">
<ele>232.290009</ele>
<time>2022-09-02T11:46:46.147Z</time>
</trkpt>
<trkpt lat="31.7986500" lon="34.9781000">
<ele>231.430008</ele>
<time>2022-09-02T11:46:46.147Z</time>
</trkpt>
<trkpt lat="31.7986300" lon="34.9780800">
<ele>230.790009</ele>
<time>2022-09-02T11:46:46.147Z</time>
</trkpt>
<trkpt lat="31.7985900" lon="34.9780700">
<ele>230.280014</ele>
<time>2022-09-02T11:46:46.147Z</time>
</trkpt>
<trkpt lat="31.7985500" lon="34.9780600">
<ele>229.879990</ele>
<time>2022-09-02T11:46:46.147Z</time>
</trkpt>
<trkpt lat="31.7985100" lon="34.9780400">
<ele>229.539993</ele>
<time>2022-09-02T11:46:46.147Z</time>
</trkpt>
<trkpt lat="31.7984600" lon="34.9780200">
<ele>229.270004</ele>
<time>2022-09-02T11:46:46.147Z</time>
</trkpt>
<trkpt lat="31.7984400" lon="34.9779800">
<ele>229.010010</ele>
<time>2022-09-02T11:46:46.147Z</time>
</trkpt>
<trkpt lat="31.7984300" lon="34.9779400">
<ele>228.789993</ele>
<time>2022-09-02T11:46:46.147Z</time>
</trkpt>
<trkpt lat="31.7984300" lon="34.9779000">
<ele>228.589996</ele>
<time>2022-09-02T11:46:46.147Z</time>
</trkpt>
<trkpt lat="31.7984300" lon="34.9778200">
<ele>228.200012</ele>
<time>2022-09-02T11:46:46.147Z</time>
</trkpt>
<trkpt lat="31.7984400" lon="34.9777800">
<ele>228.010010</ele>
<time>2022-09-02T11:46:46.148Z</time>
</trkpt>
<trkpt lat="31.7984700" lon="34.9777000">
<ele>227.720001</ele>
<time>2022-09-02T11:46:46.148Z</time>
</trkpt>
<trkpt lat="31.7984900" lon="34.9776500">
<ele>227.479996</ele>
<time>2022-09-02T11:46:46.148Z</time>
</trkpt>
<trkpt lat="31.7985300" lon="34.9775700">
<ele>226.940002</ele>
<time>2022-09-02T11:46:46.148Z</time>
</trkpt>
<trkpt lat="31.7985500" lon="34.9775100">
<ele>226.500000</ele>
<time>2022-09-02T11:46:46.148Z</time>
</trkpt>
<trkpt lat="31.7985800" lon="34.9774500">
<ele>225.720001</ele>
<time>2022-09-02T11:46:46.148Z</time>
</trkpt>
<trkpt lat="31.7986100" lon="34.9773900">
<ele>224.820007</ele>
<time>2022-09-02T11:46:46.148Z</time>
</trkpt>
<trkpt lat="31.7986600" lon="34.9773100">
<ele>223.539993</ele>
<time>2022-09-02T11:46:46.148Z</time>
</trkpt>
<trkpt lat="31.7987000" lon="34.9772600">
<ele>222.720001</ele>
<time>2022-09-02T11:46:46.148Z</time>
</trkpt>
<trkpt lat="31.7987300" lon="34.9772100">
<ele>222.139999</ele>
<time>2022-09-02T11:46:46.148Z</time>
</trkpt>
<trkpt lat="31.7987600" lon="34.9771700">
<ele>221.940002</ele>
<time>2022-09-02T11:46:46.149Z</time>
</trkpt>
<trkpt lat="31.7987800" lon="34.9771300">
<ele>221.860001</ele>
<time>2022-09-02T11:46:46.149Z</time>
</trkpt>
<trkpt lat="31.7988100" lon="34.9771000">
<ele>221.760010</ele>
<time>2022-09-02T11:46:46.149Z</time>
</trkpt>
<trkpt lat="31.7988400" lon="34.9770700">
<ele>221.710007</ele>
<time>2022-09-02T11:46:46.149Z</time>
</trkpt>
<trkpt lat="31.7988800" lon="34.9770300">
<ele>221.710007</ele>
<time>2022-09-02T11:46:46.149Z</time>
</trkpt>
<trkpt lat="31.7989200" lon="34.9769900">
<ele>222.000000</ele>
<time>2022-09-02T11:46:46.149Z</time>
</trkpt>
<trkpt lat="31.7989700" lon="34.9769400">
<ele>222.309998</ele>
<time>2022-09-02T11:46:46.149Z</time>
</trkpt>
<trkpt lat="31.7990200" lon="34.9768900">
<ele>222.590012</ele>
<time>2022-09-02T11:46:46.149Z</time>
</trkpt>
<trkpt lat="31.7990800" lon="34.9768300">
<ele>222.660004</ele>
<time>2022-09-02T11:46:46.149Z</time>
</trkpt>
<trkpt lat="31.7991400" lon="34.9767500">
<ele>222.410004</ele>
<time>2022-09-02T11:46:46.149Z</time>
</trkpt>
<trkpt lat="31.7991600" lon="34.9766900">
<ele>222.129990</ele>
<time>2022-09-02T11:46:46.149Z</time>
</trkpt>
<trkpt lat="31.7991600" lon="34.9766200">
<ele>221.880005</ele>
<time>2022-09-02T11:46:46.149Z</time>
</trkpt>
<trkpt lat="31.7991500" lon="34.9765700">
<ele>221.789993</ele>
<time>2022-09-02T11:46:46.149Z</time>
</trkpt>
<trkpt lat="31.7991300" lon="34.9765400">
<ele>221.869995</ele>
<time>2022-09-02T11:46:46.149Z</time>
</trkpt>
<trkpt lat="31.7990800" lon="34.9764900">
<ele>222.189987</ele>
<time>2022-09-02T11:46:46.149Z</time>
</trkpt>
<trkpt lat="31.7990400" lon="34.9764500">
<ele>222.489990</ele>
<time>2022-09-02T11:46:46.149Z</time>
</trkpt>
<trkpt lat="31.7990100" lon="34.9764000">
<ele>222.709991</ele>
<time>2022-09-02T11:46:46.149Z</time>
</trkpt>
<trkpt lat="31.7989800" lon="34.9763600">
<ele>222.769989</ele>
<time>2022-09-02T11:46:46.149Z</time>
</trkpt>
<trkpt lat="31.7989500" lon="34.9763300">
<ele>222.870010</ele>
<time>2022-09-02T11:46:46.149Z</time>
</trkpt>
<trkpt lat="31.7989300" lon="34.9762800">
<ele>222.709991</ele>
<time>2022-09-02T11:46:46.149Z</time>
</trkpt>
<trkpt lat="31.7989200" lon="34.9762200">
<ele>222.380005</ele>
<time>2022-09-02T11:46:46.149Z</time>
</trkpt>
<trkpt lat="31.7989000" lon="34.9761800">
<ele>222.350006</ele>
<time>2022-09-02T11:46:46.149Z</time>
</trkpt>
<trkpt lat="31.7988700" lon="34.9761500">
<ele>222.550003</ele>
<time>2022-09-02T11:46:46.149Z</time>
</trkpt>
<trkpt lat="31.7988400" lon="34.9761300">
<ele>222.839996</ele>
<time>2022-09-02T11:46:46.149Z</time>
</trkpt>
<trkpt lat="31.7988100" lon="34.9761100">
<ele>223.130005</ele>
<time>2022-09-02T11:46:46.149Z</time>
</trkpt>
<trkpt lat="31.7987700" lon="34.9760800">
<ele>223.699997</ele>
<time>2022-09-02T11:46:46.149Z</time>
</trkpt>
<trkpt lat="31.7987400" lon="34.9760600">
<ele>224.159988</ele>
<time>2022-09-02T11:46:46.149Z</time>
</trkpt>
<trkpt lat="31.7987100" lon="34.9760300">
<ele>224.660004</ele>
<time>2022-09-02T11:46:46.149Z</time>
</trkpt>
<trkpt lat="31.7986700" lon="34.9760000">
<ele>225.379990</ele>
<time>2022-09-02T11:46:46.149Z</time>
</trkpt>
<trkpt lat="31.7986300" lon="34.9759700">
<ele>226.170013</ele>
<time>2022-09-02T11:46:46.149Z</time>
</trkpt>
<trkpt lat="31.7985700" lon="34.9759400">
<ele>226.819992</ele>
<time>2022-09-02T11:46:46.150Z</time>
</trkpt>
<trkpt lat="31.7985200" lon="34.9759200">
<ele>227.119995</ele>
<time>2022-09-02T11:46:46.150Z</time>
</trkpt>
<trkpt lat="31.7984700" lon="34.9759000">
<ele>227.390015</ele>
<time>2022-09-02T11:46:46.150Z</time>
</trkpt>
<trkpt lat="31.7984200" lon="34.9758800">
<ele>227.639999</ele>
<time>2022-09-02T11:46:46.150Z</time>
</trkpt>
<trkpt lat="31.7983800" lon="34.9758600">
<ele>227.819992</ele>
<time>2022-09-02T11:46:46.150Z</time>
</trkpt>
<trkpt lat="31.7983200" lon="34.9758500">
<ele>227.860001</ele>
<time>2022-09-02T11:46:46.150Z</time>
</trkpt>
<trkpt lat="31.7982600" lon="34.9758400">
<ele>227.210007</ele>
<time>2022-09-02T11:46:46.150Z</time>
</trkpt>
<trkpt lat="31.7982000" lon="34.9758400">
<ele>226.570007</ele>
<time>2022-09-02T11:46:46.150Z</time>
</trkpt>
<trkpt lat="31.7981400" lon="34.9758400">
<ele>225.930008</ele>
<time>2022-09-02T11:46:46.150Z</time>
</trkpt>
<trkpt lat="31.7980700" lon="34.9758400">
<ele>225.180008</ele>
<time>2022-09-02T11:46:46.150Z</time>
</trkpt>
<trkpt lat="31.7980000" lon="34.9758400">
<ele>224.419998</ele>
<time>2022-09-02T11:46:46.150Z</time>
</trkpt>
<trkpt lat="31.7979400" lon="34.9758400">
<ele>223.779999</ele>
<time>2022-09-02T11:46:46.150Z</time>
</trkpt>
<trkpt lat="31.7978700" lon="34.9758600">
<ele>223.089996</ele>
<time>2022-09-02T11:46:46.150Z</time>
</trkpt>
<trkpt lat="31.7978200" lon="34.9758700">
<ele>222.590012</ele>
<time>2022-09-02T11:46:46.150Z</time>
</trkpt>
<trkpt lat="31.7977300" lon="34.9758800">
<ele>221.449997</ele>
<time>2022-09-02T11:46:46.150Z</time>
</trkpt>
<trkpt lat="31.7976700" lon="34.9759000">
<ele>220.589996</ele>
<time>2022-09-02T11:46:46.150Z</time>
</trkpt>
<trkpt lat="31.7976200" lon="34.9759200">
<ele>219.860001</ele>
<time>2022-09-02T11:46:46.150Z</time>
</trkpt>
<trkpt lat="31.7975800" lon="34.9759500">
<ele>219.270004</ele>
<time>2022-09-02T11:46:46.150Z</time>
</trkpt>
<trkpt lat="31.7975200" lon="34.9759900">
<ele>218.330002</ele>
<time>2022-09-02T11:46:46.150Z</time>
</trkpt>
<trkpt lat="31.7974600" lon="34.9760300">
<ele>217.630005</ele>
<time>2022-09-02T11:46:46.150Z</time>
</trkpt>
<trkpt lat="31.7973900" lon="34.9760800">
<ele>217.119995</ele>
<time>2022-09-02T11:46:46.150Z</time>
</trkpt>
<trkpt lat="31.7973500" lon="34.9761100">
<ele>216.920013</ele>
<time>2022-09-02T11:46:46.150Z</time>
</trkpt>
<trkpt lat="31.7973100" lon="34.9761400">
<ele>216.730011</ele>
<time>2022-09-02T11:46:46.150Z</time>
</trkpt>
<trkpt lat="31.7972400" lon="34.9762000">
<ele>216.190002</ele>
<time>2022-09-02T11:46:46.150Z</time>
</trkpt>
<trkpt lat="31.7972000" lon="34.9762400">
<ele>215.750000</ele>
<time>2022-09-02T11:46:46.150Z</time>
</trkpt>
<trkpt lat="31.7971700" lon="34.9762700">
<ele>215.460007</ele>
<time>2022-09-02T11:46:46.150Z</time>
</trkpt>
<trkpt lat="31.7971000" lon="34.9763500">
<ele>215.000000</ele>
<time>2022-09-02T11:46:46.150Z</time>
</trkpt>
<trkpt lat="31.7970100" lon="34.9764700">
<ele>215.120010</ele>
<time>2022-09-02T11:46:46.150Z</time>
</trkpt>
<trkpt lat="31.7969800" lon="34.9765100">
<ele>215.180008</ele>
<time>2022-09-02T11:46:46.151Z</time>
</trkpt>
<trkpt lat="31.7969400" lon="34.9765500">
<ele>215.149994</ele>
<time>2022-09-02T11:46:46.151Z</time>
</trkpt>
<trkpt lat="31.7968500" lon="34.9766400">
<ele>215.500000</ele>
<time>2022-09-02T11:46:46.151Z</time>
</trkpt>
<trkpt lat="31.7968100" lon="34.9766800">
<ele>215.559998</ele>
<time>2022-09-02T11:46:46.151Z</time>
</trkpt>
<trkpt lat="31.7967300" lon="34.9767700">
<ele>215.800003</ele>
<time>2022-09-02T11:46:46.151Z</time>
</trkpt>
<trkpt lat="31.7966800" lon="34.9768200">
<ele>216.100006</ele>
<time>2022-09-02T11:46:46.151Z</time>
</trkpt>
<trkpt lat="31.7965900" lon="34.9769100">
<ele>215.960007</ele>
<time>2022-09-02T11:46:46.151Z</time>
</trkpt>
<trkpt lat="31.7965000" lon="34.9770100">
<ele>216.000000</ele>
<time>2022-09-02T11:46:46.151Z</time>
</trkpt>
<trkpt lat="31.7963900" lon="34.9771100">
<ele>215.800003</ele>
<time>2022-09-02T11:46:46.151Z</time>
</trkpt>
<trkpt lat="31.7963300" lon="34.9771600">
<ele>215.100006</ele>
<time>2022-09-02T11:46:46.151Z</time>
</trkpt>
<trkpt lat="31.7962100" lon="34.9772600">
<ele>213.540009</ele>
<time>2022-09-02T11:46:46.151Z</time>
</trkpt>
<trkpt lat="31.7960500" lon="34.9773000">
<ele>211.120010</ele>
<time>2022-09-02T11:46:46.151Z</time>
</trkpt>
<trkpt lat="31.7958600" lon="34.9773100">
<ele>208.949997</ele>
<time>2022-09-02T11:46:46.151Z</time>
</trkpt>
<trkpt lat="31.7957800" lon="34.9773100">
<ele>208.510010</ele>
<time>2022-09-02T11:46:46.151Z</time>
</trkpt>
<trkpt lat="31.7956700" lon="34.9772400">
<ele>208.050003</ele>
<time>2022-09-02T11:46:46.151Z</time>
</trkpt>
<trkpt lat="31.7956200" lon="34.9771900">
<ele>207.710007</ele>
<time>2022-09-02T11:46:46.151Z</time>
</trkpt>
<trkpt lat="31.7955800" lon="34.9771500">
<ele>207.270004</ele>
<time>2022-09-02T11:46:46.151Z</time>
</trkpt>
<trkpt lat="31.7955100" lon="34.9770900">
<ele>206.240005</ele>
<time>2022-09-02T11:46:46.151Z</time>
</trkpt>
<trkpt lat="31.7954900" lon="34.9770600">
<ele>205.819992</ele>
<time>2022-09-02T11:46:46.151Z</time>
</trkpt>
<trkpt lat="31.7954700" lon="34.9770500">
<ele>205.600006</ele>
<time>2022-09-02T11:46:46.151Z</time>
</trkpt>
<trkpt lat="31.7954300" lon="34.9770200">
<ele>205.119995</ele>
<time>2022-09-02T11:46:46.151Z</time>
</trkpt>
<trkpt lat="31.7954000" lon="34.9770000">
<ele>204.820007</ele>
<time>2022-09-02T11:46:46.151Z</time>
</trkpt>
<trkpt lat="31.7953800" lon="34.9769700">
<ele>204.530014</ele>
<time>2022-09-02T11:46:46.151Z</time>
</trkpt>
<trkpt lat="31.7953600" lon="34.9769100">
<ele>203.970001</ele>
<time>2022-09-02T11:46:46.151Z</time>
</trkpt>
<trkpt lat="31.7953500" lon="34.9768700">
<ele>203.580002</ele>
<time>2022-09-02T11:46:46.151Z</time>
</trkpt>
<trkpt lat="31.7953600" lon="34.9768300">
<ele>203.229996</ele>
<time>2022-09-02T11:46:46.151Z</time>
</trkpt>
<trkpt lat="31.7953600" lon="34.9767700">
<ele>202.669998</ele>
<time>2022-09-02T11:46:46.151Z</time>
</trkpt>
<trkpt lat="31.7953700" lon="34.9767100">
<ele>202.080002</ele>
<time>2022-09-02T11:46:46.151Z</time>
</trkpt>
<trkpt lat="31.7953700" lon="34.9766600">
<ele>201.599991</ele>
<time>2022-09-02T11:46:46.151Z</time>
</trkpt>
<trkpt lat="31.7953800" lon="34.9766200">
<ele>201.129990</ele>
<time>2022-09-02T11:46:46.151Z</time>
</trkpt>
<trkpt lat="31.7953500" lon="34.9765600">
<ele>200.590012</ele>
<time>2022-09-02T11:46:46.152Z</time>
</trkpt>
<trkpt lat="31.7953100" lon="34.9765500">
<ele>200.619995</ele>
<time>2022-09-02T11:46:46.152Z</time>
</trkpt>
<trkpt lat="31.7952500" lon="34.9765200">
<ele>199.919998</ele>
<time>2022-09-02T11:46:46.152Z</time>
</trkpt>
<trkpt lat="31.7952200" lon="34.9764800">
<ele>198.940002</ele>
<time>2022-09-02T11:46:46.152Z</time>
</trkpt>
<trkpt lat="31.7951800" lon="34.9764400">
<ele>197.789993</ele>
<time>2022-09-02T11:46:46.152Z</time>
</trkpt>
<trkpt lat="31.7951500" lon="34.9764200">
<ele>197.039993</ele>
<time>2022-09-02T11:46:46.152Z</time>
</trkpt>
<trkpt lat="31.7951000" lon="34.9764000">
<ele>195.919998</ele>
<time>2022-09-02T11:46:46.152Z</time>
</trkpt>
<trkpt lat="31.7950400" lon="34.9763900">
<ele>194.729996</ele>
<time>2022-09-02T11:46:46.152Z</time>
</trkpt>
<trkpt lat="31.7949900" lon="34.9763800">
<ele>194.110001</ele>
<time>2022-09-02T11:46:46.152Z</time>
</trkpt>
<trkpt lat="31.7949500" lon="34.9763600">
<ele>194.630005</ele>
<time>2022-09-02T11:46:46.152Z</time>
</trkpt>
<trkpt lat="31.7949400" lon="34.9763300">
<ele>194.879990</ele>
<time>2022-09-02T11:46:46.152Z</time>
</trkpt>
<trkpt lat="31.7949300" lon="34.9762900">
<ele>195.199997</ele>
<time>2022-09-02T11:46:46.152Z</time>
</trkpt>
<trkpt lat="31.7949300" lon="34.9762200">
<ele>195.519989</ele>
<time>2022-09-02T11:46:46.152Z</time>
</trkpt>
<trkpt lat="31.7949500" lon="34.9761700">
<ele>195.250000</ele>
<time>2022-09-02T11:46:46.152Z</time>
</trkpt>
<trkpt lat="31.7949700" lon="34.9761000">
<ele>194.960007</ele>
<time>2022-09-02T11:46:46.152Z</time>
</trkpt>
<trkpt lat="31.7950100" lon="34.9760200">
<ele>195.009995</ele>
<time>2022-09-02T11:46:46.152Z</time>
</trkpt>
<trkpt lat="31.7950500" lon="34.9759700">
<ele>195.519989</ele>
<time>2022-09-02T11:46:46.152Z</time>
</trkpt>
<trkpt lat="31.7950800" lon="34.9759000">
<ele>195.979996</ele>
<time>2022-09-02T11:46:46.152Z</time>
</trkpt>
<trkpt lat="31.7951100" lon="34.9758500">
<ele>196.119995</ele>
<time>2022-09-02T11:46:46.152Z</time>
</trkpt>
<trkpt lat="31.7951500" lon="34.9757700">
<ele>196.589996</ele>
<time>2022-09-02T11:46:46.152Z</time>
</trkpt>
<trkpt lat="31.7951700" lon="34.9757100">
<ele>197.010010</ele>
<time>2022-09-02T11:46:46.152Z</time>
</trkpt>
<trkpt lat="31.7952100" lon="34.9756300">
<ele>197.309998</ele>
<time>2022-09-02T11:46:46.152Z</time>
</trkpt>
<trkpt lat="31.7952300" lon="34.9755500">
<ele>197.769989</ele>
<time>2022-09-02T11:46:46.152Z</time>
</trkpt>
<trkpt lat="31.7952500" lon="34.9754600">
<ele>198.779999</ele>
<time>2022-09-02T11:46:46.152Z</time>
</trkpt>
<trkpt lat="31.7952700" lon="34.9753900">
<ele>199.500015</ele>
<time>2022-09-02T11:46:46.152Z</time>
</trkpt>
<trkpt lat="31.7952800" lon="34.9753400">
<ele>200.070007</ele>
<time>2022-09-02T11:46:46.152Z</time>
</trkpt>
<trkpt lat="31.7952900" lon="34.9752300">
<ele>201.610001</ele>
<time>2022-09-02T11:46:46.152Z</time>
</trkpt>
<trkpt lat="31.7953000" lon="34.9751200">
<ele>203.260010</ele>
<time>2022-09-02T11:46:46.152Z</time>
</trkpt>
<trkpt lat="31.7953200" lon="34.9750100">
<ele>204.470001</ele>
<time>2022-09-02T11:46:46.152Z</time>
</trkpt>
<trkpt lat="31.7953500" lon="34.9749000">
<ele>204.380005</ele>
<time>2022-09-02T11:46:46.153Z</time>
</trkpt>
<trkpt lat="31.7953800" lon="34.9747800">
<ele>204.270004</ele>
<time>2022-09-02T11:46:46.153Z</time>
</trkpt>
<trkpt lat="31.7954100" lon="34.9746700">
<ele>203.619995</ele>
<time>2022-09-02T11:46:46.153Z</time>
</trkpt>
<trkpt lat="31.7954200" lon="34.9746200">
<ele>203.209991</ele>
<time>2022-09-02T11:46:46.153Z</time>
</trkpt>
<trkpt lat="31.7954400" lon="34.9745200">
<ele>202.440002</ele>
<time>2022-09-02T11:46:46.153Z</time>
</trkpt>
<trkpt lat="31.7954500" lon="34.9744700">
<ele>202.069992</ele>
<time>2022-09-02T11:46:46.153Z</time>
</trkpt>
<trkpt lat="31.7954600" lon="34.9744000">
<ele>201.800003</ele>
<time>2022-09-02T11:46:46.153Z</time>
</trkpt>
<trkpt lat="31.7954700" lon="34.9743500">
<ele>201.589996</ele>
<time>2022-09-02T11:46:46.153Z</time>
</trkpt>
<trkpt lat="31.7954800" lon="34.9742900">
<ele>201.429993</ele>
<time>2022-09-02T11:46:46.153Z</time>
</trkpt>
<trkpt lat="31.7954900" lon="34.9742500">
<ele>201.259995</ele>
<time>2022-09-02T11:46:46.153Z</time>
</trkpt>
<trkpt lat="31.7955000" lon="34.9741800">
<ele>201.170013</ele>
<time>2022-09-02T11:46:46.153Z</time>
</trkpt>
<trkpt lat="31.7955100" lon="34.9741300">
<ele>200.809998</ele>
<time>2022-09-02T11:46:46.153Z</time>
</trkpt>
<trkpt lat="31.7955100" lon="34.9740800">
<ele>200.570007</ele>
<time>2022-09-02T11:46:46.153Z</time>
</trkpt>
<trkpt lat="31.7955200" lon="34.9740200">
<ele>200.099991</ele>
<time>2022-09-02T11:46:46.153Z</time>
</trkpt>
<trkpt lat="31.7955300" lon="34.9739500">
<ele>199.629990</ele>
<time>2022-09-02T11:46:46.153Z</time>
</trkpt>
<trkpt lat="31.7955400" lon="34.9739000">
<ele>199.269989</ele>
<time>2022-09-02T11:46:46.153Z</time>
</trkpt>
<trkpt lat="31.7955500" lon="34.9738400">
<ele>198.720001</ele>
<time>2022-09-02T11:46:46.153Z</time>
</trkpt>
<trkpt lat="31.7955600" lon="34.9737400">
<ele>197.870010</ele>
<time>2022-09-02T11:46:46.153Z</time>
</trkpt>
<trkpt lat="31.7955600" lon="34.9736500">
<ele>197.230011</ele>
<time>2022-09-02T11:46:46.153Z</time>
</trkpt>
<trkpt lat="31.7955700" lon="34.9735800">
<ele>196.950012</ele>
<time>2022-09-02T11:46:46.153Z</time>
</trkpt>
<trkpt lat="31.7955800" lon="34.9734900">
<ele>197.129990</ele>
<time>2022-09-02T11:46:46.153Z</time>
</trkpt>
<trkpt lat="31.7955800" lon="34.9734000">
<ele>197.429993</ele>
<time>2022-09-02T11:46:46.153Z</time>
</trkpt>
<trkpt lat="31.7955900" lon="34.9732700">
<ele>197.959991</ele>
<time>2022-09-02T11:46:46.153Z</time>
</trkpt>
<trkpt lat="31.7956000" lon="34.9732100">
<ele>198.250000</ele>
<time>2022-09-02T11:46:46.153Z</time>
</trkpt>
<trkpt lat="31.7956100" lon="34.9731400">
<ele>198.610001</ele>
<time>2022-09-02T11:46:46.153Z</time>
</trkpt>
<trkpt lat="31.7956300" lon="34.9730200">
<ele>199.090012</ele>
<time>2022-09-02T11:46:46.153Z</time>
</trkpt>
<trkpt lat="31.7956400" lon="34.9729600">
<ele>199.229996</ele>
<time>2022-09-02T11:46:46.153Z</time>
</trkpt>
<trkpt lat="31.7956400" lon="34.9729000">
<ele>199.509995</ele>
<time>2022-09-02T11:46:46.153Z</time>
</trkpt>
<trkpt lat="31.7956500" lon="34.9727900">
<ele>199.919998</ele>
<time>2022-09-02T11:46:46.153Z</time>
</trkpt>
<trkpt lat="31.7956600" lon="34.9727400">
<ele>199.970001</ele>
<time>2022-09-02T11:46:46.154Z</time>
</trkpt>
<trkpt lat="31.7956600" lon="34.9726900">
<ele>200.110001</ele>
<time>2022-09-02T11:46:46.154Z</time>
</trkpt>
<trkpt lat="31.7956700" lon="34.9726500">
<ele>200.139999</ele>
<time>2022-09-02T11:46:46.154Z</time>
</trkpt>
<trkpt lat="31.7956800" lon="34.9725600">
<ele>200.360001</ele>
<time>2022-09-02T11:46:46.154Z</time>
</trkpt>
<trkpt lat="31.7956900" lon="34.9725000">
<ele>200.520004</ele>
<time>2022-09-02T11:46:46.154Z</time>
</trkpt>
<trkpt lat="31.7957200" lon="34.9724000">
<ele>201.210007</ele>
<time>2022-09-02T11:46:46.154Z</time>
</trkpt>
<trkpt lat="31.7957300" lon="34.9723700">
<ele>201.360001</ele>
<time>2022-09-02T11:46:46.154Z</time>
</trkpt>
<trkpt lat="31.7957400" lon="34.9723400">
<ele>201.490005</ele>
<time>2022-09-02T11:46:46.154Z</time>
</trkpt>
<trkpt lat="31.7957500" lon="34.9723100">
<ele>201.599991</ele>
<time>2022-09-02T11:46:46.154Z</time>
</trkpt>
<trkpt lat="31.7957700" lon="34.9722600">
<ele>201.680008</ele>
<time>2022-09-02T11:46:46.154Z</time>
</trkpt>
<trkpt lat="31.7958100" lon="34.9722100">
<ele>201.389999</ele>
<time>2022-09-02T11:46:46.154Z</time>
</trkpt>
<trkpt lat="31.7958300" lon="34.9721700">
<ele>201.239990</ele>
<time>2022-09-02T11:46:46.154Z</time>
</trkpt>
<trkpt lat="31.7958700" lon="34.9721000">
<ele>200.779999</ele>
<time>2022-09-02T11:46:46.154Z</time>
</trkpt>
<trkpt lat="31.7959000" lon="34.9720400">
<ele>200.460007</ele>
<time>2022-09-02T11:46:46.154Z</time>
</trkpt>
<trkpt lat="31.7959200" lon="34.9719900">
<ele>200.279999</ele>
<time>2022-09-02T11:46:46.154Z</time>
</trkpt>
<trkpt lat="31.7959300" lon="34.9719400">
<ele>200.259995</ele>
<time>2022-09-02T11:46:46.154Z</time>
</trkpt>
<trkpt lat="31.7959500" lon="34.9718800">
<ele>199.900009</ele>
<time>2022-09-02T11:46:46.154Z</time>
</trkpt>
<trkpt lat="31.7959600" lon="34.9718300">
<ele>199.720001</ele>
<time>2022-09-02T11:46:46.154Z</time>
</trkpt>
<trkpt lat="31.7959700" lon="34.9717600">
<ele>199.540009</ele>
<time>2022-09-02T11:46:46.154Z</time>
</trkpt>
<trkpt lat="31.7959800" lon="34.9717100">
<ele>199.360001</ele>
<time>2022-09-02T11:46:46.154Z</time>
</trkpt>
<trkpt lat="31.7959900" lon="34.9716300">
<ele>199.240005</ele>
<time>2022-09-02T11:46:46.154Z</time>
</trkpt>
<trkpt lat="31.7960000" lon="34.9715900">
<ele>199.110001</ele>
<time>2022-09-02T11:46:46.154Z</time>
</trkpt>
<trkpt lat="31.7960000" lon="34.9715400">
<ele>199.179993</ele>
<time>2022-09-02T11:46:46.154Z</time>
</trkpt>
<trkpt lat="31.7960100" lon="34.9715000">
<ele>199.039993</ele>
<time>2022-09-02T11:46:46.154Z</time>
</trkpt>
<trkpt lat="31.7960200" lon="34.9714500">
<ele>198.900009</ele>
<time>2022-09-02T11:46:46.154Z</time>
</trkpt>
<trkpt lat="31.7960200" lon="34.9714100">
<ele>198.940002</ele>
<time>2022-09-02T11:46:46.154Z</time>
</trkpt>
<trkpt lat="31.7960300" lon="34.9713700">
<ele>198.869995</ele>
<time>2022-09-02T11:46:46.154Z</time>
</trkpt>
<trkpt lat="31.7960300" lon="34.9713300">
<ele>199.110001</ele>
<time>2022-09-02T11:46:46.154Z</time>
</trkpt>
<trkpt lat="31.7960300" lon="34.9712900">
<ele>199.360001</ele>
<time>2022-09-02T11:46:46.154Z</time>
</trkpt>
<trkpt lat="31.7960300" lon="34.9712300">
<ele>199.730011</ele>
<time>2022-09-02T11:46:46.154Z</time>
</trkpt>
<trkpt lat="31.7960300" lon="34.9711900">
<ele>199.970001</ele>
<time>2022-09-02T11:46:46.154Z</time>
</trkpt>
<trkpt lat="31.7960200" lon="34.9711400">
<ele>200.470001</ele>
<time>2022-09-02T11:46:46.155Z</time>
</trkpt>
<trkpt lat="31.7960000" lon="34.9710800">
<ele>201.110001</ele>
<time>2022-09-02T11:46:46.155Z</time>
</trkpt>
<trkpt lat="31.7959700" lon="34.9710400">
<ele>201.660004</ele>
<time>2022-09-02T11:46:46.155Z</time>
</trkpt>
<trkpt lat="31.7959500" lon="34.9709900">
<ele>201.940002</ele>
<time>2022-09-02T11:46:46.155Z</time>
</trkpt>
<trkpt lat="31.7959300" lon="34.9709600">
<ele>202.119995</ele>
<time>2022-09-02T11:46:46.155Z</time>
</trkpt>
<trkpt lat="31.7958900" lon="34.9709300">
<ele>202.339996</ele>
<time>2022-09-02T11:46:46.155Z</time>
</trkpt>
<trkpt lat="31.7958500" lon="34.9709000">
<ele>202.410004</ele>
<time>2022-09-02T11:46:46.155Z</time>
</trkpt>
<trkpt lat="31.7958300" lon="34.9708800">
<ele>202.399994</ele>
<time>2022-09-02T11:46:46.155Z</time>
</trkpt>
<trkpt lat="31.7957900" lon="34.9708400">
<ele>202.839996</ele>
<time>2022-09-02T11:46:46.155Z</time>
</trkpt>
<trkpt lat="31.7957700" lon="34.9708200">
<ele>203.000000</ele>
<time>2022-09-02T11:46:46.155Z</time>
</trkpt>
<trkpt lat="31.7957400" lon="34.9708000">
<ele>203.319992</ele>
<time>2022-09-02T11:46:46.155Z</time>
</trkpt>
<trkpt lat="31.7957100" lon="34.9707800">
<ele>203.639999</ele>
<time>2022-09-02T11:46:46.155Z</time>
</trkpt>
<trkpt lat="31.7956900" lon="34.9707400">
<ele>203.569992</ele>
<time>2022-09-02T11:46:46.155Z</time>
</trkpt>
<trkpt lat="31.7956900" lon="34.9707000">
<ele>203.139984</ele>
<time>2022-09-02T11:46:46.155Z</time>
</trkpt>
<trkpt lat="31.7956800" lon="34.9706600">
<ele>202.889999</ele>
<time>2022-09-02T11:46:46.155Z</time>
</trkpt>
<trkpt lat="31.7956700" lon="34.9706300">
<ele>202.739990</ele>
<time>2022-09-02T11:46:46.155Z</time>
</trkpt>
<trkpt lat="31.7956500" lon="34.9706000">
<ele>202.779999</ele>
<time>2022-09-02T11:46:46.155Z</time>
</trkpt>
<trkpt lat="31.7956000" lon="34.9705500">
<ele>203.160004</ele>
<time>2022-09-02T11:46:46.155Z</time>
</trkpt>
<trkpt lat="31.7955800" lon="34.9705300">
<ele>203.379990</ele>
<time>2022-09-02T11:46:46.155Z</time>
</trkpt>
<trkpt lat="31.7955500" lon="34.9705100">
<ele>203.750000</ele>
<time>2022-09-02T11:46:46.155Z</time>
</trkpt>
<trkpt lat="31.7955200" lon="34.9704700">
<ele>203.899994</ele>
<time>2022-09-02T11:46:46.155Z</time>
</trkpt>
<trkpt lat="31.7954900" lon="34.9704500">
<ele>204.180008</ele>
<time>2022-09-02T11:46:46.155Z</time>
</trkpt>
<trkpt lat="31.7954700" lon="34.9704300">
<ele>204.330002</ele>
<time>2022-09-02T11:46:46.155Z</time>
</trkpt>
<trkpt lat="31.7954500" lon="34.9704000">
<ele>204.400009</ele>
<time>2022-09-02T11:46:46.155Z</time>
</trkpt>
<trkpt lat="31.7954300" lon="34.9703700">
<ele>204.470001</ele>
<time>2022-09-02T11:46:46.155Z</time>
</trkpt>
<trkpt lat="31.7954200" lon="34.9703400">
<ele>204.400009</ele>
<time>2022-09-02T11:46:46.155Z</time>
</trkpt>
<trkpt lat="31.7954000" lon="34.9703000">
<ele>204.400009</ele>
<time>2022-09-02T11:46:46.155Z</time>
</trkpt>
<trkpt lat="31.7953800" lon="34.9702600">
<ele>204.420013</ele>
<time>2022-09-02T11:46:46.155Z</time>
</trkpt>
<trkpt lat="31.7953500" lon="34.9702200">
<ele>204.599991</ele>
<time>2022-09-02T11:46:46.155Z</time>
</trkpt>
<trkpt lat="31.7953300" lon="34.9701800">
<ele>204.610001</ele>
<time>2022-09-02T11:46:46.156Z</time>
</trkpt>
<trkpt lat="31.7953000" lon="34.9701500">
<ele>204.800003</ele>
<time>2022-09-02T11:46:46.156Z</time>
</trkpt>
<trkpt lat="31.7952700" lon="34.9701300">
<ele>205.020004</ele>
<time>2022-09-02T11:46:46.156Z</time>
</trkpt>
<trkpt lat="31.7952300" lon="34.9700800">
<ele>205.089996</ele>
<time>2022-09-02T11:46:46.156Z</time>
</trkpt>
<trkpt lat="31.7952000" lon="34.9700500">
<ele>205.199997</ele>
<time>2022-09-02T11:46:46.156Z</time>
</trkpt>
<trkpt lat="31.7951700" lon="34.9700200">
<ele>205.309998</ele>
<time>2022-09-02T11:46:46.156Z</time>
</trkpt>
<trkpt lat="31.7951300" lon="34.9699700">
<ele>205.320007</ele>
<time>2022-09-02T11:46:46.156Z</time>
</trkpt>
<trkpt lat="31.7950900" lon="34.9699300">
<ele>205.259995</ele>
<time>2022-09-02T11:46:46.156Z</time>
</trkpt>
<trkpt lat="31.7950600" lon="34.9699000">
<ele>205.150009</ele>
<time>2022-09-02T11:46:46.156Z</time>
</trkpt>
<trkpt lat="31.7950000" lon="34.9698700">
<ele>205.129990</ele>
<time>2022-09-02T11:46:46.156Z</time>
</trkpt>
<trkpt lat="31.7949600" lon="34.9698400">
<ele>205.579987</ele>
<time>2022-09-02T11:46:46.156Z</time>
</trkpt>
<trkpt lat="31.7949300" lon="34.9698200">
<ele>205.989990</ele>
<time>2022-09-02T11:46:46.156Z</time>
</trkpt>
<trkpt lat="31.7948900" lon="34.9698100">
<ele>206.790009</ele>
<time>2022-09-02T11:46:46.156Z</time>
</trkpt>
<trkpt lat="31.7948500" lon="34.9697900">
<ele>207.489990</ele>
<time>2022-09-02T11:46:46.156Z</time>
</trkpt>
<trkpt lat="31.7948000" lon="34.9697800">
<ele>208.570007</ele>
<time>2022-09-02T11:46:46.156Z</time>
</trkpt>
<trkpt lat="31.7947700" lon="34.9697800">
<ele>209.280014</ele>
<time>2022-09-02T11:46:46.156Z</time>
</trkpt>
<trkpt lat="31.7947200" lon="34.9697700">
<ele>210.419998</ele>
<time>2022-09-02T11:46:46.156Z</time>
</trkpt>
<trkpt lat="31.7946800" lon="34.9697700">
<ele>211.860001</ele>
<time>2022-09-02T11:46:46.156Z</time>
</trkpt>
<trkpt lat="31.7946500" lon="34.9697500">
<ele>212.800003</ele>
<time>2022-09-02T11:46:46.156Z</time>
</trkpt>
<trkpt lat="31.7946100" lon="34.9697300">
<ele>214.099991</ele>
<time>2022-09-02T11:46:46.156Z</time>
</trkpt>
<trkpt lat="31.7945900" lon="34.9697200">
<ele>214.760010</ele>
<time>2022-09-02T11:46:46.156Z</time>
</trkpt>
<trkpt lat="31.7945600" lon="34.9697100">
<ele>215.830002</ele>
<time>2022-09-02T11:46:46.156Z</time>
</trkpt>
<trkpt lat="31.7945200" lon="34.9697000">
<ele>217.240005</ele>
<time>2022-09-02T11:46:46.156Z</time>
</trkpt>
<trkpt lat="31.7944800" lon="34.9696800">
<ele>218.610001</ele>
<time>2022-09-02T11:46:46.156Z</time>
</trkpt>
<trkpt lat="31.7944500" lon="34.9696700">
<ele>219.620010</ele>
<time>2022-09-02T11:46:46.156Z</time>
</trkpt>
<trkpt lat="31.7944100" lon="34.9696400">
<ele>220.550003</ele>
<time>2022-09-02T11:46:46.156Z</time>
</trkpt>
<trkpt lat="31.7943800" lon="34.9696100">
<ele>221.079987</ele>
<time>2022-09-02T11:46:46.156Z</time>
</trkpt>
<trkpt lat="31.7943500" lon="34.9695900">
<ele>221.600006</ele>
<time>2022-09-02T11:46:46.156Z</time>
</trkpt>
<trkpt lat="31.7943300" lon="34.9695500">
<ele>221.650009</ele>
<time>2022-09-02T11:46:46.156Z</time>
</trkpt>
<trkpt lat="31.7943100" lon="34.9695200">
<ele>221.729996</ele>
<time>2022-09-02T11:46:46.156Z</time>
</trkpt>
<trkpt lat="31.7942900" lon="34.9694900">
<ele>221.750000</ele>
<time>2022-09-02T11:46:46.156Z</time>
</trkpt>
<trkpt lat="31.7942700" lon="34.9694400">
<ele>221.480011</ele>
<time>2022-09-02T11:46:46.157Z</time>
</trkpt>
<trkpt lat="31.7942600" lon="34.9694000">
<ele>221.339996</ele>
<time>2022-09-02T11:46:46.157Z</time>
</trkpt>
<trkpt lat="31.7942600" lon="34.9693500">
<ele>220.979996</ele>
<time>2022-09-02T11:46:46.157Z</time>
</trkpt>
<trkpt lat="31.7942500" lon="34.9693100">
<ele>220.779999</ele>
<time>2022-09-02T11:46:46.157Z</time>
</trkpt>
<trkpt lat="31.7942300" lon="34.9692700">
<ele>220.629990</ele>
<time>2022-09-02T11:46:46.157Z</time>
</trkpt>
<trkpt lat="31.7942300" lon="34.9692400">
<ele>220.380005</ele>
<time>2022-09-02T11:46:46.157Z</time>
</trkpt>
<trkpt lat="31.7942200" lon="34.9691800">
<ele>219.920013</ele>
<time>2022-09-02T11:46:46.157Z</time>
</trkpt>
<trkpt lat="31.7942200" lon="34.9691400">
<ele>219.889999</ele>
<time>2022-09-02T11:46:46.157Z</time>
</trkpt>
<trkpt lat="31.7942200" lon="34.9691000">
<ele>220.000000</ele>
<time>2022-09-02T11:46:46.157Z</time>
</trkpt>
<trkpt lat="31.7942200" lon="34.9690500">
<ele>220.150009</ele>
<time>2022-09-02T11:46:46.157Z</time>
</trkpt>
<trkpt lat="31.7942200" lon="34.9690100">
<ele>220.260010</ele>
<time>2022-09-02T11:46:46.157Z</time>
</trkpt>
<trkpt lat="31.7942300" lon="34.9689500">
<ele>220.369995</ele>
<time>2022-09-02T11:46:46.157Z</time>
</trkpt>
<trkpt lat="31.7942300" lon="34.9689000">
<ele>220.509995</ele>
<time>2022-09-02T11:46:46.157Z</time>
</trkpt>
<trkpt lat="31.7942400" lon="34.9688600">
<ele>220.580002</ele>
<time>2022-09-02T11:46:46.157Z</time>
</trkpt>
<trkpt lat="31.7942400" lon="34.9688300">
<ele>220.679993</ele>
<time>2022-09-02T11:46:46.157Z</time>
</trkpt>
<trkpt lat="31.7942500" lon="34.9687900">
<ele>220.759995</ele>
<time>2022-09-02T11:46:46.157Z</time>
</trkpt>
<trkpt lat="31.7942600" lon="34.9687300">
<ele>220.900009</ele>
<time>2022-09-02T11:46:46.157Z</time>
</trkpt>
<trkpt lat="31.7942700" lon="34.9687000">
<ele>220.940002</ele>
<time>2022-09-02T11:46:46.157Z</time>
</trkpt>
<trkpt lat="31.7942800" lon="34.9686500">
<ele>221.039993</ele>
<time>2022-09-02T11:46:46.157Z</time>
</trkpt>
<trkpt lat="31.7942800" lon="34.9686000">
<ele>221.169998</ele>
<time>2022-09-02T11:46:46.157Z</time>
</trkpt>
<trkpt lat="31.7942900" lon="34.9685600">
<ele>221.029999</ele>
<time>2022-09-02T11:46:46.157Z</time>
</trkpt>
<trkpt lat="31.7942900" lon="34.9685200">
<ele>220.969986</ele>
<time>2022-09-02T11:46:46.157Z</time>
</trkpt>
<trkpt lat="31.7942900" lon="34.9684900">
<ele>220.919998</ele>
<time>2022-09-02T11:46:46.157Z</time>
</trkpt>
<trkpt lat="31.7943000" lon="34.9684300">
<ele>220.730011</ele>
<time>2022-09-02T11:46:46.157Z</time>
</trkpt>
<trkpt lat="31.7943000" lon="34.9683900">
<ele>220.660004</ele>
<time>2022-09-02T11:46:46.157Z</time>
</trkpt>
<trkpt lat="31.7943000" lon="34.9683500">
<ele>220.589996</ele>
<time>2022-09-02T11:46:46.157Z</time>
</trkpt>
<trkpt lat="31.7943000" lon="34.9683000">
<ele>220.499985</ele>
<time>2022-09-02T11:46:46.157Z</time>
</trkpt>
<trkpt lat="31.7943000" lon="34.9682400">
<ele>220.399994</ele>
<time>2022-09-02T11:46:46.157Z</time>
</trkpt>
<trkpt lat="31.7943100" lon="34.9681700">
<ele>220.150009</ele>
<time>2022-09-02T11:46:46.157Z</time>
</trkpt>
<trkpt lat="31.7943100" lon="34.9681300">
<ele>220.070007</ele>
<time>2022-09-02T11:46:46.157Z</time>
</trkpt>
<trkpt lat="31.7943100" lon="34.9680700">
<ele>219.960007</ele>
<time>2022-09-02T11:46:46.158Z</time>
</trkpt>
<trkpt lat="31.7943100" lon="34.9680100">
<ele>220.099991</ele>
<time>2022-09-02T11:46:46.158Z</time>
</trkpt>
<trkpt lat="31.7943100" lon="34.9679300">
<ele>220.390015</ele>
<time>2022-09-02T11:46:46.158Z</time>
</trkpt>
<trkpt lat="31.7943100" lon="34.9678600">
<ele>220.639999</ele>
<time>2022-09-02T11:46:46.158Z</time>
</trkpt>
<trkpt lat="31.7943200" lon="34.9678200">
<ele>220.639999</ele>
<time>2022-09-02T11:46:46.158Z</time>
</trkpt>
<trkpt lat="31.7943200" lon="34.9677500">
<ele>220.699997</ele>
<time>2022-09-02T11:46:46.158Z</time>
</trkpt>
<trkpt lat="31.7943300" lon="34.9676800">
<ele>220.360001</ele>
<time>2022-09-02T11:46:46.158Z</time>
</trkpt>
<trkpt lat="31.7943300" lon="34.9676400">
<ele>220.240005</ele>
<time>2022-09-02T11:46:46.158Z</time>
</trkpt>
<trkpt lat="31.7943300" lon="34.9675900">
<ele>220.090012</ele>
<time>2022-09-02T11:46:46.158Z</time>
</trkpt>
<trkpt lat="31.7943400" lon="34.9675500">
<ele>219.889999</ele>
<time>2022-09-02T11:46:46.158Z</time>
</trkpt>
<trkpt lat="31.7943400" lon="34.9675000">
<ele>219.749985</ele>
<time>2022-09-02T11:46:46.158Z</time>
</trkpt>
<trkpt lat="31.7943300" lon="34.9674500">
<ele>220.110001</ele>
<time>2022-09-02T11:46:46.158Z</time>
</trkpt>
<trkpt lat="31.7943300" lon="34.9674200">
<ele>220.279999</ele>
<time>2022-09-02T11:46:46.158Z</time>
</trkpt>
<trkpt lat="31.7943300" lon="34.9673600">
<ele>220.620010</ele>
<time>2022-09-02T11:46:46.158Z</time>
</trkpt>
<trkpt lat="31.7943200" lon="34.9673200">
<ele>220.900009</ele>
<time>2022-09-02T11:46:46.158Z</time>
</trkpt>
<trkpt lat="31.7943200" lon="34.9672800">
<ele>221.130005</ele>
<time>2022-09-02T11:46:46.158Z</time>
</trkpt>
<trkpt lat="31.7943100" lon="34.9672200">
<ele>221.489990</ele>
<time>2022-09-02T11:46:46.158Z</time>
</trkpt>
<trkpt lat="31.7943000" lon="34.9671700">
<ele>221.699997</ele>
<time>2022-09-02T11:46:46.158Z</time>
</trkpt>
<trkpt lat="31.7943000" lon="34.9671200">
<ele>221.869995</ele>
<time>2022-09-02T11:46:46.158Z</time>
</trkpt>
<trkpt lat="31.7943000" lon="34.9670600">
<ele>222.080002</ele>
<time>2022-09-02T11:46:46.158Z</time>
</trkpt>
<trkpt lat="31.7943000" lon="34.9670300">
<ele>222.180008</ele>
<time>2022-09-02T11:46:46.158Z</time>
</trkpt>
<trkpt lat="31.7943000" lon="34.9669800">
<ele>222.360016</ele>
<time>2022-09-02T11:46:46.158Z</time>
</trkpt>
<trkpt lat="31.7943000" lon="34.9669300">
<ele>222.400009</ele>
<time>2022-09-02T11:46:46.158Z</time>
</trkpt>
<trkpt lat="31.7943100" lon="34.9669000">
<ele>222.279999</ele>
<time>2022-09-02T11:46:46.158Z</time>
</trkpt>
<trkpt lat="31.7943200" lon="34.9668500">
<ele>222.060013</ele>
<time>2022-09-02T11:46:46.158Z</time>
</trkpt>
<trkpt lat="31.7943400" lon="34.9668100">
<ele>221.959991</ele>
<time>2022-09-02T11:46:46.158Z</time>
</trkpt>
<trkpt lat="31.7943500" lon="34.9667800">
<ele>221.869995</ele>
<time>2022-09-02T11:46:46.158Z</time>
</trkpt>
<trkpt lat="31.7943800" lon="34.9667200">
<ele>221.770004</ele>
<time>2022-09-02T11:46:46.158Z</time>
</trkpt>
<trkpt lat="31.7944100" lon="34.9666700">
<ele>221.770004</ele>
<time>2022-09-02T11:46:46.158Z</time>
</trkpt>
<trkpt lat="31.7944400" lon="34.9666200">
<ele>221.140015</ele>
<time>2022-09-02T11:46:46.158Z</time>
</trkpt>
<trkpt lat="31.7944700" lon="34.9665700">
<ele>219.960007</ele>
<time>2022-09-02T11:46:46.159Z</time>
</trkpt>
<trkpt lat="31.7945100" lon="34.9664800">
<ele>218.010010</ele>
<time>2022-09-02T11:46:46.159Z</time>
</trkpt>
<trkpt lat="31.7945400" lon="34.9664100">
<ele>216.639999</ele>
<time>2022-09-02T11:46:46.159Z</time>
</trkpt>
<trkpt lat="31.7945900" lon="34.9662900">
<ele>214.379990</ele>
<time>2022-09-02T11:46:46.159Z</time>
</trkpt>
<trkpt lat="31.7946400" lon="34.9661600">
<ele>212.389999</ele>
<time>2022-09-02T11:46:46.159Z</time>
</trkpt>
<trkpt lat="31.7947200" lon="34.9660000">
<ele>211.180008</ele>
<time>2022-09-02T11:46:46.159Z</time>
</trkpt>
<trkpt lat="31.7947500" lon="34.9659100">
<ele>210.300003</ele>
<time>2022-09-02T11:46:46.159Z</time>
</trkpt>
<trkpt lat="31.7948300" lon="34.9657300">
<ele>209.000000</ele>
<time>2022-09-02T11:46:46.159Z</time>
</trkpt>
<trkpt lat="31.7948800" lon="34.9656400">
<ele>208.559998</ele>
<time>2022-09-02T11:46:46.159Z</time>
</trkpt>
<trkpt lat="31.7949700" lon="34.9654600">
<ele>208.380005</ele>
<time>2022-09-02T11:46:46.159Z</time>
</trkpt>
<trkpt lat="31.7950200" lon="34.9653900">
<ele>208.570007</ele>
<time>2022-09-02T11:46:46.159Z</time>
</trkpt>
<trkpt lat="31.7950800" lon="34.9653200">
<ele>208.800003</ele>
<time>2022-09-02T11:46:46.159Z</time>
</trkpt>
<trkpt lat="31.7951500" lon="34.9651800">
<ele>208.649994</ele>
<time>2022-09-02T11:46:46.159Z</time>
</trkpt>
<trkpt lat="31.7951600" lon="34.9651100">
<ele>208.400009</ele>
<time>2022-09-02T11:46:46.159Z</time>
</trkpt>
<trkpt lat="31.7951600" lon="34.9649900">
<ele>207.930008</ele>
<time>2022-09-02T11:46:46.159Z</time>
</trkpt>
<trkpt lat="31.7951400" lon="34.9648900">
<ele>207.209991</ele>
<time>2022-09-02T11:46:46.159Z</time>
</trkpt>
<trkpt lat="31.7950600" lon="34.9648600">
<ele>206.990005</ele>
<time>2022-09-02T11:46:46.159Z</time>
</trkpt>
<trkpt lat="31.7950100" lon="34.9648600">
<ele>206.990005</ele>
<time>2022-09-02T11:46:46.159Z</time>
</trkpt>
<trkpt lat="31.7949500" lon="34.9648600">
<ele>206.360001</ele>
<time>2022-09-02T11:46:46.159Z</time>
</trkpt>
<trkpt lat="31.7949100" lon="34.9648800">
<ele>206.070007</ele>
<time>2022-09-02T11:46:46.159Z</time>
</trkpt>
<trkpt lat="31.7948800" lon="34.9649000">
<ele>205.949997</ele>
<time>2022-09-02T11:46:46.159Z</time>
</trkpt>
<trkpt lat="31.7948400" lon="34.9649400">
<ele>206.039993</ele>
<time>2022-09-02T11:46:46.159Z</time>
</trkpt>
<trkpt lat="31.7948100" lon="34.9649500">
<ele>205.900009</ele>
<time>2022-09-02T11:46:46.159Z</time>
</trkpt>
<trkpt lat="31.7947700" lon="34.9649700">
<ele>205.859985</ele>
<time>2022-09-02T11:46:46.159Z</time>
</trkpt>
<trkpt lat="31.7947400" lon="34.9649700">
<ele>205.610001</ele>
<time>2022-09-02T11:46:46.159Z</time>
</trkpt>
<trkpt lat="31.7947100" lon="34.9649900">
<ele>205.600006</ele>
<time>2022-09-02T11:46:46.159Z</time>
</trkpt>
<trkpt lat="31.7946800" lon="34.9650100">
<ele>205.309998</ele>
<time>2022-09-02T11:46:46.159Z</time>
</trkpt>
<trkpt lat="31.7946500" lon="34.9650300">
<ele>204.919998</ele>
<time>2022-09-02T11:46:46.159Z</time>
</trkpt>
<trkpt lat="31.7946100" lon="34.9650800">
<ele>204.559998</ele>
<time>2022-09-02T11:46:46.160Z</time>
</trkpt>
<trkpt lat="31.7945800" lon="34.9651400">
<ele>204.449997</ele>
<time>2022-09-02T11:46:46.160Z</time>
</trkpt>
<trkpt lat="31.7945600" lon="34.9651700">
<ele>204.299988</ele>
<time>2022-09-02T11:46:46.160Z</time>
</trkpt>
<trkpt lat="31.7945400" lon="34.9652000">
<ele>204.160004</ele>
<time>2022-09-02T11:46:46.160Z</time>
</trkpt>
<trkpt lat="31.7945300" lon="34.9652400">
<ele>204.270004</ele>
<time>2022-09-02T11:46:46.160Z</time>
</trkpt>
<trkpt lat="31.7945000" lon="34.9652900">
<ele>204.080002</ele>
<time>2022-09-02T11:46:46.160Z</time>
</trkpt>
<trkpt lat="31.7944800" lon="34.9653300">
<ele>203.990005</ele>
<time>2022-09-02T11:46:46.160Z</time>
</trkpt>
<trkpt lat="31.7944600" lon="34.9653800">
<ele>204.000000</ele>
<time>2022-09-02T11:46:46.160Z</time>
</trkpt>
<trkpt lat="31.7944400" lon="34.9654200">
<ele>204.019989</ele>
<time>2022-09-02T11:46:46.160Z</time>
</trkpt>
<trkpt lat="31.7944300" lon="34.9654700">
<ele>204.350006</ele>
<time>2022-09-02T11:46:46.160Z</time>
</trkpt>
<trkpt lat="31.7944100" lon="34.9655000">
<ele>204.500000</ele>
<time>2022-09-02T11:46:46.160Z</time>
</trkpt>
<trkpt lat="31.7943800" lon="34.9655500">
<ele>204.729996</ele>
<time>2022-09-02T11:46:46.160Z</time>
</trkpt>
<trkpt lat="31.7943600" lon="34.9655800">
<ele>204.809998</ele>
<time>2022-09-02T11:46:46.160Z</time>
</trkpt>
<trkpt lat="31.7943400" lon="34.9656100">
<ele>204.889999</ele>
<time>2022-09-02T11:46:46.160Z</time>
</trkpt>
<trkpt lat="31.7943100" lon="34.9656400">
<ele>204.970001</ele>
<time>2022-09-02T11:46:46.160Z</time>
</trkpt>
<trkpt lat="31.7942800" lon="34.9656700">
<ele>205.059998</ele>
<time>2022-09-02T11:46:46.160Z</time>
</trkpt>
<trkpt lat="31.7942500" lon="34.9656900">
<ele>205.119995</ele>
<time>2022-09-02T11:46:46.160Z</time>
</trkpt>
<trkpt lat="31.7942200" lon="34.9657000">
<ele>205.129990</ele>
<time>2022-09-02T11:46:46.160Z</time>
</trkpt>
<trkpt lat="31.7941700" lon="34.9657200">
<ele>205.190002</ele>
<time>2022-09-02T11:46:46.160Z</time>
</trkpt>
<trkpt lat="31.7941500" lon="34.9657300">
<ele>205.369995</ele>
<time>2022-09-02T11:46:46.160Z</time>
</trkpt>
<trkpt lat="31.7941100" lon="34.9657400">
<ele>205.729996</ele>
<time>2022-09-02T11:46:46.160Z</time>
</trkpt>
<trkpt lat="31.7940700" lon="34.9657500">
<ele>206.130005</ele>
<time>2022-09-02T11:46:46.160Z</time>
</trkpt>
<trkpt lat="31.7940400" lon="34.9657600">
<ele>206.479996</ele>
<time>2022-09-02T11:46:46.160Z</time>
</trkpt>
<trkpt lat="31.7940100" lon="34.9657800">
<ele>206.979996</ele>
<time>2022-09-02T11:46:46.160Z</time>
</trkpt>
<trkpt lat="31.7939600" lon="34.9658100">
<ele>207.880005</ele>
<time>2022-09-02T11:46:46.160Z</time>
</trkpt>
<trkpt lat="31.7939200" lon="34.9658400">
<ele>208.800003</ele>
<time>2022-09-02T11:46:46.160Z</time>
</trkpt>
<trkpt lat="31.7938800" lon="34.9658700">
<ele>209.880005</ele>
<time>2022-09-02T11:46:46.160Z</time>
</trkpt>
<trkpt lat="31.7938600" lon="34.9659000">
<ele>210.729996</ele>
<time>2022-09-02T11:46:46.160Z</time>
</trkpt>
<trkpt lat="31.7938400" lon="34.9659300">
<ele>211.550003</ele>
<time>2022-09-02T11:46:46.160Z</time>
</trkpt>
<trkpt lat="31.7938100" lon="34.9659700">
<ele>212.660004</ele>
<time>2022-09-02T11:46:46.160Z</time>
</trkpt>
<trkpt lat="31.7937900" lon="34.9659900">
<ele>213.250000</ele>
<time>2022-09-02T11:46:46.160Z</time>
</trkpt>
<trkpt lat="31.7937600" lon="34.9660300">
<ele>214.310013</ele>
<time>2022-09-02T11:46:46.160Z</time>
</trkpt>
<trkpt lat="31.7937500" lon="34.9660500">
<ele>214.789993</ele>
<time>2022-09-02T11:46:46.161Z</time>
</trkpt>
<trkpt lat="31.7937300" lon="34.9661000">
<ele>215.930008</ele>
<time>2022-09-02T11:46:46.161Z</time>
</trkpt>
<trkpt lat="31.7937200" lon="34.9661400">
<ele>216.629990</ele>
<time>2022-09-02T11:46:46.161Z</time>
</trkpt>
<trkpt lat="31.7937100" lon="34.9661800">
<ele>217.229996</ele>
<time>2022-09-02T11:46:46.161Z</time>
</trkpt>
<trkpt lat="31.7937000" lon="34.9662100">
<ele>217.639999</ele>
<time>2022-09-02T11:46:46.161Z</time>
</trkpt>
<trkpt lat="31.7936800" lon="34.9662600">
<ele>218.240005</ele>
<time>2022-09-02T11:46:46.161Z</time>
</trkpt>
<trkpt lat="31.7936700" lon="34.9663000">
<ele>218.659988</ele>
<time>2022-09-02T11:46:46.161Z</time>
</trkpt>
<trkpt lat="31.7936700" lon="34.9663300">
<ele>218.990005</ele>
<time>2022-09-02T11:46:46.161Z</time>
</trkpt>
<trkpt lat="31.7936600" lon="34.9663600">
<ele>219.230011</ele>
<time>2022-09-02T11:46:46.161Z</time>
</trkpt>
<trkpt lat="31.7936400" lon="34.9664100">
<ele>219.449997</ele>
<time>2022-09-02T11:46:46.161Z</time>
</trkpt>
<trkpt lat="31.7936300" lon="34.9664500">
<ele>219.610001</ele>
<time>2022-09-02T11:46:46.161Z</time>
</trkpt>
<trkpt lat="31.7936100" lon="34.9664900">
<ele>219.729996</ele>
<time>2022-09-02T11:46:46.161Z</time>
</trkpt>
<trkpt lat="31.7936000" lon="34.9665300">
<ele>220.020004</ele>
<time>2022-09-02T11:46:46.161Z</time>
</trkpt>
<trkpt lat="31.7935900" lon="34.9665700">
<ele>220.300003</ele>
<time>2022-09-02T11:46:46.161Z</time>
</trkpt>
<trkpt lat="31.7935800" lon="34.9666000">
<ele>220.519989</ele>
<time>2022-09-02T11:46:46.161Z</time>
</trkpt>
<trkpt lat="31.7935600" lon="34.9666400">
<ele>220.809998</ele>
<time>2022-09-02T11:46:46.161Z</time>
</trkpt>
<trkpt lat="31.7935500" lon="34.9666800">
<ele>221.050003</ele>
<time>2022-09-02T11:46:46.161Z</time>
</trkpt>
<trkpt lat="31.7935300" lon="34.9667100">
<ele>221.160004</ele>
<time>2022-09-02T11:46:46.161Z</time>
</trkpt>
<trkpt lat="31.7935100" lon="34.9667600">
<ele>221.339996</ele>
<time>2022-09-02T11:46:46.161Z</time>
</trkpt>
<trkpt lat="31.7934900" lon="34.9668000">
<ele>221.480011</ele>
<time>2022-09-02T11:46:46.161Z</time>
</trkpt>
<trkpt lat="31.7934800" lon="34.9668300">
<ele>221.590012</ele>
<time>2022-09-02T11:46:46.161Z</time>
</trkpt>
<trkpt lat="31.7934500" lon="34.9668600">
<ele>221.699997</ele>
<time>2022-09-02T11:46:46.161Z</time>
</trkpt>
<trkpt lat="31.7934300" lon="34.9668900">
<ele>221.800003</ele>
<time>2022-09-02T11:46:46.161Z</time>
</trkpt>
<trkpt lat="31.7934000" lon="34.9669200">
<ele>221.910004</ele>
<time>2022-09-02T11:46:46.161Z</time>
</trkpt>
<trkpt lat="31.7933800" lon="34.9669500">
<ele>222.069992</ele>
<time>2022-09-02T11:46:46.161Z</time>
</trkpt>
<trkpt lat="31.7933600" lon="34.9669700">
<ele>222.339996</ele>
<time>2022-09-02T11:46:46.161Z</time>
</trkpt>
<trkpt lat="31.7933200" lon="34.9670100">
<ele>222.870010</ele>
<time>2022-09-02T11:46:46.161Z</time>
</trkpt>
<trkpt lat="31.7932900" lon="34.9670400">
<ele>223.170013</ele>
<time>2022-09-02T11:46:46.161Z</time>
</trkpt>
<trkpt lat="31.7932800" lon="34.9670600">
<ele>223.440002</ele>
<time>2022-09-02T11:46:46.161Z</time>
</trkpt>
<trkpt lat="31.7932500" lon="34.9670900">
<ele>223.809998</ele>
<time>2022-09-02T11:46:46.161Z</time>
</trkpt>
<trkpt lat="31.7932100" lon="34.9671100">
<ele>224.030014</ele>
<time>2022-09-02T11:46:46.162Z</time>
</trkpt>
<trkpt lat="31.7931800" lon="34.9671400">
<ele>224.490005</ele>
<time>2022-09-02T11:46:46.162Z</time>
</trkpt>
<trkpt lat="31.7931500" lon="34.9671600">
<ele>224.809998</ele>
<time>2022-09-02T11:46:46.162Z</time>
</trkpt>
<trkpt lat="31.7931100" lon="34.9671900">
<ele>225.350006</ele>
<time>2022-09-02T11:46:46.162Z</time>
</trkpt>
<trkpt lat="31.7930800" lon="34.9672200">
<ele>225.949997</ele>
<time>2022-09-02T11:46:46.162Z</time>
</trkpt>
<trkpt lat="31.7930500" lon="34.9672400">
<ele>226.110001</ele>
<time>2022-09-02T11:46:46.162Z</time>
</trkpt>
<trkpt lat="31.7930200" lon="34.9672700">
<ele>226.520004</ele>
<time>2022-09-02T11:46:46.162Z</time>
</trkpt>
<trkpt lat="31.7929900" lon="34.9672800">
<ele>226.879990</ele>
<time>2022-09-02T11:46:46.162Z</time>
</trkpt>
<trkpt lat="31.7929500" lon="34.9673000">
<ele>227.470001</ele>
<time>2022-09-02T11:46:46.162Z</time>
</trkpt>
<trkpt lat="31.7929200" lon="34.9673100">
<ele>227.909988</ele>
<time>2022-09-02T11:46:46.162Z</time>
</trkpt>
<trkpt lat="31.7928900" lon="34.9673200">
<ele>228.379990</ele>
<time>2022-09-02T11:46:46.162Z</time>
</trkpt>
<trkpt lat="31.7928600" lon="34.9673400">
<ele>229.029999</ele>
<time>2022-09-02T11:46:46.162Z</time>
</trkpt>
<trkpt lat="31.7928300" lon="34.9673600">
<ele>229.729996</ele>
<time>2022-09-02T11:46:46.162Z</time>
</trkpt>
<trkpt lat="31.7927900" lon="34.9673800">
<ele>230.649994</ele>
<time>2022-09-02T11:46:46.162Z</time>
</trkpt>
<trkpt lat="31.7927700" lon="34.9674000">
<ele>231.269989</ele>
<time>2022-09-02T11:46:46.162Z</time>
</trkpt>
<trkpt lat="31.7927400" lon="34.9674200">
<ele>231.929993</ele>
<time>2022-09-02T11:46:46.162Z</time>
</trkpt>
<trkpt lat="31.7927000" lon="34.9674500">
<ele>232.890015</ele>
<time>2022-09-02T11:46:46.162Z</time>
</trkpt>
<trkpt lat="31.7926600" lon="34.9674900">
<ele>234.080002</ele>
<time>2022-09-02T11:46:46.162Z</time>
</trkpt>
<trkpt lat="31.7926400" lon="34.9675200">
<ele>234.850006</ele>
<time>2022-09-02T11:46:46.162Z</time>
</trkpt>
<trkpt lat="31.7926200" lon="34.9675500">
<ele>235.580002</ele>
<time>2022-09-02T11:46:46.162Z</time>
</trkpt>
<trkpt lat="31.7926000" lon="34.9675800">
<ele>236.279999</ele>
<time>2022-09-02T11:46:46.162Z</time>
</trkpt>
<trkpt lat="31.7925900" lon="34.9676300">
<ele>237.199997</ele>
<time>2022-09-02T11:46:46.162Z</time>
</trkpt>
<trkpt lat="31.7925800" lon="34.9676600">
<ele>237.770004</ele>
<time>2022-09-02T11:46:46.162Z</time>
</trkpt>
<trkpt lat="31.7925600" lon="34.9677000">
<ele>238.540009</ele>
<time>2022-09-02T11:46:46.162Z</time>
</trkpt>
<trkpt lat="31.7925500" lon="34.9677300">
<ele>239.070007</ele>
<time>2022-09-02T11:46:46.162Z</time>
</trkpt>
<trkpt lat="31.7925500" lon="34.9677800">
<ele>239.880005</ele>
<time>2022-09-02T11:46:46.162Z</time>
</trkpt>
<trkpt lat="31.7925500" lon="34.9678200">
<ele>240.870010</ele>
<time>2022-09-02T11:46:46.162Z</time>
</trkpt>
<trkpt lat="31.7925500" lon="34.9678600">
<ele>241.869995</ele>
<time>2022-09-02T11:46:46.162Z</time>
</trkpt>
<trkpt lat="31.7925500" lon="34.9678900">
<ele>242.619995</ele>
<time>2022-09-02T11:46:46.162Z</time>
</trkpt>
<trkpt lat="31.7925500" lon="34.9679400">
<ele>243.860001</ele>
<time>2022-09-02T11:46:46.162Z</time>
</trkpt>
<trkpt lat="31.7925500" lon="34.9679800">
<ele>244.860001</ele>
<time>2022-09-02T11:46:46.163Z</time>
</trkpt>
<trkpt lat="31.7925500" lon="34.9680200">
<ele>245.849991</ele>
<time>2022-09-02T11:46:46.163Z</time>
</trkpt>
<trkpt lat="31.7925400" lon="34.9680500">
<ele>246.849991</ele>
<time>2022-09-02T11:46:46.163Z</time>
</trkpt>
<trkpt lat="31.7925300" lon="34.9680800">
<ele>247.539993</ele>
<time>2022-09-02T11:46:46.163Z</time>
</trkpt>
<trkpt lat="31.7925200" lon="34.9681100">
<ele>248.130005</ele>
<time>2022-09-02T11:46:46.163Z</time>
</trkpt>
<trkpt lat="31.7925000" lon="34.9681400">
<ele>248.910004</ele>
<time>2022-09-02T11:46:46.163Z</time>
</trkpt>
<trkpt lat="31.7924800" lon="34.9681800">
<ele>249.169998</ele>
<time>2022-09-02T11:46:46.163Z</time>
</trkpt>
<trkpt lat="31.7924700" lon="34.9682200">
<ele>249.500015</ele>
<time>2022-09-02T11:46:46.163Z</time>
</trkpt>
<trkpt lat="31.7924700" lon="34.9682700">
<ele>250.019989</ele>
<time>2022-09-02T11:46:46.163Z</time>
</trkpt>
<trkpt lat="31.7924600" lon="34.9683200">
<ele>250.429993</ele>
<time>2022-09-02T11:46:46.163Z</time>
</trkpt>
<trkpt lat="31.7924600" lon="34.9683500">
<ele>250.710007</ele>
<time>2022-09-02T11:46:46.163Z</time>
</trkpt>
<trkpt lat="31.7924500" lon="34.9683800">
<ele>250.860001</ele>
<time>2022-09-02T11:46:46.163Z</time>
</trkpt>
<trkpt lat="31.7924400" lon="34.9684100">
<ele>251.020004</ele>
<time>2022-09-02T11:46:46.163Z</time>
</trkpt>
<trkpt lat="31.7924200" lon="34.9684300">
<ele>251.029999</ele>
<time>2022-09-02T11:46:46.163Z</time>
</trkpt>
<trkpt lat="31.7923900" lon="34.9684600">
<ele>251.089996</ele>
<time>2022-09-02T11:46:46.163Z</time>
</trkpt>
<trkpt lat="31.7923700" lon="34.9684700">
<ele>251.040009</ele>
<time>2022-09-02T11:46:46.163Z</time>
</trkpt>
<trkpt lat="31.7923400" lon="34.9684900">
<ele>251.050003</ele>
<time>2022-09-02T11:46:46.163Z</time>
</trkpt>
<trkpt lat="31.7923000" lon="34.9685100">
<ele>251.029999</ele>
<time>2022-09-02T11:46:46.163Z</time>
</trkpt>
<trkpt lat="31.7922700" lon="34.9685100">
<ele>250.839996</ele>
<time>2022-09-02T11:46:46.163Z</time>
</trkpt>
<trkpt lat="31.7922200" lon="34.9685200">
<ele>250.659988</ele>
<time>2022-09-02T11:46:46.163Z</time>
</trkpt>
<trkpt lat="31.7921900" lon="34.9685300">
<ele>250.400009</ele>
<time>2022-09-02T11:46:46.163Z</time>
</trkpt>
<trkpt lat="31.7921500" lon="34.9685400">
<ele>250.000000</ele>
<time>2022-09-02T11:46:46.163Z</time>
</trkpt>
<trkpt lat="31.7921200" lon="34.9685500">
<ele>249.729996</ele>
<time>2022-09-02T11:46:46.163Z</time>
</trkpt>
<trkpt lat="31.7920900" lon="34.9685500">
<ele>249.320007</ele>
<time>2022-09-02T11:46:46.163Z</time>
</trkpt>
<trkpt lat="31.7920500" lon="34.9685600">
<ele>248.900009</ele>
<time>2022-09-02T11:46:46.163Z</time>
</trkpt>
<trkpt lat="31.7920100" lon="34.9685600">
<ele>248.349991</ele>
<time>2022-09-02T11:46:46.163Z</time>
</trkpt>
<trkpt lat="31.7919700" lon="34.9685600">
<ele>247.800003</ele>
<time>2022-09-02T11:46:46.163Z</time>
</trkpt>
<trkpt lat="31.7919400" lon="34.9685600">
<ele>247.410004</ele>
<time>2022-09-02T11:46:46.163Z</time>
</trkpt>
<trkpt lat="31.7919100" lon="34.9685600">
<ele>247.149994</ele>
<time>2022-09-02T11:46:46.163Z</time>
</trkpt>
<trkpt lat="31.7918600" lon="34.9685600">
<ele>246.729996</ele>
<time>2022-09-02T11:46:46.163Z</time>
</trkpt>
<trkpt lat="31.7918100" lon="34.9685500">
<ele>246.160004</ele>
<time>2022-09-02T11:46:46.164Z</time>
</trkpt>
<trkpt lat="31.7917700" lon="34.9685500">
<ele>245.809998</ele>
<time>2022-09-02T11:46:46.164Z</time>
</trkpt>
<trkpt lat="31.7917300" lon="34.9685400">
<ele>245.289993</ele>
<time>2022-09-02T11:46:46.164Z</time>
</trkpt>
<trkpt lat="31.7917000" lon="34.9685300">
<ele>244.850006</ele>
<time>2022-09-02T11:46:46.164Z</time>
</trkpt>
<trkpt lat="31.7916500" lon="34.9685200">
<ele>244.340012</ele>
<time>2022-09-02T11:46:46.164Z</time>
</trkpt>
<trkpt lat="31.7916200" lon="34.9685100">
<ele>244.100006</ele>
<time>2022-09-02T11:46:46.164Z</time>
</trkpt>
<trkpt lat="31.7915800" lon="34.9685100">
<ele>244.040009</ele>
<time>2022-09-02T11:46:46.164Z</time>
</trkpt>
<trkpt lat="31.7915500" lon="34.9685000">
<ele>243.750000</ele>
<time>2022-09-02T11:46:46.164Z</time>
</trkpt>
<trkpt lat="31.7915100" lon="34.9684900">
<ele>243.400009</ele>
<time>2022-09-02T11:46:46.164Z</time>
</trkpt>
<trkpt lat="31.7914600" lon="34.9684800">
<ele>242.979996</ele>
<time>2022-09-02T11:46:46.164Z</time>
</trkpt>
<trkpt lat="31.7914200" lon="34.9684700">
<ele>242.540009</ele>
<time>2022-09-02T11:46:46.164Z</time>
</trkpt>
<trkpt lat="31.7913800" lon="34.9684600">
<ele>242.320007</ele>
<time>2022-09-02T11:46:46.164Z</time>
</trkpt>
<trkpt lat="31.7913400" lon="34.9684600">
<ele>243.270004</ele>
<time>2022-09-02T11:46:46.164Z</time>
</trkpt>
<trkpt lat="31.7913000" lon="34.9684500">
<ele>243.939987</ele>
<time>2022-09-02T11:46:46.164Z</time>
</trkpt>
<trkpt lat="31.7912600" lon="34.9684500">
<ele>244.910004</ele>
<time>2022-09-02T11:46:46.164Z</time>
</trkpt>
<trkpt lat="31.7912100" lon="34.9684600">
<ele>246.379990</ele>
<time>2022-09-02T11:46:46.164Z</time>
</trkpt>
<trkpt lat="31.7911700" lon="34.9684600">
<ele>247.330002</ele>
<time>2022-09-02T11:46:46.164Z</time>
</trkpt>
<trkpt lat="31.7911100" lon="34.9684600">
<ele>248.740005</ele>
<time>2022-09-02T11:46:46.164Z</time>
</trkpt>
<trkpt lat="31.7910700" lon="34.9684600">
<ele>248.900009</ele>
<time>2022-09-02T11:46:46.164Z</time>
</trkpt>
<trkpt lat="31.7910400" lon="34.9684600">
<ele>249.009995</ele>
<time>2022-09-02T11:46:46.164Z</time>
</trkpt>
<trkpt lat="31.7909900" lon="34.9684500">
<ele>249.030014</ele>
<time>2022-09-02T11:46:46.164Z</time>
</trkpt>
<trkpt lat="31.7909500" lon="34.9684400">
<ele>249.020004</ele>
<time>2022-09-02T11:46:46.164Z</time>
</trkpt>
<trkpt lat="31.7909100" lon="34.9684200">
<ele>248.869995</ele>
<time>2022-09-02T11:46:46.164Z</time>
</trkpt>
<trkpt lat="31.7908700" lon="34.9684100">
<ele>248.910004</ele>
<time>2022-09-02T11:46:46.164Z</time>
</trkpt>
<trkpt lat="31.7908100" lon="34.9683800">
<ele>249.159988</ele>
<time>2022-09-02T11:46:46.164Z</time>
</trkpt>
<trkpt lat="31.7907900" lon="34.9683700">
<ele>249.439987</ele>
<time>2022-09-02T11:46:46.165Z</time>
</trkpt>
<trkpt lat="31.7907400" lon="34.9683500">
<ele>250.240005</ele>
<time>2022-09-02T11:46:46.165Z</time>
</trkpt>
<trkpt lat="31.7906900" lon="34.9683300">
<ele>251.060013</ele>
<time>2022-09-02T11:46:46.165Z</time>
</trkpt>
<trkpt lat="31.7906400" lon="34.9683100">
<ele>251.920013</ele>
<time>2022-09-02T11:46:46.165Z</time>
</trkpt>
<trkpt lat="31.7905700" lon="34.9682900">
<ele>253.220001</ele>
<time>2022-09-02T11:46:46.165Z</time>
</trkpt>
<trkpt lat="31.7905100" lon="34.9682800">
<ele>253.319992</ele>
<time>2022-09-02T11:46:46.165Z</time>
</trkpt>
<trkpt lat="31.7904400" lon="34.9682700">
<ele>253.089996</ele>
<time>2022-09-02T11:46:46.165Z</time>
</trkpt>
<trkpt lat="31.7903800" lon="34.9682600">
<ele>252.909988</ele>
<time>2022-09-02T11:46:46.165Z</time>
</trkpt>
<trkpt lat="31.7903000" lon="34.9682500">
<ele>252.730011</ele>
<time>2022-09-02T11:46:46.165Z</time>
</trkpt>
<trkpt lat="31.7902200" lon="34.9682400">
<ele>252.869995</ele>
<time>2022-09-02T11:46:46.165Z</time>
</trkpt>
<trkpt lat="31.7901600" lon="34.9682400">
<ele>253.079987</ele>
<time>2022-09-02T11:46:46.165Z</time>
</trkpt>
<trkpt lat="31.7900900" lon="34.9682300">
<ele>253.229996</ele>
<time>2022-09-02T11:46:46.165Z</time>
</trkpt>
<trkpt lat="31.7900400" lon="34.9682100">
<ele>253.130005</ele>
<time>2022-09-02T11:46:46.165Z</time>
</trkpt>
<trkpt lat="31.7899800" lon="34.9682000">
<ele>253.979996</ele>
<time>2022-09-02T11:46:46.165Z</time>
</trkpt>
<trkpt lat="31.7899300" lon="34.9681700">
<ele>255.779999</ele>
<time>2022-09-02T11:46:46.165Z</time>
</trkpt>
<trkpt lat="31.7898900" lon="34.9681400">
<ele>257.089996</ele>
<time>2022-09-02T11:46:46.165Z</time>
</trkpt>
<trkpt lat="31.7898500" lon="34.9681100">
<ele>258.369995</ele>
<time>2022-09-02T11:46:46.165Z</time>
</trkpt>
<trkpt lat="31.7897900" lon="34.9680900">
<ele>260.660004</ele>
<time>2022-09-02T11:46:46.165Z</time>
</trkpt>
<trkpt lat="31.7897400" lon="34.9680700">
<ele>262.490021</ele>
<time>2022-09-02T11:46:46.165Z</time>
</trkpt>
<trkpt lat="31.7896900" lon="34.9680500">
<ele>264.220001</ele>
<time>2022-09-02T11:46:46.165Z</time>
</trkpt>
<trkpt lat="31.7896400" lon="34.9680300">
<ele>265.709991</ele>
<time>2022-09-02T11:46:46.165Z</time>
</trkpt>
<trkpt lat="31.7895600" lon="34.9679900">
<ele>267.570007</ele>
<time>2022-09-02T11:46:46.165Z</time>
</trkpt>
<trkpt lat="31.7895000" lon="34.9679500">
<ele>268.339996</ele>
<time>2022-09-02T11:46:46.165Z</time>
</trkpt>
<trkpt lat="31.7894400" lon="34.9679100">
<ele>268.820007</ele>
<time>2022-09-02T11:46:46.165Z</time>
</trkpt>
<trkpt lat="31.7893900" lon="34.9678800">
<ele>268.839996</ele>
<time>2022-09-02T11:46:46.165Z</time>
</trkpt>
<trkpt lat="31.7893500" lon="34.9678500">
<ele>268.660004</ele>
<time>2022-09-02T11:46:46.165Z</time>
</trkpt>
<trkpt lat="31.7893100" lon="34.9678100">
<ele>268.149994</ele>
<time>2022-09-02T11:46:46.165Z</time>
</trkpt>
<trkpt lat="31.7892700" lon="34.9677700">
<ele>267.459991</ele>
<time>2022-09-02T11:46:46.165Z</time>
</trkpt>
<trkpt lat="31.7892300" lon="34.9676800">
<ele>261.830017</ele>
<time>2022-09-02T11:46:46.165Z</time>
</trkpt>
<trkpt lat="31.7891700" lon="34.9675800">
<ele>255.280014</ele>
<time>2022-09-02T11:46:46.166Z</time>
</trkpt>
<trkpt lat="31.7891300" lon="34.9675300">
<ele>253.160004</ele>
<time>2022-09-02T11:46:46.166Z</time>
</trkpt>
<trkpt lat="31.7890300" lon="34.9674400">
<ele>254.230011</ele>
<time>2022-09-02T11:46:46.166Z</time>
</trkpt>
<trkpt lat="31.7890000" lon="34.9674000">
<ele>254.259995</ele>
<time>2022-09-02T11:46:46.166Z</time>
</trkpt>
<trkpt lat="31.7889500" lon="34.9673100">
<ele>253.089996</ele>
<time>2022-09-02T11:46:46.166Z</time>
</trkpt>
<trkpt lat="31.7889500" lon="34.9672000">
<ele>249.439987</ele>
<time>2022-09-02T11:46:46.166Z</time>
</trkpt>
<trkpt lat="31.7889500" lon="34.9671500">
<ele>249.119995</ele>
<time>2022-09-02T11:46:46.166Z</time>
</trkpt>
<trkpt lat="31.7889500" lon="34.9671000">
<ele>248.799988</ele>
<time>2022-09-02T11:46:46.166Z</time>
</trkpt>
<trkpt lat="31.7890000" lon="34.9670000">
<ele>246.319992</ele>
<time>2022-09-02T11:46:46.166Z</time>
</trkpt>
<trkpt lat="31.7890500" lon="34.9669000">
<ele>244.570007</ele>
<time>2022-09-02T11:46:46.166Z</time>
</trkpt>
<trkpt lat="31.7890800" lon="34.9668400">
<ele>244.150009</ele>
<time>2022-09-02T11:46:46.166Z</time>
</trkpt>
<trkpt lat="31.7891100" lon="34.9667800">
<ele>243.919998</ele>
<time>2022-09-02T11:46:46.166Z</time>
</trkpt>
<trkpt lat="31.7891300" lon="34.9666300">
<ele>245.320007</ele>
<time>2022-09-02T11:46:46.166Z</time>
</trkpt>
<trkpt lat="31.7891300" lon="34.9665600">
<ele>246.330002</ele>
<time>2022-09-02T11:46:46.166Z</time>
</trkpt>
<trkpt lat="31.7891200" lon="34.9664400">
<ele>248.270004</ele>
<time>2022-09-02T11:46:46.166Z</time>
</trkpt>
<trkpt lat="31.7891100" lon="34.9663900">
<ele>249.209991</ele>
<time>2022-09-02T11:46:46.166Z</time>
</trkpt>
<trkpt lat="31.7890900" lon="34.9663600">
<ele>249.330002</ele>
<time>2022-09-02T11:46:46.166Z</time>
</trkpt>
<trkpt lat="31.7890500" lon="34.9662900">
<ele>249.540009</ele>
<time>2022-09-02T11:46:46.166Z</time>
</trkpt>
<trkpt lat="31.7890200" lon="34.9662700">
<ele>250.130005</ele>
<time>2022-09-02T11:46:46.166Z</time>
</trkpt>
<trkpt lat="31.7890000" lon="34.9662300">
<ele>250.339996</ele>
<time>2022-09-02T11:46:46.166Z</time>
</trkpt>
<trkpt lat="31.7889800" lon="34.9662000">
<ele>250.679993</ele>
<time>2022-09-02T11:46:46.166Z</time>
</trkpt>
<trkpt lat="31.7889500" lon="34.9661800">
<ele>251.429993</ele>
<time>2022-09-02T11:46:46.166Z</time>
</trkpt>
<trkpt lat="31.7889100" lon="34.9661700">
<ele>252.580002</ele>
<time>2022-09-02T11:46:46.166Z</time>
</trkpt>
<trkpt lat="31.7888500" lon="34.9661400">
<ele>254.050003</ele>
<time>2022-09-02T11:46:46.166Z</time>
</trkpt>
<trkpt lat="31.7888000" lon="34.9661300">
<ele>255.259995</ele>
<time>2022-09-02T11:46:46.166Z</time>
</trkpt>
<trkpt lat="31.7887600" lon="34.9661200">
<ele>256.250000</ele>
<time>2022-09-02T11:46:46.166Z</time>
</trkpt>
<trkpt lat="31.7887300" lon="34.9661000">
<ele>256.899994</ele>
<time>2022-09-02T11:46:46.166Z</time>
</trkpt>
<trkpt lat="31.7886800" lon="34.9660700">
<ele>257.970001</ele>
<time>2022-09-02T11:46:46.166Z</time>
</trkpt>
<trkpt lat="31.7886300" lon="34.9660400">
<ele>259.199982</ele>
<time>2022-09-02T11:46:46.166Z</time>
</trkpt>
<trkpt lat="31.7886000" lon="34.9660100">
<ele>259.679993</ele>
<time>2022-09-02T11:46:46.167Z</time>
</trkpt>
<trkpt lat="31.7885500" lon="34.9659700">
<ele>259.710022</ele>
<time>2022-09-02T11:46:46.167Z</time>
</trkpt>
<trkpt lat="31.7885100" lon="34.9659300">
<ele>259.710022</ele>
<time>2022-09-02T11:46:46.167Z</time>
</trkpt>
<trkpt lat="31.7884800" lon="34.9659100">
<ele>259.750000</ele>
<time>2022-09-02T11:46:46.167Z</time>
</trkpt>
<trkpt lat="31.7884400" lon="34.9658800">
<ele>259.779999</ele>
<time>2022-09-02T11:46:46.167Z</time>
</trkpt>
<trkpt lat="31.7884100" lon="34.9658500">
<ele>259.779999</ele>
<time>2022-09-02T11:46:46.167Z</time>
</trkpt>
<trkpt lat="31.7883800" lon="34.9658300">
<ele>259.790009</ele>
<time>2022-09-02T11:46:46.167Z</time>
</trkpt>
<trkpt lat="31.7883500" lon="34.9657900">
<ele>259.429993</ele>
<time>2022-09-02T11:46:46.167Z</time>
</trkpt>
<trkpt lat="31.7883200" lon="34.9657500">
<ele>259.079987</ele>
<time>2022-09-02T11:46:46.167Z</time>
</trkpt>
<trkpt lat="31.7882800" lon="34.9657000">
<ele>258.550018</ele>
<time>2022-09-02T11:46:46.167Z</time>
</trkpt>
<trkpt lat="31.7882000" lon="34.9656000">
<ele>257.809998</ele>
<time>2022-09-02T11:46:46.167Z</time>
</trkpt>
<trkpt lat="31.7881500" lon="34.9655500">
<ele>257.549988</ele>
<time>2022-09-02T11:46:46.167Z</time>
</trkpt>
<trkpt lat="31.7881000" lon="34.9655000">
<ele>256.779999</ele>
<time>2022-09-02T11:46:46.167Z</time>
</trkpt>
<trkpt lat="31.7880500" lon="34.9654500">
<ele>256.000000</ele>
<time>2022-09-02T11:46:46.167Z</time>
</trkpt>
<trkpt lat="31.7879600" lon="34.9653500">
<ele>252.410004</ele>
<time>2022-09-02T11:46:46.167Z</time>
</trkpt>
<trkpt lat="31.7878600" lon="34.9652800">
<ele>248.830002</ele>
<time>2022-09-02T11:46:46.167Z</time>
</trkpt>
<trkpt lat="31.7878200" lon="34.9652400">
<ele>246.800003</ele>
<time>2022-09-02T11:46:46.167Z</time>
</trkpt>
<trkpt lat="31.7877600" lon="34.9651500">
<ele>243.110001</ele>
<time>2022-09-02T11:46:46.167Z</time>
</trkpt>
<trkpt lat="31.7877300" lon="34.9651000">
<ele>241.510010</ele>
<time>2022-09-02T11:46:46.167Z</time>
</trkpt>
<trkpt lat="31.7876400" lon="34.9650400">
<ele>239.719986</ele>
<time>2022-09-02T11:46:46.167Z</time>
</trkpt>
<trkpt lat="31.7875500" lon="34.9650300">
<ele>239.330002</ele>
<time>2022-09-02T11:46:46.167Z</time>
</trkpt>
<trkpt lat="31.7874900" lon="34.9650300">
<ele>239.279999</ele>
<time>2022-09-02T11:46:46.167Z</time>
</trkpt>
<trkpt lat="31.7874600" lon="34.9650300">
<ele>239.470001</ele>
<time>2022-09-02T11:46:46.167Z</time>
</trkpt>
<trkpt lat="31.7874200" lon="34.9650300">
<ele>239.729996</ele>
<time>2022-09-02T11:46:46.167Z</time>
</trkpt>
<trkpt lat="31.7873900" lon="34.9650300">
<ele>239.919998</ele>
<time>2022-09-02T11:46:46.167Z</time>
</trkpt>
<trkpt lat="31.7873500" lon="34.9650400">
<ele>240.210007</ele>
<time>2022-09-02T11:46:46.167Z</time>
</trkpt>
<trkpt lat="31.7873200" lon="34.9650500">
<ele>240.419998</ele>
<time>2022-09-02T11:46:46.167Z</time>
</trkpt>
<trkpt lat="31.7872900" lon="34.9650500">
<ele>240.599991</ele>
<time>2022-09-02T11:46:46.167Z</time>
</trkpt>
<trkpt lat="31.7872500" lon="34.9650400">
<ele>240.830002</ele>
<time>2022-09-02T11:46:46.168Z</time>
</trkpt>
<trkpt lat="31.7872300" lon="34.9650300">
<ele>240.949997</ele>
<time>2022-09-02T11:46:46.168Z</time>
</trkpt>
<trkpt lat="31.7872000" lon="34.9650100">
<ele>241.320007</ele>
<time>2022-09-02T11:46:46.168Z</time>
</trkpt>
<trkpt lat="31.7871600" lon="34.9650100">
<ele>241.900009</ele>
<time>2022-09-02T11:46:46.168Z</time>
</trkpt>
<trkpt lat="31.7871200" lon="34.9650000">
<ele>242.470001</ele>
<time>2022-09-02T11:46:46.168Z</time>
</trkpt>
<trkpt lat="31.7870800" lon="34.9650100">
<ele>243.050003</ele>
<time>2022-09-02T11:46:46.168Z</time>
</trkpt>
<trkpt lat="31.7870500" lon="34.9650200">
<ele>243.480011</ele>
<time>2022-09-02T11:46:46.168Z</time>
</trkpt>
<trkpt lat="31.7870200" lon="34.9650400">
<ele>243.910004</ele>
<time>2022-09-02T11:46:46.168Z</time>
</trkpt>
<trkpt lat="31.7869900" lon="34.9650600">
<ele>244.340012</ele>
<time>2022-09-02T11:46:46.168Z</time>
</trkpt>
<trkpt lat="31.7869600" lon="34.9650700">
<ele>244.779999</ele>
<time>2022-09-02T11:46:46.168Z</time>
</trkpt>
<trkpt lat="31.7869200" lon="34.9650900">
<ele>245.150009</ele>
<time>2022-09-02T11:46:46.168Z</time>
</trkpt>
<trkpt lat="31.7868900" lon="34.9651000">
<ele>245.339996</ele>
<time>2022-09-02T11:46:46.168Z</time>
</trkpt>
<trkpt lat="31.7868500" lon="34.9651200">
<ele>245.629990</ele>
<time>2022-09-02T11:46:46.168Z</time>
</trkpt>
<trkpt lat="31.7868300" lon="34.9651300">
<ele>245.799988</ele>
<time>2022-09-02T11:46:46.168Z</time>
</trkpt>
<trkpt lat="31.7867800" lon="34.9651400">
<ele>246.190002</ele>
<time>2022-09-02T11:46:46.168Z</time>
</trkpt>
<trkpt lat="31.7867500" lon="34.9651400">
<ele>246.410004</ele>
<time>2022-09-02T11:46:46.168Z</time>
</trkpt>
<trkpt lat="31.7867000" lon="34.9651400">
<ele>246.770004</ele>
<time>2022-09-02T11:46:46.168Z</time>
</trkpt>
<trkpt lat="31.7866800" lon="34.9651300">
<ele>246.839996</ele>
<time>2022-09-02T11:46:46.168Z</time>
</trkpt>
<trkpt lat="31.7866500" lon="34.9651000">
<ele>246.959991</ele>
<time>2022-09-02T11:46:46.168Z</time>
</trkpt>
<trkpt lat="31.7866300" lon="34.9650600">
<ele>246.959991</ele>
<time>2022-09-02T11:46:46.168Z</time>
</trkpt>
<trkpt lat="31.7866300" lon="34.9650200">
<ele>246.669998</ele>
<time>2022-09-02T11:46:46.168Z</time>
</trkpt>
<trkpt lat="31.7866400" lon="34.9649800">
<ele>246.449997</ele>
<time>2022-09-02T11:46:46.168Z</time>
</trkpt>
<trkpt lat="31.7866600" lon="34.9649500">
<ele>246.269989</ele>
<time>2022-09-02T11:46:46.168Z</time>
</trkpt>
<trkpt lat="31.7866800" lon="34.9649200">
<ele>246.240005</ele>
<time>2022-09-02T11:46:46.168Z</time>
</trkpt>
<trkpt lat="31.7867100" lon="34.9648900">
<ele>246.240005</ele>
<time>2022-09-02T11:46:46.168Z</time>
</trkpt>
<trkpt lat="31.7867300" lon="34.9648700">
<ele>246.240005</ele>
<time>2022-09-02T11:46:46.168Z</time>
</trkpt>
<trkpt lat="31.7867600" lon="34.9648400">
<ele>246.240005</ele>
<time>2022-09-02T11:46:46.168Z</time>
</trkpt>
<trkpt lat="31.7867900" lon="34.9648200">
<ele>246.200012</ele>
<time>2022-09-02T11:46:46.168Z</time>
</trkpt>
<trkpt lat="31.7868400" lon="34.9647900">
<ele>246.130005</ele>
<time>2022-09-02T11:46:46.168Z</time>
</trkpt>
<trkpt lat="31.7868700" lon="34.9647700">
<ele>246.099991</ele>
<time>2022-09-02T11:46:46.168Z</time>
</trkpt>
<trkpt lat="31.7869100" lon="34.9647500">
<ele>246.020004</ele>
<time>2022-09-02T11:46:46.168Z</time>
</trkpt>
<trkpt lat="31.7869500" lon="34.9647300">
<ele>245.949997</ele>
<time>2022-09-02T11:46:46.169Z</time>
</trkpt>
<trkpt lat="31.7870000" lon="34.9647200">
<ele>245.830002</ele>
<time>2022-09-02T11:46:46.169Z</time>
</trkpt>
<trkpt lat="31.7870500" lon="34.9646900">
<ele>246.079987</ele>
<time>2022-09-02T11:46:46.169Z</time>
</trkpt>
<trkpt lat="31.7870900" lon="34.9646700">
<ele>246.229996</ele>
<time>2022-09-02T11:46:46.169Z</time>
</trkpt>
<trkpt lat="31.7871300" lon="34.9646300">
<ele>246.659988</ele>
<time>2022-09-02T11:46:46.169Z</time>
</trkpt>
<trkpt lat="31.7871600" lon="34.9645900">
<ele>247.129990</ele>
<time>2022-09-02T11:46:46.169Z</time>
</trkpt>
<trkpt lat="31.7871900" lon="34.9645500">
<ele>247.599991</ele>
<time>2022-09-02T11:46:46.169Z</time>
</trkpt>
<trkpt lat="31.7872300" lon="34.9645000">
<ele>248.080002</ele>
<time>2022-09-02T11:46:46.169Z</time>
</trkpt>
<trkpt lat="31.7872600" lon="34.9644500">
<ele>248.369995</ele>
<time>2022-09-02T11:46:46.169Z</time>
</trkpt>
<trkpt lat="31.7872800" lon="34.9644100">
<ele>248.720001</ele>
<time>2022-09-02T11:46:46.169Z</time>
</trkpt>
<trkpt lat="31.7873100" lon="34.9643700">
<ele>248.979996</ele>
<time>2022-09-02T11:46:46.169Z</time>
</trkpt>
<trkpt lat="31.7873400" lon="34.9643400">
<ele>249.130005</ele>
<time>2022-09-02T11:46:46.169Z</time>
</trkpt>
<trkpt lat="31.7873900" lon="34.9643000">
<ele>249.289993</ele>
<time>2022-09-02T11:46:46.169Z</time>
</trkpt>
<trkpt lat="31.7874400" lon="34.9642400">
<ele>249.959991</ele>
<time>2022-09-02T11:46:46.169Z</time>
</trkpt>
<trkpt lat="31.7874700" lon="34.9642000">
<ele>250.520004</ele>
<time>2022-09-02T11:46:46.169Z</time>
</trkpt>
<trkpt lat="31.7875200" lon="34.9641400">
<ele>250.720001</ele>
<time>2022-09-02T11:46:46.169Z</time>
</trkpt>
<trkpt lat="31.7875700" lon="34.9640700">
<ele>250.330002</ele>
<time>2022-09-02T11:46:46.169Z</time>
</trkpt>
<trkpt lat="31.7876000" lon="34.9640200">
<ele>250.339996</ele>
<time>2022-09-02T11:46:46.169Z</time>
</trkpt>
<trkpt lat="31.7876200" lon="34.9639800">
<ele>250.480011</ele>
<time>2022-09-02T11:46:46.169Z</time>
</trkpt>
<trkpt lat="31.7876500" lon="34.9639300">
<ele>250.829987</ele>
<time>2022-09-02T11:46:46.169Z</time>
</trkpt>
<trkpt lat="31.7876800" lon="34.9638900">
<ele>251.290009</ele>
<time>2022-09-02T11:46:46.169Z</time>
</trkpt>
<trkpt lat="31.7877100" lon="34.9638400">
<ele>252.430008</ele>
<time>2022-09-02T11:46:46.169Z</time>
</trkpt>
<trkpt lat="31.7877300" lon="34.9638100">
<ele>253.119995</ele>
<time>2022-09-02T11:46:46.169Z</time>
</trkpt>
<trkpt lat="31.7877500" lon="34.9637700">
<ele>253.979996</ele>
<time>2022-09-02T11:46:46.169Z</time>
</trkpt>
<trkpt lat="31.7877800" lon="34.9637400">
<ele>254.659988</ele>
<time>2022-09-02T11:46:46.169Z</time>
</trkpt>
<trkpt lat="31.7878100" lon="34.9637000">
<ele>255.089996</ele>
<time>2022-09-02T11:46:46.169Z</time>
</trkpt>
<trkpt lat="31.7878400" lon="34.9636500">
<ele>255.790009</ele>
<time>2022-09-02T11:46:46.169Z</time>
</trkpt>
<trkpt lat="31.7878600" lon="34.9636300">
<ele>256.029999</ele>
<time>2022-09-02T11:46:46.169Z</time>
</trkpt>
<trkpt lat="31.7878800" lon="34.9635900">
<ele>256.369995</ele>
<time>2022-09-02T11:46:46.170Z</time>
</trkpt>
<trkpt lat="31.7879200" lon="34.9635300">
<ele>256.419983</ele>
<time>2022-09-02T11:46:46.170Z</time>
</trkpt>
<trkpt lat="31.7879400" lon="34.9634800">
<ele>256.580017</ele>
<time>2022-09-02T11:46:46.170Z</time>
</trkpt>
<trkpt lat="31.7879600" lon="34.9634500">
<ele>256.649994</ele>
<time>2022-09-02T11:46:46.170Z</time>
</trkpt>
<trkpt lat="31.7879800" lon="34.9634100">
<ele>256.800018</ele>
<time>2022-09-02T11:46:46.170Z</time>
</trkpt>
<trkpt lat="31.7879900" lon="34.9633800">
<ele>256.940002</ele>
<time>2022-09-02T11:46:46.170Z</time>
</trkpt>
<trkpt lat="31.7880200" lon="34.9633300">
<ele>257.149994</ele>
<time>2022-09-02T11:46:46.170Z</time>
</trkpt>
<trkpt lat="31.7880300" lon="34.9632700">
<ele>257.529999</ele>
<time>2022-09-02T11:46:46.170Z</time>
</trkpt>
<trkpt lat="31.7880600" lon="34.9632000">
<ele>257.880005</ele>
<time>2022-09-02T11:46:46.170Z</time>
</trkpt>
<trkpt lat="31.7880800" lon="34.9631500">
<ele>257.880005</ele>
<time>2022-09-02T11:46:46.170Z</time>
</trkpt>
<trkpt lat="31.7880900" lon="34.9631000">
<ele>258.059998</ele>
<time>2022-09-02T11:46:46.170Z</time>
</trkpt>
<trkpt lat="31.7881000" lon="34.9630300">
<ele>258.190002</ele>
<time>2022-09-02T11:46:46.170Z</time>
</trkpt>
<trkpt lat="31.7881000" lon="34.9629700">
<ele>258.149994</ele>
<time>2022-09-02T11:46:46.170Z</time>
</trkpt>
<trkpt lat="31.7881000" lon="34.9628900">
<ele>258.100006</ele>
<time>2022-09-02T11:46:46.170Z</time>
</trkpt>
<trkpt lat="31.7880800" lon="34.9628200">
<ele>258.490021</ele>
<time>2022-09-02T11:46:46.170Z</time>
</trkpt>
<trkpt lat="31.7880300" lon="34.9627600">
<ele>258.910004</ele>
<time>2022-09-02T11:46:46.170Z</time>
</trkpt>
<trkpt lat="31.7879800" lon="34.9627300">
<ele>258.850006</ele>
<time>2022-09-02T11:46:46.170Z</time>
</trkpt>
<trkpt lat="31.7879200" lon="34.9626900">
<ele>258.850006</ele>
<time>2022-09-02T11:46:46.170Z</time>
</trkpt>
<trkpt lat="31.7878700" lon="34.9626700">
<ele>259.019989</ele>
<time>2022-09-02T11:46:46.170Z</time>
</trkpt>
<trkpt lat="31.7878200" lon="34.9626400">
<ele>259.199982</ele>
<time>2022-09-02T11:46:46.170Z</time>
</trkpt>
<trkpt lat="31.7877800" lon="34.9626200">
<ele>259.410004</ele>
<time>2022-09-02T11:46:46.170Z</time>
</trkpt>
<trkpt lat="31.7877400" lon="34.9626000">
<ele>259.989990</ele>
<time>2022-09-02T11:46:46.170Z</time>
</trkpt>
<trkpt lat="31.7876700" lon="34.9625700">
<ele>261.089996</ele>
<time>2022-09-02T11:46:46.170Z</time>
</trkpt>
<trkpt lat="31.7876200" lon="34.9625500">
<ele>261.919983</ele>
<time>2022-09-02T11:46:46.170Z</time>
</trkpt>
<trkpt lat="31.7875500" lon="34.9625200">
<ele>263.110016</ele>
<time>2022-09-02T11:46:46.170Z</time>
</trkpt>
<trkpt lat="31.7875100" lon="34.9625000">
<ele>263.820007</ele>
<time>2022-09-02T11:46:46.170Z</time>
</trkpt>
<trkpt lat="31.7874600" lon="34.9624800">
<ele>264.470001</ele>
<time>2022-09-02T11:46:46.170Z</time>
</trkpt>
<trkpt lat="31.7874100" lon="34.9624600">
<ele>265.230011</ele>
<time>2022-09-02T11:46:46.170Z</time>
</trkpt>
<trkpt lat="31.7873700" lon="34.9624400">
<ele>265.880005</ele>
<time>2022-09-02T11:46:46.170Z</time>
</trkpt>
<trkpt lat="31.7873300" lon="34.9624200">
<ele>266.609985</ele>
<time>2022-09-02T11:46:46.170Z</time>
</trkpt>
<trkpt lat="31.7872800" lon="34.9624000">
<ele>267.660004</ele>
<time>2022-09-02T11:46:46.170Z</time>
</trkpt>
<trkpt lat="31.7872400" lon="34.9623800">
<ele>268.570007</ele>
<time>2022-09-02T11:46:46.171Z</time>
</trkpt>
<trkpt lat="31.7871800" lon="34.9623400">
<ele>269.109985</ele>
<time>2022-09-02T11:46:46.171Z</time>
</trkpt>
<trkpt lat="31.7871400" lon="34.9623100">
<ele>269.080017</ele>
<time>2022-09-02T11:46:46.171Z</time>
</trkpt>
<trkpt lat="31.7870800" lon="34.9622800">
<ele>268.910004</ele>
<time>2022-09-02T11:46:46.171Z</time>
</trkpt>
<trkpt lat="31.7870400" lon="34.9622500">
<ele>268.610016</ele>
<time>2022-09-02T11:46:46.171Z</time>
</trkpt>
<trkpt lat="31.7870000" lon="34.9622200">
<ele>268.059998</ele>
<time>2022-09-02T11:46:46.171Z</time>
</trkpt>
<trkpt lat="31.7869400" lon="34.9621800">
<ele>265.339996</ele>
<time>2022-09-02T11:46:46.171Z</time>
</trkpt>
<trkpt lat="31.7868800" lon="34.9621300">
<ele>261.429993</ele>
<time>2022-09-02T11:46:46.171Z</time>
</trkpt>
<trkpt lat="31.7867400" lon="34.9620700">
<ele>256.209991</ele>
<time>2022-09-02T11:46:46.171Z</time>
</trkpt>
<trkpt lat="31.7865900" lon="34.9620100">
<ele>250.999985</ele>
<time>2022-09-02T11:46:46.171Z</time>
</trkpt>
<trkpt lat="31.7865000" lon="34.9619800">
<ele>248.160004</ele>
<time>2022-09-02T11:46:46.171Z</time>
</trkpt>
<trkpt lat="31.7864100" lon="34.9619600">
<ele>245.929993</ele>
<time>2022-09-02T11:46:46.171Z</time>
</trkpt>
<trkpt lat="31.7863300" lon="34.9619300">
<ele>244.450012</ele>
<time>2022-09-02T11:46:46.171Z</time>
</trkpt>
<trkpt lat="31.7861900" lon="34.9618900">
<ele>243.120010</ele>
<time>2022-09-02T11:46:46.171Z</time>
</trkpt>
<trkpt lat="31.7861200" lon="34.9618700">
<ele>242.569992</ele>
<time>2022-09-02T11:46:46.171Z</time>
</trkpt>
<trkpt lat="31.7860200" lon="34.9618100">
<ele>240.779999</ele>
<time>2022-09-02T11:46:46.171Z</time>
</trkpt>
<trkpt lat="31.7859800" lon="34.9617700">
<ele>239.890015</ele>
<time>2022-09-02T11:46:46.171Z</time>
</trkpt>
<trkpt lat="31.7859400" lon="34.9617200">
<ele>238.979996</ele>
<time>2022-09-02T11:46:46.171Z</time>
</trkpt>
<trkpt lat="31.7858700" lon="34.9616000">
<ele>237.819992</ele>
<time>2022-09-02T11:46:46.171Z</time>
</trkpt>
<trkpt lat="31.7858500" lon="34.9615300">
<ele>237.279984</ele>
<time>2022-09-02T11:46:46.171Z</time>
</trkpt>
<trkpt lat="31.7858400" lon="34.9613500">
<ele>235.480011</ele>
<time>2022-09-02T11:46:46.171Z</time>
</trkpt>
<trkpt lat="31.7858400" lon="34.9612700">
<ele>234.649994</ele>
<time>2022-09-02T11:46:46.171Z</time>
</trkpt>
<trkpt lat="31.7858600" lon="34.9610800">
<ele>232.470001</ele>
<time>2022-09-02T11:46:46.171Z</time>
</trkpt>
<trkpt lat="31.7859000" lon="34.9609000">
<ele>229.750000</ele>
<time>2022-09-02T11:46:46.171Z</time>
</trkpt>
<trkpt lat="31.7859000" lon="34.9607000">
<ele>228.719986</ele>
<time>2022-09-02T11:46:46.171Z</time>
</trkpt>
<trkpt lat="31.7859000" lon="34.9605200">
<ele>229.240005</ele>
<time>2022-09-02T11:46:46.171Z</time>
</trkpt>
<trkpt lat="31.7858800" lon="34.9603500">
<ele>231.710007</ele>
<time>2022-09-02T11:46:46.171Z</time>
</trkpt>
<trkpt lat="31.7858400" lon="34.9602100">
<ele>233.960007</ele>
<time>2022-09-02T11:46:46.171Z</time>
</trkpt>
<trkpt lat="31.7858200" lon="34.9601600">
<ele>234.880005</ele>
<time>2022-09-02T11:46:46.171Z</time>
</trkpt>
<trkpt lat="31.7858000" lon="34.9601000">
<ele>235.899994</ele>
<time>2022-09-02T11:46:46.171Z</time>
</trkpt>
<trkpt lat="31.7857900" lon="34.9600500">
<ele>236.580002</ele>
<time>2022-09-02T11:46:46.171Z</time>
</trkpt>
<trkpt lat="31.7857600" lon="34.9599600">
<ele>237.259995</ele>
<time>2022-09-02T11:46:46.172Z</time>
</trkpt>
<trkpt lat="31.7857400" lon="34.9599000">
<ele>237.340012</ele>
<time>2022-09-02T11:46:46.172Z</time>
</trkpt>
<trkpt lat="31.7857300" lon="34.9598600">
<ele>237.369995</ele>
<time>2022-09-02T11:46:46.172Z</time>
</trkpt>
<trkpt lat="31.7857300" lon="34.9598300">
<ele>237.369995</ele>
<time>2022-09-02T11:46:46.172Z</time>
</trkpt>
<trkpt lat="31.7857200" lon="34.9597900">
<ele>237.409988</ele>
<time>2022-09-02T11:46:46.172Z</time>
</trkpt>
<trkpt lat="31.7857200" lon="34.9597600">
<ele>237.409988</ele>
<time>2022-09-02T11:46:46.172Z</time>
</trkpt>
<trkpt lat="31.7857200" lon="34.9597200">
<ele>237.409988</ele>
<time>2022-09-02T11:46:46.172Z</time>
</trkpt>
<trkpt lat="31.7857300" lon="34.9596800">
<ele>237.470001</ele>
<time>2022-09-02T11:46:46.172Z</time>
</trkpt>
<trkpt lat="31.7857400" lon="34.9596400">
<ele>237.529999</ele>
<time>2022-09-02T11:46:46.172Z</time>
</trkpt>
<trkpt lat="31.7857700" lon="34.9595900">
<ele>237.600006</ele>
<time>2022-09-02T11:46:46.172Z</time>
</trkpt>
<trkpt lat="31.7858100" lon="34.9595400">
<ele>237.680008</ele>
<time>2022-09-02T11:46:46.172Z</time>
</trkpt>
<trkpt lat="31.7858400" lon="34.9595100">
<ele>237.910004</ele>
<time>2022-09-02T11:46:46.172Z</time>
</trkpt>
<trkpt lat="31.7858700" lon="34.9594900">
<ele>238.670013</ele>
<time>2022-09-02T11:46:46.172Z</time>
</trkpt>
<trkpt lat="31.7859100" lon="34.9594500">
<ele>239.890015</ele>
<time>2022-09-02T11:46:46.172Z</time>
</trkpt>
<trkpt lat="31.7859400" lon="34.9594300">
<ele>240.870010</ele>
<time>2022-09-02T11:46:46.172Z</time>
</trkpt>
<trkpt lat="31.7859800" lon="34.9594100">
<ele>242.050003</ele>
<time>2022-09-02T11:46:46.172Z</time>
</trkpt>
<trkpt lat="31.7860100" lon="34.9593800">
<ele>243.019989</ele>
<time>2022-09-02T11:46:46.172Z</time>
</trkpt>
<trkpt lat="31.7860400" lon="34.9593700">
<ele>243.750000</ele>
<time>2022-09-02T11:46:46.172Z</time>
</trkpt>
<trkpt lat="31.7860700" lon="34.9593500">
<ele>244.510010</ele>
<time>2022-09-02T11:46:46.172Z</time>
</trkpt>
<trkpt lat="31.7861100" lon="34.9593300">
<ele>245.390015</ele>
<time>2022-09-02T11:46:46.172Z</time>
</trkpt>
<trkpt lat="31.7861400" lon="34.9593100">
<ele>245.479996</ele>
<time>2022-09-02T11:46:46.172Z</time>
</trkpt>
<trkpt lat="31.7861700" lon="34.9592900">
<ele>245.560013</ele>
<time>2022-09-02T11:46:46.172Z</time>
</trkpt>
<trkpt lat="31.7862000" lon="34.9592800">
<ele>245.589996</ele>
<time>2022-09-02T11:46:46.172Z</time>
</trkpt>
<trkpt lat="31.7862300" lon="34.9592500">
<ele>245.699997</ele>
<time>2022-09-02T11:46:46.172Z</time>
</trkpt>
<trkpt lat="31.7862600" lon="34.9592300">
<ele>245.770004</ele>
<time>2022-09-02T11:46:46.172Z</time>
</trkpt>
<trkpt lat="31.7862900" lon="34.9592100">
<ele>245.840012</ele>
<time>2022-09-02T11:46:46.172Z</time>
</trkpt>
<trkpt lat="31.7863400" lon="34.9591700">
<ele>245.990005</ele>
<time>2022-09-02T11:46:46.172Z</time>
</trkpt>
<trkpt lat="31.7863700" lon="34.9591300">
<ele>245.770004</ele>
<time>2022-09-02T11:46:46.172Z</time>
</trkpt>
<trkpt lat="31.7864100" lon="34.9590800">
<ele>245.169998</ele>
<time>2022-09-02T11:46:46.172Z</time>
</trkpt>
<trkpt lat="31.7864400" lon="34.9590400">
<ele>244.620010</ele>
<time>2022-09-02T11:46:46.172Z</time>
</trkpt>
<trkpt lat="31.7864700" lon="34.9590100">
<ele>244.160004</ele>
<time>2022-09-02T11:46:46.173Z</time>
</trkpt>
<trkpt lat="31.7865000" lon="34.9589800">
<ele>243.720001</ele>
<time>2022-09-02T11:46:46.173Z</time>
</trkpt>
<trkpt lat="31.7865200" lon="34.9589600">
<ele>243.449997</ele>
<time>2022-09-02T11:46:46.173Z</time>
</trkpt>
<trkpt lat="31.7865600" lon="34.9589200">
<ele>242.919998</ele>
<time>2022-09-02T11:46:46.173Z</time>
</trkpt>
<trkpt lat="31.7866000" lon="34.9588900">
<ele>242.480011</ele>
<time>2022-09-02T11:46:46.173Z</time>
</trkpt>
<trkpt lat="31.7866400" lon="34.9588500">
<ele>242.350006</ele>
<time>2022-09-02T11:46:46.173Z</time>
</trkpt>
<trkpt lat="31.7866600" lon="34.9588300">
<ele>242.269989</ele>
<time>2022-09-02T11:46:46.173Z</time>
</trkpt>
<trkpt lat="31.7867000" lon="34.9587900">
<ele>242.379990</ele>
<time>2022-09-02T11:46:46.173Z</time>
</trkpt>
<trkpt lat="31.7867300" lon="34.9587700">
<ele>242.399994</ele>
<time>2022-09-02T11:46:46.173Z</time>
</trkpt>
<trkpt lat="31.7867500" lon="34.9587400">
<ele>242.330002</ele>
<time>2022-09-02T11:46:46.173Z</time>
</trkpt>
<trkpt lat="31.7867900" lon="34.9587100">
<ele>242.099991</ele>
<time>2022-09-02T11:46:46.173Z</time>
</trkpt>
<trkpt lat="31.7868300" lon="34.9586800">
<ele>241.720001</ele>
<time>2022-09-02T11:46:46.173Z</time>
</trkpt>
<trkpt lat="31.7868600" lon="34.9586600">
<ele>241.349991</ele>
<time>2022-09-02T11:46:46.173Z</time>
</trkpt>
<trkpt lat="31.7868900" lon="34.9586500">
<ele>241.009995</ele>
<time>2022-09-02T11:46:46.173Z</time>
</trkpt>
<trkpt lat="31.7869200" lon="34.9586300">
<ele>240.510010</ele>
<time>2022-09-02T11:46:46.173Z</time>
</trkpt>
<trkpt lat="31.7869500" lon="34.9586100">
<ele>239.990005</ele>
<time>2022-09-02T11:46:46.173Z</time>
</trkpt>
<trkpt lat="31.7869800" lon="34.9585900">
<ele>240.069992</ele>
<time>2022-09-02T11:46:46.173Z</time>
</trkpt>
<trkpt lat="31.7870300" lon="34.9585600">
<ele>240.340012</ele>
<time>2022-09-02T11:46:46.173Z</time>
</trkpt>
<trkpt lat="31.7870600" lon="34.9585400">
<ele>240.630005</ele>
<time>2022-09-02T11:46:46.173Z</time>
</trkpt>
<trkpt lat="31.7870800" lon="34.9584900">
<ele>241.450012</ele>
<time>2022-09-02T11:46:46.173Z</time>
</trkpt>
<trkpt lat="31.7870900" lon="34.9584600">
<ele>241.989990</ele>
<time>2022-09-02T11:46:46.173Z</time>
</trkpt>
<trkpt lat="31.7870900" lon="34.9584200">
<ele>242.650009</ele>
<time>2022-09-02T11:46:46.173Z</time>
</trkpt>
<trkpt lat="31.7870800" lon="34.9583700">
<ele>243.369995</ele>
<time>2022-09-02T11:46:46.173Z</time>
</trkpt>
<trkpt lat="31.7870200" lon="34.9583600">
<ele>242.770004</ele>
<time>2022-09-02T11:46:46.173Z</time>
</trkpt>
<trkpt lat="31.7869800" lon="34.9583600">
<ele>242.260010</ele>
<time>2022-09-02T11:46:46.173Z</time>
</trkpt>
<trkpt lat="31.7869500" lon="34.9583800">
<ele>241.730011</ele>
<time>2022-09-02T11:46:46.173Z</time>
</trkpt>
<trkpt lat="31.7869000" lon="34.9583800">
<ele>242.540009</ele>
<time>2022-09-02T11:46:46.173Z</time>
</trkpt>
<trkpt lat="31.7868600" lon="34.9583800">
<ele>243.330002</ele>
<time>2022-09-02T11:46:46.173Z</time>
</trkpt>
<trkpt lat="31.7868300" lon="34.9583800">
<ele>243.930008</ele>
<time>2022-09-02T11:46:46.173Z</time>
</trkpt>
<trkpt lat="31.7868000" lon="34.9583700">
<ele>244.649994</ele>
<time>2022-09-02T11:46:46.173Z</time>
</trkpt>
<trkpt lat="31.7867600" lon="34.9583700">
<ele>245.459991</ele>
<time>2022-09-02T11:46:46.174Z</time>
</trkpt>
<trkpt lat="31.7867200" lon="34.9583800">
<ele>246.099991</ele>
<time>2022-09-02T11:46:46.174Z</time>
</trkpt>
<trkpt lat="31.7866800" lon="34.9583900">
<ele>246.719986</ele>
<time>2022-09-02T11:46:46.174Z</time>
</trkpt>
<trkpt lat="31.7866500" lon="34.9583900">
<ele>247.110001</ele>
<time>2022-09-02T11:46:46.174Z</time>
</trkpt>
<trkpt lat="31.7866100" lon="34.9584000">
<ele>247.259995</ele>
<time>2022-09-02T11:46:46.174Z</time>
</trkpt>
<trkpt lat="31.7865800" lon="34.9584100">
<ele>247.330002</ele>
<time>2022-09-02T11:46:46.174Z</time>
</trkpt>
<trkpt lat="31.7865400" lon="34.9584200">
<ele>247.489990</ele>
<time>2022-09-02T11:46:46.174Z</time>
</trkpt>
<trkpt lat="31.7865000" lon="34.9584400">
<ele>247.510010</ele>
<time>2022-09-02T11:46:46.174Z</time>
</trkpt>
<trkpt lat="31.7864800" lon="34.9584500">
<ele>247.530014</ele>
<time>2022-09-02T11:46:46.174Z</time>
</trkpt>
<trkpt lat="31.7864400" lon="34.9584600">
<ele>247.720001</ele>
<time>2022-09-02T11:46:46.174Z</time>
</trkpt>
<trkpt lat="31.7864000" lon="34.9584700">
<ele>247.930008</ele>
<time>2022-09-02T11:46:46.174Z</time>
</trkpt>
<trkpt lat="31.7863600" lon="34.9584800">
<ele>248.669998</ele>
<time>2022-09-02T11:46:46.174Z</time>
</trkpt>
<trkpt lat="31.7863300" lon="34.9584900">
<ele>249.350006</ele>
<time>2022-09-02T11:46:46.174Z</time>
</trkpt>
<trkpt lat="31.7863000" lon="34.9584900">
<ele>250.160004</ele>
<time>2022-09-02T11:46:46.174Z</time>
</trkpt>
<trkpt lat="31.7862700" lon="34.9585100">
<ele>250.720001</ele>
<time>2022-09-02T11:46:46.174Z</time>
</trkpt>
<trkpt lat="31.7862200" lon="34.9585100">
<ele>252.099991</ele>
<time>2022-09-02T11:46:46.174Z</time>
</trkpt>
<trkpt lat="31.7861900" lon="34.9585100">
<ele>252.919998</ele>
<time>2022-09-02T11:46:46.174Z</time>
</trkpt>
<trkpt lat="31.7861600" lon="34.9585200">
<ele>253.630005</ele>
<time>2022-09-02T11:46:46.174Z</time>
</trkpt>
<trkpt lat="31.7861300" lon="34.9585200">
<ele>254.460007</ele>
<time>2022-09-02T11:46:46.174Z</time>
</trkpt>
<trkpt lat="31.7861000" lon="34.9585200">
<ele>255.199997</ele>
<time>2022-09-02T11:46:46.174Z</time>
</trkpt>
<trkpt lat="31.7860600" lon="34.9585200">
<ele>255.970001</ele>
<time>2022-09-02T11:46:46.174Z</time>
</trkpt>
<trkpt lat="31.7860300" lon="34.9585100">
<ele>256.600006</ele>
<time>2022-09-02T11:46:46.174Z</time>
</trkpt>
<trkpt lat="31.7859900" lon="34.9585000">
<ele>257.380005</ele>
<time>2022-09-02T11:46:46.174Z</time>
</trkpt>
<trkpt lat="31.7859500" lon="34.9584900">
<ele>258.100006</ele>
<time>2022-09-02T11:46:46.174Z</time>
</trkpt>
<trkpt lat="31.7859200" lon="34.9584800">
<ele>258.610016</ele>
<time>2022-09-02T11:46:46.174Z</time>
</trkpt>
<trkpt lat="31.7858800" lon="34.9584700">
<ele>259.230011</ele>
<time>2022-09-02T11:46:46.174Z</time>
</trkpt>
<trkpt lat="31.7858500" lon="34.9584600">
<ele>259.660004</ele>
<time>2022-09-02T11:46:46.174Z</time>
</trkpt>
<trkpt lat="31.7858100" lon="34.9584400">
<ele>259.880005</ele>
<time>2022-09-02T11:46:46.174Z</time>
</trkpt>
<trkpt lat="31.7857800" lon="34.9584300">
<ele>260.000000</ele>
<time>2022-09-02T11:46:46.174Z</time>
</trkpt>
<trkpt lat="31.7857600" lon="34.9584000">
<ele>260.089996</ele>
<time>2022-09-02T11:46:46.174Z</time>
</trkpt>
<trkpt lat="31.7857400" lon="34.9583700">
<ele>260.299988</ele>
<time>2022-09-02T11:46:46.174Z</time>
</trkpt>
<trkpt lat="31.7857300" lon="34.9583200">
<ele>260.559998</ele>
<time>2022-09-02T11:46:46.175Z</time>
</trkpt>
<trkpt lat="31.7857500" lon="34.9582800">
<ele>260.549988</ele>
<time>2022-09-02T11:46:46.175Z</time>
</trkpt>
<trkpt lat="31.7857800" lon="34.9582500">
<ele>260.440002</ele>
<time>2022-09-02T11:46:46.175Z</time>
</trkpt>
<trkpt lat="31.7858100" lon="34.9582000">
<ele>260.610016</ele>
<time>2022-09-02T11:46:46.175Z</time>
</trkpt>
<trkpt lat="31.7858300" lon="34.9581700">
<ele>260.779999</ele>
<time>2022-09-02T11:46:46.175Z</time>
</trkpt>
<trkpt lat="31.7858600" lon="34.9581400">
<ele>260.760010</ele>
<time>2022-09-02T11:46:46.175Z</time>
</trkpt>
<trkpt lat="31.7858900" lon="34.9581100">
<ele>260.679993</ele>
<time>2022-09-02T11:46:46.175Z</time>
</trkpt>
<trkpt lat="31.7859100" lon="34.9580900">
<ele>260.589996</ele>
<time>2022-09-02T11:46:46.175Z</time>
</trkpt>
<trkpt lat="31.7859500" lon="34.9580600">
<ele>260.289978</ele>
<time>2022-09-02T11:46:46.175Z</time>
</trkpt>
<trkpt lat="31.7859900" lon="34.9580300">
<ele>259.889984</ele>
<time>2022-09-02T11:46:46.175Z</time>
</trkpt>
<trkpt lat="31.7860300" lon="34.9580000">
<ele>259.510010</ele>
<time>2022-09-02T11:46:46.175Z</time>
</trkpt>
<trkpt lat="31.7860700" lon="34.9579800">
<ele>259.100006</ele>
<time>2022-09-02T11:46:46.175Z</time>
</trkpt>
<trkpt lat="31.7861200" lon="34.9579500">
<ele>258.600006</ele>
<time>2022-09-02T11:46:46.175Z</time>
</trkpt>
<trkpt lat="31.7861500" lon="34.9579300">
<ele>258.250000</ele>
<time>2022-09-02T11:46:46.175Z</time>
</trkpt>
<trkpt lat="31.7861800" lon="34.9579200">
<ele>257.850006</ele>
<time>2022-09-02T11:46:46.175Z</time>
</trkpt>
<trkpt lat="31.7862100" lon="34.9579000">
<ele>257.579987</ele>
<time>2022-09-02T11:46:46.175Z</time>
</trkpt>
<trkpt lat="31.7862400" lon="34.9578900">
<ele>257.239990</ele>
<time>2022-09-02T11:46:46.175Z</time>
</trkpt>
<trkpt lat="31.7862800" lon="34.9578700">
<ele>256.910004</ele>
<time>2022-09-02T11:46:46.175Z</time>
</trkpt>
<trkpt lat="31.7863200" lon="34.9578600">
<ele>256.479980</ele>
<time>2022-09-02T11:46:46.175Z</time>
</trkpt>
<trkpt lat="31.7863600" lon="34.9578500">
<ele>256.089996</ele>
<time>2022-09-02T11:46:46.175Z</time>
</trkpt>
<trkpt lat="31.7864200" lon="34.9578400">
<ele>255.989990</ele>
<time>2022-09-02T11:46:46.175Z</time>
</trkpt>
<trkpt lat="31.7864600" lon="34.9578200">
<ele>256.500000</ele>
<time>2022-09-02T11:46:46.175Z</time>
</trkpt>
<trkpt lat="31.7865200" lon="34.9578100">
<ele>256.889984</ele>
<time>2022-09-02T11:46:46.175Z</time>
</trkpt>
<trkpt lat="31.7865600" lon="34.9577900">
<ele>257.399994</ele>
<time>2022-09-02T11:46:46.175Z</time>
</trkpt>
<trkpt lat="31.7866300" lon="34.9577600">
<ele>257.959991</ele>
<time>2022-09-02T11:46:46.175Z</time>
</trkpt>
<trkpt lat="31.7866700" lon="34.9577300">
<ele>258.119995</ele>
<time>2022-09-02T11:46:46.175Z</time>
</trkpt>
<trkpt lat="31.7867300" lon="34.9576800">
<ele>257.610016</ele>
<time>2022-09-02T11:46:46.175Z</time>
</trkpt>
<trkpt lat="31.7867600" lon="34.9576400">
<ele>257.649994</ele>
<time>2022-09-02T11:46:46.175Z</time>
</trkpt>
<trkpt lat="31.7867800" lon="34.9575900">
<ele>258.020020</ele>
<time>2022-09-02T11:46:46.175Z</time>
</trkpt>
<trkpt lat="31.7867900" lon="34.9575600">
<ele>258.299988</ele>
<time>2022-09-02T11:46:46.176Z</time>
</trkpt>
<trkpt lat="31.7868000" lon="34.9575200">
<ele>258.760010</ele>
<time>2022-09-02T11:46:46.176Z</time>
</trkpt>
<trkpt lat="31.7868000" lon="34.9574800">
<ele>259.290009</ele>
<time>2022-09-02T11:46:46.176Z</time>
</trkpt>
<trkpt lat="31.7867900" lon="34.9574400">
<ele>259.889984</ele>
<time>2022-09-02T11:46:46.176Z</time>
</trkpt>
<trkpt lat="31.7867600" lon="34.9574100">
<ele>260.399994</ele>
<time>2022-09-02T11:46:46.176Z</time>
</trkpt>
<trkpt lat="31.7867400" lon="34.9573700">
<ele>261.089996</ele>
<time>2022-09-02T11:46:46.176Z</time>
</trkpt>
<trkpt lat="31.7867300" lon="34.9573300">
<ele>261.779999</ele>
<time>2022-09-02T11:46:46.176Z</time>
</trkpt>
<trkpt lat="31.7867200" lon="34.9573000">
<ele>262.320007</ele>
<time>2022-09-02T11:46:46.176Z</time>
</trkpt>
<trkpt lat="31.7867200" lon="34.9572600">
<ele>262.989990</ele>
<time>2022-09-02T11:46:46.176Z</time>
</trkpt>
<trkpt lat="31.7867200" lon="34.9572300">
<ele>263.489990</ele>
<time>2022-09-02T11:46:46.176Z</time>
</trkpt>
<trkpt lat="31.7867400" lon="34.9571800">
<ele>264.190002</ele>
<time>2022-09-02T11:46:46.176Z</time>
</trkpt>
<trkpt lat="31.7867600" lon="34.9571400">
<ele>264.709991</ele>
<time>2022-09-02T11:46:46.176Z</time>
</trkpt>
<trkpt lat="31.7868000" lon="34.9571000">
<ele>265.029999</ele>
<time>2022-09-02T11:46:46.176Z</time>
</trkpt>
<trkpt lat="31.7868300" lon="34.9570800">
<ele>265.080017</ele>
<time>2022-09-02T11:46:46.176Z</time>
</trkpt>
<trkpt lat="31.7868600" lon="34.9570600">
<ele>265.119995</ele>
<time>2022-09-02T11:46:46.176Z</time>
</trkpt>
<trkpt lat="31.7869100" lon="34.9570300">
<ele>265.100006</ele>
<time>2022-09-02T11:46:46.176Z</time>
</trkpt>
<trkpt lat="31.7869400" lon="34.9570200">
<ele>264.959991</ele>
<time>2022-09-02T11:46:46.176Z</time>
</trkpt>
<trkpt lat="31.7869700" lon="34.9570200">
<ele>264.760010</ele>
<time>2022-09-02T11:46:46.176Z</time>
</trkpt>
<trkpt lat="31.7870000" lon="34.9570100">
<ele>264.690002</ele>
<time>2022-09-02T11:46:46.176Z</time>
</trkpt>
<trkpt lat="31.7870500" lon="34.9569900">
<ele>264.519989</ele>
<time>2022-09-02T11:46:46.176Z</time>
</trkpt>
<trkpt lat="31.7870900" lon="34.9569800">
<ele>264.250000</ele>
<time>2022-09-02T11:46:46.176Z</time>
</trkpt>
<trkpt lat="31.7871400" lon="34.9569700">
<ele>263.839996</ele>
<time>2022-09-02T11:46:46.176Z</time>
</trkpt>
<trkpt lat="31.7871900" lon="34.9569500">
<ele>263.359985</ele>
<time>2022-09-02T11:46:46.176Z</time>
</trkpt>
<trkpt lat="31.7872500" lon="34.9569400">
<ele>262.649994</ele>
<time>2022-09-02T11:46:46.176Z</time>
</trkpt>
<trkpt lat="31.7872900" lon="34.9569400">
<ele>262.080017</ele>
<time>2022-09-02T11:46:46.176Z</time>
</trkpt>
<trkpt lat="31.7873300" lon="34.9569300">
<ele>261.619995</ele>
<time>2022-09-02T11:46:46.176Z</time>
</trkpt>
<trkpt lat="31.7873700" lon="34.9569200">
<ele>261.179993</ele>
<time>2022-09-02T11:46:46.176Z</time>
</trkpt>
<trkpt lat="31.7874000" lon="34.9569000">
<ele>261.019989</ele>
<time>2022-09-02T11:46:46.176Z</time>
</trkpt>
<trkpt lat="31.7874400" lon="34.9568800">
<ele>260.739990</ele>
<time>2022-09-02T11:46:46.176Z</time>
</trkpt>
<trkpt lat="31.7874800" lon="34.9568600">
<ele>260.480011</ele>
<time>2022-09-02T11:46:46.176Z</time>
</trkpt>
<trkpt lat="31.7875100" lon="34.9568500">
<ele>260.359985</ele>
<time>2022-09-02T11:46:46.177Z</time>
</trkpt>
<trkpt lat="31.7875500" lon="34.9568300">
<ele>260.649994</ele>
<time>2022-09-02T11:46:46.177Z</time>
</trkpt>
<trkpt lat="31.7875800" lon="34.9568000">
<ele>261.080017</ele>
<time>2022-09-02T11:46:46.177Z</time>
</trkpt>
<trkpt lat="31.7876100" lon="34.9567700">
<ele>261.509979</ele>
<time>2022-09-02T11:46:46.177Z</time>
</trkpt>
<trkpt lat="31.7876400" lon="34.9567400">
<ele>261.940002</ele>
<time>2022-09-02T11:46:46.177Z</time>
</trkpt>
<trkpt lat="31.7876600" lon="34.9567000">
<ele>262.519989</ele>
<time>2022-09-02T11:46:46.177Z</time>
</trkpt>
<trkpt lat="31.7876800" lon="34.9566800">
<ele>262.809998</ele>
<time>2022-09-02T11:46:46.177Z</time>
</trkpt>
<trkpt lat="31.7877000" lon="34.9566400">
<ele>263.260010</ele>
<time>2022-09-02T11:46:46.177Z</time>
</trkpt>
<trkpt lat="31.7877100" lon="34.9566000">
<ele>263.660004</ele>
<time>2022-09-02T11:46:46.177Z</time>
</trkpt>
<trkpt lat="31.7877300" lon="34.9565600">
<ele>264.089996</ele>
<time>2022-09-02T11:46:46.177Z</time>
</trkpt>
<trkpt lat="31.7877400" lon="34.9565200">
<ele>264.509979</ele>
<time>2022-09-02T11:46:46.177Z</time>
</trkpt>
<trkpt lat="31.7877600" lon="34.9564700">
<ele>265.080017</ele>
<time>2022-09-02T11:46:46.177Z</time>
</trkpt>
<trkpt lat="31.7877800" lon="34.9564400">
<ele>265.459991</ele>
<time>2022-09-02T11:46:46.177Z</time>
</trkpt>
<trkpt lat="31.7878000" lon="34.9564000">
<ele>266.029999</ele>
<time>2022-09-02T11:46:46.177Z</time>
</trkpt>
<trkpt lat="31.7878200" lon="34.9563600">
<ele>266.510010</ele>
<time>2022-09-02T11:46:46.177Z</time>
</trkpt>
<trkpt lat="31.7878400" lon="34.9563200">
<ele>266.940002</ele>
<time>2022-09-02T11:46:46.177Z</time>
</trkpt>
<trkpt lat="31.7878500" lon="34.9562800">
<ele>267.299988</ele>
<time>2022-09-02T11:46:46.177Z</time>
</trkpt>
<trkpt lat="31.7878600" lon="34.9562300">
<ele>267.739990</ele>
<time>2022-09-02T11:46:46.177Z</time>
</trkpt>
<trkpt lat="31.7878800" lon="34.9561900">
<ele>268.169983</ele>
<time>2022-09-02T11:46:46.177Z</time>
</trkpt>
<trkpt lat="31.7878900" lon="34.9561400">
<ele>268.600006</ele>
<time>2022-09-02T11:46:46.177Z</time>
</trkpt>
<trkpt lat="31.7879000" lon="34.9560900">
<ele>269.149994</ele>
<time>2022-09-02T11:46:46.177Z</time>
</trkpt>
<trkpt lat="31.7879100" lon="34.9560600">
<ele>269.600006</ele>
<time>2022-09-02T11:46:46.177Z</time>
</trkpt>
<trkpt lat="31.7879200" lon="34.9560200">
<ele>270.170013</ele>
<time>2022-09-02T11:46:46.177Z</time>
</trkpt>
<trkpt lat="31.7879400" lon="34.9559800">
<ele>270.779999</ele>
<time>2022-09-02T11:46:46.177Z</time>
</trkpt>
<trkpt lat="31.7879500" lon="34.9559400">
<ele>271.320007</ele>
<time>2022-09-02T11:46:46.177Z</time>
</trkpt>
<trkpt lat="31.7879700" lon="34.9559100">
<ele>271.779999</ele>
<time>2022-09-02T11:46:46.177Z</time>
</trkpt>
<trkpt lat="31.7880000" lon="34.9558700">
<ele>272.380005</ele>
<time>2022-09-02T11:46:46.177Z</time>
</trkpt>
<trkpt lat="31.7880300" lon="34.9558200">
<ele>273.089996</ele>
<time>2022-09-02T11:46:46.177Z</time>
</trkpt>
<trkpt lat="31.7880600" lon="34.9557800">
<ele>273.750000</ele>
<time>2022-09-02T11:46:46.177Z</time>
</trkpt>
<trkpt lat="31.7881000" lon="34.9557300">
<ele>274.269989</ele>
<time>2022-09-02T11:46:46.177Z</time>
</trkpt>
<trkpt lat="31.7881400" lon="34.9557000">
<ele>274.470001</ele>
<time>2022-09-02T11:46:46.177Z</time>
</trkpt>
<trkpt lat="31.7881600" lon="34.9556700">
<ele>274.750000</ele>
<time>2022-09-02T11:46:46.178Z</time>
</trkpt>
<trkpt lat="31.7881800" lon="34.9556400">
<ele>275.019989</ele>
<time>2022-09-02T11:46:46.178Z</time>
</trkpt>
<trkpt lat="31.7882100" lon="34.9556100">
<ele>275.209991</ele>
<time>2022-09-02T11:46:46.178Z</time>
</trkpt>
<trkpt lat="31.7882400" lon="34.9555800">
<ele>275.380005</ele>
<time>2022-09-02T11:46:46.178Z</time>
</trkpt>
<trkpt lat="31.7882700" lon="34.9555600">
<ele>275.399994</ele>
<time>2022-09-02T11:46:46.178Z</time>
</trkpt>
<trkpt lat="31.7882900" lon="34.9555400">
<ele>275.290009</ele>
<time>2022-09-02T11:46:46.178Z</time>
</trkpt>
<trkpt lat="31.7883100" lon="34.9555000">
<ele>275.039978</ele>
<time>2022-09-02T11:46:46.178Z</time>
</trkpt>
<trkpt lat="31.7883200" lon="34.9554400">
<ele>274.759979</ele>
<time>2022-09-02T11:46:46.178Z</time>
</trkpt>
<trkpt lat="31.7883200" lon="34.9553900">
<ele>274.609985</ele>
<time>2022-09-02T11:46:46.178Z</time>
</trkpt>
<trkpt lat="31.7883100" lon="34.9553500">
<ele>274.679993</ele>
<time>2022-09-02T11:46:46.178Z</time>
</trkpt>
<trkpt lat="31.7882900" lon="34.9553200">
<ele>274.990021</ele>
<time>2022-09-02T11:46:46.178Z</time>
</trkpt>
<trkpt lat="31.7882600" lon="34.9552800">
<ele>275.579987</ele>
<time>2022-09-02T11:46:46.178Z</time>
</trkpt>
<trkpt lat="31.7882200" lon="34.9552500">
<ele>276.329987</ele>
<time>2022-09-02T11:46:46.178Z</time>
</trkpt>
<trkpt lat="31.7881800" lon="34.9552300">
<ele>277.029999</ele>
<time>2022-09-02T11:46:46.178Z</time>
</trkpt>
<trkpt lat="31.7881300" lon="34.9552200">
<ele>277.940002</ele>
<time>2022-09-02T11:46:46.178Z</time>
</trkpt>
<trkpt lat="31.7880900" lon="34.9552200">
<ele>278.709991</ele>
<time>2022-09-02T11:46:46.178Z</time>
</trkpt>
<trkpt lat="31.7880400" lon="34.9552200">
<ele>278.959991</ele>
<time>2022-09-02T11:46:46.178Z</time>
</trkpt>
<trkpt lat="31.7880000" lon="34.9552200">
<ele>277.899994</ele>
<time>2022-09-02T11:46:46.178Z</time>
</trkpt>
<trkpt lat="31.7879700" lon="34.9552200">
<ele>277.100006</ele>
<time>2022-09-02T11:46:46.178Z</time>
</trkpt>
<trkpt lat="31.7879400" lon="34.9552200">
<ele>276.309998</ele>
<time>2022-09-02T11:46:46.178Z</time>
</trkpt>
<trkpt lat="31.7878900" lon="34.9552300">
<ele>275.019989</ele>
<time>2022-09-02T11:46:46.178Z</time>
</trkpt>
<trkpt lat="31.7878600" lon="34.9552300">
<ele>274.220001</ele>
<time>2022-09-02T11:46:46.178Z</time>
</trkpt>
<trkpt lat="31.7878300" lon="34.9552500">
<ele>273.450012</ele>
<time>2022-09-02T11:46:46.178Z</time>
</trkpt>
<trkpt lat="31.7877900" lon="34.9552600">
<ele>272.339996</ele>
<time>2022-09-02T11:46:46.178Z</time>
</trkpt>
<trkpt lat="31.7877500" lon="34.9552700">
<ele>271.699982</ele>
<time>2022-09-02T11:46:46.178Z</time>
</trkpt>
<trkpt lat="31.7877200" lon="34.9552800">
<ele>271.390015</ele>
<time>2022-09-02T11:46:46.178Z</time>
</trkpt>
<trkpt lat="31.7876800" lon="34.9553000">
<ele>271.109985</ele>
<time>2022-09-02T11:46:46.178Z</time>
</trkpt>
<trkpt lat="31.7876400" lon="34.9553100">
<ele>270.799988</ele>
<time>2022-09-02T11:46:46.178Z</time>
</trkpt>
<trkpt lat="31.7876100" lon="34.9553200">
<ele>270.619995</ele>
<time>2022-09-02T11:46:46.178Z</time>
</trkpt>
<trkpt lat="31.7875800" lon="34.9553300">
<ele>270.450012</ele>
<time>2022-09-02T11:46:46.178Z</time>
</trkpt>
<trkpt lat="31.7875400" lon="34.9553300">
<ele>270.100006</ele>
<time>2022-09-02T11:46:46.179Z</time>
</trkpt>
<trkpt lat="31.7875200" lon="34.9553400">
<ele>270.059998</ele>
<time>2022-09-02T11:46:46.179Z</time>
</trkpt>
<trkpt lat="31.7874800" lon="34.9553600">
<ele>270.450012</ele>
<time>2022-09-02T11:46:46.179Z</time>
</trkpt>
<trkpt lat="31.7874400" lon="34.9553700">
<ele>271.119995</ele>
<time>2022-09-02T11:46:46.179Z</time>
</trkpt>
<trkpt lat="31.7874100" lon="34.9553800">
<ele>271.649994</ele>
<time>2022-09-02T11:46:46.179Z</time>
</trkpt>
<trkpt lat="31.7873700" lon="34.9553900">
<ele>272.299988</ele>
<time>2022-09-02T11:46:46.179Z</time>
</trkpt>
<trkpt lat="31.7873300" lon="34.9554000">
<ele>272.940002</ele>
<time>2022-09-02T11:46:46.179Z</time>
</trkpt>
<trkpt lat="31.7873000" lon="34.9554000">
<ele>273.320007</ele>
<time>2022-09-02T11:46:46.179Z</time>
</trkpt>
<trkpt lat="31.7872700" lon="34.9554000">
<ele>273.709991</ele>
<time>2022-09-02T11:46:46.179Z</time>
</trkpt>
<trkpt lat="31.7872400" lon="34.9554000">
<ele>274.089996</ele>
<time>2022-09-02T11:46:46.179Z</time>
</trkpt>
<trkpt lat="31.7872100" lon="34.9554000">
<ele>274.440002</ele>
<time>2022-09-02T11:46:46.179Z</time>
</trkpt>
<trkpt lat="31.7871700" lon="34.9554000">
<ele>274.820007</ele>
<time>2022-09-02T11:46:46.179Z</time>
</trkpt>
<trkpt lat="31.7871400" lon="34.9554000">
<ele>275.100006</ele>
<time>2022-09-02T11:46:46.179Z</time>
</trkpt>
<trkpt lat="31.7871100" lon="34.9554000">
<ele>275.390015</ele>
<time>2022-09-02T11:46:46.179Z</time>
</trkpt>
<trkpt lat="31.7870800" lon="34.9554100">
<ele>275.890015</ele>
<time>2022-09-02T11:46:46.179Z</time>
</trkpt>
<trkpt lat="31.7870400" lon="34.9554200">
<ele>276.550018</ele>
<time>2022-09-02T11:46:46.179Z</time>
</trkpt>
<trkpt lat="31.7870100" lon="34.9554300">
<ele>277.160004</ele>
<time>2022-09-02T11:46:46.179Z</time>
</trkpt>
<trkpt lat="31.7869800" lon="34.9554400">
<ele>277.809998</ele>
<time>2022-09-02T11:46:46.179Z</time>
</trkpt>
<trkpt lat="31.7869400" lon="34.9554600">
<ele>278.970001</ele>
<time>2022-09-02T11:46:46.179Z</time>
</trkpt>
<trkpt lat="31.7869100" lon="34.9554700">
<ele>279.760010</ele>
<time>2022-09-02T11:46:46.179Z</time>
</trkpt>
<trkpt lat="31.7868900" lon="34.9554800">
<ele>280.389984</ele>
<time>2022-09-02T11:46:46.179Z</time>
</trkpt>
<trkpt lat="31.7868500" lon="34.9554900">
<ele>281.320007</ele>
<time>2022-09-02T11:46:46.179Z</time>
</trkpt>
<trkpt lat="31.7868100" lon="34.9554900">
<ele>281.929993</ele>
<time>2022-09-02T11:46:46.179Z</time>
</trkpt>
<trkpt lat="31.7867800" lon="34.9554900">
<ele>282.380005</ele>
<time>2022-09-02T11:46:46.179Z</time>
</trkpt>
<trkpt lat="31.7867400" lon="34.9554900">
<ele>282.989990</ele>
<time>2022-09-02T11:46:46.179Z</time>
</trkpt>
<trkpt lat="31.7867100" lon="34.9555000">
<ele>283.739990</ele>
<time>2022-09-02T11:46:46.179Z</time>
</trkpt>
<trkpt lat="31.7866800" lon="34.9555100">
<ele>284.489990</ele>
<time>2022-09-02T11:46:46.179Z</time>
</trkpt>
<trkpt lat="31.7866400" lon="34.9555200">
<ele>285.209991</ele>
<time>2022-09-02T11:46:46.180Z</time>
</trkpt>
<trkpt lat="31.7866100" lon="34.9555400">
<ele>286.119995</ele>
<time>2022-09-02T11:46:46.180Z</time>
</trkpt>
<trkpt lat="31.7865800" lon="34.9555500">
<ele>286.750000</ele>
<time>2022-09-02T11:46:46.180Z</time>
</trkpt>
<trkpt lat="31.7865500" lon="34.9555600">
<ele>287.250000</ele>
<time>2022-09-02T11:46:46.180Z</time>
</trkpt>
<trkpt lat="31.7865200" lon="34.9555600">
<ele>287.580017</ele>
<time>2022-09-02T11:46:46.180Z</time>
</trkpt>
<trkpt lat="31.7864700" lon="34.9555600">
<ele>288.130005</ele>
<time>2022-09-02T11:46:46.180Z</time>
</trkpt>
<trkpt lat="31.7864400" lon="34.9555700">
<ele>288.500000</ele>
<time>2022-09-02T11:46:46.180Z</time>
</trkpt>
<trkpt lat="31.7864100" lon="34.9555700">
<ele>288.860016</ele>
<time>2022-09-02T11:46:46.180Z</time>
</trkpt>
<trkpt lat="31.7863700" lon="34.9555800">
<ele>289.130005</ele>
<time>2022-09-02T11:46:46.180Z</time>
</trkpt>
<trkpt lat="31.7863300" lon="34.9555900">
<ele>289.109985</ele>
<time>2022-09-02T11:46:46.180Z</time>
</trkpt>
<trkpt lat="31.7862700" lon="34.9556000">
<ele>289.100006</ele>
<time>2022-09-02T11:46:46.180Z</time>
</trkpt>
<trkpt lat="31.7862400" lon="34.9556200">
<ele>289.299988</ele>
<time>2022-09-02T11:46:46.180Z</time>
</trkpt>
<trkpt lat="31.7862000" lon="34.9556400">
<ele>289.549988</ele>
<time>2022-09-02T11:46:46.180Z</time>
</trkpt>
<trkpt lat="31.7861400" lon="34.9556800">
<ele>290.200012</ele>
<time>2022-09-02T11:46:46.180Z</time>
</trkpt>
<trkpt lat="31.7861000" lon="34.9557100">
<ele>290.619995</ele>
<time>2022-09-02T11:46:46.180Z</time>
</trkpt>
<trkpt lat="31.7860300" lon="34.9557700">
<ele>290.529999</ele>
<time>2022-09-02T11:46:46.180Z</time>
</trkpt>
<trkpt lat="31.7860000" lon="34.9558100">
<ele>290.649994</ele>
<time>2022-09-02T11:46:46.180Z</time>
</trkpt>
<trkpt lat="31.7859400" lon="34.9558700">
<ele>290.250000</ele>
<time>2022-09-02T11:46:46.180Z</time>
</trkpt>
<trkpt lat="31.7859100" lon="34.9559100">
<ele>290.179993</ele>
<time>2022-09-02T11:46:46.180Z</time>
</trkpt>
<trkpt lat="31.7858800" lon="34.9559400">
<ele>290.119995</ele>
<time>2022-09-02T11:46:46.180Z</time>
</trkpt>
<trkpt lat="31.7858600" lon="34.9559700">
<ele>290.259979</ele>
<time>2022-09-02T11:46:46.180Z</time>
</trkpt>
<trkpt lat="31.7858200" lon="34.9560000">
<ele>290.309998</ele>
<time>2022-09-02T11:46:46.180Z</time>
</trkpt>
<trkpt lat="31.7858000" lon="34.9560100">
<ele>290.339996</ele>
<time>2022-09-02T11:46:46.180Z</time>
</trkpt>
<trkpt lat="31.7857700" lon="34.9560400">
<ele>290.630005</ele>
<time>2022-09-02T11:46:46.180Z</time>
</trkpt>
<trkpt lat="31.7857300" lon="34.9560600">
<ele>290.760010</ele>
<time>2022-09-02T11:46:46.180Z</time>
</trkpt>
<trkpt lat="31.7857100" lon="34.9560800">
<ele>291.010010</ele>
<time>2022-09-02T11:46:46.180Z</time>
</trkpt>
<trkpt lat="31.7856800" lon="34.9561000">
<ele>291.240021</ele>
<time>2022-09-02T11:46:46.180Z</time>
</trkpt>
<trkpt lat="31.7856400" lon="34.9561200">
<ele>291.290009</ele>
<time>2022-09-02T11:46:46.180Z</time>
</trkpt>
<trkpt lat="31.7856000" lon="34.9561600">
<ele>291.199982</ele>
<time>2022-09-02T11:46:46.180Z</time>
</trkpt>
<trkpt lat="31.7855500" lon="34.9561900">
<ele>291.209991</ele>
<time>2022-09-02T11:46:46.180Z</time>
</trkpt>
<trkpt lat="31.7854900" lon="34.9562400">
<ele>290.720001</ele>
<time>2022-09-02T11:46:46.180Z</time>
</trkpt>
<trkpt lat="31.7854200" lon="34.9563000">
<ele>290.570007</ele>
<time>2022-09-02T11:46:46.180Z</time>
</trkpt>
<trkpt lat="31.7853500" lon="34.9563600">
<ele>290.850006</ele>
<time>2022-09-02T11:46:46.180Z</time>
</trkpt>
<trkpt lat="31.7852800" lon="34.9564200">
<ele>290.109985</ele>
<time>2022-09-02T11:46:46.180Z</time>
</trkpt>
<trkpt lat="31.7852300" lon="34.9564600">
<ele>288.269989</ele>
<time>2022-09-02T11:46:46.180Z</time>
</trkpt>
<trkpt lat="31.7851700" lon="34.9565200">
<ele>286.360016</ele>
<time>2022-09-02T11:46:46.180Z</time>
</trkpt>
<trkpt lat="31.7851200" lon="34.9565700">
<ele>285.339996</ele>
<time>2022-09-02T11:46:46.180Z</time>
</trkpt>
<trkpt lat="31.7850700" lon="34.9566100">
<ele>284.910004</ele>
<time>2022-09-02T11:46:46.180Z</time>
</trkpt>
<trkpt lat="31.7850300" lon="34.9566500">
<ele>284.839996</ele>
<time>2022-09-02T11:46:46.180Z</time>
</trkpt>
<trkpt lat="31.7849900" lon="34.9566800">
<ele>285.010010</ele>
<time>2022-09-02T11:46:46.180Z</time>
</trkpt>
<trkpt lat="31.7849300" lon="34.9567300">
<ele>285.299988</ele>
<time>2022-09-02T11:46:46.180Z</time>
</trkpt>
<trkpt lat="31.7848900" lon="34.9567600">
<ele>285.520020</ele>
<time>2022-09-02T11:46:46.180Z</time>
</trkpt>
<trkpt lat="31.7848500" lon="34.9567900">
<ele>285.730011</ele>
<time>2022-09-02T11:46:46.181Z</time>
</trkpt>
<trkpt lat="31.7848000" lon="34.9568400">
<ele>285.910004</ele>
<time>2022-09-02T11:46:46.181Z</time>
</trkpt>
<trkpt lat="31.7847500" lon="34.9568700">
<ele>286.239990</ele>
<time>2022-09-02T11:46:46.181Z</time>
</trkpt>
<trkpt lat="31.7847100" lon="34.9569100">
<ele>286.250000</ele>
<time>2022-09-02T11:46:46.181Z</time>
</trkpt>
<trkpt lat="31.7846700" lon="34.9569400">
<ele>286.029999</ele>
<time>2022-09-02T11:46:46.181Z</time>
</trkpt>
<trkpt lat="31.7846100" lon="34.9569800">
<ele>285.690002</ele>
<time>2022-09-02T11:46:46.181Z</time>
</trkpt>
<trkpt lat="31.7845700" lon="34.9570200">
<ele>285.309998</ele>
<time>2022-09-02T11:46:46.181Z</time>
</trkpt>
<trkpt lat="31.7844900" lon="34.9570600">
<ele>284.819977</ele>
<time>2022-09-02T11:46:46.181Z</time>
</trkpt>
<trkpt lat="31.7843800" lon="34.9571100">
<ele>285.040009</ele>
<time>2022-09-02T11:46:46.181Z</time>
</trkpt>
<trkpt lat="31.7843300" lon="34.9571400">
<ele>285.630005</ele>
<time>2022-09-02T11:46:46.181Z</time>
</trkpt>
<trkpt lat="31.7842800" lon="34.9571500">
<ele>286.410004</ele>
<time>2022-09-02T11:46:46.181Z</time>
</trkpt>
<trkpt lat="31.7841800" lon="34.9571800">
<ele>288.299988</ele>
<time>2022-09-02T11:46:46.181Z</time>
</trkpt>
<trkpt lat="31.7840900" lon="34.9572100">
<ele>289.050018</ele>
<time>2022-09-02T11:46:46.181Z</time>
</trkpt>
<trkpt lat="31.7840100" lon="34.9572300">
<ele>289.420013</ele>
<time>2022-09-02T11:46:46.181Z</time>
</trkpt>
<trkpt lat="31.7839500" lon="34.9572400">
<ele>289.480011</ele>
<time>2022-09-02T11:46:46.181Z</time>
</trkpt>
<trkpt lat="31.7839100" lon="34.9572500">
<ele>289.500000</ele>
<time>2022-09-02T11:46:46.181Z</time>
</trkpt>
<trkpt lat="31.7838600" lon="34.9572500">
<ele>289.619995</ele>
<time>2022-09-02T11:46:46.181Z</time>
</trkpt>
<trkpt lat="31.7838200" lon="34.9572500">
<ele>289.649994</ele>
<time>2022-09-02T11:46:46.181Z</time>
</trkpt>
<trkpt lat="31.7837900" lon="34.9572500">
<ele>289.670013</ele>
<time>2022-09-02T11:46:46.181Z</time>
</trkpt>
<trkpt lat="31.7837600" lon="34.9572500">
<ele>289.690002</ele>
<time>2022-09-02T11:46:46.181Z</time>
</trkpt>
<trkpt lat="31.7837300" lon="34.9572900">
<ele>289.299988</ele>
<time>2022-09-02T11:46:46.181Z</time>
</trkpt>
<trkpt lat="31.7837000" lon="34.9573200">
<ele>289.070007</ele>
<time>2022-09-02T11:46:46.181Z</time>
</trkpt>
<trkpt lat="31.7836700" lon="34.9573600">
<ele>288.800018</ele>
<time>2022-09-02T11:46:46.181Z</time>
</trkpt>
<trkpt lat="31.7836600" lon="34.9574100">
<ele>288.410004</ele>
<time>2022-09-02T11:46:46.181Z</time>
</trkpt>
<trkpt lat="31.7836600" lon="34.9574600">
<ele>287.989990</ele>
<time>2022-09-02T11:46:46.181Z</time>
</trkpt>
<trkpt lat="31.7836600" lon="34.9575100">
<ele>287.779999</ele>
<time>2022-09-02T11:46:46.181Z</time>
</trkpt>
<trkpt lat="31.7836600" lon="34.9575500">
<ele>288.299988</ele>
<time>2022-09-02T11:46:46.181Z</time>
</trkpt>
<trkpt lat="31.7836500" lon="34.9575900">
<ele>288.929993</ele>
<time>2022-09-02T11:46:46.183Z</time>
</trkpt>
<trkpt lat="31.7836400" lon="34.9576200">
<ele>289.429993</ele>
<time>2022-09-02T11:46:46.183Z</time>
</trkpt>
<trkpt lat="31.7836300" lon="34.9576700">
<ele>290.230011</ele>
<time>2022-09-02T11:46:46.183Z</time>
</trkpt>
<trkpt lat="31.7836000" lon="34.9577100">
<ele>290.940002</ele>
<time>2022-09-02T11:46:46.183Z</time>
</trkpt>
<trkpt lat="31.7835600" lon="34.9577300">
<ele>290.940002</ele>
<time>2022-09-02T11:46:46.183Z</time>
</trkpt>
<trkpt lat="31.7835200" lon="34.9577500">
<ele>290.940002</ele>
<time>2022-09-02T11:46:46.183Z</time>
</trkpt>
<trkpt lat="31.7834800" lon="34.9577600">
<ele>290.799988</ele>
<time>2022-09-02T11:46:46.183Z</time>
</trkpt>
<trkpt lat="31.7834500" lon="34.9577700">
<ele>290.729980</ele>
<time>2022-09-02T11:46:46.183Z</time>
</trkpt>
<trkpt lat="31.7834300" lon="34.9577800">
<ele>290.709991</ele>
<time>2022-09-02T11:46:46.183Z</time>
</trkpt>
<trkpt lat="31.7833900" lon="34.9578000">
<ele>290.619995</ele>
<time>2022-09-02T11:46:46.183Z</time>
</trkpt>
<trkpt lat="31.7833500" lon="34.9578100">
<ele>290.449982</ele>
<time>2022-09-02T11:46:46.183Z</time>
</trkpt>
<trkpt lat="31.7833300" lon="34.9578100">
<ele>290.449982</ele>
<time>2022-09-02T11:46:46.183Z</time>
</trkpt>
<trkpt lat="31.7833000" lon="34.9578300">
<ele>291.549988</ele>
<time>2022-09-02T11:46:46.183Z</time>
</trkpt>
<trkpt lat="31.7832700" lon="34.9578500">
<ele>292.589996</ele>
<time>2022-09-02T11:46:46.183Z</time>
</trkpt>
<trkpt lat="31.7832400" lon="34.9578800">
<ele>293.630005</ele>
<time>2022-09-02T11:46:46.183Z</time>
</trkpt>
<trkpt lat="31.7832100" lon="34.9579100">
<ele>294.579987</ele>
<time>2022-09-02T11:46:46.183Z</time>
</trkpt>
<trkpt lat="31.7831800" lon="34.9579300">
<ele>295.399994</ele>
<time>2022-09-02T11:46:46.183Z</time>
</trkpt>
<trkpt lat="31.7831500" lon="34.9579600">
<ele>296.179993</ele>
<time>2022-09-02T11:46:46.183Z</time>
</trkpt>
<trkpt lat="31.7831200" lon="34.9579800">
<ele>296.860016</ele>
<time>2022-09-02T11:46:46.183Z</time>
</trkpt>
<trkpt lat="31.7830700" lon="34.9579900">
<ele>297.929993</ele>
<time>2022-09-02T11:46:46.183Z</time>
</trkpt>
<trkpt lat="31.7830200" lon="34.9580000">
<ele>299.040009</ele>
<time>2022-09-02T11:46:46.183Z</time>
</trkpt>
<trkpt lat="31.7830000" lon="34.9580000">
<ele>299.520020</ele>
<time>2022-09-02T11:46:46.183Z</time>
</trkpt>
<trkpt lat="31.7829400" lon="34.9580000">
<ele>300.950012</ele>
<time>2022-09-02T11:46:46.183Z</time>
</trkpt>
<trkpt lat="31.7829000" lon="34.9580000">
<ele>301.899994</ele>
<time>2022-09-02T11:46:46.183Z</time>
</trkpt>
<trkpt lat="31.7828600" lon="34.9579900">
<ele>302.829987</ele>
<time>2022-09-02T11:46:46.183Z</time>
</trkpt>
<trkpt lat="31.7828200" lon="34.9579900">
<ele>303.769989</ele>
<time>2022-09-02T11:46:46.183Z</time>
</trkpt>
<trkpt lat="31.7827900" lon="34.9579800">
<ele>304.440002</ele>
<time>2022-09-02T11:46:46.183Z</time>
</trkpt>
<trkpt lat="31.7827700" lon="34.9579700">
<ele>304.850006</ele>
<time>2022-09-02T11:46:46.184Z</time>
</trkpt>
<trkpt lat="31.7827300" lon="34.9579600">
<ele>305.630005</ele>
<time>2022-09-02T11:46:46.184Z</time>
</trkpt>
<trkpt lat="31.7826900" lon="34.9579600">
<ele>306.450012</ele>
<time>2022-09-02T11:46:46.184Z</time>
</trkpt>
<trkpt lat="31.7826600" lon="34.9579600">
<ele>307.070007</ele>
<time>2022-09-02T11:46:46.184Z</time>
</trkpt>
<trkpt lat="31.7826300" lon="34.9579600">
<ele>307.679993</ele>
<time>2022-09-02T11:46:46.184Z</time>
</trkpt>
<trkpt lat="31.7825900" lon="34.9579800">
<ele>308.480011</ele>
<time>2022-09-02T11:46:46.184Z</time>
</trkpt>
<trkpt lat="31.7825600" lon="34.9580000">
<ele>309.029999</ele>
<time>2022-09-02T11:46:46.184Z</time>
</trkpt>
<trkpt lat="31.7825100" lon="34.9580100">
<ele>309.970001</ele>
<time>2022-09-02T11:46:46.184Z</time>
</trkpt>
<trkpt lat="31.7824800" lon="34.9580200">
<ele>310.309998</ele>
<time>2022-09-02T11:46:46.184Z</time>
</trkpt>
<trkpt lat="31.7824400" lon="34.9580300">
<ele>310.660004</ele>
<time>2022-09-02T11:46:46.184Z</time>
</trkpt>
<trkpt lat="31.7824100" lon="34.9580400">
<ele>310.959991</ele>
<time>2022-09-02T11:46:46.184Z</time>
</trkpt>
<trkpt lat="31.7823800" lon="34.9580500">
<ele>311.279999</ele>
<time>2022-09-02T11:46:46.184Z</time>
</trkpt>
<trkpt lat="31.7823400" lon="34.9580700">
<ele>311.579987</ele>
<time>2022-09-02T11:46:46.184Z</time>
</trkpt>
<trkpt lat="31.7823000" lon="34.9580900">
<ele>311.839996</ele>
<time>2022-09-02T11:46:46.184Z</time>
</trkpt>
<trkpt lat="31.7822800" lon="34.9581200">
<ele>311.820007</ele>
<time>2022-09-02T11:46:46.184Z</time>
</trkpt>
<trkpt lat="31.7822300" lon="34.9581700">
<ele>312.070007</ele>
<time>2022-09-02T11:46:46.184Z</time>
</trkpt>
<trkpt lat="31.7821900" lon="34.9582100">
<ele>311.839996</ele>
<time>2022-09-02T11:46:46.184Z</time>
</trkpt>
<trkpt lat="31.7821500" lon="34.9582400">
<ele>311.579987</ele>
<time>2022-09-02T11:46:46.184Z</time>
</trkpt>
<trkpt lat="31.7821200" lon="34.9582600">
<ele>311.429993</ele>
<time>2022-09-02T11:46:46.184Z</time>
</trkpt>
<trkpt lat="31.7820800" lon="34.9583000">
<ele>311.179993</ele>
<time>2022-09-02T11:46:46.184Z</time>
</trkpt>
<trkpt lat="31.7820500" lon="34.9583200">
<ele>311.070007</ele>
<time>2022-09-02T11:46:46.184Z</time>
</trkpt>
<trkpt lat="31.7820200" lon="34.9583400">
<ele>310.929993</ele>
<time>2022-09-02T11:46:46.184Z</time>
</trkpt>
<trkpt lat="31.7819800" lon="34.9583500">
<ele>310.850006</ele>
<time>2022-09-02T11:46:46.184Z</time>
</trkpt>
<trkpt lat="31.7819400" lon="34.9583600">
<ele>310.769989</ele>
<time>2022-09-02T11:46:46.184Z</time>
</trkpt>
<trkpt lat="31.7819000" lon="34.9583700">
<ele>310.399994</ele>
<time>2022-09-02T11:46:46.184Z</time>
</trkpt>
<trkpt lat="31.7818600" lon="34.9583700">
<ele>310.100006</ele>
<time>2022-09-02T11:46:46.184Z</time>
</trkpt>
<trkpt lat="31.7818200" lon="34.9583800">
<ele>309.850006</ele>
<time>2022-09-02T11:46:46.184Z</time>
</trkpt>
<trkpt lat="31.7817800" lon="34.9583800">
<ele>309.580017</ele>
<time>2022-09-02T11:46:46.184Z</time>
</trkpt>
<trkpt lat="31.7817300" lon="34.9583900">
<ele>309.380005</ele>
<time>2022-09-02T11:46:46.184Z</time>
</trkpt>
<trkpt lat="31.7816800" lon="34.9584000">
<ele>309.260010</ele>
<time>2022-09-02T11:46:46.184Z</time>
</trkpt>
<trkpt lat="31.7816300" lon="34.9584100">
<ele>309.390015</ele>
<time>2022-09-02T11:46:46.185Z</time>
</trkpt>
<trkpt lat="31.7815900" lon="34.9584300">
<ele>309.850006</ele>
<time>2022-09-02T11:46:46.185Z</time>
</trkpt>
<trkpt lat="31.7815600" lon="34.9584500">
<ele>310.359985</ele>
<time>2022-09-02T11:46:46.185Z</time>
</trkpt>
<trkpt lat="31.7815300" lon="34.9584600">
<ele>310.690002</ele>
<time>2022-09-02T11:46:46.185Z</time>
</trkpt>
<trkpt lat="31.7815000" lon="34.9584900">
<ele>311.570007</ele>
<time>2022-09-02T11:46:46.185Z</time>
</trkpt>
<trkpt lat="31.7814600" lon="34.9585300">
<ele>312.899994</ele>
<time>2022-09-02T11:46:46.185Z</time>
</trkpt>
<trkpt lat="31.7814400" lon="34.9585500">
<ele>313.630005</ele>
<time>2022-09-02T11:46:46.185Z</time>
</trkpt>
<trkpt lat="31.7814200" lon="34.9585700">
<ele>314.400024</ele>
<time>2022-09-02T11:46:46.185Z</time>
</trkpt>
<trkpt lat="31.7813900" lon="34.9586000">
<ele>315.630005</ele>
<time>2022-09-02T11:46:46.185Z</time>
</trkpt>
<trkpt lat="31.7813600" lon="34.9586400">
<ele>316.110016</ele>
<time>2022-09-02T11:46:46.185Z</time>
</trkpt>
<trkpt lat="31.7813200" lon="34.9586900">
<ele>316.460022</ele>
<time>2022-09-02T11:46:46.185Z</time>
</trkpt>
<trkpt lat="31.7813000" lon="34.9587300">
<ele>316.890015</ele>
<time>2022-09-02T11:46:46.185Z</time>
</trkpt>
<trkpt lat="31.7812900" lon="34.9587600">
<ele>317.270020</ele>
<time>2022-09-02T11:46:46.185Z</time>
</trkpt>
<trkpt lat="31.7812700" lon="34.9587900">
<ele>317.570007</ele>
<time>2022-09-02T11:46:46.185Z</time>
</trkpt>
<trkpt lat="31.7812600" lon="34.9588200">
<ele>317.960022</ele>
<time>2022-09-02T11:46:46.185Z</time>
</trkpt>
<trkpt lat="31.7812400" lon="34.9588400">
<ele>318.130005</ele>
<time>2022-09-02T11:46:46.185Z</time>
</trkpt>
<trkpt lat="31.7812100" lon="34.9588900">
<ele>318.720001</ele>
<time>2022-09-02T11:46:46.185Z</time>
</trkpt>
<trkpt lat="31.7811900" lon="34.9589200">
<ele>318.919983</ele>
<time>2022-09-02T11:46:46.185Z</time>
</trkpt>
<trkpt lat="31.7811600" lon="34.9589700">
<ele>319.370026</ele>
<time>2022-09-02T11:46:46.185Z</time>
</trkpt>
<trkpt lat="31.7811400" lon="34.9590000">
<ele>319.679993</ele>
<time>2022-09-02T11:46:46.185Z</time>
</trkpt>
<trkpt lat="31.7811100" lon="34.9590200">
<ele>319.880005</ele>
<time>2022-09-02T11:46:46.185Z</time>
</trkpt>
<trkpt lat="31.7810900" lon="34.9590500">
<ele>320.089996</ele>
<time>2022-09-02T11:46:46.185Z</time>
</trkpt>
<trkpt lat="31.7810500" lon="34.9590900">
<ele>320.239990</ele>
<time>2022-09-02T11:46:46.185Z</time>
</trkpt>
<trkpt lat="31.7810200" lon="34.9591300">
<ele>320.489990</ele>
<time>2022-09-02T11:46:46.185Z</time>
</trkpt>
<trkpt lat="31.7810100" lon="34.9591600">
<ele>320.809998</ele>
<time>2022-09-02T11:46:46.185Z</time>
</trkpt>
<trkpt lat="31.7809900" lon="34.9591900">
<ele>320.879974</ele>
<time>2022-09-02T11:46:46.185Z</time>
</trkpt>
<trkpt lat="31.7809800" lon="34.9592200">
<ele>321.040009</ele>
<time>2022-09-02T11:46:46.185Z</time>
</trkpt>
<trkpt lat="31.7809800" lon="34.9592600">
<ele>321.380005</ele>
<time>2022-09-02T11:46:46.186Z</time>
</trkpt>
<trkpt lat="31.7809600" lon="34.9592900">
<ele>321.579987</ele>
<time>2022-09-02T11:46:46.186Z</time>
</trkpt>
<trkpt lat="31.7809500" lon="34.9593400">
<ele>322.070007</ele>
<time>2022-09-02T11:46:46.186Z</time>
</trkpt>
<trkpt lat="31.7809300" lon="34.9593800">
<ele>322.549988</ele>
<time>2022-09-02T11:46:46.186Z</time>
</trkpt>
<trkpt lat="31.7809200" lon="34.9594100">
<ele>322.950012</ele>
<time>2022-09-02T11:46:46.186Z</time>
</trkpt>
<trkpt lat="31.7809000" lon="34.9594400">
<ele>323.459991</ele>
<time>2022-09-02T11:46:46.186Z</time>
</trkpt>
<trkpt lat="31.7808900" lon="34.9594700">
<ele>323.829987</ele>
<time>2022-09-02T11:46:46.186Z</time>
</trkpt>
<trkpt lat="31.7808700" lon="34.9595100">
<ele>324.380005</ele>
<time>2022-09-02T11:46:46.186Z</time>
</trkpt>
<trkpt lat="31.7808500" lon="34.9595500">
<ele>324.970001</ele>
<time>2022-09-02T11:46:46.186Z</time>
</trkpt>
<trkpt lat="31.7808400" lon="34.9596000">
<ele>325.610016</ele>
<time>2022-09-02T11:46:46.186Z</time>
</trkpt>
<trkpt lat="31.7808200" lon="34.9596400">
<ele>325.969971</ele>
<time>2022-09-02T11:46:46.186Z</time>
</trkpt>
<trkpt lat="31.7808100" lon="34.9596800">
<ele>326.290009</ele>
<time>2022-09-02T11:46:46.186Z</time>
</trkpt>
<trkpt lat="31.7808000" lon="34.9597300">
<ele>326.730011</ele>
<time>2022-09-02T11:46:46.186Z</time>
</trkpt>
<trkpt lat="31.7807900" lon="34.9597800">
<ele>327.190002</ele>
<time>2022-09-02T11:46:46.186Z</time>
</trkpt>
<trkpt lat="31.7807900" lon="34.9598100">
<ele>327.529999</ele>
<time>2022-09-02T11:46:46.186Z</time>
</trkpt>
<trkpt lat="31.7807800" lon="34.9598500">
<ele>327.890015</ele>
<time>2022-09-02T11:46:46.186Z</time>
</trkpt>
<trkpt lat="31.7807800" lon="34.9599100">
<ele>328.580017</ele>
<time>2022-09-02T11:46:46.186Z</time>
</trkpt>
<trkpt lat="31.7807700" lon="34.9599500">
<ele>328.960022</ele>
<time>2022-09-02T11:46:46.186Z</time>
</trkpt>
<trkpt lat="31.7807500" lon="34.9599900">
<ele>329.279999</ele>
<time>2022-09-02T11:46:46.186Z</time>
</trkpt>
<trkpt lat="31.7807400" lon="34.9600200">
<ele>329.500000</ele>
<time>2022-09-02T11:46:46.186Z</time>
</trkpt>
<trkpt lat="31.7807300" lon="34.9600500">
<ele>329.679993</ele>
<time>2022-09-02T11:46:46.186Z</time>
</trkpt>
<trkpt lat="31.7807000" lon="34.9600900">
<ele>329.839996</ele>
<time>2022-09-02T11:46:46.186Z</time>
</trkpt>
<trkpt lat="31.7806800" lon="34.9601200">
<ele>330.000000</ele>
<time>2022-09-02T11:46:46.186Z</time>
</trkpt>
<trkpt lat="31.7806600" lon="34.9601500">
<ele>330.169983</ele>
<time>2022-09-02T11:46:46.186Z</time>
</trkpt>
<trkpt lat="31.7806500" lon="34.9602100">
<ele>330.690002</ele>
<time>2022-09-02T11:46:46.186Z</time>
</trkpt>
<trkpt lat="31.7806500" lon="34.9602500">
<ele>331.069977</ele>
<time>2022-09-02T11:46:46.186Z</time>
</trkpt>
<trkpt lat="31.7806500" lon="34.9602900">
<ele>331.369995</ele>
<time>2022-09-02T11:46:46.186Z</time>
</trkpt>
<trkpt lat="31.7806400" lon="34.9603400">
<ele>331.480011</ele>
<time>2022-09-02T11:46:46.186Z</time>
</trkpt>
<trkpt lat="31.7806400" lon="34.9603900">
<ele>331.619995</ele>
<time>2022-09-02T11:46:46.186Z</time>
</trkpt>
<trkpt lat="31.7806400" lon="34.9604300">
<ele>331.730011</ele>
<time>2022-09-02T11:46:46.186Z</time>
</trkpt>
<trkpt lat="31.7806400" lon="34.9604900">
<ele>331.899994</ele>
<time>2022-09-02T11:46:46.186Z</time>
</trkpt>
<trkpt lat="31.7806300" lon="34.9605400">
<ele>332.139984</ele>
<time>2022-09-02T11:46:46.187Z</time>
</trkpt>
<trkpt lat="31.7806200" lon="34.9605800">
<ele>332.269989</ele>
<time>2022-09-02T11:46:46.187Z</time>
</trkpt>
<trkpt lat="31.7806000" lon="34.9606300">
<ele>332.529999</ele>
<time>2022-09-02T11:46:46.187Z</time>
</trkpt>
<trkpt lat="31.7805800" lon="34.9606700">
<ele>332.929993</ele>
<time>2022-09-02T11:46:46.187Z</time>
</trkpt>
<trkpt lat="31.7805600" lon="34.9607000">
<ele>333.419983</ele>
<time>2022-09-02T11:46:46.187Z</time>
</trkpt>
<trkpt lat="31.7805400" lon="34.9607500">
<ele>333.350006</ele>
<time>2022-09-02T11:46:46.187Z</time>
</trkpt>
<trkpt lat="31.7805200" lon="34.9607900">
<ele>333.059998</ele>
<time>2022-09-02T11:46:46.187Z</time>
</trkpt>
<trkpt lat="31.7805000" lon="34.9608600">
<ele>332.779999</ele>
<time>2022-09-02T11:46:46.187Z</time>
</trkpt>
<trkpt lat="31.7804800" lon="34.9609000">
<ele>332.390015</ele>
<time>2022-09-02T11:46:46.187Z</time>
</trkpt>
<trkpt lat="31.7804600" lon="34.9609500">
<ele>332.090027</ele>
<time>2022-09-02T11:46:46.187Z</time>
</trkpt>
<trkpt lat="31.7804400" lon="34.9609900">
<ele>331.879974</ele>
<time>2022-09-02T11:46:46.187Z</time>
</trkpt>
<trkpt lat="31.7804200" lon="34.9610200">
<ele>331.709991</ele>
<time>2022-09-02T11:46:46.187Z</time>
</trkpt>
<trkpt lat="31.7804000" lon="34.9610600">
<ele>331.649994</ele>
<time>2022-09-02T11:46:46.187Z</time>
</trkpt>
<trkpt lat="31.7803800" lon="34.9610900">
<ele>331.619995</ele>
<time>2022-09-02T11:46:46.187Z</time>
</trkpt>
<trkpt lat="31.7803600" lon="34.9611300">
<ele>331.490021</ele>
<time>2022-09-02T11:46:46.187Z</time>
</trkpt>
<trkpt lat="31.7803400" lon="34.9611700">
<ele>331.209991</ele>
<time>2022-09-02T11:46:46.187Z</time>
</trkpt>
<trkpt lat="31.7803200" lon="34.9611900">
<ele>331.089996</ele>
<time>2022-09-02T11:46:46.187Z</time>
</trkpt>
<trkpt lat="31.7802700" lon="34.9612300">
<ele>330.920013</ele>
<time>2022-09-02T11:46:46.187Z</time>
</trkpt>
<trkpt lat="31.7802500" lon="34.9612500">
<ele>330.750000</ele>
<time>2022-09-02T11:46:46.187Z</time>
</trkpt>
<trkpt lat="31.7802200" lon="34.9612700">
<ele>330.549988</ele>
<time>2022-09-02T11:46:46.187Z</time>
</trkpt>
<trkpt lat="31.7801800" lon="34.9613000">
<ele>330.440002</ele>
<time>2022-09-02T11:46:46.187Z</time>
</trkpt>
<trkpt lat="31.7801400" lon="34.9613400">
<ele>330.559998</ele>
<time>2022-09-02T11:46:46.187Z</time>
</trkpt>
<trkpt lat="31.7801200" lon="34.9613600">
<ele>330.700012</ele>
<time>2022-09-02T11:46:46.187Z</time>
</trkpt>
<trkpt lat="31.7800900" lon="34.9614000">
<ele>331.079987</ele>
<time>2022-09-02T11:46:46.187Z</time>
</trkpt>
<trkpt lat="31.7800700" lon="34.9614200">
<ele>331.250000</ele>
<time>2022-09-02T11:46:46.187Z</time>
</trkpt>
<trkpt lat="31.7800500" lon="34.9614600">
<ele>331.630005</ele>
<time>2022-09-02T11:46:46.187Z</time>
</trkpt>
<trkpt lat="31.7800200" lon="34.9614900">
<ele>332.009979</ele>
<time>2022-09-02T11:46:46.187Z</time>
</trkpt>
<trkpt lat="31.7800000" lon="34.9615200">
<ele>332.420013</ele>
<time>2022-09-02T11:46:46.187Z</time>
</trkpt>
<trkpt lat="31.7799600" lon="34.9615500">
<ele>332.510010</ele>
<time>2022-09-02T11:46:46.187Z</time>
</trkpt>
<trkpt lat="31.7799200" lon="34.9615700">
<ele>332.479980</ele>
<time>2022-09-02T11:46:46.187Z</time>
</trkpt>
<trkpt lat="31.7799000" lon="34.9615900">
<ele>332.550018</ele>
<time>2022-09-02T11:46:46.187Z</time>
</trkpt>
<trkpt lat="31.7798500" lon="34.9616100">
<ele>332.420013</ele>
<time>2022-09-02T11:46:46.187Z</time>
</trkpt>
<trkpt lat="31.7798200" lon="34.9616200">
<ele>332.309998</ele>
<time>2022-09-02T11:46:46.187Z</time>
</trkpt>
<trkpt lat="31.7797700" lon="34.9616300">
<ele>332.059998</ele>
<time>2022-09-02T11:46:46.187Z</time>
</trkpt>
<trkpt lat="31.7797400" lon="34.9616400">
<ele>331.929993</ele>
<time>2022-09-02T11:46:46.187Z</time>
</trkpt>
<trkpt lat="31.7796800" lon="34.9616400">
<ele>331.820007</ele>
<time>2022-09-02T11:46:46.187Z</time>
</trkpt>
<trkpt lat="31.7796500" lon="34.9616600">
<ele>331.960022</ele>
<time>2022-09-02T11:46:46.187Z</time>
</trkpt>
<trkpt lat="31.7796200" lon="34.9616600">
<ele>331.960022</ele>
<time>2022-09-02T11:46:46.187Z</time>
</trkpt>
<trkpt lat="31.7795800" lon="34.9616800">
<ele>332.190002</ele>
<time>2022-09-02T11:46:46.187Z</time>
</trkpt>
<trkpt lat="31.7795400" lon="34.9617200">
<ele>332.829987</ele>
<time>2022-09-02T11:46:46.187Z</time>
</trkpt>
<trkpt lat="31.7795100" lon="34.9617700">
<ele>333.679993</ele>
<time>2022-09-02T11:46:46.187Z</time>
</trkpt>
<trkpt lat="31.7794900" lon="34.9618000">
<ele>334.239990</ele>
<time>2022-09-02T11:46:46.187Z</time>
</trkpt>
<trkpt lat="31.7794800" lon="34.9618400">
<ele>334.959991</ele>
<time>2022-09-02T11:46:46.187Z</time>
</trkpt>
<trkpt lat="31.7794700" lon="34.9618700">
<ele>335.529999</ele>
<time>2022-09-02T11:46:46.187Z</time>
</trkpt>
<trkpt lat="31.7794500" lon="34.9619000">
<ele>336.169983</ele>
<time>2022-09-02T11:46:46.187Z</time>
</trkpt>
<trkpt lat="31.7794300" lon="34.9619300">
<ele>336.589996</ele>
<time>2022-09-02T11:46:46.187Z</time>
</trkpt>
<trkpt lat="31.7794400" lon="34.9619600">
<ele>337.180023</ele>
<time>2022-09-02T11:46:46.187Z</time>
</trkpt>
<trkpt lat="31.7794400" lon="34.9620100">
<ele>337.889984</ele>
<time>2022-09-02T11:46:46.187Z</time>
</trkpt>
<trkpt lat="31.7794300" lon="34.9620800">
<ele>338.769989</ele>
<time>2022-09-02T11:46:46.187Z</time>
</trkpt>
<trkpt lat="31.7794200" lon="34.9621400">
<ele>339.490021</ele>
<time>2022-09-02T11:46:46.187Z</time>
</trkpt>
<trkpt lat="31.7794000" lon="34.9622200">
<ele>340.329987</ele>
<time>2022-09-02T11:46:46.187Z</time>
</trkpt>
<trkpt lat="31.7793900" lon="34.9622800">
<ele>339.750031</ele>
<time>2022-09-02T11:46:46.187Z</time>
</trkpt>
<trkpt lat="31.7793800" lon="34.9623400">
<ele>339.260010</ele>
<time>2022-09-02T11:46:46.187Z</time>
</trkpt>
<trkpt lat="31.7793600" lon="34.9624200">
<ele>338.880005</ele>
<time>2022-09-02T11:46:46.187Z</time>
</trkpt>
<trkpt lat="31.7793300" lon="34.9625100">
<ele>338.869995</ele>
<time>2022-09-02T11:46:46.187Z</time>
</trkpt>
<trkpt lat="31.7793200" lon="34.9625800">
<ele>337.740021</ele>
<time>2022-09-02T11:46:46.187Z</time>
</trkpt>
<trkpt lat="31.7792900" lon="34.9626600">
<ele>337.029999</ele>
<time>2022-09-02T11:46:46.187Z</time>
</trkpt>
<trkpt lat="31.7792600" lon="34.9627300">
<ele>336.720001</ele>
<time>2022-09-02T11:46:46.189Z</time>
</trkpt>
<trkpt lat="31.7792200" lon="34.9627800">
<ele>337.239990</ele>
<time>2022-09-02T11:46:46.189Z</time>
</trkpt>
<trkpt lat="31.7791900" lon="34.9628200">
<ele>337.720001</ele>
<time>2022-09-02T11:46:46.189Z</time>
</trkpt>
<trkpt lat="31.7791700" lon="34.9628700">
<ele>337.880005</ele>
<time>2022-09-02T11:46:46.189Z</time>
</trkpt>
<trkpt lat="31.7791200" lon="34.9629200">
<ele>337.640015</ele>
<time>2022-09-02T11:46:46.189Z</time>
</trkpt>
<trkpt lat="31.7790800" lon="34.9629400">
<ele>337.720001</ele>
<time>2022-09-02T11:46:46.189Z</time>
</trkpt>
<trkpt lat="31.7790300" lon="34.9629700">
<ele>337.980011</ele>
<time>2022-09-02T11:46:46.189Z</time>
</trkpt>
<trkpt lat="31.7789800" lon="34.9630000">
<ele>338.479980</ele>
<time>2022-09-02T11:46:46.189Z</time>
</trkpt>
<trkpt lat="31.7789400" lon="34.9630200">
<ele>339.020020</ele>
<time>2022-09-02T11:46:46.189Z</time>
</trkpt>
<trkpt lat="31.7788900" lon="34.9630400">
<ele>339.820007</ele>
<time>2022-09-02T11:46:46.189Z</time>
</trkpt>
<trkpt lat="31.7788500" lon="34.9630500">
<ele>339.929993</ele>
<time>2022-09-02T11:46:46.189Z</time>
</trkpt>
<trkpt lat="31.7788200" lon="34.9630600">
<ele>340.029999</ele>
<time>2022-09-02T11:46:46.189Z</time>
</trkpt>
<trkpt lat="31.7787700" lon="34.9630800">
<ele>340.239990</ele>
<time>2022-09-02T11:46:46.189Z</time>
</trkpt>
<trkpt lat="31.7787300" lon="34.9631200">
<ele>340.760010</ele>
<time>2022-09-02T11:46:46.189Z</time>
</trkpt>
<trkpt lat="31.7787100" lon="34.9631400">
<ele>341.089996</ele>
<time>2022-09-02T11:46:46.189Z</time>
</trkpt>
<trkpt lat="31.7786800" lon="34.9631800">
<ele>341.800018</ele>
<time>2022-09-02T11:46:46.189Z</time>
</trkpt>
<trkpt lat="31.7786700" lon="34.9632200">
<ele>342.459991</ele>
<time>2022-09-02T11:46:46.189Z</time>
</trkpt>
<trkpt lat="31.7786600" lon="34.9632600">
<ele>343.160004</ele>
<time>2022-09-02T11:46:46.189Z</time>
</trkpt>
<trkpt lat="31.7786700" lon="34.9633200">
<ele>343.949982</ele>
<time>2022-09-02T11:46:46.189Z</time>
</trkpt>
<trkpt lat="31.7786800" lon="34.9633500">
<ele>344.110016</ele>
<time>2022-09-02T11:46:46.189Z</time>
</trkpt>
<trkpt lat="31.7786900" lon="34.9633900">
<ele>344.190002</ele>
<time>2022-09-02T11:46:46.189Z</time>
</trkpt>
<trkpt lat="31.7786900" lon="34.9634500">
<ele>344.529999</ele>
<time>2022-09-02T11:46:46.189Z</time>
</trkpt>
<trkpt lat="31.7786800" lon="34.9634900">
<ele>345.000000</ele>
<time>2022-09-02T11:46:46.189Z</time>
</trkpt>
<trkpt lat="31.7786700" lon="34.9635400">
<ele>345.600006</ele>
<time>2022-09-02T11:46:46.189Z</time>
</trkpt>
<trkpt lat="31.7786700" lon="34.9635900">
<ele>345.940002</ele>
<time>2022-09-02T11:46:46.189Z</time>
</trkpt>
<trkpt lat="31.7786600" lon="34.9636400">
<ele>346.479980</ele>
<time>2022-09-02T11:46:46.189Z</time>
</trkpt>
<trkpt lat="31.7786600" lon="34.9636800">
<ele>346.579987</ele>
<time>2022-09-02T11:46:46.189Z</time>
</trkpt>
<trkpt lat="31.7786500" lon="34.9637200">
<ele>347.020020</ele>
<time>2022-09-02T11:46:46.189Z</time>
</trkpt>
<trkpt lat="31.7786500" lon="34.9637700">
<ele>347.150024</ele>
<time>2022-09-02T11:46:46.189Z</time>
</trkpt>
<trkpt lat="31.7786400" lon="34.9638100">
<ele>347.630005</ele>
<time>2022-09-02T11:46:46.189Z</time>
</trkpt>
<trkpt lat="31.7786400" lon="34.9638500">
<ele>347.750000</ele>
<time>2022-09-02T11:46:46.190Z</time>
</trkpt>
<trkpt lat="31.7786300" lon="34.9638800">
<ele>348.220001</ele>
<time>2022-09-02T11:46:46.190Z</time>
</trkpt>
<trkpt lat="31.7786200" lon="34.9639300">
<ele>348.940002</ele>
<time>2022-09-02T11:46:46.190Z</time>
</trkpt>
<trkpt lat="31.7786100" lon="34.9639700">
<ele>349.579987</ele>
<time>2022-09-02T11:46:46.190Z</time>
</trkpt>
<trkpt lat="31.7786000" lon="34.9640100">
<ele>349.850006</ele>
<time>2022-09-02T11:46:46.190Z</time>
</trkpt>
<trkpt lat="31.7785900" lon="34.9640500">
<ele>350.119995</ele>
<time>2022-09-02T11:46:46.190Z</time>
</trkpt>
<trkpt lat="31.7785800" lon="34.9641000">
<ele>350.429993</ele>
<time>2022-09-02T11:46:46.190Z</time>
</trkpt>
<trkpt lat="31.7785700" lon="34.9641300">
<ele>350.610016</ele>
<time>2022-09-02T11:46:46.190Z</time>
</trkpt>
<trkpt lat="31.7785600" lon="34.9641900">
<ele>350.950012</ele>
<time>2022-09-02T11:46:46.190Z</time>
</trkpt>
<trkpt lat="31.7785500" lon="34.9642400">
<ele>351.189972</ele>
<time>2022-09-02T11:46:46.190Z</time>
</trkpt>
<trkpt lat="31.7785500" lon="34.9642900">
<ele>351.470001</ele>
<time>2022-09-02T11:46:46.190Z</time>
</trkpt>
<trkpt lat="31.7785500" lon="34.9643200">
<ele>351.640015</ele>
<time>2022-09-02T11:46:46.190Z</time>
</trkpt>
<trkpt lat="31.7785500" lon="34.9643700">
<ele>351.919983</ele>
<time>2022-09-02T11:46:46.190Z</time>
</trkpt>
<trkpt lat="31.7785500" lon="34.9644200">
<ele>352.200012</ele>
<time>2022-09-02T11:46:46.190Z</time>
</trkpt>
<trkpt lat="31.7785600" lon="34.9644600">
<ele>352.500000</ele>
<time>2022-09-02T11:46:46.190Z</time>
</trkpt>
<trkpt lat="31.7785700" lon="34.9645000">
<ele>352.760010</ele>
<time>2022-09-02T11:46:46.190Z</time>
</trkpt>
<trkpt lat="31.7785800" lon="34.9645400">
<ele>353.010010</ele>
<time>2022-09-02T11:46:46.190Z</time>
</trkpt>
<trkpt lat="31.7785900" lon="34.9646100">
<ele>353.369995</ele>
<time>2022-09-02T11:46:46.190Z</time>
</trkpt>
<trkpt lat="31.7785900" lon="34.9646700">
<ele>353.580017</ele>
<time>2022-09-02T11:46:46.190Z</time>
</trkpt>
<trkpt lat="31.7785700" lon="34.9647200">
<ele>353.549988</ele>
<time>2022-09-02T11:46:46.190Z</time>
</trkpt>
<trkpt lat="31.7785500" lon="34.9647700">
<ele>353.069977</ele>
<time>2022-09-02T11:46:46.190Z</time>
</trkpt>
<trkpt lat="31.7785200" lon="34.9648400">
<ele>352.450012</ele>
<time>2022-09-02T11:46:46.190Z</time>
</trkpt>
<trkpt lat="31.7785100" lon="34.9648900">
<ele>352.139984</ele>
<time>2022-09-02T11:46:46.191Z</time>
</trkpt>
<trkpt lat="31.7785000" lon="34.9649500">
<ele>351.820007</ele>
<time>2022-09-02T11:46:46.191Z</time>
</trkpt>
<trkpt lat="31.7784900" lon="34.9650000">
<ele>351.559998</ele>
<time>2022-09-02T11:46:46.191Z</time>
</trkpt>
<trkpt lat="31.7784800" lon="34.9650600">
<ele>350.869995</ele>
<time>2022-09-02T11:46:46.191Z</time>
</trkpt>
<trkpt lat="31.7784600" lon="34.9651200">
<ele>350.199982</ele>
<time>2022-09-02T11:46:46.191Z</time>
</trkpt>
<trkpt lat="31.7784400" lon="34.9652000">
<ele>349.389984</ele>
<time>2022-09-02T11:46:46.191Z</time>
</trkpt>
<trkpt lat="31.7784200" lon="34.9652600">
<ele>348.860016</ele>
<time>2022-09-02T11:46:46.191Z</time>
</trkpt>
<trkpt lat="31.7783900" lon="34.9654200">
<ele>347.559998</ele>
<time>2022-09-02T11:46:46.191Z</time>
</trkpt>
<trkpt lat="31.7783600" lon="34.9655000">
<ele>347.150024</ele>
<time>2022-09-02T11:46:46.191Z</time>
</trkpt>
<trkpt lat="31.7783300" lon="34.9657600">
<ele>341.800018</ele>
<time>2022-09-02T11:46:46.191Z</time>
</trkpt>
<trkpt lat="31.7783200" lon="34.9658800">
<ele>339.380005</ele>
<time>2022-09-02T11:46:46.191Z</time>
</trkpt>
<trkpt lat="31.7782900" lon="34.9661200">
<ele>337.010010</ele>
<time>2022-09-02T11:46:46.191Z</time>
</trkpt>
<trkpt lat="31.7782600" lon="34.9662100">
<ele>337.189972</ele>
<time>2022-09-02T11:46:46.191Z</time>
</trkpt>
<trkpt lat="31.7781700" lon="34.9663700">
<ele>338.100006</ele>
<time>2022-09-02T11:46:46.191Z</time>
</trkpt>
<trkpt lat="31.7780600" lon="34.9664300">
<ele>339.410004</ele>
<time>2022-09-02T11:46:46.191Z</time>
</trkpt>
<trkpt lat="31.7780100" lon="34.9664600">
<ele>338.989990</ele>
<time>2022-09-02T11:46:46.191Z</time>
</trkpt>
<trkpt lat="31.7779000" lon="34.9665200">
<ele>337.880005</ele>
<time>2022-09-02T11:46:46.191Z</time>
</trkpt>
<trkpt lat="31.7778000" lon="34.9665700">
<ele>336.960022</ele>
<time>2022-09-02T11:46:46.191Z</time>
</trkpt>
<trkpt lat="31.7777500" lon="34.9666000">
<ele>336.620026</ele>
<time>2022-09-02T11:46:46.191Z</time>
</trkpt>
<trkpt lat="31.7776600" lon="34.9666500">
<ele>336.039978</ele>
<time>2022-09-02T11:46:46.191Z</time>
</trkpt>
<trkpt lat="31.7775800" lon="34.9666900">
<ele>335.689972</ele>
<time>2022-09-02T11:46:46.191Z</time>
</trkpt>
<trkpt lat="31.7775100" lon="34.9667200">
<ele>335.470001</ele>
<time>2022-09-02T11:46:46.191Z</time>
</trkpt>
<trkpt lat="31.7774900" lon="34.9667400">
<ele>335.800018</ele>
<time>2022-09-02T11:46:46.191Z</time>
</trkpt>
<trkpt lat="31.7774500" lon="34.9667600">
<ele>336.110016</ele>
<time>2022-09-02T11:46:46.191Z</time>
</trkpt>
<trkpt lat="31.7773800" lon="34.9667800">
<ele>336.250000</ele>
<time>2022-09-02T11:46:46.191Z</time>
</trkpt>
<trkpt lat="31.7773400" lon="34.9667900">
<ele>336.279999</ele>
<time>2022-09-02T11:46:46.191Z</time>
</trkpt>
<trkpt lat="31.7773000" lon="34.9668100">
<ele>336.519989</ele>
<time>2022-09-02T11:46:46.191Z</time>
</trkpt>
<trkpt lat="31.7772600" lon="34.9668200">
<ele>336.519989</ele>
<time>2022-09-02T11:46:46.192Z</time>
</trkpt>
<trkpt lat="31.7772100" lon="34.9668300">
<ele>336.620026</ele>
<time>2022-09-02T11:46:46.192Z</time>
</trkpt>
<trkpt lat="31.7771600" lon="34.9668500">
<ele>337.410004</ele>
<time>2022-09-02T11:46:46.192Z</time>
</trkpt>
<trkpt lat="31.7771100" lon="34.9668600">
<ele>337.980011</ele>
<time>2022-09-02T11:46:46.192Z</time>
</trkpt>
<trkpt lat="31.7770700" lon="34.9668700">
<ele>338.489990</ele>
<time>2022-09-02T11:46:46.192Z</time>
</trkpt>
<trkpt lat="31.7770300" lon="34.9668700">
<ele>338.779999</ele>
<time>2022-09-02T11:46:46.192Z</time>
</trkpt>
<trkpt lat="31.7769900" lon="34.9668700">
<ele>339.059998</ele>
<time>2022-09-02T11:46:46.192Z</time>
</trkpt>
<trkpt lat="31.7769500" lon="34.9668700">
<ele>339.350006</ele>
<time>2022-09-02T11:46:46.192Z</time>
</trkpt>
<trkpt lat="31.7769100" lon="34.9668600">
<ele>339.620026</ele>
<time>2022-09-02T11:46:46.192Z</time>
</trkpt>
<trkpt lat="31.7768800" lon="34.9668600">
<ele>340.010010</ele>
<time>2022-09-02T11:46:46.192Z</time>
</trkpt>
<trkpt lat="31.7768300" lon="34.9668500">
<ele>340.480011</ele>
<time>2022-09-02T11:46:46.192Z</time>
</trkpt>
<trkpt lat="31.7767900" lon="34.9668500">
<ele>341.009979</ele>
<time>2022-09-02T11:46:46.192Z</time>
</trkpt>
<trkpt lat="31.7767500" lon="34.9668400">
<ele>341.369995</ele>
<time>2022-09-02T11:46:46.192Z</time>
</trkpt>
<trkpt lat="31.7767200" lon="34.9668400">
<ele>341.779999</ele>
<time>2022-09-02T11:46:46.192Z</time>
</trkpt>
<trkpt lat="31.7766800" lon="34.9668300">
<ele>342.169983</ele>
<time>2022-09-02T11:46:46.192Z</time>
</trkpt>
<trkpt lat="31.7766200" lon="34.9668100">
<ele>342.820007</ele>
<time>2022-09-02T11:46:46.192Z</time>
</trkpt>
<trkpt lat="31.7765800" lon="34.9668000">
<ele>343.329987</ele>
<time>2022-09-02T11:46:46.192Z</time>
</trkpt>
<trkpt lat="31.7765500" lon="34.9668000">
<ele>343.820007</ele>
<time>2022-09-02T11:46:46.192Z</time>
</trkpt>
<trkpt lat="31.7765200" lon="34.9667900">
<ele>344.179993</ele>
<time>2022-09-02T11:46:46.192Z</time>
</trkpt>
<trkpt lat="31.7764600" lon="34.9667900">
<ele>345.170013</ele>
<time>2022-09-02T11:46:46.192Z</time>
</trkpt>
<trkpt lat="31.7764200" lon="34.9667900">
<ele>345.820007</ele>
<time>2022-09-02T11:46:46.192Z</time>
</trkpt>
<trkpt lat="31.7763800" lon="34.9667900">
<ele>346.399994</ele>
<time>2022-09-02T11:46:46.192Z</time>
</trkpt>
<trkpt lat="31.7763500" lon="34.9667800">
<ele>346.500000</ele>
<time>2022-09-02T11:46:46.192Z</time>
</trkpt>
<trkpt lat="31.7763100" lon="34.9667700">
<ele>346.680023</ele>
<time>2022-09-02T11:46:46.193Z</time>
</trkpt>
<trkpt lat="31.7762800" lon="34.9667600">
<ele>346.790009</ele>
<time>2022-09-02T11:46:46.193Z</time>
</trkpt>
<trkpt lat="31.7762500" lon="34.9667600">
<ele>347.010010</ele>
<time>2022-09-02T11:46:46.193Z</time>
</trkpt>
<trkpt lat="31.7761900" lon="34.9667600">
<ele>347.440002</ele>
<time>2022-09-02T11:46:46.193Z</time>
</trkpt>
<trkpt lat="31.7761500" lon="34.9667600">
<ele>347.729980</ele>
<time>2022-09-02T11:46:46.193Z</time>
</trkpt>
<trkpt lat="31.7761000" lon="34.9667700">
<ele>348.189972</ele>
<time>2022-09-02T11:46:46.193Z</time>
</trkpt>
<trkpt lat="31.7760700" lon="34.9667800">
<ele>348.529968</ele>
<time>2022-09-02T11:46:46.193Z</time>
</trkpt>
<trkpt lat="31.7760200" lon="34.9668000">
<ele>349.229980</ele>
<time>2022-09-02T11:46:46.193Z</time>
</trkpt>
<trkpt lat="31.7759800" lon="34.9668200">
<ele>349.959991</ele>
<time>2022-09-02T11:46:46.193Z</time>
</trkpt>
<trkpt lat="31.7759500" lon="34.9668400">
<ele>350.679993</ele>
<time>2022-09-02T11:46:46.193Z</time>
</trkpt>
<trkpt lat="31.7759200" lon="34.9668700">
<ele>351.709991</ele>
<time>2022-09-02T11:46:46.193Z</time>
</trkpt>
<trkpt lat="31.7758900" lon="34.9669200">
<ele>353.369995</ele>
<time>2022-09-02T11:46:46.193Z</time>
</trkpt>
<trkpt lat="31.7758700" lon="34.9669500">
<ele>354.399994</ele>
<time>2022-09-02T11:46:46.193Z</time>
</trkpt>
<trkpt lat="31.7758500" lon="34.9669800">
<ele>355.029999</ele>
<time>2022-09-02T11:46:46.193Z</time>
</trkpt>
<trkpt lat="31.7758300" lon="34.9670400">
<ele>355.639984</ele>
<time>2022-09-02T11:46:46.193Z</time>
</trkpt>
<trkpt lat="31.7758200" lon="34.9670700">
<ele>355.729980</ele>
<time>2022-09-02T11:46:46.193Z</time>
</trkpt>
<trkpt lat="31.7758100" lon="34.9671400">
<ele>356.130005</ele>
<time>2022-09-02T11:46:46.193Z</time>
</trkpt>
<trkpt lat="31.7758100" lon="34.9672100">
<ele>356.660004</ele>
<time>2022-09-02T11:46:46.193Z</time>
</trkpt>
<trkpt lat="31.7758200" lon="34.9672500">
<ele>357.519989</ele>
<time>2022-09-02T11:46:46.193Z</time>
</trkpt>
<trkpt lat="31.7758400" lon="34.9673000">
<ele>359.069977</ele>
<time>2022-09-02T11:46:46.193Z</time>
</trkpt>
<trkpt lat="31.7758500" lon="34.9673300">
<ele>360.000031</ele>
<time>2022-09-02T11:46:46.193Z</time>
</trkpt>
<trkpt lat="31.7758700" lon="34.9673800">
<ele>361.649994</ele>
<time>2022-09-02T11:46:46.193Z</time>
</trkpt>
<trkpt lat="31.7758900" lon="34.9674200">
<ele>363.089996</ele>
<time>2022-09-02T11:46:46.193Z</time>
</trkpt>
<trkpt lat="31.7759000" lon="34.9674500">
<ele>364.089996</ele>
<time>2022-09-02T11:46:46.193Z</time>
</trkpt>
<trkpt lat="31.7759400" lon="34.9675000">
<ele>366.299988</ele>
<time>2022-09-02T11:46:46.193Z</time>
</trkpt>
<trkpt lat="31.7759600" lon="34.9675200">
<ele>366.769989</ele>
<time>2022-09-02T11:46:46.193Z</time>
</trkpt>
<trkpt lat="31.7759800" lon="34.9675400">
<ele>367.239990</ele>
<time>2022-09-02T11:46:46.193Z</time>
</trkpt>
<trkpt lat="31.7760000" lon="34.9675600">
<ele>367.730011</ele>
<time>2022-09-02T11:46:46.193Z</time>
</trkpt>
<trkpt lat="31.7760400" lon="34.9676000">
<ele>368.730011</ele>
<time>2022-09-02T11:46:46.193Z</time>
</trkpt>
<trkpt lat="31.7760800" lon="34.9676400">
<ele>369.779999</ele>
<time>2022-09-02T11:46:46.193Z</time>
</trkpt>
<trkpt lat="31.7761300" lon="34.9676800">
<ele>370.740021</ele>
<time>2022-09-02T11:46:46.193Z</time>
</trkpt>
<trkpt lat="31.7761600" lon="34.9677100">
<ele>371.019989</ele>
<time>2022-09-02T11:46:46.193Z</time>
</trkpt>
<trkpt lat="31.7762100" lon="34.9677600">
<ele>371.600006</ele>
<time>2022-09-02T11:46:46.193Z</time>
</trkpt>
<trkpt lat="31.7762600" lon="34.9678000">
<ele>371.640015</ele>
<time>2022-09-02T11:46:46.193Z</time>
</trkpt>
<trkpt lat="31.7763000" lon="34.9678500">
<ele>371.070007</ele>
<time>2022-09-02T11:46:46.193Z</time>
</trkpt>
<trkpt lat="31.7763400" lon="34.9678900">
<ele>370.820007</ele>
<time>2022-09-02T11:46:46.193Z</time>
</trkpt>
<trkpt lat="31.7763800" lon="34.9679300">
<ele>370.690002</ele>
<time>2022-09-02T11:46:46.193Z</time>
</trkpt>
<trkpt lat="31.7764200" lon="34.9679700">
<ele>369.859985</ele>
<time>2022-09-02T11:46:46.193Z</time>
</trkpt>
<trkpt lat="31.7764600" lon="34.9680100">
<ele>368.850006</ele>
<time>2022-09-02T11:46:46.193Z</time>
</trkpt>
<trkpt lat="31.7765100" lon="34.9680700">
<ele>367.360016</ele>
<time>2022-09-02T11:46:46.193Z</time>
</trkpt>
<trkpt lat="31.7765500" lon="34.9681100">
<ele>366.179993</ele>
<time>2022-09-02T11:46:46.193Z</time>
</trkpt>
<trkpt lat="31.7766000" lon="34.9681800">
<ele>364.730011</ele>
<time>2022-09-02T11:46:46.193Z</time>
</trkpt>
<trkpt lat="31.7766700" lon="34.9682600">
<ele>363.739990</ele>
<time>2022-09-02T11:46:46.193Z</time>
</trkpt>
<trkpt lat="31.7767300" lon="34.9683700">
<ele>361.580017</ele>
<time>2022-09-02T11:46:46.193Z</time>
</trkpt>
<trkpt lat="31.7768000" lon="34.9684900">
<ele>359.610016</ele>
<time>2022-09-02T11:46:46.194Z</time>
</trkpt>
<trkpt lat="31.7768300" lon="34.9685400">
<ele>359.119995</ele>
<time>2022-09-02T11:46:46.194Z</time>
</trkpt>
<trkpt lat="31.7768600" lon="34.9686500">
<ele>358.710022</ele>
<time>2022-09-02T11:46:46.194Z</time>
</trkpt>
<trkpt lat="31.7768800" lon="34.9687000">
<ele>358.869995</ele>
<time>2022-09-02T11:46:46.194Z</time>
</trkpt>
<trkpt lat="31.7769000" lon="34.9688000">
<ele>359.189972</ele>
<time>2022-09-02T11:46:46.194Z</time>
</trkpt>
<trkpt lat="31.7769100" lon="34.9688400">
<ele>359.390015</ele>
<time>2022-09-02T11:46:46.194Z</time>
</trkpt>
<trkpt lat="31.7769100" lon="34.9689100">
<ele>359.440002</ele>
<time>2022-09-02T11:46:46.194Z</time>
</trkpt>
<trkpt lat="31.7769200" lon="34.9689600">
<ele>359.409973</ele>
<time>2022-09-02T11:46:46.194Z</time>
</trkpt>
<trkpt lat="31.7769200" lon="34.9690000">
<ele>359.279999</ele>
<time>2022-09-02T11:46:46.194Z</time>
</trkpt>
<trkpt lat="31.7769200" lon="34.9690600">
<ele>359.089996</ele>
<time>2022-09-02T11:46:46.194Z</time>
</trkpt>
<trkpt lat="31.7769200" lon="34.9691100">
<ele>358.920013</ele>
<time>2022-09-02T11:46:46.194Z</time>
</trkpt>
<trkpt lat="31.7769200" lon="34.9691400">
<ele>358.820007</ele>
<time>2022-09-02T11:46:46.194Z</time>
</trkpt>
<trkpt lat="31.7769200" lon="34.9691800">
<ele>358.679993</ele>
<time>2022-09-02T11:46:46.194Z</time>
</trkpt>
<trkpt lat="31.7769200" lon="34.9692300">
<ele>358.490021</ele>
<time>2022-09-02T11:46:46.194Z</time>
</trkpt>
<trkpt lat="31.7769300" lon="34.9692800">
<ele>358.410004</ele>
<time>2022-09-02T11:46:46.194Z</time>
</trkpt>
<trkpt lat="31.7769300" lon="34.9693200">
<ele>358.259979</ele>
<time>2022-09-02T11:46:46.194Z</time>
</trkpt>
<trkpt lat="31.7769300" lon="34.9693700">
<ele>358.070007</ele>
<time>2022-09-02T11:46:46.194Z</time>
</trkpt>
<trkpt lat="31.7769400" lon="34.9694300">
<ele>357.990021</ele>
<time>2022-09-02T11:46:46.194Z</time>
</trkpt>
<trkpt lat="31.7769400" lon="34.9694900">
<ele>357.929993</ele>
<time>2022-09-02T11:46:46.194Z</time>
</trkpt>
<trkpt lat="31.7769400" lon="34.9695400">
<ele>357.919983</ele>
<time>2022-09-02T11:46:46.194Z</time>
</trkpt>
<trkpt lat="31.7769500" lon="34.9696000">
<ele>358.049988</ele>
<time>2022-09-02T11:46:46.194Z</time>
</trkpt>
<trkpt lat="31.7769500" lon="34.9696700">
<ele>358.059998</ele>
<time>2022-09-02T11:46:46.194Z</time>
</trkpt>
<trkpt lat="31.7769600" lon="34.9697200">
<ele>358.169983</ele>
<time>2022-09-02T11:46:46.194Z</time>
</trkpt>
<trkpt lat="31.7769600" lon="34.9697700">
<ele>357.680023</ele>
<time>2022-09-02T11:46:46.194Z</time>
</trkpt>
<trkpt lat="31.7769700" lon="34.9698700">
<ele>356.830017</ele>
<time>2022-09-02T11:46:46.194Z</time>
</trkpt>
<trkpt lat="31.7769900" lon="34.9699400">
<ele>356.530029</ele>
<time>2022-09-02T11:46:46.194Z</time>
</trkpt>
<trkpt lat="31.7769900" lon="34.9700000">
<ele>355.979980</ele>
<time>2022-09-02T11:46:46.195Z</time>
</trkpt>
<trkpt lat="31.7770000" lon="34.9700900">
<ele>355.679993</ele>
<time>2022-09-02T11:46:46.195Z</time>
</trkpt>
<trkpt lat="31.7770000" lon="34.9702200">
<ele>354.929993</ele>
<time>2022-09-02T11:46:46.195Z</time>
</trkpt>
<trkpt lat="31.7769900" lon="34.9702800">
<ele>354.319977</ele>
<time>2022-09-02T11:46:46.195Z</time>
</trkpt>
<trkpt lat="31.7769900" lon="34.9703300">
<ele>354.500000</ele>
<time>2022-09-02T11:46:46.195Z</time>
</trkpt>
<trkpt lat="31.7769800" lon="34.9704000">
<ele>354.459991</ele>
<time>2022-09-02T11:46:46.195Z</time>
</trkpt>
<trkpt lat="31.7769600" lon="34.9704400">
<ele>354.029999</ele>
<time>2022-09-02T11:46:46.195Z</time>
</trkpt>
<trkpt lat="31.7769400" lon="34.9704600">
<ele>353.559998</ele>
<time>2022-09-02T11:46:46.195Z</time>
</trkpt>
<trkpt lat="31.7768900" lon="34.9705200">
<ele>352.819977</ele>
<time>2022-09-02T11:46:46.195Z</time>
</trkpt>
<trkpt lat="31.7768600" lon="34.9705400">
<ele>352.369995</ele>
<time>2022-09-02T11:46:46.195Z</time>
</trkpt>
<trkpt lat="31.7768400" lon="34.9705600">
<ele>352.169983</ele>
<time>2022-09-02T11:46:46.195Z</time>
</trkpt>
<trkpt lat="31.7768200" lon="34.9705800">
<ele>352.049988</ele>
<time>2022-09-02T11:46:46.195Z</time>
</trkpt>
<trkpt lat="31.7767800" lon="34.9706000">
<ele>351.640015</ele>
<time>2022-09-02T11:46:46.195Z</time>
</trkpt>
<trkpt lat="31.7767500" lon="34.9706100">
<ele>351.300018</ele>
<time>2022-09-02T11:46:46.195Z</time>
</trkpt>
<trkpt lat="31.7767200" lon="34.9706200">
<ele>350.989990</ele>
<time>2022-09-02T11:46:46.195Z</time>
</trkpt>
<trkpt lat="31.7766900" lon="34.9706300">
<ele>350.690002</ele>
<time>2022-09-02T11:46:46.195Z</time>
</trkpt>
<trkpt lat="31.7766300" lon="34.9706400">
<ele>349.949982</ele>
<time>2022-09-02T11:46:46.195Z</time>
</trkpt>
<trkpt lat="31.7765900" lon="34.9706400">
<ele>349.330017</ele>
<time>2022-09-02T11:46:46.195Z</time>
</trkpt>
<trkpt lat="31.7765500" lon="34.9706500">
<ele>348.879974</ele>
<time>2022-09-02T11:46:46.195Z</time>
</trkpt>
<trkpt lat="31.7765100" lon="34.9706600">
<ele>348.410004</ele>
<time>2022-09-02T11:46:46.195Z</time>
</trkpt>
<trkpt lat="31.7764500" lon="34.9706700">
<ele>347.619995</ele>
<time>2022-09-02T11:46:46.195Z</time>
</trkpt>
<trkpt lat="31.7764100" lon="34.9706900">
<ele>347.279999</ele>
<time>2022-09-02T11:46:46.195Z</time>
</trkpt>
<trkpt lat="31.7763500" lon="34.9707000">
<ele>346.929993</ele>
<time>2022-09-02T11:46:46.195Z</time>
</trkpt>
<trkpt lat="31.7763100" lon="34.9707100">
<ele>346.880005</ele>
<time>2022-09-02T11:46:46.195Z</time>
</trkpt>
<trkpt lat="31.7762500" lon="34.9707300">
<ele>346.760010</ele>
<time>2022-09-02T11:46:46.196Z</time>
</trkpt>
<trkpt lat="31.7762000" lon="34.9707500">
<ele>346.579987</ele>
<time>2022-09-02T11:46:46.196Z</time>
</trkpt>
<trkpt lat="31.7761500" lon="34.9707600">
<ele>346.269989</ele>
<time>2022-09-02T11:46:46.196Z</time>
</trkpt>
<trkpt lat="31.7761100" lon="34.9707700">
<ele>346.019989</ele>
<time>2022-09-02T11:46:46.196Z</time>
</trkpt>
<trkpt lat="31.7760800" lon="34.9707700">
<ele>346.529999</ele>
<time>2022-09-02T11:46:46.196Z</time>
</trkpt>
<trkpt lat="31.7760500" lon="34.9707800">
<ele>347.059998</ele>
<time>2022-09-02T11:46:46.196Z</time>
</trkpt>
<trkpt lat="31.7760000" lon="34.9707900">
<ele>347.940002</ele>
<time>2022-09-02T11:46:46.196Z</time>
</trkpt>
<trkpt lat="31.7759600" lon="34.9707900">
<ele>348.640015</ele>
<time>2022-09-02T11:46:46.196Z</time>
</trkpt>
<trkpt lat="31.7759300" lon="34.9707900">
<ele>349.160004</ele>
<time>2022-09-02T11:46:46.196Z</time>
</trkpt>
<trkpt lat="31.7759000" lon="34.9707900">
<ele>349.680023</ele>
<time>2022-09-02T11:46:46.196Z</time>
</trkpt>
<trkpt lat="31.7758700" lon="34.9707900">
<ele>350.199982</ele>
<time>2022-09-02T11:46:46.196Z</time>
</trkpt>
<trkpt lat="31.7758400" lon="34.9707900">
<ele>350.730011</ele>
<time>2022-09-02T11:46:46.196Z</time>
</trkpt>
<trkpt lat="31.7758000" lon="34.9707900">
<ele>351.269989</ele>
<time>2022-09-02T11:46:46.196Z</time>
</trkpt>
<trkpt lat="31.7757600" lon="34.9707900">
<ele>351.780029</ele>
<time>2022-09-02T11:46:46.196Z</time>
</trkpt>
<trkpt lat="31.7757200" lon="34.9708000">
<ele>352.369995</ele>
<time>2022-09-02T11:46:46.196Z</time>
</trkpt>
<trkpt lat="31.7756700" lon="34.9708300">
<ele>353.320007</ele>
<time>2022-09-02T11:46:46.196Z</time>
</trkpt>
<trkpt lat="31.7756400" lon="34.9708500">
<ele>354.070007</ele>
<time>2022-09-02T11:46:46.196Z</time>
</trkpt>
<trkpt lat="31.7756100" lon="34.9708800">
<ele>355.020020</ele>
<time>2022-09-02T11:46:46.196Z</time>
</trkpt>
<trkpt lat="31.7755800" lon="34.9709300">
<ele>356.360016</ele>
<time>2022-09-02T11:46:46.196Z</time>
</trkpt>
<trkpt lat="31.7755600" lon="34.9709700">
<ele>357.390015</ele>
<time>2022-09-02T11:46:46.196Z</time>
</trkpt>
<trkpt lat="31.7755400" lon="34.9710100">
<ele>358.240021</ele>
<time>2022-09-02T11:46:46.196Z</time>
</trkpt>
<trkpt lat="31.7755200" lon="34.9710600">
<ele>359.209991</ele>
<time>2022-09-02T11:46:46.196Z</time>
</trkpt>
<trkpt lat="31.7755100" lon="34.9711100">
<ele>360.139984</ele>
<time>2022-09-02T11:46:46.196Z</time>
</trkpt>
<trkpt lat="31.7755000" lon="34.9711400">
<ele>360.619995</ele>
<time>2022-09-02T11:46:46.196Z</time>
</trkpt>
<trkpt lat="31.7755000" lon="34.9711800">
<ele>361.190002</ele>
<time>2022-09-02T11:46:46.196Z</time>
</trkpt>
<trkpt lat="31.7754900" lon="34.9712300">
<ele>361.869995</ele>
<time>2022-09-02T11:46:46.196Z</time>
</trkpt>
<trkpt lat="31.7754800" lon="34.9712700">
<ele>362.350006</ele>
<time>2022-09-02T11:46:46.197Z</time>
</trkpt>
<trkpt lat="31.7754800" lon="34.9713100">
<ele>362.880005</ele>
<time>2022-09-02T11:46:46.197Z</time>
</trkpt>
<trkpt lat="31.7754700" lon="34.9713600">
<ele>363.410004</ele>
<time>2022-09-02T11:46:46.197Z</time>
</trkpt>
<trkpt lat="31.7754700" lon="34.9714100">
<ele>363.890015</ele>
<time>2022-09-02T11:46:46.197Z</time>
</trkpt>
<trkpt lat="31.7754700" lon="34.9714500">
<ele>364.119995</ele>
<time>2022-09-02T11:46:46.197Z</time>
</trkpt>
<trkpt lat="31.7754700" lon="34.9715000">
<ele>364.410004</ele>
<time>2022-09-02T11:46:46.197Z</time>
</trkpt>
<trkpt lat="31.7754800" lon="34.9715400">
<ele>364.750000</ele>
<time>2022-09-02T11:46:46.197Z</time>
</trkpt>
<trkpt lat="31.7754800" lon="34.9715800">
<ele>364.969971</ele>
<time>2022-09-02T11:46:46.197Z</time>
</trkpt>
<trkpt lat="31.7754800" lon="34.9716200">
<ele>365.200012</ele>
<time>2022-09-02T11:46:46.197Z</time>
</trkpt>
<trkpt lat="31.7754800" lon="34.9717000">
<ele>365.220001</ele>
<time>2022-09-02T11:46:46.197Z</time>
</trkpt>
<trkpt lat="31.7754800" lon="34.9717600">
<ele>364.779999</ele>
<time>2022-09-02T11:46:46.197Z</time>
</trkpt>
<trkpt lat="31.7754800" lon="34.9718300">
<ele>364.280029</ele>
<time>2022-09-02T11:46:46.197Z</time>
</trkpt>
<trkpt lat="31.7754800" lon="34.9718900">
<ele>363.850006</ele>
<time>2022-09-02T11:46:46.197Z</time>
</trkpt>
<trkpt lat="31.7754800" lon="34.9719600">
<ele>363.349976</ele>
<time>2022-09-02T11:46:46.197Z</time>
</trkpt>
<trkpt lat="31.7754900" lon="34.9720100">
<ele>363.120026</ele>
<time>2022-09-02T11:46:46.197Z</time>
</trkpt>
<trkpt lat="31.7754900" lon="34.9720700">
<ele>362.760010</ele>
<time>2022-09-02T11:46:46.197Z</time>
</trkpt>
<trkpt lat="31.7754800" lon="34.9722100">
<ele>361.720001</ele>
<time>2022-09-02T11:46:46.197Z</time>
</trkpt>
<trkpt lat="31.7754800" lon="34.9723400">
<ele>361.140015</ele>
<time>2022-09-02T11:46:46.197Z</time>
</trkpt>
<trkpt lat="31.7754700" lon="34.9724200">
<ele>360.689972</ele>
<time>2022-09-02T11:46:46.197Z</time>
</trkpt>
<trkpt lat="31.7754600" lon="34.9725500">
<ele>360.720001</ele>
<time>2022-09-02T11:46:46.197Z</time>
</trkpt>
<trkpt lat="31.7754500" lon="34.9726000">
<ele>361.000000</ele>
<time>2022-09-02T11:46:46.197Z</time>
</trkpt>
<trkpt lat="31.7754200" lon="34.9726800">
<ele>361.029968</ele>
<time>2022-09-02T11:46:46.197Z</time>
</trkpt>
<trkpt lat="31.7754000" lon="34.9727300">
<ele>360.869995</ele>
<time>2022-09-02T11:46:46.197Z</time>
</trkpt>
<trkpt lat="31.7753700" lon="34.9727700">
<ele>360.309998</ele>
<time>2022-09-02T11:46:46.197Z</time>
</trkpt>
<trkpt lat="31.7753500" lon="34.9728100">
<ele>360.630005</ele>
<time>2022-09-02T11:46:46.197Z</time>
</trkpt>
<trkpt lat="31.7753400" lon="34.9728600">
<ele>361.639984</ele>
<time>2022-09-02T11:46:46.197Z</time>
</trkpt>
<trkpt lat="31.7753300" lon="34.9729000">
<ele>362.399994</ele>
<time>2022-09-02T11:46:46.198Z</time>
</trkpt>
<trkpt lat="31.7753200" lon="34.9729500">
<ele>363.399994</ele>
<time>2022-09-02T11:46:46.198Z</time>
</trkpt>
<trkpt lat="31.7753100" lon="34.9729900">
<ele>364.159973</ele>
<time>2022-09-02T11:46:46.198Z</time>
</trkpt>
<trkpt lat="31.7753000" lon="34.9730300">
<ele>364.920013</ele>
<time>2022-09-02T11:46:46.198Z</time>
</trkpt>
<trkpt lat="31.7752800" lon="34.9730700">
<ele>365.260010</ele>
<time>2022-09-02T11:46:46.198Z</time>
</trkpt>
<trkpt lat="31.7752700" lon="34.9731000">
<ele>365.510010</ele>
<time>2022-09-02T11:46:46.198Z</time>
</trkpt>
<trkpt lat="31.7752600" lon="34.9731400">
<ele>365.929993</ele>
<time>2022-09-02T11:46:46.198Z</time>
</trkpt>
<trkpt lat="31.7752500" lon="34.9732000">
<ele>366.680023</ele>
<time>2022-09-02T11:46:46.198Z</time>
</trkpt>
<trkpt lat="31.7752500" lon="34.9732400">
<ele>367.289978</ele>
<time>2022-09-02T11:46:46.198Z</time>
</trkpt>
<trkpt lat="31.7752400" lon="34.9732800">
<ele>367.769989</ele>
<time>2022-09-02T11:46:46.198Z</time>
</trkpt>
<trkpt lat="31.7752400" lon="34.9733400">
<ele>368.660004</ele>
<time>2022-09-02T11:46:46.198Z</time>
</trkpt>
<trkpt lat="31.7752500" lon="34.9734000">
<ele>369.420013</ele>
<time>2022-09-02T11:46:46.198Z</time>
</trkpt>
<trkpt lat="31.7752600" lon="34.9734500">
<ele>370.069977</ele>
<time>2022-09-02T11:46:46.198Z</time>
</trkpt>
<trkpt lat="31.7752700" lon="34.9735300">
<ele>371.040009</ele>
<time>2022-09-02T11:46:46.198Z</time>
</trkpt>
<trkpt lat="31.7752900" lon="34.9735800">
<ele>371.890015</ele>
<time>2022-09-02T11:46:46.198Z</time>
</trkpt>
<trkpt lat="31.7753100" lon="34.9736300">
<ele>372.639984</ele>
<time>2022-09-02T11:46:46.198Z</time>
</trkpt>
<trkpt lat="31.7753300" lon="34.9736700">
<ele>373.109985</ele>
<time>2022-09-02T11:46:46.198Z</time>
</trkpt>
<trkpt lat="31.7753600" lon="34.9737300">
<ele>373.779999</ele>
<time>2022-09-02T11:46:46.198Z</time>
</trkpt>
<trkpt lat="31.7754000" lon="34.9737800">
<ele>374.540009</ele>
<time>2022-09-02T11:46:46.198Z</time>
</trkpt>
<trkpt lat="31.7754300" lon="34.9738300">
<ele>375.100006</ele>
<time>2022-09-02T11:46:46.198Z</time>
</trkpt>
<trkpt lat="31.7754600" lon="34.9738700">
<ele>375.600006</ele>
<time>2022-09-02T11:46:46.198Z</time>
</trkpt>
<trkpt lat="31.7755000" lon="34.9739300">
<ele>375.220001</ele>
<time>2022-09-02T11:46:46.198Z</time>
</trkpt>
<trkpt lat="31.7755400" lon="34.9739700">
<ele>374.760010</ele>
<time>2022-09-02T11:46:46.198Z</time>
</trkpt>
<trkpt lat="31.7755800" lon="34.9740100">
<ele>374.200012</ele>
<time>2022-09-02T11:46:46.198Z</time>
</trkpt>
<trkpt lat="31.7756300" lon="34.9740700">
<ele>373.319977</ele>
<time>2022-09-02T11:46:46.198Z</time>
</trkpt>
<trkpt lat="31.7756800" lon="34.9741200">
<ele>372.820007</ele>
<time>2022-09-02T11:46:46.199Z</time>
</trkpt>
<trkpt lat="31.7757400" lon="34.9741800">
<ele>372.429993</ele>
<time>2022-09-02T11:46:46.199Z</time>
</trkpt>
<trkpt lat="31.7757900" lon="34.9742400">
<ele>372.100006</ele>
<time>2022-09-02T11:46:46.199Z</time>
</trkpt>
<trkpt lat="31.7758800" lon="34.9743400">
<ele>370.860016</ele>
<time>2022-09-02T11:46:46.199Z</time>
</trkpt>
<trkpt lat="31.7759100" lon="34.9744500">
<ele>369.240021</ele>
<time>2022-09-02T11:46:46.199Z</time>
</trkpt>
<trkpt lat="31.7759300" lon="34.9745000">
<ele>368.949982</ele>
<time>2022-09-02T11:46:46.199Z</time>
</trkpt>
<trkpt lat="31.7759400" lon="34.9745500">
<ele>368.619995</ele>
<time>2022-09-02T11:46:46.199Z</time>
</trkpt>
<trkpt lat="31.7759500" lon="34.9746200">
<ele>368.160004</ele>
<time>2022-09-02T11:46:46.199Z</time>
</trkpt>
<trkpt lat="31.7759500" lon="34.9746500">
<ele>367.940002</ele>
<time>2022-09-02T11:46:46.199Z</time>
</trkpt>
<trkpt lat="31.7759400" lon="34.9747000">
<ele>367.539978</ele>
<time>2022-09-02T11:46:46.199Z</time>
</trkpt>
<trkpt lat="31.7759400" lon="34.9747500">
<ele>367.160004</ele>
<time>2022-09-02T11:46:46.199Z</time>
</trkpt>
<trkpt lat="31.7759300" lon="34.9748000">
<ele>366.700012</ele>
<time>2022-09-02T11:46:46.199Z</time>
</trkpt>
<trkpt lat="31.7759200" lon="34.9748400">
<ele>366.299988</ele>
<time>2022-09-02T11:46:46.199Z</time>
</trkpt>
<trkpt lat="31.7759000" lon="34.9748700">
<ele>365.900024</ele>
<time>2022-09-02T11:46:46.199Z</time>
</trkpt>
<trkpt lat="31.7758900" lon="34.9749000">
<ele>365.550018</ele>
<time>2022-09-02T11:46:46.199Z</time>
</trkpt>
<trkpt lat="31.7758600" lon="34.9749400">
<ele>364.889984</ele>
<time>2022-09-02T11:46:46.199Z</time>
</trkpt>
<trkpt lat="31.7758500" lon="34.9749700">
<ele>364.490021</ele>
<time>2022-09-02T11:46:46.199Z</time>
</trkpt>
<trkpt lat="31.7758200" lon="34.9750100">
<ele>364.049988</ele>
<time>2022-09-02T11:46:46.199Z</time>
</trkpt>
<trkpt lat="31.7758000" lon="34.9750500">
<ele>364.499969</ele>
<time>2022-09-02T11:46:46.199Z</time>
</trkpt>
<trkpt lat="31.7757800" lon="34.9750800">
<ele>364.820007</ele>
<time>2022-09-02T11:46:46.199Z</time>
</trkpt>
<trkpt lat="31.7757600" lon="34.9751200">
<ele>365.310028</ele>
<time>2022-09-02T11:46:46.199Z</time>
</trkpt>
<trkpt lat="31.7757400" lon="34.9751600">
<ele>365.829987</ele>
<time>2022-09-02T11:46:46.199Z</time>
</trkpt>
<trkpt lat="31.7757100" lon="34.9752000">
<ele>366.309998</ele>
<time>2022-09-02T11:46:46.199Z</time>
</trkpt>
<trkpt lat="31.7756900" lon="34.9752500">
<ele>367.029999</ele>
<time>2022-09-02T11:46:46.199Z</time>
</trkpt>
<trkpt lat="31.7756700" lon="34.9753000">
<ele>367.989990</ele>
<time>2022-09-02T11:46:46.200Z</time>
</trkpt>
<trkpt lat="31.7756600" lon="34.9753400">
<ele>369.000000</ele>
<time>2022-09-02T11:46:46.200Z</time>
</trkpt>
<trkpt lat="31.7756400" lon="34.9753800">
<ele>370.019989</ele>
<time>2022-09-02T11:46:46.200Z</time>
</trkpt>
<trkpt lat="31.7756300" lon="34.9754200">
<ele>371.089996</ele>
<time>2022-09-02T11:46:46.200Z</time>
</trkpt>
<trkpt lat="31.7756100" lon="34.9754700">
<ele>372.459991</ele>
<time>2022-09-02T11:46:46.200Z</time>
</trkpt>
<trkpt lat="31.7756000" lon="34.9755100">
<ele>373.579987</ele>
<time>2022-09-02T11:46:46.200Z</time>
</trkpt>
<trkpt lat="31.7755900" lon="34.9755500">
<ele>374.720001</ele>
<time>2022-09-02T11:46:46.200Z</time>
</trkpt>
<trkpt lat="31.7755800" lon="34.9756000">
<ele>375.220001</ele>
<time>2022-09-02T11:46:46.200Z</time>
</trkpt>
<trkpt lat="31.7755700" lon="34.9756700">
<ele>375.750000</ele>
<time>2022-09-02T11:46:46.200Z</time>
</trkpt>
<trkpt lat="31.7755600" lon="34.9757100">
<ele>376.089996</ele>
<time>2022-09-02T11:46:46.200Z</time>
</trkpt>
<trkpt lat="31.7755600" lon="34.9757800">
<ele>376.589996</ele>
<time>2022-09-02T11:46:46.200Z</time>
</trkpt>
<trkpt lat="31.7755600" lon="34.9758500">
<ele>376.970001</ele>
<time>2022-09-02T11:46:46.200Z</time>
</trkpt>
<trkpt lat="31.7755600" lon="34.9758800">
<ele>376.980011</ele>
<time>2022-09-02T11:46:46.200Z</time>
</trkpt>
<trkpt lat="31.7755700" lon="34.9759400">
<ele>376.959991</ele>
<time>2022-09-02T11:46:46.200Z</time>
</trkpt>
<trkpt lat="31.7755800" lon="34.9759800">
<ele>376.959991</ele>
<time>2022-09-02T11:46:46.200Z</time>
</trkpt>
<trkpt lat="31.7755900" lon="34.9760200">
<ele>376.999969</ele>
<time>2022-09-02T11:46:46.200Z</time>
</trkpt>
<trkpt lat="31.7756000" lon="34.9760500">
<ele>377.049988</ele>
<time>2022-09-02T11:46:46.200Z</time>
</trkpt>
<trkpt lat="31.7756100" lon="34.9760900">
<ele>377.149994</ele>
<time>2022-09-02T11:46:46.200Z</time>
</trkpt>
<trkpt lat="31.7756300" lon="34.9761300">
<ele>377.580017</ele>
<time>2022-09-02T11:46:46.200Z</time>
</trkpt>
<trkpt lat="31.7756400" lon="34.9761700">
<ele>378.280029</ele>
<time>2022-09-02T11:46:46.200Z</time>
</trkpt>
<trkpt lat="31.7756700" lon="34.9762200">
<ele>379.300018</ele>
<time>2022-09-02T11:46:46.200Z</time>
</trkpt>
<trkpt lat="31.7756900" lon="34.9762700">
<ele>380.330017</ele>
<time>2022-09-02T11:46:46.200Z</time>
</trkpt>
<trkpt lat="31.7757100" lon="34.9763100">
<ele>381.220001</ele>
<time>2022-09-02T11:46:46.200Z</time>
</trkpt>
<trkpt lat="31.7757300" lon="34.9763300">
<ele>381.769989</ele>
<time>2022-09-02T11:46:46.200Z</time>
</trkpt>
<trkpt lat="31.7757400" lon="34.9763600">
<ele>382.439972</ele>
<time>2022-09-02T11:46:46.200Z</time>
</trkpt>
<trkpt lat="31.7757600" lon="34.9763900">
<ele>383.220001</ele>
<time>2022-09-02T11:46:46.200Z</time>
</trkpt>
<trkpt lat="31.7757900" lon="34.9764300">
<ele>383.830017</ele>
<time>2022-09-02T11:46:46.201Z</time>
</trkpt>
<trkpt lat="31.7758100" lon="34.9764600">
<ele>384.260010</ele>
<time>2022-09-02T11:46:46.201Z</time>
</trkpt>
<trkpt lat="31.7758300" lon="34.9764900">
<ele>384.690002</ele>
<time>2022-09-02T11:46:46.201Z</time>
</trkpt>
<trkpt lat="31.7758500" lon="34.9765300">
<ele>384.750000</ele>
<time>2022-09-02T11:46:46.201Z</time>
</trkpt>
<trkpt lat="31.7758600" lon="34.9765600">
<ele>384.809998</ele>
<time>2022-09-02T11:46:46.201Z</time>
</trkpt>
<trkpt lat="31.7758700" lon="34.9765900">
<ele>384.879974</ele>
<time>2022-09-02T11:46:46.201Z</time>
</trkpt>
<trkpt lat="31.7758900" lon="34.9766200">
<ele>384.809998</ele>
<time>2022-09-02T11:46:46.201Z</time>
</trkpt>
<trkpt lat="31.7759100" lon="34.9766500">
<ele>384.759979</ele>
<time>2022-09-02T11:46:46.201Z</time>
</trkpt>
<trkpt lat="31.7759400" lon="34.9766900">
<ele>384.079987</ele>
<time>2022-09-02T11:46:46.201Z</time>
</trkpt>
<trkpt lat="31.7759600" lon="34.9767200">
<ele>383.299988</ele>
<time>2022-09-02T11:46:46.201Z</time>
</trkpt>
<trkpt lat="31.7760000" lon="34.9767500">
<ele>382.279999</ele>
<time>2022-09-02T11:46:46.201Z</time>
</trkpt>
<trkpt lat="31.7760300" lon="34.9767900">
<ele>381.260010</ele>
<time>2022-09-02T11:46:46.201Z</time>
</trkpt>
<trkpt lat="31.7760500" lon="34.9768200">
<ele>380.550018</ele>
<time>2022-09-02T11:46:46.201Z</time>
</trkpt>
<trkpt lat="31.7760700" lon="34.9768400">
<ele>380.000000</ele>
<time>2022-09-02T11:46:46.201Z</time>
</trkpt>
<trkpt lat="31.7760900" lon="34.9768600">
<ele>379.470001</ele>
<time>2022-09-02T11:46:46.201Z</time>
</trkpt>
<trkpt lat="31.7761200" lon="34.9768800">
<ele>378.910004</ele>
<time>2022-09-02T11:46:46.201Z</time>
</trkpt>
<trkpt lat="31.7761500" lon="34.9769000">
<ele>378.570007</ele>
<time>2022-09-02T11:46:46.201Z</time>
</trkpt>
<trkpt lat="31.7761900" lon="34.9769400">
<ele>378.050018</ele>
<time>2022-09-02T11:46:46.201Z</time>
</trkpt>
<trkpt lat="31.7762200" lon="34.9769700">
<ele>377.890015</ele>
<time>2022-09-02T11:46:46.201Z</time>
</trkpt>
<trkpt lat="31.7762400" lon="34.9770000">
<ele>377.790009</ele>
<time>2022-09-02T11:46:46.201Z</time>
</trkpt>
<trkpt lat="31.7762700" lon="34.9770300">
<ele>377.739990</ele>
<time>2022-09-02T11:46:46.201Z</time>
</trkpt>
<trkpt lat="31.7763100" lon="34.9770800">
<ele>377.720001</ele>
<time>2022-09-02T11:46:46.201Z</time>
</trkpt>
<trkpt lat="31.7763400" lon="34.9771200">
<ele>377.779999</ele>
<time>2022-09-02T11:46:46.201Z</time>
</trkpt>
<trkpt lat="31.7763600" lon="34.9771600">
<ele>377.839996</ele>
<time>2022-09-02T11:46:46.201Z</time>
</trkpt>
<trkpt lat="31.7763700" lon="34.9772000">
<ele>377.869995</ele>
<time>2022-09-02T11:46:46.201Z</time>
</trkpt>
<trkpt lat="31.7763800" lon="34.9772500">
<ele>377.839996</ele>
<time>2022-09-02T11:46:46.201Z</time>
</trkpt>
<trkpt lat="31.7763700" lon="34.9773100">
<ele>377.570007</ele>
<time>2022-09-02T11:46:46.201Z</time>
</trkpt>
<trkpt lat="31.7763600" lon="34.9773400">
<ele>377.410004</ele>
<time>2022-09-02T11:46:46.202Z</time>
</trkpt>
<trkpt lat="31.7763400" lon="34.9773800">
<ele>377.179993</ele>
<time>2022-09-02T11:46:46.202Z</time>
</trkpt>
<trkpt lat="31.7763100" lon="34.9774200">
<ele>376.919983</ele>
<time>2022-09-02T11:46:46.202Z</time>
</trkpt>
<trkpt lat="31.7762900" lon="34.9774700">
<ele>376.709991</ele>
<time>2022-09-02T11:46:46.202Z</time>
</trkpt>
<trkpt lat="31.7762600" lon="34.9775100">
<ele>376.600006</ele>
<time>2022-09-02T11:46:46.202Z</time>
</trkpt>
<trkpt lat="31.7762500" lon="34.9775500">
<ele>376.860016</ele>
<time>2022-09-02T11:46:46.202Z</time>
</trkpt>
<trkpt lat="31.7762400" lon="34.9775800">
<ele>377.080017</ele>
<time>2022-09-02T11:46:46.202Z</time>
</trkpt>
<trkpt lat="31.7762300" lon="34.9776200">
<ele>377.420013</ele>
<time>2022-09-02T11:46:46.202Z</time>
</trkpt>
<trkpt lat="31.7762200" lon="34.9776500">
<ele>377.709991</ele>
<time>2022-09-02T11:46:46.202Z</time>
</trkpt>
<trkpt lat="31.7762000" lon="34.9776900">
<ele>378.179993</ele>
<time>2022-09-02T11:46:46.202Z</time>
</trkpt>
<trkpt lat="31.7761900" lon="34.9777200">
<ele>378.549988</ele>
<time>2022-09-02T11:46:46.202Z</time>
</trkpt>
<trkpt lat="31.7761700" lon="34.9777700">
<ele>379.279999</ele>
<time>2022-09-02T11:46:46.202Z</time>
</trkpt>
<trkpt lat="31.7761400" lon="34.9778300">
<ele>381.060028</ele>
<time>2022-09-02T11:46:46.202Z</time>
</trkpt>
<trkpt lat="31.7761200" lon="34.9778700">
<ele>382.489990</ele>
<time>2022-09-02T11:46:46.202Z</time>
</trkpt>
<trkpt lat="31.7761100" lon="34.9779000">
<ele>383.529999</ele>
<time>2022-09-02T11:46:46.202Z</time>
</trkpt>
<trkpt lat="31.7760800" lon="34.9779500">
<ele>385.179993</ele>
<time>2022-09-02T11:46:46.202Z</time>
</trkpt>
<trkpt lat="31.7760700" lon="34.9779900">
<ele>386.410004</ele>
<time>2022-09-02T11:46:46.202Z</time>
</trkpt>
<trkpt lat="31.7760500" lon="34.9780200">
<ele>387.420013</ele>
<time>2022-09-02T11:46:46.202Z</time>
</trkpt>
<trkpt lat="31.7760300" lon="34.9780700">
<ele>388.529999</ele>
<time>2022-09-02T11:46:46.202Z</time>
</trkpt>
<trkpt lat="31.7760200" lon="34.9781000">
<ele>388.500000</ele>
<time>2022-09-02T11:46:46.202Z</time>
</trkpt>
<trkpt lat="31.7760000" lon="34.9781300">
<ele>388.529999</ele>
<time>2022-09-02T11:46:46.202Z</time>
</trkpt>
<trkpt lat="31.7759900" lon="34.9781600">
<ele>388.500000</ele>
<time>2022-09-02T11:46:46.202Z</time>
</trkpt>
<trkpt lat="31.7759800" lon="34.9782000">
<ele>388.420013</ele>
<time>2022-09-02T11:46:46.202Z</time>
</trkpt>
<trkpt lat="31.7759700" lon="34.9782300">
<ele>388.389984</ele>
<time>2022-09-02T11:46:46.202Z</time>
</trkpt>
<trkpt lat="31.7759500" lon="34.9782800">
<ele>388.349976</ele>
<time>2022-09-02T11:46:46.202Z</time>
</trkpt>
<trkpt lat="31.7759300" lon="34.9783100">
<ele>388.389984</ele>
<time>2022-09-02T11:46:46.202Z</time>
</trkpt>
<trkpt lat="31.7758900" lon="34.9783400">
<ele>388.559998</ele>
<time>2022-09-02T11:46:46.203Z</time>
</trkpt>
<trkpt lat="31.7758500" lon="34.9783500">
<ele>388.819977</ele>
<time>2022-09-02T11:46:46.203Z</time>
</trkpt>
<trkpt lat="31.7758200" lon="34.9783600">
<ele>388.619995</ele>
<time>2022-09-02T11:46:46.203Z</time>
</trkpt>
<trkpt lat="31.7757800" lon="34.9783600">
<ele>387.770020</ele>
<time>2022-09-02T11:46:46.203Z</time>
</trkpt>
<trkpt lat="31.7757300" lon="34.9783600">
<ele>386.710022</ele>
<time>2022-09-02T11:46:46.203Z</time>
</trkpt>
<trkpt lat="31.7756800" lon="34.9783500">
<ele>385.660004</ele>
<time>2022-09-02T11:46:46.203Z</time>
</trkpt>
<trkpt lat="31.7756400" lon="34.9783400">
<ele>384.820007</ele>
<time>2022-09-02T11:46:46.203Z</time>
</trkpt>
<trkpt lat="31.7756000" lon="34.9783300">
<ele>383.989990</ele>
<time>2022-09-02T11:46:46.203Z</time>
</trkpt>
<trkpt lat="31.7755500" lon="34.9783200">
<ele>383.220001</ele>
<time>2022-09-02T11:46:46.203Z</time>
</trkpt>
<trkpt lat="31.7754700" lon="34.9783000">
<ele>384.369995</ele>
<time>2022-09-02T11:46:46.203Z</time>
</trkpt>
<trkpt lat="31.7754000" lon="34.9782800">
<ele>385.170013</ele>
<time>2022-09-02T11:46:46.203Z</time>
</trkpt>
<trkpt lat="31.7753500" lon="34.9782700">
<ele>385.630005</ele>
<time>2022-09-02T11:46:46.203Z</time>
</trkpt>
<trkpt lat="31.7752900" lon="34.9782500">
<ele>386.000000</ele>
<time>2022-09-02T11:46:46.203Z</time>
</trkpt>
<trkpt lat="31.7752300" lon="34.9782400">
<ele>385.190002</ele>
<time>2022-09-02T11:46:46.203Z</time>
</trkpt>
<trkpt lat="31.7750900" lon="34.9782100">
<ele>382.359985</ele>
<time>2022-09-02T11:46:46.203Z</time>
</trkpt>
<trkpt lat="31.7749000" lon="34.9782000">
<ele>378.740021</ele>
<time>2022-09-02T11:46:46.203Z</time>
</trkpt>
<trkpt lat="31.7748100" lon="34.9782000">
<ele>377.070007</ele>
<time>2022-09-02T11:46:46.203Z</time>
</trkpt>
<trkpt lat="31.7746200" lon="34.9782000">
<ele>372.279999</ele>
<time>2022-09-02T11:46:46.203Z</time>
</trkpt>
<trkpt lat="31.7745200" lon="34.9782400">
<ele>368.220032</ele>
<time>2022-09-02T11:46:46.203Z</time>
</trkpt>
<trkpt lat="31.7743400" lon="34.9783400">
<ele>362.679993</ele>
<time>2022-09-02T11:46:46.203Z</time>
</trkpt>
<trkpt lat="31.7742000" lon="34.9785200">
<ele>364.059998</ele>
<time>2022-09-02T11:46:46.203Z</time>
</trkpt>
<trkpt lat="31.7741300" lon="34.9787400">
<ele>365.059998</ele>
<time>2022-09-02T11:46:46.203Z</time>
</trkpt>
<trkpt lat="31.7740900" lon="34.9788300">
<ele>365.119995</ele>
<time>2022-09-02T11:46:46.203Z</time>
</trkpt>
<trkpt lat="31.7739600" lon="34.9790200">
<ele>365.940002</ele>
<time>2022-09-02T11:46:46.203Z</time>
</trkpt>
<trkpt lat="31.7738800" lon="34.9790700">
<ele>365.239990</ele>
<time>2022-09-02T11:46:46.203Z</time>
</trkpt>
<trkpt lat="31.7738000" lon="34.9790900">
<ele>364.859985</ele>
<time>2022-09-02T11:46:46.203Z</time>
</trkpt>
<trkpt lat="31.7736100" lon="34.9790900">
<ele>363.619995</ele>
<time>2022-09-02T11:46:46.203Z</time>
</trkpt>
<trkpt lat="31.7734500" lon="34.9790600">
<ele>363.170013</ele>
<time>2022-09-02T11:46:46.203Z</time>
</trkpt>
<trkpt lat="31.7733200" lon="34.9789500">
<ele>362.250000</ele>
<time>2022-09-02T11:46:46.203Z</time>
</trkpt>
<trkpt lat="31.7732700" lon="34.9788800">
<ele>361.399994</ele>
<time>2022-09-02T11:46:46.203Z</time>
</trkpt>
<trkpt lat="31.7731800" lon="34.9786900">
<ele>362.959991</ele>
<time>2022-09-02T11:46:46.203Z</time>
</trkpt>
<trkpt lat="31.7731400" lon="34.9786100">
<ele>363.989990</ele>
<time>2022-09-02T11:46:46.204Z</time>
</trkpt>
<trkpt lat="31.7730900" lon="34.9784400">
<ele>363.230011</ele>
<time>2022-09-02T11:46:46.204Z</time>
</trkpt>
<trkpt lat="31.7730600" lon="34.9783000">
<ele>362.600006</ele>
<time>2022-09-02T11:46:46.204Z</time>
</trkpt>
<trkpt lat="31.7730400" lon="34.9782300">
<ele>362.040009</ele>
<time>2022-09-02T11:46:46.204Z</time>
</trkpt>
<trkpt lat="31.7730200" lon="34.9781600">
<ele>361.660004</ele>
<time>2022-09-02T11:46:46.204Z</time>
</trkpt>
<trkpt lat="31.7730100" lon="34.9780300">
<ele>360.949982</ele>
<time>2022-09-02T11:46:46.204Z</time>
</trkpt>
<trkpt lat="31.7730000" lon="34.9779600">
<ele>361.059998</ele>
<time>2022-09-02T11:46:46.204Z</time>
</trkpt>
<trkpt lat="31.7729900" lon="34.9778400">
<ele>361.049988</ele>
<time>2022-09-02T11:46:46.204Z</time>
</trkpt>
<trkpt lat="31.7729800" lon="34.9777800">
<ele>361.089996</ele>
<time>2022-09-02T11:46:46.204Z</time>
</trkpt>
<trkpt lat="31.7729800" lon="34.9777000">
<ele>360.959991</ele>
<time>2022-09-02T11:46:46.204Z</time>
</trkpt>
<trkpt lat="31.7729800" lon="34.9776400">
<ele>360.859985</ele>
<time>2022-09-02T11:46:46.204Z</time>
</trkpt>
<trkpt lat="31.7729800" lon="34.9775800">
<ele>360.760010</ele>
<time>2022-09-02T11:46:46.204Z</time>
</trkpt>
<trkpt lat="31.7729900" lon="34.9775400">
<ele>360.489990</ele>
<time>2022-09-02T11:46:46.204Z</time>
</trkpt>
<trkpt lat="31.7729900" lon="34.9775100">
<ele>360.440002</ele>
<time>2022-09-02T11:46:46.204Z</time>
</trkpt>
<trkpt lat="31.7730000" lon="34.9774400">
<ele>361.240021</ele>
<time>2022-09-02T11:46:46.204Z</time>
</trkpt>
<trkpt lat="31.7730000" lon="34.9774000">
<ele>361.929993</ele>
<time>2022-09-02T11:46:46.204Z</time>
</trkpt>
<trkpt lat="31.7730000" lon="34.9773300">
<ele>363.139984</ele>
<time>2022-09-02T11:46:46.204Z</time>
</trkpt>
<trkpt lat="31.7730100" lon="34.9772500">
<ele>364.339996</ele>
<time>2022-09-02T11:46:46.204Z</time>
</trkpt>
<trkpt lat="31.7730100" lon="34.9772000">
<ele>365.589996</ele>
<time>2022-09-02T11:46:46.204Z</time>
</trkpt>
<trkpt lat="31.7730200" lon="34.9771400">
<ele>367.519989</ele>
<time>2022-09-02T11:46:46.204Z</time>
</trkpt>
<trkpt lat="31.7730200" lon="34.9770700">
<ele>369.979980</ele>
<time>2022-09-02T11:46:46.204Z</time>
</trkpt>
<trkpt lat="31.7730200" lon="34.9770300">
<ele>371.380005</ele>
<time>2022-09-02T11:46:46.204Z</time>
</trkpt>
<trkpt lat="31.7730200" lon="34.9769700">
<ele>373.489990</ele>
<time>2022-09-02T11:46:46.204Z</time>
</trkpt>
<trkpt lat="31.7730200" lon="34.9769400">
<ele>374.429993</ele>
<time>2022-09-02T11:46:46.204Z</time>
</trkpt>
<trkpt lat="31.7730200" lon="34.9768900">
<ele>374.920013</ele>
<time>2022-09-02T11:46:46.204Z</time>
</trkpt>
<trkpt lat="31.7730100" lon="34.9768500">
<ele>375.399994</ele>
<time>2022-09-02T11:46:46.204Z</time>
</trkpt>
<trkpt lat="31.7730100" lon="34.9768000">
<ele>375.880005</ele>
<time>2022-09-02T11:46:46.204Z</time>
</trkpt>
<trkpt lat="31.7730000" lon="34.9767500">
<ele>376.420013</ele>
<time>2022-09-02T11:46:46.204Z</time>
</trkpt>
<trkpt lat="31.7729800" lon="34.9766800">
<ele>377.149994</ele>
<time>2022-09-02T11:46:46.204Z</time>
</trkpt>
<trkpt lat="31.7729600" lon="34.9766400">
<ele>377.120026</ele>
<time>2022-09-02T11:46:46.204Z</time>
</trkpt>
<trkpt lat="31.7729500" lon="34.9766100">
<ele>376.919983</ele>
<time>2022-09-02T11:46:46.205Z</time>
</trkpt>
<trkpt lat="31.7729300" lon="34.9765600">
<ele>376.650024</ele>
<time>2022-09-02T11:46:46.205Z</time>
</trkpt>
<trkpt lat="31.7729100" lon="34.9765300">
<ele>376.559998</ele>
<time>2022-09-02T11:46:46.205Z</time>
</trkpt>
<trkpt lat="31.7728900" lon="34.9765000">
<ele>376.510010</ele>
<time>2022-09-02T11:46:46.205Z</time>
</trkpt>
<trkpt lat="31.7728700" lon="34.9764600">
<ele>376.430023</ele>
<time>2022-09-02T11:46:46.205Z</time>
</trkpt>
<trkpt lat="31.7728500" lon="34.9764200">
<ele>376.390015</ele>
<time>2022-09-02T11:46:46.205Z</time>
</trkpt>
<trkpt lat="31.7728300" lon="34.9763800">
<ele>376.359985</ele>
<time>2022-09-02T11:46:46.205Z</time>
</trkpt>
<trkpt lat="31.7728200" lon="34.9763500">
<ele>376.220001</ele>
<time>2022-09-02T11:46:46.205Z</time>
</trkpt>
<trkpt lat="31.7727900" lon="34.9763100">
<ele>376.279999</ele>
<time>2022-09-02T11:46:46.205Z</time>
</trkpt>
<trkpt lat="31.7727700" lon="34.9762800">
<ele>376.250000</ele>
<time>2022-09-02T11:46:46.205Z</time>
</trkpt>
<trkpt lat="31.7727200" lon="34.9762300">
<ele>376.180023</ele>
<time>2022-09-02T11:46:46.205Z</time>
</trkpt>
<trkpt lat="31.7727000" lon="34.9762100">
<ele>376.170013</ele>
<time>2022-09-02T11:46:46.205Z</time>
</trkpt>
<trkpt lat="31.7726600" lon="34.9761700">
<ele>376.180023</ele>
<time>2022-09-02T11:46:46.205Z</time>
</trkpt>
<trkpt lat="31.7726400" lon="34.9761500">
<ele>376.199982</ele>
<time>2022-09-02T11:46:46.205Z</time>
</trkpt>
<trkpt lat="31.7726200" lon="34.9761200">
<ele>376.180023</ele>
<time>2022-09-02T11:46:46.205Z</time>
</trkpt>
<trkpt lat="31.7725900" lon="34.9760900">
<ele>375.750000</ele>
<time>2022-09-02T11:46:46.205Z</time>
</trkpt>
<trkpt lat="31.7725600" lon="34.9760600">
<ele>375.159973</ele>
<time>2022-09-02T11:46:46.205Z</time>
</trkpt>
<trkpt lat="31.7725400" lon="34.9760300">
<ele>374.540009</ele>
<time>2022-09-02T11:46:46.205Z</time>
</trkpt>
<trkpt lat="31.7725000" lon="34.9760000">
<ele>374.200012</ele>
<time>2022-09-02T11:46:46.205Z</time>
</trkpt>
<trkpt lat="31.7724800" lon="34.9759800">
<ele>373.870026</ele>
<time>2022-09-02T11:46:46.205Z</time>
</trkpt>
<trkpt lat="31.7724500" lon="34.9759400">
<ele>373.160004</ele>
<time>2022-09-02T11:46:46.205Z</time>
</trkpt>
<trkpt lat="31.7724300" lon="34.9759100">
<ele>372.619995</ele>
<time>2022-09-02T11:46:46.205Z</time>
</trkpt>
<trkpt lat="31.7724000" lon="34.9758600">
<ele>371.720001</ele>
<time>2022-09-02T11:46:46.205Z</time>
</trkpt>
<trkpt lat="31.7723800" lon="34.9758200">
<ele>371.229980</ele>
<time>2022-09-02T11:46:46.205Z</time>
</trkpt>
<trkpt lat="31.7723600" lon="34.9757800">
<ele>371.320007</ele>
<time>2022-09-02T11:46:46.205Z</time>
</trkpt>
<trkpt lat="31.7723400" lon="34.9757500">
<ele>371.519989</ele>
<time>2022-09-02T11:46:46.205Z</time>
</trkpt>
<trkpt lat="31.7723200" lon="34.9757100">
<ele>371.760010</ele>
<time>2022-09-02T11:46:46.205Z</time>
</trkpt>
<trkpt lat="31.7723000" lon="34.9756800">
<ele>372.089996</ele>
<time>2022-09-02T11:46:46.205Z</time>
</trkpt>
<trkpt lat="31.7722800" lon="34.9756400">
<ele>372.490021</ele>
<time>2022-09-02T11:46:46.205Z</time>
</trkpt>
<trkpt lat="31.7722600" lon="34.9756100">
<ele>372.960022</ele>
<time>2022-09-02T11:46:46.205Z</time>
</trkpt>
<trkpt lat="31.7722500" lon="34.9755800">
<ele>373.250000</ele>
<time>2022-09-02T11:46:46.205Z</time>
</trkpt>
<trkpt lat="31.7722200" lon="34.9755400">
<ele>374.229980</ele>
<time>2022-09-02T11:46:46.206Z</time>
</trkpt>
<trkpt lat="31.7722000" lon="34.9755000">
<ele>375.220001</ele>
<time>2022-09-02T11:46:46.206Z</time>
</trkpt>
<trkpt lat="31.7721600" lon="34.9754500">
<ele>376.850006</ele>
<time>2022-09-02T11:46:46.206Z</time>
</trkpt>
<trkpt lat="31.7721400" lon="34.9754200">
<ele>377.690002</ele>
<time>2022-09-02T11:46:46.206Z</time>
</trkpt>
<trkpt lat="31.7721200" lon="34.9753900">
<ele>378.509979</ele>
<time>2022-09-02T11:46:46.206Z</time>
</trkpt>
<trkpt lat="31.7720900" lon="34.9753700">
<ele>379.489990</ele>
<time>2022-09-02T11:46:46.206Z</time>
</trkpt>
<trkpt lat="31.7720500" lon="34.9753300">
<ele>380.890015</ele>
<time>2022-09-02T11:46:46.206Z</time>
</trkpt>
<trkpt lat="31.7720100" lon="34.9753000">
<ele>382.170013</ele>
<time>2022-09-02T11:46:46.206Z</time>
</trkpt>
<trkpt lat="31.7719800" lon="34.9752700">
<ele>383.160004</ele>
<time>2022-09-02T11:46:46.206Z</time>
</trkpt>
<trkpt lat="31.7719400" lon="34.9752400">
<ele>384.300018</ele>
<time>2022-09-02T11:46:46.206Z</time>
</trkpt>
<trkpt lat="31.7719200" lon="34.9752100">
<ele>384.600006</ele>
<time>2022-09-02T11:46:46.206Z</time>
</trkpt>
<trkpt lat="31.7718900" lon="34.9751800">
<ele>384.889984</ele>
<time>2022-09-02T11:46:46.206Z</time>
</trkpt>
<trkpt lat="31.7718700" lon="34.9751600">
<ele>385.040009</ele>
<time>2022-09-02T11:46:46.206Z</time>
</trkpt>
<trkpt lat="31.7718500" lon="34.9751300">
<ele>385.200012</ele>
<time>2022-09-02T11:46:46.206Z</time>
</trkpt>
<trkpt lat="31.7718300" lon="34.9751000">
<ele>385.309998</ele>
<time>2022-09-02T11:46:46.206Z</time>
</trkpt>
<trkpt lat="31.7718100" lon="34.9750700">
<ele>385.380005</ele>
<time>2022-09-02T11:46:46.206Z</time>
</trkpt>
<trkpt lat="31.7717900" lon="34.9750400">
<ele>385.399994</ele>
<time>2022-09-02T11:46:46.206Z</time>
</trkpt>
<trkpt lat="31.7717700" lon="34.9750000">
<ele>385.369995</ele>
<time>2022-09-02T11:46:46.206Z</time>
</trkpt>
<trkpt lat="31.7717400" lon="34.9749500">
<ele>385.349976</ele>
<time>2022-09-02T11:46:46.206Z</time>
</trkpt>
<trkpt lat="31.7717200" lon="34.9749200">
<ele>385.369995</ele>
<time>2022-09-02T11:46:46.206Z</time>
</trkpt>
<trkpt lat="31.7716900" lon="34.9748600">
<ele>385.500000</ele>
<time>2022-09-02T11:46:46.206Z</time>
</trkpt>
<trkpt lat="31.7716600" lon="34.9748200">
<ele>385.589996</ele>
<time>2022-09-02T11:46:46.206Z</time>
</trkpt>
<trkpt lat="31.7716500" lon="34.9747800">
<ele>385.660004</ele>
<time>2022-09-02T11:46:46.206Z</time>
</trkpt>
<trkpt lat="31.7716300" lon="34.9747500">
<ele>385.619995</ele>
<time>2022-09-02T11:46:46.206Z</time>
</trkpt>
<trkpt lat="31.7716100" lon="34.9747100">
<ele>385.600006</ele>
<time>2022-09-02T11:46:46.206Z</time>
</trkpt>
<trkpt lat="31.7716000" lon="34.9746800">
<ele>385.559967</ele>
<time>2022-09-02T11:46:46.206Z</time>
</trkpt>
<trkpt lat="31.7715900" lon="34.9746400">
<ele>385.529999</ele>
<time>2022-09-02T11:46:46.206Z</time>
</trkpt>
<trkpt lat="31.7715800" lon="34.9746000">
<ele>385.510010</ele>
<time>2022-09-02T11:46:46.206Z</time>
</trkpt>
<trkpt lat="31.7715700" lon="34.9745600">
<ele>385.510010</ele>
<time>2022-09-02T11:46:46.206Z</time>
</trkpt>
<trkpt lat="31.7715600" lon="34.9745300">
<ele>385.500000</ele>
<time>2022-09-02T11:46:46.206Z</time>
</trkpt>
<trkpt lat="31.7715600" lon="34.9745000">
<ele>385.540009</ele>
<time>2022-09-02T11:46:46.207Z</time>
</trkpt>
<trkpt lat="31.7715500" lon="34.9744500">
<ele>385.569977</ele>
<time>2022-09-02T11:46:46.207Z</time>
</trkpt>
<trkpt lat="31.7715500" lon="34.9744000">
<ele>384.040009</ele>
<time>2022-09-02T11:46:46.207Z</time>
</trkpt>
<trkpt lat="31.7715600" lon="34.9743400">
<ele>381.879974</ele>
<time>2022-09-02T11:46:46.207Z</time>
</trkpt>
<trkpt lat="31.7715600" lon="34.9742900">
<ele>380.100006</ele>
<time>2022-09-02T11:46:46.207Z</time>
</trkpt>
<trkpt lat="31.7715700" lon="34.9742100">
<ele>377.029999</ele>
<time>2022-09-02T11:46:46.207Z</time>
</trkpt>
<trkpt lat="31.7715800" lon="34.9741400">
<ele>374.550018</ele>
<time>2022-09-02T11:46:46.207Z</time>
</trkpt>
<trkpt lat="31.7715900" lon="34.9740300">
<ele>371.709991</ele>
<time>2022-09-02T11:46:46.207Z</time>
</trkpt>
<trkpt lat="31.7716200" lon="34.9739600">
<ele>369.460022</ele>
<time>2022-09-02T11:46:46.207Z</time>
</trkpt>
<trkpt lat="31.7717300" lon="34.9737400">
<ele>365.239990</ele>
<time>2022-09-02T11:46:46.207Z</time>
</trkpt>
<trkpt lat="31.7717900" lon="34.9736600">
<ele>364.020020</ele>
<time>2022-09-02T11:46:46.207Z</time>
</trkpt>
<trkpt lat="31.7718600" lon="34.9735800">
<ele>362.780029</ele>
<time>2022-09-02T11:46:46.207Z</time>
</trkpt>
<trkpt lat="31.7720100" lon="34.9734400">
<ele>359.260010</ele>
<time>2022-09-02T11:46:46.207Z</time>
</trkpt>
<trkpt lat="31.7720900" lon="34.9733700">
<ele>357.690033</ele>
<time>2022-09-02T11:46:46.207Z</time>
</trkpt>
<trkpt lat="31.7722400" lon="34.9732600">
<ele>355.559998</ele>
<time>2022-09-02T11:46:46.207Z</time>
</trkpt>
<trkpt lat="31.7723100" lon="34.9732000">
<ele>354.720001</ele>
<time>2022-09-02T11:46:46.207Z</time>
</trkpt>
<trkpt lat="31.7724400" lon="34.9730700">
<ele>353.440002</ele>
<time>2022-09-02T11:46:46.207Z</time>
</trkpt>
<trkpt lat="31.7725500" lon="34.9729100">
<ele>352.369995</ele>
<time>2022-09-02T11:46:46.207Z</time>
</trkpt>
<trkpt lat="31.7726000" lon="34.9727100">
<ele>350.739990</ele>
<time>2022-09-02T11:46:46.207Z</time>
</trkpt>
<trkpt lat="31.7726100" lon="34.9725000">
<ele>348.019989</ele>
<time>2022-09-02T11:46:46.207Z</time>
</trkpt>
<trkpt lat="31.7726100" lon="34.9722800">
<ele>347.389984</ele>
<time>2022-09-02T11:46:46.207Z</time>
</trkpt>
<trkpt lat="31.7725900" lon="34.9722100">
<ele>347.869995</ele>
<time>2022-09-02T11:46:46.207Z</time>
</trkpt>
<trkpt lat="31.7724900" lon="34.9720700">
<ele>352.299988</ele>
<time>2022-09-02T11:46:46.207Z</time>
</trkpt>
<trkpt lat="31.7723900" lon="34.9719400">
<ele>354.829987</ele>
<time>2022-09-02T11:46:46.207Z</time>
</trkpt>
<trkpt lat="31.7722800" lon="34.9718200">
<ele>357.709991</ele>
<time>2022-09-02T11:46:46.207Z</time>
</trkpt>
<trkpt lat="31.7721600" lon="34.9716900">
<ele>359.850006</ele>
<time>2022-09-02T11:46:46.207Z</time>
</trkpt>
<trkpt lat="31.7721100" lon="34.9716000">
<ele>359.690002</ele>
<time>2022-09-02T11:46:46.207Z</time>
</trkpt>
<trkpt lat="31.7720700" lon="34.9715100">
<ele>360.760010</ele>
<time>2022-09-02T11:46:46.207Z</time>
</trkpt>
<trkpt lat="31.7720400" lon="34.9714200">
<ele>362.850006</ele>
<time>2022-09-02T11:46:46.207Z</time>
</trkpt>
<trkpt lat="31.7720100" lon="34.9713300">
<ele>364.209991</ele>
<time>2022-09-02T11:46:46.207Z</time>
</trkpt>
<trkpt lat="31.7719600" lon="34.9711500">
<ele>364.920013</ele>
<time>2022-09-02T11:46:46.208Z</time>
</trkpt>
<trkpt lat="31.7719200" lon="34.9710100">
<ele>363.589996</ele>
<time>2022-09-02T11:46:46.208Z</time>
</trkpt>
<trkpt lat="31.7718900" lon="34.9708700">
<ele>361.779999</ele>
<time>2022-09-02T11:46:46.208Z</time>
</trkpt>
<trkpt lat="31.7718600" lon="34.9707800">
<ele>360.450012</ele>
<time>2022-09-02T11:46:46.208Z</time>
</trkpt>
<trkpt lat="31.7718400" lon="34.9707400">
<ele>359.740021</ele>
<time>2022-09-02T11:46:46.208Z</time>
</trkpt>
<trkpt lat="31.7717900" lon="34.9706600">
<ele>358.110016</ele>
<time>2022-09-02T11:46:46.208Z</time>
</trkpt>
<trkpt lat="31.7717600" lon="34.9706200">
<ele>357.190002</ele>
<time>2022-09-02T11:46:46.208Z</time>
</trkpt>
<trkpt lat="31.7716900" lon="34.9705700">
<ele>355.540009</ele>
<time>2022-09-02T11:46:46.208Z</time>
</trkpt>
<trkpt lat="31.7715800" lon="34.9705400">
<ele>352.169983</ele>
<time>2022-09-02T11:46:46.208Z</time>
</trkpt>
<trkpt lat="31.7715000" lon="34.9705400">
<ele>349.859985</ele>
<time>2022-09-02T11:46:46.208Z</time>
</trkpt>
<trkpt lat="31.7713800" lon="34.9705600">
<ele>346.670013</ele>
<time>2022-09-02T11:46:46.208Z</time>
</trkpt>
<trkpt lat="31.7713300" lon="34.9705700">
<ele>344.779999</ele>
<time>2022-09-02T11:46:46.208Z</time>
</trkpt>
<trkpt lat="31.7712900" lon="34.9705900">
<ele>343.430023</ele>
<time>2022-09-02T11:46:46.208Z</time>
</trkpt>
<trkpt lat="31.7712400" lon="34.9706200">
<ele>341.959991</ele>
<time>2022-09-02T11:46:46.208Z</time>
</trkpt>
<trkpt lat="31.7711400" lon="34.9707000">
<ele>339.989990</ele>
<time>2022-09-02T11:46:46.208Z</time>
</trkpt>
<trkpt lat="31.7710400" lon="34.9707900">
<ele>339.779999</ele>
<time>2022-09-02T11:46:46.208Z</time>
</trkpt>
<trkpt lat="31.7709200" lon="34.9709000">
<ele>340.480011</ele>
<time>2022-09-02T11:46:46.208Z</time>
</trkpt>
<trkpt lat="31.7708400" lon="34.9709600">
<ele>340.770020</ele>
<time>2022-09-02T11:46:46.208Z</time>
</trkpt>
<trkpt lat="31.7706800" lon="34.9710300">
<ele>342.830017</ele>
<time>2022-09-02T11:46:46.208Z</time>
</trkpt>
<trkpt lat="31.7705900" lon="34.9710300">
<ele>342.920013</ele>
<time>2022-09-02T11:46:46.208Z</time>
</trkpt>
<trkpt lat="31.7705100" lon="34.9710100">
<ele>343.720001</ele>
<time>2022-09-02T11:46:46.208Z</time>
</trkpt>
<trkpt lat="31.7704700" lon="34.9709700">
<ele>343.909973</ele>
<time>2022-09-02T11:46:46.208Z</time>
</trkpt>
<trkpt lat="31.7704400" lon="34.9708500">
<ele>342.109985</ele>
<time>2022-09-02T11:46:46.208Z</time>
</trkpt>
<trkpt lat="31.7704200" lon="34.9707800">
<ele>341.809998</ele>
<time>2022-09-02T11:46:46.208Z</time>
</trkpt>
<trkpt lat="31.7704000" lon="34.9706500">
<ele>341.139984</ele>
<time>2022-09-02T11:46:46.208Z</time>
</trkpt>
<trkpt lat="31.7703900" lon="34.9705900">
<ele>340.900024</ele>
<time>2022-09-02T11:46:46.208Z</time>
</trkpt>
<trkpt lat="31.7703800" lon="34.9704800">
<ele>341.220001</ele>
<time>2022-09-02T11:46:46.208Z</time>
</trkpt>
<trkpt lat="31.7703600" lon="34.9703900">
<ele>342.339996</ele>
<time>2022-09-02T11:46:46.208Z</time>
</trkpt>
<trkpt lat="31.7703500" lon="34.9703100">
<ele>343.019989</ele>
<time>2022-09-02T11:46:46.208Z</time>
</trkpt>
<trkpt lat="31.7703500" lon="34.9702700">
<ele>343.210022</ele>
<time>2022-09-02T11:46:46.208Z</time>
</trkpt>
<trkpt lat="31.7703400" lon="34.9702400">
<ele>343.869995</ele>
<time>2022-09-02T11:46:46.208Z</time>
</trkpt>
<trkpt lat="31.7703400" lon="34.9701700">
<ele>344.489990</ele>
<time>2022-09-02T11:46:46.209Z</time>
</trkpt>
<trkpt lat="31.7703300" lon="34.9701100">
<ele>345.369995</ele>
<time>2022-09-02T11:46:46.209Z</time>
</trkpt>
<trkpt lat="31.7703200" lon="34.9700600">
<ele>346.130005</ele>
<time>2022-09-02T11:46:46.209Z</time>
</trkpt>
<trkpt lat="31.7703200" lon="34.9700100">
<ele>346.550018</ele>
<time>2022-09-02T11:46:46.209Z</time>
</trkpt>
<trkpt lat="31.7703200" lon="34.9699700">
<ele>346.569977</ele>
<time>2022-09-02T11:46:46.209Z</time>
</trkpt>
<trkpt lat="31.7703100" lon="34.9699200">
<ele>346.770020</ele>
<time>2022-09-02T11:46:46.209Z</time>
</trkpt>
<trkpt lat="31.7703100" lon="34.9698900">
<ele>346.699982</ele>
<time>2022-09-02T11:46:46.209Z</time>
</trkpt>
<trkpt lat="31.7703100" lon="34.9698500">
<ele>346.600006</ele>
<time>2022-09-02T11:46:46.209Z</time>
</trkpt>
<trkpt lat="31.7703100" lon="34.9698200">
<ele>346.529999</ele>
<time>2022-09-02T11:46:46.209Z</time>
</trkpt>
<trkpt lat="31.7703100" lon="34.9697700">
<ele>346.420013</ele>
<time>2022-09-02T11:46:46.209Z</time>
</trkpt>
<trkpt lat="31.7703100" lon="34.9697300">
<ele>346.320007</ele>
<time>2022-09-02T11:46:46.209Z</time>
</trkpt>
<trkpt lat="31.7703100" lon="34.9697000">
<ele>346.300018</ele>
<time>2022-09-02T11:46:46.209Z</time>
</trkpt>
<trkpt lat="31.7703100" lon="34.9696500">
<ele>346.300018</ele>
<time>2022-09-02T11:46:46.209Z</time>
</trkpt>
<trkpt lat="31.7703200" lon="34.9695900">
<ele>346.089996</ele>
<time>2022-09-02T11:46:46.209Z</time>
</trkpt>
<trkpt lat="31.7703300" lon="34.9695500">
<ele>345.870026</ele>
<time>2022-09-02T11:46:46.209Z</time>
</trkpt>
<trkpt lat="31.7703300" lon="34.9695000">
<ele>345.870026</ele>
<time>2022-09-02T11:46:46.209Z</time>
</trkpt>
<trkpt lat="31.7703400" lon="34.9694500">
<ele>345.660004</ele>
<time>2022-09-02T11:46:46.209Z</time>
</trkpt>
<trkpt lat="31.7703400" lon="34.9694100">
<ele>345.600006</ele>
<time>2022-09-02T11:46:46.209Z</time>
</trkpt>
<trkpt lat="31.7703500" lon="34.9693500">
<ele>345.260010</ele>
<time>2022-09-02T11:46:46.209Z</time>
</trkpt>
<trkpt lat="31.7703600" lon="34.9692900">
<ele>344.890015</ele>
<time>2022-09-02T11:46:46.209Z</time>
</trkpt>
<trkpt lat="31.7703700" lon="34.9692300">
<ele>344.500000</ele>
<time>2022-09-02T11:46:46.209Z</time>
</trkpt>
<trkpt lat="31.7703900" lon="34.9691800">
<ele>343.809998</ele>
<time>2022-09-02T11:46:46.209Z</time>
</trkpt>
<trkpt lat="31.7704000" lon="34.9691000">
<ele>343.349976</ele>
<time>2022-09-02T11:46:46.209Z</time>
</trkpt>
<trkpt lat="31.7704400" lon="34.9689500">
<ele>342.000000</ele>
<time>2022-09-02T11:46:46.209Z</time>
</trkpt>
<trkpt lat="31.7704800" lon="34.9687900">
<ele>340.640015</ele>
<time>2022-09-02T11:46:46.209Z</time>
</trkpt>
<trkpt lat="31.7705100" lon="34.9687000">
<ele>339.580017</ele>
<time>2022-09-02T11:46:46.209Z</time>
</trkpt>
<trkpt lat="31.7705600" lon="34.9685300">
<ele>337.880005</ele>
<time>2022-09-02T11:46:46.210Z</time>
</trkpt>
<trkpt lat="31.7705900" lon="34.9684500">
<ele>337.079987</ele>
<time>2022-09-02T11:46:46.210Z</time>
</trkpt>
<trkpt lat="31.7706200" lon="34.9683700">
<ele>336.350006</ele>
<time>2022-09-02T11:46:46.210Z</time>
</trkpt>
<trkpt lat="31.7706800" lon="34.9681900">
<ele>335.100006</ele>
<time>2022-09-02T11:46:46.210Z</time>
</trkpt>
<trkpt lat="31.7707300" lon="34.9680100">
<ele>333.779999</ele>
<time>2022-09-02T11:46:46.210Z</time>
</trkpt>
<trkpt lat="31.7707600" lon="34.9679200">
<ele>332.349976</ele>
<time>2022-09-02T11:46:46.210Z</time>
</trkpt>
<trkpt lat="31.7708300" lon="34.9677500">
<ele>330.049988</ele>
<time>2022-09-02T11:46:46.210Z</time>
</trkpt>
<trkpt lat="31.7708600" lon="34.9676600">
<ele>329.229980</ele>
<time>2022-09-02T11:46:46.210Z</time>
</trkpt>
<trkpt lat="31.7709300" lon="34.9674900">
<ele>327.240021</ele>
<time>2022-09-02T11:46:46.210Z</time>
</trkpt>
<trkpt lat="31.7710000" lon="34.9673300">
<ele>325.440002</ele>
<time>2022-09-02T11:46:46.210Z</time>
</trkpt>
<trkpt lat="31.7710300" lon="34.9672500">
<ele>324.599976</ele>
<time>2022-09-02T11:46:46.210Z</time>
</trkpt>
<trkpt lat="31.7710900" lon="34.9670800">
<ele>324.059998</ele>
<time>2022-09-02T11:46:46.210Z</time>
</trkpt>
<trkpt lat="31.7711200" lon="34.9669900">
<ele>324.290009</ele>
<time>2022-09-02T11:46:46.210Z</time>
</trkpt>
<trkpt lat="31.7711700" lon="34.9668100">
<ele>324.689972</ele>
<time>2022-09-02T11:46:46.210Z</time>
</trkpt>
<trkpt lat="31.7712000" lon="34.9667200">
<ele>324.890015</ele>
<time>2022-09-02T11:46:46.210Z</time>
</trkpt>
<trkpt lat="31.7712300" lon="34.9666400">
<ele>325.270020</ele>
<time>2022-09-02T11:46:46.210Z</time>
</trkpt>
<trkpt lat="31.7713100" lon="34.9664600">
<ele>327.250031</ele>
<time>2022-09-02T11:46:46.210Z</time>
</trkpt>
<trkpt lat="31.7713500" lon="34.9662700">
<ele>327.359985</ele>
<time>2022-09-02T11:46:46.210Z</time>
</trkpt>
<trkpt lat="31.7713600" lon="34.9660500">
<ele>325.440002</ele>
<time>2022-09-02T11:46:46.210Z</time>
</trkpt>
<trkpt lat="31.7713600" lon="34.9658400">
<ele>324.080017</ele>
<time>2022-09-02T11:46:46.210Z</time>
</trkpt>
<trkpt lat="31.7713400" lon="34.9656200">
<ele>325.260010</ele>
<time>2022-09-02T11:46:46.210Z</time>
</trkpt>
<trkpt lat="31.7712500" lon="34.9654300">
<ele>328.230011</ele>
<time>2022-09-02T11:46:46.210Z</time>
</trkpt>
<trkpt lat="31.7711900" lon="34.9653400">
<ele>329.279999</ele>
<time>2022-09-02T11:46:46.210Z</time>
</trkpt>
<trkpt lat="31.7710200" lon="34.9651800">
<ele>328.649994</ele>
<time>2022-09-02T11:46:46.210Z</time>
</trkpt>
<trkpt lat="31.7708600" lon="34.9650800">
<ele>325.929993</ele>
<time>2022-09-02T11:46:46.210Z</time>
</trkpt>
<trkpt lat="31.7707800" lon="34.9650500">
<ele>324.269989</ele>
<time>2022-09-02T11:46:46.210Z</time>
</trkpt>
<trkpt lat="31.7706000" lon="34.9650100">
<ele>320.209991</ele>
<time>2022-09-02T11:46:46.210Z</time>
</trkpt>
<trkpt lat="31.7705200" lon="34.9649900">
<ele>318.809998</ele>
<time>2022-09-02T11:46:46.210Z</time>
</trkpt>
<trkpt lat="31.7703900" lon="34.9649300">
<ele>317.289978</ele>
<time>2022-09-02T11:46:46.210Z</time>
</trkpt>
<trkpt lat="31.7703400" lon="34.9649000">
<ele>316.360016</ele>
<time>2022-09-02T11:46:46.210Z</time>
</trkpt>
<trkpt lat="31.7702800" lon="34.9648500">
<ele>314.690002</ele>
<time>2022-09-02T11:46:46.210Z</time>
</trkpt>
<trkpt lat="31.7701800" lon="34.9647800">
<ele>312.170013</ele>
<time>2022-09-02T11:46:46.210Z</time>
</trkpt>
<trkpt lat="31.7701100" lon="34.9647600">
<ele>311.320007</ele>
<time>2022-09-02T11:46:46.210Z</time>
</trkpt>
<trkpt lat="31.7700400" lon="34.9647600">
<ele>311.000000</ele>
<time>2022-09-02T11:46:46.211Z</time>
</trkpt>
<trkpt lat="31.7699700" lon="34.9647700">
<ele>310.760010</ele>
<time>2022-09-02T11:46:46.211Z</time>
</trkpt>
<trkpt lat="31.7699200" lon="34.9648000">
<ele>310.860016</ele>
<time>2022-09-02T11:46:46.211Z</time>
</trkpt>
<trkpt lat="31.7698700" lon="34.9648500">
<ele>311.179993</ele>
<time>2022-09-02T11:46:46.211Z</time>
</trkpt>
<trkpt lat="31.7698100" lon="34.9649200">
<ele>311.440002</ele>
<time>2022-09-02T11:46:46.211Z</time>
</trkpt>
<trkpt lat="31.7697800" lon="34.9649500">
<ele>311.389984</ele>
<time>2022-09-02T11:46:46.211Z</time>
</trkpt>
<trkpt lat="31.7697500" lon="34.9649800">
<ele>311.260010</ele>
<time>2022-09-02T11:46:46.211Z</time>
</trkpt>
<trkpt lat="31.7696900" lon="34.9650100">
<ele>311.210022</ele>
<time>2022-09-02T11:46:46.211Z</time>
</trkpt>
<trkpt lat="31.7696600" lon="34.9650400">
<ele>311.799988</ele>
<time>2022-09-02T11:46:46.211Z</time>
</trkpt>
<trkpt lat="31.7696200" lon="34.9650700">
<ele>312.329987</ele>
<time>2022-09-02T11:46:46.211Z</time>
</trkpt>
<trkpt lat="31.7696000" lon="34.9651000">
<ele>312.839996</ele>
<time>2022-09-02T11:46:46.211Z</time>
</trkpt>
<trkpt lat="31.7695700" lon="34.9651200">
<ele>313.120026</ele>
<time>2022-09-02T11:46:46.211Z</time>
</trkpt>
<trkpt lat="31.7695400" lon="34.9651600">
<ele>313.699982</ele>
<time>2022-09-02T11:46:46.211Z</time>
</trkpt>
<trkpt lat="31.7695100" lon="34.9651900">
<ele>314.059998</ele>
<time>2022-09-02T11:46:46.211Z</time>
</trkpt>
<trkpt lat="31.7694900" lon="34.9652100">
<ele>314.270020</ele>
<time>2022-09-02T11:46:46.211Z</time>
</trkpt>
<trkpt lat="31.7694600" lon="34.9652000">
<ele>313.959991</ele>
<time>2022-09-02T11:46:46.211Z</time>
</trkpt>
<trkpt lat="31.7694500" lon="34.9651700">
<ele>313.469971</ele>
<time>2022-09-02T11:46:46.211Z</time>
</trkpt>
<trkpt lat="31.7694500" lon="34.9651300">
<ele>312.889984</ele>
<time>2022-09-02T11:46:46.211Z</time>
</trkpt>
<trkpt lat="31.7694700" lon="34.9651000">
<ele>312.510010</ele>
<time>2022-09-02T11:46:46.211Z</time>
</trkpt>
<trkpt lat="31.7694500" lon="34.9651500">
<ele>313.179993</ele>
<time>2022-09-02T11:46:46.211Z</time>
</trkpt>
<trkpt lat="31.7694400" lon="34.9651800">
<ele>313.609985</ele>
<time>2022-09-02T11:46:46.211Z</time>
</trkpt>
<trkpt lat="31.7694900" lon="34.9651900">
<ele>313.959991</ele>
<time>2022-09-02T11:46:46.211Z</time>
</trkpt>
<trkpt lat="31.7695300" lon="34.9651800">
<ele>313.989990</ele>
<time>2022-09-02T11:46:46.211Z</time>
</trkpt>
<trkpt lat="31.7695600" lon="34.9651600">
<ele>313.779999</ele>
<time>2022-09-02T11:46:46.211Z</time>
</trkpt>
<trkpt lat="31.7695900" lon="34.9651300">
<ele>313.359985</ele>
<time>2022-09-02T11:46:46.211Z</time>
</trkpt>
<trkpt lat="31.7696100" lon="34.9651000">
<ele>312.869995</ele>
<time>2022-09-02T11:46:46.211Z</time>
</trkpt>
<trkpt lat="31.7696400" lon="34.9650700">
<ele>312.359985</ele>
<time>2022-09-02T11:46:46.211Z</time>
</trkpt>
<trkpt lat="31.7696900" lon="34.9650100">
<ele>311.210022</ele>
<time>2022-09-02T11:46:46.211Z</time>
</trkpt>
<trkpt lat="31.7697200" lon="34.9649800">
<ele>310.779999</ele>
<time>2022-09-02T11:46:46.212Z</time>
</trkpt>
<trkpt lat="31.7697700" lon="34.9649400">
<ele>311.100006</ele>
<time>2022-09-02T11:46:46.212Z</time>
</trkpt>
<trkpt lat="31.7698000" lon="34.9649000">
<ele>311.019989</ele>
<time>2022-09-02T11:46:46.212Z</time>
</trkpt>
<trkpt lat="31.7698200" lon="34.9648500">
<ele>310.569977</ele>
<time>2022-09-02T11:46:46.212Z</time>
</trkpt>
<trkpt lat="31.7698400" lon="34.9647400">
<ele>309.119995</ele>
<time>2022-09-02T11:46:46.212Z</time>
</trkpt>
<trkpt lat="31.7698500" lon="34.9646500">
<ele>308.899994</ele>
<time>2022-09-02T11:46:46.212Z</time>
</trkpt>
<trkpt lat="31.7698600" lon="34.9643600">
<ele>308.839996</ele>
<time>2022-09-02T11:46:46.212Z</time>
</trkpt>
<trkpt lat="31.7698700" lon="34.9642500">
<ele>308.669983</ele>
<time>2022-09-02T11:46:46.212Z</time>
</trkpt>
<trkpt lat="31.7699100" lon="34.9641100">
<ele>308.130005</ele>
<time>2022-09-02T11:46:46.212Z</time>
</trkpt>
<trkpt lat="31.7699800" lon="34.9640400">
<ele>307.970001</ele>
<time>2022-09-02T11:46:46.212Z</time>
</trkpt>
<trkpt lat="31.7700100" lon="34.9640000">
<ele>307.950012</ele>
<time>2022-09-02T11:46:46.212Z</time>
</trkpt>
<trkpt lat="31.7700700" lon="34.9639300">
<ele>307.390015</ele>
<time>2022-09-02T11:46:46.212Z</time>
</trkpt>
<trkpt lat="31.7701200" lon="34.9638900">
<ele>306.709991</ele>
<time>2022-09-02T11:46:46.212Z</time>
</trkpt>
<trkpt lat="31.7701900" lon="34.9638500">
<ele>306.709991</ele>
<time>2022-09-02T11:46:46.212Z</time>
</trkpt>
<trkpt lat="31.7702200" lon="34.9638400">
<ele>306.739990</ele>
<time>2022-09-02T11:46:46.212Z</time>
</trkpt>
<trkpt lat="31.7702900" lon="34.9638100">
<ele>307.579987</ele>
<time>2022-09-02T11:46:46.212Z</time>
</trkpt>
<trkpt lat="31.7703400" lon="34.9637900">
<ele>309.309998</ele>
<time>2022-09-02T11:46:46.212Z</time>
</trkpt>
<trkpt lat="31.7703700" lon="34.9637700">
<ele>310.419983</ele>
<time>2022-09-02T11:46:46.212Z</time>
</trkpt>
<trkpt lat="31.7704300" lon="34.9637400">
<ele>312.160004</ele>
<time>2022-09-02T11:46:46.212Z</time>
</trkpt>
<trkpt lat="31.7704800" lon="34.9637100">
<ele>313.420013</ele>
<time>2022-09-02T11:46:46.212Z</time>
</trkpt>
<trkpt lat="31.7705100" lon="34.9636900">
<ele>314.059998</ele>
<time>2022-09-02T11:46:46.212Z</time>
</trkpt>
<trkpt lat="31.7705500" lon="34.9636700">
<ele>314.720001</ele>
<time>2022-09-02T11:46:46.212Z</time>
</trkpt>
<trkpt lat="31.7705800" lon="34.9636400">
<ele>315.009979</ele>
<time>2022-09-02T11:46:46.212Z</time>
</trkpt>
<trkpt lat="31.7706100" lon="34.9636300">
<ele>315.170013</ele>
<time>2022-09-02T11:46:46.212Z</time>
</trkpt>
<trkpt lat="31.7706400" lon="34.9636100">
<ele>315.300018</ele>
<time>2022-09-02T11:46:46.212Z</time>
</trkpt>
<trkpt lat="31.7707000" lon="34.9635900">
<ele>315.449982</ele>
<time>2022-09-02T11:46:46.212Z</time>
</trkpt>
<trkpt lat="31.7707400" lon="34.9635800">
<ele>315.589996</ele>
<time>2022-09-02T11:46:46.212Z</time>
</trkpt>
<trkpt lat="31.7707800" lon="34.9635600">
<ele>315.739990</ele>
<time>2022-09-02T11:46:46.212Z</time>
</trkpt>
<trkpt lat="31.7708300" lon="34.9635400">
<ele>315.980011</ele>
<time>2022-09-02T11:46:46.212Z</time>
</trkpt>
<trkpt lat="31.7708600" lon="34.9635200">
<ele>316.670013</ele>
<time>2022-09-02T11:46:46.212Z</time>
</trkpt>
<trkpt lat="31.7708900" lon="34.9635100">
<ele>317.409973</ele>
<time>2022-09-02T11:46:46.212Z</time>
</trkpt>
<trkpt lat="31.7709300" lon="34.9634800">
<ele>318.290009</ele>
<time>2022-09-02T11:46:46.213Z</time>
</trkpt>
<trkpt lat="31.7709500" lon="34.9634600">
<ele>318.670013</ele>
<time>2022-09-02T11:46:46.213Z</time>
</trkpt>
<trkpt lat="31.7709800" lon="34.9634300">
<ele>319.190002</ele>
<time>2022-09-02T11:46:46.213Z</time>
</trkpt>
<trkpt lat="31.7710100" lon="34.9634100">
<ele>319.710022</ele>
<time>2022-09-02T11:46:46.213Z</time>
</trkpt>
<trkpt lat="31.7710500" lon="34.9633800">
<ele>320.290009</ele>
<time>2022-09-02T11:46:46.213Z</time>
</trkpt>
<trkpt lat="31.7710900" lon="34.9633600">
<ele>320.889984</ele>
<time>2022-09-02T11:46:46.213Z</time>
</trkpt>
<trkpt lat="31.7711200" lon="34.9633500">
<ele>321.380005</ele>
<time>2022-09-02T11:46:46.213Z</time>
</trkpt>
<trkpt lat="31.7711500" lon="34.9633400">
<ele>322.020020</ele>
<time>2022-09-02T11:46:46.213Z</time>
</trkpt>
<trkpt lat="31.7711800" lon="34.9633300">
<ele>322.790009</ele>
<time>2022-09-02T11:46:46.213Z</time>
</trkpt>
<trkpt lat="31.7712100" lon="34.9633100">
<ele>323.820007</ele>
<time>2022-09-02T11:46:46.213Z</time>
</trkpt>
<trkpt lat="31.7712300" lon="34.9633000">
<ele>324.440002</ele>
<time>2022-09-02T11:46:46.213Z</time>
</trkpt>
<trkpt lat="31.7712700" lon="34.9632900">
<ele>325.519989</ele>
<time>2022-09-02T11:46:46.213Z</time>
</trkpt>
<trkpt lat="31.7713000" lon="34.9632700">
<ele>326.430023</ele>
<time>2022-09-02T11:46:46.213Z</time>
</trkpt>
<trkpt lat="31.7713200" lon="34.9632600">
<ele>326.990021</ele>
<time>2022-09-02T11:46:46.213Z</time>
</trkpt>
<trkpt lat="31.7713800" lon="34.9632400">
<ele>328.480011</ele>
<time>2022-09-02T11:46:46.213Z</time>
</trkpt>
<trkpt lat="31.7714100" lon="34.9632200">
<ele>328.720001</ele>
<time>2022-09-02T11:46:46.213Z</time>
</trkpt>
<trkpt lat="31.7714500" lon="34.9632100">
<ele>328.549988</ele>
<time>2022-09-02T11:46:46.213Z</time>
</trkpt>
<trkpt lat="31.7715100" lon="34.9631900">
<ele>328.100006</ele>
<time>2022-09-02T11:46:46.213Z</time>
</trkpt>
<trkpt lat="31.7715400" lon="34.9631700">
<ele>327.709991</ele>
<time>2022-09-02T11:46:46.213Z</time>
</trkpt>
<trkpt lat="31.7715900" lon="34.9631500">
<ele>326.950012</ele>
<time>2022-09-02T11:46:46.213Z</time>
</trkpt>
<trkpt lat="31.7716300" lon="34.9631300">
<ele>326.119995</ele>
<time>2022-09-02T11:46:46.213Z</time>
</trkpt>
<trkpt lat="31.7716600" lon="34.9631100">
<ele>325.280029</ele>
<time>2022-09-02T11:46:46.213Z</time>
</trkpt>
<trkpt lat="31.7716900" lon="34.9631000">
<ele>325.190002</ele>
<time>2022-09-02T11:46:46.213Z</time>
</trkpt>
<trkpt lat="31.7717400" lon="34.9630600">
<ele>325.119995</ele>
<time>2022-09-02T11:46:46.213Z</time>
</trkpt>
<trkpt lat="31.7717800" lon="34.9630200">
<ele>325.660004</ele>
<time>2022-09-02T11:46:46.213Z</time>
</trkpt>
<trkpt lat="31.7718200" lon="34.9630000">
<ele>326.190002</ele>
<time>2022-09-02T11:46:46.213Z</time>
</trkpt>
<trkpt lat="31.7718700" lon="34.9629700">
<ele>326.789978</ele>
<time>2022-09-02T11:46:46.213Z</time>
</trkpt>
<trkpt lat="31.7719000" lon="34.9629600">
<ele>327.129974</ele>
<time>2022-09-02T11:46:46.213Z</time>
</trkpt>
<trkpt lat="31.7719500" lon="34.9629400">
<ele>327.660004</ele>
<time>2022-09-02T11:46:46.213Z</time>
</trkpt>
<trkpt lat="31.7719900" lon="34.9629100">
<ele>328.140015</ele>
<time>2022-09-02T11:46:46.213Z</time>
</trkpt>
<trkpt lat="31.7720200" lon="34.9628800">
<ele>328.529999</ele>
<time>2022-09-02T11:46:46.214Z</time>
</trkpt>
<trkpt lat="31.7720500" lon="34.9628500">
<ele>328.960022</ele>
<time>2022-09-02T11:46:46.214Z</time>
</trkpt>
<trkpt lat="31.7720700" lon="34.9628100">
<ele>329.269989</ele>
<time>2022-09-02T11:46:46.214Z</time>
</trkpt>
<trkpt lat="31.7720800" lon="34.9627800">
<ele>329.439972</ele>
<time>2022-09-02T11:46:46.214Z</time>
</trkpt>
<trkpt lat="31.7720900" lon="34.9627300">
<ele>329.690002</ele>
<time>2022-09-02T11:46:46.214Z</time>
</trkpt>
<trkpt lat="31.7720900" lon="34.9626500">
<ele>329.820007</ele>
<time>2022-09-02T11:46:46.214Z</time>
</trkpt>
<trkpt lat="31.7720800" lon="34.9626000">
<ele>329.779968</ele>
<time>2022-09-02T11:46:46.214Z</time>
</trkpt>
<trkpt lat="31.7720700" lon="34.9625000">
<ele>329.900024</ele>
<time>2022-09-02T11:46:46.214Z</time>
</trkpt>
<trkpt lat="31.7720300" lon="34.9623300">
<ele>329.470001</ele>
<time>2022-09-02T11:46:46.214Z</time>
</trkpt>
<trkpt lat="31.7720100" lon="34.9622500">
<ele>329.520020</ele>
<time>2022-09-02T11:46:46.214Z</time>
</trkpt>
<trkpt lat="31.7719400" lon="34.9620400">
<ele>327.420013</ele>
<time>2022-09-02T11:46:46.214Z</time>
</trkpt>
<trkpt lat="31.7719100" lon="34.9619200">
<ele>326.209991</ele>
<time>2022-09-02T11:46:46.214Z</time>
</trkpt>
<trkpt lat="31.7718500" lon="34.9617100">
<ele>324.250000</ele>
<time>2022-09-02T11:46:46.214Z</time>
</trkpt>
<trkpt lat="31.7717500" lon="34.9615500">
<ele>321.709991</ele>
<time>2022-09-02T11:46:46.214Z</time>
</trkpt>
<trkpt lat="31.7716900" lon="34.9615100">
<ele>320.980011</ele>
<time>2022-09-02T11:46:46.214Z</time>
</trkpt>
<trkpt lat="31.7716100" lon="34.9614700">
<ele>319.370026</ele>
<time>2022-09-02T11:46:46.214Z</time>
</trkpt>
<trkpt lat="31.7715400" lon="34.9614500">
<ele>318.070007</ele>
<time>2022-09-02T11:46:46.214Z</time>
</trkpt>
<trkpt lat="31.7714600" lon="34.9614400">
<ele>316.920013</ele>
<time>2022-09-02T11:46:46.214Z</time>
</trkpt>
<trkpt lat="31.7712600" lon="34.9614300">
<ele>313.169983</ele>
<time>2022-09-02T11:46:46.214Z</time>
</trkpt>
<trkpt lat="31.7710600" lon="34.9614600">
<ele>309.819977</ele>
<time>2022-09-02T11:46:46.214Z</time>
</trkpt>
<trkpt lat="31.7708900" lon="34.9615900">
<ele>309.510010</ele>
<time>2022-09-02T11:46:46.214Z</time>
</trkpt>
<trkpt lat="31.7708400" lon="34.9616700">
<ele>310.220001</ele>
<time>2022-09-02T11:46:46.214Z</time>
</trkpt>
<trkpt lat="31.7707900" lon="34.9617700">
<ele>311.019989</ele>
<time>2022-09-02T11:46:46.214Z</time>
</trkpt>
<trkpt lat="31.7707000" lon="34.9619900">
<ele>312.180023</ele>
<time>2022-09-02T11:46:46.214Z</time>
</trkpt>
<trkpt lat="31.7705800" lon="34.9622400">
<ele>310.140015</ele>
<time>2022-09-02T11:46:46.214Z</time>
</trkpt>
<trkpt lat="31.7704600" lon="34.9624900">
<ele>307.420013</ele>
<time>2022-09-02T11:46:46.214Z</time>
</trkpt>
<trkpt lat="31.7703300" lon="34.9627200">
<ele>303.869995</ele>
<time>2022-09-02T11:46:46.214Z</time>
</trkpt>
<trkpt lat="31.7702600" lon="34.9628300">
<ele>303.369995</ele>
<time>2022-09-02T11:46:46.215Z</time>
</trkpt>
<trkpt lat="31.7701800" lon="34.9629400">
<ele>303.220001</ele>
<time>2022-09-02T11:46:46.215Z</time>
</trkpt>
<trkpt lat="31.7700200" lon="34.9631600">
<ele>302.990021</ele>
<time>2022-09-02T11:46:46.215Z</time>
</trkpt>
<trkpt lat="31.7699300" lon="34.9632600">
<ele>302.309998</ele>
<time>2022-09-02T11:46:46.215Z</time>
</trkpt>
<trkpt lat="31.7697600" lon="34.9634600">
<ele>300.709991</ele>
<time>2022-09-02T11:46:46.215Z</time>
</trkpt>
<trkpt lat="31.7696700" lon="34.9635200">
<ele>300.190002</ele>
<time>2022-09-02T11:46:46.215Z</time>
</trkpt>
<trkpt lat="31.7695700" lon="34.9635400">
<ele>299.470001</ele>
<time>2022-09-02T11:46:46.215Z</time>
</trkpt>
<trkpt lat="31.7694700" lon="34.9635400">
<ele>298.479980</ele>
<time>2022-09-02T11:46:46.215Z</time>
</trkpt>
<trkpt lat="31.7693700" lon="34.9635400">
<ele>298.970001</ele>
<time>2022-09-02T11:46:46.215Z</time>
</trkpt>
<trkpt lat="31.7692700" lon="34.9635300">
<ele>299.820007</ele>
<time>2022-09-02T11:46:46.215Z</time>
</trkpt>
<trkpt lat="31.7691800" lon="34.9634900">
<ele>300.130005</ele>
<time>2022-09-02T11:46:46.215Z</time>
</trkpt>
<trkpt lat="31.7690000" lon="34.9634300">
<ele>299.000000</ele>
<time>2022-09-02T11:46:46.215Z</time>
</trkpt>
<trkpt lat="31.7688600" lon="34.9634300">
<ele>298.179993</ele>
<time>2022-09-02T11:46:46.215Z</time>
</trkpt>
<trkpt lat="31.7687500" lon="34.9634500">
<ele>296.390015</ele>
<time>2022-09-02T11:46:46.215Z</time>
</trkpt>
<trkpt lat="31.7687000" lon="34.9634800">
<ele>295.880005</ele>
<time>2022-09-02T11:46:46.215Z</time>
</trkpt>
<trkpt lat="31.7686100" lon="34.9636000">
<ele>295.799988</ele>
<time>2022-09-02T11:46:46.215Z</time>
</trkpt>
<trkpt lat="31.7685300" lon="34.9637800">
<ele>295.660004</ele>
<time>2022-09-02T11:46:46.215Z</time>
</trkpt>
<trkpt lat="31.7684900" lon="34.9638600">
<ele>294.669983</ele>
<time>2022-09-02T11:46:46.215Z</time>
</trkpt>
<trkpt lat="31.7684000" lon="34.9640400">
<ele>291.320007</ele>
<time>2022-09-02T11:46:46.215Z</time>
</trkpt>
<trkpt lat="31.7683100" lon="34.9642000">
<ele>288.350006</ele>
<time>2022-09-02T11:46:46.215Z</time>
</trkpt>
<trkpt lat="31.7682700" lon="34.9642800">
<ele>289.480011</ele>
<time>2022-09-02T11:46:46.215Z</time>
</trkpt>
<trkpt lat="31.7682200" lon="34.9644400">
<ele>292.209991</ele>
<time>2022-09-02T11:46:46.215Z</time>
</trkpt>
<trkpt lat="31.7682100" lon="34.9645900">
<ele>295.209991</ele>
<time>2022-09-02T11:46:46.215Z</time>
</trkpt>
<trkpt lat="31.7682100" lon="34.9647400">
<ele>298.179993</ele>
<time>2022-09-02T11:46:46.215Z</time>
</trkpt>
<trkpt lat="31.7682300" lon="34.9648900">
<ele>299.510010</ele>
<time>2022-09-02T11:46:46.215Z</time>
</trkpt>
<trkpt lat="31.7683000" lon="34.9650700">
<ele>301.510010</ele>
<time>2022-09-02T11:46:46.215Z</time>
</trkpt>
<trkpt lat="31.7683300" lon="34.9651400">
<ele>301.369995</ele>
<time>2022-09-02T11:46:46.215Z</time>
</trkpt>
<trkpt lat="31.7683700" lon="34.9652200">
<ele>301.519989</ele>
<time>2022-09-02T11:46:46.215Z</time>
</trkpt>
<trkpt lat="31.7684400" lon="34.9653600">
<ele>300.330017</ele>
<time>2022-09-02T11:46:46.215Z</time>
</trkpt>
<trkpt lat="31.7684700" lon="34.9654400">
<ele>298.580017</ele>
<time>2022-09-02T11:46:46.215Z</time>
</trkpt>
<trkpt lat="31.7685300" lon="34.9655600">
<ele>296.239990</ele>
<time>2022-09-02T11:46:46.216Z</time>
</trkpt>
<trkpt lat="31.7686200" lon="34.9656600">
<ele>295.600006</ele>
<time>2022-09-02T11:46:46.216Z</time>
</trkpt>
<trkpt lat="31.7686600" lon="34.9657100">
<ele>295.609985</ele>
<time>2022-09-02T11:46:46.216Z</time>
</trkpt>
<trkpt lat="31.7687400" lon="34.9658000">
<ele>296.829987</ele>
<time>2022-09-02T11:46:46.216Z</time>
</trkpt>
<trkpt lat="31.7687800" lon="34.9659000">
<ele>297.360016</ele>
<time>2022-09-02T11:46:46.216Z</time>
</trkpt>
<trkpt lat="31.7688000" lon="34.9659500">
<ele>297.960022</ele>
<time>2022-09-02T11:46:46.216Z</time>
</trkpt>
<trkpt lat="31.7688200" lon="34.9659800">
<ele>298.829987</ele>
<time>2022-09-02T11:46:46.216Z</time>
</trkpt>
<trkpt lat="31.7688200" lon="34.9660700">
<ele>297.940002</ele>
<time>2022-09-02T11:46:46.216Z</time>
</trkpt>
<trkpt lat="31.7688300" lon="34.9661300">
<ele>298.119995</ele>
<time>2022-09-02T11:46:46.216Z</time>
</trkpt>
<trkpt lat="31.7688300" lon="34.9662100">
<ele>297.830017</ele>
<time>2022-09-02T11:46:46.216Z</time>
</trkpt>
<trkpt lat="31.7688300" lon="34.9662700">
<ele>297.610016</ele>
<time>2022-09-02T11:46:46.216Z</time>
</trkpt>
<trkpt lat="31.7688300" lon="34.9663200">
<ele>297.429993</ele>
<time>2022-09-02T11:46:46.216Z</time>
</trkpt>
<trkpt lat="31.7688300" lon="34.9663700">
<ele>297.250000</ele>
<time>2022-09-02T11:46:46.216Z</time>
</trkpt>
<trkpt lat="31.7688400" lon="34.9664200">
<ele>297.869995</ele>
<time>2022-09-02T11:46:46.216Z</time>
</trkpt>
<trkpt lat="31.7688400" lon="34.9664900">
<ele>297.960022</ele>
<time>2022-09-02T11:46:46.216Z</time>
</trkpt>
<trkpt lat="31.7688500" lon="34.9665700">
<ele>298.660004</ele>
<time>2022-09-02T11:46:46.216Z</time>
</trkpt>
<trkpt lat="31.7688700" lon="34.9666000">
<ele>299.880005</ele>
<time>2022-09-02T11:46:46.216Z</time>
</trkpt>
<trkpt lat="31.7688800" lon="34.9666300">
<ele>300.480011</ele>
<time>2022-09-02T11:46:46.216Z</time>
</trkpt>
<trkpt lat="31.7689000" lon="34.9667000">
<ele>301.760010</ele>
<time>2022-09-02T11:46:46.216Z</time>
</trkpt>
<trkpt lat="31.7689200" lon="34.9667300">
<ele>303.100006</ele>
<time>2022-09-02T11:46:46.216Z</time>
</trkpt>
<trkpt lat="31.7689300" lon="34.9667700">
<ele>303.760010</ele>
<time>2022-09-02T11:46:46.216Z</time>
</trkpt>
<trkpt lat="31.7689400" lon="34.9668100">
<ele>304.399994</ele>
<time>2022-09-02T11:46:46.216Z</time>
</trkpt>
<trkpt lat="31.7689500" lon="34.9668500">
<ele>305.029999</ele>
<time>2022-09-02T11:46:46.216Z</time>
</trkpt>
<trkpt lat="31.7689600" lon="34.9668900">
<ele>305.660004</ele>
<time>2022-09-02T11:46:46.216Z</time>
</trkpt>
<trkpt lat="31.7689700" lon="34.9669300">
<ele>306.269989</ele>
<time>2022-09-02T11:46:46.216Z</time>
</trkpt>
<trkpt lat="31.7689800" lon="34.9669700">
<ele>306.690002</ele>
<time>2022-09-02T11:46:46.216Z</time>
</trkpt>
<trkpt lat="31.7689900" lon="34.9670000">
<ele>307.119995</ele>
<time>2022-09-02T11:46:46.216Z</time>
</trkpt>
<trkpt lat="31.7690100" lon="34.9670400">
<ele>308.220001</ele>
<time>2022-09-02T11:46:46.216Z</time>
</trkpt>
<trkpt lat="31.7690300" lon="34.9670800">
<ele>309.429993</ele>
<time>2022-09-02T11:46:46.217Z</time>
</trkpt>
<trkpt lat="31.7690400" lon="34.9671200">
<ele>309.980011</ele>
<time>2022-09-02T11:46:46.217Z</time>
</trkpt>
<trkpt lat="31.7690600" lon="34.9671500">
<ele>311.410004</ele>
<time>2022-09-02T11:46:46.217Z</time>
</trkpt>
<trkpt lat="31.7690700" lon="34.9671900">
<ele>312.080017</ele>
<time>2022-09-02T11:46:46.217Z</time>
</trkpt>
<trkpt lat="31.7690700" lon="34.9672200">
<ele>312.000000</ele>
<time>2022-09-02T11:46:46.217Z</time>
</trkpt>
<trkpt lat="31.7690800" lon="34.9672700">
<ele>312.529999</ele>
<time>2022-09-02T11:46:46.217Z</time>
</trkpt>
<trkpt lat="31.7690900" lon="34.9673100">
<ele>313.110016</ele>
<time>2022-09-02T11:46:46.217Z</time>
</trkpt>
<trkpt lat="31.7690900" lon="34.9673700">
<ele>312.730011</ele>
<time>2022-09-02T11:46:46.217Z</time>
</trkpt>
<trkpt lat="31.7690900" lon="34.9674200">
<ele>312.420013</ele>
<time>2022-09-02T11:46:46.217Z</time>
</trkpt>
<trkpt lat="31.7690900" lon="34.9674600">
<ele>312.180023</ele>
<time>2022-09-02T11:46:46.217Z</time>
</trkpt>
<trkpt lat="31.7691000" lon="34.9675200">
<ele>312.809998</ele>
<time>2022-09-02T11:46:46.217Z</time>
</trkpt>
<trkpt lat="31.7691100" lon="34.9675700">
<ele>313.819977</ele>
<time>2022-09-02T11:46:46.217Z</time>
</trkpt>
<trkpt lat="31.7691200" lon="34.9676200">
<ele>314.809998</ele>
<time>2022-09-02T11:46:46.217Z</time>
</trkpt>
<trkpt lat="31.7691200" lon="34.9676600">
<ele>314.979980</ele>
<time>2022-09-02T11:46:46.217Z</time>
</trkpt>
<trkpt lat="31.7691300" lon="34.9677000">
<ele>315.909973</ele>
<time>2022-09-02T11:46:46.217Z</time>
</trkpt>
<trkpt lat="31.7691300" lon="34.9677300">
<ele>316.029999</ele>
<time>2022-09-02T11:46:46.217Z</time>
</trkpt>
<trkpt lat="31.7691300" lon="34.9677800">
<ele>316.240021</ele>
<time>2022-09-02T11:46:46.217Z</time>
</trkpt>
<trkpt lat="31.7691300" lon="34.9678300">
<ele>316.599976</ele>
<time>2022-09-02T11:46:46.217Z</time>
</trkpt>
<trkpt lat="31.7691300" lon="34.9678600">
<ele>316.819977</ele>
<time>2022-09-02T11:46:46.217Z</time>
</trkpt>
<trkpt lat="31.7691300" lon="34.9679100">
<ele>317.179993</ele>
<time>2022-09-02T11:46:46.217Z</time>
</trkpt>
<trkpt lat="31.7691300" lon="34.9679600">
<ele>317.539978</ele>
<time>2022-09-02T11:46:46.217Z</time>
</trkpt>
<trkpt lat="31.7691300" lon="34.9680000">
<ele>317.830017</ele>
<time>2022-09-02T11:46:46.217Z</time>
</trkpt>
<trkpt lat="31.7691300" lon="34.9680500">
<ele>318.190002</ele>
<time>2022-09-02T11:46:46.217Z</time>
</trkpt>
<trkpt lat="31.7691400" lon="34.9680900">
<ele>319.130005</ele>
<time>2022-09-02T11:46:46.217Z</time>
</trkpt>
<trkpt lat="31.7691400" lon="34.9681300">
<ele>319.299988</ele>
<time>2022-09-02T11:46:46.217Z</time>
</trkpt>
<trkpt lat="31.7691500" lon="34.9681800">
<ele>320.239990</ele>
<time>2022-09-02T11:46:46.217Z</time>
</trkpt>
<trkpt lat="31.7691500" lon="34.9682100">
<ele>320.360016</ele>
<time>2022-09-02T11:46:46.217Z</time>
</trkpt>
<trkpt lat="31.7691500" lon="34.9682500">
<ele>320.520020</ele>
<time>2022-09-02T11:46:46.217Z</time>
</trkpt>
<trkpt lat="31.7691500" lon="34.9682900">
<ele>320.690002</ele>
<time>2022-09-02T11:46:46.217Z</time>
</trkpt>
<trkpt lat="31.7691500" lon="34.9683400">
<ele>320.809998</ele>
<time>2022-09-02T11:46:46.217Z</time>
</trkpt>
<trkpt lat="31.7691500" lon="34.9683900">
<ele>320.480011</ele>
<time>2022-09-02T11:46:46.218Z</time>
</trkpt>
<trkpt lat="31.7691600" lon="34.9684500">
<ele>320.720001</ele>
<time>2022-09-02T11:46:46.218Z</time>
</trkpt>
<trkpt lat="31.7691600" lon="34.9684800">
<ele>320.510010</ele>
<time>2022-09-02T11:46:46.218Z</time>
</trkpt>
<trkpt lat="31.7691600" lon="34.9685200">
<ele>320.230011</ele>
<time>2022-09-02T11:46:46.218Z</time>
</trkpt>
<trkpt lat="31.7691600" lon="34.9685600">
<ele>319.949982</ele>
<time>2022-09-02T11:46:46.218Z</time>
</trkpt>
<trkpt lat="31.7691600" lon="34.9686000">
<ele>319.670013</ele>
<time>2022-09-02T11:46:46.218Z</time>
</trkpt>
<trkpt lat="31.7691700" lon="34.9686400">
<ele>320.100006</ele>
<time>2022-09-02T11:46:46.218Z</time>
</trkpt>
<trkpt lat="31.7691600" lon="34.9687000">
<ele>319.320007</ele>
<time>2022-09-02T11:46:46.218Z</time>
</trkpt>
<trkpt lat="31.7691600" lon="34.9687300">
<ele>319.230011</ele>
<time>2022-09-02T11:46:46.218Z</time>
</trkpt>
<trkpt lat="31.7691600" lon="34.9687700">
<ele>319.100006</ele>
<time>2022-09-02T11:46:46.218Z</time>
</trkpt>
<trkpt lat="31.7691500" lon="34.9688000">
<ele>318.540009</ele>
<time>2022-09-02T11:46:46.218Z</time>
</trkpt>
<trkpt lat="31.7691400" lon="34.9688400">
<ele>318.019989</ele>
<time>2022-09-02T11:46:46.218Z</time>
</trkpt>
<trkpt lat="31.7691400" lon="34.9688700">
<ele>317.970001</ele>
<time>2022-09-02T11:46:46.218Z</time>
</trkpt>
<trkpt lat="31.7691500" lon="34.9689200">
<ele>318.139984</ele>
<time>2022-09-02T11:46:46.218Z</time>
</trkpt>
<trkpt lat="31.7691600" lon="34.9689500">
<ele>318.320007</ele>
<time>2022-09-02T11:46:46.218Z</time>
</trkpt>
<trkpt lat="31.7691700" lon="34.9689900">
<ele>318.470001</ele>
<time>2022-09-02T11:46:46.218Z</time>
</trkpt>
<trkpt lat="31.7691700" lon="34.9690300">
<ele>318.179993</ele>
<time>2022-09-02T11:46:46.218Z</time>
</trkpt>
<trkpt lat="31.7691800" lon="34.9690700">
<ele>318.479980</ele>
<time>2022-09-02T11:46:46.218Z</time>
</trkpt>
<trkpt lat="31.7691800" lon="34.9691200">
<ele>318.109985</ele>
<time>2022-09-02T11:46:46.218Z</time>
</trkpt>
<trkpt lat="31.7691700" lon="34.9691600">
<ele>317.239990</ele>
<time>2022-09-02T11:46:46.218Z</time>
</trkpt>
<trkpt lat="31.7691700" lon="34.9692000">
<ele>317.069977</ele>
<time>2022-09-02T11:46:46.218Z</time>
</trkpt>
<trkpt lat="31.7691700" lon="34.9692300">
<ele>316.970001</ele>
<time>2022-09-02T11:46:46.218Z</time>
</trkpt>
<trkpt lat="31.7691700" lon="34.9692700">
<ele>316.819977</ele>
<time>2022-09-02T11:46:46.218Z</time>
</trkpt>
<trkpt lat="31.7691700" lon="34.9693000">
<ele>316.720032</ele>
<time>2022-09-02T11:46:46.218Z</time>
</trkpt>
<trkpt lat="31.7691600" lon="34.9693400">
<ele>316.250031</ele>
<time>2022-09-02T11:46:46.218Z</time>
</trkpt>
<trkpt lat="31.7691600" lon="34.9693800">
<ele>316.120026</ele>
<time>2022-09-02T11:46:46.218Z</time>
</trkpt>
<trkpt lat="31.7691600" lon="34.9694300">
<ele>315.950012</ele>
<time>2022-09-02T11:46:46.218Z</time>
</trkpt>
<trkpt lat="31.7691600" lon="34.9694700">
<ele>316.080017</ele>
<time>2022-09-02T11:46:46.218Z</time>
</trkpt>
<trkpt lat="31.7691500" lon="34.9695200">
<ele>316.240021</ele>
<time>2022-09-02T11:46:46.218Z</time>
</trkpt>
<trkpt lat="31.7691500" lon="34.9695800">
<ele>316.619995</ele>
<time>2022-09-02T11:46:46.219Z</time>
</trkpt>
<trkpt lat="31.7691400" lon="34.9696300">
<ele>316.700012</ele>
<time>2022-09-02T11:46:46.219Z</time>
</trkpt>
<trkpt lat="31.7691300" lon="34.9696800">
<ele>316.720032</ele>
<time>2022-09-02T11:46:46.219Z</time>
</trkpt>
<trkpt lat="31.7691100" lon="34.9697200">
<ele>316.360016</ele>
<time>2022-09-02T11:46:46.219Z</time>
</trkpt>
<trkpt lat="31.7691000" lon="34.9697500">
<ele>316.110016</ele>
<time>2022-09-02T11:46:46.219Z</time>
</trkpt>
<trkpt lat="31.7690900" lon="34.9697800">
<ele>315.829987</ele>
<time>2022-09-02T11:46:46.219Z</time>
</trkpt>
<trkpt lat="31.7690600" lon="34.9698300">
<ele>314.869995</ele>
<time>2022-09-02T11:46:46.219Z</time>
</trkpt>
<trkpt lat="31.7690400" lon="34.9698700">
<ele>314.159973</ele>
<time>2022-09-02T11:46:46.219Z</time>
</trkpt>
<trkpt lat="31.7689900" lon="34.9699200">
<ele>312.270020</ele>
<time>2022-09-02T11:46:46.219Z</time>
</trkpt>
<trkpt lat="31.7689800" lon="34.9699500">
<ele>311.789978</ele>
<time>2022-09-02T11:46:46.219Z</time>
</trkpt>
<trkpt lat="31.7689500" lon="34.9699900">
<ele>310.470001</ele>
<time>2022-09-02T11:46:46.219Z</time>
</trkpt>
<trkpt lat="31.7689000" lon="34.9700600">
<ele>308.490021</ele>
<time>2022-09-02T11:46:46.219Z</time>
</trkpt>
<trkpt lat="31.7688800" lon="34.9700800">
<ele>307.799988</ele>
<time>2022-09-02T11:46:46.219Z</time>
</trkpt>
<trkpt lat="31.7688600" lon="34.9701100">
<ele>307.399994</ele>
<time>2022-09-02T11:46:46.219Z</time>
</trkpt>
<trkpt lat="31.7688400" lon="34.9701300">
<ele>307.019989</ele>
<time>2022-09-02T11:46:46.219Z</time>
</trkpt>
<trkpt lat="31.7688100" lon="34.9701700">
<ele>306.529999</ele>
<time>2022-09-02T11:46:46.219Z</time>
</trkpt>
<trkpt lat="31.7687900" lon="34.9701900">
<ele>306.239990</ele>
<time>2022-09-02T11:46:46.219Z</time>
</trkpt>
<trkpt lat="31.7687700" lon="34.9702200">
<ele>306.019989</ele>
<time>2022-09-02T11:46:46.219Z</time>
</trkpt>
<trkpt lat="31.7687400" lon="34.9702600">
<ele>305.750000</ele>
<time>2022-09-02T11:46:46.219Z</time>
</trkpt>
<trkpt lat="31.7687000" lon="34.9703000">
<ele>305.600006</ele>
<time>2022-09-02T11:46:46.219Z</time>
</trkpt>
<trkpt lat="31.7686700" lon="34.9703300">
<ele>305.529999</ele>
<time>2022-09-02T11:46:46.219Z</time>
</trkpt>
<trkpt lat="31.7686300" lon="34.9703700">
<ele>305.339996</ele>
<time>2022-09-02T11:46:46.219Z</time>
</trkpt>
<trkpt lat="31.7686000" lon="34.9704100">
<ele>305.290009</ele>
<time>2022-09-02T11:46:46.219Z</time>
</trkpt>
<trkpt lat="31.7685700" lon="34.9704600">
<ele>305.430023</ele>
<time>2022-09-02T11:46:46.219Z</time>
</trkpt>
<trkpt lat="31.7685400" lon="34.9705100">
<ele>305.529999</ele>
<time>2022-09-02T11:46:46.219Z</time>
</trkpt>
<trkpt lat="31.7685100" lon="34.9705600">
<ele>305.570007</ele>
<time>2022-09-02T11:46:46.219Z</time>
</trkpt>
<trkpt lat="31.7684800" lon="34.9706200">
<ele>305.479980</ele>
<time>2022-09-02T11:46:46.219Z</time>
</trkpt>
<trkpt lat="31.7684500" lon="34.9706700">
<ele>305.199982</ele>
<time>2022-09-02T11:46:46.219Z</time>
</trkpt>
<trkpt lat="31.7684000" lon="34.9707500">
<ele>304.459991</ele>
<time>2022-09-02T11:46:46.220Z</time>
</trkpt>
<trkpt lat="31.7683600" lon="34.9708000">
<ele>303.639984</ele>
<time>2022-09-02T11:46:46.220Z</time>
</trkpt>
<trkpt lat="31.7683200" lon="34.9708600">
<ele>303.220001</ele>
<time>2022-09-02T11:46:46.220Z</time>
</trkpt>
<trkpt lat="31.7682900" lon="34.9709100">
<ele>303.419983</ele>
<time>2022-09-02T11:46:46.220Z</time>
</trkpt>
<trkpt lat="31.7682500" lon="34.9709500">
<ele>303.149994</ele>
<time>2022-09-02T11:46:46.220Z</time>
</trkpt>
<trkpt lat="31.7681900" lon="34.9710000">
<ele>302.300018</ele>
<time>2022-09-02T11:46:46.220Z</time>
</trkpt>
<trkpt lat="31.7681500" lon="34.9710400">
<ele>301.540009</ele>
<time>2022-09-02T11:46:46.220Z</time>
</trkpt>
<trkpt lat="31.7680900" lon="34.9710800">
<ele>300.029999</ele>
<time>2022-09-02T11:46:46.220Z</time>
</trkpt>
<trkpt lat="31.7680200" lon="34.9711400">
<ele>299.489990</ele>
<time>2022-09-02T11:46:46.220Z</time>
</trkpt>
<trkpt lat="31.7679500" lon="34.9712000">
<ele>300.779999</ele>
<time>2022-09-02T11:46:46.220Z</time>
</trkpt>
<trkpt lat="31.7679000" lon="34.9712300">
<ele>301.459991</ele>
<time>2022-09-02T11:46:46.220Z</time>
</trkpt>
<trkpt lat="31.7678500" lon="34.9712600">
<ele>302.260010</ele>
<time>2022-09-02T11:46:46.220Z</time>
</trkpt>
<trkpt lat="31.7677500" lon="34.9713100">
<ele>303.660004</ele>
<time>2022-09-02T11:46:46.220Z</time>
</trkpt>
<trkpt lat="31.7676600" lon="34.9713700">
<ele>305.070007</ele>
<time>2022-09-02T11:46:46.220Z</time>
</trkpt>
<trkpt lat="31.7676200" lon="34.9714100">
<ele>306.110016</ele>
<time>2022-09-02T11:46:46.220Z</time>
</trkpt>
<trkpt lat="31.7675400" lon="34.9714900">
<ele>307.919983</ele>
<time>2022-09-02T11:46:46.220Z</time>
</trkpt>
<trkpt lat="31.7675000" lon="34.9715300">
<ele>308.570007</ele>
<time>2022-09-02T11:46:46.220Z</time>
</trkpt>
<trkpt lat="31.7674100" lon="34.9716300">
<ele>308.420013</ele>
<time>2022-09-02T11:46:46.220Z</time>
</trkpt>
<trkpt lat="31.7672900" lon="34.9717400">
<ele>307.190002</ele>
<time>2022-09-02T11:46:46.220Z</time>
</trkpt>
<trkpt lat="31.7671600" lon="34.9718600">
<ele>306.660004</ele>
<time>2022-09-02T11:46:46.220Z</time>
</trkpt>
<trkpt lat="31.7671000" lon="34.9719200">
<ele>306.480011</ele>
<time>2022-09-02T11:46:46.220Z</time>
</trkpt>
<trkpt lat="31.7670100" lon="34.9720600">
<ele>305.760010</ele>
<time>2022-09-02T11:46:46.220Z</time>
</trkpt>
<trkpt lat="31.7669900" lon="34.9721400">
<ele>306.050018</ele>
<time>2022-09-02T11:46:46.220Z</time>
</trkpt>
<trkpt lat="31.7669500" lon="34.9723100">
<ele>305.899994</ele>
<time>2022-09-02T11:46:46.220Z</time>
</trkpt>
<trkpt lat="31.7669400" lon="34.9723900">
<ele>306.059998</ele>
<time>2022-09-02T11:46:46.220Z</time>
</trkpt>
<trkpt lat="31.7669200" lon="34.9725300">
<ele>306.529999</ele>
<time>2022-09-02T11:46:46.220Z</time>
</trkpt>
<trkpt lat="31.7669100" lon="34.9726600">
<ele>307.610016</ele>
<time>2022-09-02T11:46:46.220Z</time>
</trkpt>
<trkpt lat="31.7669000" lon="34.9727100">
<ele>307.829987</ele>
<time>2022-09-02T11:46:46.220Z</time>
</trkpt>
<trkpt lat="31.7669000" lon="34.9727700">
<ele>308.480011</ele>
<time>2022-09-02T11:46:46.220Z</time>
</trkpt>
<trkpt lat="31.7668900" lon="34.9728100">
<ele>308.350006</ele>
<time>2022-09-02T11:46:46.220Z</time>
</trkpt>
<trkpt lat="31.7669000" lon="34.9728500">
<ele>308.820007</ele>
<time>2022-09-02T11:46:46.220Z</time>
</trkpt>
<trkpt lat="31.7669000" lon="34.9729400">
<ele>309.139984</ele>
<time>2022-09-02T11:46:46.220Z</time>
</trkpt>
<trkpt lat="31.7669100" lon="34.9729700">
<ele>309.580017</ele>
<time>2022-09-02T11:46:46.221Z</time>
</trkpt>
<trkpt lat="31.7669300" lon="34.9730700">
<ele>310.429993</ele>
<time>2022-09-02T11:46:46.221Z</time>
</trkpt>
<trkpt lat="31.7669500" lon="34.9731500">
<ele>310.649994</ele>
<time>2022-09-02T11:46:46.221Z</time>
</trkpt>
<trkpt lat="31.7669700" lon="34.9732100">
<ele>311.399994</ele>
<time>2022-09-02T11:46:46.221Z</time>
</trkpt>
<trkpt lat="31.7669900" lon="34.9732700">
<ele>312.119995</ele>
<time>2022-09-02T11:46:46.221Z</time>
</trkpt>
<trkpt lat="31.7670000" lon="34.9733200">
<ele>312.310028</ele>
<time>2022-09-02T11:46:46.221Z</time>
</trkpt>
<trkpt lat="31.7670100" lon="34.9733700">
<ele>312.559998</ele>
<time>2022-09-02T11:46:46.221Z</time>
</trkpt>
<trkpt lat="31.7670200" lon="34.9734300">
<ele>312.690002</ele>
<time>2022-09-02T11:46:46.221Z</time>
</trkpt>
<trkpt lat="31.7670300" lon="34.9734800">
<ele>312.789978</ele>
<time>2022-09-02T11:46:46.221Z</time>
</trkpt>
<trkpt lat="31.7670400" lon="34.9735300">
<ele>312.799988</ele>
<time>2022-09-02T11:46:46.221Z</time>
</trkpt>
<trkpt lat="31.7670500" lon="34.9735600">
<ele>312.910004</ele>
<time>2022-09-02T11:46:46.221Z</time>
</trkpt>
<trkpt lat="31.7670600" lon="34.9736000">
<ele>312.860016</ele>
<time>2022-09-02T11:46:46.221Z</time>
</trkpt>
<trkpt lat="31.7670700" lon="34.9736400">
<ele>312.780029</ele>
<time>2022-09-02T11:46:46.221Z</time>
</trkpt>
<trkpt lat="31.7670900" lon="34.9736800">
<ele>312.950012</ele>
<time>2022-09-02T11:46:46.221Z</time>
</trkpt>
<trkpt lat="31.7671000" lon="34.9737100">
<ele>312.889984</ele>
<time>2022-09-02T11:46:46.221Z</time>
</trkpt>
<trkpt lat="31.7671100" lon="34.9737600">
<ele>312.549988</ele>
<time>2022-09-02T11:46:46.221Z</time>
</trkpt>
<trkpt lat="31.7671300" lon="34.9738000">
<ele>312.520020</ele>
<time>2022-09-02T11:46:46.221Z</time>
</trkpt>
<trkpt lat="31.7671400" lon="34.9738500">
<ele>312.049988</ele>
<time>2022-09-02T11:46:46.221Z</time>
</trkpt>
<trkpt lat="31.7671600" lon="34.9739000">
<ele>311.839996</ele>
<time>2022-09-02T11:46:46.221Z</time>
</trkpt>
<trkpt lat="31.7671700" lon="34.9739400">
<ele>311.880005</ele>
<time>2022-09-02T11:46:46.221Z</time>
</trkpt>
<trkpt lat="31.7671900" lon="34.9739900">
<ele>312.059998</ele>
<time>2022-09-02T11:46:46.221Z</time>
</trkpt>
<trkpt lat="31.7672000" lon="34.9740300">
<ele>312.089996</ele>
<time>2022-09-02T11:46:46.221Z</time>
</trkpt>
<trkpt lat="31.7672100" lon="34.9740600">
<ele>312.160004</ele>
<time>2022-09-02T11:46:46.221Z</time>
</trkpt>
<trkpt lat="31.7672300" lon="34.9741000">
<ele>312.549988</ele>
<time>2022-09-02T11:46:46.221Z</time>
</trkpt>
<trkpt lat="31.7672400" lon="34.9741400">
<ele>312.730011</ele>
<time>2022-09-02T11:46:46.221Z</time>
</trkpt>
<trkpt lat="31.7672700" lon="34.9741900">
<ele>313.420013</ele>
<time>2022-09-02T11:46:46.221Z</time>
</trkpt>
<trkpt lat="31.7672800" lon="34.9742500">
<ele>313.380005</ele>
<time>2022-09-02T11:46:46.221Z</time>
</trkpt>
<trkpt lat="31.7673000" lon="34.9742900">
<ele>313.699982</ele>
<time>2022-09-02T11:46:46.221Z</time>
</trkpt>
<trkpt lat="31.7673300" lon="34.9743500">
<ele>314.059998</ele>
<time>2022-09-02T11:46:46.221Z</time>
</trkpt>
<trkpt lat="31.7673500" lon="34.9744000">
<ele>314.140015</ele>
<time>2022-09-02T11:46:46.221Z</time>
</trkpt>
<trkpt lat="31.7673800" lon="34.9744500">
<ele>314.369995</ele>
<time>2022-09-02T11:46:46.222Z</time>
</trkpt>
<trkpt lat="31.7674000" lon="34.9745000">
<ele>314.549988</ele>
<time>2022-09-02T11:46:46.222Z</time>
</trkpt>
<trkpt lat="31.7674300" lon="34.9745500">
<ele>315.099976</ele>
<time>2022-09-02T11:46:46.222Z</time>
</trkpt>
<trkpt lat="31.7674500" lon="34.9746000">
<ele>315.520020</ele>
<time>2022-09-02T11:46:46.222Z</time>
</trkpt>
<trkpt lat="31.7674800" lon="34.9746400">
<ele>316.369995</ele>
<time>2022-09-02T11:46:46.222Z</time>
</trkpt>
<trkpt lat="31.7675100" lon="34.9746900">
<ele>317.610016</ele>
<time>2022-09-02T11:46:46.222Z</time>
</trkpt>
<trkpt lat="31.7675400" lon="34.9747200">
<ele>319.450012</ele>
<time>2022-09-02T11:46:46.222Z</time>
</trkpt>
<trkpt lat="31.7675700" lon="34.9747500">
<ele>321.479980</ele>
<time>2022-09-02T11:46:46.222Z</time>
</trkpt>
<trkpt lat="31.7676000" lon="34.9747800">
<ele>323.630005</ele>
<time>2022-09-02T11:46:46.222Z</time>
</trkpt>
<trkpt lat="31.7676400" lon="34.9748100">
<ele>326.520020</ele>
<time>2022-09-02T11:46:46.222Z</time>
</trkpt>
<trkpt lat="31.7676700" lon="34.9748400">
<ele>328.869995</ele>
<time>2022-09-02T11:46:46.222Z</time>
</trkpt>
<trkpt lat="31.7677000" lon="34.9748600">
<ele>331.160004</ele>
<time>2022-09-02T11:46:46.222Z</time>
</trkpt>
<trkpt lat="31.7677400" lon="34.9748900">
<ele>334.380005</ele>
<time>2022-09-02T11:46:46.222Z</time>
</trkpt>
<trkpt lat="31.7677700" lon="34.9749100">
<ele>336.830017</ele>
<time>2022-09-02T11:46:46.222Z</time>
</trkpt>
<trkpt lat="31.7678000" lon="34.9749300">
<ele>337.359985</ele>
<time>2022-09-02T11:46:46.222Z</time>
</trkpt>
<trkpt lat="31.7678700" lon="34.9749800">
<ele>336.769989</ele>
<time>2022-09-02T11:46:46.222Z</time>
</trkpt>
<trkpt lat="31.7679300" lon="34.9750300">
<ele>335.770020</ele>
<time>2022-09-02T11:46:46.222Z</time>
</trkpt>
<trkpt lat="31.7679800" lon="34.9750700">
<ele>334.820007</ele>
<time>2022-09-02T11:46:46.222Z</time>
</trkpt>
<trkpt lat="31.7680300" lon="34.9751000">
<ele>333.880005</ele>
<time>2022-09-02T11:46:46.222Z</time>
</trkpt>
<trkpt lat="31.7680700" lon="34.9751400">
<ele>333.450012</ele>
<time>2022-09-02T11:46:46.222Z</time>
</trkpt>
<trkpt lat="31.7681200" lon="34.9751800">
<ele>333.279999</ele>
<time>2022-09-02T11:46:46.222Z</time>
</trkpt>
<trkpt lat="31.7681900" lon="34.9752300">
<ele>332.709991</ele>
<time>2022-09-02T11:46:46.222Z</time>
</trkpt>
<trkpt lat="31.7682400" lon="34.9752800">
<ele>332.000000</ele>
<time>2022-09-02T11:46:46.222Z</time>
</trkpt>
<trkpt lat="31.7682900" lon="34.9753300">
<ele>331.480011</ele>
<time>2022-09-02T11:46:46.222Z</time>
</trkpt>
<trkpt lat="31.7683400" lon="34.9753700">
<ele>331.360016</ele>
<time>2022-09-02T11:46:46.222Z</time>
</trkpt>
<trkpt lat="31.7683900" lon="34.9754200">
<ele>331.610016</ele>
<time>2022-09-02T11:46:46.222Z</time>
</trkpt>
<trkpt lat="31.7684400" lon="34.9754700">
<ele>331.660004</ele>
<time>2022-09-02T11:46:46.222Z</time>
</trkpt>
<trkpt lat="31.7684900" lon="34.9755100">
<ele>331.549988</ele>
<time>2022-09-02T11:46:46.222Z</time>
</trkpt>
<trkpt lat="31.7685300" lon="34.9755500">
<ele>331.309998</ele>
<time>2022-09-02T11:46:46.222Z</time>
</trkpt>
<trkpt lat="31.7685900" lon="34.9756100">
<ele>329.690002</ele>
<time>2022-09-02T11:46:46.222Z</time>
</trkpt>
<trkpt lat="31.7686400" lon="34.9756500">
<ele>328.790009</ele>
<time>2022-09-02T11:46:46.223Z</time>
</trkpt>
<trkpt lat="31.7686900" lon="34.9756800">
<ele>328.400024</ele>
<time>2022-09-02T11:46:46.223Z</time>
</trkpt>
<trkpt lat="31.7687600" lon="34.9757300">
<ele>327.809967</ele>
<time>2022-09-02T11:46:46.223Z</time>
</trkpt>
<trkpt lat="31.7688000" lon="34.9757600">
<ele>327.529999</ele>
<time>2022-09-02T11:46:46.223Z</time>
</trkpt>
<trkpt lat="31.7688500" lon="34.9758000">
<ele>327.210022</ele>
<time>2022-09-02T11:46:46.223Z</time>
</trkpt>
<trkpt lat="31.7688900" lon="34.9758300">
<ele>327.070007</ele>
<time>2022-09-02T11:46:46.223Z</time>
</trkpt>
<trkpt lat="31.7689500" lon="34.9758800">
<ele>325.720001</ele>
<time>2022-09-02T11:46:46.223Z</time>
</trkpt>
<trkpt lat="31.7690300" lon="34.9759200">
<ele>324.739990</ele>
<time>2022-09-02T11:46:46.223Z</time>
</trkpt>
<trkpt lat="31.7690700" lon="34.9759500">
<ele>323.829987</ele>
<time>2022-09-02T11:46:46.223Z</time>
</trkpt>
<trkpt lat="31.7691200" lon="34.9759600">
<ele>323.720001</ele>
<time>2022-09-02T11:46:46.223Z</time>
</trkpt>
<trkpt lat="31.7691800" lon="34.9759600">
<ele>324.019989</ele>
<time>2022-09-02T11:46:46.223Z</time>
</trkpt>
<trkpt lat="31.7692600" lon="34.9759600">
<ele>324.229980</ele>
<time>2022-09-02T11:46:46.223Z</time>
</trkpt>
<trkpt lat="31.7693200" lon="34.9759600">
<ele>324.380005</ele>
<time>2022-09-02T11:46:46.223Z</time>
</trkpt>
<trkpt lat="31.7693800" lon="34.9759500">
<ele>325.070007</ele>
<time>2022-09-02T11:46:46.223Z</time>
</trkpt>
<trkpt lat="31.7694400" lon="34.9759400">
<ele>325.840027</ele>
<time>2022-09-02T11:46:46.223Z</time>
</trkpt>
<trkpt lat="31.7695200" lon="34.9759400">
<ele>327.110016</ele>
<time>2022-09-02T11:46:46.223Z</time>
</trkpt>
<trkpt lat="31.7696000" lon="34.9759400">
<ele>328.440002</ele>
<time>2022-09-02T11:46:46.223Z</time>
</trkpt>
<trkpt lat="31.7696500" lon="34.9759500">
<ele>329.009979</ele>
<time>2022-09-02T11:46:46.223Z</time>
</trkpt>
<trkpt lat="31.7696900" lon="34.9759600">
<ele>329.540009</ele>
<time>2022-09-02T11:46:46.223Z</time>
</trkpt>
<trkpt lat="31.7697200" lon="34.9759900">
<ele>329.690002</ele>
<time>2022-09-02T11:46:46.223Z</time>
</trkpt>
<trkpt lat="31.7697400" lon="34.9760300">
<ele>329.720001</ele>
<time>2022-09-02T11:46:46.223Z</time>
</trkpt>
<trkpt lat="31.7697600" lon="34.9760700">
<ele>329.720001</ele>
<time>2022-09-02T11:46:46.223Z</time>
</trkpt>
<trkpt lat="31.7697600" lon="34.9761200">
<ele>328.889984</ele>
<time>2022-09-02T11:46:46.223Z</time>
</trkpt>
<trkpt lat="31.7697600" lon="34.9761500">
<ele>328.239990</ele>
<time>2022-09-02T11:46:46.223Z</time>
</trkpt>
<trkpt lat="31.7697500" lon="34.9761800">
<ele>327.240021</ele>
<time>2022-09-02T11:46:46.223Z</time>
</trkpt>
<trkpt lat="31.7697400" lon="34.9762300">
<ele>325.710022</ele>
<time>2022-09-02T11:46:46.223Z</time>
</trkpt>
<trkpt lat="31.7697200" lon="34.9762600">
<ele>324.170013</ele>
<time>2022-09-02T11:46:46.223Z</time>
</trkpt>
<trkpt lat="31.7696900" lon="34.9762800">
<ele>322.629974</ele>
<time>2022-09-02T11:46:46.223Z</time>
</trkpt>
<trkpt lat="31.7696600" lon="34.9763100">
<ele>320.940002</ele>
<time>2022-09-02T11:46:46.223Z</time>
</trkpt>
<trkpt lat="31.7696100" lon="34.9763500">
<ele>318.520020</ele>
<time>2022-09-02T11:46:46.223Z</time>
</trkpt>
<trkpt lat="31.7695600" lon="34.9764100">
<ele>316.220001</ele>
<time>2022-09-02T11:46:46.223Z</time>
</trkpt>
<trkpt lat="31.7695200" lon="34.9764600">
<ele>314.850006</ele>
<time>2022-09-02T11:46:46.224Z</time>
</trkpt>
<trkpt lat="31.7694500" lon="34.9765600">
<ele>312.529999</ele>
<time>2022-09-02T11:46:46.224Z</time>
</trkpt>
<trkpt lat="31.7694000" lon="34.9766300">
<ele>311.169983</ele>
<time>2022-09-02T11:46:46.224Z</time>
</trkpt>
<trkpt lat="31.7693600" lon="34.9767000">
<ele>311.169983</ele>
<time>2022-09-02T11:46:46.224Z</time>
</trkpt>
<trkpt lat="31.7693500" lon="34.9767700">
<ele>312.910004</ele>
<time>2022-09-02T11:46:46.224Z</time>
</trkpt>
<trkpt lat="31.7693500" lon="34.9768400">
<ele>314.910004</ele>
<time>2022-09-02T11:46:46.224Z</time>
</trkpt>
<trkpt lat="31.7693500" lon="34.9769000">
<ele>316.630005</ele>
<time>2022-09-02T11:46:46.224Z</time>
</trkpt>
<trkpt lat="31.7693600" lon="34.9769700">
<ele>318.579987</ele>
<time>2022-09-02T11:46:46.224Z</time>
</trkpt>
<trkpt lat="31.7693700" lon="34.9770200">
<ele>319.339996</ele>
<time>2022-09-02T11:46:46.224Z</time>
</trkpt>
<trkpt lat="31.7693700" lon="34.9770600">
<ele>319.540009</ele>
<time>2022-09-02T11:46:46.224Z</time>
</trkpt>
<trkpt lat="31.7693900" lon="34.9771300">
<ele>320.709991</ele>
<time>2022-09-02T11:46:46.224Z</time>
</trkpt>
<trkpt lat="31.7694000" lon="34.9771600">
<ele>321.219971</ele>
<time>2022-09-02T11:46:46.224Z</time>
</trkpt>
<trkpt lat="31.7694100" lon="34.9772000">
<ele>321.709991</ele>
<time>2022-09-02T11:46:46.224Z</time>
</trkpt>
<trkpt lat="31.7694400" lon="34.9772500">
<ele>322.739990</ele>
<time>2022-09-02T11:46:46.224Z</time>
</trkpt>
<trkpt lat="31.7694600" lon="34.9772900">
<ele>323.189972</ele>
<time>2022-09-02T11:46:46.224Z</time>
</trkpt>
<trkpt lat="31.7694800" lon="34.9773200">
<ele>323.679993</ele>
<time>2022-09-02T11:46:46.224Z</time>
</trkpt>
<trkpt lat="31.7695100" lon="34.9773500">
<ele>324.519989</ele>
<time>2022-09-02T11:46:46.224Z</time>
</trkpt>
<trkpt lat="31.7695300" lon="34.9773800">
<ele>325.110016</ele>
<time>2022-09-02T11:46:46.224Z</time>
</trkpt>
<trkpt lat="31.7695500" lon="34.9774100">
<ele>325.750000</ele>
<time>2022-09-02T11:46:46.224Z</time>
</trkpt>
<trkpt lat="31.7695600" lon="34.9774400">
<ele>326.109985</ele>
<time>2022-09-02T11:46:46.224Z</time>
</trkpt>
<trkpt lat="31.7695700" lon="34.9774700">
<ele>326.480011</ele>
<time>2022-09-02T11:46:46.224Z</time>
</trkpt>
<trkpt lat="31.7696100" lon="34.9775200">
<ele>327.729980</ele>
<time>2022-09-02T11:46:46.224Z</time>
</trkpt>
<trkpt lat="31.7696400" lon="34.9775600">
<ele>328.419983</ele>
<time>2022-09-02T11:46:46.224Z</time>
</trkpt>
<trkpt lat="31.7696600" lon="34.9776000">
<ele>328.799988</ele>
<time>2022-09-02T11:46:46.224Z</time>
</trkpt>
<trkpt lat="31.7697000" lon="34.9776300">
<ele>330.149994</ele>
<time>2022-09-02T11:46:46.224Z</time>
</trkpt>
<trkpt lat="31.7697200" lon="34.9776600">
<ele>330.750000</ele>
<time>2022-09-02T11:46:46.224Z</time>
</trkpt>
<trkpt lat="31.7697500" lon="34.9776700">
<ele>332.099976</ele>
<time>2022-09-02T11:46:46.224Z</time>
</trkpt>
<trkpt lat="31.7697800" lon="34.9776900">
<ele>333.500031</ele>
<time>2022-09-02T11:46:46.224Z</time>
</trkpt>
<trkpt lat="31.7698100" lon="34.9777100">
<ele>335.000031</ele>
<time>2022-09-02T11:46:46.224Z</time>
</trkpt>
<trkpt lat="31.7698400" lon="34.9777300">
<ele>336.620026</ele>
<time>2022-09-02T11:46:46.224Z</time>
</trkpt>
<trkpt lat="31.7698700" lon="34.9777500">
<ele>338.340027</ele>
<time>2022-09-02T11:46:46.225Z</time>
</trkpt>
<trkpt lat="31.7699000" lon="34.9777700">
<ele>340.170013</ele>
<time>2022-09-02T11:46:46.225Z</time>
</trkpt>
<trkpt lat="31.7699400" lon="34.9777900">
<ele>342.140015</ele>
<time>2022-09-02T11:46:46.225Z</time>
</trkpt>
<trkpt lat="31.7699600" lon="34.9778300">
<ele>341.920013</ele>
<time>2022-09-02T11:46:46.225Z</time>
</trkpt>
<trkpt lat="31.7700000" lon="34.9778600">
<ele>343.040009</ele>
<time>2022-09-02T11:46:46.225Z</time>
</trkpt>
<trkpt lat="31.7700300" lon="34.9778900">
<ele>342.069977</ele>
<time>2022-09-02T11:46:46.225Z</time>
</trkpt>
<trkpt lat="31.7700600" lon="34.9779100">
<ele>341.540009</ele>
<time>2022-09-02T11:46:46.225Z</time>
</trkpt>
<trkpt lat="31.7700800" lon="34.9779300">
<ele>341.019989</ele>
<time>2022-09-02T11:46:46.225Z</time>
</trkpt>
<trkpt lat="31.7701100" lon="34.9779600">
<ele>340.339996</ele>
<time>2022-09-02T11:46:46.225Z</time>
</trkpt>
<trkpt lat="31.7701300" lon="34.9779800">
<ele>339.960022</ele>
<time>2022-09-02T11:46:46.225Z</time>
</trkpt>
<trkpt lat="31.7701600" lon="34.9780000">
<ele>339.730011</ele>
<time>2022-09-02T11:46:46.225Z</time>
</trkpt>
<trkpt lat="31.7701900" lon="34.9780400">
<ele>339.100006</ele>
<time>2022-09-02T11:46:46.225Z</time>
</trkpt>
<trkpt lat="31.7702400" lon="34.9780900">
<ele>338.729980</ele>
<time>2022-09-02T11:46:46.225Z</time>
</trkpt>
<trkpt lat="31.7702600" lon="34.9781100">
<ele>338.580017</ele>
<time>2022-09-02T11:46:46.225Z</time>
</trkpt>
<trkpt lat="31.7703000" lon="34.9781400">
<ele>338.609985</ele>
<time>2022-09-02T11:46:46.225Z</time>
</trkpt>
<trkpt lat="31.7703200" lon="34.9781700">
<ele>338.279999</ele>
<time>2022-09-02T11:46:46.225Z</time>
</trkpt>
<trkpt lat="31.7703400" lon="34.9781900">
<ele>338.120026</ele>
<time>2022-09-02T11:46:46.225Z</time>
</trkpt>
<trkpt lat="31.7703600" lon="34.9782200">
<ele>337.640015</ele>
<time>2022-09-02T11:46:46.225Z</time>
</trkpt>
<trkpt lat="31.7703900" lon="34.9782700">
<ele>336.639984</ele>
<time>2022-09-02T11:46:46.225Z</time>
</trkpt>
<trkpt lat="31.7704200" lon="34.9783200">
<ele>335.429993</ele>
<time>2022-09-02T11:46:46.225Z</time>
</trkpt>
<trkpt lat="31.7704400" lon="34.9783600">
<ele>334.189972</ele>
<time>2022-09-02T11:46:46.225Z</time>
</trkpt>
<trkpt lat="31.7704700" lon="34.9784000">
<ele>332.890015</ele>
<time>2022-09-02T11:46:46.225Z</time>
</trkpt>
<trkpt lat="31.7705200" lon="34.9784600">
<ele>330.839996</ele>
<time>2022-09-02T11:46:46.225Z</time>
</trkpt>
<trkpt lat="31.7705500" lon="34.9784900">
<ele>329.779968</ele>
<time>2022-09-02T11:46:46.225Z</time>
</trkpt>
<trkpt lat="31.7705900" lon="34.9785500">
<ele>329.000000</ele>
<time>2022-09-02T11:46:46.225Z</time>
</trkpt>
<trkpt lat="31.7706200" lon="34.9786100">
<ele>328.059998</ele>
<time>2022-09-02T11:46:46.225Z</time>
</trkpt>
<trkpt lat="31.7706600" lon="34.9786700">
<ele>328.320007</ele>
<time>2022-09-02T11:46:46.225Z</time>
</trkpt>
<trkpt lat="31.7706900" lon="34.9787100">
<ele>328.629974</ele>
<time>2022-09-02T11:46:46.225Z</time>
</trkpt>
<trkpt lat="31.7707300" lon="34.9787700">
<ele>328.799988</ele>
<time>2022-09-02T11:46:46.225Z</time>
</trkpt>
<trkpt lat="31.7707600" lon="34.9788100">
<ele>329.029999</ele>
<time>2022-09-02T11:46:46.225Z</time>
</trkpt>
<trkpt lat="31.7708100" lon="34.9788800">
<ele>329.250000</ele>
<time>2022-09-02T11:46:46.226Z</time>
</trkpt>
<trkpt lat="31.7708400" lon="34.9789200">
<ele>329.569977</ele>
<time>2022-09-02T11:46:46.226Z</time>
</trkpt>
<trkpt lat="31.7708800" lon="34.9789900">
<ele>329.430023</ele>
<time>2022-09-02T11:46:46.226Z</time>
</trkpt>
<trkpt lat="31.7709100" lon="34.9790300">
<ele>329.569977</ele>
<time>2022-09-02T11:46:46.226Z</time>
</trkpt>
<trkpt lat="31.7709500" lon="34.9791000">
<ele>329.319977</ele>
<time>2022-09-02T11:46:46.226Z</time>
</trkpt>
<trkpt lat="31.7709900" lon="34.9791700">
<ele>329.050018</ele>
<time>2022-09-02T11:46:46.226Z</time>
</trkpt>
<trkpt lat="31.7710100" lon="34.9792200">
<ele>329.239990</ele>
<time>2022-09-02T11:46:46.226Z</time>
</trkpt>
<trkpt lat="31.7710400" lon="34.9792800">
<ele>329.479980</ele>
<time>2022-09-02T11:46:46.226Z</time>
</trkpt>
<trkpt lat="31.7710500" lon="34.9793300">
<ele>329.190002</ele>
<time>2022-09-02T11:46:46.226Z</time>
</trkpt>
<trkpt lat="31.7710700" lon="34.9793900">
<ele>328.929993</ele>
<time>2022-09-02T11:46:46.226Z</time>
</trkpt>
<trkpt lat="31.7710900" lon="34.9794300">
<ele>328.809998</ele>
<time>2022-09-02T11:46:46.226Z</time>
</trkpt>
<trkpt lat="31.7711200" lon="34.9794600">
<ele>328.850006</ele>
<time>2022-09-02T11:46:46.226Z</time>
</trkpt>
<trkpt lat="31.7711700" lon="34.9795000">
<ele>328.809998</ele>
<time>2022-09-02T11:46:46.226Z</time>
</trkpt>
<trkpt lat="31.7712100" lon="34.9795200">
<ele>328.969971</ele>
<time>2022-09-02T11:46:46.226Z</time>
</trkpt>
<trkpt lat="31.7712600" lon="34.9795400">
<ele>329.239990</ele>
<time>2022-09-02T11:46:46.226Z</time>
</trkpt>
<trkpt lat="31.7713000" lon="34.9795700">
<ele>329.149994</ele>
<time>2022-09-02T11:46:46.226Z</time>
</trkpt>
<trkpt lat="31.7713500" lon="34.9795900">
<ele>329.369995</ele>
<time>2022-09-02T11:46:46.226Z</time>
</trkpt>
<trkpt lat="31.7713900" lon="34.9796200">
<ele>329.220001</ele>
<time>2022-09-02T11:46:46.226Z</time>
</trkpt>
<trkpt lat="31.7714300" lon="34.9796300">
<ele>329.579987</ele>
<time>2022-09-02T11:46:46.226Z</time>
</trkpt>
<trkpt lat="31.7714700" lon="34.9796500">
<ele>329.789978</ele>
<time>2022-09-02T11:46:46.226Z</time>
</trkpt>
<trkpt lat="31.7715600" lon="34.9796800">
<ele>330.710022</ele>
<time>2022-09-02T11:46:46.226Z</time>
</trkpt>
<trkpt lat="31.7716600" lon="34.9797200">
<ele>331.899994</ele>
<time>2022-09-02T11:46:46.226Z</time>
</trkpt>
<trkpt lat="31.7717300" lon="34.9797500">
<ele>333.549988</ele>
<time>2022-09-02T11:46:46.226Z</time>
</trkpt>
<trkpt lat="31.7718000" lon="34.9797700">
<ele>335.139984</ele>
<time>2022-09-02T11:46:46.226Z</time>
</trkpt>
<trkpt lat="31.7718700" lon="34.9798000">
<ele>336.750000</ele>
<time>2022-09-02T11:46:46.226Z</time>
</trkpt>
<trkpt lat="31.7719200" lon="34.9798400">
<ele>337.929993</ele>
<time>2022-09-02T11:46:46.226Z</time>
</trkpt>
<trkpt lat="31.7719400" lon="34.9799000">
<ele>338.550018</ele>
<time>2022-09-02T11:46:46.226Z</time>
</trkpt>
<trkpt lat="31.7719400" lon="34.9799700">
<ele>338.810028</ele>
<time>2022-09-02T11:46:46.226Z</time>
</trkpt>
<trkpt lat="31.7719400" lon="34.9800100">
<ele>339.100006</ele>
<time>2022-09-02T11:46:46.226Z</time>
</trkpt>
<trkpt lat="31.7719300" lon="34.9800400">
<ele>339.419983</ele>
<time>2022-09-02T11:46:46.226Z</time>
</trkpt>
<trkpt lat="31.7719000" lon="34.9800600">
<ele>339.110016</ele>
<time>2022-09-02T11:46:46.226Z</time>
</trkpt>
<trkpt lat="31.7718700" lon="34.9800700">
<ele>338.580017</ele>
<time>2022-09-02T11:46:46.227Z</time>
</trkpt>
<trkpt lat="31.7718300" lon="34.9801000">
<ele>337.999969</ele>
<time>2022-09-02T11:46:46.227Z</time>
</trkpt>
<trkpt lat="31.7717800" lon="34.9801200">
<ele>336.920013</ele>
<time>2022-09-02T11:46:46.227Z</time>
</trkpt>
<trkpt lat="31.7717400" lon="34.9801400">
<ele>335.989990</ele>
<time>2022-09-02T11:46:46.227Z</time>
</trkpt>
<trkpt lat="31.7717000" lon="34.9801700">
<ele>334.970001</ele>
<time>2022-09-02T11:46:46.227Z</time>
</trkpt>
<trkpt lat="31.7716500" lon="34.9802200">
<ele>333.230011</ele>
<time>2022-09-02T11:46:46.227Z</time>
</trkpt>
<trkpt lat="31.7716300" lon="34.9802700">
<ele>332.290009</ele>
<time>2022-09-02T11:46:46.227Z</time>
</trkpt>
<trkpt lat="31.7715900" lon="34.9803600">
<ele>331.140015</ele>
<time>2022-09-02T11:46:46.227Z</time>
</trkpt>
<trkpt lat="31.7715800" lon="34.9804300">
<ele>331.250000</ele>
<time>2022-09-02T11:46:46.227Z</time>
</trkpt>
<trkpt lat="31.7715600" lon="34.9805000">
<ele>330.790009</ele>
<time>2022-09-02T11:46:46.227Z</time>
</trkpt>
<trkpt lat="31.7715600" lon="34.9805500">
<ele>331.199982</ele>
<time>2022-09-02T11:46:46.227Z</time>
</trkpt>
<trkpt lat="31.7715600" lon="34.9806100">
<ele>331.539978</ele>
<time>2022-09-02T11:46:46.227Z</time>
</trkpt>
<trkpt lat="31.7715600" lon="34.9806700">
<ele>331.870026</ele>
<time>2022-09-02T11:46:46.227Z</time>
</trkpt>
<trkpt lat="31.7715600" lon="34.9807200">
<ele>332.149994</ele>
<time>2022-09-02T11:46:46.227Z</time>
</trkpt>
<trkpt lat="31.7715700" lon="34.9807600">
<ele>332.799988</ele>
<time>2022-09-02T11:46:46.227Z</time>
</trkpt>
<trkpt lat="31.7715800" lon="34.9808100">
<ele>333.460022</ele>
<time>2022-09-02T11:46:46.227Z</time>
</trkpt>
<trkpt lat="31.7716000" lon="34.9808500">
<ele>334.309998</ele>
<time>2022-09-02T11:46:46.227Z</time>
</trkpt>
<trkpt lat="31.7716300" lon="34.9808700">
<ele>335.429993</ele>
<time>2022-09-02T11:46:46.227Z</time>
</trkpt>
<trkpt lat="31.7716700" lon="34.9808800">
<ele>336.989990</ele>
<time>2022-09-02T11:46:46.227Z</time>
</trkpt>
<trkpt lat="31.7717100" lon="34.9808700">
<ele>338.959991</ele>
<time>2022-09-02T11:46:46.227Z</time>
</trkpt>
<trkpt lat="31.7717500" lon="34.9808500">
<ele>340.890015</ele>
<time>2022-09-02T11:46:46.227Z</time>
</trkpt>
<trkpt lat="31.7717800" lon="34.9808300">
<ele>342.299988</ele>
<time>2022-09-02T11:46:46.227Z</time>
</trkpt>
<trkpt lat="31.7718200" lon="34.9808200">
<ele>344.179993</ele>
<time>2022-09-02T11:46:46.227Z</time>
</trkpt>
<trkpt lat="31.7718500" lon="34.9808200">
<ele>345.579987</ele>
<time>2022-09-02T11:46:46.227Z</time>
</trkpt>
<trkpt lat="31.7718900" lon="34.9808500">
<ele>347.540009</ele>
<time>2022-09-02T11:46:46.227Z</time>
</trkpt>
<trkpt lat="31.7719100" lon="34.9808800">
<ele>348.659973</ele>
<time>2022-09-02T11:46:46.228Z</time>
</trkpt>
<trkpt lat="31.7719400" lon="34.9809000">
<ele>350.260010</ele>
<time>2022-09-02T11:46:46.228Z</time>
</trkpt>
<trkpt lat="31.7719600" lon="34.9809200">
<ele>351.119995</ele>
<time>2022-09-02T11:46:46.228Z</time>
</trkpt>
<trkpt lat="31.7719900" lon="34.9809400">
<ele>352.269989</ele>
<time>2022-09-02T11:46:46.228Z</time>
</trkpt>
<trkpt lat="31.7720000" lon="34.9809800">
<ele>352.970001</ele>
<time>2022-09-02T11:46:46.228Z</time>
</trkpt>
<trkpt lat="31.7720100" lon="34.9810200">
<ele>353.709991</ele>
<time>2022-09-02T11:46:46.228Z</time>
</trkpt>
<trkpt lat="31.7720200" lon="34.9810500">
<ele>354.369995</ele>
<time>2022-09-02T11:46:46.228Z</time>
</trkpt>
<trkpt lat="31.7720400" lon="34.9810900">
<ele>355.550018</ele>
<time>2022-09-02T11:46:46.228Z</time>
</trkpt>
<trkpt lat="31.7720400" lon="34.9811200">
<ele>355.690002</ele>
<time>2022-09-02T11:46:46.228Z</time>
</trkpt>
<trkpt lat="31.7720400" lon="34.9811600">
<ele>355.259979</ele>
<time>2022-09-02T11:46:46.228Z</time>
</trkpt>
<trkpt lat="31.7720500" lon="34.9811900">
<ele>355.330017</ele>
<time>2022-09-02T11:46:46.228Z</time>
</trkpt>
<trkpt lat="31.7720500" lon="34.9812400">
<ele>354.789978</ele>
<time>2022-09-02T11:46:46.228Z</time>
</trkpt>
<trkpt lat="31.7720500" lon="34.9812700">
<ele>354.459991</ele>
<time>2022-09-02T11:46:46.228Z</time>
</trkpt>
<trkpt lat="31.7720600" lon="34.9813200">
<ele>354.319977</ele>
<time>2022-09-02T11:46:46.228Z</time>
</trkpt>
<trkpt lat="31.7720700" lon="34.9813600">
<ele>354.279999</ele>
<time>2022-09-02T11:46:46.228Z</time>
</trkpt>
<trkpt lat="31.7720700" lon="34.9814000">
<ele>353.669983</ele>
<time>2022-09-02T11:46:46.228Z</time>
</trkpt>
<trkpt lat="31.7720700" lon="34.9814400">
<ele>352.599976</ele>
<time>2022-09-02T11:46:46.228Z</time>
</trkpt>
<trkpt lat="31.7720700" lon="34.9814800">
<ele>351.529999</ele>
<time>2022-09-02T11:46:46.228Z</time>
</trkpt>
<trkpt lat="31.7720700" lon="34.9815100">
<ele>350.720001</ele>
<time>2022-09-02T11:46:46.228Z</time>
</trkpt>
<trkpt lat="31.7720700" lon="34.9815700">
<ele>349.110016</ele>
<time>2022-09-02T11:46:46.228Z</time>
</trkpt>
<trkpt lat="31.7720600" lon="34.9816000">
<ele>347.940002</ele>
<time>2022-09-02T11:46:46.228Z</time>
</trkpt>
<trkpt lat="31.7720600" lon="34.9816400">
<ele>346.869995</ele>
<time>2022-09-02T11:46:46.228Z</time>
</trkpt>
<trkpt lat="31.7720700" lon="34.9816800">
<ele>346.440002</ele>
<time>2022-09-02T11:46:46.228Z</time>
</trkpt>
<trkpt lat="31.7720800" lon="34.9817200">
<ele>346.510010</ele>
<time>2022-09-02T11:46:46.228Z</time>
</trkpt>
<trkpt lat="31.7720900" lon="34.9817600">
<ele>346.519989</ele>
<time>2022-09-02T11:46:46.228Z</time>
</trkpt>
<trkpt lat="31.7721100" lon="34.9817900">
<ele>346.819977</ele>
<time>2022-09-02T11:46:46.228Z</time>
</trkpt>
<trkpt lat="31.7721300" lon="34.9818300">
<ele>346.909973</ele>
<time>2022-09-02T11:46:46.228Z</time>
</trkpt>
<trkpt lat="31.7721600" lon="34.9818800">
<ele>346.949982</ele>
<time>2022-09-02T11:46:46.228Z</time>
</trkpt>
<trkpt lat="31.7721700" lon="34.9819100">
<ele>346.730011</ele>
<time>2022-09-02T11:46:46.228Z</time>
</trkpt>
<trkpt lat="31.7722000" lon="34.9819500">
<ele>346.750000</ele>
<time>2022-09-02T11:46:46.228Z</time>
</trkpt>
<trkpt lat="31.7722200" lon="34.9819900">
<ele>347.619995</ele>
<time>2022-09-02T11:46:46.228Z</time>
</trkpt>
<trkpt lat="31.7722400" lon="34.9820300">
<ele>348.929993</ele>
<time>2022-09-02T11:46:46.229Z</time>
</trkpt>
<trkpt lat="31.7722700" lon="34.9820600">
<ele>350.399994</ele>
<time>2022-09-02T11:46:46.229Z</time>
</trkpt>
<trkpt lat="31.7723000" lon="34.9821000">
<ele>351.780029</ele>
<time>2022-09-02T11:46:46.229Z</time>
</trkpt>
<trkpt lat="31.7723300" lon="34.9821300">
<ele>352.899994</ele>
<time>2022-09-02T11:46:46.229Z</time>
</trkpt>
<trkpt lat="31.7723500" lon="34.9821600">
<ele>353.589996</ele>
<time>2022-09-02T11:46:46.229Z</time>
</trkpt>
<trkpt lat="31.7723700" lon="34.9821900">
<ele>354.160004</ele>
<time>2022-09-02T11:46:46.229Z</time>
</trkpt>
<trkpt lat="31.7724000" lon="34.9822300">
<ele>354.829987</ele>
<time>2022-09-02T11:46:46.229Z</time>
</trkpt>
<trkpt lat="31.7724300" lon="34.9822700">
<ele>355.440002</ele>
<time>2022-09-02T11:46:46.229Z</time>
</trkpt>
<trkpt lat="31.7724500" lon="34.9823000">
<ele>355.869995</ele>
<time>2022-09-02T11:46:46.229Z</time>
</trkpt>
<trkpt lat="31.7724700" lon="34.9823200">
<ele>356.309998</ele>
<time>2022-09-02T11:46:46.229Z</time>
</trkpt>
<trkpt lat="31.7725000" lon="34.9823800">
<ele>357.000000</ele>
<time>2022-09-02T11:46:46.229Z</time>
</trkpt>
<trkpt lat="31.7725300" lon="34.9824200">
<ele>358.049988</ele>
<time>2022-09-02T11:46:46.229Z</time>
</trkpt>
<trkpt lat="31.7725500" lon="34.9824500">
<ele>358.769989</ele>
<time>2022-09-02T11:46:46.229Z</time>
</trkpt>
<trkpt lat="31.7725800" lon="34.9825000">
<ele>359.879974</ele>
<time>2022-09-02T11:46:46.229Z</time>
</trkpt>
<trkpt lat="31.7725900" lon="34.9825300">
<ele>360.239990</ele>
<time>2022-09-02T11:46:46.229Z</time>
</trkpt>
<trkpt lat="31.7726000" lon="34.9825700">
<ele>360.579987</ele>
<time>2022-09-02T11:46:46.229Z</time>
</trkpt>
<trkpt lat="31.7726200" lon="34.9825900">
<ele>361.220001</ele>
<time>2022-09-02T11:46:46.229Z</time>
</trkpt>
<trkpt lat="31.7726400" lon="34.9826300">
<ele>361.800018</ele>
<time>2022-09-02T11:46:46.229Z</time>
</trkpt>
<trkpt lat="31.7726700" lon="34.9826800">
<ele>362.579987</ele>
<time>2022-09-02T11:46:46.229Z</time>
</trkpt>
<trkpt lat="31.7727100" lon="34.9827500">
<ele>363.420013</ele>
<time>2022-09-02T11:46:46.229Z</time>
</trkpt>
<trkpt lat="31.7727300" lon="34.9827900">
<ele>363.580017</ele>
<time>2022-09-02T11:46:46.229Z</time>
</trkpt>
<trkpt lat="31.7727600" lon="34.9828400">
<ele>363.429993</ele>
<time>2022-09-02T11:46:46.229Z</time>
</trkpt>
<trkpt lat="31.7727900" lon="34.9828700">
<ele>363.619995</ele>
<time>2022-09-02T11:46:46.229Z</time>
</trkpt>
<trkpt lat="31.7728100" lon="34.9829100">
<ele>363.369995</ele>
<time>2022-09-02T11:46:46.229Z</time>
</trkpt>
<trkpt lat="31.7728400" lon="34.9829800">
<ele>362.870026</ele>
<time>2022-09-02T11:46:46.229Z</time>
</trkpt>
<trkpt lat="31.7728700" lon="34.9830300">
<ele>362.750000</ele>
<time>2022-09-02T11:46:46.229Z</time>
</trkpt>
<trkpt lat="31.7728900" lon="34.9830800">
<ele>362.600006</ele>
<time>2022-09-02T11:46:46.229Z</time>
</trkpt>
<trkpt lat="31.7729000" lon="34.9831200">
<ele>362.489990</ele>
<time>2022-09-02T11:46:46.230Z</time>
</trkpt>
<trkpt lat="31.7729300" lon="34.9831600">
<ele>362.910004</ele>
<time>2022-09-02T11:46:46.230Z</time>
</trkpt>
<trkpt lat="31.7729500" lon="34.9831900">
<ele>363.190002</ele>
<time>2022-09-02T11:46:46.230Z</time>
</trkpt>
<trkpt lat="31.7729700" lon="34.9832300">
<ele>363.389984</ele>
<time>2022-09-02T11:46:46.230Z</time>
</trkpt>
<trkpt lat="31.7730000" lon="34.9832700">
<ele>363.899994</ele>
<time>2022-09-02T11:46:46.230Z</time>
</trkpt>
<trkpt lat="31.7730300" lon="34.9833300">
<ele>364.289978</ele>
<time>2022-09-02T11:46:46.230Z</time>
</trkpt>
<trkpt lat="31.7730400" lon="34.9833700">
<ele>363.399994</ele>
<time>2022-09-02T11:46:46.230Z</time>
</trkpt>
<trkpt lat="31.7730800" lon="34.9834100">
<ele>362.319977</ele>
<time>2022-09-02T11:46:46.230Z</time>
</trkpt>
<trkpt lat="31.7731000" lon="34.9834300">
<ele>361.559998</ele>
<time>2022-09-02T11:46:46.230Z</time>
</trkpt>
<trkpt lat="31.7731300" lon="34.9834500">
<ele>360.750000</ele>
<time>2022-09-02T11:46:46.230Z</time>
</trkpt>
<trkpt lat="31.7731600" lon="34.9834800">
<ele>359.720001</ele>
<time>2022-09-02T11:46:46.230Z</time>
</trkpt>
<trkpt lat="31.7731800" lon="34.9835200">
<ele>358.509979</ele>
<time>2022-09-02T11:46:46.230Z</time>
</trkpt>
<trkpt lat="31.7732100" lon="34.9835700">
<ele>357.090027</ele>
<time>2022-09-02T11:46:46.230Z</time>
</trkpt>
<trkpt lat="31.7732300" lon="34.9836000">
<ele>356.279968</ele>
<time>2022-09-02T11:46:46.230Z</time>
</trkpt>
<trkpt lat="31.7732500" lon="34.9836300">
<ele>356.010010</ele>
<time>2022-09-02T11:46:46.230Z</time>
</trkpt>
<trkpt lat="31.7732700" lon="34.9836500">
<ele>356.040009</ele>
<time>2022-09-02T11:46:46.230Z</time>
</trkpt>
<trkpt lat="31.7733100" lon="34.9836800">
<ele>356.190002</ele>
<time>2022-09-02T11:46:46.230Z</time>
</trkpt>
<trkpt lat="31.7733300" lon="34.9837000">
<ele>356.309998</ele>
<time>2022-09-02T11:46:46.230Z</time>
</trkpt>
<trkpt lat="31.7733600" lon="34.9837100">
<ele>356.260010</ele>
<time>2022-09-02T11:46:46.230Z</time>
</trkpt>
<trkpt lat="31.7733900" lon="34.9837200">
<ele>356.190002</ele>
<time>2022-09-02T11:46:46.230Z</time>
</trkpt>
<trkpt lat="31.7734300" lon="34.9837500">
<ele>356.149994</ele>
<time>2022-09-02T11:46:46.230Z</time>
</trkpt>
<trkpt lat="31.7734800" lon="34.9837700">
<ele>356.040009</ele>
<time>2022-09-02T11:46:46.230Z</time>
</trkpt>
<trkpt lat="31.7735100" lon="34.9837800">
<ele>355.970001</ele>
<time>2022-09-02T11:46:46.230Z</time>
</trkpt>
<trkpt lat="31.7735500" lon="34.9837900">
<ele>355.859985</ele>
<time>2022-09-02T11:46:46.230Z</time>
</trkpt>
<trkpt lat="31.7736100" lon="34.9838000">
<ele>355.679993</ele>
<time>2022-09-02T11:46:46.230Z</time>
</trkpt>
<trkpt lat="31.7736600" lon="34.9838200">
<ele>355.179993</ele>
<time>2022-09-02T11:46:46.230Z</time>
</trkpt>
<trkpt lat="31.7737100" lon="34.9838300">
<ele>354.589996</ele>
<time>2022-09-02T11:46:46.230Z</time>
</trkpt>
<trkpt lat="31.7737500" lon="34.9838400">
<ele>354.090027</ele>
<time>2022-09-02T11:46:46.230Z</time>
</trkpt>
<trkpt lat="31.7738000" lon="34.9838500">
<ele>353.429993</ele>
<time>2022-09-02T11:46:46.230Z</time>
</trkpt>
<trkpt lat="31.7738400" lon="34.9838600">
<ele>352.859985</ele>
<time>2022-09-02T11:46:46.230Z</time>
</trkpt>
<trkpt lat="31.7738800" lon="34.9838700">
<ele>352.259979</ele>
<time>2022-09-02T11:46:46.230Z</time>
</trkpt>
<trkpt lat="31.7739300" lon="34.9838700">
<ele>351.420013</ele>
<time>2022-09-02T11:46:46.230Z</time>
</trkpt>
<trkpt lat="31.7739800" lon="34.9838600">
<ele>350.639984</ele>
<time>2022-09-02T11:46:46.230Z</time>
</trkpt>
<trkpt lat="31.7740500" lon="34.9838600">
<ele>349.429993</ele>
<time>2022-09-02T11:46:46.231Z</time>
</trkpt>
<trkpt lat="31.7742700" lon="34.9838500">
<ele>346.970001</ele>
<time>2022-09-02T11:46:46.231Z</time>
</trkpt>
<trkpt lat="31.7743700" lon="34.9838600">
<ele>346.179993</ele>
<time>2022-09-02T11:46:46.231Z</time>
</trkpt>
<trkpt lat="31.7745800" lon="34.9838700">
<ele>345.440002</ele>
<time>2022-09-02T11:46:46.231Z</time>
</trkpt>
<trkpt lat="31.7746900" lon="34.9838800">
<ele>345.199982</ele>
<time>2022-09-02T11:46:46.231Z</time>
</trkpt>
<trkpt lat="31.7749000" lon="34.9839000">
<ele>346.699982</ele>
<time>2022-09-02T11:46:46.231Z</time>
</trkpt>
<trkpt lat="31.7750100" lon="34.9839100">
<ele>347.110016</ele>
<time>2022-09-02T11:46:46.231Z</time>
</trkpt>
<trkpt lat="31.7751200" lon="34.9839200">
<ele>343.839996</ele>
<time>2022-09-02T11:46:46.231Z</time>
</trkpt>
<trkpt lat="31.7753700" lon="34.9839400">
<ele>337.250000</ele>
<time>2022-09-02T11:46:46.231Z</time>
</trkpt>
<trkpt lat="31.7755900" lon="34.9839800">
<ele>333.700012</ele>
<time>2022-09-02T11:46:46.231Z</time>
</trkpt>
<trkpt lat="31.7757000" lon="34.9840000">
<ele>334.860016</ele>
<time>2022-09-02T11:46:46.231Z</time>
</trkpt>
<trkpt lat="31.7758600" lon="34.9840300">
<ele>335.890015</ele>
<time>2022-09-02T11:46:46.231Z</time>
</trkpt>
<trkpt lat="31.7759100" lon="34.9840500">
<ele>335.519989</ele>
<time>2022-09-02T11:46:46.231Z</time>
</trkpt>
<trkpt lat="31.7759800" lon="34.9841200">
<ele>334.459991</ele>
<time>2022-09-02T11:46:46.231Z</time>
</trkpt>
<trkpt lat="31.7760000" lon="34.9841500">
<ele>333.989990</ele>
<time>2022-09-02T11:46:46.231Z</time>
</trkpt>
<trkpt lat="31.7760300" lon="34.9841900">
<ele>333.570007</ele>
<time>2022-09-02T11:46:46.231Z</time>
</trkpt>
<trkpt lat="31.7760800" lon="34.9842500">
<ele>333.020020</ele>
<time>2022-09-02T11:46:46.231Z</time>
</trkpt>
<trkpt lat="31.7761200" lon="34.9842900">
<ele>332.510010</ele>
<time>2022-09-02T11:46:46.231Z</time>
</trkpt>
<trkpt lat="31.7761500" lon="34.9843600">
<ele>332.119995</ele>
<time>2022-09-02T11:46:46.231Z</time>
</trkpt>
<trkpt lat="31.7761800" lon="34.9843900">
<ele>331.899994</ele>
<time>2022-09-02T11:46:46.231Z</time>
</trkpt>
<trkpt lat="31.7762100" lon="34.9844300">
<ele>331.679993</ele>
<time>2022-09-02T11:46:46.231Z</time>
</trkpt>
<trkpt lat="31.7762500" lon="34.9844800">
<ele>332.009979</ele>
<time>2022-09-02T11:46:46.231Z</time>
</trkpt>
<trkpt lat="31.7763200" lon="34.9845900">
<ele>333.079987</ele>
<time>2022-09-02T11:46:46.231Z</time>
</trkpt>
<trkpt lat="31.7763400" lon="34.9846500">
<ele>333.660004</ele>
<time>2022-09-02T11:46:46.231Z</time>
</trkpt>
<trkpt lat="31.7763600" lon="34.9847000">
<ele>334.059967</ele>
<time>2022-09-02T11:46:46.231Z</time>
</trkpt>
<trkpt lat="31.7763800" lon="34.9847900">
<ele>334.369995</ele>
<time>2022-09-02T11:46:46.231Z</time>
</trkpt>
<trkpt lat="31.7763900" lon="34.9848400">
<ele>334.409973</ele>
<time>2022-09-02T11:46:46.232Z</time>
</trkpt>
<trkpt lat="31.7764000" lon="34.9849100">
<ele>334.570007</ele>
<time>2022-09-02T11:46:46.232Z</time>
</trkpt>
<trkpt lat="31.7764100" lon="34.9849700">
<ele>334.669983</ele>
<time>2022-09-02T11:46:46.232Z</time>
</trkpt>
<trkpt lat="31.7764200" lon="34.9850100">
<ele>334.650024</ele>
<time>2022-09-02T11:46:46.232Z</time>
</trkpt>
<trkpt lat="31.7764200" lon="34.9850400">
<ele>334.619995</ele>
<time>2022-09-02T11:46:46.232Z</time>
</trkpt>
<trkpt lat="31.7764300" lon="34.9850900">
<ele>334.409973</ele>
<time>2022-09-02T11:46:46.232Z</time>
</trkpt>
<trkpt lat="31.7764400" lon="34.9851400">
<ele>334.170013</ele>
<time>2022-09-02T11:46:46.232Z</time>
</trkpt>
<trkpt lat="31.7764500" lon="34.9851900">
<ele>333.889984</ele>
<time>2022-09-02T11:46:46.232Z</time>
</trkpt>
<trkpt lat="31.7764600" lon="34.9852300">
<ele>333.600006</ele>
<time>2022-09-02T11:46:46.232Z</time>
</trkpt>
<trkpt lat="31.7764700" lon="34.9852800">
<ele>333.240021</ele>
<time>2022-09-02T11:46:46.232Z</time>
</trkpt>
<trkpt lat="31.7764900" lon="34.9853200">
<ele>332.609985</ele>
<time>2022-09-02T11:46:46.232Z</time>
</trkpt>
<trkpt lat="31.7765000" lon="34.9853500">
<ele>332.239990</ele>
<time>2022-09-02T11:46:46.232Z</time>
</trkpt>
<trkpt lat="31.7765100" lon="34.9854100">
<ele>331.700012</ele>
<time>2022-09-02T11:46:46.232Z</time>
</trkpt>
<trkpt lat="31.7765300" lon="34.9854700">
<ele>330.910004</ele>
<time>2022-09-02T11:46:46.232Z</time>
</trkpt>
<trkpt lat="31.7765400" lon="34.9855000">
<ele>330.500000</ele>
<time>2022-09-02T11:46:46.232Z</time>
</trkpt>
<trkpt lat="31.7765500" lon="34.9855700">
<ele>329.959991</ele>
<time>2022-09-02T11:46:46.232Z</time>
</trkpt>
<trkpt lat="31.7765600" lon="34.9856200">
<ele>329.779968</ele>
<time>2022-09-02T11:46:46.232Z</time>
</trkpt>
<trkpt lat="31.7765700" lon="34.9856800">
<ele>329.589996</ele>
<time>2022-09-02T11:46:46.232Z</time>
</trkpt>
<trkpt lat="31.7765700" lon="34.9857400">
<ele>329.670013</ele>
<time>2022-09-02T11:46:46.232Z</time>
</trkpt>
<trkpt lat="31.7765800" lon="34.9858300">
<ele>329.489990</ele>
<time>2022-09-02T11:46:46.232Z</time>
</trkpt>
<trkpt lat="31.7765900" lon="34.9859000">
<ele>329.380005</ele>
<time>2022-09-02T11:46:46.232Z</time>
</trkpt>
<trkpt lat="31.7766000" lon="34.9859700">
<ele>329.290009</ele>
<time>2022-09-02T11:46:46.232Z</time>
</trkpt>
<trkpt lat="31.7766100" lon="34.9860400">
<ele>329.220001</ele>
<time>2022-09-02T11:46:46.232Z</time>
</trkpt>
<trkpt lat="31.7766200" lon="34.9861300">
<ele>328.979980</ele>
<time>2022-09-02T11:46:46.232Z</time>
</trkpt>
<trkpt lat="31.7766400" lon="34.9862100">
<ele>327.639984</ele>
<time>2022-09-02T11:46:46.232Z</time>
</trkpt>
<trkpt lat="31.7766700" lon="34.9862900">
<ele>325.979980</ele>
<time>2022-09-02T11:46:46.232Z</time>
</trkpt>
<trkpt lat="31.7767100" lon="34.9863800">
<ele>323.999969</ele>
<time>2022-09-02T11:46:46.232Z</time>
</trkpt>
<trkpt lat="31.7767400" lon="34.9865000">
<ele>323.760010</ele>
<time>2022-09-02T11:46:46.232Z</time>
</trkpt>
<trkpt lat="31.7767600" lon="34.9866100">
<ele>323.980011</ele>
<time>2022-09-02T11:46:46.232Z</time>
</trkpt>
<trkpt lat="31.7768000" lon="34.9867200">
<ele>324.080017</ele>
<time>2022-09-02T11:46:46.232Z</time>
</trkpt>
<trkpt lat="31.7768400" lon="34.9867800">
<ele>323.850006</ele>
<time>2022-09-02T11:46:46.233Z</time>
</trkpt>
<trkpt lat="31.7768900" lon="34.9868400">
<ele>323.350006</ele>
<time>2022-09-02T11:46:46.233Z</time>
</trkpt>
<trkpt lat="31.7769700" lon="34.9869800">
<ele>322.940002</ele>
<time>2022-09-02T11:46:46.233Z</time>
</trkpt>
<trkpt lat="31.7770100" lon="34.9870600">
<ele>323.170013</ele>
<time>2022-09-02T11:46:46.233Z</time>
</trkpt>
<trkpt lat="31.7770400" lon="34.9871200">
<ele>323.390015</ele>
<time>2022-09-02T11:46:46.233Z</time>
</trkpt>
<trkpt lat="31.7770600" lon="34.9871800">
<ele>323.820007</ele>
<time>2022-09-02T11:46:46.233Z</time>
</trkpt>
<trkpt lat="31.7771200" lon="34.9872600">
<ele>323.740021</ele>
<time>2022-09-02T11:46:46.233Z</time>
</trkpt>
<trkpt lat="31.7771500" lon="34.9872900">
<ele>323.529968</ele>
<time>2022-09-02T11:46:46.233Z</time>
</trkpt>
<trkpt lat="31.7771900" lon="34.9873100">
<ele>323.100006</ele>
<time>2022-09-02T11:46:46.233Z</time>
</trkpt>
<trkpt lat="31.7772200" lon="34.9873300">
<ele>322.809998</ele>
<time>2022-09-02T11:46:46.233Z</time>
</trkpt>
<trkpt lat="31.7773200" lon="34.9873800">
<ele>321.670013</ele>
<time>2022-09-02T11:46:46.233Z</time>
</trkpt>
<trkpt lat="31.7773400" lon="34.9874200">
<ele>321.970001</ele>
<time>2022-09-02T11:46:46.233Z</time>
</trkpt>
<trkpt lat="31.7773600" lon="34.9874600">
<ele>322.360016</ele>
<time>2022-09-02T11:46:46.233Z</time>
</trkpt>
<trkpt lat="31.7773800" lon="34.9874900">
<ele>322.690002</ele>
<time>2022-09-02T11:46:46.233Z</time>
</trkpt>
<trkpt lat="31.7774200" lon="34.9875500">
<ele>323.170013</ele>
<time>2022-09-02T11:46:46.233Z</time>
</trkpt>
<trkpt lat="31.7774600" lon="34.9875800">
<ele>323.189972</ele>
<time>2022-09-02T11:46:46.233Z</time>
</trkpt>
<trkpt lat="31.7775000" lon="34.9876100">
<ele>323.189972</ele>
<time>2022-09-02T11:46:46.233Z</time>
</trkpt>
<trkpt lat="31.7775600" lon="34.9876500">
<ele>324.299988</ele>
<time>2022-09-02T11:46:46.233Z</time>
</trkpt>
<trkpt lat="31.7775800" lon="34.9876700">
<ele>324.829987</ele>
<time>2022-09-02T11:46:46.233Z</time>
</trkpt>
<trkpt lat="31.7776300" lon="34.9877100">
<ele>326.149994</ele>
<time>2022-09-02T11:46:46.233Z</time>
</trkpt>
<trkpt lat="31.7776500" lon="34.9877300">
<ele>326.809998</ele>
<time>2022-09-02T11:46:46.233Z</time>
</trkpt>
<trkpt lat="31.7776900" lon="34.9877600">
<ele>328.050018</ele>
<time>2022-09-02T11:46:46.233Z</time>
</trkpt>
<trkpt lat="31.7777100" lon="34.9877800">
<ele>328.830017</ele>
<time>2022-09-02T11:46:46.233Z</time>
</trkpt>
<trkpt lat="31.7777500" lon="34.9878100">
<ele>330.230011</ele>
<time>2022-09-02T11:46:46.233Z</time>
</trkpt>
<trkpt lat="31.7777800" lon="34.9878300">
<ele>331.089996</ele>
<time>2022-09-02T11:46:46.233Z</time>
</trkpt>
<trkpt lat="31.7778400" lon="34.9878700">
<ele>330.800018</ele>
<time>2022-09-02T11:46:46.233Z</time>
</trkpt>
<trkpt lat="31.7779100" lon="34.9879200">
<ele>329.940002</ele>
<time>2022-09-02T11:46:46.233Z</time>
</trkpt>
<trkpt lat="31.7779700" lon="34.9879600">
<ele>328.679993</ele>
<time>2022-09-02T11:46:46.233Z</time>
</trkpt>
<trkpt lat="31.7780200" lon="34.9879800">
<ele>327.309998</ele>
<time>2022-09-02T11:46:46.233Z</time>
</trkpt>
<trkpt lat="31.7780500" lon="34.9880000">
<ele>326.369995</ele>
<time>2022-09-02T11:46:46.234Z</time>
</trkpt>
<trkpt lat="31.7781100" lon="34.9880200">
<ele>326.339996</ele>
<time>2022-09-02T11:46:46.234Z</time>
</trkpt>
<trkpt lat="31.7781300" lon="34.9880300">
<ele>326.459991</ele>
<time>2022-09-02T11:46:46.234Z</time>
</trkpt>
<trkpt lat="31.7781800" lon="34.9880500">
<ele>326.850006</ele>
<time>2022-09-02T11:46:46.234Z</time>
</trkpt>
<trkpt lat="31.7782200" lon="34.9880600">
<ele>327.309998</ele>
<time>2022-09-02T11:46:46.234Z</time>
</trkpt>
<trkpt lat="31.7782700" lon="34.9880800">
<ele>328.119995</ele>
<time>2022-09-02T11:46:46.234Z</time>
</trkpt>
<trkpt lat="31.7783200" lon="34.9881000">
<ele>328.759979</ele>
<time>2022-09-02T11:46:46.234Z</time>
</trkpt>
<trkpt lat="31.7783700" lon="34.9881300">
<ele>329.109985</ele>
<time>2022-09-02T11:46:46.234Z</time>
</trkpt>
<trkpt lat="31.7784200" lon="34.9881700">
<ele>329.560028</ele>
<time>2022-09-02T11:46:46.234Z</time>
</trkpt>
<trkpt lat="31.7784900" lon="34.9882300">
<ele>330.370026</ele>
<time>2022-09-02T11:46:46.234Z</time>
</trkpt>
<trkpt lat="31.7785600" lon="34.9882900">
<ele>331.279999</ele>
<time>2022-09-02T11:46:46.234Z</time>
</trkpt>
<trkpt lat="31.7785900" lon="34.9883100">
<ele>331.579987</ele>
<time>2022-09-02T11:46:46.234Z</time>
</trkpt>
<trkpt lat="31.7786400" lon="34.9883400">
<ele>331.160004</ele>
<time>2022-09-02T11:46:46.234Z</time>
</trkpt>
<trkpt lat="31.7786600" lon="34.9883600">
<ele>330.609985</ele>
<time>2022-09-02T11:46:46.234Z</time>
</trkpt>
<trkpt lat="31.7787000" lon="34.9884000">
<ele>329.739990</ele>
<time>2022-09-02T11:46:46.234Z</time>
</trkpt>
<trkpt lat="31.7787400" lon="34.9884300">
<ele>329.070007</ele>
<time>2022-09-02T11:46:46.234Z</time>
</trkpt>
<trkpt lat="31.7787600" lon="34.9884600">
<ele>328.969971</ele>
<time>2022-09-02T11:46:46.234Z</time>
</trkpt>
<trkpt lat="31.7787900" lon="34.9884900">
<ele>328.830017</ele>
<time>2022-09-02T11:46:46.234Z</time>
</trkpt>
<trkpt lat="31.7788100" lon="34.9885300">
<ele>329.109985</ele>
<time>2022-09-02T11:46:46.234Z</time>
</trkpt>
<trkpt lat="31.7788200" lon="34.9885800">
<ele>329.770020</ele>
<time>2022-09-02T11:46:46.234Z</time>
</trkpt>
<trkpt lat="31.7788200" lon="34.9886300">
<ele>330.379974</ele>
<time>2022-09-02T11:46:46.234Z</time>
</trkpt>
<trkpt lat="31.7788200" lon="34.9886800">
<ele>330.739990</ele>
<time>2022-09-02T11:46:46.234Z</time>
</trkpt>
<trkpt lat="31.7788000" lon="34.9887200">
<ele>331.100006</ele>
<time>2022-09-02T11:46:46.234Z</time>
</trkpt>
<trkpt lat="31.7787900" lon="34.9887500">
<ele>331.360016</ele>
<time>2022-09-02T11:46:46.234Z</time>
</trkpt>
<trkpt lat="31.7787800" lon="34.9888000">
<ele>331.749969</ele>
<time>2022-09-02T11:46:46.234Z</time>
</trkpt>
<trkpt lat="31.7787500" lon="34.9888500">
<ele>332.219971</ele>
<time>2022-09-02T11:46:46.234Z</time>
</trkpt>
<trkpt lat="31.7787400" lon="34.9889000">
<ele>332.340027</ele>
<time>2022-09-02T11:46:46.234Z</time>
</trkpt>
<trkpt lat="31.7787000" lon="34.9889800">
<ele>331.160004</ele>
<time>2022-09-02T11:46:46.234Z</time>
</trkpt>
<trkpt lat="31.7786800" lon="34.9890100">
<ele>330.790009</ele>
<time>2022-09-02T11:46:46.234Z</time>
</trkpt>
<trkpt lat="31.7786400" lon="34.9891300">
<ele>329.239990</ele>
<time>2022-09-02T11:46:46.234Z</time>
</trkpt>
<trkpt lat="31.7786200" lon="34.9891900">
<ele>328.559998</ele>
<time>2022-09-02T11:46:46.235Z</time>
</trkpt>
<trkpt lat="31.7786100" lon="34.9892400">
<ele>327.949982</ele>
<time>2022-09-02T11:46:46.235Z</time>
</trkpt>
<trkpt lat="31.7785900" lon="34.9892900">
<ele>327.359985</ele>
<time>2022-09-02T11:46:46.235Z</time>
</trkpt>
<trkpt lat="31.7785800" lon="34.9893400">
<ele>326.780029</ele>
<time>2022-09-02T11:46:46.235Z</time>
</trkpt>
<trkpt lat="31.7785600" lon="34.9893800">
<ele>326.489990</ele>
<time>2022-09-02T11:46:46.235Z</time>
</trkpt>
<trkpt lat="31.7785300" lon="34.9894200">
<ele>326.420013</ele>
<time>2022-09-02T11:46:46.235Z</time>
</trkpt>
<trkpt lat="31.7785100" lon="34.9894900">
<ele>325.639984</ele>
<time>2022-09-02T11:46:46.235Z</time>
</trkpt>
<trkpt lat="31.7784900" lon="34.9895400">
<ele>325.020020</ele>
<time>2022-09-02T11:46:46.235Z</time>
</trkpt>
<trkpt lat="31.7784800" lon="34.9895900">
<ele>324.269989</ele>
<time>2022-09-02T11:46:46.235Z</time>
</trkpt>
<trkpt lat="31.7784700" lon="34.9896400">
<ele>323.510010</ele>
<time>2022-09-02T11:46:46.235Z</time>
</trkpt>
<trkpt lat="31.7784500" lon="34.9896700">
<ele>323.260010</ele>
<time>2022-09-02T11:46:46.235Z</time>
</trkpt>
<trkpt lat="31.7784400" lon="34.9897100">
<ele>322.679993</ele>
<time>2022-09-02T11:46:46.235Z</time>
</trkpt>
<trkpt lat="31.7784200" lon="34.9897400">
<ele>322.629974</ele>
<time>2022-09-02T11:46:46.235Z</time>
</trkpt>
<trkpt lat="31.7784100" lon="34.9897900">
<ele>322.450012</ele>
<time>2022-09-02T11:46:46.235Z</time>
</trkpt>
<trkpt lat="31.7784000" lon="34.9898200">
<ele>322.429993</ele>
<time>2022-09-02T11:46:46.235Z</time>
</trkpt>
<trkpt lat="31.7783800" lon="34.9898500">
<ele>322.639984</ele>
<time>2022-09-02T11:46:46.235Z</time>
</trkpt>
<trkpt lat="31.7783600" lon="34.9899000">
<ele>322.790009</ele>
<time>2022-09-02T11:46:46.235Z</time>
</trkpt>
<trkpt lat="31.7783600" lon="34.9899500">
<ele>322.559998</ele>
<time>2022-09-02T11:46:46.235Z</time>
</trkpt>
<trkpt lat="31.7783600" lon="34.9900200">
<ele>321.869995</ele>
<time>2022-09-02T11:46:46.235Z</time>
</trkpt>
<trkpt lat="31.7783600" lon="34.9900600">
<ele>320.960022</ele>
<time>2022-09-02T11:46:46.235Z</time>
</trkpt>
<trkpt lat="31.7783500" lon="34.9901000">
<ele>320.209991</ele>
<time>2022-09-02T11:46:46.235Z</time>
</trkpt>
<trkpt lat="31.7783500" lon="34.9901400">
<ele>319.259979</ele>
<time>2022-09-02T11:46:46.235Z</time>
</trkpt>
<trkpt lat="31.7784000" lon="34.9901700">
<ele>318.059998</ele>
<time>2022-09-02T11:46:46.235Z</time>
</trkpt>
<trkpt lat="31.7784200" lon="34.9902100">
<ele>317.179993</ele>
<time>2022-09-02T11:46:46.235Z</time>
</trkpt>
<trkpt lat="31.7784600" lon="34.9902700">
<ele>316.110016</ele>
<time>2022-09-02T11:46:46.235Z</time>
</trkpt>
<trkpt lat="31.7784900" lon="34.9903200">
<ele>315.420013</ele>
<time>2022-09-02T11:46:46.235Z</time>
</trkpt>
<trkpt lat="31.7785500" lon="34.9903700">
<ele>314.369995</ele>
<time>2022-09-02T11:46:46.235Z</time>
</trkpt>
<trkpt lat="31.7786000" lon="34.9904100">
<ele>313.240021</ele>
<time>2022-09-02T11:46:46.235Z</time>
</trkpt>
<trkpt lat="31.7786500" lon="34.9904500">
<ele>311.789978</ele>
<time>2022-09-02T11:46:46.235Z</time>
</trkpt>
<trkpt lat="31.7787300" lon="34.9905100">
<ele>309.850006</ele>
<time>2022-09-02T11:46:46.235Z</time>
</trkpt>
<trkpt lat="31.7787900" lon="34.9905500">
<ele>308.779999</ele>
<time>2022-09-02T11:46:46.236Z</time>
</trkpt>
<trkpt lat="31.7788600" lon="34.9905800">
<ele>308.160004</ele>
<time>2022-09-02T11:46:46.236Z</time>
</trkpt>
<trkpt lat="31.7789100" lon="34.9906100">
<ele>307.619995</ele>
<time>2022-09-02T11:46:46.236Z</time>
</trkpt>
<trkpt lat="31.7790100" lon="34.9906600">
<ele>306.809998</ele>
<time>2022-09-02T11:46:46.236Z</time>
</trkpt>
<trkpt lat="31.7790800" lon="34.9906900">
<ele>306.450012</ele>
<time>2022-09-02T11:46:46.236Z</time>
</trkpt>
<trkpt lat="31.7791400" lon="34.9907200">
<ele>306.299988</ele>
<time>2022-09-02T11:46:46.236Z</time>
</trkpt>
<trkpt lat="31.7792100" lon="34.9907600">
<ele>306.070007</ele>
<time>2022-09-02T11:46:46.236Z</time>
</trkpt>
<trkpt lat="31.7792600" lon="34.9908000">
<ele>306.180023</ele>
<time>2022-09-02T11:46:46.236Z</time>
</trkpt>
<trkpt lat="31.7792900" lon="34.9908200">
<ele>306.330017</ele>
<time>2022-09-02T11:46:46.236Z</time>
</trkpt>
<trkpt lat="31.7793500" lon="34.9908700">
<ele>307.040009</ele>
<time>2022-09-02T11:46:46.236Z</time>
</trkpt>
<trkpt lat="31.7793900" lon="34.9909000">
<ele>307.639984</ele>
<time>2022-09-02T11:46:46.236Z</time>
</trkpt>
<trkpt lat="31.7794300" lon="34.9909400">
<ele>308.640015</ele>
<time>2022-09-02T11:46:46.236Z</time>
</trkpt>
<trkpt lat="31.7794700" lon="34.9909800">
<ele>309.959991</ele>
<time>2022-09-02T11:46:46.236Z</time>
</trkpt>
<trkpt lat="31.7794900" lon="34.9910200">
<ele>311.080017</ele>
<time>2022-09-02T11:46:46.236Z</time>
</trkpt>
<trkpt lat="31.7795100" lon="34.9910400">
<ele>311.690002</ele>
<time>2022-09-02T11:46:46.236Z</time>
</trkpt>
<trkpt lat="31.7795400" lon="34.9910700">
<ele>312.510010</ele>
<time>2022-09-02T11:46:46.236Z</time>
</trkpt>
<trkpt lat="31.7795800" lon="34.9911000">
<ele>313.290009</ele>
<time>2022-09-02T11:46:46.236Z</time>
</trkpt>
<trkpt lat="31.7796100" lon="34.9911200">
<ele>313.709991</ele>
<time>2022-09-02T11:46:46.236Z</time>
</trkpt>
<trkpt lat="31.7796600" lon="34.9911500">
<ele>314.299988</ele>
<time>2022-09-02T11:46:46.236Z</time>
</trkpt>
<trkpt lat="31.7796900" lon="34.9911800">
<ele>314.850006</ele>
<time>2022-09-02T11:46:46.236Z</time>
</trkpt>
<trkpt lat="31.7797200" lon="34.9912100">
<ele>315.410004</ele>
<time>2022-09-02T11:46:46.236Z</time>
</trkpt>
<trkpt lat="31.7797500" lon="34.9912500">
<ele>316.450012</ele>
<time>2022-09-02T11:46:46.236Z</time>
</trkpt>
<trkpt lat="31.7797900" lon="34.9912800">
<ele>317.559998</ele>
<time>2022-09-02T11:46:46.236Z</time>
</trkpt>
<trkpt lat="31.7798200" lon="34.9913000">
<ele>318.369995</ele>
<time>2022-09-02T11:46:46.236Z</time>
</trkpt>
<trkpt lat="31.7798600" lon="34.9913200">
<ele>319.360016</ele>
<time>2022-09-02T11:46:46.236Z</time>
</trkpt>
<trkpt lat="31.7799100" lon="34.9913600">
<ele>320.889984</ele>
<time>2022-09-02T11:46:46.236Z</time>
</trkpt>
<trkpt lat="31.7799400" lon="34.9913700">
<ele>321.589996</ele>
<time>2022-09-02T11:46:46.236Z</time>
</trkpt>
<trkpt lat="31.7799600" lon="34.9913900">
<ele>322.299988</ele>
<time>2022-09-02T11:46:46.236Z</time>
</trkpt>
<trkpt lat="31.7800000" lon="34.9914200">
<ele>323.559998</ele>
<time>2022-09-02T11:46:46.236Z</time>
</trkpt>
<trkpt lat="31.7800300" lon="34.9914400">
<ele>324.330017</ele>
<time>2022-09-02T11:46:46.236Z</time>
</trkpt>
<trkpt lat="31.7800600" lon="34.9914700">
<ele>325.260010</ele>
<time>2022-09-02T11:46:46.237Z</time>
</trkpt>
<trkpt lat="31.7801000" lon="34.9915000">
<ele>326.300018</ele>
<time>2022-09-02T11:46:46.237Z</time>
</trkpt>
<trkpt lat="31.7801300" lon="34.9915300">
<ele>327.169983</ele>
<time>2022-09-02T11:46:46.237Z</time>
</trkpt>
<trkpt lat="31.7801500" lon="34.9915600">
<ele>327.910004</ele>
<time>2022-09-02T11:46:46.237Z</time>
</trkpt>
<trkpt lat="31.7801700" lon="34.9915900">
<ele>328.620026</ele>
<time>2022-09-02T11:46:46.237Z</time>
</trkpt>
<trkpt lat="31.7802100" lon="34.9916300">
<ele>329.709991</ele>
<time>2022-09-02T11:46:46.237Z</time>
</trkpt>
<trkpt lat="31.7802500" lon="34.9916600">
<ele>330.599976</ele>
<time>2022-09-02T11:46:46.237Z</time>
</trkpt>
<trkpt lat="31.7803000" lon="34.9916900">
<ele>331.329987</ele>
<time>2022-09-02T11:46:46.237Z</time>
</trkpt>
<trkpt lat="31.7803300" lon="34.9917000">
<ele>331.299988</ele>
<time>2022-09-02T11:46:46.237Z</time>
</trkpt>
<trkpt lat="31.7803800" lon="34.9917300">
<ele>331.459991</ele>
<time>2022-09-02T11:46:46.237Z</time>
</trkpt>
<trkpt lat="31.7804500" lon="34.9917300">
<ele>330.849976</ele>
<time>2022-09-02T11:46:46.237Z</time>
</trkpt>
<trkpt lat="31.7805000" lon="34.9917400">
<ele>330.559998</ele>
<time>2022-09-02T11:46:46.237Z</time>
</trkpt>
<trkpt lat="31.7805600" lon="34.9917500">
<ele>330.200012</ele>
<time>2022-09-02T11:46:46.237Z</time>
</trkpt>
<trkpt lat="31.7806200" lon="34.9917600">
<ele>330.339996</ele>
<time>2022-09-02T11:46:46.237Z</time>
</trkpt>
<trkpt lat="31.7806500" lon="34.9917700">
<ele>330.489990</ele>
<time>2022-09-02T11:46:46.237Z</time>
</trkpt>
<trkpt lat="31.7807300" lon="34.9917800">
<ele>330.630005</ele>
<time>2022-09-02T11:46:46.237Z</time>
</trkpt>
<trkpt lat="31.7807900" lon="34.9918000">
<ele>330.920013</ele>
<time>2022-09-02T11:46:46.237Z</time>
</trkpt>
<trkpt lat="31.7808300" lon="34.9918000">
<ele>330.920013</ele>
<time>2022-09-02T11:46:46.237Z</time>
</trkpt>
<trkpt lat="31.7808700" lon="34.9918100">
<ele>330.540009</ele>
<time>2022-09-02T11:46:46.237Z</time>
</trkpt>
<trkpt lat="31.7809200" lon="34.9918200">
<ele>329.959991</ele>
<time>2022-09-02T11:46:46.237Z</time>
</trkpt>
<trkpt lat="31.7809600" lon="34.9918300">
<ele>329.529999</ele>
<time>2022-09-02T11:46:46.237Z</time>
</trkpt>
<trkpt lat="31.7810100" lon="34.9918500">
<ele>329.099976</ele>
<time>2022-09-02T11:46:46.237Z</time>
</trkpt>
<trkpt lat="31.7810500" lon="34.9918600">
<ele>328.660004</ele>
<time>2022-09-02T11:46:46.237Z</time>
</trkpt>
<trkpt lat="31.7811100" lon="34.9918800">
<ele>328.089996</ele>
<time>2022-09-02T11:46:46.237Z</time>
</trkpt>
<trkpt lat="31.7811700" lon="34.9918900">
<ele>327.240021</ele>
<time>2022-09-02T11:46:46.237Z</time>
</trkpt>
<trkpt lat="31.7812300" lon="34.9919100">
<ele>326.470001</ele>
<time>2022-09-02T11:46:46.237Z</time>
</trkpt>
<trkpt lat="31.7812900" lon="34.9919200">
<ele>325.540009</ele>
<time>2022-09-02T11:46:46.237Z</time>
</trkpt>
<trkpt lat="31.7813800" lon="34.9919500">
<ele>324.220001</ele>
<time>2022-09-02T11:46:46.237Z</time>
</trkpt>
<trkpt lat="31.7814300" lon="34.9919600">
<ele>324.009979</ele>
<time>2022-09-02T11:46:46.237Z</time>
</trkpt>
<trkpt lat="31.7815100" lon="34.9919900">
<ele>323.980011</ele>
<time>2022-09-02T11:46:46.237Z</time>
</trkpt>
<trkpt lat="31.7815600" lon="34.9920100">
<ele>323.950012</ele>
<time>2022-09-02T11:46:46.237Z</time>
</trkpt>
<trkpt lat="31.7816100" lon="34.9920200">
<ele>323.799988</ele>
<time>2022-09-02T11:46:46.238Z</time>
</trkpt>
<trkpt lat="31.7817100" lon="34.9920200">
<ele>324.660004</ele>
<time>2022-09-02T11:46:46.238Z</time>
</trkpt>
<trkpt lat="31.7818000" lon="34.9920200">
<ele>326.990021</ele>
<time>2022-09-02T11:46:46.238Z</time>
</trkpt>
<trkpt lat="31.7818500" lon="34.9920000">
<ele>328.280029</ele>
<time>2022-09-02T11:46:46.238Z</time>
</trkpt>
<trkpt lat="31.7819000" lon="34.9919500">
<ele>329.709991</ele>
<time>2022-09-02T11:46:46.238Z</time>
</trkpt>
<trkpt lat="31.7819300" lon="34.9918900">
<ele>330.580017</ele>
<time>2022-09-02T11:46:46.238Z</time>
</trkpt>
<trkpt lat="31.7819500" lon="34.9918500">
<ele>331.029999</ele>
<time>2022-09-02T11:46:46.238Z</time>
</trkpt>
<trkpt lat="31.7819700" lon="34.9918200">
<ele>331.130005</ele>
<time>2022-09-02T11:46:46.238Z</time>
</trkpt>
<trkpt lat="31.7819800" lon="34.9917800">
<ele>331.199982</ele>
<time>2022-09-02T11:46:46.238Z</time>
</trkpt>
<trkpt lat="31.7820100" lon="34.9917200">
<ele>331.429993</ele>
<time>2022-09-02T11:46:46.238Z</time>
</trkpt>
<trkpt lat="31.7820200" lon="34.9916400">
<ele>331.570007</ele>
<time>2022-09-02T11:46:46.238Z</time>
</trkpt>
<trkpt lat="31.7820300" lon="34.9915700">
<ele>331.720001</ele>
<time>2022-09-02T11:46:46.238Z</time>
</trkpt>
<trkpt lat="31.7820400" lon="34.9915000">
<ele>331.889984</ele>
<time>2022-09-02T11:46:46.238Z</time>
</trkpt>
<trkpt lat="31.7820400" lon="34.9914200">
<ele>331.989990</ele>
<time>2022-09-02T11:46:46.238Z</time>
</trkpt>
<trkpt lat="31.7820500" lon="34.9913400">
<ele>331.679993</ele>
<time>2022-09-02T11:46:46.238Z</time>
</trkpt>
<trkpt lat="31.7820500" lon="34.9912900">
<ele>331.209991</ele>
<time>2022-09-02T11:46:46.238Z</time>
</trkpt>
<trkpt lat="31.7820400" lon="34.9912400">
<ele>330.609985</ele>
<time>2022-09-02T11:46:46.238Z</time>
</trkpt>
<trkpt lat="31.7820400" lon="34.9911500">
<ele>329.750000</ele>
<time>2022-09-02T11:46:46.238Z</time>
</trkpt>
<trkpt lat="31.7820300" lon="34.9910600">
<ele>328.750031</ele>
<time>2022-09-02T11:46:46.238Z</time>
</trkpt>
<trkpt lat="31.7820300" lon="34.9910000">
<ele>328.190002</ele>
<time>2022-09-02T11:46:46.238Z</time>
</trkpt>
<trkpt lat="31.7820200" lon="34.9908400">
<ele>326.610016</ele>
<time>2022-09-02T11:46:46.238Z</time>
</trkpt>
<trkpt lat="31.7820100" lon="34.9906300">
<ele>325.010010</ele>
<time>2022-09-02T11:46:46.238Z</time>
</trkpt>
<trkpt lat="31.7820000" lon="34.9905100">
<ele>324.239990</ele>
<time>2022-09-02T11:46:46.238Z</time>
</trkpt>
<trkpt lat="31.7819800" lon="34.9902600">
<ele>323.140015</ele>
<time>2022-09-02T11:46:46.238Z</time>
</trkpt>
<trkpt lat="31.7819800" lon="34.9901600">
<ele>322.459991</ele>
<time>2022-09-02T11:46:46.238Z</time>
</trkpt>
<trkpt lat="31.7820000" lon="34.9899800">
<ele>321.459991</ele>
<time>2022-09-02T11:46:46.238Z</time>
</trkpt>
<trkpt lat="31.7820900" lon="34.9899600">
<ele>322.279999</ele>
<time>2022-09-02T11:46:46.238Z</time>
</trkpt>
<trkpt lat="31.7821800" lon="34.9899600">
<ele>323.260010</ele>
<time>2022-09-02T11:46:46.238Z</time>
</trkpt>
<trkpt lat="31.7822300" lon="34.9899800">
<ele>323.850006</ele>
<time>2022-09-02T11:46:46.238Z</time>
</trkpt>
<trkpt lat="31.7822800" lon="34.9900100">
<ele>324.040009</ele>
<time>2022-09-02T11:46:46.238Z</time>
</trkpt>
<trkpt lat="31.7823200" lon="34.9900300">
<ele>324.149994</ele>
<time>2022-09-02T11:46:46.239Z</time>
</trkpt>
<trkpt lat="31.7823500" lon="34.9900300">
<ele>324.160004</ele>
<time>2022-09-02T11:46:46.239Z</time>
</trkpt>
<trkpt lat="31.7823800" lon="34.9900300">
<ele>324.170013</ele>
<time>2022-09-02T11:46:46.239Z</time>
</trkpt>
<trkpt lat="31.7824200" lon="34.9900200">
<ele>324.120026</ele>
<time>2022-09-02T11:46:46.239Z</time>
</trkpt>
<trkpt lat="31.7825100" lon="34.9900200">
<ele>324.070007</ele>
<time>2022-09-02T11:46:46.239Z</time>
</trkpt>
<trkpt lat="31.7826300" lon="34.9900200">
<ele>323.140015</ele>
<time>2022-09-02T11:46:46.239Z</time>
</trkpt>
<trkpt lat="31.7826900" lon="34.9900200">
<ele>322.679993</ele>
<time>2022-09-02T11:46:46.239Z</time>
</trkpt>
<trkpt lat="31.7828100" lon="34.9900500">
<ele>321.880005</ele>
<time>2022-09-02T11:46:46.239Z</time>
</trkpt>
<trkpt lat="31.7829000" lon="34.9901500">
<ele>321.559967</ele>
<time>2022-09-02T11:46:46.239Z</time>
</trkpt>
<trkpt lat="31.7829300" lon="34.9902100">
<ele>321.450012</ele>
<time>2022-09-02T11:46:46.239Z</time>
</trkpt>
<trkpt lat="31.7829600" lon="34.9903100">
<ele>321.619995</ele>
<time>2022-09-02T11:46:46.239Z</time>
</trkpt>
<trkpt lat="31.7829700" lon="34.9903500">
<ele>321.909973</ele>
<time>2022-09-02T11:46:46.239Z</time>
</trkpt>
<trkpt lat="31.7830000" lon="34.9904200">
<ele>322.330017</ele>
<time>2022-09-02T11:46:46.239Z</time>
</trkpt>
<trkpt lat="31.7830300" lon="34.9904600">
<ele>322.459991</ele>
<time>2022-09-02T11:46:46.239Z</time>
</trkpt>
<trkpt lat="31.7830600" lon="34.9905100">
<ele>322.610016</ele>
<time>2022-09-02T11:46:46.239Z</time>
</trkpt>
<trkpt lat="31.7830700" lon="34.9905500">
<ele>322.750000</ele>
<time>2022-09-02T11:46:46.239Z</time>
</trkpt>
<trkpt lat="31.7830900" lon="34.9905900">
<ele>322.670013</ele>
<time>2022-09-02T11:46:46.239Z</time>
</trkpt>
<trkpt lat="31.7831100" lon="34.9906400">
<ele>322.700012</ele>
<time>2022-09-02T11:46:46.239Z</time>
</trkpt>
<trkpt lat="31.7831200" lon="34.9906700">
<ele>322.769989</ele>
<time>2022-09-02T11:46:46.239Z</time>
</trkpt>
<trkpt lat="31.7831500" lon="34.9907300">
<ele>322.910004</ele>
<time>2022-09-02T11:46:46.239Z</time>
</trkpt>
<trkpt lat="31.7831800" lon="34.9907700">
<ele>323.019989</ele>
<time>2022-09-02T11:46:46.239Z</time>
</trkpt>
<trkpt lat="31.7832000" lon="34.9908000">
<ele>323.170013</ele>
<time>2022-09-02T11:46:46.239Z</time>
</trkpt>
<trkpt lat="31.7832400" lon="34.9908500">
<ele>323.559998</ele>
<time>2022-09-02T11:46:46.239Z</time>
</trkpt>
<trkpt lat="31.7832600" lon="34.9908900">
<ele>324.029999</ele>
<time>2022-09-02T11:46:46.239Z</time>
</trkpt>
<trkpt lat="31.7832800" lon="34.9909500">
<ele>324.790009</ele>
<time>2022-09-02T11:46:46.239Z</time>
</trkpt>
<trkpt lat="31.7833100" lon="34.9909900">
<ele>325.289978</ele>
<time>2022-09-02T11:46:46.239Z</time>
</trkpt>
<trkpt lat="31.7833200" lon="34.9910400">
<ele>325.989990</ele>
<time>2022-09-02T11:46:46.239Z</time>
</trkpt>
<trkpt lat="31.7833400" lon="34.9910800">
<ele>326.480011</ele>
<time>2022-09-02T11:46:46.240Z</time>
</trkpt>
<trkpt lat="31.7833600" lon="34.9911000">
<ele>326.549988</ele>
<time>2022-09-02T11:46:46.240Z</time>
</trkpt>
<trkpt lat="31.7834000" lon="34.9911400">
<ele>326.350006</ele>
<time>2022-09-02T11:46:46.240Z</time>
</trkpt>
<trkpt lat="31.7834200" lon="34.9911800">
<ele>326.300018</ele>
<time>2022-09-02T11:46:46.240Z</time>
</trkpt>
<trkpt lat="31.7834400" lon="34.9912200">
<ele>326.300018</ele>
<time>2022-09-02T11:46:46.240Z</time>
</trkpt>
<trkpt lat="31.7834600" lon="34.9912500">
<ele>326.319977</ele>
<time>2022-09-02T11:46:46.240Z</time>
</trkpt>
<trkpt lat="31.7834800" lon="34.9912800">
<ele>326.380005</ele>
<time>2022-09-02T11:46:46.240Z</time>
</trkpt>
<trkpt lat="31.7835000" lon="34.9913500">
<ele>326.750000</ele>
<time>2022-09-02T11:46:46.240Z</time>
</trkpt>
<trkpt lat="31.7835200" lon="34.9913700">
<ele>326.860016</ele>
<time>2022-09-02T11:46:46.240Z</time>
</trkpt>
<trkpt lat="31.7835400" lon="34.9914000">
<ele>327.120026</ele>
<time>2022-09-02T11:46:46.240Z</time>
</trkpt>
<trkpt lat="31.7835600" lon="34.9914400">
<ele>327.550018</ele>
<time>2022-09-02T11:46:46.240Z</time>
</trkpt>
<trkpt lat="31.7835900" lon="34.9914700">
<ele>327.880005</ele>
<time>2022-09-02T11:46:46.240Z</time>
</trkpt>
<trkpt lat="31.7836200" lon="34.9915100">
<ele>328.280029</ele>
<time>2022-09-02T11:46:46.240Z</time>
</trkpt>
<trkpt lat="31.7836500" lon="34.9915400">
<ele>328.490021</ele>
<time>2022-09-02T11:46:46.240Z</time>
</trkpt>
<trkpt lat="31.7837000" lon="34.9915900">
<ele>328.850006</ele>
<time>2022-09-02T11:46:46.240Z</time>
</trkpt>
<trkpt lat="31.7837300" lon="34.9916100">
<ele>328.960022</ele>
<time>2022-09-02T11:46:46.240Z</time>
</trkpt>
<trkpt lat="31.7838000" lon="34.9916700">
<ele>329.369995</ele>
<time>2022-09-02T11:46:46.240Z</time>
</trkpt>
<trkpt lat="31.7838700" lon="34.9917100">
<ele>329.699982</ele>
<time>2022-09-02T11:46:46.240Z</time>
</trkpt>
<trkpt lat="31.7839300" lon="34.9917500">
<ele>330.139984</ele>
<time>2022-09-02T11:46:46.240Z</time>
</trkpt>
<trkpt lat="31.7840000" lon="34.9917700">
<ele>330.389984</ele>
<time>2022-09-02T11:46:46.240Z</time>
</trkpt>
<trkpt lat="31.7840500" lon="34.9917900">
<ele>330.710022</ele>
<time>2022-09-02T11:46:46.240Z</time>
</trkpt>
<trkpt lat="31.7840900" lon="34.9918200">
<ele>331.279999</ele>
<time>2022-09-02T11:46:46.240Z</time>
</trkpt>
<trkpt lat="31.7841400" lon="34.9918500">
<ele>331.929993</ele>
<time>2022-09-02T11:46:46.240Z</time>
</trkpt>
<trkpt lat="31.7841900" lon="34.9918600">
<ele>332.009979</ele>
<time>2022-09-02T11:46:46.240Z</time>
</trkpt>
<trkpt lat="31.7842500" lon="34.9918700">
<ele>331.790009</ele>
<time>2022-09-02T11:46:46.240Z</time>
</trkpt>
<trkpt lat="31.7842800" lon="34.9918800">
<ele>331.790009</ele>
<time>2022-09-02T11:46:46.240Z</time>
</trkpt>
<trkpt lat="31.7843200" lon="34.9918900">
<ele>331.720001</ele>
<time>2022-09-02T11:46:46.240Z</time>
</trkpt>
<trkpt lat="31.7843500" lon="34.9918900">
<ele>331.500000</ele>
<time>2022-09-02T11:46:46.240Z</time>
</trkpt>
<trkpt lat="31.7843900" lon="34.9918900">
<ele>331.220001</ele>
<time>2022-09-02T11:46:46.240Z</time>
</trkpt>
<trkpt lat="31.7844500" lon="34.9919000">
<ele>330.949982</ele>
<time>2022-09-02T11:46:46.240Z</time>
</trkpt>
<trkpt lat="31.7844900" lon="34.9919000">
<ele>330.320007</ele>
<time>2022-09-02T11:46:46.240Z</time>
</trkpt>
<trkpt lat="31.7845500" lon="34.9919100">
<ele>329.540009</ele>
<time>2022-09-02T11:46:46.240Z</time>
</trkpt>
<trkpt lat="31.7846000" lon="34.9919100">
<ele>328.730011</ele>
<time>2022-09-02T11:46:46.241Z</time>
</trkpt>
<trkpt lat="31.7846300" lon="34.9919200">
<ele>328.369995</ele>
<time>2022-09-02T11:46:46.241Z</time>
</trkpt>
<trkpt lat="31.7846700" lon="34.9919300">
<ele>327.800018</ele>
<time>2022-09-02T11:46:46.241Z</time>
</trkpt>
<trkpt lat="31.7847100" lon="34.9919300">
<ele>327.110016</ele>
<time>2022-09-02T11:46:46.241Z</time>
</trkpt>
<trkpt lat="31.7847700" lon="34.9919200">
<ele>327.009979</ele>
<time>2022-09-02T11:46:46.241Z</time>
</trkpt>
<trkpt lat="31.7848200" lon="34.9919100">
<ele>327.149994</ele>
<time>2022-09-02T11:46:46.241Z</time>
</trkpt>
<trkpt lat="31.7848700" lon="34.9918900">
<ele>327.240021</ele>
<time>2022-09-02T11:46:46.241Z</time>
</trkpt>
<trkpt lat="31.7849200" lon="34.9918700">
<ele>327.369995</ele>
<time>2022-09-02T11:46:46.241Z</time>
</trkpt>
<trkpt lat="31.7849500" lon="34.9918400">
<ele>327.380005</ele>
<time>2022-09-02T11:46:46.241Z</time>
</trkpt>
<trkpt lat="31.7849700" lon="34.9918200">
<ele>327.399994</ele>
<time>2022-09-02T11:46:46.241Z</time>
</trkpt>
<trkpt lat="31.7850100" lon="34.9917700">
<ele>327.529999</ele>
<time>2022-09-02T11:46:46.241Z</time>
</trkpt>
<trkpt lat="31.7850300" lon="34.9916900">
<ele>327.529999</ele>
<time>2022-09-02T11:46:46.241Z</time>
</trkpt>
<trkpt lat="31.7850500" lon="34.9916600">
<ele>327.709991</ele>
<time>2022-09-02T11:46:46.241Z</time>
</trkpt>
<trkpt lat="31.7850500" lon="34.9916100">
<ele>327.609985</ele>
<time>2022-09-02T11:46:46.241Z</time>
</trkpt>
<trkpt lat="31.7850500" lon="34.9915400">
<ele>327.469971</ele>
<time>2022-09-02T11:46:46.241Z</time>
</trkpt>
<trkpt lat="31.7850500" lon="34.9914900">
<ele>327.380005</ele>
<time>2022-09-02T11:46:46.241Z</time>
</trkpt>
<trkpt lat="31.7850500" lon="34.9914000">
<ele>327.200012</ele>
<time>2022-09-02T11:46:46.241Z</time>
</trkpt>
<trkpt lat="31.7850400" lon="34.9913100">
<ele>327.059998</ele>
<time>2022-09-02T11:46:46.241Z</time>
</trkpt>
<trkpt lat="31.7850200" lon="34.9912100">
<ele>326.980011</ele>
<time>2022-09-02T11:46:46.241Z</time>
</trkpt>
<trkpt lat="31.7850000" lon="34.9911000">
<ele>327.080017</ele>
<time>2022-09-02T11:46:46.241Z</time>
</trkpt>
<trkpt lat="31.7849800" lon="34.9909900">
<ele>327.939972</ele>
<time>2022-09-02T11:46:46.241Z</time>
</trkpt>
<trkpt lat="31.7849700" lon="34.9909400">
<ele>328.339996</ele>
<time>2022-09-02T11:46:46.241Z</time>
</trkpt>
<trkpt lat="31.7849600" lon="34.9908400">
<ele>329.099976</ele>
<time>2022-09-02T11:46:46.241Z</time>
</trkpt>
<trkpt lat="31.7849600" lon="34.9907400">
<ele>328.380005</ele>
<time>2022-09-02T11:46:46.241Z</time>
</trkpt>
<trkpt lat="31.7849700" lon="34.9906300">
<ele>327.489990</ele>
<time>2022-09-02T11:46:46.241Z</time>
</trkpt>
<trkpt lat="31.7849800" lon="34.9905600">
<ele>326.959991</ele>
<time>2022-09-02T11:46:46.241Z</time>
</trkpt>
<trkpt lat="31.7850300" lon="34.9904000">
<ele>325.260010</ele>
<time>2022-09-02T11:46:46.241Z</time>
</trkpt>
<trkpt lat="31.7850700" lon="34.9903200">
<ele>324.239990</ele>
<time>2022-09-02T11:46:46.241Z</time>
</trkpt>
<trkpt lat="31.7852000" lon="34.9901500">
<ele>322.230011</ele>
<time>2022-09-02T11:46:46.241Z</time>
</trkpt>
<trkpt lat="31.7853700" lon="34.9900700">
<ele>321.420013</ele>
<time>2022-09-02T11:46:46.241Z</time>
</trkpt>
<trkpt lat="31.7855200" lon="34.9900000">
<ele>321.000031</ele>
<time>2022-09-02T11:46:46.242Z</time>
</trkpt>
<trkpt lat="31.7856400" lon="34.9900000">
<ele>318.869995</ele>
<time>2022-09-02T11:46:46.242Z</time>
</trkpt>
<trkpt lat="31.7856800" lon="34.9900300">
<ele>318.119995</ele>
<time>2022-09-02T11:46:46.242Z</time>
</trkpt>
<trkpt lat="31.7857200" lon="34.9900500">
<ele>317.360016</ele>
<time>2022-09-02T11:46:46.242Z</time>
</trkpt>
<trkpt lat="31.7857900" lon="34.9901300">
<ele>316.739990</ele>
<time>2022-09-02T11:46:46.242Z</time>
</trkpt>
<trkpt lat="31.7858300" lon="34.9901300">
<ele>315.940002</ele>
<time>2022-09-02T11:46:46.242Z</time>
</trkpt>
<trkpt lat="31.7859300" lon="34.9901400">
<ele>317.060028</ele>
<time>2022-09-02T11:46:46.242Z</time>
</trkpt>
<trkpt lat="31.7860500" lon="34.9901200">
<ele>318.170013</ele>
<time>2022-09-02T11:46:46.242Z</time>
</trkpt>
<trkpt lat="31.7861800" lon="34.9900100">
<ele>319.549988</ele>
<time>2022-09-02T11:46:46.242Z</time>
</trkpt>
<trkpt lat="31.7862500" lon="34.9898800">
<ele>321.219971</ele>
<time>2022-09-02T11:46:46.242Z</time>
</trkpt>
<trkpt lat="31.7862800" lon="34.9898200">
<ele>321.900024</ele>
<time>2022-09-02T11:46:46.242Z</time>
</trkpt>
<trkpt lat="31.7863100" lon="34.9897500">
<ele>322.549988</ele>
<time>2022-09-02T11:46:46.242Z</time>
</trkpt>
<trkpt lat="31.7863400" lon="34.9896300">
<ele>323.119995</ele>
<time>2022-09-02T11:46:46.242Z</time>
</trkpt>
<trkpt lat="31.7863500" lon="34.9895700">
<ele>323.300018</ele>
<time>2022-09-02T11:46:46.242Z</time>
</trkpt>
<trkpt lat="31.7863600" lon="34.9894500">
<ele>323.480011</ele>
<time>2022-09-02T11:46:46.242Z</time>
</trkpt>
<trkpt lat="31.7863600" lon="34.9894000">
<ele>323.019989</ele>
<time>2022-09-02T11:46:46.242Z</time>
</trkpt>
<trkpt lat="31.7863700" lon="34.9893400">
<ele>322.559998</ele>
<time>2022-09-02T11:46:46.242Z</time>
</trkpt>
<trkpt lat="31.7863700" lon="34.9892200">
<ele>321.290009</ele>
<time>2022-09-02T11:46:46.242Z</time>
</trkpt>
<trkpt lat="31.7863700" lon="34.9890700">
<ele>320.029999</ele>
<time>2022-09-02T11:46:46.242Z</time>
</trkpt>
<trkpt lat="31.7863800" lon="34.9889900">
<ele>319.599976</ele>
<time>2022-09-02T11:46:46.242Z</time>
</trkpt>
<trkpt lat="31.7864000" lon="34.9888100">
<ele>318.770020</ele>
<time>2022-09-02T11:46:46.242Z</time>
</trkpt>
<trkpt lat="31.7864200" lon="34.9887100">
<ele>318.540009</ele>
<time>2022-09-02T11:46:46.242Z</time>
</trkpt>
<trkpt lat="31.7864500" lon="34.9885200">
<ele>318.439972</ele>
<time>2022-09-02T11:46:46.242Z</time>
</trkpt>
<trkpt lat="31.7864600" lon="34.9884200">
<ele>318.510010</ele>
<time>2022-09-02T11:46:46.242Z</time>
</trkpt>
<trkpt lat="31.7864600" lon="34.9882100">
<ele>318.410004</ele>
<time>2022-09-02T11:46:46.242Z</time>
</trkpt>
<trkpt lat="31.7864500" lon="34.9880300">
<ele>318.190002</ele>
<time>2022-09-02T11:46:46.242Z</time>
</trkpt>
<trkpt lat="31.7864500" lon="34.9879600">
<ele>318.439972</ele>
<time>2022-09-02T11:46:46.242Z</time>
</trkpt>
<trkpt lat="31.7864300" lon="34.9878200">
<ele>318.589996</ele>
<time>2022-09-02T11:46:46.242Z</time>
</trkpt>
<trkpt lat="31.7864300" lon="34.9877200">
<ele>319.570007</ele>
<time>2022-09-02T11:46:46.242Z</time>
</trkpt>
<trkpt lat="31.7864200" lon="34.9876800">
<ele>319.970001</ele>
<time>2022-09-02T11:46:46.242Z</time>
</trkpt>
<trkpt lat="31.7864200" lon="34.9876000">
<ele>321.119995</ele>
<time>2022-09-02T11:46:46.242Z</time>
</trkpt>
<trkpt lat="31.7864200" lon="34.9875300">
<ele>322.130005</ele>
<time>2022-09-02T11:46:46.243Z</time>
</trkpt>
<trkpt lat="31.7864200" lon="34.9874500">
<ele>323.239990</ele>
<time>2022-09-02T11:46:46.243Z</time>
</trkpt>
<trkpt lat="31.7864200" lon="34.9874000">
<ele>323.919983</ele>
<time>2022-09-02T11:46:46.243Z</time>
</trkpt>
<trkpt lat="31.7864200" lon="34.9873500">
<ele>324.599976</ele>
<time>2022-09-02T11:46:46.243Z</time>
</trkpt>
<trkpt lat="31.7864200" lon="34.9873100">
<ele>325.140015</ele>
<time>2022-09-02T11:46:46.243Z</time>
</trkpt>
<trkpt lat="31.7864200" lon="34.9872700">
<ele>325.690002</ele>
<time>2022-09-02T11:46:46.243Z</time>
</trkpt>
<trkpt lat="31.7864200" lon="34.9872300">
<ele>326.229980</ele>
<time>2022-09-02T11:46:46.243Z</time>
</trkpt>
<trkpt lat="31.7864200" lon="34.9871600">
<ele>327.009979</ele>
<time>2022-09-02T11:46:46.243Z</time>
</trkpt>
<trkpt lat="31.7864300" lon="34.9871300">
<ele>327.440002</ele>
<time>2022-09-02T11:46:46.243Z</time>
</trkpt>
<trkpt lat="31.7864300" lon="34.9870700">
<ele>328.089996</ele>
<time>2022-09-02T11:46:46.243Z</time>
</trkpt>
<trkpt lat="31.7864300" lon="34.9870100">
<ele>328.740021</ele>
<time>2022-09-02T11:46:46.243Z</time>
</trkpt>
<trkpt lat="31.7864300" lon="34.9869600">
<ele>329.279999</ele>
<time>2022-09-02T11:46:46.243Z</time>
</trkpt>
<trkpt lat="31.7864300" lon="34.9868900">
<ele>329.520020</ele>
<time>2022-09-02T11:46:46.243Z</time>
</trkpt>
<trkpt lat="31.7864300" lon="34.9868600">
<ele>329.569977</ele>
<time>2022-09-02T11:46:46.243Z</time>
</trkpt>
<trkpt lat="31.7864200" lon="34.9868100">
<ele>329.600006</ele>
<time>2022-09-02T11:46:46.243Z</time>
</trkpt>
<trkpt lat="31.7864200" lon="34.9867700">
<ele>329.679993</ele>
<time>2022-09-02T11:46:46.243Z</time>
</trkpt>
<trkpt lat="31.7864300" lon="34.9867100">
<ele>329.789978</ele>
<time>2022-09-02T11:46:46.243Z</time>
</trkpt>
<trkpt lat="31.7864400" lon="34.9866700">
<ele>329.809998</ele>
<time>2022-09-02T11:46:46.243Z</time>
</trkpt>
<trkpt lat="31.7864600" lon="34.9866400">
<ele>329.550018</ele>
<time>2022-09-02T11:46:46.243Z</time>
</trkpt>
<trkpt lat="31.7865100" lon="34.9866200">
<ele>329.229980</ele>
<time>2022-09-02T11:46:46.243Z</time>
</trkpt>
<trkpt lat="31.7865400" lon="34.9866100">
<ele>329.050018</ele>
<time>2022-09-02T11:46:46.243Z</time>
</trkpt>
<trkpt lat="31.7865900" lon="34.9866100">
<ele>328.869995</ele>
<time>2022-09-02T11:46:46.243Z</time>
</trkpt>
<trkpt lat="31.7866300" lon="34.9866100">
<ele>328.720001</ele>
<time>2022-09-02T11:46:46.243Z</time>
</trkpt>
<trkpt lat="31.7867000" lon="34.9866200">
<ele>328.960022</ele>
<time>2022-09-02T11:46:46.243Z</time>
</trkpt>
<trkpt lat="31.7867700" lon="34.9866500">
<ele>329.929993</ele>
<time>2022-09-02T11:46:46.243Z</time>
</trkpt>
<trkpt lat="31.7868000" lon="34.9866600">
<ele>330.360016</ele>
<time>2022-09-02T11:46:46.243Z</time>
</trkpt>
<trkpt lat="31.7868500" lon="34.9866900">
<ele>331.230011</ele>
<time>2022-09-02T11:46:46.243Z</time>
</trkpt>
<trkpt lat="31.7868800" lon="34.9867100">
<ele>331.769989</ele>
<time>2022-09-02T11:46:46.243Z</time>
</trkpt>
<trkpt lat="31.7869100" lon="34.9867200">
<ele>332.200012</ele>
<time>2022-09-02T11:46:46.243Z</time>
</trkpt>
<trkpt lat="31.7869600" lon="34.9867400">
<ele>332.739990</ele>
<time>2022-09-02T11:46:46.244Z</time>
</trkpt>
<trkpt lat="31.7869900" lon="34.9867500">
<ele>332.739990</ele>
<time>2022-09-02T11:46:46.244Z</time>
</trkpt>
<trkpt lat="31.7870300" lon="34.9867700">
<ele>332.809998</ele>
<time>2022-09-02T11:46:46.244Z</time>
</trkpt>
<trkpt lat="31.7870500" lon="34.9867800">
<ele>332.839996</ele>
<time>2022-09-02T11:46:46.244Z</time>
</trkpt>
<trkpt lat="31.7871200" lon="34.9868000">
<ele>332.809998</ele>
<time>2022-09-02T11:46:46.244Z</time>
</trkpt>
<trkpt lat="31.7871500" lon="34.9868200">
<ele>332.919983</ele>
<time>2022-09-02T11:46:46.244Z</time>
</trkpt>
<trkpt lat="31.7871800" lon="34.9868400">
<ele>333.020020</ele>
<time>2022-09-02T11:46:46.244Z</time>
</trkpt>
<trkpt lat="31.7872500" lon="34.9868800">
<ele>332.579987</ele>
<time>2022-09-02T11:46:46.244Z</time>
</trkpt>
<trkpt lat="31.7873000" lon="34.9869300">
<ele>331.870026</ele>
<time>2022-09-02T11:46:46.244Z</time>
</trkpt>
<trkpt lat="31.7873300" lon="34.9870000">
<ele>331.279999</ele>
<time>2022-09-02T11:46:46.244Z</time>
</trkpt>
<trkpt lat="31.7873400" lon="34.9870300">
<ele>331.029999</ele>
<time>2022-09-02T11:46:46.244Z</time>
</trkpt>
<trkpt lat="31.7873700" lon="34.9871000">
<ele>330.279999</ele>
<time>2022-09-02T11:46:46.244Z</time>
</trkpt>
<trkpt lat="31.7873800" lon="34.9871400">
<ele>330.020020</ele>
<time>2022-09-02T11:46:46.244Z</time>
</trkpt>
<trkpt lat="31.7874000" lon="34.9871800">
<ele>329.520020</ele>
<time>2022-09-02T11:46:46.244Z</time>
</trkpt>
<trkpt lat="31.7874300" lon="34.9872600">
<ele>328.490021</ele>
<time>2022-09-02T11:46:46.244Z</time>
</trkpt>
<trkpt lat="31.7874500" lon="34.9873500">
<ele>327.339996</ele>
<time>2022-09-02T11:46:46.244Z</time>
</trkpt>
<trkpt lat="31.7874600" lon="34.9874500">
<ele>326.369995</ele>
<time>2022-09-02T11:46:46.244Z</time>
</trkpt>
<trkpt lat="31.7874600" lon="34.9875000">
<ele>326.010010</ele>
<time>2022-09-02T11:46:46.244Z</time>
</trkpt>
<trkpt lat="31.7874600" lon="34.9876000">
<ele>325.289978</ele>
<time>2022-09-02T11:46:46.244Z</time>
</trkpt>
<trkpt lat="31.7874500" lon="34.9876900">
<ele>324.890015</ele>
<time>2022-09-02T11:46:46.244Z</time>
</trkpt>
<trkpt lat="31.7874400" lon="34.9877300">
<ele>324.859985</ele>
<time>2022-09-02T11:46:46.244Z</time>
</trkpt>
<trkpt lat="31.7874200" lon="34.9878000">
<ele>324.779999</ele>
<time>2022-09-02T11:46:46.244Z</time>
</trkpt>
<trkpt lat="31.7873900" lon="34.9878800">
<ele>324.670013</ele>
<time>2022-09-02T11:46:46.244Z</time>
</trkpt>
<trkpt lat="31.7873800" lon="34.9879100">
<ele>324.599976</ele>
<time>2022-09-02T11:46:46.244Z</time>
</trkpt>
<trkpt lat="31.7873700" lon="34.9879500">
<ele>324.420013</ele>
<time>2022-09-02T11:46:46.244Z</time>
</trkpt>
<trkpt lat="31.7873500" lon="34.9880200">
<ele>324.160004</ele>
<time>2022-09-02T11:46:46.244Z</time>
</trkpt>
<trkpt lat="31.7873200" lon="34.9881100">
<ele>324.599976</ele>
<time>2022-09-02T11:46:46.244Z</time>
</trkpt>
<trkpt lat="31.7873200" lon="34.9881600">
<ele>324.670013</ele>
<time>2022-09-02T11:46:46.244Z</time>
</trkpt>
<trkpt lat="31.7873200" lon="34.9882000">
<ele>324.720001</ele>
<time>2022-09-02T11:46:46.244Z</time>
</trkpt>
<trkpt lat="31.7873200" lon="34.9882700">
<ele>324.810028</ele>
<time>2022-09-02T11:46:46.244Z</time>
</trkpt>
<trkpt lat="31.7873300" lon="34.9883400">
<ele>324.729980</ele>
<time>2022-09-02T11:46:46.245Z</time>
</trkpt>
<trkpt lat="31.7873400" lon="34.9883800">
<ele>324.910004</ele>
<time>2022-09-02T11:46:46.245Z</time>
</trkpt>
<trkpt lat="31.7873700" lon="34.9884700">
<ele>325.350006</ele>
<time>2022-09-02T11:46:46.245Z</time>
</trkpt>
<trkpt lat="31.7874000" lon="34.9885600">
<ele>326.059998</ele>
<time>2022-09-02T11:46:46.245Z</time>
</trkpt>
<trkpt lat="31.7874200" lon="34.9886000">
<ele>326.420013</ele>
<time>2022-09-02T11:46:46.245Z</time>
</trkpt>
<trkpt lat="31.7874300" lon="34.9886500">
<ele>326.569977</ele>
<time>2022-09-02T11:46:46.245Z</time>
</trkpt>
<trkpt lat="31.7874500" lon="34.9887000">
<ele>326.559998</ele>
<time>2022-09-02T11:46:46.245Z</time>
</trkpt>
<trkpt lat="31.7874700" lon="34.9887700">
<ele>326.659973</ele>
<time>2022-09-02T11:46:46.245Z</time>
</trkpt>
<trkpt lat="31.7874900" lon="34.9888900">
<ele>326.999969</ele>
<time>2022-09-02T11:46:46.245Z</time>
</trkpt>
<trkpt lat="31.7875000" lon="34.9889600">
<ele>327.259979</ele>
<time>2022-09-02T11:46:46.245Z</time>
</trkpt>
<trkpt lat="31.7875200" lon="34.9891100">
<ele>327.389984</ele>
<time>2022-09-02T11:46:46.245Z</time>
</trkpt>
<trkpt lat="31.7875300" lon="34.9891900">
<ele>327.139984</ele>
<time>2022-09-02T11:46:46.245Z</time>
</trkpt>
<trkpt lat="31.7875500" lon="34.9893600">
<ele>325.329987</ele>
<time>2022-09-02T11:46:46.245Z</time>
</trkpt>
<trkpt lat="31.7875600" lon="34.9894400">
<ele>324.599976</ele>
<time>2022-09-02T11:46:46.245Z</time>
</trkpt>
<trkpt lat="31.7875600" lon="34.9896100">
<ele>324.829987</ele>
<time>2022-09-02T11:46:46.245Z</time>
</trkpt>
<trkpt lat="31.7875600" lon="34.9897800">
<ele>325.419983</ele>
<time>2022-09-02T11:46:46.245Z</time>
</trkpt>
<trkpt lat="31.7875500" lon="34.9899500">
<ele>326.640015</ele>
<time>2022-09-02T11:46:46.245Z</time>
</trkpt>
<trkpt lat="31.7875300" lon="34.9900100">
<ele>327.019989</ele>
<time>2022-09-02T11:46:46.245Z</time>
</trkpt>
<trkpt lat="31.7875000" lon="34.9900700">
<ele>327.250031</ele>
<time>2022-09-02T11:46:46.245Z</time>
</trkpt>
<trkpt lat="31.7874700" lon="34.9901200">
<ele>327.149994</ele>
<time>2022-09-02T11:46:46.245Z</time>
</trkpt>
<trkpt lat="31.7874100" lon="34.9902100">
<ele>327.029999</ele>
<time>2022-09-02T11:46:46.245Z</time>
</trkpt>
<trkpt lat="31.7873800" lon="34.9902600">
<ele>327.039978</ele>
<time>2022-09-02T11:46:46.245Z</time>
</trkpt>
<trkpt lat="31.7873600" lon="34.9902800">
<ele>326.980011</ele>
<time>2022-09-02T11:46:46.245Z</time>
</trkpt>
<trkpt lat="31.7873400" lon="34.9903100">
<ele>326.750000</ele>
<time>2022-09-02T11:46:46.245Z</time>
</trkpt>
<trkpt lat="31.7873200" lon="34.9903600">
<ele>326.500000</ele>
<time>2022-09-02T11:46:46.245Z</time>
</trkpt>
<trkpt lat="31.7873000" lon="34.9904100">
<ele>326.290009</ele>
<time>2022-09-02T11:46:46.245Z</time>
</trkpt>
<trkpt lat="31.7872800" lon="34.9904600">
<ele>326.140015</ele>
<time>2022-09-02T11:46:46.245Z</time>
</trkpt>
<trkpt lat="31.7872600" lon="34.9905200">
<ele>326.029999</ele>
<time>2022-09-02T11:46:46.245Z</time>
</trkpt>
<trkpt lat="31.7872400" lon="34.9906000">
<ele>325.660004</ele>
<time>2022-09-02T11:46:46.245Z</time>
</trkpt>
<trkpt lat="31.7872200" lon="34.9906900">
<ele>325.049988</ele>
<time>2022-09-02T11:46:46.245Z</time>
</trkpt>
<trkpt lat="31.7872000" lon="34.9908100">
<ele>324.330017</ele>
<time>2022-09-02T11:46:46.246Z</time>
</trkpt>
<trkpt lat="31.7872000" lon="34.9908800">
<ele>323.990021</ele>
<time>2022-09-02T11:46:46.246Z</time>
</trkpt>
<trkpt lat="31.7871900" lon="34.9910200">
<ele>323.559998</ele>
<time>2022-09-02T11:46:46.246Z</time>
</trkpt>
<trkpt lat="31.7871900" lon="34.9910800">
<ele>323.339996</ele>
<time>2022-09-02T11:46:46.246Z</time>
</trkpt>
<trkpt lat="31.7872000" lon="34.9912100">
<ele>323.160004</ele>
<time>2022-09-02T11:46:46.246Z</time>
</trkpt>
<trkpt lat="31.7872000" lon="34.9912700">
<ele>323.160004</ele>
<time>2022-09-02T11:46:46.246Z</time>
</trkpt>
<trkpt lat="31.7872000" lon="34.9914100">
<ele>323.310028</ele>
<time>2022-09-02T11:46:46.246Z</time>
</trkpt>
<trkpt lat="31.7872100" lon="34.9914900">
<ele>323.799988</ele>
<time>2022-09-02T11:46:46.246Z</time>
</trkpt>
<trkpt lat="31.7872100" lon="34.9915200">
<ele>324.009979</ele>
<time>2022-09-02T11:46:46.246Z</time>
</trkpt>
<trkpt lat="31.7872100" lon="34.9915200">
<ele>324.009979</ele>
<time>2022-09-02T11:46:46.246Z</time>
</trkpt>
<trkpt lat="31.7872100" lon="34.9914700">
<ele>323.659973</ele>
<time>2022-09-02T11:46:46.246Z</time>
</trkpt>
<trkpt lat="31.7872000" lon="34.9916900">
<ele>325.250000</ele>
<time>2022-09-02T11:46:46.246Z</time>
</trkpt>
<trkpt lat="31.7872200" lon="34.9918800">
<ele>326.540009</ele>
<time>2022-09-02T11:46:46.246Z</time>
</trkpt>
<trkpt lat="31.7872200" lon="34.9919300">
<ele>326.900024</ele>
<time>2022-09-02T11:46:46.246Z</time>
</trkpt>
<trkpt lat="31.7871800" lon="34.9922000">
<ele>326.369995</ele>
<time>2022-09-02T11:46:46.246Z</time>
</trkpt>
<trkpt lat="31.7872400" lon="34.9923900">
<ele>324.660004</ele>
<time>2022-09-02T11:46:46.246Z</time>
</trkpt>
<trkpt lat="31.7873400" lon="34.9926600">
<ele>322.000000</ele>
<time>2022-09-02T11:46:46.246Z</time>
</trkpt>
<trkpt lat="31.7873800" lon="34.9928400">
<ele>320.419983</ele>
<time>2022-09-02T11:46:46.246Z</time>
</trkpt>
<trkpt lat="31.7873700" lon="34.9929600">
<ele>319.619995</ele>
<time>2022-09-02T11:46:46.246Z</time>
</trkpt>
<trkpt lat="31.7873500" lon="34.9930700">
<ele>318.980011</ele>
<time>2022-09-02T11:46:46.246Z</time>
</trkpt>
<trkpt lat="31.7873100" lon="34.9931800">
<ele>318.470001</ele>
<time>2022-09-02T11:46:46.246Z</time>
</trkpt>
<trkpt lat="31.7872300" lon="34.9932900">
<ele>318.260010</ele>
<time>2022-09-02T11:46:46.246Z</time>
</trkpt>
<trkpt lat="31.7871800" lon="34.9933700">
<ele>318.690002</ele>
<time>2022-09-02T11:46:46.246Z</time>
</trkpt>
<trkpt lat="31.7871700" lon="34.9934200">
<ele>318.799988</ele>
<time>2022-09-02T11:46:46.246Z</time>
</trkpt>
<trkpt lat="31.7871800" lon="34.9934600">
<ele>318.510010</ele>
<time>2022-09-02T11:46:46.246Z</time>
</trkpt>
<trkpt lat="31.7872500" lon="34.9938500">
<ele>316.800018</ele>
<time>2022-09-02T11:46:46.246Z</time>
</trkpt>
<trkpt lat="31.7872400" lon="34.9939400">
<ele>317.040009</ele>
<time>2022-09-02T11:46:46.246Z</time>
</trkpt>
<trkpt lat="31.7872400" lon="34.9939400">
<ele>317.040009</ele>
<time>2022-09-02T11:46:46.246Z</time>
</trkpt>
<trkpt lat="31.7872400" lon="34.9939400">
<ele>317.040009</ele>
<time>2022-09-02T11:46:46.246Z</time>
</trkpt>
<trkpt lat="31.7872000" lon="34.9942400">
<ele>318.779999</ele>
<time>2022-09-02T11:46:46.246Z</time>
</trkpt>
<trkpt lat="31.7871700" lon="34.9948200">
<ele>321.750000</ele>
<time>2022-09-02T11:46:46.247Z</time>
</trkpt>
<trkpt lat="31.7871300" lon="34.9949400">
<ele>321.410004</ele>
<time>2022-09-02T11:46:46.247Z</time>
</trkpt>
<trkpt lat="31.7870500" lon="34.9950600">
<ele>320.459991</ele>
<time>2022-09-02T11:46:46.247Z</time>
</trkpt>
<trkpt lat="31.7869600" lon="34.9951300">
<ele>319.619995</ele>
<time>2022-09-02T11:46:46.247Z</time>
</trkpt>
<trkpt lat="31.7868700" lon="34.9951700">
<ele>319.339996</ele>
<time>2022-09-02T11:46:46.247Z</time>
</trkpt>
<trkpt lat="31.7867400" lon="34.9952800">
<ele>319.710022</ele>
<time>2022-09-02T11:46:46.247Z</time>
</trkpt>
<trkpt lat="31.7865100" lon="34.9955200">
<ele>318.019989</ele>
<time>2022-09-02T11:46:46.247Z</time>
</trkpt>
<trkpt lat="31.7862900" lon="34.9957800">
<ele>319.440002</ele>
<time>2022-09-02T11:46:46.247Z</time>
</trkpt>
<trkpt lat="31.7862000" lon="34.9959200">
<ele>319.059998</ele>
<time>2022-09-02T11:46:46.247Z</time>
</trkpt>
<trkpt lat="31.7861300" lon="34.9960300">
<ele>318.520020</ele>
<time>2022-09-02T11:46:46.247Z</time>
</trkpt>
<trkpt lat="31.7860900" lon="34.9961400">
<ele>318.510010</ele>
<time>2022-09-02T11:46:46.247Z</time>
</trkpt>
<trkpt lat="31.7860800" lon="34.9962600">
<ele>318.420013</ele>
<time>2022-09-02T11:46:46.247Z</time>
</trkpt>
<trkpt lat="31.7860800" lon="34.9963100">
<ele>318.260010</ele>
<time>2022-09-02T11:46:46.247Z</time>
</trkpt>
<trkpt lat="31.7864800" lon="34.9963000">
<ele>315.890015</ele>
<time>2022-09-02T11:46:46.247Z</time>
</trkpt>
<trkpt lat="31.7867700" lon="34.9961700">
<ele>315.290009</ele>
<time>2022-09-02T11:46:46.247Z</time>
</trkpt>
<trkpt lat="31.7868400" lon="34.9961700">
<ele>315.489990</ele>
<time>2022-09-02T11:46:46.247Z</time>
</trkpt>
<trkpt lat="31.7869000" lon="34.9962000">
<ele>315.569977</ele>
<time>2022-09-02T11:46:46.247Z</time>
</trkpt>
<trkpt lat="31.7870300" lon="34.9962600">
<ele>315.180023</ele>
<time>2022-09-02T11:46:46.247Z</time>
</trkpt>
<trkpt lat="31.7871700" lon="34.9962900">
<ele>314.779999</ele>
<time>2022-09-02T11:46:46.247Z</time>
</trkpt>
<trkpt lat="31.7871600" lon="34.9968100">
<ele>309.079987</ele>
<time>2022-09-02T11:46:46.247Z</time>
</trkpt>
<trkpt lat="31.7872200" lon="34.9973600">
<ele>309.990021</ele>
<time>2022-09-02T11:46:46.247Z</time>
</trkpt>
<trkpt lat="31.7872100" lon="34.9973700">
<ele>309.929993</ele>
<time>2022-09-02T11:46:46.247Z</time>
</trkpt>
<trkpt lat="31.7872100" lon="34.9973700">
<ele>309.929993</ele>
<time>2022-09-02T11:46:46.247Z</time>
</trkpt>
<trkpt lat="31.7872100" lon="34.9973700">
<ele>309.929993</ele>
<time>2022-09-02T11:46:46.247Z</time>
</trkpt>
<trkpt lat="31.7871800" lon="34.9976700">
<ele>309.079987</ele>
<time>2022-09-02T11:46:46.247Z</time>
</trkpt>
<trkpt lat="31.7871100" lon="34.9978700">
<ele>307.589996</ele>
<time>2022-09-02T11:46:46.247Z</time>
</trkpt>
<trkpt lat="31.7871200" lon="34.9980400">
<ele>306.630005</ele>
<time>2022-09-02T11:46:46.247Z</time>
</trkpt>
<trkpt lat="31.7872300" lon="34.9981900">
<ele>307.169983</ele>
<time>2022-09-02T11:46:46.248Z</time>
</trkpt>
<trkpt lat="31.7872300" lon="34.9981800">
<ele>307.250000</ele>
<time>2022-09-02T11:46:46.248Z</time>
</trkpt>
<trkpt lat="31.7872300" lon="34.9981800">
<ele>307.250000</ele>
<time>2022-09-02T11:46:46.248Z</time>
</trkpt>
<trkpt lat="31.7872800" lon="34.9982900">
<ele>307.209991</ele>
<time>2022-09-02T11:46:46.248Z</time>
</trkpt>
<trkpt lat="31.7873100" lon="34.9983400">
<ele>307.220001</ele>
<time>2022-09-02T11:46:46.248Z</time>
</trkpt>
<trkpt lat="31.7873700" lon="34.9984600">
<ele>307.220001</ele>
<time>2022-09-02T11:46:46.248Z</time>
</trkpt>
<trkpt lat="31.7873900" lon="34.9985100">
<ele>307.140015</ele>
<time>2022-09-02T11:46:46.248Z</time>
</trkpt>
<trkpt lat="31.7874200" lon="34.9985700">
<ele>307.140015</ele>
<time>2022-09-02T11:46:46.248Z</time>
</trkpt>
<trkpt lat="31.7874500" lon="34.9986400">
<ele>307.220001</ele>
<time>2022-09-02T11:46:46.248Z</time>
</trkpt>
<trkpt lat="31.7874600" lon="34.9986700">
<ele>307.330017</ele>
<time>2022-09-02T11:46:46.248Z</time>
</trkpt>
<trkpt lat="31.7874900" lon="34.9987400">
<ele>307.809998</ele>
<time>2022-09-02T11:46:46.248Z</time>
</trkpt>
<trkpt lat="31.7875100" lon="34.9988300">
<ele>308.200012</ele>
<time>2022-09-02T11:46:46.248Z</time>
</trkpt>
<trkpt lat="31.7875300" lon="34.9989000">
<ele>308.600006</ele>
<time>2022-09-02T11:46:46.248Z</time>
</trkpt>
<trkpt lat="31.7875500" lon="34.9989500">
<ele>309.179993</ele>
<time>2022-09-02T11:46:46.248Z</time>
</trkpt>
<trkpt lat="31.7875600" lon="34.9990100">
<ele>309.580017</ele>
<time>2022-09-02T11:46:46.248Z</time>
</trkpt>
<trkpt lat="31.7875700" lon="34.9990500">
<ele>309.839996</ele>
<time>2022-09-02T11:46:46.248Z</time>
</trkpt>
<trkpt lat="31.7875900" lon="34.9991000">
<ele>310.160004</ele>
<time>2022-09-02T11:46:46.248Z</time>
</trkpt>
<trkpt lat="31.7876200" lon="34.9991600">
<ele>310.429993</ele>
<time>2022-09-02T11:46:46.248Z</time>
</trkpt>
<trkpt lat="31.7876500" lon="34.9992100">
<ele>310.639984</ele>
<time>2022-09-02T11:46:46.248Z</time>
</trkpt>
<trkpt lat="31.7876800" lon="34.9992500">
<ele>310.929993</ele>
<time>2022-09-02T11:46:46.248Z</time>
</trkpt>
<trkpt lat="31.7877200" lon="34.9992900">
<ele>311.399994</ele>
<time>2022-09-02T11:46:46.248Z</time>
</trkpt>
<trkpt lat="31.7877500" lon="34.9993200">
<ele>311.839996</ele>
<time>2022-09-02T11:46:46.248Z</time>
</trkpt>
<trkpt lat="31.7877800" lon="34.9993400">
<ele>312.310028</ele>
<time>2022-09-02T11:46:46.248Z</time>
</trkpt>
<trkpt lat="31.7878100" lon="34.9993500">
<ele>313.139984</ele>
<time>2022-09-02T11:46:46.248Z</time>
</trkpt>
<trkpt lat="31.7878400" lon="34.9993600">
<ele>313.920013</ele>
<time>2022-09-02T11:46:46.248Z</time>
</trkpt>
<trkpt lat="31.7878800" lon="34.9993900">
<ele>314.880005</ele>
<time>2022-09-02T11:46:46.248Z</time>
</trkpt>
<trkpt lat="31.7879200" lon="34.9994100">
<ele>315.690002</ele>
<time>2022-09-02T11:46:46.248Z</time>
</trkpt>
<trkpt lat="31.7879500" lon="34.9994300">
<ele>316.190002</ele>
<time>2022-09-02T11:46:46.248Z</time>
</trkpt>
<trkpt lat="31.7879900" lon="34.9994400">
<ele>316.859985</ele>
<time>2022-09-02T11:46:46.248Z</time>
</trkpt>
<trkpt lat="31.7880300" lon="34.9994500">
<ele>317.480011</ele>
<time>2022-09-02T11:46:46.248Z</time>
</trkpt>
<trkpt lat="31.7880600" lon="34.9994700">
<ele>317.730011</ele>
<time>2022-09-02T11:46:46.248Z</time>
</trkpt>
<trkpt lat="31.7881000" lon="34.9995000">
<ele>317.429993</ele>
<time>2022-09-02T11:46:46.249Z</time>
</trkpt>
<trkpt lat="31.7881400" lon="34.9995300">
<ele>317.010010</ele>
<time>2022-09-02T11:46:46.249Z</time>
</trkpt>
<trkpt lat="31.7881700" lon="34.9995500">
<ele>316.649994</ele>
<time>2022-09-02T11:46:46.249Z</time>
</trkpt>
<trkpt lat="31.7882100" lon="34.9995700">
<ele>316.190002</ele>
<time>2022-09-02T11:46:46.249Z</time>
</trkpt>
<trkpt lat="31.7882400" lon="34.9995900">
<ele>315.699982</ele>
<time>2022-09-02T11:46:46.249Z</time>
</trkpt>
<trkpt lat="31.7882600" lon="34.9996100">
<ele>315.190002</ele>
<time>2022-09-02T11:46:46.249Z</time>
</trkpt>
<trkpt lat="31.7883000" lon="34.9996300">
<ele>314.519989</ele>
<time>2022-09-02T11:46:46.249Z</time>
</trkpt>
<trkpt lat="31.7883200" lon="34.9996500">
<ele>313.910004</ele>
<time>2022-09-02T11:46:46.249Z</time>
</trkpt>
<trkpt lat="31.7883500" lon="34.9996700">
<ele>313.559998</ele>
<time>2022-09-02T11:46:46.249Z</time>
</trkpt>
<trkpt lat="31.7883900" lon="34.9997000">
<ele>313.380005</ele>
<time>2022-09-02T11:46:46.249Z</time>
</trkpt>
<trkpt lat="31.7884200" lon="34.9997300">
<ele>313.089996</ele>
<time>2022-09-02T11:46:46.249Z</time>
</trkpt>
<trkpt lat="31.7884500" lon="34.9997500">
<ele>313.120026</ele>
<time>2022-09-02T11:46:46.249Z</time>
</trkpt>
<trkpt lat="31.7884700" lon="34.9997700">
<ele>313.019989</ele>
<time>2022-09-02T11:46:46.249Z</time>
</trkpt>
<trkpt lat="31.7885000" lon="34.9998000">
<ele>312.889984</ele>
<time>2022-09-02T11:46:46.249Z</time>
</trkpt>
<trkpt lat="31.7885300" lon="34.9998300">
<ele>312.780029</ele>
<time>2022-09-02T11:46:46.249Z</time>
</trkpt>
<trkpt lat="31.7885700" lon="34.9998700">
<ele>312.669983</ele>
<time>2022-09-02T11:46:46.249Z</time>
</trkpt>
<trkpt lat="31.7886100" lon="34.9999100">
<ele>312.600006</ele>
<time>2022-09-02T11:46:46.249Z</time>
</trkpt>
<trkpt lat="31.7886600" lon="34.9999500">
<ele>312.569977</ele>
<time>2022-09-02T11:46:46.249Z</time>
</trkpt>
<trkpt lat="31.7886900" lon="34.9999800">
<ele>312.480011</ele>
<time>2022-09-02T11:46:46.249Z</time>
</trkpt>
<trkpt lat="31.7887300" lon="35.0000200">
<ele>312.109985</ele>
<time>2022-09-02T11:46:46.249Z</time>
</trkpt>
<trkpt lat="31.7887900" lon="35.0000700">
<ele>311.399994</ele>
<time>2022-09-02T11:46:46.249Z</time>
</trkpt>
<trkpt lat="31.7888400" lon="35.0001200">
<ele>310.480011</ele>
<time>2022-09-02T11:46:46.249Z</time>
</trkpt>
<trkpt lat="31.7888800" lon="35.0001500">
<ele>310.029999</ele>
<time>2022-09-02T11:46:46.249Z</time>
</trkpt>
<trkpt lat="31.7889400" lon="35.0001700">
<ele>309.559998</ele>
<time>2022-09-02T11:46:46.249Z</time>
</trkpt>
<trkpt lat="31.7890000" lon="35.0001800">
<ele>309.309998</ele>
<time>2022-09-02T11:46:46.250Z</time>
</trkpt>
<trkpt lat="31.7890400" lon="35.0001800">
<ele>309.360016</ele>
<time>2022-09-02T11:46:46.250Z</time>
</trkpt>
<trkpt lat="31.7890900" lon="35.0001800">
<ele>309.419983</ele>
<time>2022-09-02T11:46:46.250Z</time>
</trkpt>
<trkpt lat="31.7891400" lon="35.0001800">
<ele>309.489990</ele>
<time>2022-09-02T11:46:46.250Z</time>
</trkpt>
<trkpt lat="31.7891800" lon="35.0001700">
<ele>310.070007</ele>
<time>2022-09-02T11:46:46.250Z</time>
</trkpt>
<trkpt lat="31.7892400" lon="35.0001500">
<ele>311.480011</ele>
<time>2022-09-02T11:46:46.250Z</time>
</trkpt>
<trkpt lat="31.7892900" lon="35.0001300">
<ele>312.539978</ele>
<time>2022-09-02T11:46:46.250Z</time>
</trkpt>
<trkpt lat="31.7893500" lon="35.0001100">
<ele>313.469971</ele>
<time>2022-09-02T11:46:46.250Z</time>
</trkpt>
<trkpt lat="31.7894100" lon="35.0001100">
<ele>313.939972</ele>
<time>2022-09-02T11:46:46.250Z</time>
</trkpt>
<trkpt lat="31.7894600" lon="35.0001000">
<ele>314.360016</ele>
<time>2022-09-02T11:46:46.250Z</time>
</trkpt>
<trkpt lat="31.7895100" lon="35.0001000">
<ele>314.600006</ele>
<time>2022-09-02T11:46:46.250Z</time>
</trkpt>
<trkpt lat="31.7895500" lon="35.0001000">
<ele>314.799988</ele>
<time>2022-09-02T11:46:46.250Z</time>
</trkpt>
<trkpt lat="31.7896000" lon="35.0001100">
<ele>314.989990</ele>
<time>2022-09-02T11:46:46.250Z</time>
</trkpt>
<trkpt lat="31.7896400" lon="35.0001200">
<ele>315.139984</ele>
<time>2022-09-02T11:46:46.250Z</time>
</trkpt>
<trkpt lat="31.7896800" lon="35.0001300">
<ele>315.309967</ele>
<time>2022-09-02T11:46:46.250Z</time>
</trkpt>
<trkpt lat="31.7897200" lon="35.0001400">
<ele>315.480011</ele>
<time>2022-09-02T11:46:46.250Z</time>
</trkpt>
<trkpt lat="31.7897500" lon="35.0001600">
<ele>315.510010</ele>
<time>2022-09-02T11:46:46.250Z</time>
</trkpt>
<trkpt lat="31.7898000" lon="35.0001800">
<ele>315.550018</ele>
<time>2022-09-02T11:46:46.250Z</time>
</trkpt>
<trkpt lat="31.7898300" lon="35.0001900">
<ele>315.560028</ele>
<time>2022-09-02T11:46:46.250Z</time>
</trkpt>
<trkpt lat="31.7898900" lon="35.0002200">
<ele>315.459991</ele>
<time>2022-09-02T11:46:46.250Z</time>
</trkpt>
<trkpt lat="31.7899200" lon="35.0002400">
<ele>315.329987</ele>
<time>2022-09-02T11:46:46.250Z</time>
</trkpt>
<trkpt lat="31.7899600" lon="35.0002700">
<ele>315.080017</ele>
<time>2022-09-02T11:46:46.250Z</time>
</trkpt>
<trkpt lat="31.7899900" lon="35.0002900">
<ele>314.859985</ele>
<time>2022-09-02T11:46:46.250Z</time>
</trkpt>
<trkpt lat="31.7900500" lon="35.0003100">
<ele>315.550018</ele>
<time>2022-09-02T11:46:46.250Z</time>
</trkpt>
<trkpt lat="31.7900800" lon="35.0003300">
<ele>315.880005</ele>
<time>2022-09-02T11:46:46.250Z</time>
</trkpt>
<trkpt lat="31.7901100" lon="35.0003400">
<ele>316.309998</ele>
<time>2022-09-02T11:46:46.250Z</time>
</trkpt>
<trkpt lat="31.7901500" lon="35.0003700">
<ele>316.700012</ele>
<time>2022-09-02T11:46:46.250Z</time>
</trkpt>
<trkpt lat="31.7901800" lon="35.0003900">
<ele>317.029999</ele>
<time>2022-09-02T11:46:46.250Z</time>
</trkpt>
<trkpt lat="31.7902100" lon="35.0004100">
<ele>317.350006</ele>
<time>2022-09-02T11:46:46.250Z</time>
</trkpt>
<trkpt lat="31.7902400" lon="35.0004200">
<ele>317.779999</ele>
<time>2022-09-02T11:46:46.250Z</time>
</trkpt>
<trkpt lat="31.7902900" lon="35.0004400">
<ele>318.540009</ele>
<time>2022-09-02T11:46:46.250Z</time>
</trkpt>
<trkpt lat="31.7903200" lon="35.0004600">
<ele>319.039978</ele>
<time>2022-09-02T11:46:46.250Z</time>
</trkpt>
<trkpt lat="31.7903700" lon="35.0004800">
<ele>320.050018</ele>
<time>2022-09-02T11:46:46.251Z</time>
</trkpt>
<trkpt lat="31.7904100" lon="35.0005000">
<ele>320.839996</ele>
<time>2022-09-02T11:46:46.251Z</time>
</trkpt>
<trkpt lat="31.7904400" lon="35.0005300">
<ele>321.309998</ele>
<time>2022-09-02T11:46:46.251Z</time>
</trkpt>
<trkpt lat="31.7904600" lon="35.0005500">
<ele>321.640015</ele>
<time>2022-09-02T11:46:46.251Z</time>
</trkpt>
<trkpt lat="31.7904900" lon="35.0005700">
<ele>322.190002</ele>
<time>2022-09-02T11:46:46.251Z</time>
</trkpt>
<trkpt lat="31.7905300" lon="35.0006100">
<ele>322.769989</ele>
<time>2022-09-02T11:46:46.251Z</time>
</trkpt>
<trkpt lat="31.7905500" lon="35.0006400">
<ele>322.950012</ele>
<time>2022-09-02T11:46:46.251Z</time>
</trkpt>
<trkpt lat="31.7905800" lon="35.0006800">
<ele>323.539978</ele>
<time>2022-09-02T11:46:46.251Z</time>
</trkpt>
<trkpt lat="31.7906000" lon="35.0007100">
<ele>323.929993</ele>
<time>2022-09-02T11:46:46.251Z</time>
</trkpt>
<trkpt lat="31.7906100" lon="35.0007700">
<ele>323.640015</ele>
<time>2022-09-02T11:46:46.251Z</time>
</trkpt>
<trkpt lat="31.7906100" lon="35.0008100">
<ele>323.209991</ele>
<time>2022-09-02T11:46:46.251Z</time>
</trkpt>
<trkpt lat="31.7906100" lon="35.0008700">
<ele>322.429993</ele>
<time>2022-09-02T11:46:46.251Z</time>
</trkpt>
<trkpt lat="31.7906000" lon="35.0009100">
<ele>321.500000</ele>
<time>2022-09-02T11:46:46.251Z</time>
</trkpt>
<trkpt lat="31.7905900" lon="35.0009900">
<ele>319.979980</ele>
<time>2022-09-02T11:46:46.251Z</time>
</trkpt>
<trkpt lat="31.7905600" lon="35.0010500">
<ele>318.040009</ele>
<time>2022-09-02T11:46:46.251Z</time>
</trkpt>
<trkpt lat="31.7905400" lon="35.0011100">
<ele>316.679993</ele>
<time>2022-09-02T11:46:46.251Z</time>
</trkpt>
<trkpt lat="31.7905200" lon="35.0011500">
<ele>315.990021</ele>
<time>2022-09-02T11:46:46.251Z</time>
</trkpt>
<trkpt lat="31.7905000" lon="35.0012100">
<ele>315.229980</ele>
<time>2022-09-02T11:46:46.251Z</time>
</trkpt>
<trkpt lat="31.7904800" lon="35.0012500">
<ele>314.639984</ele>
<time>2022-09-02T11:46:46.251Z</time>
</trkpt>
<trkpt lat="31.7904600" lon="35.0012900">
<ele>314.089996</ele>
<time>2022-09-02T11:46:46.251Z</time>
</trkpt>
<trkpt lat="31.7904400" lon="35.0013200">
<ele>313.630005</ele>
<time>2022-09-02T11:46:46.251Z</time>
</trkpt>
<trkpt lat="31.7904100" lon="35.0013500">
<ele>313.040009</ele>
<time>2022-09-02T11:46:46.251Z</time>
</trkpt>
<trkpt lat="31.7903800" lon="35.0013800">
<ele>312.500000</ele>
<time>2022-09-02T11:46:46.251Z</time>
</trkpt>
<trkpt lat="31.7903500" lon="35.0014000">
<ele>312.180023</ele>
<time>2022-09-02T11:46:46.251Z</time>
</trkpt>
<trkpt lat="31.7903100" lon="35.0014200">
<ele>311.830017</ele>
<time>2022-09-02T11:46:46.251Z</time>
</trkpt>
<trkpt lat="31.7902700" lon="35.0014400">
<ele>311.570007</ele>
<time>2022-09-02T11:46:46.251Z</time>
</trkpt>
<trkpt lat="31.7902300" lon="35.0014600">
<ele>311.850006</ele>
<time>2022-09-02T11:46:46.251Z</time>
</trkpt>
<trkpt lat="31.7901900" lon="35.0014800">
<ele>312.089996</ele>
<time>2022-09-02T11:46:46.251Z</time>
</trkpt>
<trkpt lat="31.7901600" lon="35.0014900">
<ele>312.209991</ele>
<time>2022-09-02T11:46:46.252Z</time>
</trkpt>
<trkpt lat="31.7901100" lon="35.0015000">
<ele>312.319977</ele>
<time>2022-09-02T11:46:46.252Z</time>
</trkpt>
<trkpt lat="31.7900800" lon="35.0015000">
<ele>312.339996</ele>
<time>2022-09-02T11:46:46.252Z</time>
</trkpt>
<trkpt lat="31.7900200" lon="35.0015000">
<ele>312.390015</ele>
<time>2022-09-02T11:46:46.252Z</time>
</trkpt>
<trkpt lat="31.7899800" lon="35.0015100">
<ele>312.140015</ele>
<time>2022-09-02T11:46:46.252Z</time>
</trkpt>
<trkpt lat="31.7899300" lon="35.0015100">
<ele>311.399994</ele>
<time>2022-09-02T11:46:46.252Z</time>
</trkpt>
<trkpt lat="31.7899000" lon="35.0015100">
<ele>310.950012</ele>
<time>2022-09-02T11:46:46.252Z</time>
</trkpt>
<trkpt lat="31.7898700" lon="35.0015100">
<ele>310.500000</ele>
<time>2022-09-02T11:46:46.252Z</time>
</trkpt>
<trkpt lat="31.7898300" lon="35.0015100">
<ele>309.910004</ele>
<time>2022-09-02T11:46:46.252Z</time>
</trkpt>
<trkpt lat="31.7897900" lon="35.0015300">
<ele>309.500000</ele>
<time>2022-09-02T11:46:46.252Z</time>
</trkpt>
<trkpt lat="31.7897500" lon="35.0015400">
<ele>309.019989</ele>
<time>2022-09-02T11:46:46.252Z</time>
</trkpt>
<trkpt lat="31.7897000" lon="35.0015600">
<ele>308.630005</ele>
<time>2022-09-02T11:46:46.252Z</time>
</trkpt>
<trkpt lat="31.7896700" lon="35.0015800">
<ele>308.570007</ele>
<time>2022-09-02T11:46:46.252Z</time>
</trkpt>
<trkpt lat="31.7896400" lon="35.0016000">
<ele>308.550018</ele>
<time>2022-09-02T11:46:46.252Z</time>
</trkpt>
<trkpt lat="31.7896100" lon="35.0016200">
<ele>308.550018</ele>
<time>2022-09-02T11:46:46.252Z</time>
</trkpt>
<trkpt lat="31.7895800" lon="35.0016600">
<ele>308.880005</ele>
<time>2022-09-02T11:46:46.252Z</time>
</trkpt>
<trkpt lat="31.7895500" lon="35.0017000">
<ele>309.309998</ele>
<time>2022-09-02T11:46:46.252Z</time>
</trkpt>
<trkpt lat="31.7895300" lon="35.0017200">
<ele>309.519989</ele>
<time>2022-09-02T11:46:46.252Z</time>
</trkpt>
<trkpt lat="31.7895100" lon="35.0017800">
<ele>310.419983</ele>
<time>2022-09-02T11:46:46.252Z</time>
</trkpt>
<trkpt lat="31.7894900" lon="35.0018200">
<ele>311.000000</ele>
<time>2022-09-02T11:46:46.252Z</time>
</trkpt>
<trkpt lat="31.7894700" lon="35.0018500">
<ele>311.420013</ele>
<time>2022-09-02T11:46:46.252Z</time>
</trkpt>
<trkpt lat="31.7894500" lon="35.0018900">
<ele>312.040009</ele>
<time>2022-09-02T11:46:46.252Z</time>
</trkpt>
<trkpt lat="31.7894300" lon="35.0019300">
<ele>312.489990</ele>
<time>2022-09-02T11:46:46.252Z</time>
</trkpt>
<trkpt lat="31.7894100" lon="35.0019700">
<ele>312.750000</ele>
<time>2022-09-02T11:46:46.252Z</time>
</trkpt>
<trkpt lat="31.7893900" lon="35.0020000">
<ele>312.820007</ele>
<time>2022-09-02T11:46:46.252Z</time>
</trkpt>
<trkpt lat="31.7893500" lon="35.0020700">
<ele>313.110016</ele>
<time>2022-09-02T11:46:46.252Z</time>
</trkpt>
<trkpt lat="31.7893400" lon="35.0021100">
<ele>313.500000</ele>
<time>2022-09-02T11:46:46.252Z</time>
</trkpt>
<trkpt lat="31.7893200" lon="35.0021400">
<ele>313.580017</ele>
<time>2022-09-02T11:46:46.252Z</time>
</trkpt>
<trkpt lat="31.7893100" lon="35.0021800">
<ele>313.970001</ele>
<time>2022-09-02T11:46:46.252Z</time>
</trkpt>
<trkpt lat="31.7892900" lon="35.0022200">
<ele>314.190002</ele>
<time>2022-09-02T11:46:46.252Z</time>
</trkpt>
<trkpt lat="31.7892800" lon="35.0022600">
<ele>314.360016</ele>
<time>2022-09-02T11:46:46.252Z</time>
</trkpt>
<trkpt lat="31.7892600" lon="35.0022900">
<ele>314.329987</ele>
<time>2022-09-02T11:46:46.252Z</time>
</trkpt>
<trkpt lat="31.7892400" lon="35.0023400">
<ele>314.570007</ele>
<time>2022-09-02T11:46:46.252Z</time>
</trkpt>
<trkpt lat="31.7892200" lon="35.0023800">
<ele>314.799988</ele>
<time>2022-09-02T11:46:46.253Z</time>
</trkpt>
<trkpt lat="31.7891900" lon="35.0024300">
<ele>315.160004</ele>
<time>2022-09-02T11:46:46.253Z</time>
</trkpt>
<trkpt lat="31.7891800" lon="35.0024700">
<ele>315.640015</ele>
<time>2022-09-02T11:46:46.253Z</time>
</trkpt>
<trkpt lat="31.7891500" lon="35.0025400">
<ele>316.070007</ele>
<time>2022-09-02T11:46:46.253Z</time>
</trkpt>
<trkpt lat="31.7891300" lon="35.0025900">
<ele>316.179993</ele>
<time>2022-09-02T11:46:46.253Z</time>
</trkpt>
<trkpt lat="31.7891100" lon="35.0026400">
<ele>316.290009</ele>
<time>2022-09-02T11:46:46.253Z</time>
</trkpt>
<trkpt lat="31.7890900" lon="35.0026900">
<ele>316.399994</ele>
<time>2022-09-02T11:46:46.253Z</time>
</trkpt>
<trkpt lat="31.7890700" lon="35.0027300">
<ele>316.399994</ele>
<time>2022-09-02T11:46:46.253Z</time>
</trkpt>
<trkpt lat="31.7890500" lon="35.0028100">
<ele>316.829987</ele>
<time>2022-09-02T11:46:46.253Z</time>
</trkpt>
<trkpt lat="31.7890400" lon="35.0028700">
<ele>317.260010</ele>
<time>2022-09-02T11:46:46.253Z</time>
</trkpt>
<trkpt lat="31.7890300" lon="35.0029200">
<ele>317.579987</ele>
<time>2022-09-02T11:46:46.253Z</time>
</trkpt>
<trkpt lat="31.7890200" lon="35.0029700">
<ele>317.910004</ele>
<time>2022-09-02T11:46:46.253Z</time>
</trkpt>
<trkpt lat="31.7890200" lon="35.0030100">
<ele>318.339996</ele>
<time>2022-09-02T11:46:46.253Z</time>
</trkpt>
<trkpt lat="31.7890100" lon="35.0030600">
<ele>318.680023</ele>
<time>2022-09-02T11:46:46.253Z</time>
</trkpt>
<trkpt lat="31.7890000" lon="35.0031000">
<ele>319.010010</ele>
<time>2022-09-02T11:46:46.253Z</time>
</trkpt>
<trkpt lat="31.7889900" lon="35.0031400">
<ele>319.320007</ele>
<time>2022-09-02T11:46:46.253Z</time>
</trkpt>
<trkpt lat="31.7889800" lon="35.0031800">
<ele>319.609985</ele>
<time>2022-09-02T11:46:46.253Z</time>
</trkpt>
<trkpt lat="31.7889700" lon="35.0032300">
<ele>320.000000</ele>
<time>2022-09-02T11:46:46.253Z</time>
</trkpt>
<trkpt lat="31.7889600" lon="35.0032700">
<ele>320.250000</ele>
<time>2022-09-02T11:46:46.253Z</time>
</trkpt>
<trkpt lat="31.7889200" lon="35.0033000">
<ele>319.509979</ele>
<time>2022-09-02T11:46:46.253Z</time>
</trkpt>
<trkpt lat="31.7889000" lon="35.0033300">
<ele>319.279999</ele>
<time>2022-09-02T11:46:46.253Z</time>
</trkpt>
<trkpt lat="31.7888600" lon="35.0033600">
<ele>318.880005</ele>
<time>2022-09-02T11:46:46.253Z</time>
</trkpt>
<trkpt lat="31.7888200" lon="35.0033800">
<ele>318.520020</ele>
<time>2022-09-02T11:46:46.253Z</time>
</trkpt>
<trkpt lat="31.7887900" lon="35.0034100">
<ele>318.520020</ele>
<time>2022-09-02T11:46:46.253Z</time>
</trkpt>
<trkpt lat="31.7887600" lon="35.0034300">
<ele>318.390015</ele>
<time>2022-09-02T11:46:46.253Z</time>
</trkpt>
<trkpt lat="31.7887000" lon="35.0034700">
<ele>318.239990</ele>
<time>2022-09-02T11:46:46.253Z</time>
</trkpt>
<trkpt lat="31.7886600" lon="35.0035000">
<ele>318.269989</ele>
<time>2022-09-02T11:46:46.253Z</time>
</trkpt>
<trkpt lat="31.7886200" lon="35.0035400">
<ele>318.579987</ele>
<time>2022-09-02T11:46:46.253Z</time>
</trkpt>
<trkpt lat="31.7885900" lon="35.0036000">
<ele>319.540009</ele>
<time>2022-09-02T11:46:46.253Z</time>
</trkpt>
<trkpt lat="31.7885700" lon="35.0036400">
<ele>320.160004</ele>
<time>2022-09-02T11:46:46.253Z</time>
</trkpt>
<trkpt lat="31.7885500" lon="35.0036800">
<ele>320.769989</ele>
<time>2022-09-02T11:46:46.254Z</time>
</trkpt>
<trkpt lat="31.7885300" lon="35.0037200">
<ele>321.359985</ele>
<time>2022-09-02T11:46:46.254Z</time>
</trkpt>
<trkpt lat="31.7885000" lon="35.0037800">
<ele>322.200012</ele>
<time>2022-09-02T11:46:46.254Z</time>
</trkpt>
<trkpt lat="31.7884800" lon="35.0038100">
<ele>322.540009</ele>
<time>2022-09-02T11:46:46.254Z</time>
</trkpt>
<trkpt lat="31.7884600" lon="35.0038500">
<ele>323.059998</ele>
<time>2022-09-02T11:46:46.254Z</time>
</trkpt>
<trkpt lat="31.7884500" lon="35.0039000">
<ele>323.809998</ele>
<time>2022-09-02T11:46:46.254Z</time>
</trkpt>
<trkpt lat="31.7884400" lon="35.0039300">
<ele>324.009979</ele>
<time>2022-09-02T11:46:46.254Z</time>
</trkpt>
<trkpt lat="31.7884300" lon="35.0039700">
<ele>324.359985</ele>
<time>2022-09-02T11:46:46.254Z</time>
</trkpt>
<trkpt lat="31.7884200" lon="35.0040100">
<ele>324.720001</ele>
<time>2022-09-02T11:46:46.254Z</time>
</trkpt>
<trkpt lat="31.7884100" lon="35.0040400">
<ele>324.980011</ele>
<time>2022-09-02T11:46:46.254Z</time>
</trkpt>
<trkpt lat="31.7883900" lon="35.0040800">
<ele>325.289978</ele>
<time>2022-09-02T11:46:46.254Z</time>
</trkpt>
<trkpt lat="31.7883700" lon="35.0041300">
<ele>325.769989</ele>
<time>2022-09-02T11:46:46.254Z</time>
</trkpt>
<trkpt lat="31.7883600" lon="35.0041600">
<ele>326.099976</ele>
<time>2022-09-02T11:46:46.254Z</time>
</trkpt>
<trkpt lat="31.7883500" lon="35.0041900">
<ele>326.619995</ele>
<time>2022-09-02T11:46:46.254Z</time>
</trkpt>
<trkpt lat="31.7883400" lon="35.0042200">
<ele>327.200012</ele>
<time>2022-09-02T11:46:46.254Z</time>
</trkpt>
<trkpt lat="31.7883300" lon="35.0042600">
<ele>327.949982</ele>
<time>2022-09-02T11:46:46.254Z</time>
</trkpt>
<trkpt lat="31.7883100" lon="35.0043100">
<ele>328.589996</ele>
<time>2022-09-02T11:46:46.254Z</time>
</trkpt>
<trkpt lat="31.7882900" lon="35.0043600">
<ele>329.119995</ele>
<time>2022-09-02T11:46:46.254Z</time>
</trkpt>
<trkpt lat="31.7882700" lon="35.0044000">
<ele>329.359985</ele>
<time>2022-09-02T11:46:46.254Z</time>
</trkpt>
<trkpt lat="31.7882600" lon="35.0044300">
<ele>329.630005</ele>
<time>2022-09-02T11:46:46.254Z</time>
</trkpt>
<trkpt lat="31.7882400" lon="35.0044800">
<ele>329.439972</ele>
<time>2022-09-02T11:46:46.254Z</time>
</trkpt>
<trkpt lat="31.7882300" lon="35.0045100">
<ele>329.260010</ele>
<time>2022-09-02T11:46:46.254Z</time>
</trkpt>
<trkpt lat="31.7882200" lon="35.0045400">
<ele>329.080017</ele>
<time>2022-09-02T11:46:46.254Z</time>
</trkpt>
<trkpt lat="31.7882000" lon="35.0045800">
<ele>328.649994</ele>
<time>2022-09-02T11:46:46.254Z</time>
</trkpt>
<trkpt lat="31.7881800" lon="35.0046200">
<ele>328.220001</ele>
<time>2022-09-02T11:46:46.254Z</time>
</trkpt>
<trkpt lat="31.7881500" lon="35.0046700">
<ele>327.529999</ele>
<time>2022-09-02T11:46:46.254Z</time>
</trkpt>
<trkpt lat="31.7881300" lon="35.0047100">
<ele>327.100006</ele>
<time>2022-09-02T11:46:46.254Z</time>
</trkpt>
<trkpt lat="31.7881100" lon="35.0047500">
<ele>326.869995</ele>
<time>2022-09-02T11:46:46.254Z</time>
</trkpt>
<trkpt lat="31.7881000" lon="35.0047800">
<ele>326.900024</ele>
<time>2022-09-02T11:46:46.254Z</time>
</trkpt>
<trkpt lat="31.7880800" lon="35.0048200">
<ele>326.760010</ele>
<time>2022-09-02T11:46:46.255Z</time>
</trkpt>
<trkpt lat="31.7880700" lon="35.0048500">
<ele>326.799988</ele>
<time>2022-09-02T11:46:46.255Z</time>
</trkpt>
<trkpt lat="31.7880600" lon="35.0048900">
<ele>326.940002</ele>
<time>2022-09-02T11:46:46.255Z</time>
</trkpt>
<trkpt lat="31.7880400" lon="35.0049300">
<ele>326.980011</ele>
<time>2022-09-02T11:46:46.255Z</time>
</trkpt>
<trkpt lat="31.7880200" lon="35.0049700">
<ele>327.049988</ele>
<time>2022-09-02T11:46:46.255Z</time>
</trkpt>
<trkpt lat="31.7880100" lon="35.0050100">
<ele>327.320007</ele>
<time>2022-09-02T11:46:46.255Z</time>
</trkpt>
<trkpt lat="31.7879900" lon="35.0050600">
<ele>327.630005</ele>
<time>2022-09-02T11:46:46.255Z</time>
</trkpt>
<trkpt lat="31.7879600" lon="35.0051100">
<ele>327.729980</ele>
<time>2022-09-02T11:46:46.255Z</time>
</trkpt>
<trkpt lat="31.7879500" lon="35.0051500">
<ele>328.050018</ele>
<time>2022-09-02T11:46:46.255Z</time>
</trkpt>
<trkpt lat="31.7879200" lon="35.0052000">
<ele>328.089996</ele>
<time>2022-09-02T11:46:46.255Z</time>
</trkpt>
<trkpt lat="31.7879000" lon="35.0052600">
<ele>328.419983</ele>
<time>2022-09-02T11:46:46.255Z</time>
</trkpt>
<trkpt lat="31.7878800" lon="35.0053000">
<ele>328.369995</ele>
<time>2022-09-02T11:46:46.255Z</time>
</trkpt>
<trkpt lat="31.7878700" lon="35.0053400">
<ele>328.440002</ele>
<time>2022-09-02T11:46:46.255Z</time>
</trkpt>
<trkpt lat="31.7878500" lon="35.0054000">
<ele>328.440002</ele>
<time>2022-09-02T11:46:46.255Z</time>
</trkpt>
<trkpt lat="31.7878300" lon="35.0054500">
<ele>328.369995</ele>
<time>2022-09-02T11:46:46.255Z</time>
</trkpt>
<trkpt lat="31.7878000" lon="35.0055000">
<ele>328.079987</ele>
<time>2022-09-02T11:46:46.255Z</time>
</trkpt>
<trkpt lat="31.7877700" lon="35.0055500">
<ele>327.819977</ele>
<time>2022-09-02T11:46:46.255Z</time>
</trkpt>
<trkpt lat="31.7877500" lon="35.0056100">
<ele>327.519989</ele>
<time>2022-09-02T11:46:46.255Z</time>
</trkpt>
<trkpt lat="31.7877200" lon="35.0056600">
<ele>327.039978</ele>
<time>2022-09-02T11:46:46.255Z</time>
</trkpt>
<trkpt lat="31.7876800" lon="35.0057200">
<ele>326.449982</ele>
<time>2022-09-02T11:46:46.255Z</time>
</trkpt>
<trkpt lat="31.7876600" lon="35.0057600">
<ele>326.190002</ele>
<time>2022-09-02T11:46:46.255Z</time>
</trkpt>
<trkpt lat="31.7876300" lon="35.0058000">
<ele>325.809998</ele>
<time>2022-09-02T11:46:46.255Z</time>
</trkpt>
<trkpt lat="31.7876000" lon="35.0058200">
<ele>325.410004</ele>
<time>2022-09-02T11:46:46.255Z</time>
</trkpt>
<trkpt lat="31.7876400" lon="35.0058200">
<ele>325.989990</ele>
<time>2022-09-02T11:46:46.255Z</time>
</trkpt>
<trkpt lat="31.7876700" lon="35.0057700">
<ele>326.359985</ele>
<time>2022-09-02T11:46:46.255Z</time>
</trkpt>
<trkpt lat="31.7876800" lon="35.0057400">
<ele>326.470001</ele>
<time>2022-09-02T11:46:46.255Z</time>
</trkpt>
<trkpt lat="31.7877000" lon="35.0057000">
<ele>326.750000</ele>
<time>2022-09-02T11:46:46.255Z</time>
</trkpt>
<trkpt lat="31.7877200" lon="35.0056500">
<ele>327.029999</ele>
<time>2022-09-02T11:46:46.255Z</time>
</trkpt>
<trkpt lat="31.7877500" lon="35.0056200">
<ele>327.519989</ele>
<time>2022-09-02T11:46:46.255Z</time>
</trkpt>
<trkpt lat="31.7877700" lon="35.0055900">
<ele>327.859985</ele>
<time>2022-09-02T11:46:46.255Z</time>
</trkpt>
<trkpt lat="31.7878000" lon="35.0055500">
<ele>328.440002</ele>
<time>2022-09-02T11:46:46.256Z</time>
</trkpt>
<trkpt lat="31.7878300" lon="35.0055100">
<ele>328.799988</ele>
<time>2022-09-02T11:46:46.256Z</time>
</trkpt>
<trkpt lat="31.7878500" lon="35.0054900">
<ele>329.090027</ele>
<time>2022-09-02T11:46:46.256Z</time>
</trkpt>
<trkpt lat="31.7878700" lon="35.0054600">
<ele>329.300018</ele>
<time>2022-09-02T11:46:46.256Z</time>
</trkpt>
<trkpt lat="31.7879000" lon="35.0054300">
<ele>329.739990</ele>
<time>2022-09-02T11:46:46.256Z</time>
</trkpt>
<trkpt lat="31.7879200" lon="35.0054000">
<ele>329.950012</ele>
<time>2022-09-02T11:46:46.256Z</time>
</trkpt>
<trkpt lat="31.7879500" lon="35.0053600">
<ele>330.309998</ele>
<time>2022-09-02T11:46:46.256Z</time>
</trkpt>
<trkpt lat="31.7879700" lon="35.0053200">
<ele>330.460022</ele>
<time>2022-09-02T11:46:46.256Z</time>
</trkpt>
<trkpt lat="31.7879900" lon="35.0052900">
<ele>330.670013</ele>
<time>2022-09-02T11:46:46.256Z</time>
</trkpt>
<trkpt lat="31.7880100" lon="35.0052600">
<ele>330.769989</ele>
<time>2022-09-02T11:46:46.256Z</time>
</trkpt>
<trkpt lat="31.7880500" lon="35.0052200">
<ele>331.050018</ele>
<time>2022-09-02T11:46:46.256Z</time>
</trkpt>
<trkpt lat="31.7880700" lon="35.0051900">
<ele>331.079987</ele>
<time>2022-09-02T11:46:46.256Z</time>
</trkpt>
<trkpt lat="31.7881000" lon="35.0051600">
<ele>331.400024</ele>
<time>2022-09-02T11:46:46.256Z</time>
</trkpt>
<trkpt lat="31.7881300" lon="35.0051200">
<ele>331.639984</ele>
<time>2022-09-02T11:46:46.256Z</time>
</trkpt>
<trkpt lat="31.7881500" lon="35.0050900">
<ele>331.799988</ele>
<time>2022-09-02T11:46:46.256Z</time>
</trkpt>
<trkpt lat="31.7881700" lon="35.0050600">
<ele>331.980011</ele>
<time>2022-09-02T11:46:46.256Z</time>
</trkpt>
<trkpt lat="31.7881900" lon="35.0050400">
<ele>332.309998</ele>
<time>2022-09-02T11:46:46.256Z</time>
</trkpt>
<trkpt lat="31.7882000" lon="35.0050100">
<ele>332.269989</ele>
<time>2022-09-02T11:46:46.256Z</time>
</trkpt>
<trkpt lat="31.7882300" lon="35.0049800">
<ele>332.809998</ele>
<time>2022-09-02T11:46:46.256Z</time>
</trkpt>
<trkpt lat="31.7882500" lon="35.0049500">
<ele>333.059998</ele>
<time>2022-09-02T11:46:46.256Z</time>
</trkpt>
<trkpt lat="31.7882800" lon="35.0048900">
<ele>333.279999</ele>
<time>2022-09-02T11:46:46.256Z</time>
</trkpt>
<trkpt lat="31.7883000" lon="35.0048600">
<ele>333.529999</ele>
<time>2022-09-02T11:46:46.256Z</time>
</trkpt>
<trkpt lat="31.7883200" lon="35.0048300">
<ele>333.779999</ele>
<time>2022-09-02T11:46:46.256Z</time>
</trkpt>
<trkpt lat="31.7883500" lon="35.0047900">
<ele>334.109985</ele>
<time>2022-09-02T11:46:46.256Z</time>
</trkpt>
<trkpt lat="31.7883800" lon="35.0047500">
<ele>334.220001</ele>
<time>2022-09-02T11:46:46.256Z</time>
</trkpt>
<trkpt lat="31.7884100" lon="35.0047200">
<ele>334.369995</ele>
<time>2022-09-02T11:46:46.256Z</time>
</trkpt>
<trkpt lat="31.7884300" lon="35.0046900">
<ele>334.500000</ele>
<time>2022-09-02T11:46:46.256Z</time>
</trkpt>
<trkpt lat="31.7884800" lon="35.0046400">
<ele>334.879974</ele>
<time>2022-09-02T11:46:46.256Z</time>
</trkpt>
<trkpt lat="31.7885100" lon="35.0046000">
<ele>334.899994</ele>
<time>2022-09-02T11:46:46.256Z</time>
</trkpt>
<trkpt lat="31.7885300" lon="35.0045700">
<ele>334.830017</ele>
<time>2022-09-02T11:46:46.256Z</time>
</trkpt>
<trkpt lat="31.7885600" lon="35.0045200">
<ele>334.570007</ele>
<time>2022-09-02T11:46:46.257Z</time>
</trkpt>
<trkpt lat="31.7885900" lon="35.0044800">
<ele>334.329987</ele>
<time>2022-09-02T11:46:46.257Z</time>
</trkpt>
<trkpt lat="31.7886100" lon="35.0044300">
<ele>333.679993</ele>
<time>2022-09-02T11:46:46.257Z</time>
</trkpt>
<trkpt lat="31.7886400" lon="35.0044000">
<ele>333.059998</ele>
<time>2022-09-02T11:46:46.257Z</time>
</trkpt>
<trkpt lat="31.7886700" lon="35.0043500">
<ele>332.029999</ele>
<time>2022-09-02T11:46:46.257Z</time>
</trkpt>
<trkpt lat="31.7886800" lon="35.0043200">
<ele>331.419983</ele>
<time>2022-09-02T11:46:46.257Z</time>
</trkpt>
<trkpt lat="31.7886900" lon="35.0042900">
<ele>330.820007</ele>
<time>2022-09-02T11:46:46.257Z</time>
</trkpt>
<trkpt lat="31.7887200" lon="35.0042600">
<ele>330.279999</ele>
<time>2022-09-02T11:46:46.257Z</time>
</trkpt>
<trkpt lat="31.7887300" lon="35.0042300">
<ele>329.699982</ele>
<time>2022-09-02T11:46:46.257Z</time>
</trkpt>
<trkpt lat="31.7887600" lon="35.0041900">
<ele>328.989990</ele>
<time>2022-09-02T11:46:46.257Z</time>
</trkpt>
<trkpt lat="31.7888100" lon="35.0041600">
<ele>328.690002</ele>
<time>2022-09-02T11:46:46.257Z</time>
</trkpt>
<trkpt lat="31.7888500" lon="35.0041400">
<ele>328.750031</ele>
<time>2022-09-02T11:46:46.257Z</time>
</trkpt>
<trkpt lat="31.7888900" lon="35.0041200">
<ele>328.830017</ele>
<time>2022-09-02T11:46:46.257Z</time>
</trkpt>
<trkpt lat="31.7889200" lon="35.0041100">
<ele>328.820007</ele>
<time>2022-09-02T11:46:46.257Z</time>
</trkpt>
<trkpt lat="31.7889800" lon="35.0041000">
<ele>328.769989</ele>
<time>2022-09-02T11:46:46.257Z</time>
</trkpt>
<trkpt lat="31.7890300" lon="35.0040900">
<ele>328.669983</ele>
<time>2022-09-02T11:46:46.257Z</time>
</trkpt>
<trkpt lat="31.7890700" lon="35.0040700">
<ele>328.400024</ele>
<time>2022-09-02T11:46:46.257Z</time>
</trkpt>
<trkpt lat="31.7891000" lon="35.0040600">
<ele>328.209991</ele>
<time>2022-09-02T11:46:46.257Z</time>
</trkpt>
<trkpt lat="31.7891300" lon="35.0040500">
<ele>327.989990</ele>
<time>2022-09-02T11:46:46.257Z</time>
</trkpt>
<trkpt lat="31.7891600" lon="35.0040500">
<ele>327.920013</ele>
<time>2022-09-02T11:46:46.257Z</time>
</trkpt>
<trkpt lat="31.7892000" lon="35.0040500">
<ele>328.690002</ele>
<time>2022-09-02T11:46:46.257Z</time>
</trkpt>
<trkpt lat="31.7892400" lon="35.0040500">
<ele>329.640015</ele>
<time>2022-09-02T11:46:46.257Z</time>
</trkpt>
<trkpt lat="31.7892700" lon="35.0040500">
<ele>330.350006</ele>
<time>2022-09-02T11:46:46.257Z</time>
</trkpt>
<trkpt lat="31.7893200" lon="35.0040500">
<ele>331.530029</ele>
<time>2022-09-02T11:46:46.257Z</time>
</trkpt>
<trkpt lat="31.7893600" lon="35.0040500">
<ele>332.479980</ele>
<time>2022-09-02T11:46:46.257Z</time>
</trkpt>
<trkpt lat="31.7893900" lon="35.0040600">
<ele>333.399994</ele>
<time>2022-09-02T11:46:46.257Z</time>
</trkpt>
<trkpt lat="31.7894300" lon="35.0040600">
<ele>334.350006</ele>
<time>2022-09-02T11:46:46.257Z</time>
</trkpt>
<trkpt lat="31.7894800" lon="35.0040600">
<ele>335.980011</ele>
<time>2022-09-02T11:46:46.257Z</time>
</trkpt>
<trkpt lat="31.7895400" lon="35.0040700">
<ele>338.349976</ele>
<time>2022-09-02T11:46:46.257Z</time>
</trkpt>
<trkpt lat="31.7895800" lon="35.0040800">
<ele>340.010010</ele>
<time>2022-09-02T11:46:46.257Z</time>
</trkpt>
<trkpt lat="31.7896400" lon="35.0040900">
<ele>342.380005</ele>
<time>2022-09-02T11:46:46.257Z</time>
</trkpt>
<trkpt lat="31.7896800" lon="35.0041000">
<ele>344.039978</ele>
<time>2022-09-02T11:46:46.258Z</time>
</trkpt>
<trkpt lat="31.7897100" lon="35.0041100">
<ele>345.339996</ele>
<time>2022-09-02T11:46:46.258Z</time>
</trkpt>
<trkpt lat="31.7897400" lon="35.0041300">
<ele>346.300018</ele>
<time>2022-09-02T11:46:46.258Z</time>
</trkpt>
<trkpt lat="31.7897900" lon="35.0041400">
<ele>346.739990</ele>
<time>2022-09-02T11:46:46.258Z</time>
</trkpt>
<trkpt lat="31.7898200" lon="35.0041400">
<ele>346.880005</ele>
<time>2022-09-02T11:46:46.258Z</time>
</trkpt>
<trkpt lat="31.7898600" lon="35.0041400">
<ele>347.059998</ele>
<time>2022-09-02T11:46:46.258Z</time>
</trkpt>
<trkpt lat="31.7899000" lon="35.0041300">
<ele>347.100006</ele>
<time>2022-09-02T11:46:46.258Z</time>
</trkpt>
<trkpt lat="31.7899300" lon="35.0041200">
<ele>347.119995</ele>
<time>2022-09-02T11:46:46.258Z</time>
</trkpt>
<trkpt lat="31.7899700" lon="35.0041300">
<ele>347.450012</ele>
<time>2022-09-02T11:46:46.258Z</time>
</trkpt>
<trkpt lat="31.7900000" lon="35.0041400">
<ele>347.710022</ele>
<time>2022-09-02T11:46:46.258Z</time>
</trkpt>
<trkpt lat="31.7900300" lon="35.0041600">
<ele>348.459991</ele>
<time>2022-09-02T11:46:46.258Z</time>
</trkpt>
<trkpt lat="31.7900700" lon="35.0041700">
<ele>349.330017</ele>
<time>2022-09-02T11:46:46.258Z</time>
</trkpt>
<trkpt lat="31.7901000" lon="35.0041800">
<ele>350.049988</ele>
<time>2022-09-02T11:46:46.258Z</time>
</trkpt>
<trkpt lat="31.7901400" lon="35.0041800">
<ele>350.739990</ele>
<time>2022-09-02T11:46:46.258Z</time>
</trkpt>
<trkpt lat="31.7901900" lon="35.0041900">
<ele>351.720001</ele>
<time>2022-09-02T11:46:46.258Z</time>
</trkpt>
<trkpt lat="31.7902200" lon="35.0041900">
<ele>352.220001</ele>
<time>2022-09-02T11:46:46.258Z</time>
</trkpt>
<trkpt lat="31.7902500" lon="35.0041900">
<ele>352.709991</ele>
<time>2022-09-02T11:46:46.258Z</time>
</trkpt>
<trkpt lat="31.7902900" lon="35.0042000">
<ele>353.069977</ele>
<time>2022-09-02T11:46:46.258Z</time>
</trkpt>
<trkpt lat="31.7903200" lon="35.0042000">
<ele>352.649994</ele>
<time>2022-09-02T11:46:46.258Z</time>
</trkpt>
<trkpt lat="31.7903600" lon="35.0042000">
<ele>352.089996</ele>
<time>2022-09-02T11:46:46.258Z</time>
</trkpt>
<trkpt lat="31.7904100" lon="35.0042000">
<ele>351.390015</ele>
<time>2022-09-02T11:46:46.258Z</time>
</trkpt>
<trkpt lat="31.7904500" lon="35.0042000">
<ele>350.830017</ele>
<time>2022-09-02T11:46:46.258Z</time>
</trkpt>
<trkpt lat="31.7905000" lon="35.0042100">
<ele>350.240021</ele>
<time>2022-09-02T11:46:46.258Z</time>
</trkpt>
<trkpt lat="31.7905400" lon="35.0042200">
<ele>349.790009</ele>
<time>2022-09-02T11:46:46.258Z</time>
</trkpt>
<trkpt lat="31.7905800" lon="35.0042300">
<ele>349.869995</ele>
<time>2022-09-02T11:46:46.258Z</time>
</trkpt>
<trkpt lat="31.7906100" lon="35.0042400">
<ele>350.169983</ele>
<time>2022-09-02T11:46:46.258Z</time>
</trkpt>
<trkpt lat="31.7906400" lon="35.0042400">
<ele>350.380005</ele>
<time>2022-09-02T11:46:46.258Z</time>
</trkpt>
<trkpt lat="31.7906800" lon="35.0042500">
<ele>350.710022</ele>
<time>2022-09-02T11:46:46.258Z</time>
</trkpt>
<trkpt lat="31.7907200" lon="35.0042500">
<ele>350.969971</ele>
<time>2022-09-02T11:46:46.258Z</time>
</trkpt>
<trkpt lat="31.7907700" lon="35.0042600">
<ele>351.290009</ele>
<time>2022-09-02T11:46:46.258Z</time>
</trkpt>
<trkpt lat="31.7908100" lon="35.0042600">
<ele>351.520020</ele>
<time>2022-09-02T11:46:46.259Z</time>
</trkpt>
<trkpt lat="31.7908500" lon="35.0042700">
<ele>351.869995</ele>
<time>2022-09-02T11:46:46.259Z</time>
</trkpt>
<trkpt lat="31.7908800" lon="35.0042700">
<ele>352.320007</ele>
<time>2022-09-02T11:46:46.259Z</time>
</trkpt>
<trkpt lat="31.7909300" lon="35.0042800">
<ele>353.059998</ele>
<time>2022-09-02T11:46:46.259Z</time>
</trkpt>
<trkpt lat="31.7909700" lon="35.0042900">
<ele>353.690002</ele>
<time>2022-09-02T11:46:46.259Z</time>
</trkpt>
<trkpt lat="31.7910300" lon="35.0043000">
<ele>354.660004</ele>
<time>2022-09-02T11:46:46.259Z</time>
</trkpt>
<trkpt lat="31.7910700" lon="35.0043100">
<ele>355.360016</ele>
<time>2022-09-02T11:46:46.259Z</time>
</trkpt>
<trkpt lat="31.7911000" lon="35.0043300">
<ele>355.989990</ele>
<time>2022-09-02T11:46:46.259Z</time>
</trkpt>
<trkpt lat="31.7911400" lon="35.0043400">
<ele>356.679993</ele>
<time>2022-09-02T11:46:46.259Z</time>
</trkpt>
<trkpt lat="31.7911800" lon="35.0043500">
<ele>357.320007</ele>
<time>2022-09-02T11:46:46.259Z</time>
</trkpt>
<trkpt lat="31.7912300" lon="35.0043600">
<ele>358.070007</ele>
<time>2022-09-02T11:46:46.259Z</time>
</trkpt>
<trkpt lat="31.7912700" lon="35.0043700">
<ele>358.639984</ele>
<time>2022-09-02T11:46:46.259Z</time>
</trkpt>
<trkpt lat="31.7913000" lon="35.0043700">
<ele>359.050018</ele>
<time>2022-09-02T11:46:46.259Z</time>
</trkpt>
<trkpt lat="31.7913400" lon="35.0043700">
<ele>359.600006</ele>
<time>2022-09-02T11:46:46.259Z</time>
</trkpt>
<trkpt lat="31.7913700" lon="35.0043800">
<ele>359.980011</ele>
<time>2022-09-02T11:46:46.259Z</time>
</trkpt>
<trkpt lat="31.7914100" lon="35.0043800">
<ele>360.309998</ele>
<time>2022-09-02T11:46:46.259Z</time>
</trkpt>
<trkpt lat="31.7914600" lon="35.0043800">
<ele>360.489990</ele>
<time>2022-09-02T11:46:46.259Z</time>
</trkpt>
<trkpt lat="31.7915000" lon="35.0043900">
<ele>360.600006</ele>
<time>2022-09-02T11:46:46.259Z</time>
</trkpt>
<trkpt lat="31.7915300" lon="35.0043900">
<ele>360.699982</ele>
<time>2022-09-02T11:46:46.259Z</time>
</trkpt>
<trkpt lat="31.7915600" lon="35.0044000">
<ele>360.779999</ele>
<time>2022-09-02T11:46:46.259Z</time>
</trkpt>
<trkpt lat="31.7916000" lon="35.0044100">
<ele>360.880005</ele>
<time>2022-09-02T11:46:46.259Z</time>
</trkpt>
<trkpt lat="31.7916300" lon="35.0044200">
<ele>360.959991</ele>
<time>2022-09-02T11:46:46.259Z</time>
</trkpt>
<trkpt lat="31.7916600" lon="35.0044200">
<ele>361.059998</ele>
<time>2022-09-02T11:46:46.259Z</time>
</trkpt>
<trkpt lat="31.7917000" lon="35.0044200">
<ele>361.079987</ele>
<time>2022-09-02T11:46:46.259Z</time>
</trkpt>
<trkpt lat="31.7917500" lon="35.0044300">
<ele>361.039978</ele>
<time>2022-09-02T11:46:46.259Z</time>
</trkpt>
<trkpt lat="31.7917800" lon="35.0044400">
<ele>361.010010</ele>
<time>2022-09-02T11:46:46.259Z</time>
</trkpt>
<trkpt lat="31.7918200" lon="35.0044500">
<ele>361.049988</ele>
<time>2022-09-02T11:46:46.260Z</time>
</trkpt>
<trkpt lat="31.7918700" lon="35.0044700">
<ele>361.250000</ele>
<time>2022-09-02T11:46:46.260Z</time>
</trkpt>
<trkpt lat="31.7919000" lon="35.0044700">
<ele>361.260010</ele>
<time>2022-09-02T11:46:46.260Z</time>
</trkpt>
<trkpt lat="31.7919400" lon="35.0044800">
<ele>361.379974</ele>
<time>2022-09-02T11:46:46.260Z</time>
</trkpt>
<trkpt lat="31.7919700" lon="35.0044800">
<ele>361.299988</ele>
<time>2022-09-02T11:46:46.260Z</time>
</trkpt>
<trkpt lat="31.7920200" lon="35.0044800">
<ele>361.150024</ele>
<time>2022-09-02T11:46:46.260Z</time>
</trkpt>
<trkpt lat="31.7920400" lon="35.0044800">
<ele>361.079987</ele>
<time>2022-09-02T11:46:46.260Z</time>
</trkpt>
<trkpt lat="31.7920800" lon="35.0044700">
<ele>360.829987</ele>
<time>2022-09-02T11:46:46.260Z</time>
</trkpt>
<trkpt lat="31.7921200" lon="35.0044600">
<ele>360.569977</ele>
<time>2022-09-02T11:46:46.260Z</time>
</trkpt>
<trkpt lat="31.7921600" lon="35.0044600">
<ele>360.440002</ele>
<time>2022-09-02T11:46:46.260Z</time>
</trkpt>
<trkpt lat="31.7922000" lon="35.0044600">
<ele>360.300018</ele>
<time>2022-09-02T11:46:46.260Z</time>
</trkpt>
<trkpt lat="31.7922400" lon="35.0044600">
<ele>360.479980</ele>
<time>2022-09-02T11:46:46.260Z</time>
</trkpt>
<trkpt lat="31.7922900" lon="35.0044600">
<ele>361.200012</ele>
<time>2022-09-02T11:46:46.260Z</time>
</trkpt>
<trkpt lat="31.7923200" lon="35.0044600">
<ele>361.629974</ele>
<time>2022-09-02T11:46:46.260Z</time>
</trkpt>
<trkpt lat="31.7923500" lon="35.0044600">
<ele>362.059998</ele>
<time>2022-09-02T11:46:46.260Z</time>
</trkpt>
<trkpt lat="31.7924000" lon="35.0044600">
<ele>362.780029</ele>
<time>2022-09-02T11:46:46.260Z</time>
</trkpt>
<trkpt lat="31.7924500" lon="35.0044700">
<ele>363.649994</ele>
<time>2022-09-02T11:46:46.260Z</time>
</trkpt>
<trkpt lat="31.7924800" lon="35.0044700">
<ele>364.079987</ele>
<time>2022-09-02T11:46:46.260Z</time>
</trkpt>
<trkpt lat="31.7925300" lon="35.0044600">
<ele>364.880005</ele>
<time>2022-09-02T11:46:46.260Z</time>
</trkpt>
<trkpt lat="31.7925700" lon="35.0044600">
<ele>365.760010</ele>
<time>2022-09-02T11:46:46.260Z</time>
</trkpt>
<trkpt lat="31.7926200" lon="35.0044600">
<ele>366.859985</ele>
<time>2022-09-02T11:46:46.260Z</time>
</trkpt>
<trkpt lat="31.7926500" lon="35.0044600">
<ele>367.519989</ele>
<time>2022-09-02T11:46:46.260Z</time>
</trkpt>
<trkpt lat="31.7926900" lon="35.0044700">
<ele>368.600006</ele>
<time>2022-09-02T11:46:46.260Z</time>
</trkpt>
<trkpt lat="31.7927300" lon="35.0044800">
<ele>369.690002</ele>
<time>2022-09-02T11:46:46.260Z</time>
</trkpt>
<trkpt lat="31.7927700" lon="35.0044900">
<ele>370.809998</ele>
<time>2022-09-02T11:46:46.260Z</time>
</trkpt>
<trkpt lat="31.7928000" lon="35.0045000">
<ele>371.459991</ele>
<time>2022-09-02T11:46:46.260Z</time>
</trkpt>
<trkpt lat="31.7928400" lon="35.0045100">
<ele>372.100006</ele>
<time>2022-09-02T11:46:46.260Z</time>
</trkpt>
<trkpt lat="31.7928700" lon="35.0045400">
<ele>372.940002</ele>
<time>2022-09-02T11:46:46.260Z</time>
</trkpt>
<trkpt lat="31.7929000" lon="35.0045600">
<ele>373.520020</ele>
<time>2022-09-02T11:46:46.260Z</time>
</trkpt>
<trkpt lat="31.7929300" lon="35.0045800">
<ele>374.049988</ele>
<time>2022-09-02T11:46:46.260Z</time>
</trkpt>
<trkpt lat="31.7929500" lon="35.0046200">
<ele>374.699982</ele>
<time>2022-09-02T11:46:46.260Z</time>
</trkpt>
<trkpt lat="31.7929500" lon="35.0046600">
<ele>375.209991</ele>
<time>2022-09-02T11:46:46.260Z</time>
</trkpt>
<trkpt lat="31.7929400" lon="35.0047100">
<ele>375.840027</ele>
<time>2022-09-02T11:46:46.261Z</time>
</trkpt>
<trkpt lat="31.7929300" lon="35.0047600">
<ele>375.799988</ele>
<time>2022-09-02T11:46:46.261Z</time>
</trkpt>
<trkpt lat="31.7929100" lon="35.0048200">
<ele>375.459991</ele>
<time>2022-09-02T11:46:46.261Z</time>
</trkpt>
<trkpt lat="31.7929000" lon="35.0048900">
<ele>375.059998</ele>
<time>2022-09-02T11:46:46.261Z</time>
</trkpt>
<trkpt lat="31.7928800" lon="35.0049500">
<ele>374.660004</ele>
<time>2022-09-02T11:46:46.261Z</time>
</trkpt>
<trkpt lat="31.7928800" lon="35.0049800">
<ele>374.489990</ele>
<time>2022-09-02T11:46:46.261Z</time>
</trkpt>
<trkpt lat="31.7928600" lon="35.0050200">
<ele>374.369995</ele>
<time>2022-09-02T11:46:46.261Z</time>
</trkpt>
<trkpt lat="31.7928500" lon="35.0050500">
<ele>374.440002</ele>
<time>2022-09-02T11:46:46.261Z</time>
</trkpt>
<trkpt lat="31.7928400" lon="35.0050800">
<ele>374.510010</ele>
<time>2022-09-02T11:46:46.261Z</time>
</trkpt>
<trkpt lat="31.7928300" lon="35.0051200">
<ele>374.619995</ele>
<time>2022-09-02T11:46:46.261Z</time>
</trkpt>
<trkpt lat="31.7928200" lon="35.0051500">
<ele>374.689972</ele>
<time>2022-09-02T11:46:46.261Z</time>
</trkpt>
<trkpt lat="31.7927900" lon="35.0051900">
<ele>374.729980</ele>
<time>2022-09-02T11:46:46.261Z</time>
</trkpt>
<trkpt lat="31.7927700" lon="35.0052400">
<ele>374.829987</ele>
<time>2022-09-02T11:46:46.261Z</time>
</trkpt>
<trkpt lat="31.7927300" lon="35.0053000">
<ele>374.839996</ele>
<time>2022-09-02T11:46:46.261Z</time>
</trkpt>
<trkpt lat="31.7927000" lon="35.0053300">
<ele>374.770020</ele>
<time>2022-09-02T11:46:46.261Z</time>
</trkpt>
<trkpt lat="31.7926800" lon="35.0053700">
<ele>374.760010</ele>
<time>2022-09-02T11:46:46.261Z</time>
</trkpt>
<trkpt lat="31.7926500" lon="35.0054000">
<ele>374.739990</ele>
<time>2022-09-02T11:46:46.261Z</time>
</trkpt>
<trkpt lat="31.7926200" lon="35.0054300">
<ele>374.739990</ele>
<time>2022-09-02T11:46:46.261Z</time>
</trkpt>
<trkpt lat="31.7926000" lon="35.0054600">
<ele>374.779999</ele>
<time>2022-09-02T11:46:46.261Z</time>
</trkpt>
<trkpt lat="31.7925700" lon="35.0054700">
<ele>374.770020</ele>
<time>2022-09-02T11:46:46.261Z</time>
</trkpt>
<trkpt lat="31.7925400" lon="35.0054900">
<ele>374.800018</ele>
<time>2022-09-02T11:46:46.261Z</time>
</trkpt>
<trkpt lat="31.7925100" lon="35.0055200">
<ele>374.880005</ele>
<time>2022-09-02T11:46:46.261Z</time>
</trkpt>
<trkpt lat="31.7924700" lon="35.0055600">
<ele>375.020020</ele>
<time>2022-09-02T11:46:46.261Z</time>
</trkpt>
<trkpt lat="31.7924400" lon="35.0055900">
<ele>375.119995</ele>
<time>2022-09-02T11:46:46.261Z</time>
</trkpt>
<trkpt lat="31.7924200" lon="35.0056200">
<ele>375.230011</ele>
<time>2022-09-02T11:46:46.261Z</time>
</trkpt>
<trkpt lat="31.7923900" lon="35.0056400">
<ele>375.299988</ele>
<time>2022-09-02T11:46:46.261Z</time>
</trkpt>
<trkpt lat="31.7923600" lon="35.0056700">
<ele>375.410004</ele>
<time>2022-09-02T11:46:46.261Z</time>
</trkpt>
<trkpt lat="31.7923300" lon="35.0057100">
<ele>375.559998</ele>
<time>2022-09-02T11:46:46.261Z</time>
</trkpt>
<trkpt lat="31.7923000" lon="35.0057400">
<ele>375.660004</ele>
<time>2022-09-02T11:46:46.261Z</time>
</trkpt>
<trkpt lat="31.7922600" lon="35.0057900">
<ele>375.840027</ele>
<time>2022-09-02T11:46:46.261Z</time>
</trkpt>
<trkpt lat="31.7922200" lon="35.0058400">
<ele>376.000000</ele>
<time>2022-09-02T11:46:46.262Z</time>
</trkpt>
<trkpt lat="31.7921700" lon="35.0058900">
<ele>376.000000</ele>
<time>2022-09-02T11:46:46.262Z</time>
</trkpt>
<trkpt lat="31.7921400" lon="35.0059300">
<ele>376.000000</ele>
<time>2022-09-02T11:46:46.262Z</time>
</trkpt>
<trkpt lat="31.7920900" lon="35.0059900">
<ele>376.000000</ele>
<time>2022-09-02T11:46:46.262Z</time>
</trkpt>
<trkpt lat="31.7920400" lon="35.0060300">
<ele>376.000000</ele>
<time>2022-09-02T11:46:46.262Z</time>
</trkpt>
<trkpt lat="31.7919900" lon="35.0060900">
<ele>376.000000</ele>
<time>2022-09-02T11:46:46.262Z</time>
</trkpt>
<trkpt lat="31.7919100" lon="35.0061700">
<ele>375.809998</ele>
<time>2022-09-02T11:46:46.262Z</time>
</trkpt>
<trkpt lat="31.7918700" lon="35.0062300">
<ele>375.690002</ele>
<time>2022-09-02T11:46:46.262Z</time>
</trkpt>
<trkpt lat="31.7918100" lon="35.0062900">
<ele>375.670013</ele>
<time>2022-09-02T11:46:46.262Z</time>
</trkpt>
<trkpt lat="31.7917400" lon="35.0063500">
<ele>375.769989</ele>
<time>2022-09-02T11:46:46.262Z</time>
</trkpt>
<trkpt lat="31.7916600" lon="35.0064300">
<ele>375.759979</ele>
<time>2022-09-02T11:46:46.262Z</time>
</trkpt>
<trkpt lat="31.7915600" lon="35.0065100">
<ele>376.059998</ele>
<time>2022-09-02T11:46:46.262Z</time>
</trkpt>
<trkpt lat="31.7914600" lon="35.0066000">
<ele>376.529999</ele>
<time>2022-09-02T11:46:46.262Z</time>
</trkpt>
<trkpt lat="31.7913500" lon="35.0066800">
<ele>376.480011</ele>
<time>2022-09-02T11:46:46.262Z</time>
</trkpt>
<trkpt lat="31.7912800" lon="35.0067300">
<ele>375.280029</ele>
<time>2022-09-02T11:46:46.262Z</time>
</trkpt>
<trkpt lat="31.7911500" lon="35.0068200">
<ele>372.840027</ele>
<time>2022-09-02T11:46:46.262Z</time>
</trkpt>
<trkpt lat="31.7910200" lon="35.0068900">
<ele>370.660004</ele>
<time>2022-09-02T11:46:46.262Z</time>
</trkpt>
<trkpt lat="31.7909000" lon="35.0069900">
<ele>368.170013</ele>
<time>2022-09-02T11:46:46.262Z</time>
</trkpt>
<trkpt lat="31.7908100" lon="35.0071000">
<ele>368.229980</ele>
<time>2022-09-02T11:46:46.262Z</time>
</trkpt>
<trkpt lat="31.7907600" lon="35.0071500">
<ele>368.690002</ele>
<time>2022-09-02T11:46:46.262Z</time>
</trkpt>
<trkpt lat="31.7906700" lon="35.0072300">
<ele>369.070007</ele>
<time>2022-09-02T11:46:46.262Z</time>
</trkpt>
<trkpt lat="31.7905800" lon="35.0073200">
<ele>370.029999</ele>
<time>2022-09-02T11:46:46.262Z</time>
</trkpt>
<trkpt lat="31.7905000" lon="35.0074000">
<ele>370.409973</ele>
<time>2022-09-02T11:46:46.262Z</time>
</trkpt>
<trkpt lat="31.7904700" lon="35.0074500">
<ele>370.449982</ele>
<time>2022-09-02T11:46:46.262Z</time>
</trkpt>
<trkpt lat="31.7904000" lon="35.0075500">
<ele>370.419983</ele>
<time>2022-09-02T11:46:46.262Z</time>
</trkpt>
<trkpt lat="31.7903700" lon="35.0076000">
<ele>370.769989</ele>
<time>2022-09-02T11:46:46.262Z</time>
</trkpt>
<trkpt lat="31.7903400" lon="35.0076600">
<ele>371.389984</ele>
<time>2022-09-02T11:46:46.262Z</time>
</trkpt>
<trkpt lat="31.7903000" lon="35.0077200">
<ele>372.089996</ele>
<time>2022-09-02T11:46:46.262Z</time>
</trkpt>
<trkpt lat="31.7902300" lon="35.0078300">
<ele>372.570007</ele>
<time>2022-09-02T11:46:46.262Z</time>
</trkpt>
<trkpt lat="31.7902000" lon="35.0078900">
<ele>372.379974</ele>
<time>2022-09-02T11:46:46.262Z</time>
</trkpt>
<trkpt lat="31.7901200" lon="35.0080200">
<ele>372.480011</ele>
<time>2022-09-02T11:46:46.263Z</time>
</trkpt>
<trkpt lat="31.7900800" lon="35.0080800">
<ele>372.670013</ele>
<time>2022-09-02T11:46:46.263Z</time>
</trkpt>
<trkpt lat="31.7900000" lon="35.0082000">
<ele>372.480011</ele>
<time>2022-09-02T11:46:46.263Z</time>
</trkpt>
<trkpt lat="31.7899200" lon="35.0083300">
<ele>372.010010</ele>
<time>2022-09-02T11:46:46.263Z</time>
</trkpt>
<trkpt lat="31.7898800" lon="35.0083800">
<ele>372.100006</ele>
<time>2022-09-02T11:46:46.263Z</time>
</trkpt>
<trkpt lat="31.7898400" lon="35.0084300">
<ele>372.150024</ele>
<time>2022-09-02T11:46:46.263Z</time>
</trkpt>
<trkpt lat="31.7897600" lon="35.0085200">
<ele>372.089996</ele>
<time>2022-09-02T11:46:46.263Z</time>
</trkpt>
<trkpt lat="31.7897100" lon="35.0085500">
<ele>371.970001</ele>
<time>2022-09-02T11:46:46.263Z</time>
</trkpt>
<trkpt lat="31.7896500" lon="35.0085700">
<ele>371.880005</ele>
<time>2022-09-02T11:46:46.263Z</time>
</trkpt>
<trkpt lat="31.7896000" lon="35.0085900">
<ele>371.900024</ele>
<time>2022-09-02T11:46:46.263Z</time>
</trkpt>
<trkpt lat="31.7895000" lon="35.0086300">
<ele>372.010010</ele>
<time>2022-09-02T11:46:46.263Z</time>
</trkpt>
<trkpt lat="31.7894500" lon="35.0086500">
<ele>372.000000</ele>
<time>2022-09-02T11:46:46.263Z</time>
</trkpt>
<trkpt lat="31.7893400" lon="35.0086900">
<ele>369.370026</ele>
<time>2022-09-02T11:46:46.263Z</time>
</trkpt>
<trkpt lat="31.7892200" lon="35.0087200">
<ele>366.339996</ele>
<time>2022-09-02T11:46:46.263Z</time>
</trkpt>
<trkpt lat="31.7891500" lon="35.0087400">
<ele>364.660004</ele>
<time>2022-09-02T11:46:46.263Z</time>
</trkpt>
<trkpt lat="31.7890100" lon="35.0087800">
<ele>362.079987</ele>
<time>2022-09-02T11:46:46.263Z</time>
</trkpt>
<trkpt lat="31.7889400" lon="35.0088000">
<ele>360.949982</ele>
<time>2022-09-02T11:46:46.263Z</time>
</trkpt>
<trkpt lat="31.7887900" lon="35.0088300">
<ele>359.600006</ele>
<time>2022-09-02T11:46:46.263Z</time>
</trkpt>
<trkpt lat="31.7887200" lon="35.0088600">
<ele>359.119995</ele>
<time>2022-09-02T11:46:46.263Z</time>
</trkpt>
<trkpt lat="31.7886500" lon="35.0088900">
<ele>358.440002</ele>
<time>2022-09-02T11:46:46.263Z</time>
</trkpt>
<trkpt lat="31.7885200" lon="35.0089400">
<ele>357.040009</ele>
<time>2022-09-02T11:46:46.263Z</time>
</trkpt>
<trkpt lat="31.7884500" lon="35.0089600">
<ele>355.790009</ele>
<time>2022-09-02T11:46:46.263Z</time>
</trkpt>
<trkpt lat="31.7883300" lon="35.0089800">
<ele>353.329987</ele>
<time>2022-09-02T11:46:46.263Z</time>
</trkpt>
<trkpt lat="31.7882700" lon="35.0089900">
<ele>353.429993</ele>
<time>2022-09-02T11:46:46.263Z</time>
</trkpt>
<trkpt lat="31.7882100" lon="35.0090000">
<ele>353.669983</ele>
<time>2022-09-02T11:46:46.263Z</time>
</trkpt>
<trkpt lat="31.7881500" lon="35.0090200">
<ele>354.300018</ele>
<time>2022-09-02T11:46:46.263Z</time>
</trkpt>
<trkpt lat="31.7880400" lon="35.0090300">
<ele>354.940002</ele>
<time>2022-09-02T11:46:46.263Z</time>
</trkpt>
<trkpt lat="31.7879700" lon="35.0090500">
<ele>354.959991</ele>
<time>2022-09-02T11:46:46.263Z</time>
</trkpt>
<trkpt lat="31.7878400" lon="35.0090900">
<ele>354.779968</ele>
<time>2022-09-02T11:46:46.263Z</time>
</trkpt>
<trkpt lat="31.7877000" lon="35.0091300">
<ele>355.279999</ele>
<time>2022-09-02T11:46:46.263Z</time>
</trkpt>
<trkpt lat="31.7875500" lon="35.0091400">
<ele>355.989990</ele>
<time>2022-09-02T11:46:46.264Z</time>
</trkpt>
<trkpt lat="31.7873900" lon="35.0091400">
<ele>355.930023</ele>
<time>2022-09-02T11:46:46.264Z</time>
</trkpt>
<trkpt lat="31.7873100" lon="35.0091400">
<ele>355.779999</ele>
<time>2022-09-02T11:46:46.264Z</time>
</trkpt>
<trkpt lat="31.7871400" lon="35.0091100">
<ele>355.720032</ele>
<time>2022-09-02T11:46:46.264Z</time>
</trkpt>
<trkpt lat="31.7870500" lon="35.0090800">
<ele>355.800018</ele>
<time>2022-09-02T11:46:46.264Z</time>
</trkpt>
<trkpt lat="31.7868800" lon="35.0090300">
<ele>355.079987</ele>
<time>2022-09-02T11:46:46.264Z</time>
</trkpt>
<trkpt lat="31.7868000" lon="35.0090000">
<ele>353.960022</ele>
<time>2022-09-02T11:46:46.264Z</time>
</trkpt>
<trkpt lat="31.7866100" lon="35.0089900">
<ele>351.410004</ele>
<time>2022-09-02T11:46:46.264Z</time>
</trkpt>
<trkpt lat="31.7864200" lon="35.0089800">
<ele>346.410004</ele>
<time>2022-09-02T11:46:46.264Z</time>
</trkpt>
<trkpt lat="31.7862200" lon="35.0089800">
<ele>344.220001</ele>
<time>2022-09-02T11:46:46.264Z</time>
</trkpt>
<trkpt lat="31.7861400" lon="35.0089800">
<ele>343.550018</ele>
<time>2022-09-02T11:46:46.264Z</time>
</trkpt>
<trkpt lat="31.7860500" lon="35.0089800">
<ele>343.820007</ele>
<time>2022-09-02T11:46:46.264Z</time>
</trkpt>
<trkpt lat="31.7858300" lon="35.0089900">
<ele>345.779999</ele>
<time>2022-09-02T11:46:46.264Z</time>
</trkpt>
<trkpt lat="31.7856300" lon="35.0090400">
<ele>344.590027</ele>
<time>2022-09-02T11:46:46.264Z</time>
</trkpt>
<trkpt lat="31.7854600" lon="35.0090900">
<ele>345.510010</ele>
<time>2022-09-02T11:46:46.264Z</time>
</trkpt>
<trkpt lat="31.7854000" lon="35.0091200">
<ele>346.479980</ele>
<time>2022-09-02T11:46:46.264Z</time>
</trkpt>
<trkpt lat="31.7853300" lon="35.0091600">
<ele>347.660004</ele>
<time>2022-09-02T11:46:46.264Z</time>
</trkpt>
<trkpt lat="31.7852700" lon="35.0092100">
<ele>348.919983</ele>
<time>2022-09-02T11:46:46.264Z</time>
</trkpt>
<trkpt lat="31.7851800" lon="35.0093100">
<ele>349.500000</ele>
<time>2022-09-02T11:46:46.264Z</time>
</trkpt>
<trkpt lat="31.7851000" lon="35.0094200">
<ele>350.540009</ele>
<time>2022-09-02T11:46:46.264Z</time>
</trkpt>
<trkpt lat="31.7850700" lon="35.0094700">
<ele>350.880005</ele>
<time>2022-09-02T11:46:46.264Z</time>
</trkpt>
<trkpt lat="31.7850400" lon="35.0095200">
<ele>351.070007</ele>
<time>2022-09-02T11:46:46.264Z</time>
</trkpt>
<trkpt lat="31.7850000" lon="35.0096300">
<ele>352.339996</ele>
<time>2022-09-02T11:46:46.264Z</time>
</trkpt>
<trkpt lat="31.7849800" lon="35.0097300">
<ele>353.649994</ele>
<time>2022-09-02T11:46:46.264Z</time>
</trkpt>
<trkpt lat="31.7849700" lon="35.0098000">
<ele>354.220001</ele>
<time>2022-09-02T11:46:46.264Z</time>
</trkpt>
<trkpt lat="31.7849600" lon="35.0098700">
<ele>354.809998</ele>
<time>2022-09-02T11:46:46.264Z</time>
</trkpt>
<trkpt lat="31.7849500" lon="35.0099500">
<ele>355.529999</ele>
<time>2022-09-02T11:46:46.265Z</time>
</trkpt>
<trkpt lat="31.7849400" lon="35.0100400">
<ele>356.209991</ele>
<time>2022-09-02T11:46:46.265Z</time>
</trkpt>
<trkpt lat="31.7849300" lon="35.0100700">
<ele>356.239990</ele>
<time>2022-09-02T11:46:46.265Z</time>
</trkpt>
<trkpt lat="31.7849200" lon="35.0101100">
<ele>356.350006</ele>
<time>2022-09-02T11:46:46.265Z</time>
</trkpt>
<trkpt lat="31.7849200" lon="35.0101700">
<ele>356.779999</ele>
<time>2022-09-02T11:46:46.265Z</time>
</trkpt>
<trkpt lat="31.7849100" lon="35.0102100">
<ele>356.889984</ele>
<time>2022-09-02T11:46:46.265Z</time>
</trkpt>
<trkpt lat="31.7849100" lon="35.0102700">
<ele>357.320007</ele>
<time>2022-09-02T11:46:46.265Z</time>
</trkpt>
<trkpt lat="31.7849100" lon="35.0103100">
<ele>357.149994</ele>
<time>2022-09-02T11:46:46.265Z</time>
</trkpt>
<trkpt lat="31.7849000" lon="35.0103900">
<ele>356.390015</ele>
<time>2022-09-02T11:46:46.265Z</time>
</trkpt>
<trkpt lat="31.7849000" lon="35.0104500">
<ele>355.959991</ele>
<time>2022-09-02T11:46:46.265Z</time>
</trkpt>
<trkpt lat="31.7848900" lon="35.0105100">
<ele>355.350006</ele>
<time>2022-09-02T11:46:46.265Z</time>
</trkpt>
<trkpt lat="31.7848900" lon="35.0106000">
<ele>355.179993</ele>
<time>2022-09-02T11:46:46.265Z</time>
</trkpt>
<trkpt lat="31.7849000" lon="35.0106600">
<ele>355.580017</ele>
<time>2022-09-02T11:46:46.265Z</time>
</trkpt>
<trkpt lat="31.7849000" lon="35.0107100">
<ele>355.760010</ele>
<time>2022-09-02T11:46:46.265Z</time>
</trkpt>
<trkpt lat="31.7849100" lon="35.0107900">
<ele>356.220001</ele>
<time>2022-09-02T11:46:46.265Z</time>
</trkpt>
<trkpt lat="31.7849200" lon="35.0108500">
<ele>356.720001</ele>
<time>2022-09-02T11:46:46.265Z</time>
</trkpt>
<trkpt lat="31.7849400" lon="35.0109000">
<ele>357.589996</ele>
<time>2022-09-02T11:46:46.265Z</time>
</trkpt>
<trkpt lat="31.7849800" lon="35.0110300">
<ele>359.709991</ele>
<time>2022-09-02T11:46:46.265Z</time>
</trkpt>
<trkpt lat="31.7850100" lon="35.0110900">
<ele>360.640015</ele>
<time>2022-09-02T11:46:46.265Z</time>
</trkpt>
<trkpt lat="31.7850400" lon="35.0111500">
<ele>359.440002</ele>
<time>2022-09-02T11:46:46.265Z</time>
</trkpt>
<trkpt lat="31.7851200" lon="35.0112500">
<ele>355.769989</ele>
<time>2022-09-02T11:46:46.265Z</time>
</trkpt>
<trkpt lat="31.7852100" lon="35.0113200">
<ele>352.709991</ele>
<time>2022-09-02T11:46:46.265Z</time>
</trkpt>
<trkpt lat="31.7853200" lon="35.0113400">
<ele>351.180023</ele>
<time>2022-09-02T11:46:46.265Z</time>
</trkpt>
<trkpt lat="31.7853600" lon="35.0113500">
<ele>350.899994</ele>
<time>2022-09-02T11:46:46.265Z</time>
</trkpt>
<trkpt lat="31.7854200" lon="35.0113500">
<ele>350.840027</ele>
<time>2022-09-02T11:46:46.265Z</time>
</trkpt>
<trkpt lat="31.7855300" lon="35.0113500">
<ele>350.730011</ele>
<time>2022-09-02T11:46:46.265Z</time>
</trkpt>
<trkpt lat="31.7855800" lon="35.0113500">
<ele>350.620026</ele>
<time>2022-09-02T11:46:46.265Z</time>
</trkpt>
<trkpt lat="31.7856400" lon="35.0113400">
<ele>350.629974</ele>
<time>2022-09-02T11:46:46.265Z</time>
</trkpt>
<trkpt lat="31.7857500" lon="35.0113200">
<ele>350.710022</ele>
<time>2022-09-02T11:46:46.266Z</time>
</trkpt>
<trkpt lat="31.7858000" lon="35.0113000">
<ele>351.000000</ele>
<time>2022-09-02T11:46:46.266Z</time>
</trkpt>
<trkpt lat="31.7858500" lon="35.0112800">
<ele>350.979980</ele>
<time>2022-09-02T11:46:46.266Z</time>
</trkpt>
<trkpt lat="31.7859500" lon="35.0112200">
<ele>350.220001</ele>
<time>2022-09-02T11:46:46.266Z</time>
</trkpt>
<trkpt lat="31.7859900" lon="35.0111800">
<ele>350.410004</ele>
<time>2022-09-02T11:46:46.266Z</time>
</trkpt>
<trkpt lat="31.7860400" lon="35.0111500">
<ele>350.230011</ele>
<time>2022-09-02T11:46:46.266Z</time>
</trkpt>
<trkpt lat="31.7861100" lon="35.0110900">
<ele>350.480011</ele>
<time>2022-09-02T11:46:46.266Z</time>
</trkpt>
<trkpt lat="31.7861400" lon="35.0110500">
<ele>351.010010</ele>
<time>2022-09-02T11:46:46.266Z</time>
</trkpt>
<trkpt lat="31.7861800" lon="35.0110200">
<ele>351.220001</ele>
<time>2022-09-02T11:46:46.266Z</time>
</trkpt>
<trkpt lat="31.7862400" lon="35.0109400">
<ele>352.299988</ele>
<time>2022-09-02T11:46:46.266Z</time>
</trkpt>
<trkpt lat="31.7863000" lon="35.0108800">
<ele>352.949982</ele>
<time>2022-09-02T11:46:46.266Z</time>
</trkpt>
<trkpt lat="31.7863300" lon="35.0108500">
<ele>353.280029</ele>
<time>2022-09-02T11:46:46.266Z</time>
</trkpt>
<trkpt lat="31.7863600" lon="35.0108200">
<ele>353.409973</ele>
<time>2022-09-02T11:46:46.266Z</time>
</trkpt>
<trkpt lat="31.7864500" lon="35.0107500">
<ele>352.760010</ele>
<time>2022-09-02T11:46:46.266Z</time>
</trkpt>
<trkpt lat="31.7864900" lon="35.0107100">
<ele>352.709991</ele>
<time>2022-09-02T11:46:46.266Z</time>
</trkpt>
<trkpt lat="31.7866000" lon="35.0106700">
<ele>352.160004</ele>
<time>2022-09-02T11:46:46.266Z</time>
</trkpt>
<trkpt lat="31.7866800" lon="35.0106600">
<ele>351.820007</ele>
<time>2022-09-02T11:46:46.266Z</time>
</trkpt>
<trkpt lat="31.7867200" lon="35.0106300">
<ele>352.599976</ele>
<time>2022-09-02T11:46:46.266Z</time>
</trkpt>
<trkpt lat="31.7867600" lon="35.0106100">
<ele>353.089996</ele>
<time>2022-09-02T11:46:46.266Z</time>
</trkpt>
<trkpt lat="31.7868100" lon="35.0105800">
<ele>353.649994</ele>
<time>2022-09-02T11:46:46.266Z</time>
</trkpt>
<trkpt lat="31.7868700" lon="35.0105700">
<ele>353.839996</ele>
<time>2022-09-02T11:46:46.266Z</time>
</trkpt>
<trkpt lat="31.7869200" lon="35.0105600">
<ele>353.960022</ele>
<time>2022-09-02T11:46:46.266Z</time>
</trkpt>
<trkpt lat="31.7869700" lon="35.0105500">
<ele>354.190002</ele>
<time>2022-09-02T11:46:46.266Z</time>
</trkpt>
<trkpt lat="31.7870100" lon="35.0105500">
<ele>354.479980</ele>
<time>2022-09-02T11:46:46.266Z</time>
</trkpt>
<trkpt lat="31.7870500" lon="35.0105500">
<ele>354.770020</ele>
<time>2022-09-02T11:46:46.266Z</time>
</trkpt>
<trkpt lat="31.7870900" lon="35.0105500">
<ele>355.059998</ele>
<time>2022-09-02T11:46:46.266Z</time>
</trkpt>
<trkpt lat="31.7871500" lon="35.0105500">
<ele>355.489990</ele>
<time>2022-09-02T11:46:46.266Z</time>
</trkpt>
<trkpt lat="31.7872000" lon="35.0105600">
<ele>355.729980</ele>
<time>2022-09-02T11:46:46.266Z</time>
</trkpt>
<trkpt lat="31.7872600" lon="35.0105600">
<ele>355.089996</ele>
<time>2022-09-02T11:46:46.266Z</time>
</trkpt>
<trkpt lat="31.7873100" lon="35.0105700">
<ele>353.860016</ele>
<time>2022-09-02T11:46:46.266Z</time>
</trkpt>
<trkpt lat="31.7873500" lon="35.0105700">
<ele>353.040009</ele>
<time>2022-09-02T11:46:46.267Z</time>
</trkpt>
<trkpt lat="31.7874100" lon="35.0105800">
<ele>351.740021</ele>
<time>2022-09-02T11:46:46.267Z</time>
</trkpt>
<trkpt lat="31.7874400" lon="35.0105900">
<ele>351.109985</ele>
<time>2022-09-02T11:46:46.267Z</time>
</trkpt>
<trkpt lat="31.7874900" lon="35.0105900">
<ele>350.179993</ele>
<time>2022-09-02T11:46:46.267Z</time>
</trkpt>
<trkpt lat="31.7875600" lon="35.0106000">
<ele>351.019989</ele>
<time>2022-09-02T11:46:46.267Z</time>
</trkpt>
<trkpt lat="31.7875900" lon="35.0106000">
<ele>351.529999</ele>
<time>2022-09-02T11:46:46.267Z</time>
</trkpt>
<trkpt lat="31.7876400" lon="35.0106000">
<ele>352.380005</ele>
<time>2022-09-02T11:46:46.267Z</time>
</trkpt>
<trkpt lat="31.7876800" lon="35.0106000">
<ele>353.059998</ele>
<time>2022-09-02T11:46:46.267Z</time>
</trkpt>
<trkpt lat="31.7877200" lon="35.0105900">
<ele>353.969971</ele>
<time>2022-09-02T11:46:46.267Z</time>
</trkpt>
<trkpt lat="31.7877800" lon="35.0105900">
<ele>354.990021</ele>
<time>2022-09-02T11:46:46.267Z</time>
</trkpt>
<trkpt lat="31.7878300" lon="35.0105800">
<ele>354.950012</ele>
<time>2022-09-02T11:46:46.267Z</time>
</trkpt>
<trkpt lat="31.7878700" lon="35.0105700">
<ele>354.950012</ele>
<time>2022-09-02T11:46:46.267Z</time>
</trkpt>
<trkpt lat="31.7879300" lon="35.0105600">
<ele>354.789978</ele>
<time>2022-09-02T11:46:46.267Z</time>
</trkpt>
<trkpt lat="31.7879800" lon="35.0105600">
<ele>354.439972</ele>
<time>2022-09-02T11:46:46.267Z</time>
</trkpt>
<trkpt lat="31.7880700" lon="35.0105500">
<ele>353.839996</ele>
<time>2022-09-02T11:46:46.267Z</time>
</trkpt>
<trkpt lat="31.7881300" lon="35.0105400">
<ele>352.890015</ele>
<time>2022-09-02T11:46:46.267Z</time>
</trkpt>
<trkpt lat="31.7882000" lon="35.0105300">
<ele>351.860016</ele>
<time>2022-09-02T11:46:46.267Z</time>
</trkpt>
<trkpt lat="31.7882600" lon="35.0105200">
<ele>351.140015</ele>
<time>2022-09-02T11:46:46.267Z</time>
</trkpt>
<trkpt lat="31.7883200" lon="35.0105100">
<ele>350.529999</ele>
<time>2022-09-02T11:46:46.267Z</time>
</trkpt>
<trkpt lat="31.7883900" lon="35.0105000">
<ele>350.470001</ele>
<time>2022-09-02T11:46:46.267Z</time>
</trkpt>
<trkpt lat="31.7884500" lon="35.0104900">
<ele>350.739990</ele>
<time>2022-09-02T11:46:46.267Z</time>
</trkpt>
<trkpt lat="31.7885000" lon="35.0104800">
<ele>351.149994</ele>
<time>2022-09-02T11:46:46.269Z</time>
</trkpt>
<trkpt lat="31.7885800" lon="35.0104600">
<ele>352.290009</ele>
<time>2022-09-02T11:46:46.269Z</time>
</trkpt>
<trkpt lat="31.7886600" lon="35.0104500">
<ele>352.639984</ele>
<time>2022-09-02T11:46:46.269Z</time>
</trkpt>
<trkpt lat="31.7887100" lon="35.0104500">
<ele>352.290009</ele>
<time>2022-09-02T11:46:46.270Z</time>
</trkpt>
<trkpt lat="31.7887700" lon="35.0104500">
<ele>351.869995</ele>
<time>2022-09-02T11:46:46.270Z</time>
</trkpt>
<trkpt lat="31.7888400" lon="35.0104600">
<ele>351.010010</ele>
<time>2022-09-02T11:46:46.270Z</time>
</trkpt>
<trkpt lat="31.7888900" lon="35.0104700">
<ele>350.480011</ele>
<time>2022-09-02T11:46:46.270Z</time>
</trkpt>
<trkpt lat="31.7889600" lon="35.0104800">
<ele>351.109985</ele>
<time>2022-09-02T11:46:46.270Z</time>
</trkpt>
<trkpt lat="31.7890100" lon="35.0105000">
<ele>351.339996</ele>
<time>2022-09-02T11:46:46.270Z</time>
</trkpt>
<trkpt lat="31.7890900" lon="35.0105300">
<ele>352.019989</ele>
<time>2022-09-02T11:46:46.270Z</time>
</trkpt>
<trkpt lat="31.7891400" lon="35.0105500">
<ele>352.590027</ele>
<time>2022-09-02T11:46:46.270Z</time>
</trkpt>
<trkpt lat="31.7892500" lon="35.0105700">
<ele>352.330017</ele>
<time>2022-09-02T11:46:46.270Z</time>
</trkpt>
<trkpt lat="31.7893000" lon="35.0105900">
<ele>351.709991</ele>
<time>2022-09-02T11:46:46.270Z</time>
</trkpt>
<trkpt lat="31.7893500" lon="35.0105900">
<ele>351.589996</ele>
<time>2022-09-02T11:46:46.270Z</time>
</trkpt>
<trkpt lat="31.7894600" lon="35.0106000">
<ele>351.029999</ele>
<time>2022-09-02T11:46:46.270Z</time>
</trkpt>
<trkpt lat="31.7895100" lon="35.0105900">
<ele>350.669983</ele>
<time>2022-09-02T11:46:46.270Z</time>
</trkpt>
<trkpt lat="31.7896100" lon="35.0105800">
<ele>349.770020</ele>
<time>2022-09-02T11:46:46.270Z</time>
</trkpt>
<trkpt lat="31.7896700" lon="35.0105700">
<ele>349.299988</ele>
<time>2022-09-02T11:46:46.270Z</time>
</trkpt>
<trkpt lat="31.7897900" lon="35.0105300">
<ele>348.700012</ele>
<time>2022-09-02T11:46:46.270Z</time>
</trkpt>
<trkpt lat="31.7898400" lon="35.0105000">
<ele>348.779999</ele>
<time>2022-09-02T11:46:46.270Z</time>
</trkpt>
<trkpt lat="31.7899600" lon="35.0104300">
<ele>349.399994</ele>
<time>2022-09-02T11:46:46.270Z</time>
</trkpt>
<trkpt lat="31.7900100" lon="35.0103900">
<ele>350.190002</ele>
<time>2022-09-02T11:46:46.270Z</time>
</trkpt>
<trkpt lat="31.7900500" lon="35.0103600">
<ele>351.050018</ele>
<time>2022-09-02T11:46:46.270Z</time>
</trkpt>
<trkpt lat="31.7901500" lon="35.0103100">
<ele>352.670013</ele>
<time>2022-09-02T11:46:46.270Z</time>
</trkpt>
<trkpt lat="31.7902400" lon="35.0102900">
<ele>353.519989</ele>
<time>2022-09-02T11:46:46.270Z</time>
</trkpt>
<trkpt lat="31.7902800" lon="35.0102800">
<ele>353.940002</ele>
<time>2022-09-02T11:46:46.270Z</time>
</trkpt>
<trkpt lat="31.7903200" lon="35.0102800">
<ele>354.090027</ele>
<time>2022-09-02T11:46:46.270Z</time>
</trkpt>
<trkpt lat="31.7903700" lon="35.0102800">
<ele>354.269989</ele>
<time>2022-09-02T11:46:46.270Z</time>
</trkpt>
<trkpt lat="31.7904500" lon="35.0102900">
<ele>354.319977</ele>
<time>2022-09-02T11:46:46.270Z</time>
</trkpt>
<trkpt lat="31.7905500" lon="35.0103200">
<ele>354.059998</ele>
<time>2022-09-02T11:46:46.270Z</time>
</trkpt>
<trkpt lat="31.7906500" lon="35.0103500">
<ele>351.399994</ele>
<time>2022-09-02T11:46:46.270Z</time>
</trkpt>
<trkpt lat="31.7907000" lon="35.0103700">
<ele>349.890015</ele>
<time>2022-09-02T11:46:46.270Z</time>
</trkpt>
<trkpt lat="31.7908100" lon="35.0104000">
<ele>346.859985</ele>
<time>2022-09-02T11:46:46.270Z</time>
</trkpt>
<trkpt lat="31.7909100" lon="35.0104300">
<ele>347.240021</ele>
<time>2022-09-02T11:46:46.270Z</time>
</trkpt>
<trkpt lat="31.7909600" lon="35.0104500">
<ele>347.840027</ele>
<time>2022-09-02T11:46:46.270Z</time>
</trkpt>
<trkpt lat="31.7910100" lon="35.0104600">
<ele>348.659973</ele>
<time>2022-09-02T11:46:46.271Z</time>
</trkpt>
<trkpt lat="31.7910700" lon="35.0104800">
<ele>349.510010</ele>
<time>2022-09-02T11:46:46.271Z</time>
</trkpt>
<trkpt lat="31.7911700" lon="35.0105000">
<ele>351.359985</ele>
<time>2022-09-02T11:46:46.271Z</time>
</trkpt>
<trkpt lat="31.7912200" lon="35.0105200">
<ele>352.089996</ele>
<time>2022-09-02T11:46:46.271Z</time>
</trkpt>
<trkpt lat="31.7913200" lon="35.0105400">
<ele>353.880005</ele>
<time>2022-09-02T11:46:46.271Z</time>
</trkpt>
<trkpt lat="31.7914300" lon="35.0105500">
<ele>355.129974</ele>
<time>2022-09-02T11:46:46.271Z</time>
</trkpt>
<trkpt lat="31.7915300" lon="35.0105800">
<ele>354.250000</ele>
<time>2022-09-02T11:46:46.271Z</time>
</trkpt>
<trkpt lat="31.7915800" lon="35.0105900">
<ele>354.019989</ele>
<time>2022-09-02T11:46:46.271Z</time>
</trkpt>
<trkpt lat="31.7916300" lon="35.0106100">
<ele>353.549988</ele>
<time>2022-09-02T11:46:46.271Z</time>
</trkpt>
<trkpt lat="31.7917300" lon="35.0106400">
<ele>352.489990</ele>
<time>2022-09-02T11:46:46.271Z</time>
</trkpt>
<trkpt lat="31.7918400" lon="35.0106700">
<ele>351.130005</ele>
<time>2022-09-02T11:46:46.271Z</time>
</trkpt>
<trkpt lat="31.7919400" lon="35.0107000">
<ele>349.899994</ele>
<time>2022-09-02T11:46:46.271Z</time>
</trkpt>
<trkpt lat="31.7920400" lon="35.0107500">
<ele>349.519989</ele>
<time>2022-09-02T11:46:46.271Z</time>
</trkpt>
<trkpt lat="31.7920900" lon="35.0107700">
<ele>349.579987</ele>
<time>2022-09-02T11:46:46.271Z</time>
</trkpt>
<trkpt lat="31.7921400" lon="35.0107900">
<ele>349.720001</ele>
<time>2022-09-02T11:46:46.271Z</time>
</trkpt>
<trkpt lat="31.7922400" lon="35.0108300">
<ele>349.970001</ele>
<time>2022-09-02T11:46:46.271Z</time>
</trkpt>
<trkpt lat="31.7923600" lon="35.0109000">
<ele>349.500000</ele>
<time>2022-09-02T11:46:46.271Z</time>
</trkpt>
<trkpt lat="31.7924700" lon="35.0110000">
<ele>349.579987</ele>
<time>2022-09-02T11:46:46.271Z</time>
</trkpt>
<trkpt lat="31.7925200" lon="35.0110500">
<ele>349.729980</ele>
<time>2022-09-02T11:46:46.271Z</time>
</trkpt>
<trkpt lat="31.7925900" lon="35.0111100">
<ele>349.989990</ele>
<time>2022-09-02T11:46:46.271Z</time>
</trkpt>
<trkpt lat="31.7926400" lon="35.0111200">
<ele>350.179993</ele>
<time>2022-09-02T11:46:46.271Z</time>
</trkpt>
<trkpt lat="31.7926700" lon="35.0111200">
<ele>350.169983</ele>
<time>2022-09-02T11:46:46.271Z</time>
</trkpt>
<trkpt lat="31.7927300" lon="35.0110900">
<ele>349.739990</ele>
<time>2022-09-02T11:46:46.271Z</time>
</trkpt>
<trkpt lat="31.7928400" lon="35.0110700">
<ele>348.929993</ele>
<time>2022-09-02T11:46:46.271Z</time>
</trkpt>
<trkpt lat="31.7929100" lon="35.0110600">
<ele>348.220001</ele>
<time>2022-09-02T11:46:46.271Z</time>
</trkpt>
<trkpt lat="31.7930300" lon="35.0110600">
<ele>347.279999</ele>
<time>2022-09-02T11:46:46.271Z</time>
</trkpt>
<trkpt lat="31.7931400" lon="35.0110800">
<ele>345.820007</ele>
<time>2022-09-02T11:46:46.271Z</time>
</trkpt>
<trkpt lat="31.7932800" lon="35.0111300">
<ele>343.380005</ele>
<time>2022-09-02T11:46:46.271Z</time>
</trkpt>
<trkpt lat="31.7934200" lon="35.0112000">
<ele>342.539978</ele>
<time>2022-09-02T11:46:46.271Z</time>
</trkpt>
<trkpt lat="31.7935500" lon="35.0112500">
<ele>342.720001</ele>
<time>2022-09-02T11:46:46.272Z</time>
</trkpt>
<trkpt lat="31.7936500" lon="35.0112600">
<ele>342.940002</ele>
<time>2022-09-02T11:46:46.272Z</time>
</trkpt>
<trkpt lat="31.7936900" lon="35.0112600">
<ele>343.210022</ele>
<time>2022-09-02T11:46:46.272Z</time>
</trkpt>
<trkpt lat="31.7937400" lon="35.0112300">
<ele>343.200012</ele>
<time>2022-09-02T11:46:46.272Z</time>
</trkpt>
<trkpt lat="31.7937600" lon="35.0111800">
<ele>342.850006</ele>
<time>2022-09-02T11:46:46.272Z</time>
</trkpt>
<trkpt lat="31.7937700" lon="35.0111200">
<ele>342.369995</ele>
<time>2022-09-02T11:46:46.272Z</time>
</trkpt>
<trkpt lat="31.7937900" lon="35.0110900">
<ele>342.660004</ele>
<time>2022-09-02T11:46:46.272Z</time>
</trkpt>
<trkpt lat="31.7938600" lon="35.0110500">
<ele>343.649994</ele>
<time>2022-09-02T11:46:46.272Z</time>
</trkpt>
<trkpt lat="31.7938800" lon="35.0110100">
<ele>343.909973</ele>
<time>2022-09-02T11:46:46.272Z</time>
</trkpt>
<trkpt lat="31.7939200" lon="35.0109900">
<ele>344.000000</ele>
<time>2022-09-02T11:46:46.272Z</time>
</trkpt>
<trkpt lat="31.7939500" lon="35.0109800">
<ele>344.000000</ele>
<time>2022-09-02T11:46:46.272Z</time>
</trkpt>
<trkpt lat="31.7940000" lon="35.0109700">
<ele>344.000000</ele>
<time>2022-09-02T11:46:46.272Z</time>
</trkpt>
<trkpt lat="31.7940600" lon="35.0109700">
<ele>344.000000</ele>
<time>2022-09-02T11:46:46.272Z</time>
</trkpt>
<trkpt lat="31.7941300" lon="35.0109700">
<ele>344.000000</ele>
<time>2022-09-02T11:46:46.272Z</time>
</trkpt>
<trkpt lat="31.7941800" lon="35.0109700">
<ele>343.809998</ele>
<time>2022-09-02T11:46:46.272Z</time>
</trkpt>
<trkpt lat="31.7942400" lon="35.0109700">
<ele>342.950012</ele>
<time>2022-09-02T11:46:46.272Z</time>
</trkpt>
<trkpt lat="31.7942800" lon="35.0109800">
<ele>342.350006</ele>
<time>2022-09-02T11:46:46.272Z</time>
</trkpt>
<trkpt lat="31.7943500" lon="35.0109900">
<ele>341.279999</ele>
<time>2022-09-02T11:46:46.272Z</time>
</trkpt>
<trkpt lat="31.7944700" lon="35.0110000">
<ele>340.300018</ele>
<time>2022-09-02T11:46:46.272Z</time>
</trkpt>
<trkpt lat="31.7946100" lon="35.0110100">
<ele>343.029999</ele>
<time>2022-09-02T11:46:46.272Z</time>
</trkpt>
<trkpt lat="31.7946900" lon="35.0110200">
<ele>344.679993</ele>
<time>2022-09-02T11:46:46.272Z</time>
</trkpt>
<trkpt lat="31.7947800" lon="35.0110300">
<ele>344.290009</ele>
<time>2022-09-02T11:46:46.272Z</time>
</trkpt>
<trkpt lat="31.7948500" lon="35.0110400">
<ele>342.960022</ele>
<time>2022-09-02T11:46:46.272Z</time>
</trkpt>
<trkpt lat="31.7950200" lon="35.0110600">
<ele>339.809998</ele>
<time>2022-09-02T11:46:46.272Z</time>
</trkpt>
<trkpt lat="31.7951500" lon="35.0110900">
<ele>338.460022</ele>
<time>2022-09-02T11:46:46.272Z</time>
</trkpt>
<trkpt lat="31.7952900" lon="35.0111800">
<ele>336.679993</ele>
<time>2022-09-02T11:46:46.272Z</time>
</trkpt>
<trkpt lat="31.7953500" lon="35.0112400">
<ele>335.910004</ele>
<time>2022-09-02T11:46:46.272Z</time>
</trkpt>
<trkpt lat="31.7954100" lon="35.0112900">
<ele>334.959991</ele>
<time>2022-09-02T11:46:46.272Z</time>
</trkpt>
<trkpt lat="31.7954900" lon="35.0113400">
<ele>333.519989</ele>
<time>2022-09-02T11:46:46.272Z</time>
</trkpt>
<trkpt lat="31.7956400" lon="35.0114300">
<ele>329.619995</ele>
<time>2022-09-02T11:46:46.272Z</time>
</trkpt>
<trkpt lat="31.7957200" lon="35.0114600">
<ele>327.500000</ele>
<time>2022-09-02T11:46:46.273Z</time>
</trkpt>
<trkpt lat="31.7958700" lon="35.0114900">
<ele>323.929993</ele>
<time>2022-09-02T11:46:46.273Z</time>
</trkpt>
<trkpt lat="31.7959500" lon="35.0115000">
<ele>322.330017</ele>
<time>2022-09-02T11:46:46.273Z</time>
</trkpt>
<trkpt lat="31.7960800" lon="35.0115000">
<ele>319.800018</ele>
<time>2022-09-02T11:46:46.273Z</time>
</trkpt>
<trkpt lat="31.7961500" lon="35.0114900">
<ele>319.309998</ele>
<time>2022-09-02T11:46:46.273Z</time>
</trkpt>
<trkpt lat="31.7962800" lon="35.0114800">
<ele>319.549988</ele>
<time>2022-09-02T11:46:46.273Z</time>
</trkpt>
<trkpt lat="31.7963500" lon="35.0114700">
<ele>319.769989</ele>
<time>2022-09-02T11:46:46.273Z</time>
</trkpt>
<trkpt lat="31.7964800" lon="35.0114600">
<ele>319.399994</ele>
<time>2022-09-02T11:46:46.273Z</time>
</trkpt>
<trkpt lat="31.7966500" lon="35.0114500">
<ele>318.449982</ele>
<time>2022-09-02T11:46:46.273Z</time>
</trkpt>
<trkpt lat="31.7968100" lon="35.0114400">
<ele>316.379974</ele>
<time>2022-09-02T11:46:46.273Z</time>
</trkpt>
<trkpt lat="31.7969900" lon="35.0114000">
<ele>315.050018</ele>
<time>2022-09-02T11:46:46.273Z</time>
</trkpt>
<trkpt lat="31.7971800" lon="35.0113000">
<ele>318.779999</ele>
<time>2022-09-02T11:46:46.273Z</time>
</trkpt>
<trkpt lat="31.7972600" lon="35.0112600">
<ele>319.470001</ele>
<time>2022-09-02T11:46:46.273Z</time>
</trkpt>
<trkpt lat="31.7974100" lon="35.0111900">
<ele>317.409973</ele>
<time>2022-09-02T11:46:46.273Z</time>
</trkpt>
<trkpt lat="31.7974800" lon="35.0111900">
<ele>315.540009</ele>
<time>2022-09-02T11:46:46.273Z</time>
</trkpt>
<trkpt lat="31.7975500" lon="35.0111900">
<ele>314.950012</ele>
<time>2022-09-02T11:46:46.273Z</time>
</trkpt>
<trkpt lat="31.7976900" lon="35.0112000">
<ele>314.779999</ele>
<time>2022-09-02T11:46:46.273Z</time>
</trkpt>
<trkpt lat="31.7977600" lon="35.0112300">
<ele>314.600006</ele>
<time>2022-09-02T11:46:46.273Z</time>
</trkpt>
<trkpt lat="31.7978300" lon="35.0112700">
<ele>314.459991</ele>
<time>2022-09-02T11:46:46.273Z</time>
</trkpt>
<trkpt lat="31.7979800" lon="35.0113700">
<ele>314.700012</ele>
<time>2022-09-02T11:46:46.273Z</time>
</trkpt>
<trkpt lat="31.7980800" lon="35.0114000">
<ele>314.610016</ele>
<time>2022-09-02T11:46:46.273Z</time>
</trkpt>
<trkpt lat="31.7982500" lon="35.0114600">
<ele>311.950012</ele>
<time>2022-09-02T11:46:46.273Z</time>
</trkpt>
<trkpt lat="31.7983400" lon="35.0114900">
<ele>310.520020</ele>
<time>2022-09-02T11:46:46.273Z</time>
</trkpt>
<trkpt lat="31.7985100" lon="35.0116200">
<ele>309.940002</ele>
<time>2022-09-02T11:46:46.273Z</time>
</trkpt>
<trkpt lat="31.7986700" lon="35.0117500">
<ele>312.579987</ele>
<time>2022-09-02T11:46:46.273Z</time>
</trkpt>
<trkpt lat="31.7988100" lon="35.0118900">
<ele>313.540009</ele>
<time>2022-09-02T11:46:46.273Z</time>
</trkpt>
<trkpt lat="31.7988700" lon="35.0119500">
<ele>313.009979</ele>
<time>2022-09-02T11:46:46.273Z</time>
</trkpt>
<trkpt lat="31.7990200" lon="35.0120700">
<ele>310.529999</ele>
<time>2022-09-02T11:46:46.273Z</time>
</trkpt>
<trkpt lat="31.7991600" lon="35.0121800">
<ele>307.000000</ele>
<time>2022-09-02T11:46:46.273Z</time>
</trkpt>
<trkpt lat="31.7992400" lon="35.0122400">
<ele>304.279999</ele>
<time>2022-09-02T11:46:46.273Z</time>
</trkpt>
<trkpt lat="31.7993200" lon="35.0122800">
<ele>301.880005</ele>
<time>2022-09-02T11:46:46.274Z</time>
</trkpt>
<trkpt lat="31.7994700" lon="35.0122900">
<ele>298.850006</ele>
<time>2022-09-02T11:46:46.274Z</time>
</trkpt>
<trkpt lat="31.7995500" lon="35.0123000">
<ele>297.250000</ele>
<time>2022-09-02T11:46:46.274Z</time>
</trkpt>
<trkpt lat="31.7996400" lon="35.0123100">
<ele>295.489990</ele>
<time>2022-09-02T11:46:46.274Z</time>
</trkpt>
<trkpt lat="31.7997200" lon="35.0123200">
<ele>293.929993</ele>
<time>2022-09-02T11:46:46.274Z</time>
</trkpt>
<trkpt lat="31.7998200" lon="35.0123200">
<ele>293.989990</ele>
<time>2022-09-02T11:46:46.274Z</time>
</trkpt>
<trkpt lat="31.8000200" lon="35.0123200">
<ele>294.160004</ele>
<time>2022-09-02T11:46:46.274Z</time>
</trkpt>
<trkpt lat="31.8002100" lon="35.0123100">
<ele>294.190002</ele>
<time>2022-09-02T11:46:46.274Z</time>
</trkpt>
<trkpt lat="31.8004100" lon="35.0123000">
<ele>291.649994</ele>
<time>2022-09-02T11:46:46.274Z</time>
</trkpt>
<trkpt lat="31.8006000" lon="35.0122800">
<ele>289.209991</ele>
<time>2022-09-02T11:46:46.274Z</time>
</trkpt>
<trkpt lat="31.8007000" lon="35.0122700">
<ele>290.210022</ele>
<time>2022-09-02T11:46:46.274Z</time>
</trkpt>
<trkpt lat="31.8008900" lon="35.0122500">
<ele>290.309998</ele>
<time>2022-09-02T11:46:46.274Z</time>
</trkpt>
<trkpt lat="31.8010700" lon="35.0122200">
<ele>286.080017</ele>
<time>2022-09-02T11:46:46.274Z</time>
</trkpt>
<trkpt lat="31.8011500" lon="35.0122000">
<ele>285.529999</ele>
<time>2022-09-02T11:46:46.274Z</time>
</trkpt>
<trkpt lat="31.8012300" lon="35.0121700">
<ele>286.070007</ele>
<time>2022-09-02T11:46:46.274Z</time>
</trkpt>
<trkpt lat="31.8013900" lon="35.0120900">
<ele>286.899994</ele>
<time>2022-09-02T11:46:46.274Z</time>
</trkpt>
<trkpt lat="31.8014600" lon="35.0120400">
<ele>287.109985</ele>
<time>2022-09-02T11:46:46.274Z</time>
</trkpt>
<trkpt lat="31.8015300" lon="35.0119800">
<ele>287.470001</ele>
<time>2022-09-02T11:46:46.274Z</time>
</trkpt>
<trkpt lat="31.8016500" lon="35.0118600">
<ele>287.729980</ele>
<time>2022-09-02T11:46:46.274Z</time>
</trkpt>
<trkpt lat="31.8017000" lon="35.0118000">
<ele>287.440002</ele>
<time>2022-09-02T11:46:46.274Z</time>
</trkpt>
<trkpt lat="31.8017500" lon="35.0117400">
<ele>287.109985</ele>
<time>2022-09-02T11:46:46.274Z</time>
</trkpt>
<trkpt lat="31.8018000" lon="35.0116900">
<ele>286.830017</ele>
<time>2022-09-02T11:46:46.274Z</time>
</trkpt>
<trkpt lat="31.8019300" lon="35.0116000">
<ele>285.660004</ele>
<time>2022-09-02T11:46:46.274Z</time>
</trkpt>
<trkpt lat="31.8020800" lon="35.0115100">
<ele>285.429993</ele>
<time>2022-09-02T11:46:46.274Z</time>
</trkpt>
<trkpt lat="31.8022300" lon="35.0114200">
<ele>285.489990</ele>
<time>2022-09-02T11:46:46.274Z</time>
</trkpt>
<trkpt lat="31.8023500" lon="35.0112800">
<ele>283.170013</ele>
<time>2022-09-02T11:46:46.274Z</time>
</trkpt>
<trkpt lat="31.8024600" lon="35.0111200">
<ele>280.980011</ele>
<time>2022-09-02T11:46:46.274Z</time>
</trkpt>
<trkpt lat="31.8025100" lon="35.0110400">
<ele>281.180023</ele>
<time>2022-09-02T11:46:46.274Z</time>
</trkpt>
<trkpt lat="31.8026000" lon="35.0108800">
<ele>281.699982</ele>
<time>2022-09-02T11:46:46.274Z</time>
</trkpt>
<trkpt lat="31.8026800" lon="35.0107400">
<ele>279.720001</ele>
<time>2022-09-02T11:46:46.274Z</time>
</trkpt>
<trkpt lat="31.8027200" lon="35.0105900">
<ele>278.149994</ele>
<time>2022-09-02T11:46:46.275Z</time>
</trkpt>
<trkpt lat="31.8027300" lon="35.0104200">
<ele>277.640015</ele>
<time>2022-09-02T11:46:46.275Z</time>
</trkpt>
<trkpt lat="31.8027300" lon="35.0103400">
<ele>277.589996</ele>
<time>2022-09-02T11:46:46.275Z</time>
</trkpt>
<trkpt lat="31.8027200" lon="35.0101700">
<ele>277.399994</ele>
<time>2022-09-02T11:46:46.275Z</time>
</trkpt>
<trkpt lat="31.8027000" lon="35.0100800">
<ele>277.609985</ele>
<time>2022-09-02T11:46:46.275Z</time>
</trkpt>
<trkpt lat="31.8026800" lon="35.0099200">
<ele>277.920013</ele>
<time>2022-09-02T11:46:46.275Z</time>
</trkpt>
<trkpt lat="31.8026700" lon="35.0098400">
<ele>278.330017</ele>
<time>2022-09-02T11:46:46.275Z</time>
</trkpt>
<trkpt lat="31.8026700" lon="35.0096900">
<ele>278.540009</ele>
<time>2022-09-02T11:46:46.275Z</time>
</trkpt>
<trkpt lat="31.8026700" lon="35.0096100">
<ele>278.649994</ele>
<time>2022-09-02T11:46:46.275Z</time>
</trkpt>
<trkpt lat="31.8026700" lon="35.0094800">
<ele>278.829987</ele>
<time>2022-09-02T11:46:46.275Z</time>
</trkpt>
<trkpt lat="31.8026700" lon="35.0094100">
<ele>278.709991</ele>
<time>2022-09-02T11:46:46.275Z</time>
</trkpt>
<trkpt lat="31.8026700" lon="35.0092900">
<ele>278.110016</ele>
<time>2022-09-02T11:46:46.275Z</time>
</trkpt>
<trkpt lat="31.8026700" lon="35.0091800">
<ele>277.559998</ele>
<time>2022-09-02T11:46:46.275Z</time>
</trkpt>
<trkpt lat="31.8026700" lon="35.0090800">
<ele>277.300018</ele>
<time>2022-09-02T11:46:46.275Z</time>
</trkpt>
<trkpt lat="31.8026600" lon="35.0090000">
<ele>277.470001</ele>
<time>2022-09-02T11:46:46.275Z</time>
</trkpt>
<trkpt lat="31.8026300" lon="35.0089100">
<ele>278.359985</ele>
<time>2022-09-02T11:46:46.275Z</time>
</trkpt>
<trkpt lat="31.8026000" lon="35.0088400">
<ele>279.239990</ele>
<time>2022-09-02T11:46:46.275Z</time>
</trkpt>
<trkpt lat="31.8025900" lon="35.0088000">
<ele>279.429993</ele>
<time>2022-09-02T11:46:46.275Z</time>
</trkpt>
<trkpt lat="31.8025500" lon="35.0087600">
<ele>280.519989</ele>
<time>2022-09-02T11:46:46.275Z</time>
</trkpt>
<trkpt lat="31.8025400" lon="35.0087100">
<ele>280.549988</ele>
<time>2022-09-02T11:46:46.275Z</time>
</trkpt>
<trkpt lat="31.8025300" lon="35.0086500">
<ele>280.480011</ele>
<time>2022-09-02T11:46:46.275Z</time>
</trkpt>
<trkpt lat="31.8025300" lon="35.0086100">
<ele>280.239990</ele>
<time>2022-09-02T11:46:46.275Z</time>
</trkpt>
<trkpt lat="31.8025200" lon="35.0085500">
<ele>280.309998</ele>
<time>2022-09-02T11:46:46.275Z</time>
</trkpt>
<trkpt lat="31.8025200" lon="35.0085100">
<ele>280.179993</ele>
<time>2022-09-02T11:46:46.275Z</time>
</trkpt>
<trkpt lat="31.8025200" lon="35.0084200">
<ele>279.910004</ele>
<time>2022-09-02T11:46:46.276Z</time>
</trkpt>
<trkpt lat="31.8025200" lon="35.0083600">
<ele>279.720001</ele>
<time>2022-09-02T11:46:46.276Z</time>
</trkpt>
<trkpt lat="31.8025200" lon="35.0083000">
<ele>279.880005</ele>
<time>2022-09-02T11:46:46.276Z</time>
</trkpt>
<trkpt lat="31.8025300" lon="35.0082400">
<ele>280.130005</ele>
<time>2022-09-02T11:46:46.276Z</time>
</trkpt>
<trkpt lat="31.8025500" lon="35.0081900">
<ele>280.130005</ele>
<time>2022-09-02T11:46:46.276Z</time>
</trkpt>
<trkpt lat="31.8025900" lon="35.0081600">
<ele>279.630005</ele>
<time>2022-09-02T11:46:46.276Z</time>
</trkpt>
<trkpt lat="31.8026500" lon="35.0081200">
<ele>278.839996</ele>
<time>2022-09-02T11:46:46.276Z</time>
</trkpt>
<trkpt lat="31.8027100" lon="35.0080900">
<ele>277.970001</ele>
<time>2022-09-02T11:46:46.276Z</time>
</trkpt>
<trkpt lat="31.8027800" lon="35.0080500">
<ele>276.959991</ele>
<time>2022-09-02T11:46:46.276Z</time>
</trkpt>
<trkpt lat="31.8028900" lon="35.0080000">
<ele>274.820007</ele>
<time>2022-09-02T11:46:46.276Z</time>
</trkpt>
<trkpt lat="31.8029500" lon="35.0079900">
<ele>273.609985</ele>
<time>2022-09-02T11:46:46.276Z</time>
</trkpt>
<trkpt lat="31.8030600" lon="35.0079500">
<ele>271.250000</ele>
<time>2022-09-02T11:46:46.276Z</time>
</trkpt>
<trkpt lat="31.8031600" lon="35.0079000">
<ele>271.000000</ele>
<time>2022-09-02T11:46:46.276Z</time>
</trkpt>
<trkpt lat="31.8032200" lon="35.0078700">
<ele>270.660004</ele>
<time>2022-09-02T11:46:46.276Z</time>
</trkpt>
<trkpt lat="31.8033300" lon="35.0078200">
<ele>269.770020</ele>
<time>2022-09-02T11:46:46.276Z</time>
</trkpt>
<trkpt lat="31.8033900" lon="35.0078000">
<ele>269.369995</ele>
<time>2022-09-02T11:46:46.276Z</time>
</trkpt>
<trkpt lat="31.8035100" lon="35.0077400">
<ele>268.519989</ele>
<time>2022-09-02T11:46:46.276Z</time>
</trkpt>
<trkpt lat="31.8035700" lon="35.0077100">
<ele>267.920013</ele>
<time>2022-09-02T11:46:46.276Z</time>
</trkpt>
<trkpt lat="31.8036300" lon="35.0076800">
<ele>267.149994</ele>
<time>2022-09-02T11:46:46.276Z</time>
</trkpt>
<trkpt lat="31.8037500" lon="35.0076100">
<ele>265.579987</ele>
<time>2022-09-02T11:46:46.276Z</time>
</trkpt>
<trkpt lat="31.8038000" lon="35.0075700">
<ele>264.919983</ele>
<time>2022-09-02T11:46:46.276Z</time>
</trkpt>
<trkpt lat="31.8038600" lon="35.0075300">
<ele>264.350006</ele>
<time>2022-09-02T11:46:46.276Z</time>
</trkpt>
<trkpt lat="31.8039100" lon="35.0074900">
<ele>264.040009</ele>
<time>2022-09-02T11:46:46.276Z</time>
</trkpt>
<trkpt lat="31.8039700" lon="35.0074500">
<ele>264.109985</ele>
<time>2022-09-02T11:46:46.276Z</time>
</trkpt>
<trkpt lat="31.8040900" lon="35.0073800">
<ele>264.290009</ele>
<time>2022-09-02T11:46:46.276Z</time>
</trkpt>
<trkpt lat="31.8041500" lon="35.0073400">
<ele>264.359985</ele>
<time>2022-09-02T11:46:46.276Z</time>
</trkpt>
<trkpt lat="31.8042100" lon="35.0073000">
<ele>264.119995</ele>
<time>2022-09-02T11:46:46.276Z</time>
</trkpt>
<trkpt lat="31.8043000" lon="35.0071700">
<ele>263.709991</ele>
<time>2022-09-02T11:46:46.277Z</time>
</trkpt>
<trkpt lat="31.8043900" lon="35.0070400">
<ele>263.850006</ele>
<time>2022-09-02T11:46:46.277Z</time>
</trkpt>
<trkpt lat="31.8044900" lon="35.0069200">
<ele>263.440002</ele>
<time>2022-09-02T11:46:46.277Z</time>
</trkpt>
<trkpt lat="31.8045900" lon="35.0068000">
<ele>262.940002</ele>
<time>2022-09-02T11:46:46.277Z</time>
</trkpt>
<trkpt lat="31.8046800" lon="35.0066800">
<ele>262.619995</ele>
<time>2022-09-02T11:46:46.277Z</time>
</trkpt>
<trkpt lat="31.8047200" lon="35.0066200">
<ele>262.709991</ele>
<time>2022-09-02T11:46:46.277Z</time>
</trkpt>
<trkpt lat="31.8047900" lon="35.0064900">
<ele>264.079987</ele>
<time>2022-09-02T11:46:46.277Z</time>
</trkpt>
<trkpt lat="31.8048200" lon="35.0064200">
<ele>264.610016</ele>
<time>2022-09-02T11:46:46.277Z</time>
</trkpt>
<trkpt lat="31.8048600" lon="35.0062900">
<ele>265.049988</ele>
<time>2022-09-02T11:46:46.277Z</time>
</trkpt>
<trkpt lat="31.8048800" lon="35.0062300">
<ele>265.119995</ele>
<time>2022-09-02T11:46:46.277Z</time>
</trkpt>
<trkpt lat="31.8049000" lon="35.0061600">
<ele>265.200012</ele>
<time>2022-09-02T11:46:46.277Z</time>
</trkpt>
<trkpt lat="31.8049000" lon="35.0060300">
<ele>265.440002</ele>
<time>2022-09-02T11:46:46.277Z</time>
</trkpt>
<trkpt lat="31.8049100" lon="35.0058700">
<ele>265.299988</ele>
<time>2022-09-02T11:46:46.277Z</time>
</trkpt>
<trkpt lat="31.8049100" lon="35.0058200">
<ele>265.329987</ele>
<time>2022-09-02T11:46:46.277Z</time>
</trkpt>
<trkpt lat="31.8049100" lon="35.0057600">
<ele>265.470001</ele>
<time>2022-09-02T11:46:46.277Z</time>
</trkpt>
<trkpt lat="31.8049100" lon="35.0057100">
<ele>265.579987</ele>
<time>2022-09-02T11:46:46.277Z</time>
</trkpt>
<trkpt lat="31.8049100" lon="35.0056200">
<ele>265.790009</ele>
<time>2022-09-02T11:46:46.277Z</time>
</trkpt>
<trkpt lat="31.8049000" lon="35.0055400">
<ele>266.179993</ele>
<time>2022-09-02T11:46:46.277Z</time>
</trkpt>
<trkpt lat="31.8049000" lon="35.0054900">
<ele>266.239990</ele>
<time>2022-09-02T11:46:46.277Z</time>
</trkpt>
<trkpt lat="31.8049000" lon="35.0054300">
<ele>266.320007</ele>
<time>2022-09-02T11:46:46.277Z</time>
</trkpt>
<trkpt lat="31.8049000" lon="35.0053800">
<ele>266.389984</ele>
<time>2022-09-02T11:46:46.277Z</time>
</trkpt>
<trkpt lat="31.8048900" lon="35.0053100">
<ele>266.730011</ele>
<time>2022-09-02T11:46:46.277Z</time>
</trkpt>
<trkpt lat="31.8048900" lon="35.0052200">
<ele>266.770020</ele>
<time>2022-09-02T11:46:46.277Z</time>
</trkpt>
<trkpt lat="31.8048900" lon="35.0051300">
<ele>266.770020</ele>
<time>2022-09-02T11:46:46.277Z</time>
</trkpt>
<trkpt lat="31.8048800" lon="35.0050800">
<ele>267.019989</ele>
<time>2022-09-02T11:46:46.277Z</time>
</trkpt>
<trkpt lat="31.8048700" lon="35.0050100">
<ele>267.279999</ele>
<time>2022-09-02T11:46:46.277Z</time>
</trkpt>
<trkpt lat="31.8048600" lon="35.0049700">
<ele>267.639984</ele>
<time>2022-09-02T11:46:46.277Z</time>
</trkpt>
<trkpt lat="31.8048500" lon="35.0049100">
<ele>268.080017</ele>
<time>2022-09-02T11:46:46.278Z</time>
</trkpt>
<trkpt lat="31.8048500" lon="35.0048600">
<ele>268.239990</ele>
<time>2022-09-02T11:46:46.278Z</time>
</trkpt>
<trkpt lat="31.8048500" lon="35.0047700">
<ele>268.540009</ele>
<time>2022-09-02T11:46:46.278Z</time>
</trkpt>
<trkpt lat="31.8048600" lon="35.0047100">
<ele>268.760010</ele>
<time>2022-09-02T11:46:46.278Z</time>
</trkpt>
<trkpt lat="31.8048800" lon="35.0046200">
<ele>270.260010</ele>
<time>2022-09-02T11:46:46.278Z</time>
</trkpt>
<trkpt lat="31.8049200" lon="35.0045300">
<ele>271.690002</ele>
<time>2022-09-02T11:46:46.278Z</time>
</trkpt>
<trkpt lat="31.8049500" lon="35.0044800">
<ele>272.529999</ele>
<time>2022-09-02T11:46:46.278Z</time>
</trkpt>
<trkpt lat="31.8050200" lon="35.0044200">
<ele>273.209991</ele>
<time>2022-09-02T11:46:46.278Z</time>
</trkpt>
<trkpt lat="31.8050700" lon="35.0044000">
<ele>272.960022</ele>
<time>2022-09-02T11:46:46.278Z</time>
</trkpt>
<trkpt lat="31.8051300" lon="35.0043800">
<ele>272.540009</ele>
<time>2022-09-02T11:46:46.278Z</time>
</trkpt>
<trkpt lat="31.8051800" lon="35.0043700">
<ele>272.049988</ele>
<time>2022-09-02T11:46:46.278Z</time>
</trkpt>
<trkpt lat="31.8052500" lon="35.0043600">
<ele>271.269989</ele>
<time>2022-09-02T11:46:46.278Z</time>
</trkpt>
<trkpt lat="31.8052900" lon="35.0043400">
<ele>270.970001</ele>
<time>2022-09-02T11:46:46.278Z</time>
</trkpt>
<trkpt lat="31.8053400" lon="35.0043200">
<ele>270.630005</ele>
<time>2022-09-02T11:46:46.278Z</time>
</trkpt>
<trkpt lat="31.8053800" lon="35.0043100">
<ele>270.320007</ele>
<time>2022-09-02T11:46:46.278Z</time>
</trkpt>
<trkpt lat="31.8054300" lon="35.0042900">
<ele>270.149994</ele>
<time>2022-09-02T11:46:46.278Z</time>
</trkpt>
<trkpt lat="31.8054700" lon="35.0042800">
<ele>269.950012</ele>
<time>2022-09-02T11:46:46.278Z</time>
</trkpt>
<trkpt lat="31.8055100" lon="35.0042700">
<ele>269.799988</ele>
<time>2022-09-02T11:46:46.278Z</time>
</trkpt>
<trkpt lat="31.8055600" lon="35.0042600">
<ele>269.609985</ele>
<time>2022-09-02T11:46:46.278Z</time>
</trkpt>
<trkpt lat="31.8055900" lon="35.0042500">
<ele>269.609985</ele>
<time>2022-09-02T11:46:46.278Z</time>
</trkpt>
<trkpt lat="31.8056400" lon="35.0042500">
<ele>269.199982</ele>
<time>2022-09-02T11:46:46.278Z</time>
</trkpt>
<trkpt lat="31.8056700" lon="35.0042500">
<ele>268.950012</ele>
<time>2022-09-02T11:46:46.278Z</time>
</trkpt>
<trkpt lat="31.8057200" lon="35.0042500">
<ele>268.540009</ele>
<time>2022-09-02T11:46:46.278Z</time>
</trkpt>
<trkpt lat="31.8057700" lon="35.0042600">
<ele>267.839996</ele>
<time>2022-09-02T11:46:46.278Z</time>
</trkpt>
<trkpt lat="31.8058200" lon="35.0042700">
<ele>267.139984</ele>
<time>2022-09-02T11:46:46.278Z</time>
</trkpt>
<trkpt lat="31.8058900" lon="35.0042900">
<ele>265.269989</ele>
<time>2022-09-02T11:46:46.278Z</time>
</trkpt>
<trkpt lat="31.8059400" lon="35.0043100">
<ele>263.790009</ele>
<time>2022-09-02T11:46:46.278Z</time>
</trkpt>
<trkpt lat="31.8060100" lon="35.0043300">
<ele>262.080017</ele>
<time>2022-09-02T11:46:46.278Z</time>
</trkpt>
<trkpt lat="31.8060700" lon="35.0043500">
<ele>260.720001</ele>
<time>2022-09-02T11:46:46.278Z</time>
</trkpt>
<trkpt lat="31.8061800" lon="35.0043900">
<ele>259.739990</ele>
<time>2022-09-02T11:46:46.278Z</time>
</trkpt>
<trkpt lat="31.8062600" lon="35.0044200">
<ele>259.710022</ele>
<time>2022-09-02T11:46:46.279Z</time>
</trkpt>
<trkpt lat="31.8063300" lon="35.0044400">
<ele>259.809998</ele>
<time>2022-09-02T11:46:46.279Z</time>
</trkpt>
<trkpt lat="31.8064800" lon="35.0044800">
<ele>258.720001</ele>
<time>2022-09-02T11:46:46.279Z</time>
</trkpt>
<trkpt lat="31.8065400" lon="35.0045000">
<ele>257.730011</ele>
<time>2022-09-02T11:46:46.279Z</time>
</trkpt>
<trkpt lat="31.8066300" lon="35.0045200">
<ele>256.179993</ele>
<time>2022-09-02T11:46:46.279Z</time>
</trkpt>
<trkpt lat="31.8066700" lon="35.0045500">
<ele>255.029999</ele>
<time>2022-09-02T11:46:46.279Z</time>
</trkpt>
<trkpt lat="31.8067000" lon="35.0046500">
<ele>252.669998</ele>
<time>2022-09-02T11:46:46.279Z</time>
</trkpt>
<trkpt lat="31.8067200" lon="35.0047200">
<ele>251.080002</ele>
<time>2022-09-02T11:46:46.279Z</time>
</trkpt>
<trkpt lat="31.8067400" lon="35.0047800">
<ele>251.110001</ele>
<time>2022-09-02T11:46:46.279Z</time>
</trkpt>
<trkpt lat="31.8067700" lon="35.0048800">
<ele>251.550003</ele>
<time>2022-09-02T11:46:46.279Z</time>
</trkpt>
<trkpt lat="31.8067800" lon="35.0049100">
<ele>251.740005</ele>
<time>2022-09-02T11:46:46.279Z</time>
</trkpt>
<trkpt lat="31.8068000" lon="35.0049600">
<ele>252.099991</ele>
<time>2022-09-02T11:46:46.279Z</time>
</trkpt>
<trkpt lat="31.8068400" lon="35.0049800">
<ele>252.119995</ele>
<time>2022-09-02T11:46:46.279Z</time>
</trkpt>
<trkpt lat="31.8068700" lon="35.0049800">
<ele>251.989990</ele>
<time>2022-09-02T11:46:46.279Z</time>
</trkpt>
<trkpt lat="31.8069100" lon="35.0049900">
<ele>251.960007</ele>
<time>2022-09-02T11:46:46.279Z</time>
</trkpt>
<trkpt lat="31.8069600" lon="35.0049700">
<ele>251.419998</ele>
<time>2022-09-02T11:46:46.279Z</time>
</trkpt>
<trkpt lat="31.8070000" lon="35.0049600">
<ele>251.170013</ele>
<time>2022-09-02T11:46:46.279Z</time>
</trkpt>
<trkpt lat="31.8070500" lon="35.0049400">
<ele>250.789993</ele>
<time>2022-09-02T11:46:46.279Z</time>
</trkpt>
<trkpt lat="31.8070900" lon="35.0049200">
<ele>250.489990</ele>
<time>2022-09-02T11:46:46.279Z</time>
</trkpt>
<trkpt lat="31.8071800" lon="35.0048900">
<ele>250.180008</ele>
<time>2022-09-02T11:46:46.279Z</time>
</trkpt>
<trkpt lat="31.8072300" lon="35.0048600">
<ele>250.079987</ele>
<time>2022-09-02T11:46:46.279Z</time>
</trkpt>
<trkpt lat="31.8073300" lon="35.0048000">
<ele>250.550003</ele>
<time>2022-09-02T11:46:46.279Z</time>
</trkpt>
<trkpt lat="31.8074300" lon="35.0047500">
<ele>250.849991</ele>
<time>2022-09-02T11:46:46.279Z</time>
</trkpt>
<trkpt lat="31.8074900" lon="35.0047400">
<ele>251.179993</ele>
<time>2022-09-02T11:46:46.279Z</time>
</trkpt>
<trkpt lat="31.8075500" lon="35.0047300">
<ele>252.380005</ele>
<time>2022-09-02T11:46:46.279Z</time>
</trkpt>
<trkpt lat="31.8076100" lon="35.0047300">
<ele>253.899994</ele>
<time>2022-09-02T11:46:46.279Z</time>
</trkpt>
<trkpt lat="31.8077200" lon="35.0047300">
<ele>256.679993</ele>
<time>2022-09-02T11:46:46.280Z</time>
</trkpt>
<trkpt lat="31.8078100" lon="35.0047200">
<ele>257.730011</ele>
<time>2022-09-02T11:46:46.280Z</time>
</trkpt>
<trkpt lat="31.8078400" lon="35.0047200">
<ele>257.509979</ele>
<time>2022-09-02T11:46:46.280Z</time>
</trkpt>
<trkpt lat="31.8079000" lon="35.0047100">
<ele>256.920013</ele>
<time>2022-09-02T11:46:46.280Z</time>
</trkpt>
<trkpt lat="31.8079300" lon="35.0047000">
<ele>256.549988</ele>
<time>2022-09-02T11:46:46.280Z</time>
</trkpt>
<trkpt lat="31.8079000" lon="35.0047100">
<ele>256.920013</ele>
<time>2022-09-02T11:46:46.280Z</time>
</trkpt>
<trkpt lat="31.8078500" lon="35.0047200">
<ele>257.440002</ele>
<time>2022-09-02T11:46:46.280Z</time>
</trkpt>
<trkpt lat="31.8078300" lon="35.0047400">
<ele>257.919983</ele>
<time>2022-09-02T11:46:46.280Z</time>
</trkpt>
<trkpt lat="31.8078400" lon="35.0047900">
<ele>258.660004</ele>
<time>2022-09-02T11:46:46.280Z</time>
</trkpt>
<trkpt lat="31.8078600" lon="35.0048100">
<ele>258.799988</ele>
<time>2022-09-02T11:46:46.280Z</time>
</trkpt>
<trkpt lat="31.8079100" lon="35.0048400">
<ele>258.760010</ele>
<time>2022-09-02T11:46:46.280Z</time>
</trkpt>
<trkpt lat="31.8079700" lon="35.0048700">
<ele>258.540009</ele>
<time>2022-09-02T11:46:46.280Z</time>
</trkpt>
<trkpt lat="31.8080100" lon="35.0048900">
<ele>258.339996</ele>
<time>2022-09-02T11:46:46.280Z</time>
</trkpt>
<trkpt lat="31.8080500" lon="35.0049200">
<ele>258.200012</ele>
<time>2022-09-02T11:46:46.280Z</time>
</trkpt>
<trkpt lat="31.8081000" lon="35.0049500">
<ele>258.010010</ele>
<time>2022-09-02T11:46:46.280Z</time>
</trkpt>
<trkpt lat="31.8081300" lon="35.0049700">
<ele>257.899994</ele>
<time>2022-09-02T11:46:46.280Z</time>
</trkpt>
<trkpt lat="31.8081600" lon="35.0049900">
<ele>257.779999</ele>
<time>2022-09-02T11:46:46.280Z</time>
</trkpt>
<trkpt lat="31.8081900" lon="35.0050100">
<ele>257.660004</ele>
<time>2022-09-02T11:46:46.280Z</time>
</trkpt>
<trkpt lat="31.8082200" lon="35.0050200">
<ele>257.440002</ele>
<time>2022-09-02T11:46:46.280Z</time>
</trkpt>
<trkpt lat="31.8082600" lon="35.0050300">
<ele>257.119995</ele>
<time>2022-09-02T11:46:46.280Z</time>
</trkpt>
<trkpt lat="31.8082900" lon="35.0050300">
<ele>256.790009</ele>
<time>2022-09-02T11:46:46.280Z</time>
</trkpt>
<trkpt lat="31.8083200" lon="35.0050400">
<ele>256.580017</ele>
<time>2022-09-02T11:46:46.280Z</time>
</trkpt>
<trkpt lat="31.8083500" lon="35.0050500">
<ele>256.660004</ele>
<time>2022-09-02T11:46:46.280Z</time>
</trkpt>
<trkpt lat="31.8083900" lon="35.0050500">
<ele>256.950012</ele>
<time>2022-09-02T11:46:46.280Z</time>
</trkpt>
<trkpt lat="31.8084400" lon="35.0050500">
<ele>257.309998</ele>
<time>2022-09-02T11:46:46.280Z</time>
</trkpt>
<trkpt lat="31.8085000" lon="35.0050500">
<ele>257.740021</ele>
<time>2022-09-02T11:46:46.280Z</time>
</trkpt>
<trkpt lat="31.8085400" lon="35.0050500">
<ele>258.029999</ele>
<time>2022-09-02T11:46:46.280Z</time>
</trkpt>
<trkpt lat="31.8085900" lon="35.0050500">
<ele>258.389984</ele>
<time>2022-09-02T11:46:46.280Z</time>
</trkpt>
<trkpt lat="31.8086600" lon="35.0050500">
<ele>258.830017</ele>
<time>2022-09-02T11:46:46.280Z</time>
</trkpt>
<trkpt lat="31.8087100" lon="35.0050600">
<ele>259.209991</ele>
<time>2022-09-02T11:46:46.280Z</time>
</trkpt>
<trkpt lat="31.8087600" lon="35.0050700">
<ele>259.559998</ele>
<time>2022-09-02T11:46:46.280Z</time>
</trkpt>
<trkpt lat="31.8088000" lon="35.0050900">
<ele>259.889984</ele>
<time>2022-09-02T11:46:46.281Z</time>
</trkpt>
<trkpt lat="31.8088400" lon="35.0051000">
<ele>260.130005</ele>
<time>2022-09-02T11:46:46.281Z</time>
</trkpt>
<trkpt lat="31.8088800" lon="35.0051200">
<ele>260.399994</ele>
<time>2022-09-02T11:46:46.281Z</time>
</trkpt>
<trkpt lat="31.8089200" lon="35.0051300">
<ele>260.399994</ele>
<time>2022-09-02T11:46:46.281Z</time>
</trkpt>
<trkpt lat="31.8089700" lon="35.0051600">
<ele>260.500000</ele>
<time>2022-09-02T11:46:46.281Z</time>
</trkpt>
<trkpt lat="31.8090000" lon="35.0051700">
<ele>260.549988</ele>
<time>2022-09-02T11:46:46.281Z</time>
</trkpt>
<trkpt lat="31.8090400" lon="35.0051800">
<ele>260.619995</ele>
<time>2022-09-02T11:46:46.281Z</time>
</trkpt>
<trkpt lat="31.8090700" lon="35.0051900">
<ele>260.720001</ele>
<time>2022-09-02T11:46:46.281Z</time>
</trkpt>
<trkpt lat="31.8091000" lon="35.0052000">
<ele>260.839996</ele>
<time>2022-09-02T11:46:46.281Z</time>
</trkpt>
<trkpt lat="31.8091300" lon="35.0052000">
<ele>260.860016</ele>
<time>2022-09-02T11:46:46.281Z</time>
</trkpt>
<trkpt lat="31.8091700" lon="35.0052100">
<ele>260.989990</ele>
<time>2022-09-02T11:46:46.281Z</time>
</trkpt>
<trkpt lat="31.8092100" lon="35.0052100">
<ele>260.589996</ele>
<time>2022-09-02T11:46:46.281Z</time>
</trkpt>
<trkpt lat="31.8092400" lon="35.0052000">
<ele>260.160004</ele>
<time>2022-09-02T11:46:46.281Z</time>
</trkpt>
<trkpt lat="31.8092900" lon="35.0051900">
<ele>259.540009</ele>
<time>2022-09-02T11:46:46.281Z</time>
</trkpt>
<trkpt lat="31.8093300" lon="35.0051700">
<ele>258.910004</ele>
<time>2022-09-02T11:46:46.281Z</time>
</trkpt>
<trkpt lat="31.8093800" lon="35.0051200">
<ele>257.859985</ele>
<time>2022-09-02T11:46:46.281Z</time>
</trkpt>
<trkpt lat="31.8094100" lon="35.0050900">
<ele>257.260010</ele>
<time>2022-09-02T11:46:46.281Z</time>
</trkpt>
<trkpt lat="31.8094300" lon="35.0050500">
<ele>256.649994</ele>
<time>2022-09-02T11:46:46.281Z</time>
</trkpt>
<trkpt lat="31.8094500" lon="35.0049800">
<ele>255.699997</ele>
<time>2022-09-02T11:46:46.281Z</time>
</trkpt>
<trkpt lat="31.8094600" lon="35.0049300">
<ele>254.980011</ele>
<time>2022-09-02T11:46:46.281Z</time>
</trkpt>
<trkpt lat="31.8094800" lon="35.0048600">
<ele>254.050003</ele>
<time>2022-09-02T11:46:46.281Z</time>
</trkpt>
<trkpt lat="31.8095200" lon="35.0047900">
<ele>253.319992</ele>
<time>2022-09-02T11:46:46.282Z</time>
</trkpt>
<trkpt lat="31.8095600" lon="35.0047300">
<ele>252.909988</ele>
<time>2022-09-02T11:46:46.282Z</time>
</trkpt>
<trkpt lat="31.8096200" lon="35.0046400">
<ele>252.860001</ele>
<time>2022-09-02T11:46:46.282Z</time>
</trkpt>
<trkpt lat="31.8097100" lon="35.0045100">
<ele>253.110001</ele>
<time>2022-09-02T11:46:46.282Z</time>
</trkpt>
<trkpt lat="31.8098200" lon="35.0043700">
<ele>251.740005</ele>
<time>2022-09-02T11:46:46.282Z</time>
</trkpt>
<trkpt lat="31.8098700" lon="35.0043000">
<ele>250.369995</ele>
<time>2022-09-02T11:46:46.282Z</time>
</trkpt>
<trkpt lat="31.8099200" lon="35.0042300">
<ele>248.809998</ele>
<time>2022-09-02T11:46:46.282Z</time>
</trkpt>
<trkpt lat="31.8100100" lon="35.0041000">
<ele>246.529999</ele>
<time>2022-09-02T11:46:46.282Z</time>
</trkpt>
<trkpt lat="31.8101400" lon="35.0039700">
<ele>244.089996</ele>
<time>2022-09-02T11:46:46.282Z</time>
</trkpt>
<trkpt lat="31.8104000" lon="35.0038800">
<ele>244.400009</ele>
<time>2022-09-02T11:46:46.282Z</time>
</trkpt>
<trkpt lat="31.8104700" lon="35.0038500">
<ele>246.659988</ele>
<time>2022-09-02T11:46:46.282Z</time>
</trkpt>
<trkpt lat="31.8105400" lon="35.0038300">
<ele>248.680008</ele>
<time>2022-09-02T11:46:46.282Z</time>
</trkpt>
<trkpt lat="31.8106900" lon="35.0038200">
<ele>249.979996</ele>
<time>2022-09-02T11:46:46.282Z</time>
</trkpt>
<trkpt lat="31.8108300" lon="35.0038200">
<ele>250.990005</ele>
<time>2022-09-02T11:46:46.282Z</time>
</trkpt>
<trkpt lat="31.8109000" lon="35.0038300">
<ele>251.779999</ele>
<time>2022-09-02T11:46:46.282Z</time>
</trkpt>
<trkpt lat="31.8109600" lon="35.0038500">
<ele>252.790009</ele>
<time>2022-09-02T11:46:46.282Z</time>
</trkpt>
<trkpt lat="31.8110600" lon="35.0039200">
<ele>255.389999</ele>
<time>2022-09-02T11:46:46.282Z</time>
</trkpt>
<trkpt lat="31.8111300" lon="35.0040000">
<ele>257.100006</ele>
<time>2022-09-02T11:46:46.282Z</time>
</trkpt>
<trkpt lat="31.8111700" lon="35.0040200">
<ele>256.880005</ele>
<time>2022-09-02T11:46:46.282Z</time>
</trkpt>
<trkpt lat="31.8112000" lon="35.0040500">
<ele>257.010010</ele>
<time>2022-09-02T11:46:46.282Z</time>
</trkpt>
<trkpt lat="31.8112600" lon="35.0040800">
<ele>256.619995</ele>
<time>2022-09-02T11:46:46.282Z</time>
</trkpt>
<trkpt lat="31.8113700" lon="35.0041800">
<ele>256.479980</ele>
<time>2022-09-02T11:46:46.282Z</time>
</trkpt>
<trkpt lat="31.8114400" lon="35.0042700">
<ele>256.260010</ele>
<time>2022-09-02T11:46:46.282Z</time>
</trkpt>
<trkpt lat="31.8114700" lon="35.0043100">
<ele>256.240021</ele>
<time>2022-09-02T11:46:46.282Z</time>
</trkpt>
<trkpt lat="31.8115000" lon="35.0043600">
<ele>256.369995</ele>
<time>2022-09-02T11:46:46.282Z</time>
</trkpt>
<trkpt lat="31.8115500" lon="35.0044700">
<ele>256.899994</ele>
<time>2022-09-02T11:46:46.282Z</time>
</trkpt>
<trkpt lat="31.8115700" lon="35.0045800">
<ele>257.540009</ele>
<time>2022-09-02T11:46:46.282Z</time>
</trkpt>
<trkpt lat="31.8115900" lon="35.0046300">
<ele>257.619995</ele>
<time>2022-09-02T11:46:46.282Z</time>
</trkpt>
<trkpt lat="31.8115900" lon="35.0047000">
<ele>258.200012</ele>
<time>2022-09-02T11:46:46.282Z</time>
</trkpt>
<trkpt lat="31.8116000" lon="35.0047600">
<ele>258.440002</ele>
<time>2022-09-02T11:46:46.282Z</time>
</trkpt>
<trkpt lat="31.8116000" lon="35.0048500">
<ele>259.010010</ele>
<time>2022-09-02T11:46:46.282Z</time>
</trkpt>
<trkpt lat="31.8116000" lon="35.0048900">
<ele>259.260010</ele>
<time>2022-09-02T11:46:46.283Z</time>
</trkpt>
<trkpt lat="31.8116100" lon="35.0049400">
<ele>259.429993</ele>
<time>2022-09-02T11:46:46.283Z</time>
</trkpt>
<trkpt lat="31.8116100" lon="35.0050000">
<ele>259.819977</ele>
<time>2022-09-02T11:46:46.283Z</time>
</trkpt>
<trkpt lat="31.8116200" lon="35.0050500">
<ele>259.880005</ele>
<time>2022-09-02T11:46:46.283Z</time>
</trkpt>
<trkpt lat="31.8116200" lon="35.0050800">
<ele>260.010010</ele>
<time>2022-09-02T11:46:46.283Z</time>
</trkpt>
<trkpt lat="31.8116300" lon="35.0051300">
<ele>260.059998</ele>
<time>2022-09-02T11:46:46.283Z</time>
</trkpt>
<trkpt lat="31.8116400" lon="35.0051800">
<ele>260.089996</ele>
<time>2022-09-02T11:46:46.283Z</time>
</trkpt>
<trkpt lat="31.8116500" lon="35.0052200">
<ele>260.079987</ele>
<time>2022-09-02T11:46:46.283Z</time>
</trkpt>
<trkpt lat="31.8116600" lon="35.0052500">
<ele>260.019989</ele>
<time>2022-09-02T11:46:46.283Z</time>
</trkpt>
<trkpt lat="31.8116800" lon="35.0052900">
<ele>259.760010</ele>
<time>2022-09-02T11:46:46.283Z</time>
</trkpt>
<trkpt lat="31.8116900" lon="35.0053200">
<ele>259.500000</ele>
<time>2022-09-02T11:46:46.283Z</time>
</trkpt>
<trkpt lat="31.8117100" lon="35.0053600">
<ele>259.029999</ele>
<time>2022-09-02T11:46:46.283Z</time>
</trkpt>
<trkpt lat="31.8117400" lon="35.0053800">
<ele>258.480011</ele>
<time>2022-09-02T11:46:46.283Z</time>
</trkpt>
<trkpt lat="31.8117700" lon="35.0054000">
<ele>257.910004</ele>
<time>2022-09-02T11:46:46.283Z</time>
</trkpt>
<trkpt lat="31.8118200" lon="35.0054000">
<ele>257.109985</ele>
<time>2022-09-02T11:46:46.283Z</time>
</trkpt>
<trkpt lat="31.8118800" lon="35.0054000">
<ele>256.149994</ele>
<time>2022-09-02T11:46:46.283Z</time>
</trkpt>
<trkpt lat="31.8119200" lon="35.0054000">
<ele>255.510010</ele>
<time>2022-09-02T11:46:46.283Z</time>
</trkpt>
<trkpt lat="31.8119700" lon="35.0053800">
<ele>255.259995</ele>
<time>2022-09-02T11:46:46.283Z</time>
</trkpt>
<trkpt lat="31.8120200" lon="35.0053700">
<ele>255.340012</ele>
<time>2022-09-02T11:46:46.283Z</time>
</trkpt>
<trkpt lat="31.8120700" lon="35.0053600">
<ele>255.409988</ele>
<time>2022-09-02T11:46:46.283Z</time>
</trkpt>
<trkpt lat="31.8121100" lon="35.0053500">
<ele>255.479996</ele>
<time>2022-09-02T11:46:46.283Z</time>
</trkpt>
<trkpt lat="31.8121600" lon="35.0053400">
<ele>255.550003</ele>
<time>2022-09-02T11:46:46.283Z</time>
</trkpt>
<trkpt lat="31.8122000" lon="35.0053300">
<ele>255.620010</ele>
<time>2022-09-02T11:46:46.283Z</time>
</trkpt>
<trkpt lat="31.8122500" lon="35.0053100">
<ele>256.079987</ele>
<time>2022-09-02T11:46:46.283Z</time>
</trkpt>
<trkpt lat="31.8122700" lon="35.0052900">
<ele>256.440002</ele>
<time>2022-09-02T11:46:46.283Z</time>
</trkpt>
<trkpt lat="31.8123000" lon="35.0052800">
<ele>256.829987</ele>
<time>2022-09-02T11:46:46.283Z</time>
</trkpt>
<trkpt lat="31.8123300" lon="35.0052600">
<ele>257.160004</ele>
<time>2022-09-02T11:46:46.283Z</time>
</trkpt>
<trkpt lat="31.8123600" lon="35.0052500">
<ele>257.489990</ele>
<time>2022-09-02T11:46:46.283Z</time>
</trkpt>
<trkpt lat="31.8123900" lon="35.0052700">
<ele>257.809998</ele>
<time>2022-09-02T11:46:46.283Z</time>
</trkpt>
<trkpt lat="31.8124000" lon="35.0053300">
<ele>257.660004</ele>
<time>2022-09-02T11:46:46.284Z</time>
</trkpt>
<trkpt lat="31.8123900" lon="35.0053600">
<ele>257.399994</ele>
<time>2022-09-02T11:46:46.284Z</time>
</trkpt>
<trkpt lat="31.8123800" lon="35.0054000">
<ele>257.070007</ele>
<time>2022-09-02T11:46:46.284Z</time>
</trkpt>
<trkpt lat="31.8123800" lon="35.0054300">
<ele>256.920013</ele>
<time>2022-09-02T11:46:46.284Z</time>
</trkpt>
<trkpt lat="31.8123800" lon="35.0054800">
<ele>256.660004</ele>
<time>2022-09-02T11:46:46.284Z</time>
</trkpt>
<trkpt lat="31.8123800" lon="35.0055100">
<ele>256.510010</ele>
<time>2022-09-02T11:46:46.284Z</time>
</trkpt>
<trkpt lat="31.8123700" lon="35.0055500">
<ele>256.160004</ele>
<time>2022-09-02T11:46:46.284Z</time>
</trkpt>
<trkpt lat="31.8123700" lon="35.0055900">
<ele>256.369995</ele>
<time>2022-09-02T11:46:46.284Z</time>
</trkpt>
<trkpt lat="31.8123800" lon="35.0056300">
<ele>256.769989</ele>
<time>2022-09-02T11:46:46.284Z</time>
</trkpt>
<trkpt lat="31.8123800" lon="35.0056700">
<ele>257.040009</ele>
<time>2022-09-02T11:46:46.284Z</time>
</trkpt>
<trkpt lat="31.8123900" lon="35.0057200">
<ele>257.480011</ele>
<time>2022-09-02T11:46:46.284Z</time>
</trkpt>
<trkpt lat="31.8123900" lon="35.0057600">
<ele>257.730011</ele>
<time>2022-09-02T11:46:46.284Z</time>
</trkpt>
<trkpt lat="31.8123900" lon="35.0058100">
<ele>258.059998</ele>
<time>2022-09-02T11:46:46.284Z</time>
</trkpt>
<trkpt lat="31.8123900" lon="35.0058500">
<ele>258.420013</ele>
<time>2022-09-02T11:46:46.284Z</time>
</trkpt>
<trkpt lat="31.8123900" lon="35.0058800">
<ele>258.809998</ele>
<time>2022-09-02T11:46:46.284Z</time>
</trkpt>
<trkpt lat="31.8123900" lon="35.0059200">
<ele>259.329987</ele>
<time>2022-09-02T11:46:46.284Z</time>
</trkpt>
<trkpt lat="31.8123900" lon="35.0059500">
<ele>259.720001</ele>
<time>2022-09-02T11:46:46.284Z</time>
</trkpt>
<trkpt lat="31.8123900" lon="35.0059800">
<ele>260.110016</ele>
<time>2022-09-02T11:46:46.284Z</time>
</trkpt>
<trkpt lat="31.8124000" lon="35.0060200">
<ele>260.730011</ele>
<time>2022-09-02T11:46:46.284Z</time>
</trkpt>
<trkpt lat="31.8124000" lon="35.0060600">
<ele>261.250000</ele>
<time>2022-09-02T11:46:46.284Z</time>
</trkpt>
<trkpt lat="31.8124000" lon="35.0061100">
<ele>261.910004</ele>
<time>2022-09-02T11:46:46.284Z</time>
</trkpt>
<trkpt lat="31.8124000" lon="35.0061500">
<ele>262.059998</ele>
<time>2022-09-02T11:46:46.284Z</time>
</trkpt>
<trkpt lat="31.8123900" lon="35.0061900">
<ele>262.100006</ele>
<time>2022-09-02T11:46:46.284Z</time>
</trkpt>
<trkpt lat="31.8123900" lon="35.0062300">
<ele>262.239990</ele>
<time>2022-09-02T11:46:46.284Z</time>
</trkpt>
<trkpt lat="31.8123900" lon="35.0062800">
<ele>262.420013</ele>
<time>2022-09-02T11:46:46.284Z</time>
</trkpt>
<trkpt lat="31.8123900" lon="35.0063300">
<ele>262.600006</ele>
<time>2022-09-02T11:46:46.284Z</time>
</trkpt>
<trkpt lat="31.8123800" lon="35.0063800">
<ele>262.669983</ele>
<time>2022-09-02T11:46:46.284Z</time>
</trkpt>
<trkpt lat="31.8123800" lon="35.0064500">
<ele>262.579987</ele>
<time>2022-09-02T11:46:46.284Z</time>
</trkpt>
<trkpt lat="31.8123700" lon="35.0065300">
<ele>262.329987</ele>
<time>2022-09-02T11:46:46.284Z</time>
</trkpt>
<trkpt lat="31.8123700" lon="35.0066000">
<ele>262.190002</ele>
<time>2022-09-02T11:46:46.284Z</time>
</trkpt>
<trkpt lat="31.8123600" lon="35.0066700">
<ele>261.980011</ele>
<time>2022-09-02T11:46:46.285Z</time>
</trkpt>
<trkpt lat="31.8123500" lon="35.0067400">
<ele>261.630005</ele>
<time>2022-09-02T11:46:46.285Z</time>
</trkpt>
<trkpt lat="31.8123400" lon="35.0068500">
<ele>261.089996</ele>
<time>2022-09-02T11:46:46.285Z</time>
</trkpt>
<trkpt lat="31.8123300" lon="35.0069300">
<ele>260.619995</ele>
<time>2022-09-02T11:46:46.285Z</time>
</trkpt>
<trkpt lat="31.8123300" lon="35.0070100">
<ele>260.589996</ele>
<time>2022-09-02T11:46:46.285Z</time>
</trkpt>
<trkpt lat="31.8123200" lon="35.0071000">
<ele>260.440002</ele>
<time>2022-09-02T11:46:46.285Z</time>
</trkpt>
<trkpt lat="31.8123200" lon="35.0071800">
<ele>260.460022</ele>
<time>2022-09-02T11:46:46.285Z</time>
</trkpt>
<trkpt lat="31.8123100" lon="35.0072500">
<ele>260.239990</ele>
<time>2022-09-02T11:46:46.285Z</time>
</trkpt>
<trkpt lat="31.8123100" lon="35.0073700">
<ele>260.380005</ele>
<time>2022-09-02T11:46:46.285Z</time>
</trkpt>
<trkpt lat="31.8123000" lon="35.0075800">
<ele>260.320007</ele>
<time>2022-09-02T11:46:46.285Z</time>
</trkpt>
<trkpt lat="31.8122900" lon="35.0077800">
<ele>260.190002</ele>
<time>2022-09-02T11:46:46.285Z</time>
</trkpt>
<trkpt lat="31.8122900" lon="35.0079000">
<ele>260.089996</ele>
<time>2022-09-02T11:46:46.285Z</time>
</trkpt>
<trkpt lat="31.8122800" lon="35.0080000">
<ele>259.710022</ele>
<time>2022-09-02T11:46:46.285Z</time>
</trkpt>
<trkpt lat="31.8122800" lon="35.0080500">
<ele>259.669983</ele>
<time>2022-09-02T11:46:46.285Z</time>
</trkpt>
<trkpt lat="31.8122800" lon="35.0081000">
<ele>259.630005</ele>
<time>2022-09-02T11:46:46.285Z</time>
</trkpt>
<trkpt lat="31.8122800" lon="35.0081900">
<ele>259.559998</ele>
<time>2022-09-02T11:46:46.285Z</time>
</trkpt>
<trkpt lat="31.8122800" lon="35.0082800">
<ele>259.500000</ele>
<time>2022-09-02T11:46:46.285Z</time>
</trkpt>
<trkpt lat="31.8122800" lon="35.0083800">
<ele>259.619995</ele>
<time>2022-09-02T11:46:46.285Z</time>
</trkpt>
<trkpt lat="31.8122800" lon="35.0084300">
<ele>259.799988</ele>
<time>2022-09-02T11:46:46.285Z</time>
</trkpt>
<trkpt lat="31.8122700" lon="35.0085200">
<ele>259.880005</ele>
<time>2022-09-02T11:46:46.285Z</time>
</trkpt>
<trkpt lat="31.8122700" lon="35.0085600">
<ele>260.019989</ele>
<time>2022-09-02T11:46:46.285Z</time>
</trkpt>
<trkpt lat="31.8122700" lon="35.0086200">
<ele>260.260010</ele>
<time>2022-09-02T11:46:46.285Z</time>
</trkpt>
<trkpt lat="31.8122500" lon="35.0087000">
<ele>260.279999</ele>
<time>2022-09-02T11:46:46.285Z</time>
</trkpt>
<trkpt lat="31.8122500" lon="35.0087600">
<ele>260.660004</ele>
<time>2022-09-02T11:46:46.285Z</time>
</trkpt>
<trkpt lat="31.8122500" lon="35.0088300">
<ele>261.119995</ele>
<time>2022-09-02T11:46:46.285Z</time>
</trkpt>
<trkpt lat="31.8122400" lon="35.0088800">
<ele>261.260010</ele>
<time>2022-09-02T11:46:46.285Z</time>
</trkpt>
<trkpt lat="31.8122400" lon="35.0089300">
<ele>261.459991</ele>
<time>2022-09-02T11:46:46.285Z</time>
</trkpt>
<trkpt lat="31.8122300" lon="35.0089700">
<ele>261.420013</ele>
<time>2022-09-02T11:46:46.285Z</time>
</trkpt>
<trkpt lat="31.8122300" lon="35.0090500">
<ele>261.700012</ele>
<time>2022-09-02T11:46:46.285Z</time>
</trkpt>
<trkpt lat="31.8122300" lon="35.0091000">
<ele>261.880005</ele>
<time>2022-09-02T11:46:46.286Z</time>
</trkpt>
<trkpt lat="31.8122200" lon="35.0091700">
<ele>262.040009</ele>
<time>2022-09-02T11:46:46.286Z</time>
</trkpt>
<trkpt lat="31.8122200" lon="35.0092200">
<ele>262.399994</ele>
<time>2022-09-02T11:46:46.286Z</time>
</trkpt>
<trkpt lat="31.8122200" lon="35.0092600">
<ele>262.679993</ele>
<time>2022-09-02T11:46:46.286Z</time>
</trkpt>
<trkpt lat="31.8122200" lon="35.0093100">
<ele>263.040009</ele>
<time>2022-09-02T11:46:46.286Z</time>
</trkpt>
<trkpt lat="31.8122100" lon="35.0093600">
<ele>263.390015</ele>
<time>2022-09-02T11:46:46.286Z</time>
</trkpt>
<trkpt lat="31.8122100" lon="35.0094000">
<ele>263.660004</ele>
<time>2022-09-02T11:46:46.286Z</time>
</trkpt>
<trkpt lat="31.8122100" lon="35.0094500">
<ele>264.000000</ele>
<time>2022-09-02T11:46:46.286Z</time>
</trkpt>
<trkpt lat="31.8122100" lon="35.0094900">
<ele>264.279999</ele>
<time>2022-09-02T11:46:46.286Z</time>
</trkpt>
<trkpt lat="31.8122000" lon="35.0095300">
<ele>264.540009</ele>
<time>2022-09-02T11:46:46.286Z</time>
</trkpt>
<trkpt lat="31.8122000" lon="35.0095800">
<ele>264.899994</ele>
<time>2022-09-02T11:46:46.286Z</time>
</trkpt>
<trkpt lat="31.8122000" lon="35.0096500">
<ele>265.399994</ele>
<time>2022-09-02T11:46:46.286Z</time>
</trkpt>
<trkpt lat="31.8121900" lon="35.0097000">
<ele>265.720001</ele>
<time>2022-09-02T11:46:46.286Z</time>
</trkpt>
<trkpt lat="31.8121900" lon="35.0097600">
<ele>265.989990</ele>
<time>2022-09-02T11:46:46.286Z</time>
</trkpt>
<trkpt lat="31.8121800" lon="35.0098300">
<ele>266.119995</ele>
<time>2022-09-02T11:46:46.286Z</time>
</trkpt>
<trkpt lat="31.8121800" lon="35.0098700">
<ele>266.220001</ele>
<time>2022-09-02T11:46:46.286Z</time>
</trkpt>
<trkpt lat="31.8121800" lon="35.0099100">
<ele>266.320007</ele>
<time>2022-09-02T11:46:46.286Z</time>
</trkpt>
<trkpt lat="31.8121800" lon="35.0099500">
<ele>266.420013</ele>
<time>2022-09-02T11:46:46.286Z</time>
</trkpt>
<trkpt lat="31.8121700" lon="35.0099900">
<ele>266.410004</ele>
<time>2022-09-02T11:46:46.286Z</time>
</trkpt>
<trkpt lat="31.8121700" lon="35.0100300">
<ele>266.609985</ele>
<time>2022-09-02T11:46:46.286Z</time>
</trkpt>
<trkpt lat="31.8121700" lon="35.0100600">
<ele>266.790009</ele>
<time>2022-09-02T11:46:46.286Z</time>
</trkpt>
<trkpt lat="31.8121600" lon="35.0101000">
<ele>266.889984</ele>
<time>2022-09-02T11:46:46.286Z</time>
</trkpt>
<trkpt lat="31.8121500" lon="35.0101500">
<ele>267.019989</ele>
<time>2022-09-02T11:46:46.286Z</time>
</trkpt>
<trkpt lat="31.8121500" lon="35.0102200">
<ele>267.390015</ele>
<time>2022-09-02T11:46:46.286Z</time>
</trkpt>
<trkpt lat="31.8121400" lon="35.0102600">
<ele>267.429993</ele>
<time>2022-09-02T11:46:46.286Z</time>
</trkpt>
<trkpt lat="31.8121300" lon="35.0103300">
<ele>267.720001</ele>
<time>2022-09-02T11:46:46.286Z</time>
</trkpt>
<trkpt lat="31.8121200" lon="35.0104300">
<ele>268.260010</ele>
<time>2022-09-02T11:46:46.286Z</time>
</trkpt>
<trkpt lat="31.8121200" lon="35.0104900">
<ele>268.690002</ele>
<time>2022-09-02T11:46:46.286Z</time>
</trkpt>
<trkpt lat="31.8121100" lon="35.0105300">
<ele>268.799988</ele>
<time>2022-09-02T11:46:46.286Z</time>
</trkpt>
<trkpt lat="31.8121000" lon="35.0105900">
<ele>269.160004</ele>
<time>2022-09-02T11:46:46.286Z</time>
</trkpt>
<trkpt lat="31.8120900" lon="35.0106600">
<ele>269.729980</ele>
<time>2022-09-02T11:46:46.287Z</time>
</trkpt>
<trkpt lat="31.8120700" lon="35.0107100">
<ele>269.980011</ele>
<time>2022-09-02T11:46:46.287Z</time>
</trkpt>
<trkpt lat="31.8120500" lon="35.0108100">
<ele>270.869995</ele>
<time>2022-09-02T11:46:46.287Z</time>
</trkpt>
<trkpt lat="31.8120400" lon="35.0108900">
<ele>272.049988</ele>
<time>2022-09-02T11:46:46.287Z</time>
</trkpt>
<trkpt lat="31.8120200" lon="35.0109500">
<ele>272.919983</ele>
<time>2022-09-02T11:46:46.287Z</time>
</trkpt>
<trkpt lat="31.8120100" lon="35.0110500">
<ele>274.609985</ele>
<time>2022-09-02T11:46:46.287Z</time>
</trkpt>
<trkpt lat="31.8119800" lon="35.0111300">
<ele>275.589996</ele>
<time>2022-09-02T11:46:46.287Z</time>
</trkpt>
<trkpt lat="31.8119600" lon="35.0111800">
<ele>275.910004</ele>
<time>2022-09-02T11:46:46.287Z</time>
</trkpt>
<trkpt lat="31.8119500" lon="35.0112500">
<ele>276.559998</ele>
<time>2022-09-02T11:46:46.287Z</time>
</trkpt>
<trkpt lat="31.8119200" lon="35.0113400">
<ele>277.489990</ele>
<time>2022-09-02T11:46:46.287Z</time>
</trkpt>
<trkpt lat="31.8118900" lon="35.0114300">
<ele>278.000000</ele>
<time>2022-09-02T11:46:46.287Z</time>
</trkpt>
<trkpt lat="31.8118800" lon="35.0114700">
<ele>278.000000</ele>
<time>2022-09-02T11:46:46.287Z</time>
</trkpt>
<trkpt lat="31.8118600" lon="35.0115500">
<ele>278.000000</ele>
<time>2022-09-02T11:46:46.287Z</time>
</trkpt>
<trkpt lat="31.8118500" lon="35.0115900">
<ele>278.000000</ele>
<time>2022-09-02T11:46:46.287Z</time>
</trkpt>
<trkpt lat="31.8118300" lon="35.0116400">
<ele>278.000000</ele>
<time>2022-09-02T11:46:46.287Z</time>
</trkpt>
<trkpt lat="31.8118200" lon="35.0116900">
<ele>278.140015</ele>
<time>2022-09-02T11:46:46.287Z</time>
</trkpt>
<trkpt lat="31.8118000" lon="35.0117400">
<ele>278.380005</ele>
<time>2022-09-02T11:46:46.287Z</time>
</trkpt>
<trkpt lat="31.8117900" lon="35.0117900">
<ele>278.589996</ele>
<time>2022-09-02T11:46:46.287Z</time>
</trkpt>
<trkpt lat="31.8117700" lon="35.0118600">
<ele>278.779999</ele>
<time>2022-09-02T11:46:46.287Z</time>
</trkpt>
<trkpt lat="31.8117500" lon="35.0119100">
<ele>278.790009</ele>
<time>2022-09-02T11:46:46.287Z</time>
</trkpt>
<trkpt lat="31.8117400" lon="35.0119600">
<ele>278.790009</ele>
<time>2022-09-02T11:46:46.287Z</time>
</trkpt>
<trkpt lat="31.8117100" lon="35.0120500">
<ele>278.470001</ele>
<time>2022-09-02T11:46:46.287Z</time>
</trkpt>
<trkpt lat="31.8117000" lon="35.0121000">
<ele>278.359985</ele>
<time>2022-09-02T11:46:46.287Z</time>
</trkpt>
<trkpt lat="31.8116700" lon="35.0121900">
<ele>278.040009</ele>
<time>2022-09-02T11:46:46.287Z</time>
</trkpt>
<trkpt lat="31.8116600" lon="35.0122300">
<ele>278.019989</ele>
<time>2022-09-02T11:46:46.287Z</time>
</trkpt>
<trkpt lat="31.8116300" lon="35.0123200">
<ele>277.819977</ele>
<time>2022-09-02T11:46:46.287Z</time>
</trkpt>
<trkpt lat="31.8116100" lon="35.0123700">
<ele>277.660004</ele>
<time>2022-09-02T11:46:46.287Z</time>
</trkpt>
<trkpt lat="31.8115900" lon="35.0124200">
<ele>277.450012</ele>
<time>2022-09-02T11:46:46.287Z</time>
</trkpt>
</trkseg>
</trk>
</gpx>
